<?xml version="1.0" encoding="UTF-8" standalone="no" ?>
<gpx xmlns="http://www.topografix.com/GPX/1/1" xmlns:xsi="http://www.w3.org/2001/XMLSchema-instance" xsi:schemaLocation="http://www.topografix.com/GPX/1/1 http://www.topografix.com/GPX/1/1/gpx.xsd" version="1.1" creator="VisuGPX - https://www.visugpx.com">
  <metadata>
    <name>Single GR de la Dole</name>
  </metadata>
  <trk>
    <name><![CDATA[Sortie VTT]]></name>
    <extensions>
      <line xmlns="http://www.topografix.com/GPX/gpx_style/0/2">
        <color>0000FF</color>
        <width>4</width>
      </line>
    </extensions>
    <trkseg>
      <trkpt lat="46.37111" lon="6.11751">
        <ele>584.478577</ele>
        <time>2024-09-15T12:07:42.000Z</time>
      </trkpt>
      <trkpt lat="46.37128" lon="6.11765">
        <ele>584.665943</ele>
        <time>2024-09-15T12:07:46.000Z</time>
      </trkpt>
      <trkpt lat="46.37132" lon="6.11768">
        <ele>584.71383</ele>
        <time>2024-09-15T12:07:47.000Z</time>
      </trkpt>
      <trkpt lat="46.37137" lon="6.1177">
        <ele>584.763444</ele>
        <time>2024-09-15T12:07:48.000Z</time>
      </trkpt>
      <trkpt lat="46.37142" lon="6.1177">
        <ele>584.81131</ele>
        <time>2024-09-15T12:07:49.000Z</time>
      </trkpt>
      <trkpt lat="46.37146" lon="6.11768">
        <ele>584.857062</ele>
        <time>2024-09-15T12:07:50.000Z</time>
      </trkpt>
      <trkpt lat="46.3715" lon="6.11766">
        <ele>584.902078</ele>
        <time>2024-09-15T12:07:51.000Z</time>
      </trkpt>
      <trkpt lat="46.37154" lon="6.11764">
        <ele>584.941881</ele>
        <time>2024-09-15T12:07:52.000Z</time>
      </trkpt>
      <trkpt lat="46.37157" lon="6.11761">
        <ele>584.980489</ele>
        <time>2024-09-15T12:07:53.000Z</time>
      </trkpt>
      <trkpt lat="46.37161" lon="6.11759">
        <ele>585.015804</ele>
        <time>2024-09-15T12:07:54.000Z</time>
      </trkpt>
      <trkpt lat="46.37163" lon="6.11757">
        <ele>585.048766</ele>
        <time>2024-09-15T12:07:55.000Z</time>
      </trkpt>
      <trkpt lat="46.37166" lon="6.11755">
        <ele>585.079892</ele>
        <time>2024-09-15T12:07:56.000Z</time>
      </trkpt>
      <trkpt lat="46.37169" lon="6.11753">
        <ele>585.108333</ele>
        <time>2024-09-15T12:07:57.000Z</time>
      </trkpt>
      <trkpt lat="46.37172" lon="6.11752">
        <ele>585.136926</ele>
        <time>2024-09-15T12:07:58.000Z</time>
      </trkpt>
      <trkpt lat="46.37174" lon="6.1175">
        <ele>585.164829</ele>
        <time>2024-09-15T12:07:59.000Z</time>
      </trkpt>
      <trkpt lat="46.37177" lon="6.11748">
        <ele>585.192364</ele>
        <time>2024-09-15T12:08:00.000Z</time>
      </trkpt>
      <trkpt lat="46.37181" lon="6.11745">
        <ele>585.243571</ele>
        <time>2024-09-15T12:08:02.000Z</time>
      </trkpt>
      <trkpt lat="46.37184" lon="6.11744">
        <ele>585.270054</ele>
        <time>2024-09-15T12:08:03.000Z</time>
      </trkpt>
      <trkpt lat="46.37186" lon="6.11743">
        <ele>585.297061</ele>
        <time>2024-09-15T12:08:04.000Z</time>
      </trkpt>
      <trkpt lat="46.37189" lon="6.11742">
        <ele>585.32332</ele>
        <time>2024-09-15T12:08:05.000Z</time>
      </trkpt>
      <trkpt lat="46.37191" lon="6.1174">
        <ele>585.348867</ele>
        <time>2024-09-15T12:08:06.000Z</time>
      </trkpt>
      <trkpt lat="46.37194" lon="6.11739">
        <ele>585.401146</ele>
        <time>2024-09-15T12:08:07.000Z</time>
      </trkpt>
      <trkpt lat="46.37198" lon="6.11738">
        <ele>585.731933</ele>
        <time>2024-09-15T12:08:09.000Z</time>
      </trkpt>
      <trkpt lat="46.37201" lon="6.11737">
        <ele>585.900181</ele>
        <time>2024-09-15T12:08:10.000Z</time>
      </trkpt>
      <trkpt lat="46.37203" lon="6.11736">
        <ele>586.086024</ele>
        <time>2024-09-15T12:08:11.000Z</time>
      </trkpt>
      <trkpt lat="46.37206" lon="6.11735">
        <ele>586.270501</ele>
        <time>2024-09-15T12:08:12.000Z</time>
      </trkpt>
      <trkpt lat="46.37208" lon="6.11734">
        <ele>586.436733</ele>
        <time>2024-09-15T12:08:13.000Z</time>
      </trkpt>
      <trkpt lat="46.3721" lon="6.11734">
        <ele>586.607731</ele>
        <time>2024-09-15T12:08:14.000Z</time>
      </trkpt>
      <trkpt lat="46.37213" lon="6.11734">
        <ele>586.78664</ele>
        <time>2024-09-15T12:08:15.000Z</time>
      </trkpt>
      <trkpt lat="46.37215" lon="6.11734">
        <ele>586.978695</ele>
        <time>2024-09-15T12:08:16.000Z</time>
      </trkpt>
      <trkpt lat="46.37218" lon="6.11734">
        <ele>587.17075</ele>
        <time>2024-09-15T12:08:17.000Z</time>
      </trkpt>
      <trkpt lat="46.37221" lon="6.11734">
        <ele>587.391258</ele>
        <time>2024-09-15T12:08:18.000Z</time>
      </trkpt>
      <trkpt lat="46.37225" lon="6.11734">
        <ele>587.626453</ele>
        <time>2024-09-15T12:08:19.000Z</time>
      </trkpt>
      <trkpt lat="46.37228" lon="6.11734">
        <ele>587.840074</ele>
        <time>2024-09-15T12:08:20.000Z</time>
      </trkpt>
      <trkpt lat="46.37231" lon="6.11734">
        <ele>588.067748</ele>
        <time>2024-09-15T12:08:21.000Z</time>
      </trkpt>
      <trkpt lat="46.37234" lon="6.11734">
        <ele>588.317143</ele>
        <time>2024-09-15T12:08:22.000Z</time>
      </trkpt>
      <trkpt lat="46.37238" lon="6.11733">
        <ele>588.583242</ele>
        <time>2024-09-15T12:08:23.000Z</time>
      </trkpt>
      <trkpt lat="46.37242" lon="6.11732">
        <ele>588.843098</ele>
        <time>2024-09-15T12:08:24.000Z</time>
      </trkpt>
      <trkpt lat="46.37245" lon="6.11732">
        <ele>589.093265</ele>
        <time>2024-09-15T12:08:25.000Z</time>
      </trkpt>
      <trkpt lat="46.37248" lon="6.11731">
        <ele>589.339112</ele>
        <time>2024-09-15T12:08:26.000Z</time>
      </trkpt>
      <trkpt lat="46.37251" lon="6.11729">
        <ele>589.544794</ele>
        <time>2024-09-15T12:08:27.000Z</time>
      </trkpt>
      <trkpt lat="46.37254" lon="6.11727">
        <ele>589.760479</ele>
        <time>2024-09-15T12:08:28.000Z</time>
      </trkpt>
      <trkpt lat="46.37257" lon="6.11726">
        <ele>589.98488</ele>
        <time>2024-09-15T12:08:29.000Z</time>
      </trkpt>
      <trkpt lat="46.3726" lon="6.11724">
        <ele>590.211259</ele>
        <time>2024-09-15T12:08:30.000Z</time>
      </trkpt>
      <trkpt lat="46.37263" lon="6.11721">
        <ele>590.461255</ele>
        <time>2024-09-15T12:08:31.000Z</time>
      </trkpt>
      <trkpt lat="46.37265" lon="6.11719">
        <ele>590.67179</ele>
        <time>2024-09-15T12:08:32.000Z</time>
      </trkpt>
      <trkpt lat="46.37267" lon="6.11716">
        <ele>590.873785</ele>
        <time>2024-09-15T12:08:33.000Z</time>
      </trkpt>
      <trkpt lat="46.3727" lon="6.11714">
        <ele>591.081192</ele>
        <time>2024-09-15T12:08:34.000Z</time>
      </trkpt>
      <trkpt lat="46.37272" lon="6.11712">
        <ele>591.274552</ele>
        <time>2024-09-15T12:08:35.000Z</time>
      </trkpt>
      <trkpt lat="46.37275" lon="6.1171">
        <ele>591.486273</ele>
        <time>2024-09-15T12:08:36.000Z</time>
      </trkpt>
      <trkpt lat="46.37278" lon="6.11708">
        <ele>591.70619</ele>
        <time>2024-09-15T12:08:37.000Z</time>
      </trkpt>
      <trkpt lat="46.3728" lon="6.11706">
        <ele>591.930445</ele>
        <time>2024-09-15T12:08:38.000Z</time>
      </trkpt>
      <trkpt lat="46.37283" lon="6.11704">
        <ele>592.167425</ele>
        <time>2024-09-15T12:08:39.000Z</time>
      </trkpt>
      <trkpt lat="46.37287" lon="6.11702">
        <ele>592.406654</ele>
        <time>2024-09-15T12:08:40.000Z</time>
      </trkpt>
      <trkpt lat="46.3729" lon="6.11701">
        <ele>592.640727</ele>
        <time>2024-09-15T12:08:41.000Z</time>
      </trkpt>
      <trkpt lat="46.37292" lon="6.11698">
        <ele>592.857395</ele>
        <time>2024-09-15T12:08:42.000Z</time>
      </trkpt>
      <trkpt lat="46.37295" lon="6.11695">
        <ele>593.105076</ele>
        <time>2024-09-15T12:08:43.000Z</time>
      </trkpt>
      <trkpt lat="46.37298" lon="6.11693">
        <ele>593.315706</ele>
        <time>2024-09-15T12:08:44.000Z</time>
      </trkpt>
      <trkpt lat="46.373" lon="6.11691">
        <ele>593.520366</ele>
        <time>2024-09-15T12:08:45.000Z</time>
      </trkpt>
      <trkpt lat="46.37302" lon="6.11688">
        <ele>593.724865</ele>
        <time>2024-09-15T12:08:46.000Z</time>
      </trkpt>
      <trkpt lat="46.37305" lon="6.11686">
        <ele>593.930401</ele>
        <time>2024-09-15T12:08:47.000Z</time>
      </trkpt>
      <trkpt lat="46.37308" lon="6.11685">
        <ele>594.141088</ele>
        <time>2024-09-15T12:08:48.000Z</time>
      </trkpt>
      <trkpt lat="46.3731" lon="6.11684">
        <ele>594.3232</ele>
        <time>2024-09-15T12:08:49.000Z</time>
      </trkpt>
      <trkpt lat="46.37313" lon="6.11683">
        <ele>594.523333</ele>
        <time>2024-09-15T12:08:50.000Z</time>
      </trkpt>
      <trkpt lat="46.37317" lon="6.11682">
        <ele>594.806217</ele>
        <time>2024-09-15T12:08:51.000Z</time>
      </trkpt>
      <trkpt lat="46.37319" lon="6.1168">
        <ele>595.016904</ele>
        <time>2024-09-15T12:08:52.000Z</time>
      </trkpt>
      <trkpt lat="46.37322" lon="6.11679">
        <ele>595.181324</ele>
        <time>2024-09-15T12:08:53.000Z</time>
      </trkpt>
      <trkpt lat="46.37323" lon="6.11677">
        <ele>595.322894</ele>
        <time>2024-09-15T12:08:54.000Z</time>
      </trkpt>
      <trkpt lat="46.37325" lon="6.11676">
        <ele>595.483076</ele>
        <time>2024-09-15T12:08:55.000Z</time>
      </trkpt>
      <trkpt lat="46.37327" lon="6.11675">
        <ele>595.641062</ele>
        <time>2024-09-15T12:08:56.000Z</time>
      </trkpt>
      <trkpt lat="46.37329" lon="6.11674">
        <ele>595.790025</ele>
        <time>2024-09-15T12:08:57.000Z</time>
      </trkpt>
      <trkpt lat="46.37332" lon="6.11673">
        <ele>595.958272</ele>
        <time>2024-09-15T12:08:58.000Z</time>
      </trkpt>
      <trkpt lat="46.37334" lon="6.11672">
        <ele>596.140521</ele>
        <time>2024-09-15T12:08:59.000Z</time>
      </trkpt>
      <trkpt lat="46.37336" lon="6.1167">
        <ele>596.313461</ele>
        <time>2024-09-15T12:09:00.000Z</time>
      </trkpt>
      <trkpt lat="46.37338" lon="6.11669">
        <ele>596.482456</ele>
        <time>2024-09-15T12:09:01.000Z</time>
      </trkpt>
      <trkpt lat="46.37341" lon="6.11668">
        <ele>596.641692</ele>
        <time>2024-09-15T12:09:02.000Z</time>
      </trkpt>
      <trkpt lat="46.37343" lon="6.11667">
        <ele>596.816865</ele>
        <time>2024-09-15T12:09:03.000Z</time>
      </trkpt>
      <trkpt lat="46.37345" lon="6.11667">
        <ele>596.974581</ele>
        <time>2024-09-15T12:09:04.000Z</time>
      </trkpt>
      <trkpt lat="46.37347" lon="6.11666">
        <ele>597.129031</ele>
        <time>2024-09-15T12:09:05.000Z</time>
      </trkpt>
      <trkpt lat="46.37349" lon="6.11666">
        <ele>597.288266</ele>
        <time>2024-09-15T12:09:06.000Z</time>
      </trkpt>
      <trkpt lat="46.37352" lon="6.11665">
        <ele>597.438927</ele>
        <time>2024-09-15T12:09:07.000Z</time>
      </trkpt>
      <trkpt lat="46.37354" lon="6.11665">
        <ele>597.603703</ele>
        <time>2024-09-15T12:09:08.000Z</time>
      </trkpt>
      <trkpt lat="46.37356" lon="6.11664">
        <ele>597.781333</ele>
        <time>2024-09-15T12:09:09.000Z</time>
      </trkpt>
      <trkpt lat="46.37359" lon="6.11662">
        <ele>597.975728</ele>
        <time>2024-09-15T12:09:10.000Z</time>
      </trkpt>
      <trkpt lat="46.37361" lon="6.11662">
        <ele>598.148964</ele>
        <time>2024-09-15T12:09:11.000Z</time>
      </trkpt>
      <trkpt lat="46.37364" lon="6.11661">
        <ele>598.308181</ele>
        <time>2024-09-15T12:09:12.000Z</time>
      </trkpt>
      <trkpt lat="46.37366" lon="6.11662">
        <ele>598.447066</ele>
        <time>2024-09-15T12:09:13.000Z</time>
      </trkpt>
      <trkpt lat="46.37368" lon="6.11662">
        <ele>598.567093</ele>
        <time>2024-09-15T12:09:14.000Z</time>
      </trkpt>
      <trkpt lat="46.3737" lon="6.11662">
        <ele>598.680587</ele>
        <time>2024-09-15T12:09:15.000Z</time>
      </trkpt>
      <trkpt lat="46.37372" lon="6.11662">
        <ele>598.806673</ele>
        <time>2024-09-15T12:09:16.000Z</time>
      </trkpt>
      <trkpt lat="46.37374" lon="6.11662">
        <ele>598.945559</ele>
        <time>2024-09-15T12:09:17.000Z</time>
      </trkpt>
      <trkpt lat="46.37376" lon="6.11662">
        <ele>599.090733</ele>
        <time>2024-09-15T12:09:18.000Z</time>
      </trkpt>
      <trkpt lat="46.37378" lon="6.11661">
        <ele>599.243501</ele>
        <time>2024-09-15T12:09:19.000Z</time>
      </trkpt>
      <trkpt lat="46.37381" lon="6.11661">
        <ele>599.390036</ele>
        <time>2024-09-15T12:09:20.000Z</time>
      </trkpt>
      <trkpt lat="46.37383" lon="6.1166">
        <ele>599.537278</ele>
        <time>2024-09-15T12:09:21.000Z</time>
      </trkpt>
      <trkpt lat="46.37385" lon="6.1166">
        <ele>599.677585</ele>
        <time>2024-09-15T12:09:22.000Z</time>
      </trkpt>
      <trkpt lat="46.37387" lon="6.1166">
        <ele>599.791079</ele>
        <time>2024-09-15T12:09:23.000Z</time>
      </trkpt>
      <trkpt lat="46.37389" lon="6.1166">
        <ele>599.91739</ele>
        <time>2024-09-15T12:09:24.000Z</time>
      </trkpt>
      <trkpt lat="46.37392" lon="6.1166">
        <ele>600.075444</ele>
        <time>2024-09-15T12:09:25.000Z</time>
      </trkpt>
      <trkpt lat="46.37394" lon="6.11661">
        <ele>600.260014</ele>
        <time>2024-09-15T12:09:26.000Z</time>
      </trkpt>
      <trkpt lat="46.37397" lon="6.11662">
        <ele>600.421322</ele>
        <time>2024-09-15T12:09:27.000Z</time>
      </trkpt>
      <trkpt lat="46.37399" lon="6.11663">
        <ele>600.554621</ele>
        <time>2024-09-15T12:09:28.000Z</time>
      </trkpt>
      <trkpt lat="46.37402" lon="6.11663">
        <ele>600.7205</ele>
        <time>2024-09-15T12:09:29.000Z</time>
      </trkpt>
      <trkpt lat="46.37404" lon="6.11664">
        <ele>600.885236</ele>
        <time>2024-09-15T12:09:30.000Z</time>
      </trkpt>
      <trkpt lat="46.37407" lon="6.11665">
        <ele>601.052702</ele>
        <time>2024-09-15T12:09:31.000Z</time>
      </trkpt>
      <trkpt lat="46.37409" lon="6.11665">
        <ele>601.210217</ele>
        <time>2024-09-15T12:09:32.000Z</time>
      </trkpt>
      <trkpt lat="46.37412" lon="6.11665">
        <ele>601.380333</ele>
        <time>2024-09-15T12:09:33.000Z</time>
      </trkpt>
      <trkpt lat="46.37415" lon="6.11665">
        <ele>601.551335</ele>
        <time>2024-09-15T12:09:34.000Z</time>
      </trkpt>
      <trkpt lat="46.37417" lon="6.11666">
        <ele>601.703934</ele>
        <time>2024-09-15T12:09:35.000Z</time>
      </trkpt>
      <trkpt lat="46.3742" lon="6.11668">
        <ele>601.889391</ele>
        <time>2024-09-15T12:09:36.000Z</time>
      </trkpt>
      <trkpt lat="46.37422" lon="6.11669">
        <ele>602.05082</ele>
        <time>2024-09-15T12:09:37.000Z</time>
      </trkpt>
      <trkpt lat="46.37424" lon="6.11671">
        <ele>602.2003</ele>
        <time>2024-09-15T12:09:38.000Z</time>
      </trkpt>
      <trkpt lat="46.37426" lon="6.11673">
        <ele>602.348251</ele>
        <time>2024-09-15T12:09:39.000Z</time>
      </trkpt>
      <trkpt lat="46.37428" lon="6.11675">
        <ele>602.493838</ele>
        <time>2024-09-15T12:09:40.000Z</time>
      </trkpt>
      <trkpt lat="46.37429" lon="6.11677">
        <ele>602.643361</ele>
        <time>2024-09-15T12:09:41.000Z</time>
      </trkpt>
      <trkpt lat="46.37432" lon="6.1168">
        <ele>602.845112</ele>
        <time>2024-09-15T12:09:42.000Z</time>
      </trkpt>
      <trkpt lat="46.37434" lon="6.11684">
        <ele>603.050044</ele>
        <time>2024-09-15T12:09:43.000Z</time>
      </trkpt>
      <trkpt lat="46.37437" lon="6.11689">
        <ele>603.323286</ele>
        <time>2024-09-15T12:09:44.000Z</time>
      </trkpt>
      <trkpt lat="46.37439" lon="6.11693">
        <ele>603.547234</ele>
        <time>2024-09-15T12:09:45.000Z</time>
      </trkpt>
      <trkpt lat="46.37442" lon="6.11694">
        <ele>603.714032</ele>
        <time>2024-09-15T12:09:46.000Z</time>
      </trkpt>
      <trkpt lat="46.37444" lon="6.11697">
        <ele>603.9054</ele>
        <time>2024-09-15T12:09:47.000Z</time>
      </trkpt>
      <trkpt lat="46.37446" lon="6.11698">
        <ele>604.064308</ele>
        <time>2024-09-15T12:09:48.000Z</time>
      </trkpt>
      <trkpt lat="46.37449" lon="6.117">
        <ele>604.224267</ele>
        <time>2024-09-15T12:09:49.000Z</time>
      </trkpt>
      <trkpt lat="46.37451" lon="6.11701">
        <ele>604.35485</ele>
        <time>2024-09-15T12:09:50.000Z</time>
      </trkpt>
      <trkpt lat="46.37452" lon="6.11702">
        <ele>604.454136</ele>
        <time>2024-09-15T12:09:51.000Z</time>
      </trkpt>
      <trkpt lat="46.37454" lon="6.117">
        <ele>604.573274</ele>
        <time>2024-09-15T12:09:52.000Z</time>
      </trkpt>
      <trkpt lat="46.37456" lon="6.117">
        <ele>604.692985</ele>
        <time>2024-09-15T12:09:53.000Z</time>
      </trkpt>
      <trkpt lat="46.37458" lon="6.117">
        <ele>604.844199</ele>
        <time>2024-09-15T12:09:54.000Z</time>
      </trkpt>
      <trkpt lat="46.37461" lon="6.11701">
        <ele>604.995975</ele>
        <time>2024-09-15T12:09:55.000Z</time>
      </trkpt>
      <trkpt lat="46.37463" lon="6.11701">
        <ele>605.142509</ele>
        <time>2024-09-15T12:09:56.000Z</time>
      </trkpt>
      <trkpt lat="46.37465" lon="6.11702">
        <ele>605.295278</ele>
        <time>2024-09-15T12:09:57.000Z</time>
      </trkpt>
      <trkpt lat="46.37467" lon="6.11702">
        <ele>605.404571</ele>
        <time>2024-09-15T12:09:58.000Z</time>
      </trkpt>
      <trkpt lat="46.3747" lon="6.11702">
        <ele>605.568905</ele>
        <time>2024-09-15T12:09:59.000Z</time>
      </trkpt>
      <trkpt lat="46.37472" lon="6.11702">
        <ele>605.720181</ele>
        <time>2024-09-15T12:10:00.000Z</time>
      </trkpt>
      <trkpt lat="46.37474" lon="6.11702">
        <ele>605.877696</ele>
        <time>2024-09-15T12:10:01.000Z</time>
      </trkpt>
      <trkpt lat="46.37477" lon="6.11701">
        <ele>606.03389</ele>
        <time>2024-09-15T12:10:02.000Z</time>
      </trkpt>
      <trkpt lat="46.37479" lon="6.11701">
        <ele>606.173589</ele>
        <time>2024-09-15T12:10:03.000Z</time>
      </trkpt>
      <trkpt lat="46.37481" lon="6.11701">
        <ele>606.307039</ele>
        <time>2024-09-15T12:10:04.000Z</time>
      </trkpt>
      <trkpt lat="46.37483" lon="6.11701">
        <ele>606.426829</ele>
        <time>2024-09-15T12:10:05.000Z</time>
      </trkpt>
      <trkpt lat="46.37485" lon="6.11701">
        <ele>606.546619</ele>
        <time>2024-09-15T12:10:06.000Z</time>
      </trkpt>
      <trkpt lat="46.37487" lon="6.11701">
        <ele>606.678932</ele>
        <time>2024-09-15T12:10:07.000Z</time>
      </trkpt>
      <trkpt lat="46.37489" lon="6.11701">
        <ele>606.823911</ele>
        <time>2024-09-15T12:10:08.000Z</time>
      </trkpt>
      <trkpt lat="46.37491" lon="6.11701">
        <ele>606.951117</ele>
        <time>2024-09-15T12:10:09.000Z</time>
      </trkpt>
      <trkpt lat="46.37493" lon="6.11701">
        <ele>607.072785</ele>
        <time>2024-09-15T12:10:10.000Z</time>
      </trkpt>
      <trkpt lat="46.37495" lon="6.11701">
        <ele>607.198797</ele>
        <time>2024-09-15T12:10:11.000Z</time>
      </trkpt>
      <trkpt lat="46.37497" lon="6.11701">
        <ele>607.338022</ele>
        <time>2024-09-15T12:10:12.000Z</time>
      </trkpt>
      <trkpt lat="46.375" lon="6.117">
        <ele>607.500323</ele>
        <time>2024-09-15T12:10:13.000Z</time>
      </trkpt>
      <trkpt lat="46.37503" lon="6.11699">
        <ele>607.686941</ele>
        <time>2024-09-15T12:10:14.000Z</time>
      </trkpt>
      <trkpt lat="46.37505" lon="6.11698">
        <ele>607.851677</ele>
        <time>2024-09-15T12:10:15.000Z</time>
      </trkpt>
      <trkpt lat="46.37508" lon="6.11698">
        <ele>608.025311</ele>
        <time>2024-09-15T12:10:16.000Z</time>
      </trkpt>
      <trkpt lat="46.37511" lon="6.11698">
        <ele>608.19681</ele>
        <time>2024-09-15T12:10:17.000Z</time>
      </trkpt>
      <trkpt lat="46.37513" lon="6.11699">
        <ele>608.344884</ele>
        <time>2024-09-15T12:10:18.000Z</time>
      </trkpt>
      <trkpt lat="46.37515" lon="6.117">
        <ele>608.485572</ele>
        <time>2024-09-15T12:10:19.000Z</time>
      </trkpt>
      <trkpt lat="46.37518" lon="6.11702">
        <ele>608.691803</ele>
        <time>2024-09-15T12:10:20.000Z</time>
      </trkpt>
      <trkpt lat="46.37521" lon="6.11704">
        <ele>608.879337</ele>
        <time>2024-09-15T12:10:21.000Z</time>
      </trkpt>
      <trkpt lat="46.37523" lon="6.11707">
        <ele>609.071252</ele>
        <time>2024-09-15T12:10:22.000Z</time>
      </trkpt>
      <trkpt lat="46.37526" lon="6.11709">
        <ele>609.247885</ele>
        <time>2024-09-15T12:10:23.000Z</time>
      </trkpt>
      <trkpt lat="46.37528" lon="6.11711">
        <ele>609.411506</ele>
        <time>2024-09-15T12:10:24.000Z</time>
      </trkpt>
      <trkpt lat="46.3753" lon="6.11712">
        <ele>609.567414</ele>
        <time>2024-09-15T12:10:25.000Z</time>
      </trkpt>
      <trkpt lat="46.37533" lon="6.11713">
        <ele>609.760377</ele>
        <time>2024-09-15T12:10:26.000Z</time>
      </trkpt>
      <trkpt lat="46.37535" lon="6.11714">
        <ele>609.923427</ele>
        <time>2024-09-15T12:10:27.000Z</time>
      </trkpt>
      <trkpt lat="46.37537" lon="6.11715">
        <ele>610.085085</ele>
        <time>2024-09-15T12:10:28.000Z</time>
      </trkpt>
      <trkpt lat="46.3754" lon="6.11716">
        <ele>610.320939</ele>
        <time>2024-09-15T12:10:29.000Z</time>
      </trkpt>
      <trkpt lat="46.37543" lon="6.11716">
        <ele>610.512872</ele>
        <time>2024-09-15T12:10:30.000Z</time>
      </trkpt>
      <trkpt lat="46.37546" lon="6.11717">
        <ele>610.760339</ele>
        <time>2024-09-15T12:10:31.000Z</time>
      </trkpt>
      <trkpt lat="46.3755" lon="6.11719">
        <ele>610.995357</ele>
        <time>2024-09-15T12:10:32.000Z</time>
      </trkpt>
      <trkpt lat="46.37553" lon="6.11719">
        <ele>611.200671</ele>
        <time>2024-09-15T12:10:33.000Z</time>
      </trkpt>
      <trkpt lat="46.37555" lon="6.11718">
        <ele>611.407198</ele>
        <time>2024-09-15T12:10:34.000Z</time>
      </trkpt>
      <trkpt lat="46.37559" lon="6.11718">
        <ele>611.647837</ele>
        <time>2024-09-15T12:10:35.000Z</time>
      </trkpt>
      <trkpt lat="46.37561" lon="6.11717">
        <ele>611.822417</ele>
        <time>2024-09-15T12:10:36.000Z</time>
      </trkpt>
      <trkpt lat="46.37564" lon="6.11713">
        <ele>612.102505</ele>
        <time>2024-09-15T12:10:37.000Z</time>
      </trkpt>
      <trkpt lat="46.37566" lon="6.11709">
        <ele>612.356784</ele>
        <time>2024-09-15T12:10:38.000Z</time>
      </trkpt>
      <trkpt lat="46.37569" lon="6.11708">
        <ele>612.516416</ele>
        <time>2024-09-15T12:10:39.000Z</time>
      </trkpt>
      <trkpt lat="46.37571" lon="6.11705">
        <ele>612.731822</ele>
        <time>2024-09-15T12:10:40.000Z</time>
      </trkpt>
      <trkpt lat="46.37574" lon="6.11705">
        <ele>612.907133</ele>
        <time>2024-09-15T12:10:41.000Z</time>
      </trkpt>
      <trkpt lat="46.37575" lon="6.11703">
        <ele>613.042763</ele>
        <time>2024-09-15T12:10:42.000Z</time>
      </trkpt>
      <trkpt lat="46.37577" lon="6.11701">
        <ele>613.211871</ele>
        <time>2024-09-15T12:10:43.000Z</time>
      </trkpt>
      <trkpt lat="46.37579" lon="6.11699">
        <ele>613.366878</ele>
        <time>2024-09-15T12:10:44.000Z</time>
      </trkpt>
      <trkpt lat="46.37581" lon="6.11698">
        <ele>613.528363</ele>
        <time>2024-09-15T12:10:45.000Z</time>
      </trkpt>
      <trkpt lat="46.37583" lon="6.11696">
        <ele>613.698463</ele>
        <time>2024-09-15T12:10:46.000Z</time>
      </trkpt>
      <trkpt lat="46.37586" lon="6.11695">
        <ele>613.881415</ele>
        <time>2024-09-15T12:10:47.000Z</time>
      </trkpt>
      <trkpt lat="46.37588" lon="6.11693">
        <ele>614.057723</ele>
        <time>2024-09-15T12:10:48.000Z</time>
      </trkpt>
      <trkpt lat="46.3759" lon="6.11692">
        <ele>614.253007</ele>
        <time>2024-09-15T12:10:49.000Z</time>
      </trkpt>
      <trkpt lat="46.37592" lon="6.1169">
        <ele>614.431662</ele>
        <time>2024-09-15T12:10:50.000Z</time>
      </trkpt>
      <trkpt lat="46.37594" lon="6.11688">
        <ele>614.589564</ele>
        <time>2024-09-15T12:10:51.000Z</time>
      </trkpt>
      <trkpt lat="46.37597" lon="6.11686">
        <ele>614.772143</ele>
        <time>2024-09-15T12:10:52.000Z</time>
      </trkpt>
      <trkpt lat="46.37599" lon="6.11685">
        <ele>614.965405</ele>
        <time>2024-09-15T12:10:53.000Z</time>
      </trkpt>
      <trkpt lat="46.37601" lon="6.11683">
        <ele>615.155081</ele>
        <time>2024-09-15T12:10:54.000Z</time>
      </trkpt>
      <trkpt lat="46.37604" lon="6.11681">
        <ele>615.332778</ele>
        <time>2024-09-15T12:10:55.000Z</time>
      </trkpt>
      <trkpt lat="46.37606" lon="6.11679">
        <ele>615.519992</ele>
        <time>2024-09-15T12:10:56.000Z</time>
      </trkpt>
      <trkpt lat="46.37608" lon="6.11677">
        <ele>615.698349</ele>
        <time>2024-09-15T12:10:57.000Z</time>
      </trkpt>
      <trkpt lat="46.3761" lon="6.11676">
        <ele>615.874657</ele>
        <time>2024-09-15T12:10:58.000Z</time>
      </trkpt>
      <trkpt lat="46.37612" lon="6.11674">
        <ele>616.04663</ele>
        <time>2024-09-15T12:10:59.000Z</time>
      </trkpt>
      <trkpt lat="46.37614" lon="6.11671">
        <ele>616.235644</ele>
        <time>2024-09-15T12:11:00.000Z</time>
      </trkpt>
      <trkpt lat="46.37616" lon="6.11669">
        <ele>616.386553</ele>
        <time>2024-09-15T12:11:01.000Z</time>
      </trkpt>
      <trkpt lat="46.37618" lon="6.11667">
        <ele>616.561201</ele>
        <time>2024-09-15T12:11:02.000Z</time>
      </trkpt>
      <trkpt lat="46.3762" lon="6.11665">
        <ele>616.736266</ele>
        <time>2024-09-15T12:11:03.000Z</time>
      </trkpt>
      <trkpt lat="46.37622" lon="6.11663">
        <ele>616.905238</ele>
        <time>2024-09-15T12:11:04.000Z</time>
      </trkpt>
      <trkpt lat="46.37624" lon="6.1166">
        <ele>617.117128</ele>
        <time>2024-09-15T12:11:05.000Z</time>
      </trkpt>
      <trkpt lat="46.37626" lon="6.11658">
        <ele>617.280532</ele>
        <time>2024-09-15T12:11:06.000Z</time>
      </trkpt>
      <trkpt lat="46.37628" lon="6.11656">
        <ele>617.460955</ele>
        <time>2024-09-15T12:11:07.000Z</time>
      </trkpt>
      <trkpt lat="46.37631" lon="6.11654">
        <ele>617.648168</ele>
        <time>2024-09-15T12:11:08.000Z</time>
      </trkpt>
      <trkpt lat="46.37633" lon="6.11652">
        <ele>617.838156</ele>
        <time>2024-09-15T12:11:09.000Z</time>
      </trkpt>
      <trkpt lat="46.37635" lon="6.1165">
        <ele>618.040092</ele>
        <time>2024-09-15T12:11:10.000Z</time>
      </trkpt>
      <trkpt lat="46.37637" lon="6.11647">
        <ele>618.249397</ele>
        <time>2024-09-15T12:11:11.000Z</time>
      </trkpt>
      <trkpt lat="46.3764" lon="6.11646">
        <ele>618.42133</ele>
        <time>2024-09-15T12:11:12.000Z</time>
      </trkpt>
      <trkpt lat="46.37642" lon="6.11643">
        <ele>618.616205</ele>
        <time>2024-09-15T12:11:13.000Z</time>
      </trkpt>
      <trkpt lat="46.37643" lon="6.1164">
        <ele>618.797373</ele>
        <time>2024-09-15T12:11:14.000Z</time>
      </trkpt>
      <trkpt lat="46.37645" lon="6.11639">
        <ele>618.938248</ele>
        <time>2024-09-15T12:11:15.000Z</time>
      </trkpt>
      <trkpt lat="46.37647" lon="6.11637">
        <ele>619.11935</ele>
        <time>2024-09-15T12:11:16.000Z</time>
      </trkpt>
      <trkpt lat="46.37649" lon="6.11635">
        <ele>619.266829</ele>
        <time>2024-09-15T12:11:17.000Z</time>
      </trkpt>
      <trkpt lat="46.37651" lon="6.11632">
        <ele>619.448298</ele>
        <time>2024-09-15T12:11:18.000Z</time>
      </trkpt>
      <trkpt lat="46.37653" lon="6.1163">
        <ele>619.631915</ele>
        <time>2024-09-15T12:11:19.000Z</time>
      </trkpt>
      <trkpt lat="46.37654" lon="6.11627">
        <ele>619.799737</ele>
        <time>2024-09-15T12:11:20.000Z</time>
      </trkpt>
      <trkpt lat="46.37656" lon="6.11624">
        <ele>619.98646</ele>
        <time>2024-09-15T12:11:21.000Z</time>
      </trkpt>
      <trkpt lat="46.37658" lon="6.11622">
        <ele>620.159419</ele>
        <time>2024-09-15T12:11:22.000Z</time>
      </trkpt>
      <trkpt lat="46.37659" lon="6.11619">
        <ele>620.337761</ele>
        <time>2024-09-15T12:11:23.000Z</time>
      </trkpt>
      <trkpt lat="46.37661" lon="6.11616">
        <ele>620.536275</ele>
        <time>2024-09-15T12:11:24.000Z</time>
      </trkpt>
      <trkpt lat="46.37664" lon="6.11614">
        <ele>620.719922</ele>
        <time>2024-09-15T12:11:25.000Z</time>
      </trkpt>
      <trkpt lat="46.37666" lon="6.11612">
        <ele>620.908936</ele>
        <time>2024-09-15T12:11:26.000Z</time>
      </trkpt>
      <trkpt lat="46.37668" lon="6.1161">
        <ele>621.080909</ele>
        <time>2024-09-15T12:11:27.000Z</time>
      </trkpt>
      <trkpt lat="46.37669" lon="6.11608">
        <ele>621.244312</ele>
        <time>2024-09-15T12:11:28.000Z</time>
      </trkpt>
      <trkpt lat="46.37671" lon="6.11606">
        <ele>621.393193</ele>
        <time>2024-09-15T12:11:29.000Z</time>
      </trkpt>
      <trkpt lat="46.37673" lon="6.11604">
        <ele>621.533485</ele>
        <time>2024-09-15T12:11:30.000Z</time>
      </trkpt>
      <trkpt lat="46.37674" lon="6.11602">
        <ele>621.676716</ele>
        <time>2024-09-15T12:11:31.000Z</time>
      </trkpt>
      <trkpt lat="46.37676" lon="6.11601">
        <ele>621.838264</ele>
        <time>2024-09-15T12:11:32.000Z</time>
      </trkpt>
      <trkpt lat="46.37679" lon="6.11599">
        <ele>622.023093</ele>
        <time>2024-09-15T12:11:33.000Z</time>
      </trkpt>
      <trkpt lat="46.37681" lon="6.11598">
        <ele>622.206045</ele>
        <time>2024-09-15T12:11:34.000Z</time>
      </trkpt>
      <trkpt lat="46.37684" lon="6.11597">
        <ele>622.445528</ele>
        <time>2024-09-15T12:11:35.000Z</time>
      </trkpt>
      <trkpt lat="46.37686" lon="6.11597">
        <ele>622.724143</ele>
        <time>2024-09-15T12:11:36.000Z</time>
      </trkpt>
      <trkpt lat="46.37689" lon="6.11597">
        <ele>622.965117</ele>
        <time>2024-09-15T12:11:37.000Z</time>
      </trkpt>
      <trkpt lat="46.37691" lon="6.11596">
        <ele>623.184728</ele>
        <time>2024-09-15T12:11:38.000Z</time>
      </trkpt>
      <trkpt lat="46.37694" lon="6.11596">
        <ele>623.493125</ele>
        <time>2024-09-15T12:11:39.000Z</time>
      </trkpt>
      <trkpt lat="46.37697" lon="6.11596">
        <ele>623.791594</ele>
        <time>2024-09-15T12:11:40.000Z</time>
      </trkpt>
      <trkpt lat="46.377" lon="6.11596">
        <ele>624.06987</ele>
        <time>2024-09-15T12:11:41.000Z</time>
      </trkpt>
      <trkpt lat="46.37703" lon="6.11597">
        <ele>624.362054</ele>
        <time>2024-09-15T12:11:42.000Z</time>
      </trkpt>
      <trkpt lat="46.37706" lon="6.11598">
        <ele>624.677684</ele>
        <time>2024-09-15T12:11:43.000Z</time>
      </trkpt>
      <trkpt lat="46.37709" lon="6.11598">
        <ele>624.958985</ele>
        <time>2024-09-15T12:11:44.000Z</time>
      </trkpt>
      <trkpt lat="46.37711" lon="6.11599">
        <ele>625.223143</ele>
        <time>2024-09-15T12:11:45.000Z</time>
      </trkpt>
      <trkpt lat="46.37714" lon="6.116">
        <ele>625.466084</ele>
        <time>2024-09-15T12:11:46.000Z</time>
      </trkpt>
      <trkpt lat="46.37716" lon="6.11602">
        <ele>625.737688</ele>
        <time>2024-09-15T12:11:47.000Z</time>
      </trkpt>
      <trkpt lat="46.37718" lon="6.11604">
        <ele>625.988762</ele>
        <time>2024-09-15T12:11:48.000Z</time>
      </trkpt>
      <trkpt lat="46.3772" lon="6.11606">
        <ele>626.230447</ele>
        <time>2024-09-15T12:11:49.000Z</time>
      </trkpt>
      <trkpt lat="46.37722" lon="6.11608">
        <ele>626.464261</ele>
        <time>2024-09-15T12:11:50.000Z</time>
      </trkpt>
      <trkpt lat="46.37723" lon="6.11611">
        <ele>626.70195</ele>
        <time>2024-09-15T12:11:51.000Z</time>
      </trkpt>
      <trkpt lat="46.37725" lon="6.11614">
        <ele>626.933536</ele>
        <time>2024-09-15T12:11:52.000Z</time>
      </trkpt>
      <trkpt lat="46.37726" lon="6.11616">
        <ele>627.159678</ele>
        <time>2024-09-15T12:11:53.000Z</time>
      </trkpt>
      <trkpt lat="46.37727" lon="6.11619">
        <ele>627.391089</ele>
        <time>2024-09-15T12:11:54.000Z</time>
      </trkpt>
      <trkpt lat="46.37729" lon="6.11622">
        <ele>627.617101</ele>
        <time>2024-09-15T12:11:55.000Z</time>
      </trkpt>
      <trkpt lat="46.3773" lon="6.11624">
        <ele>627.831587</ele>
        <time>2024-09-15T12:11:56.000Z</time>
      </trkpt>
      <trkpt lat="46.37731" lon="6.11627">
        <ele>628.040709</ele>
        <time>2024-09-15T12:11:57.000Z</time>
      </trkpt>
      <trkpt lat="46.37732" lon="6.1163">
        <ele>628.260927</ele>
        <time>2024-09-15T12:11:58.000Z</time>
      </trkpt>
      <trkpt lat="46.37733" lon="6.11632">
        <ele>628.486681</ele>
        <time>2024-09-15T12:11:59.000Z</time>
      </trkpt>
      <trkpt lat="46.37735" lon="6.11635">
        <ele>628.695502</ele>
        <time>2024-09-15T12:12:00.000Z</time>
      </trkpt>
      <trkpt lat="46.37735" lon="6.11637">
        <ele>628.865011</ele>
        <time>2024-09-15T12:12:01.000Z</time>
      </trkpt>
      <trkpt lat="46.37736" lon="6.11639">
        <ele>629.011937</ele>
        <time>2024-09-15T12:12:02.000Z</time>
      </trkpt>
      <trkpt lat="46.37737" lon="6.11641">
        <ele>629.198343</ele>
        <time>2024-09-15T12:12:03.000Z</time>
      </trkpt>
      <trkpt lat="46.37739" lon="6.11643">
        <ele>629.390638</ele>
        <time>2024-09-15T12:12:04.000Z</time>
      </trkpt>
      <trkpt lat="46.3774" lon="6.11645">
        <ele>629.589251</ele>
        <time>2024-09-15T12:12:05.000Z</time>
      </trkpt>
      <trkpt lat="46.37742" lon="6.11647">
        <ele>629.822622</ele>
        <time>2024-09-15T12:12:06.000Z</time>
      </trkpt>
      <trkpt lat="46.37744" lon="6.1165">
        <ele>630.052263</ele>
        <time>2024-09-15T12:12:07.000Z</time>
      </trkpt>
      <trkpt lat="46.37745" lon="6.11652">
        <ele>630.302735</ele>
        <time>2024-09-15T12:12:08.000Z</time>
      </trkpt>
      <trkpt lat="46.37747" lon="6.11654">
        <ele>630.553207</ele>
        <time>2024-09-15T12:12:09.000Z</time>
      </trkpt>
      <trkpt lat="46.37749" lon="6.11657">
        <ele>630.800968</ele>
        <time>2024-09-15T12:12:10.000Z</time>
      </trkpt>
      <trkpt lat="46.3775" lon="6.11659">
        <ele>630.987262</ele>
        <time>2024-09-15T12:12:11.000Z</time>
      </trkpt>
      <trkpt lat="46.37751" lon="6.11661">
        <ele>631.168049</ele>
        <time>2024-09-15T12:12:12.000Z</time>
      </trkpt>
      <trkpt lat="46.37753" lon="6.11663">
        <ele>631.380129</ele>
        <time>2024-09-15T12:12:13.000Z</time>
      </trkpt>
      <trkpt lat="46.37754" lon="6.11665">
        <ele>631.554139</ele>
        <time>2024-09-15T12:12:14.000Z</time>
      </trkpt>
      <trkpt lat="46.37755" lon="6.11667">
        <ele>631.728148</ele>
        <time>2024-09-15T12:12:15.000Z</time>
      </trkpt>
      <trkpt lat="46.37757" lon="6.11669">
        <ele>631.930704</ele>
        <time>2024-09-15T12:12:16.000Z</time>
      </trkpt>
      <trkpt lat="46.37758" lon="6.11671">
        <ele>632.121311</ele>
        <time>2024-09-15T12:12:17.000Z</time>
      </trkpt>
      <trkpt lat="46.3776" lon="6.11673">
        <ele>632.311918</ele>
        <time>2024-09-15T12:12:18.000Z</time>
      </trkpt>
      <trkpt lat="46.37761" lon="6.11675">
        <ele>632.505373</ele>
        <time>2024-09-15T12:12:19.000Z</time>
      </trkpt>
      <trkpt lat="46.37762" lon="6.11677">
        <ele>632.69598</ele>
        <time>2024-09-15T12:12:20.000Z</time>
      </trkpt>
      <trkpt lat="46.37764" lon="6.11678">
        <ele>632.877491</ele>
        <time>2024-09-15T12:12:21.000Z</time>
      </trkpt>
      <trkpt lat="46.37765" lon="6.1168">
        <ele>633.070946</ele>
        <time>2024-09-15T12:12:22.000Z</time>
      </trkpt>
      <trkpt lat="46.37766" lon="6.11683">
        <ele>633.280068</ele>
        <time>2024-09-15T12:12:23.000Z</time>
      </trkpt>
      <trkpt lat="46.37767" lon="6.11685">
        <ele>633.461557</ele>
        <time>2024-09-15T12:12:24.000Z</time>
      </trkpt>
      <trkpt lat="46.37767" lon="6.11688">
        <ele>633.644207</ele>
        <time>2024-09-15T12:12:25.000Z</time>
      </trkpt>
      <trkpt lat="46.37767" lon="6.11691">
        <ele>633.863841</ele>
        <time>2024-09-15T12:12:26.000Z</time>
      </trkpt>
      <trkpt lat="46.37767" lon="6.11696">
        <ele>634.159342</ele>
        <time>2024-09-15T12:12:27.000Z</time>
      </trkpt>
      <trkpt lat="46.37767" lon="6.117">
        <ele>634.447318</ele>
        <time>2024-09-15T12:12:28.000Z</time>
      </trkpt>
      <trkpt lat="46.37767" lon="6.11704">
        <ele>634.72176</ele>
        <time>2024-09-15T12:12:29.000Z</time>
      </trkpt>
      <trkpt lat="46.37767" lon="6.11707">
        <ele>634.920848</ele>
        <time>2024-09-15T12:12:30.000Z</time>
      </trkpt>
      <trkpt lat="46.37767" lon="6.1171">
        <ele>635.140483</ele>
        <time>2024-09-15T12:12:31.000Z</time>
      </trkpt>
      <trkpt lat="46.37767" lon="6.11713">
        <ele>635.360117</ele>
        <time>2024-09-15T12:12:32.000Z</time>
      </trkpt>
      <trkpt lat="46.37767" lon="6.11717">
        <ele>635.603367</ele>
        <time>2024-09-15T12:12:33.000Z</time>
      </trkpt>
      <trkpt lat="46.37767" lon="6.1172">
        <ele>635.837336</ele>
        <time>2024-09-15T12:12:34.000Z</time>
      </trkpt>
      <trkpt lat="46.37766" lon="6.11724">
        <ele>636.094124</ele>
        <time>2024-09-15T12:12:35.000Z</time>
      </trkpt>
      <trkpt lat="46.37766" lon="6.11727">
        <ele>636.320391</ele>
        <time>2024-09-15T12:12:36.000Z</time>
      </trkpt>
      <trkpt lat="46.37766" lon="6.1173">
        <ele>636.506582</ele>
        <time>2024-09-15T12:12:37.000Z</time>
      </trkpt>
      <trkpt lat="46.37767" lon="6.11733">
        <ele>636.706413</ele>
        <time>2024-09-15T12:12:38.000Z</time>
      </trkpt>
      <trkpt lat="46.37767" lon="6.11736">
        <ele>636.953249</ele>
        <time>2024-09-15T12:12:39.000Z</time>
      </trkpt>
      <trkpt lat="46.37767" lon="6.11739">
        <ele>637.179515</ele>
        <time>2024-09-15T12:12:40.000Z</time>
      </trkpt>
      <trkpt lat="46.37767" lon="6.11742">
        <ele>637.387104</ele>
        <time>2024-09-15T12:12:41.000Z</time>
      </trkpt>
      <trkpt lat="46.37768" lon="6.11744">
        <ele>637.550828</ele>
        <time>2024-09-15T12:12:42.000Z</time>
      </trkpt>
      <trkpt lat="46.37769" lon="6.11747">
        <ele>637.721343</ele>
        <time>2024-09-15T12:12:43.000Z</time>
      </trkpt>
      <trkpt lat="46.37769" lon="6.11749">
        <ele>637.900718</ele>
        <time>2024-09-15T12:12:44.000Z</time>
      </trkpt>
      <trkpt lat="46.3777" lon="6.11751">
        <ele>638.069316</ele>
        <time>2024-09-15T12:12:45.000Z</time>
      </trkpt>
      <trkpt lat="46.3777" lon="6.11754">
        <ele>638.273516</ele>
        <time>2024-09-15T12:12:46.000Z</time>
      </trkpt>
      <trkpt lat="46.37771" lon="6.11757">
        <ele>638.460811</ele>
        <time>2024-09-15T12:12:47.000Z</time>
      </trkpt>
      <trkpt lat="46.37772" lon="6.11759">
        <ele>638.653052</ele>
        <time>2024-09-15T12:12:48.000Z</time>
      </trkpt>
      <trkpt lat="46.37774" lon="6.11761">
        <ele>638.84146</ele>
        <time>2024-09-15T12:12:49.000Z</time>
      </trkpt>
      <trkpt lat="46.37774" lon="6.11763">
        <ele>639.001373</ele>
        <time>2024-09-15T12:12:50.000Z</time>
      </trkpt>
      <trkpt lat="46.37775" lon="6.11765">
        <ele>639.161286</ele>
        <time>2024-09-15T12:12:51.000Z</time>
      </trkpt>
      <trkpt lat="46.37775" lon="6.11768">
        <ele>639.339757</ele>
        <time>2024-09-15T12:12:52.000Z</time>
      </trkpt>
      <trkpt lat="46.37776" lon="6.1177">
        <ele>639.519132</ele>
        <time>2024-09-15T12:12:53.000Z</time>
      </trkpt>
      <trkpt lat="46.37776" lon="6.11772">
        <ele>639.671453</ele>
        <time>2024-09-15T12:12:54.000Z</time>
      </trkpt>
      <trkpt lat="46.37777" lon="6.11774">
        <ele>639.843078</ele>
        <time>2024-09-15T12:12:55.000Z</time>
      </trkpt>
      <trkpt lat="46.37778" lon="6.11776">
        <ele>639.989889</ele>
        <time>2024-09-15T12:12:56.000Z</time>
      </trkpt>
      <trkpt lat="46.37779" lon="6.11778">
        <ele>640.118957</ele>
        <time>2024-09-15T12:12:57.000Z</time>
      </trkpt>
      <trkpt lat="46.37779" lon="6.11779">
        <ele>640.255161</ele>
        <time>2024-09-15T12:12:58.000Z</time>
      </trkpt>
      <trkpt lat="46.3778" lon="6.11781">
        <ele>640.391364</ele>
        <time>2024-09-15T12:12:59.000Z</time>
      </trkpt>
      <trkpt lat="46.37781" lon="6.11782">
        <ele>640.584366</ele>
        <time>2024-09-15T12:13:00.000Z</time>
      </trkpt>
      <trkpt lat="46.37783" lon="6.11785">
        <ele>640.818781</ele>
        <time>2024-09-15T12:13:01.000Z</time>
      </trkpt>
      <trkpt lat="46.37784" lon="6.11786">
        <ele>641.022019</ele>
        <time>2024-09-15T12:13:02.000Z</time>
      </trkpt>
      <trkpt lat="46.37786" lon="6.11788">
        <ele>641.217666</ele>
        <time>2024-09-15T12:13:03.000Z</time>
      </trkpt>
      <trkpt lat="46.37788" lon="6.11789">
        <ele>641.424608</ele>
        <time>2024-09-15T12:13:04.000Z</time>
      </trkpt>
      <trkpt lat="46.37789" lon="6.11791">
        <ele>641.612151</ele>
        <time>2024-09-15T12:13:05.000Z</time>
      </trkpt>
      <trkpt lat="46.3779" lon="6.11793">
        <ele>641.823637</ele>
        <time>2024-09-15T12:13:06.000Z</time>
      </trkpt>
      <trkpt lat="46.37792" lon="6.11794">
        <ele>642.056956</ele>
        <time>2024-09-15T12:13:07.000Z</time>
      </trkpt>
      <trkpt lat="46.37794" lon="6.11795">
        <ele>642.233265</ele>
        <time>2024-09-15T12:13:08.000Z</time>
      </trkpt>
      <trkpt lat="46.37794" lon="6.11796">
        <ele>642.343245</ele>
        <time>2024-09-15T12:13:09.000Z</time>
      </trkpt>
      <trkpt lat="46.37796" lon="6.11798">
        <ele>642.510538</ele>
        <time>2024-09-15T12:13:10.000Z</time>
      </trkpt>
      <trkpt lat="46.37797" lon="6.118">
        <ele>642.758038</ele>
        <time>2024-09-15T12:13:11.000Z</time>
      </trkpt>
      <trkpt lat="46.37799" lon="6.11801">
        <ele>642.951657</ele>
        <time>2024-09-15T12:13:12.000Z</time>
      </trkpt>
      <trkpt lat="46.378" lon="6.11803">
        <ele>643.153916</ele>
        <time>2024-09-15T12:13:13.000Z</time>
      </trkpt>
      <trkpt lat="46.37802" lon="6.11804">
        <ele>643.379404</ele>
        <time>2024-09-15T12:13:14.000Z</time>
      </trkpt>
      <trkpt lat="46.37804" lon="6.11806">
        <ele>643.617188</ele>
        <time>2024-09-15T12:13:15.000Z</time>
      </trkpt>
      <trkpt lat="46.37805" lon="6.11808">
        <ele>643.806259</ele>
        <time>2024-09-15T12:13:16.000Z</time>
      </trkpt>
      <trkpt lat="46.37807" lon="6.1181">
        <ele>644.027602</ele>
        <time>2024-09-15T12:13:17.000Z</time>
      </trkpt>
      <trkpt lat="46.37809" lon="6.11812">
        <ele>644.337715</ele>
        <time>2024-09-15T12:13:18.000Z</time>
      </trkpt>
      <trkpt lat="46.3781" lon="6.11814">
        <ele>644.572275</ele>
        <time>2024-09-15T12:13:19.000Z</time>
      </trkpt>
      <trkpt lat="46.37812" lon="6.11816">
        <ele>644.8141</ele>
        <time>2024-09-15T12:13:20.000Z</time>
      </trkpt>
      <trkpt lat="46.37814" lon="6.11818">
        <ele>645.07798</ele>
        <time>2024-09-15T12:13:21.000Z</time>
      </trkpt>
      <trkpt lat="46.37816" lon="6.11819">
        <ele>645.267209</ele>
        <time>2024-09-15T12:13:22.000Z</time>
      </trkpt>
      <trkpt lat="46.37818" lon="6.1182">
        <ele>645.496974</ele>
        <time>2024-09-15T12:13:23.000Z</time>
      </trkpt>
      <trkpt lat="46.3782" lon="6.11822">
        <ele>645.739464</ele>
        <time>2024-09-15T12:13:24.000Z</time>
      </trkpt>
      <trkpt lat="46.37821" lon="6.11823">
        <ele>645.936018</ele>
        <time>2024-09-15T12:13:25.000Z</time>
      </trkpt>
      <trkpt lat="46.37823" lon="6.11824">
        <ele>646.086628</ele>
        <time>2024-09-15T12:13:26.000Z</time>
      </trkpt>
      <trkpt lat="46.37824" lon="6.11824">
        <ele>646.238856</ele>
        <time>2024-09-15T12:13:27.000Z</time>
      </trkpt>
      <trkpt lat="46.37826" lon="6.11825">
        <ele>646.434502</ele>
        <time>2024-09-15T12:13:28.000Z</time>
      </trkpt>
      <trkpt lat="46.37827" lon="6.11826">
        <ele>646.637472</ele>
        <time>2024-09-15T12:13:29.000Z</time>
      </trkpt>
      <trkpt lat="46.37829" lon="6.11828">
        <ele>646.849813</ele>
        <time>2024-09-15T12:13:30.000Z</time>
      </trkpt>
      <trkpt lat="46.37831" lon="6.11829">
        <ele>647.058555</ele>
        <time>2024-09-15T12:13:31.000Z</time>
      </trkpt>
      <trkpt lat="46.37832" lon="6.1183">
        <ele>647.270897</ele>
        <time>2024-09-15T12:13:32.000Z</time>
      </trkpt>
      <trkpt lat="46.37834" lon="6.11832">
        <ele>647.438277</ele>
        <time>2024-09-15T12:13:33.000Z</time>
      </trkpt>
      <trkpt lat="46.37835" lon="6.11833">
        <ele>647.59811</ele>
        <time>2024-09-15T12:13:34.000Z</time>
      </trkpt>
      <trkpt lat="46.37836" lon="6.11833">
        <ele>647.73859</ele>
        <time>2024-09-15T12:13:35.000Z</time>
      </trkpt>
      <trkpt lat="46.37837" lon="6.11835">
        <ele>647.90129</ele>
        <time>2024-09-15T12:13:36.000Z</time>
      </trkpt>
      <trkpt lat="46.37839" lon="6.11836">
        <ele>648.094908</ele>
        <time>2024-09-15T12:13:37.000Z</time>
      </trkpt>
      <trkpt lat="46.37841" lon="6.11838">
        <ele>648.311049</ele>
        <time>2024-09-15T12:13:38.000Z</time>
      </trkpt>
      <trkpt lat="46.37842" lon="6.1184">
        <ele>648.561987</ele>
        <time>2024-09-15T12:13:39.000Z</time>
      </trkpt>
      <trkpt lat="46.37844" lon="6.11842">
        <ele>648.783329</ele>
        <time>2024-09-15T12:13:40.000Z</time>
      </trkpt>
      <trkpt lat="46.37845" lon="6.11844">
        <ele>649.003288</ele>
        <time>2024-09-15T12:13:41.000Z</time>
      </trkpt>
      <trkpt lat="46.37847" lon="6.11845">
        <ele>649.232602</ele>
        <time>2024-09-15T12:13:42.000Z</time>
      </trkpt>
      <trkpt lat="46.37849" lon="6.11846">
        <ele>649.449686</ele>
        <time>2024-09-15T12:13:43.000Z</time>
      </trkpt>
      <trkpt lat="46.3785" lon="6.11848">
        <ele>649.630139</ele>
        <time>2024-09-15T12:13:44.000Z</time>
      </trkpt>
      <trkpt lat="46.37852" lon="6.1185">
        <ele>649.85477</ele>
        <time>2024-09-15T12:13:45.000Z</time>
      </trkpt>
      <trkpt lat="46.37853" lon="6.11851">
        <ele>650.014602</ele>
        <time>2024-09-15T12:13:46.000Z</time>
      </trkpt>
      <trkpt lat="46.37854" lon="6.11852">
        <ele>650.168739</ele>
        <time>2024-09-15T12:13:47.000Z</time>
      </trkpt>
      <trkpt lat="46.37856" lon="6.11853">
        <ele>650.35781</ele>
        <time>2024-09-15T12:13:48.000Z</time>
      </trkpt>
      <trkpt lat="46.37857" lon="6.11855">
        <ele>650.560779</ele>
        <time>2024-09-15T12:13:49.000Z</time>
      </trkpt>
      <trkpt lat="46.37859" lon="6.11856">
        <ele>650.741346</ele>
        <time>2024-09-15T12:13:50.000Z</time>
      </trkpt>
      <trkpt lat="46.3786" lon="6.11857">
        <ele>650.940546</ele>
        <time>2024-09-15T12:13:51.000Z</time>
      </trkpt>
      <trkpt lat="46.37862" lon="6.11859">
        <ele>651.149288</ele>
        <time>2024-09-15T12:13:52.000Z</time>
      </trkpt>
      <trkpt lat="46.37864" lon="6.1186">
        <ele>651.339089</ele>
        <time>2024-09-15T12:13:53.000Z</time>
      </trkpt>
      <trkpt lat="46.37865" lon="6.11861">
        <ele>651.53829</ele>
        <time>2024-09-15T12:13:54.000Z</time>
      </trkpt>
      <trkpt lat="46.37867" lon="6.11862">
        <ele>651.753459</ele>
        <time>2024-09-15T12:13:55.000Z</time>
      </trkpt>
      <trkpt lat="46.37868" lon="6.11863">
        <ele>651.922961</ele>
        <time>2024-09-15T12:13:56.000Z</time>
      </trkpt>
      <trkpt lat="46.3787" lon="6.11865">
        <ele>652.110503</ele>
        <time>2024-09-15T12:13:57.000Z</time>
      </trkpt>
      <trkpt lat="46.37871" lon="6.11867">
        <ele>652.310996</ele>
        <time>2024-09-15T12:13:58.000Z</time>
      </trkpt>
      <trkpt lat="46.37872" lon="6.11869">
        <ele>652.488069</ele>
        <time>2024-09-15T12:13:59.000Z</time>
      </trkpt>
      <trkpt lat="46.37873" lon="6.1187">
        <ele>652.642744</ele>
        <time>2024-09-15T12:14:00.000Z</time>
      </trkpt>
      <trkpt lat="46.37874" lon="6.11872">
        <ele>652.822908</ele>
        <time>2024-09-15T12:14:01.000Z</time>
      </trkpt>
      <trkpt lat="46.37876" lon="6.11874">
        <ele>653.039247</ele>
        <time>2024-09-15T12:14:02.000Z</time>
      </trkpt>
      <trkpt lat="46.37877" lon="6.11876">
        <ele>653.267882</ele>
        <time>2024-09-15T12:14:03.000Z</time>
      </trkpt>
      <trkpt lat="46.37879" lon="6.11877">
        <ele>653.457683</ele>
        <time>2024-09-15T12:14:04.000Z</time>
      </trkpt>
      <trkpt lat="46.37881" lon="6.11878">
        <ele>653.65827</ele>
        <time>2024-09-15T12:14:05.000Z</time>
      </trkpt>
      <trkpt lat="46.37882" lon="6.11879">
        <ele>653.840499</ele>
        <time>2024-09-15T12:14:06.000Z</time>
      </trkpt>
      <trkpt lat="46.37883" lon="6.11881">
        <ele>654.061839</ele>
        <time>2024-09-15T12:14:07.000Z</time>
      </trkpt>
      <trkpt lat="46.37885" lon="6.11884">
        <ele>654.286086</ele>
        <time>2024-09-15T12:14:08.000Z</time>
      </trkpt>
      <trkpt lat="46.37886" lon="6.11885">
        <ele>654.452644</ele>
        <time>2024-09-15T12:14:09.000Z</time>
      </trkpt>
      <trkpt lat="46.37887" lon="6.11888">
        <ele>654.656947</ele>
        <time>2024-09-15T12:14:10.000Z</time>
      </trkpt>
      <trkpt lat="46.37888" lon="6.11891">
        <ele>654.953036</ele>
        <time>2024-09-15T12:14:11.000Z</time>
      </trkpt>
      <trkpt lat="46.3789" lon="6.11893">
        <ele>655.192543</ele>
        <time>2024-09-15T12:14:12.000Z</time>
      </trkpt>
      <trkpt lat="46.37891" lon="6.11897">
        <ele>655.507644</ele>
        <time>2024-09-15T12:14:13.000Z</time>
      </trkpt>
      <trkpt lat="46.37892" lon="6.11899">
        <ele>655.734709</ele>
        <time>2024-09-15T12:14:14.000Z</time>
      </trkpt>
      <trkpt lat="46.37893" lon="6.11901">
        <ele>655.885695</ele>
        <time>2024-09-15T12:14:15.000Z</time>
      </trkpt>
      <trkpt lat="46.37895" lon="6.11902">
        <ele>656.149733</ele>
        <time>2024-09-15T12:14:16.000Z</time>
      </trkpt>
      <trkpt lat="46.37897" lon="6.11904">
        <ele>656.390939</ele>
        <time>2024-09-15T12:14:17.000Z</time>
      </trkpt>
      <trkpt lat="46.379" lon="6.11904">
        <ele>656.678135</ele>
        <time>2024-09-15T12:14:18.000Z</time>
      </trkpt>
      <trkpt lat="46.37902" lon="6.11906">
        <ele>656.903622</ele>
        <time>2024-09-15T12:14:19.000Z</time>
      </trkpt>
      <trkpt lat="46.37903" lon="6.11909">
        <ele>657.144205</ele>
        <time>2024-09-15T12:14:20.000Z</time>
      </trkpt>
      <trkpt lat="46.37905" lon="6.1191">
        <ele>657.392295</ele>
        <time>2024-09-15T12:14:21.000Z</time>
      </trkpt>
      <trkpt lat="46.37908" lon="6.11912">
        <ele>657.72425</ele>
        <time>2024-09-15T12:14:22.000Z</time>
      </trkpt>
      <trkpt lat="46.37911" lon="6.11913">
        <ele>658.07918</ele>
        <time>2024-09-15T12:14:23.000Z</time>
      </trkpt>
      <trkpt lat="46.37912" lon="6.11916">
        <ele>658.307365</ele>
        <time>2024-09-15T12:14:24.000Z</time>
      </trkpt>
      <trkpt lat="46.37914" lon="6.11917">
        <ele>658.514151</ele>
        <time>2024-09-15T12:14:25.000Z</time>
      </trkpt>
      <trkpt lat="46.37915" lon="6.11918">
        <ele>658.637306</ele>
        <time>2024-09-15T12:14:26.000Z</time>
      </trkpt>
      <trkpt lat="46.37915" lon="6.1192">
        <ele>658.762121</ele>
        <time>2024-09-15T12:14:27.000Z</time>
      </trkpt>
      <trkpt lat="46.37917" lon="6.11921">
        <ele>658.960465</ele>
        <time>2024-09-15T12:14:28.000Z</time>
      </trkpt>
      <trkpt lat="46.37918" lon="6.11923">
        <ele>659.167405</ele>
        <time>2024-09-15T12:14:29.000Z</time>
      </trkpt>
      <trkpt lat="46.3792" lon="6.11924">
        <ele>659.379745</ele>
        <time>2024-09-15T12:14:30.000Z</time>
      </trkpt>
      <trkpt lat="46.37922" lon="6.11926">
        <ele>659.620951</ele>
        <time>2024-09-15T12:14:31.000Z</time>
      </trkpt>
      <trkpt lat="46.37924" lon="6.11927">
        <ele>659.83287</ele>
        <time>2024-09-15T12:14:32.000Z</time>
      </trkpt>
      <trkpt lat="46.37925" lon="6.11929">
        <ele>660.042981</ele>
        <time>2024-09-15T12:14:33.000Z</time>
      </trkpt>
      <trkpt lat="46.37927" lon="6.1193">
        <ele>660.250913</ele>
        <time>2024-09-15T12:14:34.000Z</time>
      </trkpt>
      <trkpt lat="46.37929" lon="6.11931">
        <ele>660.42341</ele>
        <time>2024-09-15T12:14:35.000Z</time>
      </trkpt>
      <trkpt lat="46.3793" lon="6.11932">
        <ele>660.604642</ele>
        <time>2024-09-15T12:14:36.000Z</time>
      </trkpt>
      <trkpt lat="46.37932" lon="6.11932">
        <ele>660.791381</ele>
        <time>2024-09-15T12:14:37.000Z</time>
      </trkpt>
      <trkpt lat="46.37933" lon="6.11933">
        <ele>660.938935</ele>
        <time>2024-09-15T12:14:38.000Z</time>
      </trkpt>
      <trkpt lat="46.37935" lon="6.11934">
        <ele>661.099959</ele>
        <time>2024-09-15T12:14:39.000Z</time>
      </trkpt>
      <trkpt lat="46.37936" lon="6.11935">
        <ele>661.244849</ele>
        <time>2024-09-15T12:14:40.000Z</time>
      </trkpt>
      <trkpt lat="46.37938" lon="6.11935">
        <ele>661.412634</ele>
        <time>2024-09-15T12:14:41.000Z</time>
      </trkpt>
      <trkpt lat="46.37939" lon="6.11935">
        <ele>661.580419</ele>
        <time>2024-09-15T12:14:42.000Z</time>
      </trkpt>
      <trkpt lat="46.3794" lon="6.11936">
        <ele>661.719267</ele>
        <time>2024-09-15T12:14:43.000Z</time>
      </trkpt>
      <trkpt lat="46.37942" lon="6.11937">
        <ele>661.910902</ele>
        <time>2024-09-15T12:14:44.000Z</time>
      </trkpt>
      <trkpt lat="46.37944" lon="6.11938">
        <ele>662.136943</ele>
        <time>2024-09-15T12:14:45.000Z</time>
      </trkpt>
      <trkpt lat="46.37945" lon="6.11939">
        <ele>662.289472</ele>
        <time>2024-09-15T12:14:46.000Z</time>
      </trkpt>
      <trkpt lat="46.37947" lon="6.11939">
        <ele>662.447674</ele>
        <time>2024-09-15T12:14:47.000Z</time>
      </trkpt>
      <trkpt lat="46.37948" lon="6.11939">
        <ele>662.614994</ele>
        <time>2024-09-15T12:14:48.000Z</time>
      </trkpt>
      <trkpt lat="46.3795" lon="6.1194">
        <ele>662.818158</ele>
        <time>2024-09-15T12:14:49.000Z</time>
      </trkpt>
      <trkpt lat="46.37952" lon="6.11941">
        <ele>663.031543</ele>
        <time>2024-09-15T12:14:50.000Z</time>
      </trkpt>
      <trkpt lat="46.37954" lon="6.11941">
        <ele>663.21148</ele>
        <time>2024-09-15T12:14:51.000Z</time>
      </trkpt>
      <trkpt lat="46.37955" lon="6.11941">
        <ele>663.347493</ele>
        <time>2024-09-15T12:14:52.000Z</time>
      </trkpt>
      <trkpt lat="46.37957" lon="6.11941">
        <ele>663.496577</ele>
        <time>2024-09-15T12:14:53.000Z</time>
      </trkpt>
      <trkpt lat="46.37958" lon="6.11942">
        <ele>663.637098</ele>
        <time>2024-09-15T12:14:54.000Z</time>
      </trkpt>
      <trkpt lat="46.3796" lon="6.11942">
        <ele>663.809766</ele>
        <time>2024-09-15T12:14:55.000Z</time>
      </trkpt>
      <trkpt lat="46.37962" lon="6.11942">
        <ele>664.039731</ele>
        <time>2024-09-15T12:14:56.000Z</time>
      </trkpt>
      <trkpt lat="46.37964" lon="6.11944">
        <ele>664.317225</ele>
        <time>2024-09-15T12:14:57.000Z</time>
      </trkpt>
      <trkpt lat="46.37966" lon="6.11945">
        <ele>664.538263</ele>
        <time>2024-09-15T12:14:58.000Z</time>
      </trkpt>
      <trkpt lat="46.37968" lon="6.11946">
        <ele>664.767055</ele>
        <time>2024-09-15T12:14:59.000Z</time>
      </trkpt>
      <trkpt lat="46.37971" lon="6.11947">
        <ele>665.017932</ele>
        <time>2024-09-15T12:15:00.000Z</time>
      </trkpt>
      <trkpt lat="46.37973" lon="6.11948">
        <ele>665.244081</ele>
        <time>2024-09-15T12:15:01.000Z</time>
      </trkpt>
      <trkpt lat="46.37974" lon="6.11949">
        <ele>665.39288</ele>
        <time>2024-09-15T12:15:02.000Z</time>
      </trkpt>
      <trkpt lat="46.37975" lon="6.1195">
        <ele>665.537496</ele>
        <time>2024-09-15T12:15:03.000Z</time>
      </trkpt>
      <trkpt lat="46.37976" lon="6.11951">
        <ele>665.707108</ele>
        <time>2024-09-15T12:15:04.000Z</time>
      </trkpt>
      <trkpt lat="46.37978" lon="6.11952">
        <ele>665.864332</ele>
        <time>2024-09-15T12:15:05.000Z</time>
      </trkpt>
      <trkpt lat="46.3798" lon="6.11953">
        <ele>666.080865</ele>
        <time>2024-09-15T12:15:06.000Z</time>
      </trkpt>
      <trkpt lat="46.37982" lon="6.11955">
        <ele>666.309868</ele>
        <time>2024-09-15T12:15:07.000Z</time>
      </trkpt>
      <trkpt lat="46.37983" lon="6.11956">
        <ele>666.538339</ele>
        <time>2024-09-15T12:15:08.000Z</time>
      </trkpt>
      <trkpt lat="46.37986" lon="6.11958">
        <ele>666.798965</ele>
        <time>2024-09-15T12:15:09.000Z</time>
      </trkpt>
      <trkpt lat="46.37988" lon="6.11959">
        <ele>667.056887</ele>
        <time>2024-09-15T12:15:10.000Z</time>
      </trkpt>
      <trkpt lat="46.37991" lon="6.1196">
        <ele>667.39405</ele>
        <time>2024-09-15T12:15:11.000Z</time>
      </trkpt>
      <trkpt lat="46.37994" lon="6.11961">
        <ele>667.6485</ele>
        <time>2024-09-15T12:15:12.000Z</time>
      </trkpt>
      <trkpt lat="46.37996" lon="6.11963">
        <ele>667.912001</ele>
        <time>2024-09-15T12:15:13.000Z</time>
      </trkpt>
      <trkpt lat="46.37997" lon="6.11964">
        <ele>668.103635</ele>
        <time>2024-09-15T12:15:14.000Z</time>
      </trkpt>
      <trkpt lat="46.37998" lon="6.11965">
        <ele>668.22663</ele>
        <time>2024-09-15T12:15:15.000Z</time>
      </trkpt>
      <trkpt lat="46.38" lon="6.11966">
        <ele>668.408671</ele>
        <time>2024-09-15T12:15:16.000Z</time>
      </trkpt>
      <trkpt lat="46.38001" lon="6.11966">
        <ele>668.55653</ele>
        <time>2024-09-15T12:15:17.000Z</time>
      </trkpt>
      <trkpt lat="46.38003" lon="6.11967">
        <ele>668.694062</ele>
        <time>2024-09-15T12:15:18.000Z</time>
      </trkpt>
      <trkpt lat="46.38004" lon="6.11967">
        <ele>668.841921</ele>
        <time>2024-09-15T12:15:19.000Z</time>
      </trkpt>
      <trkpt lat="46.38006" lon="6.11967">
        <ele>669.041604</ele>
        <time>2024-09-15T12:15:20.000Z</time>
      </trkpt>
      <trkpt lat="46.38008" lon="6.11967">
        <ele>669.240538</ele>
        <time>2024-09-15T12:15:21.000Z</time>
      </trkpt>
      <trkpt lat="46.3801" lon="6.11968">
        <ele>669.43202</ele>
        <time>2024-09-15T12:15:22.000Z</time>
      </trkpt>
      <trkpt lat="46.38011" lon="6.11968">
        <ele>669.610217</ele>
        <time>2024-09-15T12:15:23.000Z</time>
      </trkpt>
      <trkpt lat="46.38013" lon="6.11968">
        <ele>669.7671</ele>
        <time>2024-09-15T12:15:24.000Z</time>
      </trkpt>
      <trkpt lat="46.38015" lon="6.11968">
        <ele>669.967691</ele>
        <time>2024-09-15T12:15:25.000Z</time>
      </trkpt>
      <trkpt lat="46.38017" lon="6.11968">
        <ele>670.187213</ele>
        <time>2024-09-15T12:15:26.000Z</time>
      </trkpt>
      <trkpt lat="46.38018" lon="6.11968">
        <ele>670.358219</ele>
        <time>2024-09-15T12:15:27.000Z</time>
      </trkpt>
      <trkpt lat="46.38019" lon="6.11968">
        <ele>670.47337</ele>
        <time>2024-09-15T12:15:28.000Z</time>
      </trkpt>
      <trkpt lat="46.38021" lon="6.11968">
        <ele>670.619817</ele>
        <time>2024-09-15T12:15:29.000Z</time>
      </trkpt>
      <trkpt lat="46.38023" lon="6.11969">
        <ele>670.811299</ele>
        <time>2024-09-15T12:15:30.000Z</time>
      </trkpt>
      <trkpt lat="46.38025" lon="6.11969">
        <ele>671.055459</ele>
        <time>2024-09-15T12:15:31.000Z</time>
      </trkpt>
      <trkpt lat="46.38027" lon="6.11969">
        <ele>671.245717</ele>
        <time>2024-09-15T12:15:32.000Z</time>
      </trkpt>
      <trkpt lat="46.38029" lon="6.11969">
        <ele>671.444225</ele>
        <time>2024-09-15T12:15:33.000Z</time>
      </trkpt>
      <trkpt lat="46.38031" lon="6.11969">
        <ele>671.644817</ele>
        <time>2024-09-15T12:15:34.000Z</time>
      </trkpt>
      <trkpt lat="46.38032" lon="6.11969">
        <ele>671.843456</ele>
        <time>2024-09-15T12:15:35.000Z</time>
      </trkpt>
      <trkpt lat="46.38034" lon="6.11969">
        <ele>672.052536</ele>
        <time>2024-09-15T12:15:36.000Z</time>
      </trkpt>
      <trkpt lat="46.38036" lon="6.11969">
        <ele>672.209915</ele>
        <time>2024-09-15T12:15:37.000Z</time>
      </trkpt>
      <trkpt lat="46.38037" lon="6.1197">
        <ele>672.350436</ele>
        <time>2024-09-15T12:15:38.000Z</time>
      </trkpt>
      <trkpt lat="46.38039" lon="6.1197">
        <ele>672.492976</ele>
        <time>2024-09-15T12:15:39.000Z</time>
      </trkpt>
      <trkpt lat="46.3804" lon="6.11971">
        <ele>672.671173</ele>
        <time>2024-09-15T12:15:40.000Z</time>
      </trkpt>
      <trkpt lat="46.38042" lon="6.11971">
        <ele>672.861431</ele>
        <time>2024-09-15T12:15:41.000Z</time>
      </trkpt>
      <trkpt lat="46.38044" lon="6.11971">
        <ele>673.061113</ele>
        <time>2024-09-15T12:15:42.000Z</time>
      </trkpt>
      <trkpt lat="46.38046" lon="6.11971">
        <ele>673.301845</ele>
        <time>2024-09-15T12:15:43.000Z</time>
      </trkpt>
      <trkpt lat="46.38049" lon="6.11971">
        <ele>673.575868</ele>
        <time>2024-09-15T12:15:44.000Z</time>
      </trkpt>
      <trkpt lat="46.38051" lon="6.1197">
        <ele>673.811192</ele>
        <time>2024-09-15T12:15:45.000Z</time>
      </trkpt>
      <trkpt lat="46.38053" lon="6.11969">
        <ele>674.016011</ele>
        <time>2024-09-15T12:15:46.000Z</time>
      </trkpt>
      <trkpt lat="46.38055" lon="6.11969">
        <ele>674.258998</ele>
        <time>2024-09-15T12:15:47.000Z</time>
      </trkpt>
      <trkpt lat="46.38057" lon="6.11967">
        <ele>674.459811</ele>
        <time>2024-09-15T12:15:48.000Z</time>
      </trkpt>
      <trkpt lat="46.38059" lon="6.11967">
        <ele>674.673195</ele>
        <time>2024-09-15T12:15:49.000Z</time>
      </trkpt>
      <trkpt lat="46.38061" lon="6.11966">
        <ele>674.844201</ele>
        <time>2024-09-15T12:15:50.000Z</time>
      </trkpt>
      <trkpt lat="46.38063" lon="6.11966">
        <ele>675.130768</ele>
        <time>2024-09-15T12:15:51.000Z</time>
      </trkpt>
      <trkpt lat="46.38065" lon="6.11965">
        <ele>675.310705</ele>
        <time>2024-09-15T12:15:52.000Z</time>
      </trkpt>
      <trkpt lat="46.38067" lon="6.11964">
        <ele>675.492746</ele>
        <time>2024-09-15T12:15:53.000Z</time>
      </trkpt>
      <trkpt lat="46.38068" lon="6.11963">
        <ele>675.693559</ele>
        <time>2024-09-15T12:15:54.000Z</time>
      </trkpt>
      <trkpt lat="46.3807" lon="6.11962">
        <ele>675.894372</ele>
        <time>2024-09-15T12:15:55.000Z</time>
      </trkpt>
      <trkpt lat="46.38071" lon="6.11961">
        <ele>676.051596</ele>
        <time>2024-09-15T12:15:56.000Z</time>
      </trkpt>
      <trkpt lat="46.38073" lon="6.1196">
        <ele>676.261706</ele>
        <time>2024-09-15T12:15:57.000Z</time>
      </trkpt>
      <trkpt lat="46.38075" lon="6.11958">
        <ele>676.443593</ele>
        <time>2024-09-15T12:15:58.000Z</time>
      </trkpt>
      <trkpt lat="46.38076" lon="6.11957">
        <ele>676.579251</ele>
        <time>2024-09-15T12:15:59.000Z</time>
      </trkpt>
      <trkpt lat="46.38077" lon="6.11956">
        <ele>676.732188</ele>
        <time>2024-09-15T12:16:00.000Z</time>
      </trkpt>
      <trkpt lat="46.38078" lon="6.11954">
        <ele>676.880469</ele>
        <time>2024-09-15T12:16:01.000Z</time>
      </trkpt>
      <trkpt lat="46.38079" lon="6.11954">
        <ele>677.018467</ele>
        <time>2024-09-15T12:16:02.000Z</time>
      </trkpt>
      <trkpt lat="46.3808" lon="6.11953">
        <ele>677.178475</ele>
        <time>2024-09-15T12:16:03.000Z</time>
      </trkpt>
      <trkpt lat="46.38082" lon="6.11952">
        <ele>677.348086</ele>
        <time>2024-09-15T12:16:04.000Z</time>
      </trkpt>
      <trkpt lat="46.38084" lon="6.11951">
        <ele>677.527011</ele>
        <time>2024-09-15T12:16:05.000Z</time>
      </trkpt>
      <trkpt lat="46.38085" lon="6.11951">
        <ele>677.642837</ele>
        <time>2024-09-15T12:16:06.000Z</time>
      </trkpt>
      <trkpt lat="46.38086" lon="6.11951">
        <ele>677.822774</ele>
        <time>2024-09-15T12:16:07.000Z</time>
      </trkpt>
      <trkpt lat="46.38088" lon="6.11951">
        <ele>677.980153</ele>
        <time>2024-09-15T12:16:08.000Z</time>
      </trkpt>
      <trkpt lat="46.38089" lon="6.1195">
        <ele>678.128012</ele>
        <time>2024-09-15T12:16:09.000Z</time>
      </trkpt>
      <trkpt lat="46.38091" lon="6.11949">
        <ele>678.297624</ele>
        <time>2024-09-15T12:16:10.000Z</time>
      </trkpt>
      <trkpt lat="46.38093" lon="6.11948">
        <ele>678.505329</ele>
        <time>2024-09-15T12:16:11.000Z</time>
      </trkpt>
      <trkpt lat="46.38094" lon="6.11947">
        <ele>678.689286</ele>
        <time>2024-09-15T12:16:12.000Z</time>
      </trkpt>
      <trkpt lat="46.38096" lon="6.11947">
        <ele>678.89634</ele>
        <time>2024-09-15T12:16:13.000Z</time>
      </trkpt>
      <trkpt lat="46.38098" lon="6.11947">
        <ele>679.103393</ele>
        <time>2024-09-15T12:16:14.000Z</time>
      </trkpt>
      <trkpt lat="46.381" lon="6.11946">
        <ele>679.318439</ele>
        <time>2024-09-15T12:16:15.000Z</time>
      </trkpt>
      <trkpt lat="46.38101" lon="6.11946">
        <ele>679.492503</ele>
        <time>2024-09-15T12:16:16.000Z</time>
      </trkpt>
      <trkpt lat="46.38103" lon="6.11946">
        <ele>679.638688</ele>
        <time>2024-09-15T12:16:17.000Z</time>
      </trkpt>
      <trkpt lat="46.38105" lon="6.11946">
        <ele>679.856196</ele>
        <time>2024-09-15T12:16:18.000Z</time>
      </trkpt>
      <trkpt lat="46.38107" lon="6.11947">
        <ele>680.113278</ele>
        <time>2024-09-15T12:16:19.000Z</time>
      </trkpt>
      <trkpt lat="46.38108" lon="6.11947">
        <ele>680.264008</ele>
        <time>2024-09-15T12:16:20.000Z</time>
      </trkpt>
      <trkpt lat="46.3811" lon="6.11947">
        <ele>680.460222</ele>
        <time>2024-09-15T12:16:21.000Z</time>
      </trkpt>
      <trkpt lat="46.38112" lon="6.11947">
        <ele>680.682208</ele>
        <time>2024-09-15T12:16:22.000Z</time>
      </trkpt>
      <trkpt lat="46.38114" lon="6.11947">
        <ele>680.838923</ele>
        <time>2024-09-15T12:16:23.000Z</time>
      </trkpt>
      <trkpt lat="46.38115" lon="6.11947">
        <ele>680.971276</ele>
        <time>2024-09-15T12:16:24.000Z</time>
      </trkpt>
      <trkpt lat="46.38117" lon="6.11946">
        <ele>681.178228</ele>
        <time>2024-09-15T12:16:25.000Z</time>
      </trkpt>
      <trkpt lat="46.38118" lon="6.11946">
        <ele>681.386904</ele>
        <time>2024-09-15T12:16:26.000Z</time>
      </trkpt>
      <trkpt lat="46.3812" lon="6.11945">
        <ele>681.541997</ele>
        <time>2024-09-15T12:16:27.000Z</time>
      </trkpt>
      <trkpt lat="46.38121" lon="6.11945">
        <ele>681.698713</ele>
        <time>2024-09-15T12:16:28.000Z</time>
      </trkpt>
      <trkpt lat="46.38123" lon="6.11945">
        <ele>681.863291</ele>
        <time>2024-09-15T12:16:29.000Z</time>
      </trkpt>
      <trkpt lat="46.38124" lon="6.11945">
        <ele>682.03058</ele>
        <time>2024-09-15T12:16:30.000Z</time>
      </trkpt>
      <trkpt lat="46.38126" lon="6.11946">
        <ele>682.222662</ele>
        <time>2024-09-15T12:16:31.000Z</time>
      </trkpt>
      <trkpt lat="46.38128" lon="6.11945">
        <ele>682.419592</ele>
        <time>2024-09-15T12:16:32.000Z</time>
      </trkpt>
      <trkpt lat="46.38129" lon="6.11945">
        <ele>682.605728</ele>
        <time>2024-09-15T12:16:33.000Z</time>
      </trkpt>
      <trkpt lat="46.38132" lon="6.11945">
        <ele>682.844962</ele>
        <time>2024-09-15T12:16:34.000Z</time>
      </trkpt>
      <trkpt lat="46.38134" lon="6.11946">
        <ele>683.111044</ele>
        <time>2024-09-15T12:16:35.000Z</time>
      </trkpt>
      <trkpt lat="46.38136" lon="6.11946">
        <ele>683.286396</ele>
        <time>2024-09-15T12:16:36.000Z</time>
      </trkpt>
      <trkpt lat="46.38137" lon="6.11945">
        <ele>683.418749</ele>
        <time>2024-09-15T12:16:37.000Z</time>
      </trkpt>
      <trkpt lat="46.38138" lon="6.11945">
        <ele>683.586038</ele>
        <time>2024-09-15T12:16:38.000Z</time>
      </trkpt>
      <trkpt lat="46.3814" lon="6.11945">
        <ele>683.793769</ele>
        <time>2024-09-15T12:16:39.000Z</time>
      </trkpt>
      <trkpt lat="46.38142" lon="6.11944">
        <ele>683.967834</ele>
        <time>2024-09-15T12:16:40.000Z</time>
      </trkpt>
      <trkpt lat="46.38143" lon="6.11944">
        <ele>684.142382</ele>
        <time>2024-09-15T12:16:41.000Z</time>
      </trkpt>
      <trkpt lat="46.38145" lon="6.11944">
        <ele>684.349028</ele>
        <time>2024-09-15T12:16:42.000Z</time>
      </trkpt>
      <trkpt lat="46.38147" lon="6.11944">
        <ele>684.523576</ele>
        <time>2024-09-15T12:16:43.000Z</time>
      </trkpt>
      <trkpt lat="46.38149" lon="6.11943">
        <ele>684.716047</ele>
        <time>2024-09-15T12:16:44.000Z</time>
      </trkpt>
      <trkpt lat="46.3815" lon="6.11941">
        <ele>684.958727</ele>
        <time>2024-09-15T12:16:45.000Z</time>
      </trkpt>
      <trkpt lat="46.38153" lon="6.11939">
        <ele>685.249059</ele>
        <time>2024-09-15T12:16:46.000Z</time>
      </trkpt>
      <trkpt lat="46.38155" lon="6.11938">
        <ele>685.550518</ele>
        <time>2024-09-15T12:16:47.000Z</time>
      </trkpt>
      <trkpt lat="46.38158" lon="6.11937">
        <ele>685.813758</ele>
        <time>2024-09-15T12:16:48.000Z</time>
      </trkpt>
      <trkpt lat="46.3816" lon="6.11935">
        <ele>686.100877</ele>
        <time>2024-09-15T12:16:49.000Z</time>
      </trkpt>
      <trkpt lat="46.38162" lon="6.11934">
        <ele>686.313385</ele>
        <time>2024-09-15T12:16:50.000Z</time>
      </trkpt>
      <trkpt lat="46.38163" lon="6.11932">
        <ele>686.527025</ele>
        <time>2024-09-15T12:16:51.000Z</time>
      </trkpt>
      <trkpt lat="46.38165" lon="6.1193">
        <ele>686.720794</ele>
        <time>2024-09-15T12:16:52.000Z</time>
      </trkpt>
      <trkpt lat="46.38166" lon="6.11927">
        <ele>687.024606</ele>
        <time>2024-09-15T12:16:53.000Z</time>
      </trkpt>
      <trkpt lat="46.38168" lon="6.11925">
        <ele>687.302083</ele>
        <time>2024-09-15T12:16:54.000Z</time>
      </trkpt>
      <trkpt lat="46.38169" lon="6.11923">
        <ele>687.479932</ele>
        <time>2024-09-15T12:16:55.000Z</time>
      </trkpt>
      <trkpt lat="46.3817" lon="6.1192">
        <ele>687.679789</ele>
        <time>2024-09-15T12:16:56.000Z</time>
      </trkpt>
      <trkpt lat="46.38171" lon="6.11919">
        <ele>687.873693</ele>
        <time>2024-09-15T12:16:57.000Z</time>
      </trkpt>
      <trkpt lat="46.38172" lon="6.11917">
        <ele>688.052737</ele>
        <time>2024-09-15T12:16:58.000Z</time>
      </trkpt>
      <trkpt lat="46.38172" lon="6.11915">
        <ele>688.220883</ele>
        <time>2024-09-15T12:16:59.000Z</time>
      </trkpt>
      <trkpt lat="46.38173" lon="6.11912">
        <ele>688.403764</ele>
        <time>2024-09-15T12:17:00.000Z</time>
      </trkpt>
      <trkpt lat="46.38173" lon="6.1191">
        <ele>688.570664</ele>
        <time>2024-09-15T12:17:01.000Z</time>
      </trkpt>
      <trkpt lat="46.38174" lon="6.11908">
        <ele>688.75232</ele>
        <time>2024-09-15T12:17:02.000Z</time>
      </trkpt>
      <trkpt lat="46.38175" lon="6.11906">
        <ele>688.95678</ele>
        <time>2024-09-15T12:17:03.000Z</time>
      </trkpt>
      <trkpt lat="46.38176" lon="6.11904">
        <ele>689.148558</ele>
        <time>2024-09-15T12:17:04.000Z</time>
      </trkpt>
      <trkpt lat="46.38177" lon="6.11902">
        <ele>689.347301</ele>
        <time>2024-09-15T12:17:05.000Z</time>
      </trkpt>
      <trkpt lat="46.38179" lon="6.11899">
        <ele>689.575661</ele>
        <time>2024-09-15T12:17:06.000Z</time>
      </trkpt>
      <trkpt lat="46.3818" lon="6.11897">
        <ele>689.800081</ele>
        <time>2024-09-15T12:17:07.000Z</time>
      </trkpt>
      <trkpt lat="46.38181" lon="6.11895">
        <ele>689.997624</ele>
        <time>2024-09-15T12:17:08.000Z</time>
      </trkpt>
      <trkpt lat="46.38182" lon="6.11893">
        <ele>690.176667</ele>
        <time>2024-09-15T12:17:09.000Z</time>
      </trkpt>
      <trkpt lat="46.38183" lon="6.11891">
        <ele>690.369815</ele>
        <time>2024-09-15T12:17:10.000Z</time>
      </trkpt>
      <trkpt lat="46.38184" lon="6.11889">
        <ele>690.570463</ele>
        <time>2024-09-15T12:17:11.000Z</time>
      </trkpt>
      <trkpt lat="46.38186" lon="6.11887">
        <ele>690.782112</ele>
        <time>2024-09-15T12:17:12.000Z</time>
      </trkpt>
      <trkpt lat="46.38188" lon="6.11886">
        <ele>690.989214</ele>
        <time>2024-09-15T12:17:13.000Z</time>
      </trkpt>
      <trkpt lat="46.38189" lon="6.11885">
        <ele>691.188571</ele>
        <time>2024-09-15T12:17:14.000Z</time>
      </trkpt>
      <trkpt lat="46.3819" lon="6.11884">
        <ele>691.348529</ele>
        <time>2024-09-15T12:17:15.000Z</time>
      </trkpt>
      <trkpt lat="46.38192" lon="6.11883">
        <ele>691.50203</ele>
        <time>2024-09-15T12:17:16.000Z</time>
      </trkpt>
      <trkpt lat="46.38193" lon="6.11882">
        <ele>691.669542</ele>
        <time>2024-09-15T12:17:17.000Z</time>
      </trkpt>
      <trkpt lat="46.38195" lon="6.11881">
        <ele>691.868742</ele>
        <time>2024-09-15T12:17:18.000Z</time>
      </trkpt>
      <trkpt lat="46.38197" lon="6.11881">
        <ele>692.075388</ele>
        <time>2024-09-15T12:17:19.000Z</time>
      </trkpt>
      <trkpt lat="46.38199" lon="6.1188">
        <ele>692.280018</ele>
        <time>2024-09-15T12:17:20.000Z</time>
      </trkpt>
      <trkpt lat="46.38201" lon="6.1188">
        <ele>692.500606</ele>
        <time>2024-09-15T12:17:21.000Z</time>
      </trkpt>
      <trkpt lat="46.38202" lon="6.11879">
        <ele>692.713681</ele>
        <time>2024-09-15T12:17:22.000Z</time>
      </trkpt>
      <trkpt lat="46.38204" lon="6.11878">
        <ele>692.884955</ele>
        <time>2024-09-15T12:17:23.000Z</time>
      </trkpt>
      <trkpt lat="46.38206" lon="6.11878">
        <ele>693.075125</ele>
        <time>2024-09-15T12:17:24.000Z</time>
      </trkpt>
      <trkpt lat="46.38208" lon="6.11877">
        <ele>693.282856</ele>
        <time>2024-09-15T12:17:25.000Z</time>
      </trkpt>
      <trkpt lat="46.38209" lon="6.11877">
        <ele>693.468236</ele>
        <time>2024-09-15T12:17:26.000Z</time>
      </trkpt>
      <trkpt lat="46.38211" lon="6.11877">
        <ele>693.610325</ele>
        <time>2024-09-15T12:17:27.000Z</time>
      </trkpt>
      <trkpt lat="46.38212" lon="6.11877">
        <ele>693.762675</ele>
        <time>2024-09-15T12:17:28.000Z</time>
      </trkpt>
      <trkpt lat="46.38214" lon="6.11877">
        <ele>693.959605</ele>
        <time>2024-09-15T12:17:29.000Z</time>
      </trkpt>
      <trkpt lat="46.38215" lon="6.11877">
        <ele>694.144377</ele>
        <time>2024-09-15T12:17:30.000Z</time>
      </trkpt>
      <trkpt lat="46.38217" lon="6.11877">
        <ele>694.343577</ele>
        <time>2024-09-15T12:17:31.000Z</time>
      </trkpt>
      <trkpt lat="46.38219" lon="6.11877">
        <ele>694.509347</ele>
        <time>2024-09-15T12:17:32.000Z</time>
      </trkpt>
      <trkpt lat="46.3822" lon="6.11878">
        <ele>694.649938</ele>
        <time>2024-09-15T12:17:33.000Z</time>
      </trkpt>
      <trkpt lat="46.38221" lon="6.11879">
        <ele>694.760003</ele>
        <time>2024-09-15T12:17:34.000Z</time>
      </trkpt>
      <trkpt lat="46.38222" lon="6.1188">
        <ele>694.890574</ele>
        <time>2024-09-15T12:17:35.000Z</time>
      </trkpt>
      <trkpt lat="46.38223" lon="6.1188">
        <ele>695.072225</ele>
        <time>2024-09-15T12:17:36.000Z</time>
      </trkpt>
      <trkpt lat="46.38225" lon="6.11882">
        <ele>695.284732</ele>
        <time>2024-09-15T12:17:37.000Z</time>
      </trkpt>
      <trkpt lat="46.38227" lon="6.11883">
        <ele>695.523559</ele>
        <time>2024-09-15T12:17:38.000Z</time>
      </trkpt>
      <trkpt lat="46.3823" lon="6.11885">
        <ele>695.809791</ele>
        <time>2024-09-15T12:17:39.000Z</time>
      </trkpt>
      <trkpt lat="46.38231" lon="6.11886">
        <ele>696.027047</ele>
        <time>2024-09-15T12:17:40.000Z</time>
      </trkpt>
      <trkpt lat="46.38232" lon="6.11887">
        <ele>696.173041</ele>
        <time>2024-09-15T12:17:41.000Z</time>
      </trkpt>
      <trkpt lat="46.38233" lon="6.11888">
        <ele>696.26547</ele>
        <time>2024-09-15T12:17:42.000Z</time>
      </trkpt>
      <trkpt lat="46.38234" lon="6.11888">
        <ele>696.362354</ele>
        <time>2024-09-15T12:17:43.000Z</time>
      </trkpt>
      <trkpt lat="46.38234" lon="6.11889">
        <ele>696.456197</ele>
        <time>2024-09-15T12:17:44.000Z</time>
      </trkpt>
      <trkpt lat="46.38236" lon="6.11891">
        <ele>696.638565</ele>
        <time>2024-09-15T12:17:45.000Z</time>
      </trkpt>
      <trkpt lat="46.38238" lon="6.11893">
        <ele>696.929058</ele>
        <time>2024-09-15T12:17:46.000Z</time>
      </trkpt>
      <trkpt lat="46.38239" lon="6.11895">
        <ele>697.153863</ele>
        <time>2024-09-15T12:17:47.000Z</time>
      </trkpt>
      <trkpt lat="46.38244" lon="6.11898">
        <ele>697.653233</ele>
        <time>2024-09-15T12:17:48.000Z</time>
      </trkpt>
      <trkpt lat="46.38246" lon="6.119">
        <ele>697.926334</ele>
        <time>2024-09-15T12:17:49.000Z</time>
      </trkpt>
      <trkpt lat="46.38248" lon="6.119">
        <ele>698.158313</ele>
        <time>2024-09-15T12:17:50.000Z</time>
      </trkpt>
      <trkpt lat="46.38248" lon="6.119">
        <ele>698.208233</ele>
        <time>2024-09-15T12:17:51.000Z</time>
      </trkpt>
      <trkpt lat="46.38248" lon="6.119">
        <ele>698.240133</ele>
        <time>2024-09-15T12:17:52.000Z</time>
      </trkpt>
      <trkpt lat="46.3825" lon="6.11901">
        <ele>698.365837</ele>
        <time>2024-09-15T12:17:53.000Z</time>
      </trkpt>
      <trkpt lat="46.38251" lon="6.11901">
        <ele>698.532801</ele>
        <time>2024-09-15T12:17:54.000Z</time>
      </trkpt>
      <trkpt lat="46.38253" lon="6.11901">
        <ele>698.74561</ele>
        <time>2024-09-15T12:17:55.000Z</time>
      </trkpt>
      <trkpt lat="46.38255" lon="6.11901">
        <ele>698.958419</ele>
        <time>2024-09-15T12:17:56.000Z</time>
      </trkpt>
      <trkpt lat="46.38257" lon="6.11902">
        <ele>699.203348</ele>
        <time>2024-09-15T12:17:57.000Z</time>
      </trkpt>
      <trkpt lat="46.38259" lon="6.11902">
        <ele>699.394245</ele>
        <time>2024-09-15T12:17:58.000Z</time>
      </trkpt>
      <trkpt lat="46.3826" lon="6.11902">
        <ele>699.54155</ele>
        <time>2024-09-15T12:17:59.000Z</time>
      </trkpt>
      <trkpt lat="46.38262" lon="6.11902">
        <ele>699.719062</ele>
        <time>2024-09-15T12:18:00.000Z</time>
      </trkpt>
      <trkpt lat="46.38263" lon="6.11902">
        <ele>699.925632</ele>
        <time>2024-09-15T12:18:01.000Z</time>
      </trkpt>
      <trkpt lat="46.38265" lon="6.11902">
        <ele>700.102979</ele>
        <time>2024-09-15T12:18:02.000Z</time>
      </trkpt>
      <trkpt lat="46.38267" lon="6.11903">
        <ele>700.293876</ele>
        <time>2024-09-15T12:18:03.000Z</time>
      </trkpt>
      <trkpt lat="46.38269" lon="6.11902">
        <ele>700.500446</ele>
        <time>2024-09-15T12:18:04.000Z</time>
      </trkpt>
      <trkpt lat="46.38271" lon="6.11903">
        <ele>700.826333</ele>
        <time>2024-09-15T12:18:05.000Z</time>
      </trkpt>
      <trkpt lat="46.38274" lon="6.11903">
        <ele>701.070185</ele>
        <time>2024-09-15T12:18:06.000Z</time>
      </trkpt>
      <trkpt lat="46.38275" lon="6.11904">
        <ele>701.249009</ele>
        <time>2024-09-15T12:18:07.000Z</time>
      </trkpt>
      <trkpt lat="46.38276" lon="6.11905">
        <ele>701.366028</ele>
        <time>2024-09-15T12:18:08.000Z</time>
      </trkpt>
      <trkpt lat="46.38278" lon="6.11905">
        <ele>701.555851</ele>
        <time>2024-09-15T12:18:09.000Z</time>
      </trkpt>
      <trkpt lat="46.38279" lon="6.11904">
        <ele>701.696678</ele>
        <time>2024-09-15T12:18:10.000Z</time>
      </trkpt>
      <trkpt lat="46.38281" lon="6.11903">
        <ele>701.919545</ele>
        <time>2024-09-15T12:18:11.000Z</time>
      </trkpt>
      <trkpt lat="46.38284" lon="6.11906">
        <ele>702.326154</ele>
        <time>2024-09-15T12:18:12.000Z</time>
      </trkpt>
      <trkpt lat="46.38286" lon="6.11908">
        <ele>702.635864</ele>
        <time>2024-09-15T12:18:13.000Z</time>
      </trkpt>
      <trkpt lat="46.38287" lon="6.1191">
        <ele>702.843622</ele>
        <time>2024-09-15T12:18:14.000Z</time>
      </trkpt>
      <trkpt lat="46.38289" lon="6.11913">
        <ele>703.085638</ele>
        <time>2024-09-15T12:18:15.000Z</time>
      </trkpt>
      <trkpt lat="46.3829" lon="6.11915">
        <ele>703.31678</ele>
        <time>2024-09-15T12:18:16.000Z</time>
      </trkpt>
      <trkpt lat="46.38293" lon="6.11917">
        <ele>703.649451</ele>
        <time>2024-09-15T12:18:17.000Z</time>
      </trkpt>
      <trkpt lat="46.38295" lon="6.11919">
        <ele>703.918987</ele>
        <time>2024-09-15T12:18:18.000Z</time>
      </trkpt>
      <trkpt lat="46.38295" lon="6.11922">
        <ele>704.135649</ele>
        <time>2024-09-15T12:18:19.000Z</time>
      </trkpt>
      <trkpt lat="46.38297" lon="6.11924">
        <ele>704.440837</ele>
        <time>2024-09-15T12:18:20.000Z</time>
      </trkpt>
      <trkpt lat="46.38299" lon="6.11925">
        <ele>704.598209</ele>
        <time>2024-09-15T12:18:21.000Z</time>
      </trkpt>
      <trkpt lat="46.383" lon="6.11927">
        <ele>704.825566</ele>
        <time>2024-09-15T12:18:22.000Z</time>
      </trkpt>
      <trkpt lat="46.38302" lon="6.1193">
        <ele>705.171884</ele>
        <time>2024-09-15T12:18:23.000Z</time>
      </trkpt>
      <trkpt lat="46.38304" lon="6.11932">
        <ele>705.411123</ele>
        <time>2024-09-15T12:18:24.000Z</time>
      </trkpt>
      <trkpt lat="46.38305" lon="6.11933">
        <ele>705.601353</ele>
        <time>2024-09-15T12:18:25.000Z</time>
      </trkpt>
      <trkpt lat="46.38307" lon="6.11935">
        <ele>705.789873</ele>
        <time>2024-09-15T12:18:26.000Z</time>
      </trkpt>
      <trkpt lat="46.38308" lon="6.11936">
        <ele>705.978392</ele>
        <time>2024-09-15T12:18:27.000Z</time>
      </trkpt>
      <trkpt lat="46.3831" lon="6.11937">
        <ele>706.211271</ele>
        <time>2024-09-15T12:18:28.000Z</time>
      </trkpt>
      <trkpt lat="46.38311" lon="6.11939">
        <ele>706.405332</ele>
        <time>2024-09-15T12:18:29.000Z</time>
      </trkpt>
      <trkpt lat="46.38313" lon="6.11941">
        <ele>706.580963</ele>
        <time>2024-09-15T12:18:30.000Z</time>
      </trkpt>
      <trkpt lat="46.38314" lon="6.11942">
        <ele>706.769483</ele>
        <time>2024-09-15T12:18:31.000Z</time>
      </trkpt>
      <trkpt lat="46.38315" lon="6.11943">
        <ele>706.953768</ele>
        <time>2024-09-15T12:18:32.000Z</time>
      </trkpt>
      <trkpt lat="46.38317" lon="6.11945">
        <ele>707.106362</ele>
        <time>2024-09-15T12:18:33.000Z</time>
      </trkpt>
      <trkpt lat="46.38318" lon="6.11946">
        <ele>707.286637</ele>
        <time>2024-09-15T12:18:34.000Z</time>
      </trkpt>
      <trkpt lat="46.38319" lon="6.11947">
        <ele>707.463796</ele>
        <time>2024-09-15T12:18:35.000Z</time>
      </trkpt>
      <trkpt lat="46.38321" lon="6.11948">
        <ele>707.650122</ele>
        <time>2024-09-15T12:18:36.000Z</time>
      </trkpt>
      <trkpt lat="46.38322" lon="6.11949">
        <ele>707.843086</ele>
        <time>2024-09-15T12:18:37.000Z</time>
      </trkpt>
      <trkpt lat="46.38324" lon="6.11951">
        <ele>708.058536</ele>
        <time>2024-09-15T12:18:38.000Z</time>
      </trkpt>
      <trkpt lat="46.38326" lon="6.11953">
        <ele>708.283023</ele>
        <time>2024-09-15T12:18:39.000Z</time>
      </trkpt>
      <trkpt lat="46.38327" lon="6.11955">
        <ele>708.506324</ele>
        <time>2024-09-15T12:18:40.000Z</time>
      </trkpt>
      <trkpt lat="46.38328" lon="6.11956">
        <ele>708.684544</ele>
        <time>2024-09-15T12:18:41.000Z</time>
      </trkpt>
      <trkpt lat="46.38329" lon="6.11958">
        <ele>708.846794</ele>
        <time>2024-09-15T12:18:42.000Z</time>
      </trkpt>
      <trkpt lat="46.3833" lon="6.11959">
        <ele>709.009044</ele>
        <time>2024-09-15T12:18:43.000Z</time>
      </trkpt>
      <trkpt lat="46.38332" lon="6.1196">
        <ele>709.18555</ele>
        <time>2024-09-15T12:18:44.000Z</time>
      </trkpt>
      <trkpt lat="46.38333" lon="6.11962">
        <ele>709.369835</ele>
        <time>2024-09-15T12:18:45.000Z</time>
      </trkpt>
      <trkpt lat="46.38334" lon="6.11963">
        <ele>709.558859</ele>
        <time>2024-09-15T12:18:46.000Z</time>
      </trkpt>
      <trkpt lat="46.38336" lon="6.11965">
        <ele>709.787775</ele>
        <time>2024-09-15T12:18:47.000Z</time>
      </trkpt>
      <trkpt lat="46.38338" lon="6.11966">
        <ele>710.010681</ele>
        <time>2024-09-15T12:18:48.000Z</time>
      </trkpt>
      <trkpt lat="46.3834" lon="6.11967">
        <ele>710.211285</ele>
        <time>2024-09-15T12:18:49.000Z</time>
      </trkpt>
      <trkpt lat="46.38341" lon="6.11968">
        <ele>710.355203</ele>
        <time>2024-09-15T12:18:50.000Z</time>
      </trkpt>
      <trkpt lat="46.38342" lon="6.11969">
        <ele>710.518327</ele>
        <time>2024-09-15T12:18:51.000Z</time>
      </trkpt>
      <trkpt lat="46.38343" lon="6.1197">
        <ele>710.672041</ele>
        <time>2024-09-15T12:18:52.000Z</time>
      </trkpt>
      <trkpt lat="46.38344" lon="6.11971">
        <ele>710.821799</ele>
        <time>2024-09-15T12:18:53.000Z</time>
      </trkpt>
      <trkpt lat="46.38346" lon="6.11972">
        <ele>710.984923</ele>
        <time>2024-09-15T12:18:54.000Z</time>
      </trkpt>
      <trkpt lat="46.38347" lon="6.11972">
        <ele>711.128298</ele>
        <time>2024-09-15T12:18:55.000Z</time>
      </trkpt>
      <trkpt lat="46.38348" lon="6.11973">
        <ele>711.2381</ele>
        <time>2024-09-15T12:18:56.000Z</time>
      </trkpt>
      <trkpt lat="46.38348" lon="6.11973">
        <ele>711.305428</ele>
        <time>2024-09-15T12:18:57.000Z</time>
      </trkpt>
      <trkpt lat="46.38349" lon="6.11974">
        <ele>711.416533</ele>
        <time>2024-09-15T12:18:58.000Z</time>
      </trkpt>
      <trkpt lat="46.38351" lon="6.11974">
        <ele>711.584371</ele>
        <time>2024-09-15T12:18:59.000Z</time>
      </trkpt>
      <trkpt lat="46.38353" lon="6.11975">
        <ele>711.808421</ele>
        <time>2024-09-15T12:19:00.000Z</time>
      </trkpt>
      <trkpt lat="46.38355" lon="6.11975">
        <ele>712.009251</ele>
        <time>2024-09-15T12:19:01.000Z</time>
      </trkpt>
      <trkpt lat="46.38356" lon="6.11975">
        <ele>712.175689</ele>
        <time>2024-09-15T12:19:02.000Z</time>
      </trkpt>
      <trkpt lat="46.38358" lon="6.11974">
        <ele>712.373801</ele>
        <time>2024-09-15T12:19:03.000Z</time>
      </trkpt>
      <trkpt lat="46.38359" lon="6.11974">
        <ele>712.551312</ele>
        <time>2024-09-15T12:19:04.000Z</time>
      </trkpt>
      <trkpt lat="46.38361" lon="6.11975">
        <ele>712.773523</ele>
        <time>2024-09-15T12:19:05.000Z</time>
      </trkpt>
      <trkpt lat="46.38363" lon="6.11974">
        <ele>712.989061</ele>
        <time>2024-09-15T12:19:06.000Z</time>
      </trkpt>
      <trkpt lat="46.38365" lon="6.11974">
        <ele>713.234824</ele>
        <time>2024-09-15T12:19:07.000Z</time>
      </trkpt>
      <trkpt lat="46.38367" lon="6.11973">
        <ele>713.402662</ele>
        <time>2024-09-15T12:19:08.000Z</time>
      </trkpt>
      <trkpt lat="46.38368" lon="6.11973">
        <ele>713.528365</ele>
        <time>2024-09-15T12:19:09.000Z</time>
      </trkpt>
      <trkpt lat="46.38368" lon="6.11973">
        <ele>713.573356</ele>
        <time>2024-09-15T12:19:10.000Z</time>
      </trkpt>
      <trkpt lat="46.38369" lon="6.11972">
        <ele>713.643706</ele>
        <time>2024-09-15T12:19:11.000Z</time>
      </trkpt>
      <trkpt lat="46.3837" lon="6.11972">
        <ele>713.791011</ele>
        <time>2024-09-15T12:19:12.000Z</time>
      </trkpt>
      <trkpt lat="46.38372" lon="6.11971">
        <ele>713.989122</ele>
        <time>2024-09-15T12:19:13.000Z</time>
      </trkpt>
      <trkpt lat="46.38374" lon="6.11971">
        <ele>714.190968</ele>
        <time>2024-09-15T12:19:14.000Z</time>
      </trkpt>
      <trkpt lat="46.38376" lon="6.1197">
        <ele>714.433695</ele>
        <time>2024-09-15T12:19:15.000Z</time>
      </trkpt>
      <trkpt lat="46.38377" lon="6.11968">
        <ele>714.609325</ele>
        <time>2024-09-15T12:19:16.000Z</time>
      </trkpt>
      <trkpt lat="46.38379" lon="6.11968">
        <ele>714.786483</ele>
        <time>2024-09-15T12:19:17.000Z</time>
      </trkpt>
      <trkpt lat="46.3838" lon="6.11967">
        <ele>714.978754</ele>
        <time>2024-09-15T12:19:18.000Z</time>
      </trkpt>
      <trkpt lat="46.38382" lon="6.11967">
        <ele>715.156266</ele>
        <time>2024-09-15T12:19:19.000Z</time>
      </trkpt>
      <trkpt lat="46.38384" lon="6.11967">
        <ele>715.333613</ele>
        <time>2024-09-15T12:19:20.000Z</time>
      </trkpt>
      <trkpt lat="46.38386" lon="6.11967">
        <ele>715.590377</ele>
        <time>2024-09-15T12:19:21.000Z</time>
      </trkpt>
      <trkpt lat="46.38388" lon="6.11967">
        <ele>715.845313</ele>
        <time>2024-09-15T12:19:22.000Z</time>
      </trkpt>
      <trkpt lat="46.38391" lon="6.11968">
        <ele>716.194325</ele>
        <time>2024-09-15T12:19:23.000Z</time>
      </trkpt>
      <trkpt lat="46.38394" lon="6.11968">
        <ele>716.476551</ele>
        <time>2024-09-15T12:19:24.000Z</time>
      </trkpt>
      <trkpt lat="46.38396" lon="6.11969">
        <ele>716.729927</ele>
        <time>2024-09-15T12:19:25.000Z</time>
      </trkpt>
      <trkpt lat="46.38398" lon="6.1197">
        <ele>716.987877</ele>
        <time>2024-09-15T12:19:26.000Z</time>
      </trkpt>
      <trkpt lat="46.384" lon="6.11971">
        <ele>717.18848</ele>
        <time>2024-09-15T12:19:27.000Z</time>
      </trkpt>
      <trkpt lat="46.38401" lon="6.11972">
        <ele>717.37838</ele>
        <time>2024-09-15T12:19:28.000Z</time>
      </trkpt>
      <trkpt lat="46.38403" lon="6.11974">
        <ele>717.57209</ele>
        <time>2024-09-15T12:19:29.000Z</time>
      </trkpt>
      <trkpt lat="46.38404" lon="6.11976">
        <ele>717.774765</ele>
        <time>2024-09-15T12:19:30.000Z</time>
      </trkpt>
      <trkpt lat="46.38405" lon="6.11978">
        <ele>717.991531</ele>
        <time>2024-09-15T12:19:31.000Z</time>
      </trkpt>
      <trkpt lat="46.38407" lon="6.1198">
        <ele>718.189548</ele>
        <time>2024-09-15T12:19:32.000Z</time>
      </trkpt>
      <trkpt lat="46.38408" lon="6.11982">
        <ele>718.388891</ele>
        <time>2024-09-15T12:19:33.000Z</time>
      </trkpt>
      <trkpt lat="46.38409" lon="6.11984">
        <ele>718.582423</ele>
        <time>2024-09-15T12:19:34.000Z</time>
      </trkpt>
      <trkpt lat="46.3841" lon="6.11986">
        <ele>718.723174</ele>
        <time>2024-09-15T12:19:35.000Z</time>
      </trkpt>
      <trkpt lat="46.38411" lon="6.11987">
        <ele>718.884071</ele>
        <time>2024-09-15T12:19:36.000Z</time>
      </trkpt>
      <trkpt lat="46.38412" lon="6.11989">
        <ele>719.060009</ele>
        <time>2024-09-15T12:19:37.000Z</time>
      </trkpt>
      <trkpt lat="46.38413" lon="6.11991">
        <ele>719.1987</ele>
        <time>2024-09-15T12:19:38.000Z</time>
      </trkpt>
      <trkpt lat="46.38414" lon="6.11992">
        <ele>719.33739</ele>
        <time>2024-09-15T12:19:39.000Z</time>
      </trkpt>
      <trkpt lat="46.38415" lon="6.11994">
        <ele>719.498287</ele>
        <time>2024-09-15T12:19:40.000Z</time>
      </trkpt>
      <trkpt lat="46.38416" lon="6.11995">
        <ele>719.669569</ele>
        <time>2024-09-15T12:19:41.000Z</time>
      </trkpt>
      <trkpt lat="46.38417" lon="6.11997">
        <ele>719.836785</ele>
        <time>2024-09-15T12:19:42.000Z</time>
      </trkpt>
      <trkpt lat="46.38419" lon="6.11998">
        <ele>719.992718</ele>
        <time>2024-09-15T12:19:43.000Z</time>
      </trkpt>
      <trkpt lat="46.38419" lon="6.12">
        <ele>720.129023</ele>
        <time>2024-09-15T12:19:44.000Z</time>
      </trkpt>
      <trkpt lat="46.3842" lon="6.12001">
        <ele>720.269774</ele>
        <time>2024-09-15T12:19:45.000Z</time>
      </trkpt>
      <trkpt lat="46.38422" lon="6.12003">
        <ele>720.450548</ele>
        <time>2024-09-15T12:19:46.000Z</time>
      </trkpt>
      <trkpt lat="46.38423" lon="6.12005">
        <ele>720.655376</ele>
        <time>2024-09-15T12:19:47.000Z</time>
      </trkpt>
      <trkpt lat="46.38425" lon="6.12006">
        <ele>720.860866</ele>
        <time>2024-09-15T12:19:48.000Z</time>
      </trkpt>
      <trkpt lat="46.38426" lon="6.12007">
        <ele>721.034436</ele>
        <time>2024-09-15T12:19:49.000Z</time>
      </trkpt>
      <trkpt lat="46.38428" lon="6.12009">
        <ele>721.20237</ele>
        <time>2024-09-15T12:19:50.000Z</time>
      </trkpt>
      <trkpt lat="46.38429" lon="6.1201">
        <ele>721.37594</ele>
        <time>2024-09-15T12:19:51.000Z</time>
      </trkpt>
      <trkpt lat="46.38431" lon="6.12011">
        <ele>721.54951</ele>
        <time>2024-09-15T12:19:52.000Z</time>
      </trkpt>
      <trkpt lat="46.38432" lon="6.12012">
        <ele>721.691657</ele>
        <time>2024-09-15T12:19:53.000Z</time>
      </trkpt>
      <trkpt lat="46.38433" lon="6.12013">
        <ele>721.833803</ele>
        <time>2024-09-15T12:19:54.000Z</time>
      </trkpt>
      <trkpt lat="46.38434" lon="6.12014">
        <ele>721.964871</ele>
        <time>2024-09-15T12:19:55.000Z</time>
      </trkpt>
      <trkpt lat="46.38436" lon="6.12015">
        <ele>722.151742</ele>
        <time>2024-09-15T12:19:56.000Z</time>
      </trkpt>
      <trkpt lat="46.38438" lon="6.12016">
        <ele>722.362659</ele>
        <time>2024-09-15T12:19:57.000Z</time>
      </trkpt>
      <trkpt lat="46.38439" lon="6.12017">
        <ele>722.545503</ele>
        <time>2024-09-15T12:19:58.000Z</time>
      </trkpt>
      <trkpt lat="46.38441" lon="6.12018">
        <ele>722.753966</ele>
        <time>2024-09-15T12:19:59.000Z</time>
      </trkpt>
      <trkpt lat="46.38444" lon="6.12019">
        <ele>723.025883</ele>
        <time>2024-09-15T12:20:00.000Z</time>
      </trkpt>
      <trkpt lat="46.38446" lon="6.1202">
        <ele>723.256437</ele>
        <time>2024-09-15T12:20:01.000Z</time>
      </trkpt>
      <trkpt lat="46.38447" lon="6.12021">
        <ele>723.365444</ele>
        <time>2024-09-15T12:20:02.000Z</time>
      </trkpt>
      <trkpt lat="46.38448" lon="6.12021">
        <ele>723.504318</ele>
        <time>2024-09-15T12:20:03.000Z</time>
      </trkpt>
      <trkpt lat="46.3845" lon="6.12021">
        <ele>723.690312</ele>
        <time>2024-09-15T12:20:04.000Z</time>
      </trkpt>
      <trkpt lat="46.38452" lon="6.12022">
        <ele>723.870971</ele>
        <time>2024-09-15T12:20:05.000Z</time>
      </trkpt>
      <trkpt lat="46.38452" lon="6.12022">
        <ele>723.97643</ele>
        <time>2024-09-15T12:20:06.000Z</time>
      </trkpt>
      <trkpt lat="46.38453" lon="6.12023">
        <ele>724.081888</ele>
        <time>2024-09-15T12:20:07.000Z</time>
      </trkpt>
      <trkpt lat="46.38455" lon="6.12023">
        <ele>724.217809</ele>
        <time>2024-09-15T12:20:08.000Z</time>
      </trkpt>
      <trkpt lat="46.38456" lon="6.12024">
        <ele>724.366686</ele>
        <time>2024-09-15T12:20:09.000Z</time>
      </trkpt>
      <trkpt lat="46.38457" lon="6.12025">
        <ele>724.503065</ele>
        <time>2024-09-15T12:20:10.000Z</time>
      </trkpt>
      <trkpt lat="46.38458" lon="6.12025">
        <ele>724.616867</ele>
        <time>2024-09-15T12:20:11.000Z</time>
      </trkpt>
      <trkpt lat="46.3846" lon="6.12024">
        <ele>724.792976</ele>
        <time>2024-09-15T12:20:12.000Z</time>
      </trkpt>
      <trkpt lat="46.38462" lon="6.12024">
        <ele>724.968508</ele>
        <time>2024-09-15T12:20:13.000Z</time>
      </trkpt>
      <trkpt lat="46.38463" lon="6.12025">
        <ele>725.084079</ele>
        <time>2024-09-15T12:20:14.000Z</time>
      </trkpt>
      <trkpt lat="46.38464" lon="6.12025">
        <ele>725.209813</ele>
        <time>2024-09-15T12:20:15.000Z</time>
      </trkpt>
      <trkpt lat="46.38465" lon="6.12025">
        <ele>725.344797</ele>
        <time>2024-09-15T12:20:16.000Z</time>
      </trkpt>
      <trkpt lat="46.38467" lon="6.12024">
        <ele>725.501145</ele>
        <time>2024-09-15T12:20:17.000Z</time>
      </trkpt>
      <trkpt lat="46.38468" lon="6.12024">
        <ele>725.666504</ele>
        <time>2024-09-15T12:20:18.000Z</time>
      </trkpt>
      <trkpt lat="46.3847" lon="6.12025">
        <ele>725.852906</ele>
        <time>2024-09-15T12:20:19.000Z</time>
      </trkpt>
      <trkpt lat="46.38472" lon="6.12025">
        <ele>726.029015</ele>
        <time>2024-09-15T12:20:20.000Z</time>
      </trkpt>
      <trkpt lat="46.38473" lon="6.12025">
        <ele>726.163434</ele>
        <time>2024-09-15T12:20:21.000Z</time>
      </trkpt>
      <trkpt lat="46.38474" lon="6.12025">
        <ele>726.289168</ele>
        <time>2024-09-15T12:20:22.000Z</time>
      </trkpt>
      <trkpt lat="46.38476" lon="6.12026">
        <ele>726.488205</ele>
        <time>2024-09-15T12:20:23.000Z</time>
      </trkpt>
      <trkpt lat="46.38478" lon="6.12028">
        <ele>726.706219</ele>
        <time>2024-09-15T12:20:24.000Z</time>
      </trkpt>
      <trkpt lat="46.3848" lon="6.12029">
        <ele>726.92709</ele>
        <time>2024-09-15T12:20:25.000Z</time>
      </trkpt>
      <trkpt lat="46.38482" lon="6.12029">
        <ele>727.092449</ele>
        <time>2024-09-15T12:20:26.000Z</time>
      </trkpt>
      <trkpt lat="46.38483" lon="6.12028">
        <ele>727.238575</ele>
        <time>2024-09-15T12:20:27.000Z</time>
      </trkpt>
      <trkpt lat="46.38485" lon="6.12028">
        <ele>727.415403</ele>
        <time>2024-09-15T12:20:28.000Z</time>
      </trkpt>
      <trkpt lat="46.38486" lon="6.12028">
        <ele>727.591511</ele>
        <time>2024-09-15T12:20:29.000Z</time>
      </trkpt>
      <trkpt lat="46.38488" lon="6.12028">
        <ele>727.777505</ele>
        <time>2024-09-15T12:20:30.000Z</time>
      </trkpt>
      <trkpt lat="46.3849" lon="6.12029">
        <ele>727.970472</ele>
        <time>2024-09-15T12:20:31.000Z</time>
      </trkpt>
      <trkpt lat="46.38492" lon="6.12029">
        <ele>728.167171</ele>
        <time>2024-09-15T12:20:32.000Z</time>
      </trkpt>
      <trkpt lat="46.38494" lon="6.12029">
        <ele>728.435631</ele>
        <time>2024-09-15T12:20:33.000Z</time>
      </trkpt>
      <trkpt lat="46.38496" lon="6.12029">
        <ele>728.642139</ele>
        <time>2024-09-15T12:20:34.000Z</time>
      </trkpt>
      <trkpt lat="46.38498" lon="6.12029">
        <ele>728.786694</ele>
        <time>2024-09-15T12:20:35.000Z</time>
      </trkpt>
      <trkpt lat="46.38499" lon="6.12029">
        <ele>728.911415</ele>
        <time>2024-09-15T12:20:36.000Z</time>
      </trkpt>
      <trkpt lat="46.385" lon="6.1203">
        <ele>729.066459</ele>
        <time>2024-09-15T12:20:37.000Z</time>
      </trkpt>
      <trkpt lat="46.38502" lon="6.1203">
        <ele>729.253541</ele>
        <time>2024-09-15T12:20:38.000Z</time>
      </trkpt>
      <trkpt lat="46.38504" lon="6.1203">
        <ele>729.398796</ele>
        <time>2024-09-15T12:20:39.000Z</time>
      </trkpt>
      <trkpt lat="46.38505" lon="6.1203">
        <ele>729.575624</ele>
        <time>2024-09-15T12:20:40.000Z</time>
      </trkpt>
      <trkpt lat="46.38507" lon="6.12031">
        <ele>729.726364</ele>
        <time>2024-09-15T12:20:41.000Z</time>
      </trkpt>
      <trkpt lat="46.38508" lon="6.12031">
        <ele>729.885286</ele>
        <time>2024-09-15T12:20:42.000Z</time>
      </trkpt>
      <trkpt lat="46.3851" lon="6.12032">
        <ele>730.02027</ele>
        <time>2024-09-15T12:20:43.000Z</time>
      </trkpt>
      <trkpt lat="46.38511" lon="6.12032">
        <ele>730.177749</ele>
        <time>2024-09-15T12:20:44.000Z</time>
      </trkpt>
      <trkpt lat="46.38512" lon="6.12032">
        <ele>730.323875</ele>
        <time>2024-09-15T12:20:45.000Z</time>
      </trkpt>
      <trkpt lat="46.38514" lon="6.12033">
        <ele>730.458859</ele>
        <time>2024-09-15T12:20:46.000Z</time>
      </trkpt>
      <trkpt lat="46.38515" lon="6.12033">
        <ele>730.60359</ele>
        <time>2024-09-15T12:20:47.000Z</time>
      </trkpt>
      <trkpt lat="46.38517" lon="6.12033">
        <ele>730.779699</ele>
        <time>2024-09-15T12:20:48.000Z</time>
      </trkpt>
      <trkpt lat="46.38519" lon="6.12033">
        <ele>730.975881</ele>
        <time>2024-09-15T12:20:49.000Z</time>
      </trkpt>
      <trkpt lat="46.3852" lon="6.12033">
        <ele>731.07938</ele>
        <time>2024-09-15T12:20:50.000Z</time>
      </trkpt>
      <trkpt lat="46.38521" lon="6.12033">
        <ele>731.256208</ele>
        <time>2024-09-15T12:20:51.000Z</time>
      </trkpt>
      <trkpt lat="46.38523" lon="6.12033">
        <ele>731.432316</ele>
        <time>2024-09-15T12:20:52.000Z</time>
      </trkpt>
      <trkpt lat="46.38525" lon="6.12034">
        <ele>731.633099</ele>
        <time>2024-09-15T12:20:53.000Z</time>
      </trkpt>
      <trkpt lat="46.38527" lon="6.12033">
        <ele>731.803743</ele>
        <time>2024-09-15T12:20:54.000Z</time>
      </trkpt>
      <trkpt lat="46.38529" lon="6.12032">
        <ele>732.02724</ele>
        <time>2024-09-15T12:20:55.000Z</time>
      </trkpt>
      <trkpt lat="46.38531" lon="6.12031">
        <ele>732.26327</ele>
        <time>2024-09-15T12:20:56.000Z</time>
      </trkpt>
      <trkpt lat="46.38533" lon="6.12029">
        <ele>732.508226</ele>
        <time>2024-09-15T12:20:57.000Z</time>
      </trkpt>
      <trkpt lat="46.38535" lon="6.12027">
        <ele>732.759099</ele>
        <time>2024-09-15T12:20:58.000Z</time>
      </trkpt>
      <trkpt lat="46.38537" lon="6.12026">
        <ele>732.994964</ele>
        <time>2024-09-15T12:20:59.000Z</time>
      </trkpt>
      <trkpt lat="46.38539" lon="6.12024">
        <ele>733.241863</ele>
        <time>2024-09-15T12:21:00.000Z</time>
      </trkpt>
      <trkpt lat="46.38541" lon="6.12022">
        <ele>733.468743</ele>
        <time>2024-09-15T12:21:01.000Z</time>
      </trkpt>
      <trkpt lat="46.38543" lon="6.12021">
        <ele>733.716823</ele>
        <time>2024-09-15T12:21:02.000Z</time>
      </trkpt>
      <trkpt lat="46.38545" lon="6.12019">
        <ele>733.934963</ele>
        <time>2024-09-15T12:21:03.000Z</time>
      </trkpt>
      <trkpt lat="46.38546" lon="6.12017">
        <ele>734.155284</ele>
        <time>2024-09-15T12:21:04.000Z</time>
      </trkpt>
      <trkpt lat="46.38548" lon="6.12015">
        <ele>734.376925</ele>
        <time>2024-09-15T12:21:05.000Z</time>
      </trkpt>
      <trkpt lat="46.3855" lon="6.12012">
        <ele>734.624673</ele>
        <time>2024-09-15T12:21:06.000Z</time>
      </trkpt>
      <trkpt lat="46.38552" lon="6.12012">
        <ele>734.87614</ele>
        <time>2024-09-15T12:21:07.000Z</time>
      </trkpt>
      <trkpt lat="46.38554" lon="6.12011">
        <ele>735.09701</ele>
        <time>2024-09-15T12:21:08.000Z</time>
      </trkpt>
      <trkpt lat="46.38555" lon="6.12009">
        <ele>735.268677</ele>
        <time>2024-09-15T12:21:09.000Z</time>
      </trkpt>
      <trkpt lat="46.38557" lon="6.12008">
        <ele>735.458062</ele>
        <time>2024-09-15T12:21:10.000Z</time>
      </trkpt>
      <trkpt lat="46.38558" lon="6.12007">
        <ele>735.617193</ele>
        <time>2024-09-15T12:21:11.000Z</time>
      </trkpt>
      <trkpt lat="46.3856" lon="6.12006">
        <ele>735.782223</ele>
        <time>2024-09-15T12:21:12.000Z</time>
      </trkpt>
      <trkpt lat="46.38561" lon="6.12004">
        <ele>735.955466</ele>
        <time>2024-09-15T12:21:13.000Z</time>
      </trkpt>
      <trkpt lat="46.38563" lon="6.12003">
        <ele>736.169022</ele>
        <time>2024-09-15T12:21:14.000Z</time>
      </trkpt>
      <trkpt lat="46.38564" lon="6.12001">
        <ele>736.336955</ele>
        <time>2024-09-15T12:21:15.000Z</time>
      </trkpt>
      <trkpt lat="46.38565" lon="6.12">
        <ele>736.48538</ele>
        <time>2024-09-15T12:21:16.000Z</time>
      </trkpt>
      <trkpt lat="46.38567" lon="6.12">
        <ele>736.636319</ele>
        <time>2024-09-15T12:21:17.000Z</time>
      </trkpt>
      <trkpt lat="46.38568" lon="6.11999">
        <ele>736.773161</ele>
        <time>2024-09-15T12:21:18.000Z</time>
      </trkpt>
      <trkpt lat="46.3857" lon="6.11999">
        <ele>736.92504</ele>
        <time>2024-09-15T12:21:19.000Z</time>
      </trkpt>
      <trkpt lat="46.38571" lon="6.11998">
        <ele>737.116743</ele>
        <time>2024-09-15T12:21:20.000Z</time>
      </trkpt>
      <trkpt lat="46.38573" lon="6.11999">
        <ele>737.297817</ele>
        <time>2024-09-15T12:21:21.000Z</time>
      </trkpt>
      <trkpt lat="46.38575" lon="6.11999">
        <ele>737.491506</ele>
        <time>2024-09-15T12:21:22.000Z</time>
      </trkpt>
      <trkpt lat="46.38577" lon="6.11999">
        <ele>737.653327</ele>
        <time>2024-09-15T12:21:23.000Z</time>
      </trkpt>
      <trkpt lat="46.38579" lon="6.12">
        <ele>737.840255</ele>
        <time>2024-09-15T12:21:24.000Z</time>
      </trkpt>
      <trkpt lat="46.3858" lon="6.12001">
        <ele>738.024272</ele>
        <time>2024-09-15T12:21:25.000Z</time>
      </trkpt>
      <trkpt lat="46.38582" lon="6.12003">
        <ele>738.224066</ele>
        <time>2024-09-15T12:21:26.000Z</time>
      </trkpt>
      <trkpt lat="46.38583" lon="6.12005">
        <ele>738.443064</ele>
        <time>2024-09-15T12:21:27.000Z</time>
      </trkpt>
      <trkpt lat="46.38585" lon="6.12007">
        <ele>738.629856</ele>
        <time>2024-09-15T12:21:28.000Z</time>
      </trkpt>
      <trkpt lat="46.38586" lon="6.12009">
        <ele>738.823497</ele>
        <time>2024-09-15T12:21:29.000Z</time>
      </trkpt>
      <trkpt lat="46.38587" lon="6.12011">
        <ele>739.000468</ele>
        <time>2024-09-15T12:21:30.000Z</time>
      </trkpt>
      <trkpt lat="46.38588" lon="6.12014">
        <ele>739.182759</ele>
        <time>2024-09-15T12:21:31.000Z</time>
      </trkpt>
      <trkpt lat="46.38589" lon="6.12016">
        <ele>739.388722</ele>
        <time>2024-09-15T12:21:32.000Z</time>
      </trkpt>
      <trkpt lat="46.38589" lon="6.12019">
        <ele>739.571864</ele>
        <time>2024-09-15T12:21:33.000Z</time>
      </trkpt>
      <trkpt lat="46.3859" lon="6.12022">
        <ele>739.785592</ele>
        <time>2024-09-15T12:21:34.000Z</time>
      </trkpt>
      <trkpt lat="46.38591" lon="6.12024">
        <ele>739.997626</ele>
        <time>2024-09-15T12:21:35.000Z</time>
      </trkpt>
      <trkpt lat="46.38592" lon="6.12027">
        <ele>740.191621</ele>
        <time>2024-09-15T12:21:36.000Z</time>
      </trkpt>
      <trkpt lat="46.38593" lon="6.12029">
        <ele>740.374762</ele>
        <time>2024-09-15T12:21:37.000Z</time>
      </trkpt>
      <trkpt lat="46.38593" lon="6.12032">
        <ele>740.590876</ele>
        <time>2024-09-15T12:21:38.000Z</time>
      </trkpt>
      <trkpt lat="46.38594" lon="6.12035">
        <ele>740.800354</ele>
        <time>2024-09-15T12:21:39.000Z</time>
      </trkpt>
      <trkpt lat="46.38594" lon="6.12038">
        <ele>741.003244</ele>
        <time>2024-09-15T12:21:40.000Z</time>
      </trkpt>
      <trkpt lat="46.38595" lon="6.12041">
        <ele>741.203358</ele>
        <time>2024-09-15T12:21:41.000Z</time>
      </trkpt>
      <trkpt lat="46.38595" lon="6.12043">
        <ele>741.393048</ele>
        <time>2024-09-15T12:21:42.000Z</time>
      </trkpt>
      <trkpt lat="46.38596" lon="6.12045">
        <ele>741.564104</ele>
        <time>2024-09-15T12:21:43.000Z</time>
      </trkpt>
      <trkpt lat="46.38597" lon="6.12047">
        <ele>741.735727</ele>
        <time>2024-09-15T12:21:44.000Z</time>
      </trkpt>
      <trkpt lat="46.38598" lon="6.1205">
        <ele>741.943204</ele>
        <time>2024-09-15T12:21:45.000Z</time>
      </trkpt>
      <trkpt lat="46.38599" lon="6.12053">
        <ele>742.173734</ele>
        <time>2024-09-15T12:21:46.000Z</time>
      </trkpt>
      <trkpt lat="46.38601" lon="6.12056">
        <ele>742.433529</ele>
        <time>2024-09-15T12:21:47.000Z</time>
      </trkpt>
      <trkpt lat="46.38602" lon="6.12058">
        <ele>742.639262</ele>
        <time>2024-09-15T12:21:48.000Z</time>
      </trkpt>
      <trkpt lat="46.38603" lon="6.12061">
        <ele>742.842575</ele>
        <time>2024-09-15T12:21:49.000Z</time>
      </trkpt>
      <trkpt lat="46.38604" lon="6.12063">
        <ele>743.064802</ele>
        <time>2024-09-15T12:21:50.000Z</time>
      </trkpt>
      <trkpt lat="46.38606" lon="6.12066">
        <ele>743.264168</ele>
        <time>2024-09-15T12:21:51.000Z</time>
      </trkpt>
      <trkpt lat="46.38607" lon="6.12068">
        <ele>743.4543</ele>
        <time>2024-09-15T12:21:52.000Z</time>
      </trkpt>
      <trkpt lat="46.38608" lon="6.1207">
        <ele>743.637255</ele>
        <time>2024-09-15T12:21:53.000Z</time>
      </trkpt>
      <trkpt lat="46.38608" lon="6.12073">
        <ele>743.838152</ele>
        <time>2024-09-15T12:21:54.000Z</time>
      </trkpt>
      <trkpt lat="46.38608" lon="6.12076">
        <ele>744.044971</ele>
        <time>2024-09-15T12:21:55.000Z</time>
      </trkpt>
      <trkpt lat="46.3861" lon="6.12079">
        <ele>744.273044</ele>
        <time>2024-09-15T12:21:56.000Z</time>
      </trkpt>
      <trkpt lat="46.3861" lon="6.12081">
        <ele>744.468154</ele>
        <time>2024-09-15T12:21:57.000Z</time>
      </trkpt>
      <trkpt lat="46.38611" lon="6.12084">
        <ele>744.677889</ele>
        <time>2024-09-15T12:21:58.000Z</time>
      </trkpt>
      <trkpt lat="46.38611" lon="6.12087">
        <ele>744.884708</ele>
        <time>2024-09-15T12:21:59.000Z</time>
      </trkpt>
      <trkpt lat="46.38612" lon="6.1209">
        <ele>745.101151</ele>
        <time>2024-09-15T12:22:00.000Z</time>
      </trkpt>
      <trkpt lat="46.38614" lon="6.12092">
        <ele>745.291283</ele>
        <time>2024-09-15T12:22:01.000Z</time>
      </trkpt>
      <trkpt lat="46.38615" lon="6.12094">
        <ele>745.485336</ele>
        <time>2024-09-15T12:22:02.000Z</time>
      </trkpt>
      <trkpt lat="46.38616" lon="6.12096">
        <ele>745.670494</ele>
        <time>2024-09-15T12:22:03.000Z</time>
      </trkpt>
      <trkpt lat="46.38618" lon="6.12098">
        <ele>745.887107</ele>
        <time>2024-09-15T12:22:04.000Z</time>
      </trkpt>
      <trkpt lat="46.38619" lon="6.121">
        <ele>746.090245</ele>
        <time>2024-09-15T12:22:05.000Z</time>
      </trkpt>
      <trkpt lat="46.38621" lon="6.12102">
        <ele>746.289217</ele>
        <time>2024-09-15T12:22:06.000Z</time>
      </trkpt>
      <trkpt lat="46.38622" lon="6.12103">
        <ele>746.440196</ele>
        <time>2024-09-15T12:22:07.000Z</time>
      </trkpt>
      <trkpt lat="46.38623" lon="6.12103">
        <ele>746.560758</ele>
        <time>2024-09-15T12:22:08.000Z</time>
      </trkpt>
      <trkpt lat="46.38625" lon="6.12104">
        <ele>746.71534</ele>
        <time>2024-09-15T12:22:09.000Z</time>
      </trkpt>
      <trkpt lat="46.38626" lon="6.12105">
        <ele>746.857747</ele>
        <time>2024-09-15T12:22:10.000Z</time>
      </trkpt>
      <trkpt lat="46.38627" lon="6.12106">
        <ele>747.023347</ele>
        <time>2024-09-15T12:22:11.000Z</time>
      </trkpt>
      <trkpt lat="46.38629" lon="6.12107">
        <ele>747.186178</ele>
        <time>2024-09-15T12:22:12.000Z</time>
      </trkpt>
      <trkpt lat="46.3863" lon="6.12108">
        <ele>747.342721</ele>
        <time>2024-09-15T12:22:13.000Z</time>
      </trkpt>
      <trkpt lat="46.38632" lon="6.12109">
        <ele>747.500778</ele>
        <time>2024-09-15T12:22:14.000Z</time>
      </trkpt>
      <trkpt lat="46.38633" lon="6.1211">
        <ele>747.680051</ele>
        <time>2024-09-15T12:22:15.000Z</time>
      </trkpt>
      <trkpt lat="46.38635" lon="6.1211">
        <ele>747.841872</ele>
        <time>2024-09-15T12:22:16.000Z</time>
      </trkpt>
      <trkpt lat="46.38637" lon="6.1211">
        <ele>748.012527</ele>
        <time>2024-09-15T12:22:17.000Z</time>
      </trkpt>
      <trkpt lat="46.38638" lon="6.1211">
        <ele>748.163616</ele>
        <time>2024-09-15T12:22:18.000Z</time>
      </trkpt>
      <trkpt lat="46.3864" lon="6.12111">
        <ele>748.329382</ele>
        <time>2024-09-15T12:22:19.000Z</time>
      </trkpt>
      <trkpt lat="46.38642" lon="6.12112">
        <ele>748.52273</ele>
        <time>2024-09-15T12:22:20.000Z</time>
      </trkpt>
      <trkpt lat="46.38643" lon="6.12112">
        <ele>748.664679</ele>
        <time>2024-09-15T12:22:21.000Z</time>
      </trkpt>
      <trkpt lat="46.38644" lon="6.12112">
        <ele>748.806629</ele>
        <time>2024-09-15T12:22:22.000Z</time>
      </trkpt>
      <trkpt lat="46.38646" lon="6.12113">
        <ele>748.961009</ele>
        <time>2024-09-15T12:22:23.000Z</time>
      </trkpt>
      <trkpt lat="46.38647" lon="6.12113">
        <ele>749.091585</ele>
        <time>2024-09-15T12:22:24.000Z</time>
      </trkpt>
      <trkpt lat="46.38649" lon="6.12113">
        <ele>749.233535</ele>
        <time>2024-09-15T12:22:25.000Z</time>
      </trkpt>
      <trkpt lat="46.3865" lon="6.12112">
        <ele>749.405308</ele>
        <time>2024-09-15T12:22:26.000Z</time>
      </trkpt>
      <trkpt lat="46.38652" lon="6.12112">
        <ele>749.616057</ele>
        <time>2024-09-15T12:22:27.000Z</time>
      </trkpt>
      <trkpt lat="46.38654" lon="6.12112">
        <ele>749.798711</ele>
        <time>2024-09-15T12:22:28.000Z</time>
      </trkpt>
      <trkpt lat="46.38656" lon="6.12111">
        <ele>749.97597</ele>
        <time>2024-09-15T12:22:29.000Z</time>
      </trkpt>
      <trkpt lat="46.38657" lon="6.12111">
        <ele>750.14014</ele>
        <time>2024-09-15T12:22:30.000Z</time>
      </trkpt>
      <trkpt lat="46.38659" lon="6.1211">
        <ele>750.286572</ele>
        <time>2024-09-15T12:22:31.000Z</time>
      </trkpt>
      <trkpt lat="46.3866" lon="6.1211">
        <ele>750.417148</ele>
        <time>2024-09-15T12:22:32.000Z</time>
      </trkpt>
      <trkpt lat="46.38662" lon="6.1211">
        <ele>750.557742</ele>
        <time>2024-09-15T12:22:33.000Z</time>
      </trkpt>
      <trkpt lat="46.38664" lon="6.12109">
        <ele>750.77243</ele>
        <time>2024-09-15T12:22:34.000Z</time>
      </trkpt>
      <trkpt lat="46.38666" lon="6.1211">
        <ele>751.00323</ele>
        <time>2024-09-15T12:22:35.000Z</time>
      </trkpt>
      <trkpt lat="46.38668" lon="6.1211">
        <ele>751.225624</ele>
        <time>2024-09-15T12:22:36.000Z</time>
      </trkpt>
      <trkpt lat="46.3867" lon="6.1211">
        <ele>751.426229</ele>
        <time>2024-09-15T12:22:37.000Z</time>
      </trkpt>
      <trkpt lat="46.38672" lon="6.1211">
        <ele>751.65858</ele>
        <time>2024-09-15T12:22:38.000Z</time>
      </trkpt>
      <trkpt lat="46.38674" lon="6.12109">
        <ele>751.845507</ele>
        <time>2024-09-15T12:22:39.000Z</time>
      </trkpt>
      <trkpt lat="46.38676" lon="6.12108">
        <ele>752.028161</ele>
        <time>2024-09-15T12:22:40.000Z</time>
      </trkpt>
      <trkpt lat="46.38678" lon="6.12108">
        <ele>752.23891</ele>
        <time>2024-09-15T12:22:41.000Z</time>
      </trkpt>
      <trkpt lat="46.3868" lon="6.12109">
        <ele>752.456696</ele>
        <time>2024-09-15T12:22:42.000Z</time>
      </trkpt>
      <trkpt lat="46.38682" lon="6.12109">
        <ele>752.637241</ele>
        <time>2024-09-15T12:22:43.000Z</time>
      </trkpt>
      <trkpt lat="46.38684" lon="6.12109">
        <ele>752.830931</ele>
        <time>2024-09-15T12:22:44.000Z</time>
      </trkpt>
      <trkpt lat="46.38686" lon="6.12108">
        <ele>753.032607</ele>
        <time>2024-09-15T12:22:45.000Z</time>
      </trkpt>
      <trkpt lat="46.38688" lon="6.12108">
        <ele>753.223307</ele>
        <time>2024-09-15T12:22:46.000Z</time>
      </trkpt>
      <trkpt lat="46.3869" lon="6.12108">
        <ele>753.454107</ele>
        <time>2024-09-15T12:22:47.000Z</time>
      </trkpt>
      <trkpt lat="46.38693" lon="6.12109">
        <ele>753.705245</ele>
        <time>2024-09-15T12:22:48.000Z</time>
      </trkpt>
      <trkpt lat="46.38696" lon="6.12109">
        <ele>754.009003</ele>
        <time>2024-09-15T12:22:49.000Z</time>
      </trkpt>
      <trkpt lat="46.38698" lon="6.12109">
        <ele>754.219639</ele>
        <time>2024-09-15T12:22:50.000Z</time>
      </trkpt>
      <trkpt lat="46.38699" lon="6.12109">
        <ele>754.390294</ele>
        <time>2024-09-15T12:22:51.000Z</time>
      </trkpt>
      <trkpt lat="46.38701" lon="6.12109">
        <ele>754.545929</ele>
        <time>2024-09-15T12:22:52.000Z</time>
      </trkpt>
      <trkpt lat="46.38703" lon="6.12109">
        <ele>754.728754</ele>
        <time>2024-09-15T12:22:53.000Z</time>
      </trkpt>
      <trkpt lat="46.38704" lon="6.12109">
        <ele>754.938174</ele>
        <time>2024-09-15T12:22:54.000Z</time>
      </trkpt>
      <trkpt lat="46.38706" lon="6.1211">
        <ele>755.179294</ele>
        <time>2024-09-15T12:22:55.000Z</time>
      </trkpt>
      <trkpt lat="46.38708" lon="6.1211">
        <ele>755.362798</ele>
        <time>2024-09-15T12:22:56.000Z</time>
      </trkpt>
      <trkpt lat="46.3871" lon="6.1211">
        <ele>755.545623</ele>
        <time>2024-09-15T12:22:57.000Z</time>
      </trkpt>
      <trkpt lat="46.38711" lon="6.1211">
        <ele>755.732648</ele>
        <time>2024-09-15T12:22:58.000Z</time>
      </trkpt>
      <trkpt lat="46.38713" lon="6.12111">
        <ele>755.919672</ele>
        <time>2024-09-15T12:22:59.000Z</time>
      </trkpt>
      <trkpt lat="46.38715" lon="6.12111">
        <ele>756.127753</ele>
        <time>2024-09-15T12:23:00.000Z</time>
      </trkpt>
      <trkpt lat="46.38717" lon="6.12112">
        <ele>756.36285</ele>
        <time>2024-09-15T12:23:01.000Z</time>
      </trkpt>
      <trkpt lat="46.38719" lon="6.12112">
        <ele>756.606023</ele>
        <time>2024-09-15T12:23:02.000Z</time>
      </trkpt>
      <trkpt lat="46.3872" lon="6.12113">
        <ele>756.802817</ele>
        <time>2024-09-15T12:23:03.000Z</time>
      </trkpt>
      <trkpt lat="46.38722" lon="6.12113">
        <ele>756.961277</ele>
        <time>2024-09-15T12:23:04.000Z</time>
      </trkpt>
      <trkpt lat="46.38723" lon="6.12114">
        <ele>757.15012</ele>
        <time>2024-09-15T12:23:05.000Z</time>
      </trkpt>
      <trkpt lat="46.38725" lon="6.12115">
        <ele>757.349211</ele>
        <time>2024-09-15T12:23:06.000Z</time>
      </trkpt>
      <trkpt lat="46.38727" lon="6.12116">
        <ele>757.561934</ele>
        <time>2024-09-15T12:23:07.000Z</time>
      </trkpt>
      <trkpt lat="46.38728" lon="6.12117">
        <ele>757.758038</ele>
        <time>2024-09-15T12:23:08.000Z</time>
      </trkpt>
      <trkpt lat="46.3873" lon="6.12118">
        <ele>757.951432</ele>
        <time>2024-09-15T12:23:09.000Z</time>
      </trkpt>
      <trkpt lat="46.38731" lon="6.12119">
        <ele>758.150523</ele>
        <time>2024-09-15T12:23:10.000Z</time>
      </trkpt>
      <trkpt lat="46.38733" lon="6.1212">
        <ele>758.349614</ele>
        <time>2024-09-15T12:23:11.000Z</time>
      </trkpt>
      <trkpt lat="46.38735" lon="6.12121">
        <ele>758.555456</ele>
        <time>2024-09-15T12:23:12.000Z</time>
      </trkpt>
      <trkpt lat="46.38736" lon="6.12122">
        <ele>758.744109</ele>
        <time>2024-09-15T12:23:13.000Z</time>
      </trkpt>
      <trkpt lat="46.38738" lon="6.12123">
        <ele>758.94645</ele>
        <time>2024-09-15T12:23:14.000Z</time>
      </trkpt>
      <trkpt lat="46.38739" lon="6.12124">
        <ele>759.136423</ele>
        <time>2024-09-15T12:23:15.000Z</time>
      </trkpt>
      <trkpt lat="46.3874" lon="6.12126">
        <ele>759.326274</ele>
        <time>2024-09-15T12:23:16.000Z</time>
      </trkpt>
      <trkpt lat="46.38742" lon="6.12127">
        <ele>759.545893</ele>
        <time>2024-09-15T12:23:17.000Z</time>
      </trkpt>
      <trkpt lat="46.38744" lon="6.12129">
        <ele>759.765512</ele>
        <time>2024-09-15T12:23:18.000Z</time>
      </trkpt>
      <trkpt lat="46.38745" lon="6.1213">
        <ele>759.927742</ele>
        <time>2024-09-15T12:23:19.000Z</time>
      </trkpt>
      <trkpt lat="46.38746" lon="6.12131">
        <ele>760.07207</ele>
        <time>2024-09-15T12:23:20.000Z</time>
      </trkpt>
      <trkpt lat="46.38747" lon="6.12131">
        <ele>760.212692</ele>
        <time>2024-09-15T12:23:21.000Z</time>
      </trkpt>
      <trkpt lat="46.38748" lon="6.12132">
        <ele>760.353388</ele>
        <time>2024-09-15T12:23:22.000Z</time>
      </trkpt>
      <trkpt lat="46.3875" lon="6.12132">
        <ele>760.492531</ele>
        <time>2024-09-15T12:23:23.000Z</time>
      </trkpt>
      <trkpt lat="46.38751" lon="6.12132">
        <ele>760.65558</ele>
        <time>2024-09-15T12:23:24.000Z</time>
      </trkpt>
      <trkpt lat="46.38753" lon="6.12133">
        <ele>760.829854</ele>
        <time>2024-09-15T12:23:25.000Z</time>
      </trkpt>
      <trkpt lat="46.38754" lon="6.12133">
        <ele>760.978609</ele>
        <time>2024-09-15T12:23:26.000Z</time>
      </trkpt>
      <trkpt lat="46.38755" lon="6.12133">
        <ele>761.116631</ele>
        <time>2024-09-15T12:23:27.000Z</time>
      </trkpt>
      <trkpt lat="46.38756" lon="6.12133">
        <ele>761.254653</ele>
        <time>2024-09-15T12:23:28.000Z</time>
      </trkpt>
      <trkpt lat="46.38758" lon="6.12132">
        <ele>761.4154</ele>
        <time>2024-09-15T12:23:29.000Z</time>
      </trkpt>
      <trkpt lat="46.38759" lon="6.12132">
        <ele>761.598225</ele>
        <time>2024-09-15T12:23:30.000Z</time>
      </trkpt>
      <trkpt lat="46.38761" lon="6.12132">
        <ele>761.792637</ele>
        <time>2024-09-15T12:23:31.000Z</time>
      </trkpt>
      <trkpt lat="46.38762" lon="6.12132">
        <ele>761.964217</ele>
        <time>2024-09-15T12:23:32.000Z</time>
      </trkpt>
      <trkpt lat="46.38764" lon="6.12132">
        <ele>762.166152</ele>
        <time>2024-09-15T12:23:33.000Z</time>
      </trkpt>
      <trkpt lat="46.38766" lon="6.12131">
        <ele>762.351649</ele>
        <time>2024-09-15T12:23:34.000Z</time>
      </trkpt>
      <trkpt lat="46.38767" lon="6.1213">
        <ele>762.513024</ele>
        <time>2024-09-15T12:23:35.000Z</time>
      </trkpt>
      <trkpt lat="46.38769" lon="6.12129">
        <ele>762.733676</ele>
        <time>2024-09-15T12:23:36.000Z</time>
      </trkpt>
      <trkpt lat="46.3877" lon="6.12129">
        <ele>762.90795</ele>
        <time>2024-09-15T12:23:37.000Z</time>
      </trkpt>
      <trkpt lat="46.38772" lon="6.12129">
        <ele>763.090946</ele>
        <time>2024-09-15T12:23:38.000Z</time>
      </trkpt>
      <trkpt lat="46.38774" lon="6.12129">
        <ele>763.273941</ele>
        <time>2024-09-15T12:23:39.000Z</time>
      </trkpt>
      <trkpt lat="46.38775" lon="6.12128">
        <ele>763.491508</ele>
        <time>2024-09-15T12:23:40.000Z</time>
      </trkpt>
      <trkpt lat="46.38777" lon="6.12127">
        <ele>763.709075</ele>
        <time>2024-09-15T12:23:41.000Z</time>
      </trkpt>
      <trkpt lat="46.38779" lon="6.12126">
        <ele>763.928694</ele>
        <time>2024-09-15T12:23:42.000Z</time>
      </trkpt>
      <trkpt lat="46.38781" lon="6.12125">
        <ele>764.165506</ele>
        <time>2024-09-15T12:23:43.000Z</time>
      </trkpt>
      <trkpt lat="46.38782" lon="6.12124">
        <ele>764.347462</ele>
        <time>2024-09-15T12:23:44.000Z</time>
      </trkpt>
      <trkpt lat="46.38784" lon="6.12123">
        <ele>764.573538</ele>
        <time>2024-09-15T12:23:45.000Z</time>
      </trkpt>
      <trkpt lat="46.38785" lon="6.12122">
        <ele>764.763511</ele>
        <time>2024-09-15T12:23:46.000Z</time>
      </trkpt>
      <trkpt lat="46.38787" lon="6.1212">
        <ele>764.985611</ele>
        <time>2024-09-15T12:23:47.000Z</time>
      </trkpt>
      <trkpt lat="46.38789" lon="6.12119">
        <ele>765.19519</ele>
        <time>2024-09-15T12:23:48.000Z</time>
      </trkpt>
      <trkpt lat="46.3879" lon="6.12117">
        <ele>765.384732</ele>
        <time>2024-09-15T12:23:49.000Z</time>
      </trkpt>
      <trkpt lat="46.38791" lon="6.12116">
        <ele>765.556728</ele>
        <time>2024-09-15T12:23:50.000Z</time>
      </trkpt>
      <trkpt lat="46.38792" lon="6.12114">
        <ele>765.751421</ele>
        <time>2024-09-15T12:23:51.000Z</time>
      </trkpt>
      <trkpt lat="46.38793" lon="6.12112">
        <ele>765.916121</ele>
        <time>2024-09-15T12:23:52.000Z</time>
      </trkpt>
      <trkpt lat="46.38794" lon="6.1211">
        <ele>766.12454</ele>
        <time>2024-09-15T12:23:53.000Z</time>
      </trkpt>
      <trkpt lat="46.38795" lon="6.12107">
        <ele>766.332202</ele>
        <time>2024-09-15T12:23:54.000Z</time>
      </trkpt>
      <trkpt lat="46.38795" lon="6.12105">
        <ele>766.499871</ele>
        <time>2024-09-15T12:23:55.000Z</time>
      </trkpt>
      <trkpt lat="46.38796" lon="6.12103">
        <ele>766.693682</ele>
        <time>2024-09-15T12:23:56.000Z</time>
      </trkpt>
      <trkpt lat="46.38796" lon="6.12101">
        <ele>766.883752</ele>
        <time>2024-09-15T12:23:57.000Z</time>
      </trkpt>
      <trkpt lat="46.38797" lon="6.12098">
        <ele>767.070705</ele>
        <time>2024-09-15T12:23:58.000Z</time>
      </trkpt>
      <trkpt lat="46.38797" lon="6.12096">
        <ele>767.264516</ele>
        <time>2024-09-15T12:23:59.000Z</time>
      </trkpt>
      <trkpt lat="46.38797" lon="6.12094">
        <ele>767.439414</ele>
        <time>2024-09-15T12:24:00.000Z</time>
      </trkpt>
      <trkpt lat="46.38798" lon="6.12092">
        <ele>767.631656</ele>
        <time>2024-09-15T12:24:01.000Z</time>
      </trkpt>
      <trkpt lat="46.38798" lon="6.12089">
        <ele>767.818609</ele>
        <time>2024-09-15T12:24:02.000Z</time>
      </trkpt>
      <trkpt lat="46.38798" lon="6.12087">
        <ele>767.99793</ele>
        <time>2024-09-15T12:24:03.000Z</time>
      </trkpt>
      <trkpt lat="46.38799" lon="6.12085">
        <ele>768.188</ele>
        <time>2024-09-15T12:24:04.000Z</time>
      </trkpt>
      <trkpt lat="46.38799" lon="6.12083">
        <ele>768.370568</ele>
        <time>2024-09-15T12:24:05.000Z</time>
      </trkpt>
      <trkpt lat="46.388" lon="6.1208">
        <ele>768.542279</ele>
        <time>2024-09-15T12:24:06.000Z</time>
      </trkpt>
      <trkpt lat="46.388" lon="6.12078">
        <ele>768.721432</ele>
        <time>2024-09-15T12:24:07.000Z</time>
      </trkpt>
      <trkpt lat="46.38801" lon="6.12076">
        <ele>768.930062</ele>
        <time>2024-09-15T12:24:08.000Z</time>
      </trkpt>
      <trkpt lat="46.38801" lon="6.12074">
        <ele>769.114554</ele>
        <time>2024-09-15T12:24:09.000Z</time>
      </trkpt>
      <trkpt lat="46.38802" lon="6.12072">
        <ele>769.282223</ele>
        <time>2024-09-15T12:24:10.000Z</time>
      </trkpt>
      <trkpt lat="46.38803" lon="6.1207">
        <ele>769.457447</ele>
        <time>2024-09-15T12:24:11.000Z</time>
      </trkpt>
      <trkpt lat="46.38804" lon="6.12068">
        <ele>769.653465</ele>
        <time>2024-09-15T12:24:12.000Z</time>
      </trkpt>
      <trkpt lat="46.38804" lon="6.12065">
        <ele>769.855065</ele>
        <time>2024-09-15T12:24:13.000Z</time>
      </trkpt>
      <trkpt lat="46.38806" lon="6.12063">
        <ele>770.056676</ele>
        <time>2024-09-15T12:24:14.000Z</time>
      </trkpt>
      <trkpt lat="46.38806" lon="6.12061">
        <ele>770.24489</ele>
        <time>2024-09-15T12:24:15.000Z</time>
      </trkpt>
      <trkpt lat="46.38807" lon="6.1206">
        <ele>770.420114</ele>
        <time>2024-09-15T12:24:16.000Z</time>
      </trkpt>
      <trkpt lat="46.38808" lon="6.12058">
        <ele>770.621725</ele>
        <time>2024-09-15T12:24:17.000Z</time>
      </trkpt>
      <trkpt lat="46.3881" lon="6.12055">
        <ele>770.83666</ele>
        <time>2024-09-15T12:24:18.000Z</time>
      </trkpt>
      <trkpt lat="46.38811" lon="6.12054">
        <ele>771.011884</ele>
        <time>2024-09-15T12:24:19.000Z</time>
      </trkpt>
      <trkpt lat="46.38812" lon="6.12052">
        <ele>771.182059</ele>
        <time>2024-09-15T12:24:20.000Z</time>
      </trkpt>
      <trkpt lat="46.38813" lon="6.1205">
        <ele>771.358155</ele>
        <time>2024-09-15T12:24:21.000Z</time>
      </trkpt>
      <trkpt lat="46.38814" lon="6.12049">
        <ele>771.517002</ele>
        <time>2024-09-15T12:24:22.000Z</time>
      </trkpt>
      <trkpt lat="46.38815" lon="6.12048">
        <ele>771.670479</ele>
        <time>2024-09-15T12:24:23.000Z</time>
      </trkpt>
      <trkpt lat="46.38815" lon="6.12047">
        <ele>771.800048</ele>
        <time>2024-09-15T12:24:24.000Z</time>
      </trkpt>
      <trkpt lat="46.38816" lon="6.12046">
        <ele>771.923713</ele>
        <time>2024-09-15T12:24:25.000Z</time>
      </trkpt>
      <trkpt lat="46.38817" lon="6.12045">
        <ele>772.030484</ele>
        <time>2024-09-15T12:24:26.000Z</time>
      </trkpt>
      <trkpt lat="46.38818" lon="6.12045">
        <ele>772.143676</ele>
        <time>2024-09-15T12:24:27.000Z</time>
      </trkpt>
      <trkpt lat="46.38819" lon="6.12044">
        <ele>772.275401</ele>
        <time>2024-09-15T12:24:28.000Z</time>
      </trkpt>
      <trkpt lat="46.3882" lon="6.12044">
        <ele>772.399066</ele>
        <time>2024-09-15T12:24:29.000Z</time>
      </trkpt>
      <trkpt lat="46.38821" lon="6.12043">
        <ele>772.515753</ele>
        <time>2024-09-15T12:24:30.000Z</time>
      </trkpt>
      <trkpt lat="46.38822" lon="6.12043">
        <ele>772.64365</ele>
        <time>2024-09-15T12:24:31.000Z</time>
      </trkpt>
      <trkpt lat="46.38823" lon="6.12043">
        <ele>772.758187</ele>
        <time>2024-09-15T12:24:32.000Z</time>
      </trkpt>
      <trkpt lat="46.38825" lon="6.12044">
        <ele>772.90599</ele>
        <time>2024-09-15T12:24:33.000Z</time>
      </trkpt>
      <trkpt lat="46.38826" lon="6.12045">
        <ele>773.050317</ele>
        <time>2024-09-15T12:24:34.000Z</time>
      </trkpt>
      <trkpt lat="46.38827" lon="6.12046">
        <ele>773.198677</ele>
        <time>2024-09-15T12:24:35.000Z</time>
      </trkpt>
      <trkpt lat="46.38828" lon="6.12047">
        <ele>773.382393</ele>
        <time>2024-09-15T12:24:36.000Z</time>
      </trkpt>
      <trkpt lat="46.38829" lon="6.12049">
        <ele>773.60152</ele>
        <time>2024-09-15T12:24:37.000Z</time>
      </trkpt>
      <trkpt lat="46.3883" lon="6.12052">
        <ele>773.816828</ele>
        <time>2024-09-15T12:24:38.000Z</time>
      </trkpt>
      <trkpt lat="46.38831" lon="6.12054">
        <ele>774.034042</ele>
        <time>2024-09-15T12:24:39.000Z</time>
      </trkpt>
      <trkpt lat="46.38832" lon="6.12056">
        <ele>774.183486</ele>
        <time>2024-09-15T12:24:40.000Z</time>
      </trkpt>
      <trkpt lat="46.38833" lon="6.12057">
        <ele>774.345687</ele>
        <time>2024-09-15T12:24:41.000Z</time>
      </trkpt>
      <trkpt lat="46.38834" lon="6.12059">
        <ele>774.541197</ele>
        <time>2024-09-15T12:24:42.000Z</time>
      </trkpt>
      <trkpt lat="46.38835" lon="6.12062">
        <ele>774.749614</ele>
        <time>2024-09-15T12:24:43.000Z</time>
      </trkpt>
      <trkpt lat="46.38836" lon="6.12064">
        <ele>774.983332</ele>
        <time>2024-09-15T12:24:44.000Z</time>
      </trkpt>
      <trkpt lat="46.38836" lon="6.12066">
        <ele>775.173873</ele>
        <time>2024-09-15T12:24:45.000Z</time>
      </trkpt>
      <trkpt lat="46.38837" lon="6.12068">
        <ele>775.319158</ele>
        <time>2024-09-15T12:24:46.000Z</time>
      </trkpt>
      <trkpt lat="46.38838" lon="6.12069">
        <ele>775.460821</ele>
        <time>2024-09-15T12:24:47.000Z</time>
      </trkpt>
      <trkpt lat="46.38839" lon="6.1207">
        <ele>775.61564</ele>
        <time>2024-09-15T12:24:48.000Z</time>
      </trkpt>
      <trkpt lat="46.38841" lon="6.12071">
        <ele>775.831323</ele>
        <time>2024-09-15T12:24:49.000Z</time>
      </trkpt>
      <trkpt lat="46.38842" lon="6.12073">
        <ele>776.0429</ele>
        <time>2024-09-15T12:24:50.000Z</time>
      </trkpt>
      <trkpt lat="46.38843" lon="6.12075">
        <ele>776.227601</ele>
        <time>2024-09-15T12:24:51.000Z</time>
      </trkpt>
      <trkpt lat="46.38845" lon="6.12077">
        <ele>776.439435</ele>
        <time>2024-09-15T12:24:52.000Z</time>
      </trkpt>
      <trkpt lat="46.38846" lon="6.12078">
        <ele>776.627055</ele>
        <time>2024-09-15T12:24:53.000Z</time>
      </trkpt>
      <trkpt lat="46.38847" lon="6.1208">
        <ele>776.81594</ele>
        <time>2024-09-15T12:24:54.000Z</time>
      </trkpt>
      <trkpt lat="46.38848" lon="6.12081">
        <ele>776.985524</ele>
        <time>2024-09-15T12:24:55.000Z</time>
      </trkpt>
      <trkpt lat="46.38849" lon="6.12082">
        <ele>777.173144</ele>
        <time>2024-09-15T12:24:56.000Z</time>
      </trkpt>
      <trkpt lat="46.38851" lon="6.12084">
        <ele>777.371632</ele>
        <time>2024-09-15T12:24:57.000Z</time>
      </trkpt>
      <trkpt lat="46.38853" lon="6.12085">
        <ele>777.592384</ele>
        <time>2024-09-15T12:24:58.000Z</time>
      </trkpt>
      <trkpt lat="46.38854" lon="6.12087">
        <ele>777.792434</ele>
        <time>2024-09-15T12:24:59.000Z</time>
      </trkpt>
      <trkpt lat="46.38855" lon="6.12089">
        <ele>777.998305</ele>
        <time>2024-09-15T12:25:00.000Z</time>
      </trkpt>
      <trkpt lat="46.38856" lon="6.12091">
        <ele>778.202722</ele>
        <time>2024-09-15T12:25:01.000Z</time>
      </trkpt>
      <trkpt lat="46.38857" lon="6.12092">
        <ele>778.397106</ele>
        <time>2024-09-15T12:25:02.000Z</time>
      </trkpt>
      <trkpt lat="46.38858" lon="6.12094">
        <ele>778.577633</ele>
        <time>2024-09-15T12:25:03.000Z</time>
      </trkpt>
      <trkpt lat="46.3886" lon="6.12096">
        <ele>778.78875</ele>
        <time>2024-09-15T12:25:04.000Z</time>
      </trkpt>
      <trkpt lat="46.38861" lon="6.12097">
        <ele>778.981242</ele>
        <time>2024-09-15T12:25:05.000Z</time>
      </trkpt>
      <trkpt lat="46.38863" lon="6.12098">
        <ele>779.169669</ele>
        <time>2024-09-15T12:25:06.000Z</time>
      </trkpt>
      <trkpt lat="46.38864" lon="6.12099">
        <ele>779.312248</ele>
        <time>2024-09-15T12:25:07.000Z</time>
      </trkpt>
      <trkpt lat="46.38865" lon="6.12099">
        <ele>779.454903</ele>
        <time>2024-09-15T12:25:08.000Z</time>
      </trkpt>
      <trkpt lat="46.38866" lon="6.121">
        <ele>779.629247</ele>
        <time>2024-09-15T12:25:09.000Z</time>
      </trkpt>
      <trkpt lat="46.38868" lon="6.12101">
        <ele>779.831956</ele>
        <time>2024-09-15T12:25:10.000Z</time>
      </trkpt>
      <trkpt lat="46.3887" lon="6.12101">
        <ele>780.041871</ele>
        <time>2024-09-15T12:25:11.000Z</time>
      </trkpt>
      <trkpt lat="46.38871" lon="6.12101">
        <ele>780.227414</ele>
        <time>2024-09-15T12:25:12.000Z</time>
      </trkpt>
      <trkpt lat="46.38872" lon="6.12101">
        <ele>780.354857</ele>
        <time>2024-09-15T12:25:13.000Z</time>
      </trkpt>
      <trkpt lat="46.38874" lon="6.12101">
        <ele>780.506316</ele>
        <time>2024-09-15T12:25:14.000Z</time>
      </trkpt>
      <trkpt lat="46.38875" lon="6.12101">
        <ele>780.635993</ele>
        <time>2024-09-15T12:25:15.000Z</time>
      </trkpt>
      <trkpt lat="46.38876" lon="6.121">
        <ele>780.744251</ele>
        <time>2024-09-15T12:25:16.000Z</time>
      </trkpt>
      <trkpt lat="46.38876" lon="6.121">
        <ele>780.796428</ele>
        <time>2024-09-15T12:25:17.000Z</time>
      </trkpt>
      <trkpt lat="46.38876" lon="6.121">
        <ele>780.834684</ele>
        <time>2024-09-15T12:25:18.000Z</time>
      </trkpt>
      <trkpt lat="46.38878" lon="6.12099">
        <ele>780.974627</ele>
        <time>2024-09-15T12:25:19.000Z</time>
      </trkpt>
      <trkpt lat="46.38879" lon="6.12099">
        <ele>781.137023</ele>
        <time>2024-09-15T12:25:20.000Z</time>
      </trkpt>
      <trkpt lat="46.3888" lon="6.121">
        <ele>781.310992</ele>
        <time>2024-09-15T12:25:21.000Z</time>
      </trkpt>
      <trkpt lat="46.38882" lon="6.121">
        <ele>781.461817</ele>
        <time>2024-09-15T12:25:22.000Z</time>
      </trkpt>
      <trkpt lat="46.38883" lon="6.121">
        <ele>781.568809</ele>
        <time>2024-09-15T12:25:23.000Z</time>
      </trkpt>
      <trkpt lat="46.38884" lon="6.12101">
        <ele>781.743153</ele>
        <time>2024-09-15T12:25:24.000Z</time>
      </trkpt>
      <trkpt lat="46.38886" lon="6.12102">
        <ele>781.931232</ele>
        <time>2024-09-15T12:25:25.000Z</time>
      </trkpt>
      <trkpt lat="46.38887" lon="6.12102">
        <ele>782.138305</ele>
        <time>2024-09-15T12:25:26.000Z</time>
      </trkpt>
      <trkpt lat="46.3889" lon="6.12103">
        <ele>782.488164</ele>
        <time>2024-09-15T12:25:27.000Z</time>
      </trkpt>
      <trkpt lat="46.38892" lon="6.12104">
        <ele>782.706285</ele>
        <time>2024-09-15T12:25:28.000Z</time>
      </trkpt>
      <trkpt lat="46.38894" lon="6.12105">
        <ele>782.935508</ele>
        <time>2024-09-15T12:25:29.000Z</time>
      </trkpt>
      <trkpt lat="46.38896" lon="6.12106">
        <ele>783.169692</ele>
        <time>2024-09-15T12:25:30.000Z</time>
      </trkpt>
      <trkpt lat="46.38898" lon="6.12107">
        <ele>783.382243</ele>
        <time>2024-09-15T12:25:31.000Z</time>
      </trkpt>
      <trkpt lat="46.38899" lon="6.12107">
        <ele>783.567414</ele>
        <time>2024-09-15T12:25:32.000Z</time>
      </trkpt>
      <trkpt lat="46.38901" lon="6.12107">
        <ele>783.787687</ele>
        <time>2024-09-15T12:25:33.000Z</time>
      </trkpt>
      <trkpt lat="46.38902" lon="6.12108">
        <ele>783.951307</ele>
        <time>2024-09-15T12:25:34.000Z</time>
      </trkpt>
      <trkpt lat="46.38903" lon="6.12109">
        <ele>784.1202</ele>
        <time>2024-09-15T12:25:35.000Z</time>
      </trkpt>
      <trkpt lat="46.38905" lon="6.1211">
        <ele>784.301017</ele>
        <time>2024-09-15T12:25:36.000Z</time>
      </trkpt>
      <trkpt lat="46.38906" lon="6.12111">
        <ele>784.481295</ele>
        <time>2024-09-15T12:25:37.000Z</time>
      </trkpt>
      <trkpt lat="46.38909" lon="6.12111">
        <ele>784.807264</ele>
        <time>2024-09-15T12:25:38.000Z</time>
      </trkpt>
      <trkpt lat="46.38912" lon="6.12112">
        <ele>785.092575</ele>
        <time>2024-09-15T12:25:39.000Z</time>
      </trkpt>
      <trkpt lat="46.38913" lon="6.12112">
        <ele>785.244034</ele>
        <time>2024-09-15T12:25:40.000Z</time>
      </trkpt>
      <trkpt lat="46.38914" lon="6.12112">
        <ele>785.38669</ele>
        <time>2024-09-15T12:25:41.000Z</time>
      </trkpt>
      <trkpt lat="46.38916" lon="6.12112">
        <ele>785.630513</ele>
        <time>2024-09-15T12:25:42.000Z</time>
      </trkpt>
      <trkpt lat="46.38917" lon="6.12112">
        <ele>785.775169</ele>
        <time>2024-09-15T12:25:43.000Z</time>
      </trkpt>
      <trkpt lat="46.3892" lon="6.12111">
        <ele>786.040006</ele>
        <time>2024-09-15T12:25:44.000Z</time>
      </trkpt>
      <trkpt lat="46.38921" lon="6.1211">
        <ele>786.17995</ele>
        <time>2024-09-15T12:25:45.000Z</time>
      </trkpt>
      <trkpt lat="46.38921" lon="6.12111">
        <ele>786.265509</ele>
        <time>2024-09-15T12:25:46.000Z</time>
      </trkpt>
      <trkpt lat="46.38923" lon="6.12111">
        <ele>786.439477</ele>
        <time>2024-09-15T12:25:47.000Z</time>
      </trkpt>
      <trkpt lat="46.38924" lon="6.12113">
        <ele>786.603898</ele>
        <time>2024-09-15T12:25:48.000Z</time>
      </trkpt>
      <trkpt lat="46.38925" lon="6.12113">
        <ele>786.778416</ele>
        <time>2024-09-15T12:25:49.000Z</time>
      </trkpt>
      <trkpt lat="46.38927" lon="6.12112">
        <ele>786.974501</ele>
        <time>2024-09-15T12:25:50.000Z</time>
      </trkpt>
      <trkpt lat="46.38929" lon="6.12111">
        <ele>787.246828</ele>
        <time>2024-09-15T12:25:51.000Z</time>
      </trkpt>
      <trkpt lat="46.38931" lon="6.1211">
        <ele>787.476051</ele>
        <time>2024-09-15T12:25:52.000Z</time>
      </trkpt>
      <trkpt lat="46.38932" lon="6.1211">
        <ele>787.640013</ele>
        <time>2024-09-15T12:25:54.000Z</time>
      </trkpt>
      <trkpt lat="46.38934" lon="6.1211">
        <ele>787.861442</ele>
        <time>2024-09-15T12:25:55.000Z</time>
      </trkpt>
      <trkpt lat="46.38936" lon="6.1211">
        <ele>788.0475</ele>
        <time>2024-09-15T12:25:56.000Z</time>
      </trkpt>
      <trkpt lat="46.38937" lon="6.12109">
        <ele>788.209896</ele>
        <time>2024-09-15T12:25:57.000Z</time>
      </trkpt>
      <trkpt lat="46.38939" lon="6.12109">
        <ele>788.407014</ele>
        <time>2024-09-15T12:25:58.000Z</time>
      </trkpt>
      <trkpt lat="46.38941" lon="6.1211">
        <ele>788.628444</ele>
        <time>2024-09-15T12:25:59.000Z</time>
      </trkpt>
      <trkpt lat="46.38943" lon="6.12109">
        <ele>788.863577</ele>
        <time>2024-09-15T12:26:00.000Z</time>
      </trkpt>
      <trkpt lat="46.38945" lon="6.12109">
        <ele>789.108966</ele>
        <time>2024-09-15T12:26:01.000Z</time>
      </trkpt>
      <trkpt lat="46.38947" lon="6.12109">
        <ele>789.31812</ele>
        <time>2024-09-15T12:26:02.000Z</time>
      </trkpt>
      <trkpt lat="46.38948" lon="6.12109">
        <ele>789.503291</ele>
        <time>2024-09-15T12:26:03.000Z</time>
      </trkpt>
      <trkpt lat="46.38951" lon="6.1211">
        <ele>789.783178</ele>
        <time>2024-09-15T12:26:04.000Z</time>
      </trkpt>
      <trkpt lat="46.38952" lon="6.12111">
        <ele>790.012999</ele>
        <time>2024-09-15T12:26:05.000Z</time>
      </trkpt>
      <trkpt lat="46.38953" lon="6.12113">
        <ele>790.224831</ele>
        <time>2024-09-15T12:26:06.000Z</time>
      </trkpt>
      <trkpt lat="46.38955" lon="6.12116">
        <ele>790.462457</ele>
        <time>2024-09-15T12:26:07.000Z</time>
      </trkpt>
      <trkpt lat="46.38956" lon="6.12118">
        <ele>790.707215</ele>
        <time>2024-09-15T12:26:08.000Z</time>
      </trkpt>
      <trkpt lat="46.38958" lon="6.1212">
        <ele>790.93135</ele>
        <time>2024-09-15T12:26:09.000Z</time>
      </trkpt>
      <trkpt lat="46.38959" lon="6.12122">
        <ele>791.116048</ele>
        <time>2024-09-15T12:26:10.000Z</time>
      </trkpt>
      <trkpt lat="46.3896" lon="6.12123">
        <ele>791.313615</ele>
        <time>2024-09-15T12:26:11.000Z</time>
      </trkpt>
      <trkpt lat="46.38961" lon="6.12125">
        <ele>791.512102</ele>
        <time>2024-09-15T12:26:12.000Z</time>
      </trkpt>
      <trkpt lat="46.38962" lon="6.12126">
        <ele>791.687059</ele>
        <time>2024-09-15T12:26:13.000Z</time>
      </trkpt>
      <trkpt lat="46.38964" lon="6.12127">
        <ele>791.840081</ele>
        <time>2024-09-15T12:26:14.000Z</time>
      </trkpt>
      <trkpt lat="46.38965" lon="6.12127">
        <ele>791.951745</ele>
        <time>2024-09-15T12:26:15.000Z</time>
      </trkpt>
      <trkpt lat="46.38965" lon="6.12129">
        <ele>792.0504</ele>
        <time>2024-09-15T12:26:16.000Z</time>
      </trkpt>
      <trkpt lat="46.38966" lon="6.1213">
        <ele>792.238826</ele>
        <time>2024-09-15T12:26:17.000Z</time>
      </trkpt>
      <trkpt lat="46.38967" lon="6.1213">
        <ele>792.364212</ele>
        <time>2024-09-15T12:26:18.000Z</time>
      </trkpt>
      <trkpt lat="46.38968" lon="6.12131">
        <ele>792.462732</ele>
        <time>2024-09-15T12:26:19.000Z</time>
      </trkpt>
      <trkpt lat="46.38969" lon="6.12131">
        <ele>792.626694</ele>
        <time>2024-09-15T12:26:20.000Z</time>
      </trkpt>
      <trkpt lat="46.38971" lon="6.12132">
        <ele>792.884691</ele>
        <time>2024-09-15T12:26:21.000Z</time>
      </trkpt>
      <trkpt lat="46.38973" lon="6.12132">
        <ele>793.082295</ele>
        <time>2024-09-15T12:26:22.000Z</time>
      </trkpt>
      <trkpt lat="46.38975" lon="6.12132">
        <ele>793.267665</ele>
        <time>2024-09-15T12:26:23.000Z</time>
      </trkpt>
      <trkpt lat="46.38976" lon="6.12133">
        <ele>793.459136</ele>
        <time>2024-09-15T12:26:24.000Z</time>
      </trkpt>
      <trkpt lat="46.38979" lon="6.12132">
        <ele>793.728753</ele>
        <time>2024-09-15T12:26:25.000Z</time>
      </trkpt>
      <trkpt lat="46.3898" lon="6.1213">
        <ele>793.961738</ele>
        <time>2024-09-15T12:26:26.000Z</time>
      </trkpt>
      <trkpt lat="46.38982" lon="6.1213">
        <ele>794.160148</ele>
        <time>2024-09-15T12:26:27.000Z</time>
      </trkpt>
      <trkpt lat="46.38982" lon="6.1213">
        <ele>794.20649</ele>
        <time>2024-09-15T12:26:28.000Z</time>
      </trkpt>
      <trkpt lat="46.38983" lon="6.1213">
        <ele>794.266583</ele>
        <time>2024-09-15T12:26:29.000Z</time>
      </trkpt>
      <trkpt lat="46.38984" lon="6.1213">
        <ele>794.429568</ele>
        <time>2024-09-15T12:26:30.000Z</time>
      </trkpt>
      <trkpt lat="46.38986" lon="6.12131">
        <ele>794.609846</ele>
        <time>2024-09-15T12:26:31.000Z</time>
      </trkpt>
      <trkpt lat="46.38987" lon="6.12132">
        <ele>794.803473</ele>
        <time>2024-09-15T12:26:32.000Z</time>
      </trkpt>
      <trkpt lat="46.38989" lon="6.12132">
        <ele>794.983751</ele>
        <time>2024-09-15T12:26:33.000Z</time>
      </trkpt>
      <trkpt lat="46.38991" lon="6.12133">
        <ele>795.215329</ele>
        <time>2024-09-15T12:26:34.000Z</time>
      </trkpt>
      <trkpt lat="46.38993" lon="6.12134">
        <ele>795.416298</ele>
        <time>2024-09-15T12:26:35.000Z</time>
      </trkpt>
      <trkpt lat="46.38994" lon="6.12134">
        <ele>795.601468</ele>
        <time>2024-09-15T12:26:36.000Z</time>
      </trkpt>
      <trkpt lat="46.38995" lon="6.12135">
        <ele>795.778898</ele>
        <time>2024-09-15T12:26:37.000Z</time>
      </trkpt>
      <trkpt lat="46.38997" lon="6.12137">
        <ele>795.971364</ele>
        <time>2024-09-15T12:26:38.000Z</time>
      </trkpt>
      <trkpt lat="46.38999" lon="6.12138">
        <ele>796.184698</ele>
        <time>2024-09-15T12:26:39.000Z</time>
      </trkpt>
      <trkpt lat="46.39" lon="6.12139">
        <ele>796.379321</ele>
        <time>2024-09-15T12:26:40.000Z</time>
      </trkpt>
      <trkpt lat="46.39002" lon="6.1214">
        <ele>796.544886</ele>
        <time>2024-09-15T12:26:41.000Z</time>
      </trkpt>
      <trkpt lat="46.39003" lon="6.12141">
        <ele>796.71742</ele>
        <time>2024-09-15T12:26:42.000Z</time>
      </trkpt>
      <trkpt lat="46.39005" lon="6.12142">
        <ele>796.930754</ele>
        <time>2024-09-15T12:26:43.000Z</time>
      </trkpt>
      <trkpt lat="46.39007" lon="6.12144">
        <ele>797.176699</ele>
        <time>2024-09-15T12:26:44.000Z</time>
      </trkpt>
      <trkpt lat="46.39008" lon="6.12145">
        <ele>797.275953</ele>
        <time>2024-09-15T12:26:45.000Z</time>
      </trkpt>
      <trkpt lat="46.39009" lon="6.12146">
        <ele>797.379051</ele>
        <time>2024-09-15T12:26:46.000Z</time>
      </trkpt>
      <trkpt lat="46.3901" lon="6.12146">
        <ele>797.48614</ele>
        <time>2024-09-15T12:26:47.000Z</time>
      </trkpt>
      <trkpt lat="46.39011" lon="6.12147">
        <ele>797.69603</ele>
        <time>2024-09-15T12:26:48.000Z</time>
      </trkpt>
      <trkpt lat="46.39014" lon="6.12147">
        <ele>797.918928</ele>
        <time>2024-09-15T12:26:49.000Z</time>
      </trkpt>
      <trkpt lat="46.39016" lon="6.12148">
        <ele>798.153415</ele>
        <time>2024-09-15T12:26:50.000Z</time>
      </trkpt>
      <trkpt lat="46.39018" lon="6.12148">
        <ele>798.357091</ele>
        <time>2024-09-15T12:26:51.000Z</time>
      </trkpt>
      <trkpt lat="46.39019" lon="6.12149">
        <ele>798.542702</ele>
        <time>2024-09-15T12:26:52.000Z</time>
      </trkpt>
      <trkpt lat="46.39021" lon="6.12148">
        <ele>798.735885</ele>
        <time>2024-09-15T12:26:53.000Z</time>
      </trkpt>
      <trkpt lat="46.39024" lon="6.12148">
        <ele>799.034361</ele>
        <time>2024-09-15T12:26:54.000Z</time>
      </trkpt>
      <trkpt lat="46.39026" lon="6.12147">
        <ele>799.27895</ele>
        <time>2024-09-15T12:26:55.000Z</time>
      </trkpt>
      <trkpt lat="46.39027" lon="6.12145">
        <ele>799.514578</ele>
        <time>2024-09-15T12:26:56.000Z</time>
      </trkpt>
      <trkpt lat="46.39029" lon="6.12143">
        <ele>799.715663</ele>
        <time>2024-09-15T12:26:57.000Z</time>
      </trkpt>
      <trkpt lat="46.39029" lon="6.12141">
        <ele>799.866863</ele>
        <time>2024-09-15T12:26:58.000Z</time>
      </trkpt>
      <trkpt lat="46.3903" lon="6.12139">
        <ele>800.011734</ele>
        <time>2024-09-15T12:26:59.000Z</time>
      </trkpt>
      <trkpt lat="46.3903" lon="6.12138">
        <ele>800.122003</ele>
        <time>2024-09-15T12:27:00.000Z</time>
      </trkpt>
      <trkpt lat="46.3903" lon="6.12136">
        <ele>800.248881</ele>
        <time>2024-09-15T12:27:01.000Z</time>
      </trkpt>
      <trkpt lat="46.39029" lon="6.12134">
        <ele>800.384109</ele>
        <time>2024-09-15T12:27:02.000Z</time>
      </trkpt>
      <trkpt lat="46.39028" lon="6.12133">
        <ele>800.52898</ele>
        <time>2024-09-15T12:27:03.000Z</time>
      </trkpt>
      <trkpt lat="46.39028" lon="6.1213">
        <ele>800.727678</ele>
        <time>2024-09-15T12:27:04.000Z</time>
      </trkpt>
      <trkpt lat="46.39028" lon="6.12127">
        <ele>800.974901</ele>
        <time>2024-09-15T12:27:05.000Z</time>
      </trkpt>
      <trkpt lat="46.39027" lon="6.12123">
        <ele>801.230846</ele>
        <time>2024-09-15T12:27:06.000Z</time>
      </trkpt>
      <trkpt lat="46.39026" lon="6.12122">
        <ele>801.394331</ele>
        <time>2024-09-15T12:27:07.000Z</time>
      </trkpt>
      <trkpt lat="46.39025" lon="6.1212">
        <ele>801.562415</ele>
        <time>2024-09-15T12:27:08.000Z</time>
      </trkpt>
      <trkpt lat="46.39023" lon="6.12119">
        <ele>801.722095</ele>
        <time>2024-09-15T12:27:09.000Z</time>
      </trkpt>
      <trkpt lat="46.39022" lon="6.12118">
        <ele>801.872708</ele>
        <time>2024-09-15T12:27:10.000Z</time>
      </trkpt>
      <trkpt lat="46.39021" lon="6.12117">
        <ele>802.054453</ele>
        <time>2024-09-15T12:27:11.000Z</time>
      </trkpt>
      <trkpt lat="46.3902" lon="6.12116">
        <ele>802.205065</ele>
        <time>2024-09-15T12:27:12.000Z</time>
      </trkpt>
      <trkpt lat="46.39019" lon="6.12114">
        <ele>802.352537</ele>
        <time>2024-09-15T12:27:13.000Z</time>
      </trkpt>
      <trkpt lat="46.39017" lon="6.12113">
        <ele>802.524331</ele>
        <time>2024-09-15T12:27:14.000Z</time>
      </trkpt>
      <trkpt lat="46.39016" lon="6.12112">
        <ele>802.691865</ele>
        <time>2024-09-15T12:27:15.000Z</time>
      </trkpt>
      <trkpt lat="46.39015" lon="6.12111">
        <ele>802.857431</ele>
        <time>2024-09-15T12:27:16.000Z</time>
      </trkpt>
      <trkpt lat="46.39013" lon="6.12109">
        <ele>803.029225</ele>
        <time>2024-09-15T12:27:17.000Z</time>
      </trkpt>
      <trkpt lat="46.39012" lon="6.12107">
        <ele>803.207211</ele>
        <time>2024-09-15T12:27:18.000Z</time>
      </trkpt>
      <trkpt lat="46.39011" lon="6.12106">
        <ele>803.366891</ele>
        <time>2024-09-15T12:27:19.000Z</time>
      </trkpt>
      <trkpt lat="46.3901" lon="6.12105">
        <ele>803.512929</ele>
        <time>2024-09-15T12:27:20.000Z</time>
      </trkpt>
      <trkpt lat="46.39008" lon="6.12104">
        <ele>803.681014</ele>
        <time>2024-09-15T12:27:21.000Z</time>
      </trkpt>
      <trkpt lat="46.39008" lon="6.12102">
        <ele>803.849667</ele>
        <time>2024-09-15T12:27:22.000Z</time>
      </trkpt>
      <trkpt lat="46.39007" lon="6.121">
        <ele>804.03639</ele>
        <time>2024-09-15T12:27:23.000Z</time>
      </trkpt>
      <trkpt lat="46.39005" lon="6.12098">
        <ele>804.20695</ele>
        <time>2024-09-15T12:27:24.000Z</time>
      </trkpt>
      <trkpt lat="46.39005" lon="6.12096">
        <ele>804.369624</ele>
        <time>2024-09-15T12:27:25.000Z</time>
      </trkpt>
      <trkpt lat="46.39004" lon="6.12094">
        <ele>804.544502</ele>
        <time>2024-09-15T12:27:26.000Z</time>
      </trkpt>
      <trkpt lat="46.39003" lon="6.12093">
        <ele>804.695572</ele>
        <time>2024-09-15T12:27:27.000Z</time>
      </trkpt>
      <trkpt lat="46.39002" lon="6.12092">
        <ele>804.829566</ele>
        <time>2024-09-15T12:27:28.000Z</time>
      </trkpt>
      <trkpt lat="46.39001" lon="6.12091">
        <ele>804.944376</ele>
        <time>2024-09-15T12:27:29.000Z</time>
      </trkpt>
      <trkpt lat="46.39" lon="6.12089">
        <ele>805.117481</ele>
        <time>2024-09-15T12:27:30.000Z</time>
      </trkpt>
      <trkpt lat="46.38999" lon="6.12087">
        <ele>805.25612</ele>
        <time>2024-09-15T12:27:31.000Z</time>
      </trkpt>
      <trkpt lat="46.38998" lon="6.12086">
        <ele>805.418795</ele>
        <time>2024-09-15T12:27:32.000Z</time>
      </trkpt>
      <trkpt lat="46.38997" lon="6.12083">
        <ele>805.611585</ele>
        <time>2024-09-15T12:27:33.000Z</time>
      </trkpt>
      <trkpt lat="46.38997" lon="6.1208">
        <ele>805.851667</ele>
        <time>2024-09-15T12:27:34.000Z</time>
      </trkpt>
      <trkpt lat="46.38996" lon="6.12077">
        <ele>806.08963</ele>
        <time>2024-09-15T12:27:35.000Z</time>
      </trkpt>
      <trkpt lat="46.38996" lon="6.12074">
        <ele>806.332027</ele>
        <time>2024-09-15T12:27:36.000Z</time>
      </trkpt>
      <trkpt lat="46.38996" lon="6.12071">
        <ele>806.523453</ele>
        <time>2024-09-15T12:27:37.000Z</time>
      </trkpt>
      <trkpt lat="46.38996" lon="6.12069">
        <ele>806.704119</ele>
        <time>2024-09-15T12:27:38.000Z</time>
      </trkpt>
      <trkpt lat="46.38994" lon="6.12066">
        <ele>806.921702</ele>
        <time>2024-09-15T12:27:39.000Z</time>
      </trkpt>
      <trkpt lat="46.38994" lon="6.12064">
        <ele>807.08426</ele>
        <time>2024-09-15T12:27:40.000Z</time>
      </trkpt>
      <trkpt lat="46.38993" lon="6.12061">
        <ele>807.295896</ele>
        <time>2024-09-15T12:27:41.000Z</time>
      </trkpt>
      <trkpt lat="46.38993" lon="6.12058">
        <ele>807.534574</ele>
        <time>2024-09-15T12:27:42.000Z</time>
      </trkpt>
      <trkpt lat="46.38992" lon="6.12056">
        <ele>807.7388</ele>
        <time>2024-09-15T12:27:43.000Z</time>
      </trkpt>
      <trkpt lat="46.38991" lon="6.12053">
        <ele>807.91873</ele>
        <time>2024-09-15T12:27:44.000Z</time>
      </trkpt>
      <trkpt lat="46.38991" lon="6.12052">
        <ele>808.071634</ele>
        <time>2024-09-15T12:27:45.000Z</time>
      </trkpt>
      <trkpt lat="46.3899" lon="6.12048">
        <ele>808.302402</ele>
        <time>2024-09-15T12:27:46.000Z</time>
      </trkpt>
      <trkpt lat="46.38989" lon="6.12045">
        <ele>808.582589</ele>
        <time>2024-09-15T12:27:47.000Z</time>
      </trkpt>
      <trkpt lat="46.38989" lon="6.1204">
        <ele>808.915543</ele>
        <time>2024-09-15T12:27:48.000Z</time>
      </trkpt>
      <trkpt lat="46.38988" lon="6.12036">
        <ele>809.255577</ele>
        <time>2024-09-15T12:27:49.000Z</time>
      </trkpt>
      <trkpt lat="46.38987" lon="6.12032">
        <ele>809.557124</ele>
        <time>2024-09-15T12:27:50.000Z</time>
      </trkpt>
      <trkpt lat="46.38985" lon="6.1203">
        <ele>809.815079</ele>
        <time>2024-09-15T12:27:51.000Z</time>
      </trkpt>
      <trkpt lat="46.38983" lon="6.12028">
        <ele>810.048175</ele>
        <time>2024-09-15T12:27:52.000Z</time>
      </trkpt>
      <trkpt lat="46.38981" lon="6.12026">
        <ele>810.26758</ele>
        <time>2024-09-15T12:27:53.000Z</time>
      </trkpt>
      <trkpt lat="46.3898" lon="6.12025">
        <ele>810.490899</ele>
        <time>2024-09-15T12:27:54.000Z</time>
      </trkpt>
      <trkpt lat="46.38978" lon="6.12022">
        <ele>810.745859</ele>
        <time>2024-09-15T12:27:55.000Z</time>
      </trkpt>
      <trkpt lat="46.38976" lon="6.12019">
        <ele>811.000818</ele>
        <time>2024-09-15T12:27:56.000Z</time>
      </trkpt>
      <trkpt lat="46.38975" lon="6.12018">
        <ele>811.19192</ele>
        <time>2024-09-15T12:27:57.000Z</time>
      </trkpt>
      <trkpt lat="46.38973" lon="6.12017">
        <ele>811.383912</ele>
        <time>2024-09-15T12:27:58.000Z</time>
      </trkpt>
      <trkpt lat="46.38971" lon="6.12016">
        <ele>811.591136</ele>
        <time>2024-09-15T12:27:59.000Z</time>
      </trkpt>
      <trkpt lat="46.3897" lon="6.12016">
        <ele>811.75177</ele>
        <time>2024-09-15T12:28:00.000Z</time>
      </trkpt>
      <trkpt lat="46.38968" lon="6.12016">
        <ele>811.932707</ele>
        <time>2024-09-15T12:28:01.000Z</time>
      </trkpt>
      <trkpt lat="46.38967" lon="6.12016">
        <ele>812.103073</ele>
        <time>2024-09-15T12:28:02.000Z</time>
      </trkpt>
      <trkpt lat="46.38965" lon="6.12017">
        <ele>812.294586</ele>
        <time>2024-09-15T12:28:03.000Z</time>
      </trkpt>
      <trkpt lat="46.38963" lon="6.12016">
        <ele>812.506882</ele>
        <time>2024-09-15T12:28:04.000Z</time>
      </trkpt>
      <trkpt lat="46.38961" lon="6.12016">
        <ele>812.721061</ele>
        <time>2024-09-15T12:28:05.000Z</time>
      </trkpt>
      <trkpt lat="46.38959" lon="6.12016">
        <ele>812.914244</ele>
        <time>2024-09-15T12:28:06.000Z</time>
      </trkpt>
      <trkpt lat="46.38957" lon="6.12015">
        <ele>813.09154</ele>
        <time>2024-09-15T12:28:07.000Z</time>
      </trkpt>
      <trkpt lat="46.38956" lon="6.12014">
        <ele>813.286113</ele>
        <time>2024-09-15T12:28:08.000Z</time>
      </trkpt>
      <trkpt lat="46.38954" lon="6.12012">
        <ele>813.475228</ele>
        <time>2024-09-15T12:28:09.000Z</time>
      </trkpt>
      <trkpt lat="46.38953" lon="6.1201">
        <ele>813.668958</ele>
        <time>2024-09-15T12:28:10.000Z</time>
      </trkpt>
      <trkpt lat="46.38952" lon="6.12008">
        <ele>813.849709</ele>
        <time>2024-09-15T12:28:11.000Z</time>
      </trkpt>
      <trkpt lat="46.38951" lon="6.12006">
        <ele>814.044754</ele>
        <time>2024-09-15T12:28:12.000Z</time>
      </trkpt>
      <trkpt lat="46.3895" lon="6.12004">
        <ele>814.19534</ele>
        <time>2024-09-15T12:28:13.000Z</time>
      </trkpt>
      <trkpt lat="46.3895" lon="6.12002">
        <ele>814.361663</ele>
        <time>2024-09-15T12:28:14.000Z</time>
      </trkpt>
      <trkpt lat="46.38949" lon="6.12">
        <ele>814.540137</ele>
        <time>2024-09-15T12:28:15.000Z</time>
      </trkpt>
      <trkpt lat="46.38949" lon="6.11997">
        <ele>814.731565</ele>
        <time>2024-09-15T12:28:16.000Z</time>
      </trkpt>
      <trkpt lat="46.38949" lon="6.11995">
        <ele>814.89566</ele>
        <time>2024-09-15T12:28:17.000Z</time>
      </trkpt>
      <trkpt lat="46.38949" lon="6.11993">
        <ele>815.021974</ele>
        <time>2024-09-15T12:28:18.000Z</time>
      </trkpt>
      <trkpt lat="46.38949" lon="6.11991">
        <ele>815.170761</ele>
        <time>2024-09-15T12:28:19.000Z</time>
      </trkpt>
      <trkpt lat="46.38949" lon="6.11989">
        <ele>815.380076</ele>
        <time>2024-09-15T12:28:20.000Z</time>
      </trkpt>
      <trkpt lat="46.3895" lon="6.11986">
        <ele>815.591784</ele>
        <time>2024-09-15T12:28:21.000Z</time>
      </trkpt>
      <trkpt lat="46.3895" lon="6.11983">
        <ele>815.786613</ele>
        <time>2024-09-15T12:28:22.000Z</time>
      </trkpt>
      <trkpt lat="46.3895" lon="6.1198">
        <ele>816.028943</ele>
        <time>2024-09-15T12:28:23.000Z</time>
      </trkpt>
      <trkpt lat="46.3895" lon="6.11978">
        <ele>816.239158</ele>
        <time>2024-09-15T12:28:24.000Z</time>
      </trkpt>
      <trkpt lat="46.38951" lon="6.11975">
        <ele>816.435597</ele>
        <time>2024-09-15T12:28:25.000Z</time>
      </trkpt>
      <trkpt lat="46.38951" lon="6.11973">
        <ele>816.621725</ele>
        <time>2024-09-15T12:28:26.000Z</time>
      </trkpt>
      <trkpt lat="46.38951" lon="6.1197">
        <ele>816.830674</ele>
        <time>2024-09-15T12:28:27.000Z</time>
      </trkpt>
      <trkpt lat="46.38952" lon="6.11968">
        <ele>817.002654</ele>
        <time>2024-09-15T12:28:28.000Z</time>
      </trkpt>
      <trkpt lat="46.38952" lon="6.11966">
        <ele>817.131008</ele>
        <time>2024-09-15T12:28:29.000Z</time>
      </trkpt>
      <trkpt lat="46.38952" lon="6.11964">
        <ele>817.295117</ele>
        <time>2024-09-15T12:28:30.000Z</time>
      </trkpt>
      <trkpt lat="46.38952" lon="6.11962">
        <ele>817.474575</ele>
        <time>2024-09-15T12:28:31.000Z</time>
      </trkpt>
      <trkpt lat="46.38952" lon="6.1196">
        <ele>817.648179</ele>
        <time>2024-09-15T12:28:32.000Z</time>
      </trkpt>
      <trkpt lat="46.38952" lon="6.11958">
        <ele>817.81683</ele>
        <time>2024-09-15T12:28:33.000Z</time>
      </trkpt>
      <trkpt lat="46.38953" lon="6.11956">
        <ele>817.975274</ele>
        <time>2024-09-15T12:28:34.000Z</time>
      </trkpt>
      <trkpt lat="46.38953" lon="6.11954">
        <ele>818.151399</ele>
        <time>2024-09-15T12:28:35.000Z</time>
      </trkpt>
      <trkpt lat="46.38953" lon="6.11951">
        <ele>818.330857</ele>
        <time>2024-09-15T12:28:36.000Z</time>
      </trkpt>
      <trkpt lat="46.38953" lon="6.11949">
        <ele>818.502637</ele>
        <time>2024-09-15T12:28:37.000Z</time>
      </trkpt>
      <trkpt lat="46.38953" lon="6.11947">
        <ele>818.666746</ele>
        <time>2024-09-15T12:28:38.000Z</time>
      </trkpt>
      <trkpt lat="46.38953" lon="6.11945">
        <ele>818.82519</ele>
        <time>2024-09-15T12:28:39.000Z</time>
      </trkpt>
      <trkpt lat="46.38954" lon="6.11943">
        <ele>818.981633</ele>
        <time>2024-09-15T12:28:40.000Z</time>
      </trkpt>
      <trkpt lat="46.38954" lon="6.11941">
        <ele>819.145742</ele>
        <time>2024-09-15T12:28:41.000Z</time>
      </trkpt>
      <trkpt lat="46.38954" lon="6.11938">
        <ele>819.339598</ele>
        <time>2024-09-15T12:28:42.000Z</time>
      </trkpt>
      <trkpt lat="46.38954" lon="6.11936">
        <ele>819.509906</ele>
        <time>2024-09-15T12:28:43.000Z</time>
      </trkpt>
      <trkpt lat="46.38954" lon="6.11934">
        <ele>819.688308</ele>
        <time>2024-09-15T12:28:44.000Z</time>
      </trkpt>
      <trkpt lat="46.38954" lon="6.11931">
        <ele>819.874098</ele>
        <time>2024-09-15T12:28:45.000Z</time>
      </trkpt>
      <trkpt lat="46.38954" lon="6.11929">
        <ele>820.0353</ele>
        <time>2024-09-15T12:28:46.000Z</time>
      </trkpt>
      <trkpt lat="46.38955" lon="6.11928">
        <ele>820.123362</ele>
        <time>2024-09-15T12:28:47.000Z</time>
      </trkpt>
      <trkpt lat="46.38955" lon="6.11927">
        <ele>820.266715</ele>
        <time>2024-09-15T12:28:48.000Z</time>
      </trkpt>
      <trkpt lat="46.38955" lon="6.11924">
        <ele>820.44284</ele>
        <time>2024-09-15T12:28:49.000Z</time>
      </trkpt>
      <trkpt lat="46.38956" lon="6.11922">
        <ele>820.637669</ele>
        <time>2024-09-15T12:28:50.000Z</time>
      </trkpt>
      <trkpt lat="46.38956" lon="6.1192">
        <ele>820.7929</ele>
        <time>2024-09-15T12:28:51.000Z</time>
      </trkpt>
      <trkpt lat="46.38955" lon="6.11918">
        <ele>820.926401</ele>
        <time>2024-09-15T12:28:52.000Z</time>
      </trkpt>
      <trkpt lat="46.38955" lon="6.11917">
        <ele>821.050769</ele>
        <time>2024-09-15T12:28:53.000Z</time>
      </trkpt>
      <trkpt lat="46.38955" lon="6.11915">
        <ele>821.149577</ele>
        <time>2024-09-15T12:28:54.000Z</time>
      </trkpt>
      <trkpt lat="46.38954" lon="6.11914">
        <ele>821.271239</ele>
        <time>2024-09-15T12:28:55.000Z</time>
      </trkpt>
      <trkpt lat="46.38953" lon="6.11912">
        <ele>821.443341</ele>
        <time>2024-09-15T12:28:56.000Z</time>
      </trkpt>
      <trkpt lat="46.38953" lon="6.11911">
        <ele>821.57932</ele>
        <time>2024-09-15T12:28:57.000Z</time>
      </trkpt>
      <trkpt lat="46.38952" lon="6.1191">
        <ele>821.674933</ele>
        <time>2024-09-15T12:28:58.000Z</time>
      </trkpt>
      <trkpt lat="46.38952" lon="6.11908">
        <ele>821.799428</ele>
        <time>2024-09-15T12:28:59.000Z</time>
      </trkpt>
      <trkpt lat="46.38952" lon="6.11906">
        <ele>821.993284</ele>
        <time>2024-09-15T12:29:00.000Z</time>
      </trkpt>
      <trkpt lat="46.38952" lon="6.11903">
        <ele>822.218061</ele>
        <time>2024-09-15T12:29:01.000Z</time>
      </trkpt>
      <trkpt lat="46.38952" lon="6.119">
        <ele>822.442557</ele>
        <time>2024-09-15T12:29:02.000Z</time>
      </trkpt>
      <trkpt lat="46.38952" lon="6.11898">
        <ele>822.60551</ele>
        <time>2024-09-15T12:29:03.000Z</time>
      </trkpt>
      <trkpt lat="46.38952" lon="6.11896">
        <ele>822.74135</ele>
        <time>2024-09-15T12:29:04.000Z</time>
      </trkpt>
      <trkpt lat="46.38952" lon="6.11894">
        <ele>822.897794</ele>
        <time>2024-09-15T12:29:05.000Z</time>
      </trkpt>
      <trkpt lat="46.38952" lon="6.11892">
        <ele>823.053025</ele>
        <time>2024-09-15T12:29:06.000Z</time>
      </trkpt>
      <trkpt lat="46.38952" lon="6.11889">
        <ele>823.301</ele>
        <time>2024-09-15T12:29:07.000Z</time>
      </trkpt>
      <trkpt lat="46.38951" lon="6.11886">
        <ele>823.550997</ele>
        <time>2024-09-15T12:29:08.000Z</time>
      </trkpt>
      <trkpt lat="46.38951" lon="6.11884">
        <ele>823.722976</ele>
        <time>2024-09-15T12:29:09.000Z</time>
      </trkpt>
      <trkpt lat="46.38951" lon="6.11881">
        <ele>823.925497</ele>
        <time>2024-09-15T12:29:10.000Z</time>
      </trkpt>
      <trkpt lat="46.38951" lon="6.11878">
        <ele>824.135713</ele>
        <time>2024-09-15T12:29:11.000Z</time>
      </trkpt>
      <trkpt lat="46.38951" lon="6.11876">
        <ele>824.344726</ele>
        <time>2024-09-15T12:29:12.000Z</time>
      </trkpt>
      <trkpt lat="46.38951" lon="6.11873">
        <ele>824.541165</ele>
        <time>2024-09-15T12:29:13.000Z</time>
      </trkpt>
      <trkpt lat="46.38951" lon="6.11871">
        <ele>824.709816</ele>
        <time>2024-09-15T12:29:14.000Z</time>
      </trkpt>
      <trkpt lat="46.3895" lon="6.11869">
        <ele>824.911319</ele>
        <time>2024-09-15T12:29:15.000Z</time>
      </trkpt>
      <trkpt lat="46.38951" lon="6.11866">
        <ele>825.123027</ele>
        <time>2024-09-15T12:29:16.000Z</time>
      </trkpt>
      <trkpt lat="46.38951" lon="6.11863">
        <ele>825.361948</ele>
        <time>2024-09-15T12:29:17.000Z</time>
      </trkpt>
      <trkpt lat="46.38951" lon="6.1186">
        <ele>825.572164</ele>
        <time>2024-09-15T12:29:18.000Z</time>
      </trkpt>
      <trkpt lat="46.38951" lon="6.11858">
        <ele>825.742841</ele>
        <time>2024-09-15T12:29:19.000Z</time>
      </trkpt>
      <trkpt lat="46.38951" lon="6.11856">
        <ele>825.877073</ele>
        <time>2024-09-15T12:29:20.000Z</time>
      </trkpt>
      <trkpt lat="46.3895" lon="6.11854">
        <ele>826.045724</ele>
        <time>2024-09-15T12:29:21.000Z</time>
      </trkpt>
      <trkpt lat="46.38951" lon="6.11852">
        <ele>826.199506</ele>
        <time>2024-09-15T12:29:22.000Z</time>
      </trkpt>
      <trkpt lat="46.38952" lon="6.11851">
        <ele>826.371829</ele>
        <time>2024-09-15T12:29:23.000Z</time>
      </trkpt>
      <trkpt lat="46.38952" lon="6.11849">
        <ele>826.497706</ele>
        <time>2024-09-15T12:29:24.000Z</time>
      </trkpt>
      <trkpt lat="46.38952" lon="6.11847">
        <ele>826.652531</ele>
        <time>2024-09-15T12:29:25.000Z</time>
      </trkpt>
      <trkpt lat="46.38952" lon="6.11845">
        <ele>826.83866</ele>
        <time>2024-09-15T12:29:26.000Z</time>
      </trkpt>
      <trkpt lat="46.38952" lon="6.11843">
        <ele>826.970261</ele>
        <time>2024-09-15T12:29:27.000Z</time>
      </trkpt>
      <trkpt lat="46.38951" lon="6.11841">
        <ele>827.126705</ele>
        <time>2024-09-15T12:29:28.000Z</time>
      </trkpt>
      <trkpt lat="46.38951" lon="6.11839">
        <ele>827.280609</ele>
        <time>2024-09-15T12:29:29.000Z</time>
      </trkpt>
      <trkpt lat="46.38949" lon="6.11838">
        <ele>827.477094</ele>
        <time>2024-09-15T12:29:30.000Z</time>
      </trkpt>
      <trkpt lat="46.38948" lon="6.11836">
        <ele>827.66326</ele>
        <time>2024-09-15T12:29:31.000Z</time>
      </trkpt>
      <trkpt lat="46.38947" lon="6.11834">
        <ele>827.832744</ele>
        <time>2024-09-15T12:29:32.000Z</time>
      </trkpt>
      <trkpt lat="46.38946" lon="6.11833">
        <ele>827.979526</ele>
        <time>2024-09-15T12:29:33.000Z</time>
      </trkpt>
      <trkpt lat="46.38945" lon="6.11831">
        <ele>828.149011</ele>
        <time>2024-09-15T12:29:34.000Z</time>
      </trkpt>
      <trkpt lat="46.38944" lon="6.1183">
        <ele>828.362693</ele>
        <time>2024-09-15T12:29:35.000Z</time>
      </trkpt>
      <trkpt lat="46.38942" lon="6.11828">
        <ele>828.549284</ele>
        <time>2024-09-15T12:29:36.000Z</time>
      </trkpt>
      <trkpt lat="46.3894" lon="6.11827">
        <ele>828.768516</ele>
        <time>2024-09-15T12:29:37.000Z</time>
      </trkpt>
      <trkpt lat="46.38939" lon="6.11827">
        <ele>828.956085</ele>
        <time>2024-09-15T12:29:38.000Z</time>
      </trkpt>
      <trkpt lat="46.38937" lon="6.11825">
        <ele>829.160597</ele>
        <time>2024-09-15T12:29:39.000Z</time>
      </trkpt>
      <trkpt lat="46.38936" lon="6.11824">
        <ele>829.352875</ele>
        <time>2024-09-15T12:29:40.000Z</time>
      </trkpt>
      <trkpt lat="46.38934" lon="6.11822">
        <ele>829.552949</ele>
        <time>2024-09-15T12:29:41.000Z</time>
      </trkpt>
      <trkpt lat="46.38933" lon="6.11821">
        <ele>829.707451</ele>
        <time>2024-09-15T12:29:42.000Z</time>
      </trkpt>
      <trkpt lat="46.38932" lon="6.1182">
        <ele>829.845569</ele>
        <time>2024-09-15T12:29:43.000Z</time>
      </trkpt>
      <trkpt lat="46.38931" lon="6.11819">
        <ele>830.027765</ele>
        <time>2024-09-15T12:29:44.000Z</time>
      </trkpt>
      <trkpt lat="46.3893" lon="6.11818">
        <ele>830.187042</ele>
        <time>2024-09-15T12:29:45.000Z</time>
      </trkpt>
      <trkpt lat="46.38928" lon="6.11817">
        <ele>830.358921</ele>
        <time>2024-09-15T12:29:46.000Z</time>
      </trkpt>
      <trkpt lat="46.38927" lon="6.11816">
        <ele>830.564823</ele>
        <time>2024-09-15T12:29:47.000Z</time>
      </trkpt>
      <trkpt lat="46.38925" lon="6.11816">
        <ele>830.72867</ele>
        <time>2024-09-15T12:29:48.000Z</time>
      </trkpt>
      <trkpt lat="46.38924" lon="6.11815">
        <ele>830.879619</ele>
        <time>2024-09-15T12:29:49.000Z</time>
      </trkpt>
      <trkpt lat="46.38923" lon="6.11814">
        <ele>831.011523</ele>
        <time>2024-09-15T12:29:50.000Z</time>
      </trkpt>
      <trkpt lat="46.38921" lon="6.11814">
        <ele>831.188378</ele>
        <time>2024-09-15T12:29:51.000Z</time>
      </trkpt>
      <trkpt lat="46.3892" lon="6.11813">
        <ele>831.346879</ele>
        <time>2024-09-15T12:29:52.000Z</time>
      </trkpt>
      <trkpt lat="46.38919" lon="6.11812">
        <ele>831.489343</ele>
        <time>2024-09-15T12:29:53.000Z</time>
      </trkpt>
      <trkpt lat="46.38917" lon="6.11812">
        <ele>831.663981</ele>
        <time>2024-09-15T12:29:54.000Z</time>
      </trkpt>
      <trkpt lat="46.38916" lon="6.11811">
        <ele>831.832871</ele>
        <time>2024-09-15T12:29:55.000Z</time>
      </trkpt>
      <trkpt lat="46.38915" lon="6.1181">
        <ele>831.994555</ele>
        <time>2024-09-15T12:29:56.000Z</time>
      </trkpt>
      <trkpt lat="46.38913" lon="6.11809">
        <ele>832.160762</ele>
        <time>2024-09-15T12:29:57.000Z</time>
      </trkpt>
      <trkpt lat="46.38912" lon="6.11809">
        <ele>832.292666</ele>
        <time>2024-09-15T12:29:58.000Z</time>
      </trkpt>
      <trkpt lat="46.38911" lon="6.11808">
        <ele>832.456513</ele>
        <time>2024-09-15T12:29:59.000Z</time>
      </trkpt>
      <trkpt lat="46.38909" lon="6.11808">
        <ele>832.61666</ele>
        <time>2024-09-15T12:30:00.000Z</time>
      </trkpt>
      <trkpt lat="46.38908" lon="6.11807">
        <ele>832.78854</ele>
        <time>2024-09-15T12:30:01.000Z</time>
      </trkpt>
      <trkpt lat="46.38906" lon="6.11806">
        <ele>832.954747</ele>
        <time>2024-09-15T12:30:02.000Z</time>
      </trkpt>
      <trkpt lat="46.38905" lon="6.11806">
        <ele>833.146169</ele>
        <time>2024-09-15T12:30:03.000Z</time>
      </trkpt>
      <trkpt lat="46.38903" lon="6.11805">
        <ele>833.364411</ele>
        <time>2024-09-15T12:30:04.000Z</time>
      </trkpt>
      <trkpt lat="46.38901" lon="6.11805">
        <ele>833.533301</ele>
        <time>2024-09-15T12:30:05.000Z</time>
      </trkpt>
      <trkpt lat="46.389" lon="6.11804">
        <ele>833.731642</ele>
        <time>2024-09-15T12:30:06.000Z</time>
      </trkpt>
      <trkpt lat="46.38898" lon="6.11803">
        <ele>833.927189</ele>
        <time>2024-09-15T12:30:07.000Z</time>
      </trkpt>
      <trkpt lat="46.38896" lon="6.11802">
        <ele>834.136349</ele>
        <time>2024-09-15T12:30:08.000Z</time>
      </trkpt>
      <trkpt lat="46.38895" lon="6.11802">
        <ele>834.320045</ele>
        <time>2024-09-15T12:30:09.000Z</time>
      </trkpt>
      <trkpt lat="46.38893" lon="6.118">
        <ele>834.506516</ele>
        <time>2024-09-15T12:30:10.000Z</time>
      </trkpt>
      <trkpt lat="46.38892" lon="6.118">
        <ele>834.668339</ele>
        <time>2024-09-15T12:30:11.000Z</time>
      </trkpt>
      <trkpt lat="46.38891" lon="6.11799">
        <ele>834.842977</ele>
        <time>2024-09-15T12:30:12.000Z</time>
      </trkpt>
      <trkpt lat="46.38889" lon="6.11798">
        <ele>835.011867</ele>
        <time>2024-09-15T12:30:13.000Z</time>
      </trkpt>
      <trkpt lat="46.38888" lon="6.11798">
        <ele>835.19535</ele>
        <time>2024-09-15T12:30:14.000Z</time>
      </trkpt>
      <trkpt lat="46.38886" lon="6.11797">
        <ele>835.388148</ele>
        <time>2024-09-15T12:30:15.000Z</time>
      </trkpt>
      <trkpt lat="46.38884" lon="6.11797">
        <ele>835.646644</ele>
        <time>2024-09-15T12:30:16.000Z</time>
      </trkpt>
      <trkpt lat="46.38882" lon="6.11796">
        <ele>835.862775</ele>
        <time>2024-09-15T12:30:17.000Z</time>
      </trkpt>
      <trkpt lat="46.3888" lon="6.11796">
        <ele>836.042091</ele>
        <time>2024-09-15T12:30:18.000Z</time>
      </trkpt>
      <trkpt lat="46.38878" lon="6.11796">
        <ele>836.253409</ele>
        <time>2024-09-15T12:30:19.000Z</time>
      </trkpt>
      <trkpt lat="46.38876" lon="6.11796">
        <ele>836.476231</ele>
        <time>2024-09-15T12:30:20.000Z</time>
      </trkpt>
      <trkpt lat="46.38874" lon="6.11795">
        <ele>836.699711</ele>
        <time>2024-09-15T12:30:21.000Z</time>
      </trkpt>
      <trkpt lat="46.38872" lon="6.11795">
        <ele>836.933622</ele>
        <time>2024-09-15T12:30:22.000Z</time>
      </trkpt>
      <trkpt lat="46.3887" lon="6.11795">
        <ele>837.145357</ele>
        <time>2024-09-15T12:30:23.000Z</time>
      </trkpt>
      <trkpt lat="46.38869" lon="6.11794">
        <ele>837.327276</ele>
        <time>2024-09-15T12:30:24.000Z</time>
      </trkpt>
      <trkpt lat="46.38867" lon="6.11794">
        <ele>837.491876</ele>
        <time>2024-09-15T12:30:25.000Z</time>
      </trkpt>
      <trkpt lat="46.38866" lon="6.11793">
        <ele>837.651996</ele>
        <time>2024-09-15T12:30:26.000Z</time>
      </trkpt>
      <trkpt lat="46.38864" lon="6.11792">
        <ele>837.833915</ele>
        <time>2024-09-15T12:30:27.000Z</time>
      </trkpt>
      <trkpt lat="46.38863" lon="6.11792">
        <ele>837.959964</ele>
        <time>2024-09-15T12:30:28.000Z</time>
      </trkpt>
      <trkpt lat="46.38862" lon="6.11791">
        <ele>838.120222</ele>
        <time>2024-09-15T12:30:29.000Z</time>
      </trkpt>
      <trkpt lat="46.3886" lon="6.11791">
        <ele>838.31302</ele>
        <time>2024-09-15T12:30:30.000Z</time>
      </trkpt>
      <trkpt lat="46.38858" lon="6.1179">
        <ele>838.505819</ele>
        <time>2024-09-15T12:30:31.000Z</time>
      </trkpt>
      <trkpt lat="46.38857" lon="6.1179">
        <ele>838.670419</ele>
        <time>2024-09-15T12:30:32.000Z</time>
      </trkpt>
      <trkpt lat="46.38856" lon="6.11788">
        <ele>838.846526</ele>
        <time>2024-09-15T12:30:33.000Z</time>
      </trkpt>
      <trkpt lat="46.38854" lon="6.11787">
        <ele>839.019992</ele>
        <time>2024-09-15T12:30:34.000Z</time>
      </trkpt>
      <trkpt lat="46.38853" lon="6.11785">
        <ele>839.206474</ele>
        <time>2024-09-15T12:30:35.000Z</time>
      </trkpt>
      <trkpt lat="46.38852" lon="6.11784">
        <ele>839.368501</ele>
        <time>2024-09-15T12:30:36.000Z</time>
      </trkpt>
      <trkpt lat="46.38851" lon="6.11783">
        <ele>839.535001</ele>
        <time>2024-09-15T12:30:37.000Z</time>
      </trkpt>
      <trkpt lat="46.38849" lon="6.11781">
        <ele>839.719668</ele>
        <time>2024-09-15T12:30:38.000Z</time>
      </trkpt>
      <trkpt lat="46.38848" lon="6.1178">
        <ele>839.859187</ele>
        <time>2024-09-15T12:30:39.000Z</time>
      </trkpt>
      <trkpt lat="46.38847" lon="6.11779">
        <ele>840.009354</ele>
        <time>2024-09-15T12:30:40.000Z</time>
      </trkpt>
      <trkpt lat="46.38846" lon="6.11779">
        <ele>840.15952</ele>
        <time>2024-09-15T12:30:41.000Z</time>
      </trkpt>
      <trkpt lat="46.38845" lon="6.11777">
        <ele>840.326821</ele>
        <time>2024-09-15T12:30:42.000Z</time>
      </trkpt>
      <trkpt lat="46.38844" lon="6.11776">
        <ele>840.484622</ele>
        <time>2024-09-15T12:30:43.000Z</time>
      </trkpt>
      <trkpt lat="46.38842" lon="6.11775">
        <ele>840.660729</ele>
        <time>2024-09-15T12:30:44.000Z</time>
      </trkpt>
      <trkpt lat="46.38841" lon="6.11774">
        <ele>840.828029</ele>
        <time>2024-09-15T12:30:45.000Z</time>
      </trkpt>
      <trkpt lat="46.3884" lon="6.11772">
        <ele>840.98254</ele>
        <time>2024-09-15T12:30:46.000Z</time>
      </trkpt>
      <trkpt lat="46.38839" lon="6.11771">
        <ele>841.167327</ele>
        <time>2024-09-15T12:30:47.000Z</time>
      </trkpt>
      <trkpt lat="46.38837" lon="6.1177">
        <ele>841.358079</ele>
        <time>2024-09-15T12:30:48.000Z</time>
      </trkpt>
      <trkpt lat="46.38836" lon="6.11769">
        <ele>841.531545</ele>
        <time>2024-09-15T12:30:49.000Z</time>
      </trkpt>
      <trkpt lat="46.38834" lon="6.11768">
        <ele>841.715048</ele>
        <time>2024-09-15T12:30:50.000Z</time>
      </trkpt>
      <trkpt lat="46.38833" lon="6.11767">
        <ele>841.865215</ele>
        <time>2024-09-15T12:30:51.000Z</time>
      </trkpt>
      <trkpt lat="46.38832" lon="6.11766">
        <ele>842.022183</ele>
        <time>2024-09-15T12:30:52.000Z</time>
      </trkpt>
      <trkpt lat="46.3883" lon="6.11765">
        <ele>842.185754</ele>
        <time>2024-09-15T12:30:53.000Z</time>
      </trkpt>
      <trkpt lat="46.38829" lon="6.11764">
        <ele>842.357047</ele>
        <time>2024-09-15T12:30:54.000Z</time>
      </trkpt>
      <trkpt lat="46.38828" lon="6.11763">
        <ele>842.524347</ele>
        <time>2024-09-15T12:30:55.000Z</time>
      </trkpt>
      <trkpt lat="46.38826" lon="6.11762">
        <ele>842.711183</ele>
        <time>2024-09-15T12:30:56.000Z</time>
      </trkpt>
      <trkpt lat="46.38825" lon="6.11761">
        <ele>842.882476</ele>
        <time>2024-09-15T12:30:57.000Z</time>
      </trkpt>
      <trkpt lat="46.38824" lon="6.1176">
        <ele>843.063244</ele>
        <time>2024-09-15T12:30:58.000Z</time>
      </trkpt>
      <trkpt lat="46.38822" lon="6.11759">
        <ele>843.233461</ele>
        <time>2024-09-15T12:30:59.000Z</time>
      </trkpt>
      <trkpt lat="46.38821" lon="6.11758">
        <ele>843.414228</ele>
        <time>2024-09-15T12:31:00.000Z</time>
      </trkpt>
      <trkpt lat="46.38819" lon="6.11756">
        <ele>843.603261</ele>
        <time>2024-09-15T12:31:01.000Z</time>
      </trkpt>
      <trkpt lat="46.38818" lon="6.11755">
        <ele>843.784028</ele>
        <time>2024-09-15T12:31:02.000Z</time>
      </trkpt>
      <trkpt lat="46.38817" lon="6.11754">
        <ele>843.941829</ele>
        <time>2024-09-15T12:31:03.000Z</time>
      </trkpt>
      <trkpt lat="46.38815" lon="6.11753">
        <ele>844.10913</ele>
        <time>2024-09-15T12:31:04.000Z</time>
      </trkpt>
      <trkpt lat="46.38814" lon="6.11751">
        <ele>844.285237</ele>
        <time>2024-09-15T12:31:05.000Z</time>
      </trkpt>
      <trkpt lat="46.38813" lon="6.1175">
        <ele>844.433763</ele>
        <time>2024-09-15T12:31:06.000Z</time>
      </trkpt>
      <trkpt lat="46.38812" lon="6.11749">
        <ele>844.610751</ele>
        <time>2024-09-15T12:31:07.000Z</time>
      </trkpt>
      <trkpt lat="46.3881" lon="6.11747">
        <ele>844.813728</ele>
        <time>2024-09-15T12:31:08.000Z</time>
      </trkpt>
      <trkpt lat="46.38809" lon="6.11746">
        <ele>845.016263</ele>
        <time>2024-09-15T12:31:09.000Z</time>
      </trkpt>
      <trkpt lat="46.38808" lon="6.11744">
        <ele>845.19237</ele>
        <time>2024-09-15T12:31:10.000Z</time>
      </trkpt>
      <trkpt lat="46.38806" lon="6.11743">
        <ele>845.3679</ele>
        <time>2024-09-15T12:31:11.000Z</time>
      </trkpt>
      <trkpt lat="46.38805" lon="6.11742">
        <ele>845.54343</ele>
        <time>2024-09-15T12:31:12.000Z</time>
      </trkpt>
      <trkpt lat="46.38804" lon="6.1174">
        <ele>845.723424</ele>
        <time>2024-09-15T12:31:13.000Z</time>
      </trkpt>
      <trkpt lat="46.38802" lon="6.11739">
        <ele>845.894718</ele>
        <time>2024-09-15T12:31:14.000Z</time>
      </trkpt>
      <trkpt lat="46.38801" lon="6.11738">
        <ele>846.070248</ele>
        <time>2024-09-15T12:31:15.000Z</time>
      </trkpt>
      <trkpt lat="46.388" lon="6.11737">
        <ele>846.247237</ele>
        <time>2024-09-15T12:31:16.000Z</time>
      </trkpt>
      <trkpt lat="46.38799" lon="6.11736">
        <ele>846.401077</ele>
        <time>2024-09-15T12:31:17.000Z</time>
      </trkpt>
      <trkpt lat="46.38797" lon="6.11735">
        <ele>846.568334</ele>
        <time>2024-09-15T12:31:18.000Z</time>
      </trkpt>
      <trkpt lat="46.38796" lon="6.11734">
        <ele>846.738551</ele>
        <time>2024-09-15T12:31:19.000Z</time>
      </trkpt>
      <trkpt lat="46.38794" lon="6.11733">
        <ele>846.914081</ele>
        <time>2024-09-15T12:31:20.000Z</time>
      </trkpt>
      <trkpt lat="46.38793" lon="6.11731">
        <ele>847.116616</ele>
        <time>2024-09-15T12:31:21.000Z</time>
      </trkpt>
      <trkpt lat="46.38792" lon="6.1173">
        <ele>847.301285</ele>
        <time>2024-09-15T12:31:22.000Z</time>
      </trkpt>
      <trkpt lat="46.3879" lon="6.11729">
        <ele>847.48812</ele>
        <time>2024-09-15T12:31:23.000Z</time>
      </trkpt>
      <trkpt lat="46.38789" lon="6.11727">
        <ele>847.668888</ele>
        <time>2024-09-15T12:31:24.000Z</time>
      </trkpt>
      <trkpt lat="46.38787" lon="6.11726">
        <ele>847.845877</ele>
        <time>2024-09-15T12:31:25.000Z</time>
      </trkpt>
      <trkpt lat="46.38786" lon="6.11725">
        <ele>848.013724</ele>
        <time>2024-09-15T12:31:26.000Z</time>
      </trkpt>
      <trkpt lat="46.38785" lon="6.11723">
        <ele>848.192426</ele>
        <time>2024-09-15T12:31:27.000Z</time>
      </trkpt>
      <trkpt lat="46.38784" lon="6.11722">
        <ele>848.381964</ele>
        <time>2024-09-15T12:31:28.000Z</time>
      </trkpt>
      <trkpt lat="46.38783" lon="6.1172">
        <ele>848.576551</ele>
        <time>2024-09-15T12:31:29.000Z</time>
      </trkpt>
      <trkpt lat="46.38781" lon="6.11718">
        <ele>848.757758</ele>
        <time>2024-09-15T12:31:30.000Z</time>
      </trkpt>
      <trkpt lat="46.3878" lon="6.11716">
        <ele>848.976216</ele>
        <time>2024-09-15T12:31:31.000Z</time>
      </trkpt>
      <trkpt lat="46.38779" lon="6.11714">
        <ele>849.184533</ele>
        <time>2024-09-15T12:31:32.000Z</time>
      </trkpt>
      <trkpt lat="46.38778" lon="6.11712">
        <ele>849.382037</ele>
        <time>2024-09-15T12:31:33.000Z</time>
      </trkpt>
      <trkpt lat="46.38776" lon="6.1171">
        <ele>849.58721</ele>
        <time>2024-09-15T12:31:34.000Z</time>
      </trkpt>
      <trkpt lat="46.38775" lon="6.11708">
        <ele>849.784714</ele>
        <time>2024-09-15T12:31:35.000Z</time>
      </trkpt>
      <trkpt lat="46.38774" lon="6.11706">
        <ele>849.982218</ele>
        <time>2024-09-15T12:31:36.000Z</time>
      </trkpt>
      <trkpt lat="46.38773" lon="6.11704">
        <ele>850.166139</ele>
        <time>2024-09-15T12:31:37.000Z</time>
      </trkpt>
      <trkpt lat="46.38772" lon="6.11702">
        <ele>850.377426</ele>
        <time>2024-09-15T12:31:38.000Z</time>
      </trkpt>
      <trkpt lat="46.38772" lon="6.11699">
        <ele>850.577198</ele>
        <time>2024-09-15T12:31:39.000Z</time>
      </trkpt>
      <trkpt lat="46.38771" lon="6.11697">
        <ele>850.786631</ele>
        <time>2024-09-15T12:31:40.000Z</time>
      </trkpt>
      <trkpt lat="46.3877" lon="6.11695">
        <ele>851.008192</ele>
        <time>2024-09-15T12:31:41.000Z</time>
      </trkpt>
      <trkpt lat="46.38769" lon="6.11693">
        <ele>851.205696</ele>
        <time>2024-09-15T12:31:42.000Z</time>
      </trkpt>
      <trkpt lat="46.38768" lon="6.1169">
        <ele>851.408426</ele>
        <time>2024-09-15T12:31:43.000Z</time>
      </trkpt>
      <trkpt lat="46.38767" lon="6.11688">
        <ele>851.597805</ele>
        <time>2024-09-15T12:31:44.000Z</time>
      </trkpt>
      <trkpt lat="46.38766" lon="6.11687">
        <ele>851.770996</ele>
        <time>2024-09-15T12:31:45.000Z</time>
      </trkpt>
      <trkpt lat="46.38764" lon="6.11685">
        <ele>851.938843</ele>
        <time>2024-09-15T12:31:46.000Z</time>
      </trkpt>
      <trkpt lat="46.38763" lon="6.11683">
        <ele>852.130762</ele>
        <time>2024-09-15T12:31:47.000Z</time>
      </trkpt>
      <trkpt lat="46.38762" lon="6.11682">
        <ele>852.29861</ele>
        <time>2024-09-15T12:31:48.000Z</time>
      </trkpt>
      <trkpt lat="46.38761" lon="6.1168">
        <ele>852.485093</ele>
        <time>2024-09-15T12:31:49.000Z</time>
      </trkpt>
      <trkpt lat="46.3876" lon="6.11679">
        <ele>852.674631</ele>
        <time>2024-09-15T12:31:50.000Z</time>
      </trkpt>
      <trkpt lat="46.38759" lon="6.11677">
        <ele>852.840162</ele>
        <time>2024-09-15T12:31:51.000Z</time>
      </trkpt>
      <trkpt lat="46.38758" lon="6.11675">
        <ele>853.011452</ele>
        <time>2024-09-15T12:31:52.000Z</time>
      </trkpt>
      <trkpt lat="46.38757" lon="6.11674">
        <ele>853.150832</ele>
        <time>2024-09-15T12:31:53.000Z</time>
      </trkpt>
      <trkpt lat="46.38756" lon="6.11673">
        <ele>853.313523</ele>
        <time>2024-09-15T12:31:54.000Z</time>
      </trkpt>
      <trkpt lat="46.38755" lon="6.11671">
        <ele>853.473456</ele>
        <time>2024-09-15T12:31:55.000Z</time>
      </trkpt>
      <trkpt lat="46.38753" lon="6.1167">
        <ele>853.650445</ele>
        <time>2024-09-15T12:31:56.000Z</time>
      </trkpt>
      <trkpt lat="46.38752" lon="6.11669">
        <ele>853.816946</ele>
        <time>2024-09-15T12:31:57.000Z</time>
      </trkpt>
      <trkpt lat="46.38751" lon="6.11667">
        <ele>853.975229</ele>
        <time>2024-09-15T12:31:58.000Z</time>
      </trkpt>
      <trkpt lat="46.3875" lon="6.11666">
        <ele>854.135162</ele>
        <time>2024-09-15T12:31:59.000Z</time>
      </trkpt>
      <trkpt lat="46.38749" lon="6.11664">
        <ele>854.29719</ele>
        <time>2024-09-15T12:32:00.000Z</time>
      </trkpt>
      <trkpt lat="46.38748" lon="6.11663">
        <ele>854.438399</ele>
        <time>2024-09-15T12:32:01.000Z</time>
      </trkpt>
      <trkpt lat="46.38747" lon="6.11662">
        <ele>854.592911</ele>
        <time>2024-09-15T12:32:02.000Z</time>
      </trkpt>
      <trkpt lat="46.38746" lon="6.1166">
        <ele>854.750687</ele>
        <time>2024-09-15T12:32:03.000Z</time>
      </trkpt>
      <trkpt lat="46.38746" lon="6.11657">
        <ele>854.957622</ele>
        <time>2024-09-15T12:32:04.000Z</time>
      </trkpt>
      <trkpt lat="46.38746" lon="6.11655">
        <ele>855.174455</ele>
        <time>2024-09-15T12:32:05.000Z</time>
      </trkpt>
      <trkpt lat="46.38745" lon="6.11652">
        <ele>855.35935</ele>
        <time>2024-09-15T12:32:06.000Z</time>
      </trkpt>
      <trkpt lat="46.38744" lon="6.11651">
        <ele>855.498701</ele>
        <time>2024-09-15T12:32:07.000Z</time>
      </trkpt>
      <trkpt lat="46.38743" lon="6.11648">
        <ele>855.683595</ele>
        <time>2024-09-15T12:32:08.000Z</time>
      </trkpt>
      <trkpt lat="46.38743" lon="6.11646">
        <ele>855.877477</ele>
        <time>2024-09-15T12:32:09.000Z</time>
      </trkpt>
      <trkpt lat="46.38743" lon="6.11644">
        <ele>856.037883</ele>
        <time>2024-09-15T12:32:10.000Z</time>
      </trkpt>
      <trkpt lat="46.38742" lon="6.11642">
        <ele>856.186111</ele>
        <time>2024-09-15T12:32:11.000Z</time>
      </trkpt>
      <trkpt lat="46.3874" lon="6.11641">
        <ele>856.359525</ele>
        <time>2024-09-15T12:32:12.000Z</time>
      </trkpt>
      <trkpt lat="46.3874" lon="6.11639">
        <ele>856.561168</ele>
        <time>2024-09-15T12:32:13.000Z</time>
      </trkpt>
      <trkpt lat="46.38739" lon="6.11636">
        <ele>856.735162</ele>
        <time>2024-09-15T12:32:14.000Z</time>
      </trkpt>
      <trkpt lat="46.38739" lon="6.11634">
        <ele>856.895394</ele>
        <time>2024-09-15T12:32:15.000Z</time>
      </trkpt>
      <trkpt lat="46.38738" lon="6.11632">
        <ele>857.096534</ele>
        <time>2024-09-15T12:32:16.000Z</time>
      </trkpt>
      <trkpt lat="46.38739" lon="6.11628">
        <ele>857.383245</ele>
        <time>2024-09-15T12:32:17.000Z</time>
      </trkpt>
      <trkpt lat="46.38739" lon="6.11624">
        <ele>857.648018</ele>
        <time>2024-09-15T12:32:18.000Z</time>
      </trkpt>
      <trkpt lat="46.38738" lon="6.11622">
        <ele>857.839665</ele>
        <time>2024-09-15T12:32:19.000Z</time>
      </trkpt>
      <trkpt lat="46.38737" lon="6.1162">
        <ele>857.998464</ele>
        <time>2024-09-15T12:32:20.000Z</time>
      </trkpt>
      <trkpt lat="46.38736" lon="6.11619">
        <ele>858.143805</ele>
        <time>2024-09-15T12:32:21.000Z</time>
      </trkpt>
      <trkpt lat="46.38736" lon="6.11616">
        <ele>858.342671</ele>
        <time>2024-09-15T12:32:22.000Z</time>
      </trkpt>
      <trkpt lat="46.38736" lon="6.11613">
        <ele>858.585614</ele>
        <time>2024-09-15T12:32:23.000Z</time>
      </trkpt>
      <trkpt lat="46.38736" lon="6.11611">
        <ele>858.728332</ele>
        <time>2024-09-15T12:32:24.000Z</time>
      </trkpt>
      <trkpt lat="46.38736" lon="6.11608">
        <ele>858.904848</ele>
        <time>2024-09-15T12:32:25.000Z</time>
      </trkpt>
      <trkpt lat="46.38736" lon="6.11606">
        <ele>859.081685</ele>
        <time>2024-09-15T12:32:26.000Z</time>
      </trkpt>
      <trkpt lat="46.38735" lon="6.11604">
        <ele>859.221138</ele>
        <time>2024-09-15T12:32:27.000Z</time>
      </trkpt>
      <trkpt lat="46.38734" lon="6.11602">
        <ele>859.384531</ele>
        <time>2024-09-15T12:32:28.000Z</time>
      </trkpt>
      <trkpt lat="46.38734" lon="6.11601">
        <ele>859.530147</ele>
        <time>2024-09-15T12:32:29.000Z</time>
      </trkpt>
      <trkpt lat="46.38732" lon="6.11599">
        <ele>859.709044</ele>
        <time>2024-09-15T12:32:30.000Z</time>
      </trkpt>
      <trkpt lat="46.38732" lon="6.11595">
        <ele>859.994228</ele>
        <time>2024-09-15T12:32:31.000Z</time>
      </trkpt>
      <trkpt lat="46.38731" lon="6.11593">
        <ele>860.150145</ele>
        <time>2024-09-15T12:32:32.000Z</time>
      </trkpt>
      <trkpt lat="46.38731" lon="6.1159">
        <ele>860.371047</ele>
        <time>2024-09-15T12:32:33.000Z</time>
      </trkpt>
      <trkpt lat="46.38731" lon="6.11587">
        <ele>860.584603</ele>
        <time>2024-09-15T12:32:34.000Z</time>
      </trkpt>
      <trkpt lat="46.3873" lon="6.11586">
        <ele>860.735961</ele>
        <time>2024-09-15T12:32:35.000Z</time>
      </trkpt>
      <trkpt lat="46.38729" lon="6.11584">
        <ele>860.887283</ele>
        <time>2024-09-15T12:32:36.000Z</time>
      </trkpt>
      <trkpt lat="46.38728" lon="6.11583">
        <ele>861.039128</ele>
        <time>2024-09-15T12:32:37.000Z</time>
      </trkpt>
      <trkpt lat="46.38727" lon="6.11581">
        <ele>861.208646</ele>
        <time>2024-09-15T12:32:38.000Z</time>
      </trkpt>
      <trkpt lat="46.38726" lon="6.11579">
        <ele>861.414929</ele>
        <time>2024-09-15T12:32:39.000Z</time>
      </trkpt>
      <trkpt lat="46.38725" lon="6.11577">
        <ele>861.554383</ele>
        <time>2024-09-15T12:32:40.000Z</time>
      </trkpt>
      <trkpt lat="46.38725" lon="6.11576">
        <ele>861.681556</ele>
        <time>2024-09-15T12:32:41.000Z</time>
      </trkpt>
      <trkpt lat="46.38724" lon="6.11574">
        <ele>861.817021</ele>
        <time>2024-09-15T12:32:42.000Z</time>
      </trkpt>
      <trkpt lat="46.38723" lon="6.11572">
        <ele>862.004702</ele>
        <time>2024-09-15T12:32:43.000Z</time>
      </trkpt>
      <trkpt lat="46.38722" lon="6.11569">
        <ele>862.229432</ele>
        <time>2024-09-15T12:32:44.000Z</time>
      </trkpt>
      <trkpt lat="46.38722" lon="6.11567">
        <ele>862.425356</ele>
        <time>2024-09-15T12:32:45.000Z</time>
      </trkpt>
      <trkpt lat="46.38722" lon="6.11564">
        <ele>862.606951</ele>
        <time>2024-09-15T12:32:46.000Z</time>
      </trkpt>
      <trkpt lat="46.38721" lon="6.11562">
        <ele>862.771889</ele>
        <time>2024-09-15T12:32:47.000Z</time>
      </trkpt>
      <trkpt lat="46.38721" lon="6.1156">
        <ele>862.903996</ele>
        <time>2024-09-15T12:32:48.000Z</time>
      </trkpt>
      <trkpt lat="46.3872" lon="6.11559">
        <ele>863.033186</ele>
        <time>2024-09-15T12:32:49.000Z</time>
      </trkpt>
      <trkpt lat="46.3872" lon="6.11556">
        <ele>863.207641</ele>
        <time>2024-09-15T12:32:50.000Z</time>
      </trkpt>
      <trkpt lat="46.38719" lon="6.11555">
        <ele>863.366067</ele>
        <time>2024-09-15T12:32:51.000Z</time>
      </trkpt>
      <trkpt lat="46.38719" lon="6.11553">
        <ele>863.484347</ele>
        <time>2024-09-15T12:32:52.000Z</time>
      </trkpt>
      <trkpt lat="46.38719" lon="6.1155">
        <ele>863.675869</ele>
        <time>2024-09-15T12:32:53.000Z</time>
      </trkpt>
      <trkpt lat="46.38719" lon="6.11548">
        <ele>863.860049</ele>
        <time>2024-09-15T12:32:54.000Z</time>
      </trkpt>
      <trkpt lat="46.38719" lon="6.11545">
        <ele>864.073606</ele>
        <time>2024-09-15T12:32:55.000Z</time>
      </trkpt>
      <trkpt lat="46.38718" lon="6.11544">
        <ele>864.158626</ele>
        <time>2024-09-15T12:32:56.000Z</time>
      </trkpt>
      <trkpt lat="46.38718" lon="6.11543">
        <ele>864.225481</ele>
        <time>2024-09-15T12:32:57.000Z</time>
      </trkpt>
      <trkpt lat="46.38717" lon="6.11542">
        <ele>864.373709</ele>
        <time>2024-09-15T12:32:58.000Z</time>
      </trkpt>
      <trkpt lat="46.38717" lon="6.11541">
        <ele>864.458702</ele>
        <time>2024-09-15T12:32:59.000Z</time>
      </trkpt>
      <trkpt lat="46.38715" lon="6.1154">
        <ele>864.605488</ele>
        <time>2024-09-15T12:33:00.000Z</time>
      </trkpt>
      <trkpt lat="46.38714" lon="6.11538">
        <ele>864.847497</ele>
        <time>2024-09-15T12:33:01.000Z</time>
      </trkpt>
      <trkpt lat="46.38712" lon="6.11536">
        <ele>865.063439</ele>
        <time>2024-09-15T12:33:02.000Z</time>
      </trkpt>
      <trkpt lat="46.3871" lon="6.11535">
        <ele>865.284418</ele>
        <time>2024-09-15T12:33:03.000Z</time>
      </trkpt>
      <trkpt lat="46.38708" lon="6.11534">
        <ele>865.472851</ele>
        <time>2024-09-15T12:33:04.000Z</time>
      </trkpt>
      <trkpt lat="46.38707" lon="6.11534">
        <ele>865.640872</ele>
        <time>2024-09-15T12:33:05.000Z</time>
      </trkpt>
      <trkpt lat="46.38706" lon="6.11533">
        <ele>865.783357</ele>
        <time>2024-09-15T12:33:06.000Z</time>
      </trkpt>
      <trkpt lat="46.38705" lon="6.11532">
        <ele>865.906275</ele>
        <time>2024-09-15T12:33:07.000Z</time>
      </trkpt>
      <trkpt lat="46.38704" lon="6.11533">
        <ele>866.035806</ele>
        <time>2024-09-15T12:33:08.000Z</time>
      </trkpt>
      <trkpt lat="46.38702" lon="6.11534">
        <ele>866.206224</ele>
        <time>2024-09-15T12:33:09.000Z</time>
      </trkpt>
      <trkpt lat="46.387" lon="6.11534">
        <ele>866.443666</ele>
        <time>2024-09-15T12:33:10.000Z</time>
      </trkpt>
      <trkpt lat="46.38698" lon="6.11535">
        <ele>866.677159</ele>
        <time>2024-09-15T12:33:11.000Z</time>
      </trkpt>
      <trkpt lat="46.38696" lon="6.11536">
        <ele>866.835063</ele>
        <time>2024-09-15T12:33:12.000Z</time>
      </trkpt>
      <trkpt lat="46.38695" lon="6.11536">
        <ele>867.008182</ele>
        <time>2024-09-15T12:33:13.000Z</time>
      </trkpt>
      <trkpt lat="46.38693" lon="6.11537">
        <ele>867.179416</ele>
        <time>2024-09-15T12:33:14.000Z</time>
      </trkpt>
      <trkpt lat="46.38692" lon="6.11537">
        <ele>867.35065</ele>
        <time>2024-09-15T12:33:15.000Z</time>
      </trkpt>
      <trkpt lat="46.3869" lon="6.11537">
        <ele>867.539084</ele>
        <time>2024-09-15T12:33:16.000Z</time>
      </trkpt>
      <trkpt lat="46.38687" lon="6.11538">
        <ele>867.82105</ele>
        <time>2024-09-15T12:33:17.000Z</time>
      </trkpt>
      <trkpt lat="46.38685" lon="6.11539">
        <ele>868.070228</ele>
        <time>2024-09-15T12:33:18.000Z</time>
      </trkpt>
      <trkpt lat="46.38683" lon="6.11539">
        <ele>868.317225</ele>
        <time>2024-09-15T12:33:19.000Z</time>
      </trkpt>
      <trkpt lat="46.38681" lon="6.1154">
        <ele>868.522761</ele>
        <time>2024-09-15T12:33:20.000Z</time>
      </trkpt>
      <trkpt lat="46.38679" lon="6.11541">
        <ele>868.7091</ele>
        <time>2024-09-15T12:33:21.000Z</time>
      </trkpt>
      <trkpt lat="46.38678" lon="6.11542">
        <ele>868.914637</ele>
        <time>2024-09-15T12:33:22.000Z</time>
      </trkpt>
      <trkpt lat="46.38675" lon="6.11543">
        <ele>869.162617</ele>
        <time>2024-09-15T12:33:23.000Z</time>
      </trkpt>
      <trkpt lat="46.38673" lon="6.11543">
        <ele>869.407856</ele>
        <time>2024-09-15T12:33:24.000Z</time>
      </trkpt>
      <trkpt lat="46.38671" lon="6.11543">
        <ele>869.633695</ele>
        <time>2024-09-15T12:33:25.000Z</time>
      </trkpt>
      <trkpt lat="46.38669" lon="6.11542">
        <ele>869.816687</ele>
        <time>2024-09-15T12:33:26.000Z</time>
      </trkpt>
      <trkpt lat="46.38667" lon="6.11541">
        <ele>870.036065</ele>
        <time>2024-09-15T12:33:27.000Z</time>
      </trkpt>
      <trkpt lat="46.38665" lon="6.1154">
        <ele>870.253835</ele>
        <time>2024-09-15T12:33:28.000Z</time>
      </trkpt>
      <trkpt lat="46.38664" lon="6.11539">
        <ele>870.469947</ele>
        <time>2024-09-15T12:33:29.000Z</time>
      </trkpt>
      <trkpt lat="46.38662" lon="6.11537">
        <ele>870.638339</ele>
        <time>2024-09-15T12:33:30.000Z</time>
      </trkpt>
      <trkpt lat="46.38662" lon="6.11536">
        <ele>870.802059</ele>
        <time>2024-09-15T12:33:31.000Z</time>
      </trkpt>
      <trkpt lat="46.3866" lon="6.11534">
        <ele>870.986174</ele>
        <time>2024-09-15T12:33:32.000Z</time>
      </trkpt>
      <trkpt lat="46.38659" lon="6.11532">
        <ele>871.165073</ele>
        <time>2024-09-15T12:33:33.000Z</time>
      </trkpt>
      <trkpt lat="46.38658" lon="6.11531">
        <ele>871.342344</ele>
        <time>2024-09-15T12:33:34.000Z</time>
      </trkpt>
      <trkpt lat="46.38656" lon="6.11529">
        <ele>871.529018</ele>
        <time>2024-09-15T12:33:35.000Z</time>
      </trkpt>
      <trkpt lat="46.38655" lon="6.11528">
        <ele>871.701692</ele>
        <time>2024-09-15T12:33:36.000Z</time>
      </trkpt>
      <trkpt lat="46.38654" lon="6.11526">
        <ele>871.87885</ele>
        <time>2024-09-15T12:33:37.000Z</time>
      </trkpt>
      <trkpt lat="46.38653" lon="6.11524">
        <ele>872.060687</ele>
        <time>2024-09-15T12:33:38.000Z</time>
      </trkpt>
      <trkpt lat="46.38652" lon="6.11522">
        <ele>872.250159</ele>
        <time>2024-09-15T12:33:39.000Z</time>
      </trkpt>
      <trkpt lat="46.38651" lon="6.1152">
        <ele>872.444099</ele>
        <time>2024-09-15T12:33:40.000Z</time>
      </trkpt>
      <trkpt lat="46.38649" lon="6.11518">
        <ele>872.633571</ele>
        <time>2024-09-15T12:33:41.000Z</time>
      </trkpt>
      <trkpt lat="46.38649" lon="6.11516">
        <ele>872.810013</ele>
        <time>2024-09-15T12:33:42.000Z</time>
      </trkpt>
      <trkpt lat="46.38647" lon="6.11514">
        <ele>872.999486</ele>
        <time>2024-09-15T12:33:43.000Z</time>
      </trkpt>
      <trkpt lat="46.38646" lon="6.11513">
        <ele>873.189569</ele>
        <time>2024-09-15T12:33:44.000Z</time>
      </trkpt>
      <trkpt lat="46.38645" lon="6.11511">
        <ele>873.345643</ele>
        <time>2024-09-15T12:33:45.000Z</time>
      </trkpt>
      <trkpt lat="46.38644" lon="6.1151">
        <ele>873.499072</ele>
        <time>2024-09-15T12:33:46.000Z</time>
      </trkpt>
      <trkpt lat="46.38643" lon="6.11508">
        <ele>873.68075</ele>
        <time>2024-09-15T12:33:47.000Z</time>
      </trkpt>
      <trkpt lat="46.38642" lon="6.11506">
        <ele>873.826971</ele>
        <time>2024-09-15T12:33:48.000Z</time>
      </trkpt>
      <trkpt lat="46.38641" lon="6.11504">
        <ele>873.996958</ele>
        <time>2024-09-15T12:33:49.000Z</time>
      </trkpt>
      <trkpt lat="46.3864" lon="6.11503">
        <ele>874.168394</ele>
        <time>2024-09-15T12:33:50.000Z</time>
      </trkpt>
      <trkpt lat="46.38639" lon="6.11501">
        <ele>874.311611</ele>
        <time>2024-09-15T12:33:51.000Z</time>
      </trkpt>
      <trkpt lat="46.38638" lon="6.115">
        <ele>874.469601</ele>
        <time>2024-09-15T12:33:52.000Z</time>
      </trkpt>
      <trkpt lat="46.38637" lon="6.11498">
        <ele>874.642334</ele>
        <time>2024-09-15T12:33:53.000Z</time>
      </trkpt>
      <trkpt lat="46.38635" lon="6.11497">
        <ele>874.835398</ele>
        <time>2024-09-15T12:33:54.000Z</time>
      </trkpt>
      <trkpt lat="46.38634" lon="6.11496">
        <ele>875.019997</ele>
        <time>2024-09-15T12:33:55.000Z</time>
      </trkpt>
      <trkpt lat="46.38632" lon="6.11495">
        <ele>875.188708</ele>
        <time>2024-09-15T12:33:56.000Z</time>
      </trkpt>
      <trkpt lat="46.38631" lon="6.11493">
        <ele>875.360285</ele>
        <time>2024-09-15T12:33:57.000Z</time>
      </trkpt>
      <trkpt lat="46.3863" lon="6.11492">
        <ele>875.506139</ele>
        <time>2024-09-15T12:33:58.000Z</time>
      </trkpt>
      <trkpt lat="46.38629" lon="6.11491">
        <ele>875.677716</ele>
        <time>2024-09-15T12:33:59.000Z</time>
      </trkpt>
      <trkpt lat="46.38627" lon="6.11489">
        <ele>875.828077</ele>
        <time>2024-09-15T12:34:00.000Z</time>
      </trkpt>
      <trkpt lat="46.38626" lon="6.11488">
        <ele>876.004109</ele>
        <time>2024-09-15T12:34:01.000Z</time>
      </trkpt>
      <trkpt lat="46.38625" lon="6.11485">
        <ele>876.215312</ele>
        <time>2024-09-15T12:34:02.000Z</time>
      </trkpt>
      <trkpt lat="46.38624" lon="6.11484">
        <ele>876.421246</ele>
        <time>2024-09-15T12:34:03.000Z</time>
      </trkpt>
      <trkpt lat="46.38622" lon="6.11482">
        <ele>876.588567</ele>
        <time>2024-09-15T12:34:04.000Z</time>
      </trkpt>
      <trkpt lat="46.38621" lon="6.11481">
        <ele>876.758914</ele>
        <time>2024-09-15T12:34:05.000Z</time>
      </trkpt>
      <trkpt lat="46.3862" lon="6.11479">
        <ele>876.936676</ele>
        <time>2024-09-15T12:34:06.000Z</time>
      </trkpt>
      <trkpt lat="46.38619" lon="6.11477">
        <ele>877.096675</ele>
        <time>2024-09-15T12:34:07.000Z</time>
      </trkpt>
      <trkpt lat="46.38618" lon="6.11476">
        <ele>877.265583</ele>
        <time>2024-09-15T12:34:08.000Z</time>
      </trkpt>
      <trkpt lat="46.38617" lon="6.11475">
        <ele>877.398577</ele>
        <time>2024-09-15T12:34:09.000Z</time>
      </trkpt>
      <trkpt lat="46.38616" lon="6.11473">
        <ele>877.558576</ele>
        <time>2024-09-15T12:34:10.000Z</time>
      </trkpt>
      <trkpt lat="46.38614" lon="6.11472">
        <ele>877.730153</ele>
        <time>2024-09-15T12:34:11.000Z</time>
      </trkpt>
      <trkpt lat="46.38613" lon="6.1147">
        <ele>877.895245</ele>
        <time>2024-09-15T12:34:12.000Z</time>
      </trkpt>
      <trkpt lat="46.38612" lon="6.11468">
        <ele>878.053036</ele>
        <time>2024-09-15T12:34:13.000Z</time>
      </trkpt>
      <trkpt lat="46.38611" lon="6.11467">
        <ele>878.210827</ele>
        <time>2024-09-15T12:34:14.000Z</time>
      </trkpt>
      <trkpt lat="46.3861" lon="6.11465">
        <ele>878.393772</ele>
        <time>2024-09-15T12:34:15.000Z</time>
      </trkpt>
      <trkpt lat="46.38609" lon="6.11463">
        <ele>878.576717</ele>
        <time>2024-09-15T12:34:16.000Z</time>
      </trkpt>
      <trkpt lat="46.38608" lon="6.11462">
        <ele>878.736716</ele>
        <time>2024-09-15T12:34:17.000Z</time>
      </trkpt>
      <trkpt lat="46.38607" lon="6.1146">
        <ele>878.907062</ele>
        <time>2024-09-15T12:34:18.000Z</time>
      </trkpt>
      <trkpt lat="46.38606" lon="6.11458">
        <ele>879.063676</ele>
        <time>2024-09-15T12:34:19.000Z</time>
      </trkpt>
      <trkpt lat="46.38605" lon="6.11456">
        <ele>879.268589</ele>
        <time>2024-09-15T12:34:20.000Z</time>
      </trkpt>
      <trkpt lat="46.38604" lon="6.11454">
        <ele>879.455519</ele>
        <time>2024-09-15T12:34:21.000Z</time>
      </trkpt>
      <trkpt lat="46.38603" lon="6.11451">
        <ele>879.669797</ele>
        <time>2024-09-15T12:34:22.000Z</time>
      </trkpt>
      <trkpt lat="46.38603" lon="6.11449">
        <ele>879.835914</ele>
        <time>2024-09-15T12:34:23.000Z</time>
      </trkpt>
      <trkpt lat="46.38602" lon="6.11446">
        <ele>880.037737</ele>
        <time>2024-09-15T12:34:24.000Z</time>
      </trkpt>
      <trkpt lat="46.38602" lon="6.11444">
        <ele>880.200095</ele>
        <time>2024-09-15T12:34:25.000Z</time>
      </trkpt>
      <trkpt lat="46.38602" lon="6.11441">
        <ele>880.39275</ele>
        <time>2024-09-15T12:34:26.000Z</time>
      </trkpt>
      <trkpt lat="46.38601" lon="6.11439">
        <ele>880.591207</ele>
        <time>2024-09-15T12:34:27.000Z</time>
      </trkpt>
      <trkpt lat="46.38601" lon="6.11436">
        <ele>880.788814</ele>
        <time>2024-09-15T12:34:28.000Z</time>
      </trkpt>
      <trkpt lat="46.38601" lon="6.11434">
        <ele>880.979046</ele>
        <time>2024-09-15T12:34:29.000Z</time>
      </trkpt>
      <trkpt lat="46.386" lon="6.11431">
        <ele>881.1573</ele>
        <time>2024-09-15T12:34:30.000Z</time>
      </trkpt>
      <trkpt lat="46.386" lon="6.11429">
        <ele>881.351984</ele>
        <time>2024-09-15T12:34:31.000Z</time>
      </trkpt>
      <trkpt lat="46.386" lon="6.11426">
        <ele>881.539541</ele>
        <time>2024-09-15T12:34:32.000Z</time>
      </trkpt>
      <trkpt lat="46.38599" lon="6.11424">
        <ele>881.73299</ele>
        <time>2024-09-15T12:34:33.000Z</time>
      </trkpt>
      <trkpt lat="46.38599" lon="6.11421">
        <ele>881.927673</ele>
        <time>2024-09-15T12:34:34.000Z</time>
      </trkpt>
      <trkpt lat="46.38598" lon="6.11418">
        <ele>882.122356</ele>
        <time>2024-09-15T12:34:35.000Z</time>
      </trkpt>
      <trkpt lat="46.38598" lon="6.11416">
        <ele>882.302802</ele>
        <time>2024-09-15T12:34:36.000Z</time>
      </trkpt>
      <trkpt lat="46.38598" lon="6.11413">
        <ele>882.523071</ele>
        <time>2024-09-15T12:34:37.000Z</time>
      </trkpt>
      <trkpt lat="46.38598" lon="6.1141">
        <ele>882.737381</ele>
        <time>2024-09-15T12:34:38.000Z</time>
      </trkpt>
      <trkpt lat="46.38598" lon="6.11407">
        <ele>882.928573</ele>
        <time>2024-09-15T12:34:39.000Z</time>
      </trkpt>
      <trkpt lat="46.38597" lon="6.11404">
        <ele>883.163396</ele>
        <time>2024-09-15T12:34:40.000Z</time>
      </trkpt>
      <trkpt lat="46.38597" lon="6.11402">
        <ele>883.353705</ele>
        <time>2024-09-15T12:34:41.000Z</time>
      </trkpt>
      <trkpt lat="46.38597" lon="6.11399">
        <ele>883.524774</ele>
        <time>2024-09-15T12:34:42.000Z</time>
      </trkpt>
      <trkpt lat="46.38597" lon="6.11397">
        <ele>883.686946</ele>
        <time>2024-09-15T12:34:43.000Z</time>
      </trkpt>
      <trkpt lat="46.38597" lon="6.11395">
        <ele>883.879601</ele>
        <time>2024-09-15T12:34:44.000Z</time>
      </trkpt>
      <trkpt lat="46.38597" lon="6.11392">
        <ele>884.036331</ele>
        <time>2024-09-15T12:34:45.000Z</time>
      </trkpt>
      <trkpt lat="46.38597" lon="6.1139">
        <ele>884.193061</ele>
        <time>2024-09-15T12:34:46.000Z</time>
      </trkpt>
      <trkpt lat="46.38596" lon="6.11388">
        <ele>884.352452</ele>
        <time>2024-09-15T12:34:47.000Z</time>
      </trkpt>
      <trkpt lat="46.38596" lon="6.11386">
        <ele>884.502033</ele>
        <time>2024-09-15T12:34:48.000Z</time>
      </trkpt>
      <trkpt lat="46.38596" lon="6.11384">
        <ele>884.687483</ele>
        <time>2024-09-15T12:34:49.000Z</time>
      </trkpt>
      <trkpt lat="46.38595" lon="6.11382">
        <ele>884.836102</ele>
        <time>2024-09-15T12:34:50.000Z</time>
      </trkpt>
      <trkpt lat="46.38594" lon="6.1138">
        <ele>885.010762</ele>
        <time>2024-09-15T12:34:51.000Z</time>
      </trkpt>
      <trkpt lat="46.38593" lon="6.11378">
        <ele>885.167252</ele>
        <time>2024-09-15T12:34:52.000Z</time>
      </trkpt>
      <trkpt lat="46.38593" lon="6.11376">
        <ele>885.326469</ele>
        <time>2024-09-15T12:34:53.000Z</time>
      </trkpt>
      <trkpt lat="46.38592" lon="6.11374">
        <ele>885.510194</ele>
        <time>2024-09-15T12:34:54.000Z</time>
      </trkpt>
      <trkpt lat="46.38592" lon="6.11371">
        <ele>885.700627</ele>
        <time>2024-09-15T12:34:55.000Z</time>
      </trkpt>
      <trkpt lat="46.38591" lon="6.11369">
        <ele>885.887189</ele>
        <time>2024-09-15T12:34:56.000Z</time>
      </trkpt>
      <trkpt lat="46.3859" lon="6.11367">
        <ele>886.044611</ele>
        <time>2024-09-15T12:34:57.000Z</time>
      </trkpt>
      <trkpt lat="46.3859" lon="6.11365">
        <ele>886.190714</ele>
        <time>2024-09-15T12:34:58.000Z</time>
      </trkpt>
      <trkpt lat="46.38589" lon="6.11364">
        <ele>886.304853</ele>
        <time>2024-09-15T12:34:59.000Z</time>
      </trkpt>
      <trkpt lat="46.38589" lon="6.11362">
        <ele>886.422383</ele>
        <time>2024-09-15T12:35:00.000Z</time>
      </trkpt>
      <trkpt lat="46.38588" lon="6.11361">
        <ele>886.564198</ele>
        <time>2024-09-15T12:35:01.000Z</time>
      </trkpt>
      <trkpt lat="46.38588" lon="6.11359">
        <ele>886.710301</ele>
        <time>2024-09-15T12:35:02.000Z</time>
      </trkpt>
      <trkpt lat="46.38587" lon="6.11357">
        <ele>886.852115</ele>
        <time>2024-09-15T12:35:03.000Z</time>
      </trkpt>
      <trkpt lat="46.38587" lon="6.11354">
        <ele>887.039673</ele>
        <time>2024-09-15T12:35:04.000Z</time>
      </trkpt>
      <trkpt lat="46.38587" lon="6.11352">
        <ele>887.255808</ele>
        <time>2024-09-15T12:35:05.000Z</time>
      </trkpt>
      <trkpt lat="46.38586" lon="6.1135">
        <ele>887.419713</ele>
        <time>2024-09-15T12:35:06.000Z</time>
      </trkpt>
      <trkpt lat="46.38585" lon="6.11347">
        <ele>887.590166</ele>
        <time>2024-09-15T12:35:07.000Z</time>
      </trkpt>
      <trkpt lat="46.38584" lon="6.11345">
        <ele>887.759129</ele>
        <time>2024-09-15T12:35:08.000Z</time>
      </trkpt>
      <trkpt lat="46.38584" lon="6.11343">
        <ele>887.942853</ele>
        <time>2024-09-15T12:35:09.000Z</time>
      </trkpt>
      <trkpt lat="46.38583" lon="6.11341">
        <ele>888.129345</ele>
        <time>2024-09-15T12:35:10.000Z</time>
      </trkpt>
      <trkpt lat="46.38582" lon="6.11339">
        <ele>888.305093</ele>
        <time>2024-09-15T12:35:11.000Z</time>
      </trkpt>
      <trkpt lat="46.3858" lon="6.11338">
        <ele>888.47544</ele>
        <time>2024-09-15T12:35:12.000Z</time>
      </trkpt>
      <trkpt lat="46.3858" lon="6.11336">
        <ele>888.613908</ele>
        <time>2024-09-15T12:35:13.000Z</time>
      </trkpt>
      <trkpt lat="46.38579" lon="6.11335">
        <ele>888.772623</ele>
        <time>2024-09-15T12:35:14.000Z</time>
      </trkpt>
      <trkpt lat="46.38577" lon="6.11333">
        <ele>888.952816</ele>
        <time>2024-09-15T12:35:15.000Z</time>
      </trkpt>
      <trkpt lat="46.38576" lon="6.11332">
        <ele>889.107267</ele>
        <time>2024-09-15T12:35:16.000Z</time>
      </trkpt>
      <trkpt lat="46.38575" lon="6.1133">
        <ele>889.272359</ele>
        <time>2024-09-15T12:35:17.000Z</time>
      </trkpt>
      <trkpt lat="46.38574" lon="6.11328">
        <ele>889.458851</ele>
        <time>2024-09-15T12:35:18.000Z</time>
      </trkpt>
      <trkpt lat="46.38573" lon="6.11326">
        <ele>889.633512</ele>
        <time>2024-09-15T12:35:19.000Z</time>
      </trkpt>
      <trkpt lat="46.38572" lon="6.11325">
        <ele>889.801957</ele>
        <time>2024-09-15T12:35:20.000Z</time>
      </trkpt>
      <trkpt lat="46.38571" lon="6.11323">
        <ele>889.97972</ele>
        <time>2024-09-15T12:35:21.000Z</time>
      </trkpt>
      <trkpt lat="46.3857" lon="6.11321">
        <ele>890.136211</ele>
        <time>2024-09-15T12:35:22.000Z</time>
      </trkpt>
      <trkpt lat="46.38569" lon="6.11319">
        <ele>890.302329</ele>
        <time>2024-09-15T12:35:23.000Z</time>
      </trkpt>
      <trkpt lat="46.38569" lon="6.11316">
        <ele>890.489887</ele>
        <time>2024-09-15T12:35:24.000Z</time>
      </trkpt>
      <trkpt lat="46.38568" lon="6.11314">
        <ele>890.65885</ele>
        <time>2024-09-15T12:35:25.000Z</time>
      </trkpt>
      <trkpt lat="46.38568" lon="6.11312">
        <ele>890.860674</ele>
        <time>2024-09-15T12:35:26.000Z</time>
      </trkpt>
      <trkpt lat="46.38567" lon="6.1131">
        <ele>891.035192</ele>
        <time>2024-09-15T12:35:27.000Z</time>
      </trkpt>
      <trkpt lat="46.38566" lon="6.11308">
        <ele>891.215876</ele>
        <time>2024-09-15T12:35:28.000Z</time>
      </trkpt>
      <trkpt lat="46.38565" lon="6.11305">
        <ele>891.397631</ele>
        <time>2024-09-15T12:35:29.000Z</time>
      </trkpt>
      <trkpt lat="46.38565" lon="6.11303">
        <ele>891.591082</ele>
        <time>2024-09-15T12:35:30.000Z</time>
      </trkpt>
      <trkpt lat="46.38564" lon="6.113">
        <ele>891.791449</ele>
        <time>2024-09-15T12:35:31.000Z</time>
      </trkpt>
      <trkpt lat="46.38563" lon="6.11298">
        <ele>891.948871</ele>
        <time>2024-09-15T12:35:32.000Z</time>
      </trkpt>
      <trkpt lat="46.38562" lon="6.11296">
        <ele>892.117834</ele>
        <time>2024-09-15T12:35:33.000Z</time>
      </trkpt>
      <trkpt lat="46.38562" lon="6.11294">
        <ele>892.280194</ele>
        <time>2024-09-15T12:35:34.000Z</time>
      </trkpt>
      <trkpt lat="46.38561" lon="6.11292">
        <ele>892.437616</ele>
        <time>2024-09-15T12:35:35.000Z</time>
      </trkpt>
      <trkpt lat="46.3856" lon="6.1129">
        <ele>892.606579</ele>
        <time>2024-09-15T12:35:36.000Z</time>
      </trkpt>
      <trkpt lat="46.3856" lon="6.11289">
        <ele>892.751</ele>
        <time>2024-09-15T12:35:37.000Z</time>
      </trkpt>
      <trkpt lat="46.38559" lon="6.11287">
        <ele>892.910391</ele>
        <time>2024-09-15T12:35:38.000Z</time>
      </trkpt>
      <trkpt lat="46.38559" lon="6.11284">
        <ele>893.107653</ele>
        <time>2024-09-15T12:35:39.000Z</time>
      </trkpt>
      <trkpt lat="46.38558" lon="6.11282">
        <ele>893.295905</ele>
        <time>2024-09-15T12:35:40.000Z</time>
      </trkpt>
      <trkpt lat="46.38557" lon="6.1128">
        <ele>893.472603</ele>
        <time>2024-09-15T12:35:41.000Z</time>
      </trkpt>
      <trkpt lat="46.38556" lon="6.11278">
        <ele>893.664879</ele>
        <time>2024-09-15T12:35:42.000Z</time>
      </trkpt>
      <trkpt lat="46.38555" lon="6.11275">
        <ele>893.845571</ele>
        <time>2024-09-15T12:35:43.000Z</time>
      </trkpt>
      <trkpt lat="46.38555" lon="6.11274">
        <ele>894.013019</ele>
        <time>2024-09-15T12:35:44.000Z</time>
      </trkpt>
      <trkpt lat="46.38553" lon="6.11272">
        <ele>894.172851</ele>
        <time>2024-09-15T12:35:45.000Z</time>
      </trkpt>
      <trkpt lat="46.38552" lon="6.11271">
        <ele>894.341044</ele>
        <time>2024-09-15T12:35:46.000Z</time>
      </trkpt>
      <trkpt lat="46.38551" lon="6.11269">
        <ele>894.505942</ele>
        <time>2024-09-15T12:35:47.000Z</time>
      </trkpt>
      <trkpt lat="46.3855" lon="6.11268">
        <ele>894.682774</ele>
        <time>2024-09-15T12:35:48.000Z</time>
      </trkpt>
      <trkpt lat="46.38548" lon="6.11266">
        <ele>894.881749</ele>
        <time>2024-09-15T12:35:49.000Z</time>
      </trkpt>
      <trkpt lat="46.38547" lon="6.11265">
        <ele>895.099251</ele>
        <time>2024-09-15T12:35:50.000Z</time>
      </trkpt>
      <trkpt lat="46.38546" lon="6.11263">
        <ele>895.280675</ele>
        <time>2024-09-15T12:35:51.000Z</time>
      </trkpt>
      <trkpt lat="46.38544" lon="6.11262">
        <ele>895.421916</ele>
        <time>2024-09-15T12:35:52.000Z</time>
      </trkpt>
      <trkpt lat="46.38543" lon="6.11262">
        <ele>895.591824</ele>
        <time>2024-09-15T12:35:53.000Z</time>
      </trkpt>
      <trkpt lat="46.38542" lon="6.11261">
        <ele>895.746852</ele>
        <time>2024-09-15T12:35:54.000Z</time>
      </trkpt>
      <trkpt lat="46.38541" lon="6.1126">
        <ele>895.884773</ele>
        <time>2024-09-15T12:35:55.000Z</time>
      </trkpt>
      <trkpt lat="46.38539" lon="6.11258">
        <ele>896.048348</ele>
        <time>2024-09-15T12:35:56.000Z</time>
      </trkpt>
      <trkpt lat="46.38538" lon="6.11257">
        <ele>896.225939</ele>
        <time>2024-09-15T12:35:57.000Z</time>
      </trkpt>
      <trkpt lat="46.38536" lon="6.11256">
        <ele>896.410746</ele>
        <time>2024-09-15T12:35:58.000Z</time>
      </trkpt>
      <trkpt lat="46.38535" lon="6.11255">
        <ele>896.594298</ele>
        <time>2024-09-15T12:35:59.000Z</time>
      </trkpt>
      <trkpt lat="46.38534" lon="6.11254">
        <ele>896.759196</ele>
        <time>2024-09-15T12:36:00.000Z</time>
      </trkpt>
      <trkpt lat="46.38533" lon="6.11253">
        <ele>896.922772</ele>
        <time>2024-09-15T12:36:01.000Z</time>
      </trkpt>
      <trkpt lat="46.38531" lon="6.11251">
        <ele>897.087671</ele>
        <time>2024-09-15T12:36:02.000Z</time>
      </trkpt>
      <trkpt lat="46.3853" lon="6.1125">
        <ele>897.271222</ele>
        <time>2024-09-15T12:36:03.000Z</time>
      </trkpt>
      <trkpt lat="46.38528" lon="6.11249">
        <ele>897.458621</ele>
        <time>2024-09-15T12:36:04.000Z</time>
      </trkpt>
      <trkpt lat="46.38527" lon="6.11248">
        <ele>897.636211</ele>
        <time>2024-09-15T12:36:05.000Z</time>
      </trkpt>
      <trkpt lat="46.38526" lon="6.11246">
        <ele>897.822419</ele>
        <time>2024-09-15T12:36:06.000Z</time>
      </trkpt>
      <trkpt lat="46.38524" lon="6.11244">
        <ele>898.039631</ele>
        <time>2024-09-15T12:36:07.000Z</time>
      </trkpt>
      <trkpt lat="46.38523" lon="6.11243">
        <ele>898.191429</ele>
        <time>2024-09-15T12:36:08.000Z</time>
      </trkpt>
      <trkpt lat="46.38523" lon="6.11241">
        <ele>898.334242</ele>
        <time>2024-09-15T12:36:09.000Z</time>
      </trkpt>
      <trkpt lat="46.38522" lon="6.1124">
        <ele>898.47131</ele>
        <time>2024-09-15T12:36:10.000Z</time>
      </trkpt>
      <trkpt lat="46.38521" lon="6.11239">
        <ele>898.60253</ele>
        <time>2024-09-15T12:36:11.000Z</time>
      </trkpt>
      <trkpt lat="46.3852" lon="6.11237">
        <ele>898.71464</ele>
        <time>2024-09-15T12:36:12.000Z</time>
      </trkpt>
      <trkpt lat="46.38519" lon="6.11235">
        <ele>898.908675</ele>
        <time>2024-09-15T12:36:13.000Z</time>
      </trkpt>
      <trkpt lat="46.38518" lon="6.11232">
        <ele>899.175526</ele>
        <time>2024-09-15T12:36:14.000Z</time>
      </trkpt>
      <trkpt lat="46.38517" lon="6.11231">
        <ele>899.353551</ele>
        <time>2024-09-15T12:36:15.000Z</time>
      </trkpt>
      <trkpt lat="46.38516" lon="6.11229">
        <ele>899.497694</ele>
        <time>2024-09-15T12:36:16.000Z</time>
      </trkpt>
      <trkpt lat="46.38515" lon="6.11227">
        <ele>899.685016</ele>
        <time>2024-09-15T12:36:17.000Z</time>
      </trkpt>
      <trkpt lat="46.38514" lon="6.11224">
        <ele>899.927721</ele>
        <time>2024-09-15T12:36:18.000Z</time>
      </trkpt>
      <trkpt lat="46.38513" lon="6.11222">
        <ele>900.151689</ele>
        <time>2024-09-15T12:36:19.000Z</time>
      </trkpt>
      <trkpt lat="46.38511" lon="6.1122">
        <ele>900.362943</ele>
        <time>2024-09-15T12:36:20.000Z</time>
      </trkpt>
      <trkpt lat="46.38511" lon="6.11218">
        <ele>900.563714</ele>
        <time>2024-09-15T12:36:21.000Z</time>
      </trkpt>
      <trkpt lat="46.3851" lon="6.11215">
        <ele>900.7462</ele>
        <time>2024-09-15T12:36:22.000Z</time>
      </trkpt>
      <trkpt lat="46.38509" lon="6.11213">
        <ele>900.920338</ele>
        <time>2024-09-15T12:36:23.000Z</time>
      </trkpt>
      <trkpt lat="46.38508" lon="6.11211">
        <ele>901.101032</ele>
        <time>2024-09-15T12:36:24.000Z</time>
      </trkpt>
      <trkpt lat="46.38508" lon="6.11209">
        <ele>901.314692</ele>
        <time>2024-09-15T12:36:25.000Z</time>
      </trkpt>
      <trkpt lat="46.38507" lon="6.11207">
        <ele>901.494556</ele>
        <time>2024-09-15T12:36:26.000Z</time>
      </trkpt>
      <trkpt lat="46.38506" lon="6.11205">
        <ele>901.6568</ele>
        <time>2024-09-15T12:36:27.000Z</time>
      </trkpt>
      <trkpt lat="46.38506" lon="6.11202">
        <ele>901.855357</ele>
        <time>2024-09-15T12:36:28.000Z</time>
      </trkpt>
      <trkpt lat="46.38506" lon="6.112">
        <ele>902.043977</ele>
        <time>2024-09-15T12:36:29.000Z</time>
      </trkpt>
      <trkpt lat="46.38506" lon="6.11197">
        <ele>902.217561</ele>
        <time>2024-09-15T12:36:30.000Z</time>
      </trkpt>
      <trkpt lat="46.38506" lon="6.11195">
        <ele>902.405865</ele>
        <time>2024-09-15T12:36:31.000Z</time>
      </trkpt>
      <trkpt lat="46.38506" lon="6.11192">
        <ele>902.579105</ele>
        <time>2024-09-15T12:36:32.000Z</time>
      </trkpt>
      <trkpt lat="46.38505" lon="6.1119">
        <ele>902.752689</ele>
        <time>2024-09-15T12:36:33.000Z</time>
      </trkpt>
      <trkpt lat="46.38505" lon="6.11187">
        <ele>902.958678</ele>
        <time>2024-09-15T12:36:34.000Z</time>
      </trkpt>
      <trkpt lat="46.38505" lon="6.11185">
        <ele>903.146983</ele>
        <time>2024-09-15T12:36:35.000Z</time>
      </trkpt>
      <trkpt lat="46.38505" lon="6.11183">
        <ele>903.320566</ele>
        <time>2024-09-15T12:36:36.000Z</time>
      </trkpt>
      <trkpt lat="46.38505" lon="6.1118">
        <ele>903.495036</ele>
        <time>2024-09-15T12:36:37.000Z</time>
      </trkpt>
      <trkpt lat="46.38504" lon="6.11178">
        <ele>903.663951</ele>
        <time>2024-09-15T12:36:38.000Z</time>
      </trkpt>
      <trkpt lat="46.38504" lon="6.11176">
        <ele>903.829658</ele>
        <time>2024-09-15T12:36:39.000Z</time>
      </trkpt>
      <trkpt lat="46.38504" lon="6.11174">
        <ele>903.996799</ele>
        <time>2024-09-15T12:36:40.000Z</time>
      </trkpt>
      <trkpt lat="46.38505" lon="6.11172">
        <ele>904.14997</ele>
        <time>2024-09-15T12:36:41.000Z</time>
      </trkpt>
      <trkpt lat="46.38505" lon="6.1117">
        <ele>904.301009</ele>
        <time>2024-09-15T12:36:42.000Z</time>
      </trkpt>
      <trkpt lat="46.38505" lon="6.11168">
        <ele>904.474592</ele>
        <time>2024-09-15T12:36:43.000Z</time>
      </trkpt>
      <trkpt lat="46.38505" lon="6.11165">
        <ele>904.648176</ele>
        <time>2024-09-15T12:36:44.000Z</time>
      </trkpt>
      <trkpt lat="46.38505" lon="6.11163">
        <ele>904.831892</ele>
        <time>2024-09-15T12:36:45.000Z</time>
      </trkpt>
      <trkpt lat="46.38504" lon="6.11161">
        <ele>904.98152</ele>
        <time>2024-09-15T12:36:46.000Z</time>
      </trkpt>
      <trkpt lat="46.38504" lon="6.11159">
        <ele>905.121</ele>
        <time>2024-09-15T12:36:47.000Z</time>
      </trkpt>
      <trkpt lat="46.38504" lon="6.11157">
        <ele>905.294584</ele>
        <time>2024-09-15T12:36:48.000Z</time>
      </trkpt>
      <trkpt lat="46.38504" lon="6.11155">
        <ele>905.4783</ele>
        <time>2024-09-15T12:36:49.000Z</time>
      </trkpt>
      <trkpt lat="46.38505" lon="6.11152">
        <ele>905.637976</ele>
        <time>2024-09-15T12:36:50.000Z</time>
      </trkpt>
      <trkpt lat="46.38505" lon="6.1115">
        <ele>905.811559</ele>
        <time>2024-09-15T12:36:51.000Z</time>
      </trkpt>
      <trkpt lat="46.38504" lon="6.11148">
        <ele>905.965723</ele>
        <time>2024-09-15T12:36:52.000Z</time>
      </trkpt>
      <trkpt lat="46.38504" lon="6.11146">
        <ele>906.13709</ele>
        <time>2024-09-15T12:36:53.000Z</time>
      </trkpt>
      <trkpt lat="46.38503" lon="6.11144">
        <ele>906.315751</ele>
        <time>2024-09-15T12:36:54.000Z</time>
      </trkpt>
      <trkpt lat="46.38504" lon="6.11142">
        <ele>906.445647</ele>
        <time>2024-09-15T12:36:55.000Z</time>
      </trkpt>
      <trkpt lat="46.38504" lon="6.1114">
        <ele>906.559156</ele>
        <time>2024-09-15T12:36:56.000Z</time>
      </trkpt>
      <trkpt lat="46.38503" lon="6.11139">
        <ele>906.694447</ele>
        <time>2024-09-15T12:36:57.000Z</time>
      </trkpt>
      <trkpt lat="46.38503" lon="6.11137">
        <ele>906.876933</ele>
        <time>2024-09-15T12:36:58.000Z</time>
      </trkpt>
      <trkpt lat="46.38502" lon="6.11135">
        <ele>907.019747</ele>
        <time>2024-09-15T12:36:59.000Z</time>
      </trkpt>
      <trkpt lat="46.38501" lon="6.11133">
        <ele>907.165906</ele>
        <time>2024-09-15T12:37:00.000Z</time>
      </trkpt>
      <trkpt lat="46.38501" lon="6.11132">
        <ele>907.29651</ele>
        <time>2024-09-15T12:37:01.000Z</time>
      </trkpt>
      <trkpt lat="46.385" lon="6.1113">
        <ele>907.445353</ele>
        <time>2024-09-15T12:37:02.000Z</time>
      </trkpt>
      <trkpt lat="46.38499" lon="6.11128">
        <ele>907.626484</ele>
        <time>2024-09-15T12:37:03.000Z</time>
      </trkpt>
      <trkpt lat="46.38498" lon="6.11127">
        <ele>907.787768</ele>
        <time>2024-09-15T12:37:04.000Z</time>
      </trkpt>
      <trkpt lat="46.38497" lon="6.11124">
        <ele>907.970254</ele>
        <time>2024-09-15T12:37:05.000Z</time>
      </trkpt>
      <trkpt lat="46.38497" lon="6.11122">
        <ele>908.17348</ele>
        <time>2024-09-15T12:37:06.000Z</time>
      </trkpt>
      <trkpt lat="46.38496" lon="6.1112">
        <ele>908.283902</ele>
        <time>2024-09-15T12:37:07.000Z</time>
      </trkpt>
      <trkpt lat="46.38496" lon="6.11117">
        <ele>908.51405</ele>
        <time>2024-09-15T12:37:08.000Z</time>
      </trkpt>
      <trkpt lat="46.38496" lon="6.11114">
        <ele>908.76642</ele>
        <time>2024-09-15T12:37:09.000Z</time>
      </trkpt>
      <trkpt lat="46.38496" lon="6.11111">
        <ele>908.984853</ele>
        <time>2024-09-15T12:37:10.000Z</time>
      </trkpt>
      <trkpt lat="46.38496" lon="6.11108">
        <ele>909.233415</ele>
        <time>2024-09-15T12:37:11.000Z</time>
      </trkpt>
      <trkpt lat="46.38495" lon="6.11105">
        <ele>909.444598</ele>
        <time>2024-09-15T12:37:12.000Z</time>
      </trkpt>
      <trkpt lat="46.38495" lon="6.11102">
        <ele>909.647967</ele>
        <time>2024-09-15T12:37:13.000Z</time>
      </trkpt>
      <trkpt lat="46.38495" lon="6.111">
        <ele>909.843804</ele>
        <time>2024-09-15T12:37:14.000Z</time>
      </trkpt>
      <trkpt lat="46.38496" lon="6.11098">
        <ele>910.012719</ele>
        <time>2024-09-15T12:37:15.000Z</time>
      </trkpt>
      <trkpt lat="46.38496" lon="6.11095">
        <ele>910.241046</ele>
        <time>2024-09-15T12:37:16.000Z</time>
      </trkpt>
      <trkpt lat="46.38497" lon="6.11091">
        <ele>910.501095</ele>
        <time>2024-09-15T12:37:17.000Z</time>
      </trkpt>
      <trkpt lat="46.38498" lon="6.11089">
        <ele>910.72243</ele>
        <time>2024-09-15T12:37:18.000Z</time>
      </trkpt>
      <trkpt lat="46.38498" lon="6.11086">
        <ele>910.928188</ele>
        <time>2024-09-15T12:37:19.000Z</time>
      </trkpt>
      <trkpt lat="46.38499" lon="6.11085">
        <ele>911.072022</ele>
        <time>2024-09-15T12:37:20.000Z</time>
      </trkpt>
      <trkpt lat="46.385" lon="6.11082">
        <ele>911.2643</ele>
        <time>2024-09-15T12:37:21.000Z</time>
      </trkpt>
      <trkpt lat="46.385" lon="6.11079">
        <ele>911.481558</ele>
        <time>2024-09-15T12:37:22.000Z</time>
      </trkpt>
      <trkpt lat="46.38501" lon="6.11077">
        <ele>911.67091</ele>
        <time>2024-09-15T12:37:23.000Z</time>
      </trkpt>
      <trkpt lat="46.38502" lon="6.11075">
        <ele>911.870083</ele>
        <time>2024-09-15T12:37:24.000Z</time>
      </trkpt>
      <trkpt lat="46.38503" lon="6.11073">
        <ele>912.069255</ele>
        <time>2024-09-15T12:37:25.000Z</time>
      </trkpt>
      <trkpt lat="46.38504" lon="6.1107">
        <ele>912.249949</ele>
        <time>2024-09-15T12:37:26.000Z</time>
      </trkpt>
      <trkpt lat="46.38504" lon="6.11068">
        <ele>912.425624</ele>
        <time>2024-09-15T12:37:27.000Z</time>
      </trkpt>
      <trkpt lat="46.38505" lon="6.11066">
        <ele>912.618281</ele>
        <time>2024-09-15T12:37:28.000Z</time>
      </trkpt>
      <trkpt lat="46.38506" lon="6.11064">
        <ele>912.842501</ele>
        <time>2024-09-15T12:37:29.000Z</time>
      </trkpt>
      <trkpt lat="46.38507" lon="6.11062">
        <ele>912.945753</ele>
        <time>2024-09-15T12:37:30.000Z</time>
      </trkpt>
      <trkpt lat="46.38507" lon="6.1106">
        <ele>913.091476</ele>
        <time>2024-09-15T12:37:31.000Z</time>
      </trkpt>
      <trkpt lat="46.38507" lon="6.11059">
        <ele>913.200833</ele>
        <time>2024-09-15T12:37:32.000Z</time>
      </trkpt>
      <trkpt lat="46.38508" lon="6.11056">
        <ele>913.370098</ele>
        <time>2024-09-15T12:37:33.000Z</time>
      </trkpt>
      <trkpt lat="46.38509" lon="6.11055">
        <ele>913.500432</ele>
        <time>2024-09-15T12:37:34.000Z</time>
      </trkpt>
      <trkpt lat="46.38509" lon="6.11052">
        <ele>913.664459</ele>
        <time>2024-09-15T12:37:35.000Z</time>
      </trkpt>
      <trkpt lat="46.3851" lon="6.1105">
        <ele>913.831823</ele>
        <time>2024-09-15T12:37:36.000Z</time>
      </trkpt>
      <trkpt lat="46.3851" lon="6.11048">
        <ele>913.975668</ele>
        <time>2024-09-15T12:37:37.000Z</time>
      </trkpt>
      <trkpt lat="46.38511" lon="6.11046">
        <ele>914.094134</ele>
        <time>2024-09-15T12:37:38.000Z</time>
      </trkpt>
      <trkpt lat="46.38511" lon="6.11044">
        <ele>914.276273</ele>
        <time>2024-09-15T12:37:39.000Z</time>
      </trkpt>
      <trkpt lat="46.38511" lon="6.11041">
        <ele>914.430658</ele>
        <time>2024-09-15T12:37:40.000Z</time>
      </trkpt>
      <trkpt lat="46.38511" lon="6.1104">
        <ele>914.543188</ele>
        <time>2024-09-15T12:37:41.000Z</time>
      </trkpt>
      <trkpt lat="46.38511" lon="6.11038">
        <ele>914.648716</ele>
        <time>2024-09-15T12:37:42.000Z</time>
      </trkpt>
      <trkpt lat="46.38511" lon="6.11036">
        <ele>914.783708</ele>
        <time>2024-09-15T12:37:43.000Z</time>
      </trkpt>
      <trkpt lat="46.38511" lon="6.11033">
        <ele>914.955191</ele>
        <time>2024-09-15T12:37:44.000Z</time>
      </trkpt>
      <trkpt lat="46.3851" lon="6.11031">
        <ele>915.126869</ele>
        <time>2024-09-15T12:37:45.000Z</time>
      </trkpt>
      <trkpt lat="46.38509" lon="6.11029">
        <ele>915.279303</ele>
        <time>2024-09-15T12:37:46.000Z</time>
      </trkpt>
      <trkpt lat="46.38508" lon="6.11028">
        <ele>915.414998</ele>
        <time>2024-09-15T12:37:47.000Z</time>
      </trkpt>
      <trkpt lat="46.38507" lon="6.11026">
        <ele>915.583705</ele>
        <time>2024-09-15T12:37:48.000Z</time>
      </trkpt>
      <trkpt lat="46.38506" lon="6.11024">
        <ele>915.751101</ele>
        <time>2024-09-15T12:37:49.000Z</time>
      </trkpt>
      <trkpt lat="46.38504" lon="6.11022">
        <ele>915.961951</ele>
        <time>2024-09-15T12:37:50.000Z</time>
      </trkpt>
      <trkpt lat="46.38503" lon="6.1102">
        <ele>916.106344</ele>
        <time>2024-09-15T12:37:51.000Z</time>
      </trkpt>
      <trkpt lat="46.38502" lon="6.11019">
        <ele>916.246301</ele>
        <time>2024-09-15T12:37:52.000Z</time>
      </trkpt>
      <trkpt lat="46.38501" lon="6.11018">
        <ele>916.382051</ele>
        <time>2024-09-15T12:37:53.000Z</time>
      </trkpt>
      <trkpt lat="46.38499" lon="6.11017">
        <ele>916.541847</ele>
        <time>2024-09-15T12:37:54.000Z</time>
      </trkpt>
      <trkpt lat="46.38498" lon="6.11015">
        <ele>916.75474</ele>
        <time>2024-09-15T12:37:55.000Z</time>
      </trkpt>
      <trkpt lat="46.38496" lon="6.11013">
        <ele>916.939723</ele>
        <time>2024-09-15T12:37:56.000Z</time>
      </trkpt>
      <trkpt lat="46.38495" lon="6.1101">
        <ele>917.200392</ele>
        <time>2024-09-15T12:37:57.000Z</time>
      </trkpt>
      <trkpt lat="46.38494" lon="6.11007">
        <ele>917.412916</ele>
        <time>2024-09-15T12:37:58.000Z</time>
      </trkpt>
      <trkpt lat="46.38493" lon="6.11003">
        <ele>917.690812</ele>
        <time>2024-09-15T12:37:59.000Z</time>
      </trkpt>
      <trkpt lat="46.38492" lon="6.10999">
        <ele>917.962745</ele>
        <time>2024-09-15T12:38:00.000Z</time>
      </trkpt>
      <trkpt lat="46.38491" lon="6.10996">
        <ele>918.174881</ele>
        <time>2024-09-15T12:38:01.000Z</time>
      </trkpt>
      <trkpt lat="46.3849" lon="6.10993">
        <ele>918.424742</ele>
        <time>2024-09-15T12:38:02.000Z</time>
      </trkpt>
      <trkpt lat="46.3849" lon="6.10989">
        <ele>918.649231</ele>
        <time>2024-09-15T12:38:03.000Z</time>
      </trkpt>
      <trkpt lat="46.38489" lon="6.10986">
        <ele>918.868765</ele>
        <time>2024-09-15T12:38:04.000Z</time>
      </trkpt>
      <trkpt lat="46.38489" lon="6.10983">
        <ele>919.088299</ele>
        <time>2024-09-15T12:38:05.000Z</time>
      </trkpt>
      <trkpt lat="46.38489" lon="6.10979">
        <ele>919.31114</ele>
        <time>2024-09-15T12:38:06.000Z</time>
      </trkpt>
      <trkpt lat="46.38488" lon="6.10977">
        <ele>919.504952</ele>
        <time>2024-09-15T12:38:07.000Z</time>
      </trkpt>
      <trkpt lat="46.38486" lon="6.10974">
        <ele>919.711441</ele>
        <time>2024-09-15T12:38:08.000Z</time>
      </trkpt>
      <trkpt lat="46.38485" lon="6.10973">
        <ele>919.858718</ele>
        <time>2024-09-15T12:38:09.000Z</time>
      </trkpt>
      <trkpt lat="46.38484" lon="6.10971">
        <ele>920.016215</ele>
        <time>2024-09-15T12:38:10.000Z</time>
      </trkpt>
      <trkpt lat="46.38483" lon="6.10969">
        <ele>920.179817</ele>
        <time>2024-09-15T12:38:11.000Z</time>
      </trkpt>
      <trkpt lat="46.38482" lon="6.10967">
        <ele>920.370018</ele>
        <time>2024-09-15T12:38:12.000Z</time>
      </trkpt>
      <trkpt lat="46.38481" lon="6.10965">
        <ele>920.527643</ele>
        <time>2024-09-15T12:38:13.000Z</time>
      </trkpt>
      <trkpt lat="46.3848" lon="6.10963">
        <ele>920.690704</ele>
        <time>2024-09-15T12:38:14.000Z</time>
      </trkpt>
      <trkpt lat="46.38479" lon="6.10959">
        <ele>920.921406</ele>
        <time>2024-09-15T12:38:15.000Z</time>
      </trkpt>
      <trkpt lat="46.38479" lon="6.10956">
        <ele>921.130285</ele>
        <time>2024-09-15T12:38:16.000Z</time>
      </trkpt>
      <trkpt lat="46.38478" lon="6.10953">
        <ele>921.336283</ele>
        <time>2024-09-15T12:38:17.000Z</time>
      </trkpt>
      <trkpt lat="46.38477" lon="6.10951">
        <ele>921.530095</ele>
        <time>2024-09-15T12:38:18.000Z</time>
      </trkpt>
      <trkpt lat="46.38476" lon="6.10948">
        <ele>921.70805</ele>
        <time>2024-09-15T12:38:19.000Z</time>
      </trkpt>
      <trkpt lat="46.38476" lon="6.10946">
        <ele>921.888875</ele>
        <time>2024-09-15T12:38:20.000Z</time>
      </trkpt>
      <trkpt lat="46.38475" lon="6.10943">
        <ele>922.079637</ele>
        <time>2024-09-15T12:38:21.000Z</time>
      </trkpt>
      <trkpt lat="46.38475" lon="6.1094">
        <ele>922.296041</ele>
        <time>2024-09-15T12:38:22.000Z</time>
      </trkpt>
      <trkpt lat="46.38475" lon="6.10937">
        <ele>922.441458</ele>
        <time>2024-09-15T12:38:23.000Z</time>
      </trkpt>
      <trkpt lat="46.38474" lon="6.10934">
        <ele>922.655952</ele>
        <time>2024-09-15T12:38:24.000Z</time>
      </trkpt>
      <trkpt lat="46.38473" lon="6.10932">
        <ele>922.814176</ele>
        <time>2024-09-15T12:38:25.000Z</time>
      </trkpt>
      <trkpt lat="46.38473" lon="6.1093">
        <ele>922.986723</ele>
        <time>2024-09-15T12:38:26.000Z</time>
      </trkpt>
      <trkpt lat="46.38474" lon="6.10926">
        <ele>923.193186</ele>
        <time>2024-09-15T12:38:27.000Z</time>
      </trkpt>
      <trkpt lat="46.38473" lon="6.10924">
        <ele>923.371522</ele>
        <time>2024-09-15T12:38:28.000Z</time>
      </trkpt>
      <trkpt lat="46.38473" lon="6.1092">
        <ele>923.589175</ele>
        <time>2024-09-15T12:38:29.000Z</time>
      </trkpt>
      <trkpt lat="46.38473" lon="6.10917">
        <ele>923.787272</ele>
        <time>2024-09-15T12:38:30.000Z</time>
      </trkpt>
      <trkpt lat="46.38473" lon="6.10915">
        <ele>923.962969</ele>
        <time>2024-09-15T12:38:31.000Z</time>
      </trkpt>
      <trkpt lat="46.38472" lon="6.10913">
        <ele>924.122021</ele>
        <time>2024-09-15T12:38:32.000Z</time>
      </trkpt>
      <trkpt lat="46.38472" lon="6.10911">
        <ele>924.250577</ele>
        <time>2024-09-15T12:38:33.000Z</time>
      </trkpt>
      <trkpt lat="46.38472" lon="6.10908">
        <ele>924.403352</ele>
        <time>2024-09-15T12:38:34.000Z</time>
      </trkpt>
      <trkpt lat="46.38471" lon="6.10906">
        <ele>924.571655</ele>
        <time>2024-09-15T12:38:35.000Z</time>
      </trkpt>
      <trkpt lat="46.3847" lon="6.10905">
        <ele>924.702776</ele>
        <time>2024-09-15T12:38:36.000Z</time>
      </trkpt>
      <trkpt lat="46.38469" lon="6.10903">
        <ele>924.838506</ele>
        <time>2024-09-15T12:38:37.000Z</time>
      </trkpt>
      <trkpt lat="46.38468" lon="6.109">
        <ele>925.055674</ele>
        <time>2024-09-15T12:38:38.000Z</time>
      </trkpt>
      <trkpt lat="46.38467" lon="6.10898">
        <ele>925.246437</ele>
        <time>2024-09-15T12:38:39.000Z</time>
      </trkpt>
      <trkpt lat="46.38467" lon="6.10894">
        <ele>925.470889</ele>
        <time>2024-09-15T12:38:40.000Z</time>
      </trkpt>
      <trkpt lat="46.38467" lon="6.10892">
        <ele>925.609725</ele>
        <time>2024-09-15T12:38:41.000Z</time>
      </trkpt>
      <trkpt lat="46.38467" lon="6.10888">
        <ele>925.861992</ele>
        <time>2024-09-15T12:38:42.000Z</time>
      </trkpt>
      <trkpt lat="46.38467" lon="6.10885">
        <ele>926.060089</ele>
        <time>2024-09-15T12:38:43.000Z</time>
      </trkpt>
      <trkpt lat="46.38467" lon="6.10883">
        <ele>926.244764</ele>
        <time>2024-09-15T12:38:44.000Z</time>
      </trkpt>
      <trkpt lat="46.38467" lon="6.1088">
        <ele>926.390181</ele>
        <time>2024-09-15T12:38:45.000Z</time>
      </trkpt>
      <trkpt lat="46.38467" lon="6.10878">
        <ele>926.561931</ele>
        <time>2024-09-15T12:38:46.000Z</time>
      </trkpt>
      <trkpt lat="46.38467" lon="6.10875">
        <ele>926.735798</ele>
        <time>2024-09-15T12:38:47.000Z</time>
      </trkpt>
      <trkpt lat="46.38466" lon="6.10874">
        <ele>926.833967</ele>
        <time>2024-09-15T12:38:48.000Z</time>
      </trkpt>
      <trkpt lat="46.38466" lon="6.10872">
        <ele>926.968092</ele>
        <time>2024-09-15T12:38:49.000Z</time>
      </trkpt>
      <trkpt lat="46.38465" lon="6.1087">
        <ele>927.098427</ele>
        <time>2024-09-15T12:38:50.000Z</time>
      </trkpt>
      <trkpt lat="46.38464" lon="6.10868">
        <ele>927.26673</ele>
        <time>2024-09-15T12:38:51.000Z</time>
      </trkpt>
      <trkpt lat="46.38463" lon="6.10866">
        <ele>927.413356</ele>
        <time>2024-09-15T12:38:52.000Z</time>
      </trkpt>
      <trkpt lat="46.38463" lon="6.10863">
        <ele>927.625714</ele>
        <time>2024-09-15T12:38:53.000Z</time>
      </trkpt>
      <trkpt lat="46.38462" lon="6.10861">
        <ele>927.825604</ele>
        <time>2024-09-15T12:38:54.000Z</time>
      </trkpt>
      <trkpt lat="46.38461" lon="6.10857">
        <ele>928.05353</ele>
        <time>2024-09-15T12:38:55.000Z</time>
      </trkpt>
      <trkpt lat="46.3846" lon="6.10855">
        <ele>928.221898</ele>
        <time>2024-09-15T12:38:56.000Z</time>
      </trkpt>
      <trkpt lat="46.38459" lon="6.10852">
        <ele>928.450008</ele>
        <time>2024-09-15T12:38:57.000Z</time>
      </trkpt>
      <trkpt lat="46.38457" lon="6.10849">
        <ele>928.694386</ele>
        <time>2024-09-15T12:38:58.000Z</time>
      </trkpt>
      <trkpt lat="46.38456" lon="6.10846">
        <ele>928.956568</ele>
        <time>2024-09-15T12:38:59.000Z</time>
      </trkpt>
      <trkpt lat="46.38455" lon="6.10843">
        <ele>929.146769</ele>
        <time>2024-09-15T12:39:00.000Z</time>
      </trkpt>
      <trkpt lat="46.38454" lon="6.1084">
        <ele>929.376696</ele>
        <time>2024-09-15T12:39:01.000Z</time>
      </trkpt>
      <trkpt lat="46.38452" lon="6.10837">
        <ele>929.599476</ele>
        <time>2024-09-15T12:39:02.000Z</time>
      </trkpt>
      <trkpt lat="46.38451" lon="6.10834">
        <ele>929.855545</ele>
        <time>2024-09-15T12:39:03.000Z</time>
      </trkpt>
      <trkpt lat="46.38449" lon="6.10832">
        <ele>930.089376</ele>
        <time>2024-09-15T12:39:04.000Z</time>
      </trkpt>
      <trkpt lat="46.38447" lon="6.10829">
        <ele>930.400338</ele>
        <time>2024-09-15T12:39:05.000Z</time>
      </trkpt>
      <trkpt lat="46.38447" lon="6.10824">
        <ele>930.716727</ele>
        <time>2024-09-15T12:39:06.000Z</time>
      </trkpt>
      <trkpt lat="46.38447" lon="6.10822">
        <ele>930.919016</ele>
        <time>2024-09-15T12:39:07.000Z</time>
      </trkpt>
      <trkpt lat="46.38446" lon="6.10818">
        <ele>931.250587</ele>
        <time>2024-09-15T12:39:08.000Z</time>
      </trkpt>
      <trkpt lat="46.38446" lon="6.10813">
        <ele>931.619094</ele>
        <time>2024-09-15T12:39:09.000Z</time>
      </trkpt>
      <trkpt lat="46.38446" lon="6.1081">
        <ele>931.864654</ele>
        <time>2024-09-15T12:39:10.000Z</time>
      </trkpt>
      <trkpt lat="46.38446" lon="6.10805">
        <ele>932.187718</ele>
        <time>2024-09-15T12:39:11.000Z</time>
      </trkpt>
      <trkpt lat="46.38446" lon="6.10802">
        <ele>932.419003</ele>
        <time>2024-09-15T12:39:12.000Z</time>
      </trkpt>
      <trkpt lat="46.38445" lon="6.108">
        <ele>932.613728</ele>
        <time>2024-09-15T12:39:13.000Z</time>
      </trkpt>
      <trkpt lat="46.38444" lon="6.10798">
        <ele>932.822234</ele>
        <time>2024-09-15T12:39:14.000Z</time>
      </trkpt>
      <trkpt lat="46.38443" lon="6.10796">
        <ele>932.99558</ele>
        <time>2024-09-15T12:39:15.000Z</time>
      </trkpt>
      <trkpt lat="46.38443" lon="6.10794">
        <ele>933.209755</ele>
        <time>2024-09-15T12:39:16.000Z</time>
      </trkpt>
      <trkpt lat="46.38442" lon="6.10791">
        <ele>933.407418</ele>
        <time>2024-09-15T12:39:17.000Z</time>
      </trkpt>
      <trkpt lat="46.38441" lon="6.10789">
        <ele>933.574779</ele>
        <time>2024-09-15T12:39:18.000Z</time>
      </trkpt>
      <trkpt lat="46.38441" lon="6.10786">
        <ele>933.858926</ele>
        <time>2024-09-15T12:39:19.000Z</time>
      </trkpt>
      <trkpt lat="46.38441" lon="6.10783">
        <ele>934.023494</ele>
        <time>2024-09-15T12:39:20.000Z</time>
      </trkpt>
      <trkpt lat="46.3844" lon="6.10781">
        <ele>934.22345</ele>
        <time>2024-09-15T12:39:21.000Z</time>
      </trkpt>
      <trkpt lat="46.3844" lon="6.10778">
        <ele>934.450393</ele>
        <time>2024-09-15T12:39:22.000Z</time>
      </trkpt>
      <trkpt lat="46.3844" lon="6.10776">
        <ele>934.596618</ele>
        <time>2024-09-15T12:39:23.000Z</time>
      </trkpt>
      <trkpt lat="46.38439" lon="6.10774">
        <ele>934.796363</ele>
        <time>2024-09-15T12:39:24.000Z</time>
      </trkpt>
      <trkpt lat="46.38438" lon="6.10772">
        <ele>934.980452</ele>
        <time>2024-09-15T12:39:25.000Z</time>
      </trkpt>
      <trkpt lat="46.38438" lon="6.10769">
        <ele>935.169148</ele>
        <time>2024-09-15T12:39:26.000Z</time>
      </trkpt>
      <trkpt lat="46.38437" lon="6.10767">
        <ele>935.368892</ele>
        <time>2024-09-15T12:39:27.000Z</time>
      </trkpt>
      <trkpt lat="46.38437" lon="6.10764">
        <ele>935.620673</ele>
        <time>2024-09-15T12:39:28.000Z</time>
      </trkpt>
      <trkpt lat="46.38436" lon="6.10762">
        <ele>935.770245</ele>
        <time>2024-09-15T12:39:29.000Z</time>
      </trkpt>
      <trkpt lat="46.38436" lon="6.1076">
        <ele>935.954335</ele>
        <time>2024-09-15T12:39:30.000Z</time>
      </trkpt>
      <trkpt lat="46.38435" lon="6.10758">
        <ele>936.137579</ele>
        <time>2024-09-15T12:39:31.000Z</time>
      </trkpt>
      <trkpt lat="46.38434" lon="6.10756">
        <ele>936.31499</ele>
        <time>2024-09-15T12:39:32.000Z</time>
      </trkpt>
      <trkpt lat="46.38433" lon="6.10753">
        <ele>936.503685</ele>
        <time>2024-09-15T12:39:33.000Z</time>
      </trkpt>
      <trkpt lat="46.38433" lon="6.10751">
        <ele>936.699577</ele>
        <time>2024-09-15T12:39:34.000Z</time>
      </trkpt>
      <trkpt lat="46.38432" lon="6.10749">
        <ele>936.870394</ele>
        <time>2024-09-15T12:39:35.000Z</time>
      </trkpt>
      <trkpt lat="46.38431" lon="6.10747">
        <ele>937.097941</ele>
        <time>2024-09-15T12:39:36.000Z</time>
      </trkpt>
      <trkpt lat="46.3843" lon="6.10745">
        <ele>937.25135</ele>
        <time>2024-09-15T12:39:37.000Z</time>
      </trkpt>
      <trkpt lat="46.3843" lon="6.10742">
        <ele>937.447242</ele>
        <time>2024-09-15T12:39:38.000Z</time>
      </trkpt>
      <trkpt lat="46.38429" lon="6.10741">
        <ele>937.605808</ele>
        <time>2024-09-15T12:39:39.000Z</time>
      </trkpt>
      <trkpt lat="46.38429" lon="6.10738">
        <ele>937.792978</ele>
        <time>2024-09-15T12:39:40.000Z</time>
      </trkpt>
      <trkpt lat="46.38428" lon="6.10735">
        <ele>938.004894</ele>
        <time>2024-09-15T12:39:41.000Z</time>
      </trkpt>
      <trkpt lat="46.38427" lon="6.10734">
        <ele>938.188287</ele>
        <time>2024-09-15T12:39:42.000Z</time>
      </trkpt>
      <trkpt lat="46.38426" lon="6.10732">
        <ele>938.365641</ele>
        <time>2024-09-15T12:39:43.000Z</time>
      </trkpt>
      <trkpt lat="46.38426" lon="6.10729">
        <ele>938.587589</ele>
        <time>2024-09-15T12:39:44.000Z</time>
      </trkpt>
      <trkpt lat="46.38425" lon="6.10727">
        <ele>938.729691</ele>
        <time>2024-09-15T12:39:45.000Z</time>
      </trkpt>
      <trkpt lat="46.38424" lon="6.10726">
        <ele>938.888118</ele>
        <time>2024-09-15T12:39:46.000Z</time>
      </trkpt>
      <trkpt lat="46.38423" lon="6.10724">
        <ele>939.078464</ele>
        <time>2024-09-15T12:39:47.000Z</time>
      </trkpt>
      <trkpt lat="46.38423" lon="6.10722">
        <ele>939.245826</ele>
        <time>2024-09-15T12:39:48.000Z</time>
      </trkpt>
      <trkpt lat="46.38422" lon="6.1072">
        <ele>939.420251</ele>
        <time>2024-09-15T12:39:49.000Z</time>
      </trkpt>
      <trkpt lat="46.38421" lon="6.10717">
        <ele>939.680965</ele>
        <time>2024-09-15T12:39:50.000Z</time>
      </trkpt>
      <trkpt lat="46.38421" lon="6.10714">
        <ele>939.862985</ele>
        <time>2024-09-15T12:39:51.000Z</time>
      </trkpt>
      <trkpt lat="46.3842" lon="6.10712">
        <ele>940.05771</ele>
        <time>2024-09-15T12:39:52.000Z</time>
      </trkpt>
      <trkpt lat="46.3842" lon="6.1071">
        <ele>940.222025</ele>
        <time>2024-09-15T12:39:53.000Z</time>
      </trkpt>
      <trkpt lat="46.38419" lon="6.10708">
        <ele>940.389205</ele>
        <time>2024-09-15T12:39:54.000Z</time>
      </trkpt>
      <trkpt lat="46.38419" lon="6.10706">
        <ele>940.56363</ele>
        <time>2024-09-15T12:39:55.000Z</time>
      </trkpt>
      <trkpt lat="46.38418" lon="6.10704">
        <ele>940.70338</ele>
        <time>2024-09-15T12:39:56.000Z</time>
      </trkpt>
      <trkpt lat="46.38417" lon="6.10702">
        <ele>940.867695</ele>
        <time>2024-09-15T12:39:57.000Z</time>
      </trkpt>
      <trkpt lat="46.38416" lon="6.10699">
        <ele>941.132632</ele>
        <time>2024-09-15T12:39:58.000Z</time>
      </trkpt>
      <trkpt lat="46.38416" lon="6.10697">
        <ele>941.332378</ele>
        <time>2024-09-15T12:39:59.000Z</time>
      </trkpt>
      <trkpt lat="46.38416" lon="6.10694">
        <ele>941.509225</ele>
        <time>2024-09-15T12:40:00.000Z</time>
      </trkpt>
      <trkpt lat="46.38415" lon="6.10692">
        <ele>941.723753</ele>
        <time>2024-09-15T12:40:01.000Z</time>
      </trkpt>
      <trkpt lat="46.38415" lon="6.10689">
        <ele>941.94222</ele>
        <time>2024-09-15T12:40:02.000Z</time>
      </trkpt>
      <trkpt lat="46.38414" lon="6.10687">
        <ele>942.119631</ele>
        <time>2024-09-15T12:40:03.000Z</time>
      </trkpt>
      <trkpt lat="46.38413" lon="6.10685">
        <ele>942.278057</ele>
        <time>2024-09-15T12:40:04.000Z</time>
      </trkpt>
      <trkpt lat="46.38412" lon="6.10684">
        <ele>942.424595</ele>
        <time>2024-09-15T12:40:05.000Z</time>
      </trkpt>
      <trkpt lat="46.38411" lon="6.10681">
        <ele>942.69211</ele>
        <time>2024-09-15T12:40:06.000Z</time>
      </trkpt>
      <trkpt lat="46.3841" lon="6.10678">
        <ele>942.925829</ele>
        <time>2024-09-15T12:40:07.000Z</time>
      </trkpt>
      <trkpt lat="46.38409" lon="6.10676">
        <ele>943.125786</ele>
        <time>2024-09-15T12:40:08.000Z</time>
      </trkpt>
      <trkpt lat="46.38409" lon="6.10673">
        <ele>943.29461</ele>
        <time>2024-09-15T12:40:09.000Z</time>
      </trkpt>
      <trkpt lat="46.38409" lon="6.10671">
        <ele>943.469199</ele>
        <time>2024-09-15T12:40:10.000Z</time>
      </trkpt>
      <trkpt lat="46.38409" lon="6.10668">
        <ele>943.694227</ele>
        <time>2024-09-15T12:40:11.000Z</time>
      </trkpt>
      <trkpt lat="46.38408" lon="6.10667">
        <ele>943.8332</ele>
        <time>2024-09-15T12:40:12.000Z</time>
      </trkpt>
      <trkpt lat="46.38407" lon="6.10666">
        <ele>943.995372</ele>
        <time>2024-09-15T12:40:13.000Z</time>
      </trkpt>
      <trkpt lat="46.38407" lon="6.10662">
        <ele>944.249583</ele>
        <time>2024-09-15T12:40:14.000Z</time>
      </trkpt>
      <trkpt lat="46.38407" lon="6.10659">
        <ele>944.502818</ele>
        <time>2024-09-15T12:40:15.000Z</time>
      </trkpt>
      <trkpt lat="46.38407" lon="6.10655">
        <ele>944.809972</ele>
        <time>2024-09-15T12:40:16.000Z</time>
      </trkpt>
      <trkpt lat="46.38407" lon="6.10653">
        <ele>945.003102</ele>
        <time>2024-09-15T12:40:17.000Z</time>
      </trkpt>
      <trkpt lat="46.38407" lon="6.1065">
        <ele>945.210593</ele>
        <time>2024-09-15T12:40:18.000Z</time>
      </trkpt>
      <trkpt lat="46.38407" lon="6.10647">
        <ele>945.40276</ele>
        <time>2024-09-15T12:40:19.000Z</time>
      </trkpt>
      <trkpt lat="46.38408" lon="6.10644">
        <ele>945.627789</ele>
        <time>2024-09-15T12:40:20.000Z</time>
      </trkpt>
      <trkpt lat="46.38408" lon="6.10642">
        <ele>945.805683</ele>
        <time>2024-09-15T12:40:21.000Z</time>
      </trkpt>
      <trkpt lat="46.38408" lon="6.10639">
        <ele>946.030711</ele>
        <time>2024-09-15T12:40:22.000Z</time>
      </trkpt>
      <trkpt lat="46.38408" lon="6.10636">
        <ele>946.261998</ele>
        <time>2024-09-15T12:40:23.000Z</time>
      </trkpt>
      <trkpt lat="46.38409" lon="6.10634">
        <ele>946.462753</ele>
        <time>2024-09-15T12:40:24.000Z</time>
      </trkpt>
      <trkpt lat="46.38409" lon="6.10631">
        <ele>946.648263</ele>
        <time>2024-09-15T12:40:25.000Z</time>
      </trkpt>
      <trkpt lat="46.38409" lon="6.10628">
        <ele>946.863129</ele>
        <time>2024-09-15T12:40:26.000Z</time>
      </trkpt>
      <trkpt lat="46.38409" lon="6.10626">
        <ele>947.080572</ele>
        <time>2024-09-15T12:40:27.000Z</time>
      </trkpt>
      <trkpt lat="46.38409" lon="6.10622">
        <ele>947.337687</ele>
        <time>2024-09-15T12:40:28.000Z</time>
      </trkpt>
      <trkpt lat="46.3841" lon="6.10619">
        <ele>947.562715</ele>
        <time>2024-09-15T12:40:29.000Z</time>
      </trkpt>
      <trkpt lat="46.3841" lon="6.10617">
        <ele>947.739563</ele>
        <time>2024-09-15T12:40:30.000Z</time>
      </trkpt>
      <trkpt lat="46.3841" lon="6.10615">
        <ele>947.941853</ele>
        <time>2024-09-15T12:40:31.000Z</time>
      </trkpt>
      <trkpt lat="46.3841" lon="6.10612">
        <ele>948.151716</ele>
        <time>2024-09-15T12:40:32.000Z</time>
      </trkpt>
      <trkpt lat="46.38409" lon="6.10608">
        <ele>948.444168</ele>
        <time>2024-09-15T12:40:33.000Z</time>
      </trkpt>
      <trkpt lat="46.38409" lon="6.10605">
        <ele>948.669196</ele>
        <time>2024-09-15T12:40:34.000Z</time>
      </trkpt>
      <trkpt lat="46.38409" lon="6.10602">
        <ele>948.879059</ele>
        <time>2024-09-15T12:40:35.000Z</time>
      </trkpt>
      <trkpt lat="46.38409" lon="6.106">
        <ele>949.078578</ele>
        <time>2024-09-15T12:40:36.000Z</time>
      </trkpt>
      <trkpt lat="46.3841" lon="6.10597">
        <ele>949.278323</ele>
        <time>2024-09-15T12:40:37.000Z</time>
      </trkpt>
      <trkpt lat="46.3841" lon="6.10594">
        <ele>949.526142</ele>
        <time>2024-09-15T12:40:38.000Z</time>
      </trkpt>
      <trkpt lat="46.3841" lon="6.10592">
        <ele>949.675048</ele>
        <time>2024-09-15T12:40:39.000Z</time>
      </trkpt>
      <trkpt lat="46.3841" lon="6.10591">
        <ele>949.790692</ele>
        <time>2024-09-15T12:40:40.000Z</time>
      </trkpt>
      <trkpt lat="46.3841" lon="6.10588">
        <ele>949.983822</ele>
        <time>2024-09-15T12:40:41.000Z</time>
      </trkpt>
      <trkpt lat="46.3841" lon="6.10585">
        <ele>950.237057</ele>
        <time>2024-09-15T12:40:42.000Z</time>
      </trkpt>
      <trkpt lat="46.3841" lon="6.10582">
        <ele>950.423116</ele>
        <time>2024-09-15T12:40:43.000Z</time>
      </trkpt>
      <trkpt lat="46.3841" lon="6.1058">
        <ele>950.601463</ele>
        <time>2024-09-15T12:40:44.000Z</time>
      </trkpt>
      <trkpt lat="46.3841" lon="6.10577">
        <ele>950.767031</ele>
        <time>2024-09-15T12:40:45.000Z</time>
      </trkpt>
      <trkpt lat="46.3841" lon="6.10575">
        <ele>950.927347</ele>
        <time>2024-09-15T12:40:46.000Z</time>
      </trkpt>
      <trkpt lat="46.38411" lon="6.10572">
        <ele>951.151402</ele>
        <time>2024-09-15T12:40:47.000Z</time>
      </trkpt>
      <trkpt lat="46.38412" lon="6.1057">
        <ele>951.310044</ele>
        <time>2024-09-15T12:40:48.000Z</time>
      </trkpt>
      <trkpt lat="46.38412" lon="6.10567">
        <ele>951.489219</ele>
        <time>2024-09-15T12:40:49.000Z</time>
      </trkpt>
      <trkpt lat="46.38412" lon="6.10565">
        <ele>951.669763</ele>
        <time>2024-09-15T12:40:50.000Z</time>
      </trkpt>
      <trkpt lat="46.38413" lon="6.10563">
        <ele>951.809941</ele>
        <time>2024-09-15T12:40:51.000Z</time>
      </trkpt>
      <trkpt lat="46.38413" lon="6.10561">
        <ele>951.945995</ele>
        <time>2024-09-15T12:40:52.000Z</time>
      </trkpt>
      <trkpt lat="46.38413" lon="6.10559">
        <ele>952.101816</ele>
        <time>2024-09-15T12:40:53.000Z</time>
      </trkpt>
      <trkpt lat="46.38414" lon="6.10557">
        <ele>952.233451</ele>
        <time>2024-09-15T12:40:54.000Z</time>
      </trkpt>
      <trkpt lat="46.38414" lon="6.10555">
        <ele>952.336184</ele>
        <time>2024-09-15T12:40:55.000Z</time>
      </trkpt>
      <trkpt lat="46.38414" lon="6.10552">
        <ele>952.52137</ele>
        <time>2024-09-15T12:40:56.000Z</time>
      </trkpt>
      <trkpt lat="46.38414" lon="6.1055">
        <ele>952.685742</ele>
        <time>2024-09-15T12:40:57.000Z</time>
      </trkpt>
      <trkpt lat="46.38414" lon="6.10547">
        <ele>952.868188</ele>
        <time>2024-09-15T12:40:58.000Z</time>
      </trkpt>
      <trkpt lat="46.38414" lon="6.10545">
        <ele>953.047362</ele>
        <time>2024-09-15T12:40:59.000Z</time>
      </trkpt>
      <trkpt lat="46.38414" lon="6.10542">
        <ele>953.23913</ele>
        <time>2024-09-15T12:41:00.000Z</time>
      </trkpt>
      <trkpt lat="46.38414" lon="6.1054">
        <ele>953.396654</ele>
        <time>2024-09-15T12:41:01.000Z</time>
      </trkpt>
      <trkpt lat="46.38414" lon="6.10538">
        <ele>953.540823</ele>
        <time>2024-09-15T12:41:02.000Z</time>
      </trkpt>
      <trkpt lat="46.38414" lon="6.10536">
        <ele>953.636707</ele>
        <time>2024-09-15T12:41:03.000Z</time>
      </trkpt>
      <trkpt lat="46.38415" lon="6.10535">
        <ele>953.757009</ele>
        <time>2024-09-15T12:41:04.000Z</time>
      </trkpt>
      <trkpt lat="46.38415" lon="6.10532">
        <ele>953.924058</ele>
        <time>2024-09-15T12:41:05.000Z</time>
      </trkpt>
      <trkpt lat="46.38415" lon="6.10531">
        <ele>954.021977</ele>
        <time>2024-09-15T12:41:06.000Z</time>
      </trkpt>
      <trkpt lat="46.38414" lon="6.10529">
        <ele>954.175568</ele>
        <time>2024-09-15T12:41:07.000Z</time>
      </trkpt>
      <trkpt lat="46.38414" lon="6.10526">
        <ele>954.342617</ele>
        <time>2024-09-15T12:41:08.000Z</time>
      </trkpt>
      <trkpt lat="46.38414" lon="6.10524">
        <ele>954.496208</ele>
        <time>2024-09-15T12:41:09.000Z</time>
      </trkpt>
      <trkpt lat="46.38414" lon="6.10522">
        <ele>954.61432</ele>
        <time>2024-09-15T12:41:10.000Z</time>
      </trkpt>
      <trkpt lat="46.38414" lon="6.10519">
        <ele>954.833484</ele>
        <time>2024-09-15T12:41:11.000Z</time>
      </trkpt>
      <trkpt lat="46.38413" lon="6.10517">
        <ele>954.985461</ele>
        <time>2024-09-15T12:41:12.000Z</time>
      </trkpt>
      <trkpt lat="46.38413" lon="6.10514">
        <ele>955.176928</ele>
        <time>2024-09-15T12:41:13.000Z</time>
      </trkpt>
      <trkpt lat="46.38413" lon="6.10512">
        <ele>955.343978</ele>
        <time>2024-09-15T12:41:14.000Z</time>
      </trkpt>
      <trkpt lat="46.38412" lon="6.10509">
        <ele>955.566028</ele>
        <time>2024-09-15T12:41:15.000Z</time>
      </trkpt>
      <trkpt lat="46.3841" lon="6.10507">
        <ele>955.771025</ele>
        <time>2024-09-15T12:41:16.000Z</time>
      </trkpt>
      <trkpt lat="46.38409" lon="6.10504">
        <ele>956.019275</ele>
        <time>2024-09-15T12:41:17.000Z</time>
      </trkpt>
      <trkpt lat="46.38408" lon="6.10502">
        <ele>956.160218</ele>
        <time>2024-09-15T12:41:18.000Z</time>
      </trkpt>
      <trkpt lat="46.38407" lon="6.105">
        <ele>956.325379</ele>
        <time>2024-09-15T12:41:19.000Z</time>
      </trkpt>
      <trkpt lat="46.38407" lon="6.10498">
        <ele>956.454898</ele>
        <time>2024-09-15T12:41:20.000Z</time>
      </trkpt>
      <trkpt lat="46.38406" lon="6.10495">
        <ele>956.668808</ele>
        <time>2024-09-15T12:41:21.000Z</time>
      </trkpt>
      <trkpt lat="46.38405" lon="6.10492">
        <ele>956.8866</ele>
        <time>2024-09-15T12:41:22.000Z</time>
      </trkpt>
      <trkpt lat="46.38404" lon="6.10489">
        <ele>957.146059</ele>
        <time>2024-09-15T12:41:23.000Z</time>
      </trkpt>
      <trkpt lat="46.38404" lon="6.10487">
        <ele>957.278958</ele>
        <time>2024-09-15T12:41:24.000Z</time>
      </trkpt>
      <trkpt lat="46.38403" lon="6.10485">
        <ele>957.452784</ele>
        <time>2024-09-15T12:41:25.000Z</time>
      </trkpt>
      <trkpt lat="46.38401" lon="6.10484">
        <ele>957.609584</ele>
        <time>2024-09-15T12:41:26.000Z</time>
      </trkpt>
      <trkpt lat="46.384" lon="6.10483">
        <ele>957.750492</ele>
        <time>2024-09-15T12:41:27.000Z</time>
      </trkpt>
      <trkpt lat="46.38399" lon="6.10481">
        <ele>957.886088</ele>
        <time>2024-09-15T12:41:28.000Z</time>
      </trkpt>
      <trkpt lat="46.38399" lon="6.10479">
        <ele>958.039688</ele>
        <time>2024-09-15T12:41:29.000Z</time>
      </trkpt>
      <trkpt lat="46.38398" lon="6.10477">
        <ele>958.225891</ele>
        <time>2024-09-15T12:41:30.000Z</time>
      </trkpt>
      <trkpt lat="46.38397" lon="6.10474">
        <ele>958.437456</ele>
        <time>2024-09-15T12:41:31.000Z</time>
      </trkpt>
      <trkpt lat="46.38396" lon="6.10471">
        <ele>958.632438</ele>
        <time>2024-09-15T12:41:32.000Z</time>
      </trkpt>
      <trkpt lat="46.38395" lon="6.10469">
        <ele>958.827421</ele>
        <time>2024-09-15T12:41:33.000Z</time>
      </trkpt>
      <trkpt lat="46.38394" lon="6.10466">
        <ele>959.019101</ele>
        <time>2024-09-15T12:41:34.000Z</time>
      </trkpt>
      <trkpt lat="46.38393" lon="6.10465">
        <ele>959.190544</ele>
        <time>2024-09-15T12:41:35.000Z</time>
      </trkpt>
      <trkpt lat="46.38392" lon="6.10462">
        <ele>959.428055</ele>
        <time>2024-09-15T12:41:36.000Z</time>
      </trkpt>
      <trkpt lat="46.38391" lon="6.1046">
        <ele>959.581656</ele>
        <time>2024-09-15T12:41:37.000Z</time>
      </trkpt>
      <trkpt lat="46.3839" lon="6.10457">
        <ele>959.747587</ele>
        <time>2024-09-15T12:41:38.000Z</time>
      </trkpt>
      <trkpt lat="46.38389" lon="6.10455">
        <ele>959.945513</ele>
        <time>2024-09-15T12:41:39.000Z</time>
      </trkpt>
      <trkpt lat="46.38389" lon="6.10453">
        <ele>960.076299</ele>
        <time>2024-09-15T12:41:40.000Z</time>
      </trkpt>
      <trkpt lat="46.38388" lon="6.10451">
        <ele>960.247742</ele>
        <time>2024-09-15T12:41:41.000Z</time>
      </trkpt>
      <trkpt lat="46.38386" lon="6.10449">
        <ele>960.422929</ele>
        <time>2024-09-15T12:41:42.000Z</time>
      </trkpt>
      <trkpt lat="46.38385" lon="6.10448">
        <ele>960.582566</ele>
        <time>2024-09-15T12:41:43.000Z</time>
      </trkpt>
      <trkpt lat="46.38384" lon="6.10445">
        <ele>960.780491</ele>
        <time>2024-09-15T12:41:44.000Z</time>
      </trkpt>
      <trkpt lat="46.38383" lon="6.10442">
        <ele>961.017172</ele>
        <time>2024-09-15T12:41:45.000Z</time>
      </trkpt>
      <trkpt lat="46.38383" lon="6.10438">
        <ele>961.31093</ele>
        <time>2024-09-15T12:41:46.000Z</time>
      </trkpt>
      <trkpt lat="46.38383" lon="6.10434">
        <ele>961.537162</ele>
        <time>2024-09-15T12:41:47.000Z</time>
      </trkpt>
      <trkpt lat="46.38382" lon="6.1043">
        <ele>961.819796</ele>
        <time>2024-09-15T12:41:48.000Z</time>
      </trkpt>
      <trkpt lat="46.38382" lon="6.10427">
        <ele>962.07495</ele>
        <time>2024-09-15T12:41:49.000Z</time>
      </trkpt>
      <trkpt lat="46.38382" lon="6.10424">
        <ele>962.287266</ele>
        <time>2024-09-15T12:41:50.000Z</time>
      </trkpt>
      <trkpt lat="46.38382" lon="6.1042">
        <ele>962.513498</ele>
        <time>2024-09-15T12:41:51.000Z</time>
      </trkpt>
      <trkpt lat="46.38381" lon="6.10417">
        <ele>962.761851</ele>
        <time>2024-09-15T12:41:52.000Z</time>
      </trkpt>
      <trkpt lat="46.38381" lon="6.10413">
        <ele>962.988083</ele>
        <time>2024-09-15T12:41:53.000Z</time>
      </trkpt>
      <trkpt lat="46.38381" lon="6.1041">
        <ele>963.228</ele>
        <time>2024-09-15T12:41:54.000Z</time>
      </trkpt>
      <trkpt lat="46.38382" lon="6.10407">
        <ele>963.419468</ele>
        <time>2024-09-15T12:41:55.000Z</time>
      </trkpt>
      <trkpt lat="46.38382" lon="6.10405">
        <ele>963.591174</ele>
        <time>2024-09-15T12:41:56.000Z</time>
      </trkpt>
      <trkpt lat="46.38383" lon="6.10402">
        <ele>963.779923</ele>
        <time>2024-09-15T12:41:57.000Z</time>
      </trkpt>
      <trkpt lat="46.38384" lon="6.104">
        <ele>963.989811</ele>
        <time>2024-09-15T12:41:58.000Z</time>
      </trkpt>
      <trkpt lat="46.38385" lon="6.10397">
        <ele>964.178559</ele>
        <time>2024-09-15T12:41:59.000Z</time>
      </trkpt>
      <trkpt lat="46.38386" lon="6.10395">
        <ele>964.354976</ele>
        <time>2024-09-15T12:42:00.000Z</time>
      </trkpt>
      <trkpt lat="46.38387" lon="6.10392">
        <ele>964.590575</ele>
        <time>2024-09-15T12:42:01.000Z</time>
      </trkpt>
      <trkpt lat="46.38389" lon="6.10391">
        <ele>964.723252</ele>
        <time>2024-09-15T12:42:02.000Z</time>
      </trkpt>
      <trkpt lat="46.3839" lon="6.1039">
        <ele>964.902109</ele>
        <time>2024-09-15T12:42:03.000Z</time>
      </trkpt>
      <trkpt lat="46.38392" lon="6.10389">
        <ele>965.06603</ele>
        <time>2024-09-15T12:42:04.000Z</time>
      </trkpt>
      <trkpt lat="46.38393" lon="6.10389">
        <ele>965.228535</ele>
        <time>2024-09-15T12:42:05.000Z</time>
      </trkpt>
      <trkpt lat="46.38395" lon="6.10388">
        <ele>965.389736</ele>
        <time>2024-09-15T12:42:06.000Z</time>
      </trkpt>
      <trkpt lat="46.38397" lon="6.10388">
        <ele>965.60827</ele>
        <time>2024-09-15T12:42:07.000Z</time>
      </trkpt>
      <trkpt lat="46.38398" lon="6.10389">
        <ele>965.760323</ele>
        <time>2024-09-15T12:42:08.000Z</time>
      </trkpt>
      <trkpt lat="46.384" lon="6.10391">
        <ele>965.953308</ele>
        <time>2024-09-15T12:42:09.000Z</time>
      </trkpt>
      <trkpt lat="46.38401" lon="6.10393">
        <ele>966.153325</ele>
        <time>2024-09-15T12:42:10.000Z</time>
      </trkpt>
      <trkpt lat="46.38403" lon="6.10395">
        <ele>966.339418</ele>
        <time>2024-09-15T12:42:11.000Z</time>
      </trkpt>
      <trkpt lat="46.38404" lon="6.10397">
        <ele>966.525621</ele>
        <time>2024-09-15T12:42:12.000Z</time>
      </trkpt>
      <trkpt lat="46.38405" lon="6.104">
        <ele>966.740383</ele>
        <time>2024-09-15T12:42:13.000Z</time>
      </trkpt>
      <trkpt lat="46.38406" lon="6.10403">
        <ele>966.954635</ele>
        <time>2024-09-15T12:42:14.000Z</time>
      </trkpt>
      <trkpt lat="46.38407" lon="6.10405">
        <ele>967.142842</ele>
        <time>2024-09-15T12:42:15.000Z</time>
      </trkpt>
      <trkpt lat="46.38409" lon="6.10408">
        <ele>967.408177</ele>
        <time>2024-09-15T12:42:16.000Z</time>
      </trkpt>
      <trkpt lat="46.38409" lon="6.10411">
        <ele>967.619742</ele>
        <time>2024-09-15T12:42:17.000Z</time>
      </trkpt>
      <trkpt lat="46.3841" lon="6.10413">
        <ele>967.823621</ele>
        <time>2024-09-15T12:42:18.000Z</time>
      </trkpt>
      <trkpt lat="46.38412" lon="6.10416">
        <ele>968.026631</ele>
        <time>2024-09-15T12:42:19.000Z</time>
      </trkpt>
      <trkpt lat="46.38413" lon="6.10418">
        <ele>968.251626</ele>
        <time>2024-09-15T12:42:20.000Z</time>
      </trkpt>
      <trkpt lat="46.38414" lon="6.1042">
        <ele>968.407238</ele>
        <time>2024-09-15T12:42:21.000Z</time>
      </trkpt>
      <trkpt lat="46.38416" lon="6.10423">
        <ele>968.598671</ele>
        <time>2024-09-15T12:42:22.000Z</time>
      </trkpt>
      <trkpt lat="46.38417" lon="6.10425">
        <ele>968.779967</ele>
        <time>2024-09-15T12:42:23.000Z</time>
      </trkpt>
      <trkpt lat="46.38418" lon="6.10428">
        <ele>968.992118</ele>
        <time>2024-09-15T12:42:24.000Z</time>
      </trkpt>
      <trkpt lat="46.38419" lon="6.1043">
        <ele>969.142046</ele>
        <time>2024-09-15T12:42:25.000Z</time>
      </trkpt>
      <trkpt lat="46.3842" lon="6.10432">
        <ele>969.328585</ele>
        <time>2024-09-15T12:42:26.000Z</time>
      </trkpt>
      <trkpt lat="46.38421" lon="6.10435">
        <ele>969.514538</ele>
        <time>2024-09-15T12:42:27.000Z</time>
      </trkpt>
      <trkpt lat="46.38422" lon="6.10437">
        <ele>969.690435</ele>
        <time>2024-09-15T12:42:28.000Z</time>
      </trkpt>
      <trkpt lat="46.38423" lon="6.1044">
        <ele>969.898055</ele>
        <time>2024-09-15T12:42:29.000Z</time>
      </trkpt>
      <trkpt lat="46.38425" lon="6.10443">
        <ele>970.105674</ele>
        <time>2024-09-15T12:42:30.000Z</time>
      </trkpt>
      <trkpt lat="46.38426" lon="6.10446">
        <ele>970.303477</ele>
        <time>2024-09-15T12:42:31.000Z</time>
      </trkpt>
      <trkpt lat="46.38427" lon="6.10448">
        <ele>970.489501</ele>
        <time>2024-09-15T12:42:32.000Z</time>
      </trkpt>
      <trkpt lat="46.38428" lon="6.10451">
        <ele>970.680569</ele>
        <time>2024-09-15T12:42:33.000Z</time>
      </trkpt>
      <trkpt lat="46.38429" lon="6.10453">
        <ele>970.870696</ele>
        <time>2024-09-15T12:42:34.000Z</time>
      </trkpt>
      <trkpt lat="46.3843" lon="6.10456">
        <ele>971.068498</ele>
        <time>2024-09-15T12:42:35.000Z</time>
      </trkpt>
      <trkpt lat="46.38431" lon="6.10459">
        <ele>971.260751</ele>
        <time>2024-09-15T12:42:36.000Z</time>
      </trkpt>
      <trkpt lat="46.38432" lon="6.10462">
        <ele>971.483755</ele>
        <time>2024-09-15T12:42:37.000Z</time>
      </trkpt>
      <trkpt lat="46.38433" lon="6.10464">
        <ele>971.633682</ele>
        <time>2024-09-15T12:42:38.000Z</time>
      </trkpt>
      <trkpt lat="46.38434" lon="6.10467">
        <ele>971.818029</ele>
        <time>2024-09-15T12:42:39.000Z</time>
      </trkpt>
      <trkpt lat="46.38434" lon="6.10469">
        <ele>971.981496</ele>
        <time>2024-09-15T12:42:40.000Z</time>
      </trkpt>
      <trkpt lat="46.38435" lon="6.10472">
        <ele>972.207613</ele>
        <time>2024-09-15T12:42:41.000Z</time>
      </trkpt>
      <trkpt lat="46.38436" lon="6.10475">
        <ele>972.4096</ele>
        <time>2024-09-15T12:42:42.000Z</time>
      </trkpt>
      <trkpt lat="46.38437" lon="6.10478">
        <ele>972.565617</ele>
        <time>2024-09-15T12:42:43.000Z</time>
      </trkpt>
      <trkpt lat="46.38438" lon="6.1048">
        <ele>972.755744</ele>
        <time>2024-09-15T12:42:44.000Z</time>
      </trkpt>
      <trkpt lat="46.38439" lon="6.10484">
        <ele>972.976132</ele>
        <time>2024-09-15T12:42:45.000Z</time>
      </trkpt>
      <trkpt lat="46.38439" lon="6.10485">
        <ele>973.107223</ele>
        <time>2024-09-15T12:42:46.000Z</time>
      </trkpt>
      <trkpt lat="46.3844" lon="6.10488">
        <ele>973.261484</ele>
        <time>2024-09-15T12:42:47.000Z</time>
      </trkpt>
      <trkpt lat="46.3844" lon="6.1049">
        <ele>973.415746</ele>
        <time>2024-09-15T12:42:48.000Z</time>
      </trkpt>
      <trkpt lat="46.38441" lon="6.10493">
        <ele>973.588635</ele>
        <time>2024-09-15T12:42:49.000Z</time>
      </trkpt>
      <trkpt lat="46.38442" lon="6.10496">
        <ele>973.79041</ele>
        <time>2024-09-15T12:42:50.000Z</time>
      </trkpt>
      <trkpt lat="46.38442" lon="6.10499">
        <ele>974.012973</ele>
        <time>2024-09-15T12:42:51.000Z</time>
      </trkpt>
      <trkpt lat="46.38442" lon="6.10502">
        <ele>974.176335</ele>
        <time>2024-09-15T12:42:52.000Z</time>
      </trkpt>
      <trkpt lat="46.38442" lon="6.10504">
        <ele>974.346691</ele>
        <time>2024-09-15T12:42:53.000Z</time>
      </trkpt>
      <trkpt lat="46.38443" lon="6.10507">
        <ele>974.518685</ele>
        <time>2024-09-15T12:42:54.000Z</time>
      </trkpt>
      <trkpt lat="46.38444" lon="6.1051">
        <ele>974.70013</ele>
        <time>2024-09-15T12:42:55.000Z</time>
      </trkpt>
      <trkpt lat="46.38444" lon="6.10513">
        <ele>974.882286</ele>
        <time>2024-09-15T12:42:56.000Z</time>
      </trkpt>
      <trkpt lat="46.38444" lon="6.10516">
        <ele>975.071366</ele>
        <time>2024-09-15T12:42:57.000Z</time>
      </trkpt>
      <trkpt lat="46.38444" lon="6.10519">
        <ele>975.275384</ele>
        <time>2024-09-15T12:42:58.000Z</time>
      </trkpt>
      <trkpt lat="46.38444" lon="6.10522">
        <ele>975.476955</ele>
        <time>2024-09-15T12:42:59.000Z</time>
      </trkpt>
      <trkpt lat="46.38445" lon="6.10525">
        <ele>975.67228</ele>
        <time>2024-09-15T12:43:00.000Z</time>
      </trkpt>
      <trkpt lat="46.38444" lon="6.10528">
        <ele>975.861359</ele>
        <time>2024-09-15T12:43:01.000Z</time>
      </trkpt>
      <trkpt lat="46.38444" lon="6.10531">
        <ele>976.049561</ele>
        <time>2024-09-15T12:43:02.000Z</time>
      </trkpt>
      <trkpt lat="46.38445" lon="6.10534">
        <ele>976.244886</ele>
        <time>2024-09-15T12:43:03.000Z</time>
      </trkpt>
      <trkpt lat="46.38445" lon="6.10537">
        <ele>976.433965</ele>
        <time>2024-09-15T12:43:04.000Z</time>
      </trkpt>
      <trkpt lat="46.38445" lon="6.10541">
        <ele>976.641187</ele>
        <time>2024-09-15T12:43:05.000Z</time>
      </trkpt>
      <trkpt lat="46.38445" lon="6.10543">
        <ele>976.828712</ele>
        <time>2024-09-15T12:43:06.000Z</time>
      </trkpt>
      <trkpt lat="46.38446" lon="6.10546">
        <ele>977.006667</ele>
        <time>2024-09-15T12:43:07.000Z</time>
      </trkpt>
      <trkpt lat="46.38446" lon="6.10549">
        <ele>977.183261</ele>
        <time>2024-09-15T12:43:08.000Z</time>
      </trkpt>
      <trkpt lat="46.38446" lon="6.10552">
        <ele>977.366097</ele>
        <time>2024-09-15T12:43:09.000Z</time>
      </trkpt>
      <trkpt lat="46.38446" lon="6.10555">
        <ele>977.554299</ele>
        <time>2024-09-15T12:43:10.000Z</time>
      </trkpt>
      <trkpt lat="46.38447" lon="6.10558">
        <ele>977.725864</ele>
        <time>2024-09-15T12:43:11.000Z</time>
      </trkpt>
      <trkpt lat="46.38447" lon="6.1056">
        <ele>977.89743</ele>
        <time>2024-09-15T12:43:12.000Z</time>
      </trkpt>
      <trkpt lat="46.38447" lon="6.10563">
        <ele>978.091905</ele>
        <time>2024-09-15T12:43:13.000Z</time>
      </trkpt>
      <trkpt lat="46.38447" lon="6.10566">
        <ele>978.273834</ele>
        <time>2024-09-15T12:43:14.000Z</time>
      </trkpt>
      <trkpt lat="46.38447" lon="6.10569">
        <ele>978.455763</ele>
        <time>2024-09-15T12:43:15.000Z</time>
      </trkpt>
      <trkpt lat="46.38447" lon="6.10572">
        <ele>978.643965</ele>
        <time>2024-09-15T12:43:16.000Z</time>
      </trkpt>
      <trkpt lat="46.38447" lon="6.10575">
        <ele>978.819856</ele>
        <time>2024-09-15T12:43:17.000Z</time>
      </trkpt>
      <trkpt lat="46.38447" lon="6.10578">
        <ele>979.002012</ele>
        <time>2024-09-15T12:43:18.000Z</time>
      </trkpt>
      <trkpt lat="46.38447" lon="6.10581">
        <ele>979.177902</ele>
        <time>2024-09-15T12:43:19.000Z</time>
      </trkpt>
      <trkpt lat="46.38447" lon="6.10584">
        <ele>979.372378</ele>
        <time>2024-09-15T12:43:20.000Z</time>
      </trkpt>
      <trkpt lat="46.38447" lon="6.10587">
        <ele>979.585674</ele>
        <time>2024-09-15T12:43:21.000Z</time>
      </trkpt>
      <trkpt lat="46.38447" lon="6.1059">
        <ele>979.780149</ele>
        <time>2024-09-15T12:43:22.000Z</time>
      </trkpt>
      <trkpt lat="46.38447" lon="6.10593">
        <ele>979.974837</ele>
        <time>2024-09-15T12:43:23.000Z</time>
      </trkpt>
      <trkpt lat="46.38447" lon="6.10596">
        <ele>980.169526</ele>
        <time>2024-09-15T12:43:24.000Z</time>
      </trkpt>
      <trkpt lat="46.38447" lon="6.10599">
        <ele>980.358605</ele>
        <time>2024-09-15T12:43:25.000Z</time>
      </trkpt>
      <trkpt lat="46.38448" lon="6.10602">
        <ele>980.54144</ele>
        <time>2024-09-15T12:43:26.000Z</time>
      </trkpt>
      <trkpt lat="46.38448" lon="6.10605">
        <ele>980.730519</ele>
        <time>2024-09-15T12:43:27.000Z</time>
      </trkpt>
      <trkpt lat="46.38448" lon="6.10608">
        <ele>980.925844</ele>
        <time>2024-09-15T12:43:28.000Z</time>
      </trkpt>
      <trkpt lat="46.38448" lon="6.10612">
        <ele>981.128438</ele>
        <time>2024-09-15T12:43:29.000Z</time>
      </trkpt>
      <trkpt lat="46.38449" lon="6.10615">
        <ele>981.340395</ele>
        <time>2024-09-15T12:43:30.000Z</time>
      </trkpt>
      <trkpt lat="46.38449" lon="6.10618">
        <ele>981.540116</ele>
        <time>2024-09-15T12:43:31.000Z</time>
      </trkpt>
      <trkpt lat="46.3845" lon="6.10621">
        <ele>981.726952</ele>
        <time>2024-09-15T12:43:32.000Z</time>
      </trkpt>
      <trkpt lat="46.3845" lon="6.10624">
        <ele>981.902331</ele>
        <time>2024-09-15T12:43:33.000Z</time>
      </trkpt>
      <trkpt lat="46.38451" lon="6.10626">
        <ele>982.092266</ele>
        <time>2024-09-15T12:43:34.000Z</time>
      </trkpt>
      <trkpt lat="46.38452" lon="6.10629">
        <ele>982.290943</ele>
        <time>2024-09-15T12:43:35.000Z</time>
      </trkpt>
      <trkpt lat="46.38452" lon="6.10633">
        <ele>982.492929</ele>
        <time>2024-09-15T12:43:36.000Z</time>
      </trkpt>
      <trkpt lat="46.38453" lon="6.10635">
        <ele>982.696322</ele>
        <time>2024-09-15T12:43:37.000Z</time>
      </trkpt>
      <trkpt lat="46.38454" lon="6.10638">
        <ele>982.89011</ele>
        <time>2024-09-15T12:43:38.000Z</time>
      </trkpt>
      <trkpt lat="46.38455" lon="6.10641">
        <ele>983.076859</ele>
        <time>2024-09-15T12:43:39.000Z</time>
      </trkpt>
      <trkpt lat="46.38456" lon="6.10644">
        <ele>983.269111</ele>
        <time>2024-09-15T12:43:40.000Z</time>
      </trkpt>
      <trkpt lat="46.38457" lon="6.10646">
        <ele>983.465828</ele>
        <time>2024-09-15T12:43:41.000Z</time>
      </trkpt>
      <trkpt lat="46.38458" lon="6.10649">
        <ele>983.662545</ele>
        <time>2024-09-15T12:43:42.000Z</time>
      </trkpt>
      <trkpt lat="46.3846" lon="6.10652">
        <ele>983.864039</ele>
        <time>2024-09-15T12:43:43.000Z</time>
      </trkpt>
      <trkpt lat="46.38461" lon="6.10654">
        <ele>984.055107</ele>
        <time>2024-09-15T12:43:44.000Z</time>
      </trkpt>
      <trkpt lat="46.38462" lon="6.10657">
        <ele>984.251824</ele>
        <time>2024-09-15T12:43:45.000Z</time>
      </trkpt>
      <trkpt lat="46.38463" lon="6.10659">
        <ele>984.448074</ele>
        <time>2024-09-15T12:43:46.000Z</time>
      </trkpt>
      <trkpt lat="46.38464" lon="6.10662">
        <ele>984.629564</ele>
        <time>2024-09-15T12:43:47.000Z</time>
      </trkpt>
      <trkpt lat="46.38465" lon="6.10665">
        <ele>984.810681</ele>
        <time>2024-09-15T12:43:48.000Z</time>
      </trkpt>
      <trkpt lat="46.38466" lon="6.10667">
        <ele>984.991594</ele>
        <time>2024-09-15T12:43:49.000Z</time>
      </trkpt>
      <trkpt lat="46.38468" lon="6.10669">
        <ele>985.167844</ele>
        <time>2024-09-15T12:43:50.000Z</time>
      </trkpt>
      <trkpt lat="46.38469" lon="6.10671">
        <ele>985.333757</ele>
        <time>2024-09-15T12:43:51.000Z</time>
      </trkpt>
      <trkpt lat="46.3847" lon="6.10673">
        <ele>985.470208</ele>
        <time>2024-09-15T12:43:52.000Z</time>
      </trkpt>
      <trkpt lat="46.3847" lon="6.10675">
        <ele>985.616166</ele>
        <time>2024-09-15T12:43:53.000Z</time>
      </trkpt>
      <trkpt lat="46.38472" lon="6.10678">
        <ele>985.812215</ele>
        <time>2024-09-15T12:43:54.000Z</time>
      </trkpt>
      <trkpt lat="46.38473" lon="6.10681">
        <ele>986.009474</ele>
        <time>2024-09-15T12:43:55.000Z</time>
      </trkpt>
      <trkpt lat="46.38473" lon="6.10684">
        <ele>986.205369</ele>
        <time>2024-09-15T12:43:56.000Z</time>
      </trkpt>
      <trkpt lat="46.38474" lon="6.10687">
        <ele>986.393147</ele>
        <time>2024-09-15T12:43:57.000Z</time>
      </trkpt>
      <trkpt lat="46.38474" lon="6.1069">
        <ele>986.595662</ele>
        <time>2024-09-15T12:43:58.000Z</time>
      </trkpt>
      <trkpt lat="46.38475" lon="6.10694">
        <ele>986.79704</ele>
        <time>2024-09-15T12:43:59.000Z</time>
      </trkpt>
      <trkpt lat="46.38476" lon="6.10697">
        <ele>986.99273</ele>
        <time>2024-09-15T12:44:00.000Z</time>
      </trkpt>
      <trkpt lat="46.38476" lon="6.10699">
        <ele>987.180675</ele>
        <time>2024-09-15T12:44:01.000Z</time>
      </trkpt>
      <trkpt lat="46.38477" lon="6.10703">
        <ele>987.387762</ele>
        <time>2024-09-15T12:44:02.000Z</time>
      </trkpt>
      <trkpt lat="46.38478" lon="6.10706">
        <ele>987.580447</ele>
        <time>2024-09-15T12:44:03.000Z</time>
      </trkpt>
      <trkpt lat="46.38479" lon="6.10709">
        <ele>987.784697</ele>
        <time>2024-09-15T12:44:04.000Z</time>
      </trkpt>
      <trkpt lat="46.3848" lon="6.10712">
        <ele>987.980745</ele>
        <time>2024-09-15T12:44:05.000Z</time>
      </trkpt>
      <trkpt lat="46.38481" lon="6.10715">
        <ele>988.197024</ele>
        <time>2024-09-15T12:44:06.000Z</time>
      </trkpt>
      <trkpt lat="46.38482" lon="6.10718">
        <ele>988.40411</ele>
        <time>2024-09-15T12:44:07.000Z</time>
      </trkpt>
      <trkpt lat="46.38483" lon="6.10721">
        <ele>988.582897</ele>
        <time>2024-09-15T12:44:08.000Z</time>
      </trkpt>
      <trkpt lat="46.38483" lon="6.10723">
        <ele>988.747055</ele>
        <time>2024-09-15T12:44:09.000Z</time>
      </trkpt>
      <trkpt lat="46.38484" lon="6.10725">
        <ele>988.913258</ele>
        <time>2024-09-15T12:44:10.000Z</time>
      </trkpt>
      <trkpt lat="46.38485" lon="6.10728">
        <ele>989.077416</ele>
        <time>2024-09-15T12:44:11.000Z</time>
      </trkpt>
      <trkpt lat="46.38486" lon="6.1073">
        <ele>989.242733</ele>
        <time>2024-09-15T12:44:12.000Z</time>
      </trkpt>
      <trkpt lat="46.38487" lon="6.10732">
        <ele>989.413013</ele>
        <time>2024-09-15T12:44:13.000Z</time>
      </trkpt>
      <trkpt lat="46.38488" lon="6.10735">
        <ele>989.584586</ele>
        <time>2024-09-15T12:44:14.000Z</time>
      </trkpt>
      <trkpt lat="46.38489" lon="6.10737">
        <ele>989.760414</ele>
        <time>2024-09-15T12:44:15.000Z</time>
      </trkpt>
      <trkpt lat="46.3849" lon="6.1074">
        <ele>989.926327</ele>
        <time>2024-09-15T12:44:16.000Z</time>
      </trkpt>
      <trkpt lat="46.38492" lon="6.10741">
        <ele>990.102017</ele>
        <time>2024-09-15T12:44:17.000Z</time>
      </trkpt>
      <trkpt lat="46.38493" lon="6.10744">
        <ele>990.273691</ele>
        <time>2024-09-15T12:44:18.000Z</time>
      </trkpt>
      <trkpt lat="46.38494" lon="6.10746">
        <ele>990.44994</ele>
        <time>2024-09-15T12:44:19.000Z</time>
      </trkpt>
      <trkpt lat="46.38495" lon="6.10748">
        <ele>990.611214</ele>
        <time>2024-09-15T12:44:20.000Z</time>
      </trkpt>
      <trkpt lat="46.38497" lon="6.1075">
        <ele>990.769772</ele>
        <time>2024-09-15T12:44:21.000Z</time>
      </trkpt>
      <trkpt lat="46.38498" lon="6.10751">
        <ele>990.926507</ele>
        <time>2024-09-15T12:44:22.000Z</time>
      </trkpt>
      <trkpt lat="46.38499" lon="6.10753">
        <ele>991.102197</ele>
        <time>2024-09-15T12:44:23.000Z</time>
      </trkpt>
      <trkpt lat="46.38501" lon="6.10755">
        <ele>991.275559</ele>
        <time>2024-09-15T12:44:24.000Z</time>
      </trkpt>
      <trkpt lat="46.38502" lon="6.10757">
        <ele>991.436636</ele>
        <time>2024-09-15T12:44:25.000Z</time>
      </trkpt>
      <trkpt lat="46.38504" lon="6.10759">
        <ele>991.612168</ele>
        <time>2024-09-15T12:44:26.000Z</time>
      </trkpt>
      <trkpt lat="46.38505" lon="6.1076">
        <ele>991.755969</ele>
        <time>2024-09-15T12:44:27.000Z</time>
      </trkpt>
      <trkpt lat="46.38506" lon="6.10762">
        <ele>991.918789</ele>
        <time>2024-09-15T12:44:28.000Z</time>
      </trkpt>
      <trkpt lat="46.38508" lon="6.10764">
        <ele>992.069201</ele>
        <time>2024-09-15T12:44:29.000Z</time>
      </trkpt>
      <trkpt lat="46.38509" lon="6.10765">
        <ele>992.215748</ele>
        <time>2024-09-15T12:44:30.000Z</time>
      </trkpt>
      <trkpt lat="46.3851" lon="6.10767">
        <ele>992.384896</ele>
        <time>2024-09-15T12:44:31.000Z</time>
      </trkpt>
      <trkpt lat="46.38512" lon="6.10769">
        <ele>992.545972</ele>
        <time>2024-09-15T12:44:32.000Z</time>
      </trkpt>
      <trkpt lat="46.38513" lon="6.10771">
        <ele>992.704531</ele>
        <time>2024-09-15T12:44:33.000Z</time>
      </trkpt>
      <trkpt lat="46.38515" lon="6.10772">
        <ele>992.876278</ele>
        <time>2024-09-15T12:44:34.000Z</time>
      </trkpt>
      <trkpt lat="46.38516" lon="6.10774">
        <ele>993.061956</ele>
        <time>2024-09-15T12:44:35.000Z</time>
      </trkpt>
      <trkpt lat="46.38518" lon="6.10776">
        <ele>993.231103</ele>
        <time>2024-09-15T12:44:36.000Z</time>
      </trkpt>
      <trkpt lat="46.38519" lon="6.10778">
        <ele>993.397016</ele>
        <time>2024-09-15T12:44:37.000Z</time>
      </trkpt>
      <trkpt lat="46.3852" lon="6.1078">
        <ele>993.56421</ele>
        <time>2024-09-15T12:44:38.000Z</time>
      </trkpt>
      <trkpt lat="46.38522" lon="6.10782">
        <ele>993.732144</ele>
        <time>2024-09-15T12:44:39.000Z</time>
      </trkpt>
      <trkpt lat="46.38523" lon="6.10784">
        <ele>993.900077</ele>
        <time>2024-09-15T12:44:40.000Z</time>
      </trkpt>
      <trkpt lat="46.38525" lon="6.10785">
        <ele>994.075767</ele>
        <time>2024-09-15T12:44:41.000Z</time>
      </trkpt>
      <trkpt lat="46.38526" lon="6.10787">
        <ele>994.240816</ele>
        <time>2024-09-15T12:44:42.000Z</time>
      </trkpt>
      <trkpt lat="46.38528" lon="6.10789">
        <ele>994.401892</ele>
        <time>2024-09-15T12:44:43.000Z</time>
      </trkpt>
      <trkpt lat="46.38529" lon="6.10791">
        <ele>994.569825</ele>
        <time>2024-09-15T12:44:44.000Z</time>
      </trkpt>
      <trkpt lat="46.3853" lon="6.10792">
        <ele>994.722127</ele>
        <time>2024-09-15T12:44:45.000Z</time>
      </trkpt>
      <trkpt lat="46.38531" lon="6.10794">
        <ele>994.877755</ele>
        <time>2024-09-15T12:44:46.000Z</time>
      </trkpt>
      <trkpt lat="46.38532" lon="6.10796">
        <ele>995.028672</ele>
        <time>2024-09-15T12:44:47.000Z</time>
      </trkpt>
      <trkpt lat="46.38534" lon="6.10798">
        <ele>995.185911</ele>
        <time>2024-09-15T12:44:48.000Z</time>
      </trkpt>
      <trkpt lat="46.38535" lon="6.10799">
        <ele>995.343261</ele>
        <time>2024-09-15T12:44:49.000Z</time>
      </trkpt>
      <trkpt lat="46.38537" lon="6.10801">
        <ele>995.507517</ele>
        <time>2024-09-15T12:44:50.000Z</time>
      </trkpt>
      <trkpt lat="46.38538" lon="6.10803">
        <ele>995.687929</ele>
        <time>2024-09-15T12:44:51.000Z</time>
      </trkpt>
      <trkpt lat="46.38539" lon="6.10806">
        <ele>995.85852</ele>
        <time>2024-09-15T12:44:52.000Z</time>
      </trkpt>
      <trkpt lat="46.3854" lon="6.10808">
        <ele>996.036205</ele>
        <time>2024-09-15T12:44:53.000Z</time>
      </trkpt>
      <trkpt lat="46.38542" lon="6.1081">
        <ele>996.222544</ele>
        <time>2024-09-15T12:44:54.000Z</time>
      </trkpt>
      <trkpt lat="46.38544" lon="6.10812">
        <ele>996.408882</ele>
        <time>2024-09-15T12:44:55.000Z</time>
      </trkpt>
      <trkpt lat="46.38545" lon="6.10814">
        <ele>996.571702</ele>
        <time>2024-09-15T12:44:56.000Z</time>
      </trkpt>
      <trkpt lat="46.38546" lon="6.10816">
        <ele>996.72262</ele>
        <time>2024-09-15T12:44:57.000Z</time>
      </trkpt>
      <trkpt lat="46.38547" lon="6.10817">
        <ele>996.862373</ele>
        <time>2024-09-15T12:44:58.000Z</time>
      </trkpt>
      <trkpt lat="46.38548" lon="6.10819">
        <ele>996.977732</ele>
        <time>2024-09-15T12:44:59.000Z</time>
      </trkpt>
      <trkpt lat="46.38549" lon="6.10821">
        <ele>997.12865</ele>
        <time>2024-09-15T12:45:00.000Z</time>
      </trkpt>
      <trkpt lat="46.38551" lon="6.10823">
        <ele>997.319017</ele>
        <time>2024-09-15T12:45:01.000Z</time>
      </trkpt>
      <trkpt lat="46.38552" lon="6.10824">
        <ele>997.497787</ele>
        <time>2024-09-15T12:45:02.000Z</time>
      </trkpt>
      <trkpt lat="46.38554" lon="6.10826">
        <ele>997.633646</ele>
        <time>2024-09-15T12:45:03.000Z</time>
      </trkpt>
      <trkpt lat="46.38555" lon="6.10827">
        <ele>997.781633</ele>
        <time>2024-09-15T12:45:04.000Z</time>
      </trkpt>
      <trkpt lat="46.38556" lon="6.10829">
        <ele>997.948827</ele>
        <time>2024-09-15T12:45:05.000Z</time>
      </trkpt>
      <trkpt lat="46.38558" lon="6.10832">
        <ele>998.141403</ele>
        <time>2024-09-15T12:45:06.000Z</time>
      </trkpt>
      <trkpt lat="46.38559" lon="6.10834">
        <ele>998.342397</ele>
        <time>2024-09-15T12:45:07.000Z</time>
      </trkpt>
      <trkpt lat="46.38561" lon="6.10836">
        <ele>998.526321</ele>
        <time>2024-09-15T12:45:08.000Z</time>
      </trkpt>
      <trkpt lat="46.38562" lon="6.10838">
        <ele>998.707232</ele>
        <time>2024-09-15T12:45:09.000Z</time>
      </trkpt>
      <trkpt lat="46.38564" lon="6.1084">
        <ele>998.940719</ele>
        <time>2024-09-15T12:45:10.000Z</time>
      </trkpt>
      <trkpt lat="46.38566" lon="6.10842">
        <ele>999.155895</ele>
        <time>2024-09-15T12:45:11.000Z</time>
      </trkpt>
      <trkpt lat="46.38568" lon="6.10844">
        <ele>999.330861</ele>
        <time>2024-09-15T12:45:12.000Z</time>
      </trkpt>
      <trkpt lat="46.38569" lon="6.10845">
        <ele>999.470614</ele>
        <time>2024-09-15T12:45:13.000Z</time>
      </trkpt>
      <trkpt lat="46.38571" lon="6.10848">
        <ele>999.66319</ele>
        <time>2024-09-15T12:45:14.000Z</time>
      </trkpt>
      <trkpt lat="46.38572" lon="6.10849">
        <ele>999.8132</ele>
        <time>2024-09-15T12:45:15.000Z</time>
      </trkpt>
      <trkpt lat="46.38573" lon="6.10851">
        <ele>999.957</ele>
        <time>2024-09-15T12:45:16.000Z</time>
      </trkpt>
      <trkpt lat="46.38575" lon="6.10853">
        <ele>1000.153994</ele>
        <time>2024-09-15T12:45:17.000Z</time>
      </trkpt>
      <trkpt lat="46.38577" lon="6.10854">
        <ele>1000.308135</ele>
        <time>2024-09-15T12:45:18.000Z</time>
      </trkpt>
      <trkpt lat="46.38578" lon="6.10855">
        <ele>1000.480269</ele>
        <time>2024-09-15T12:45:19.000Z</time>
      </trkpt>
      <trkpt lat="46.38579" lon="6.10857">
        <ele>1000.623309</ele>
        <time>2024-09-15T12:45:20.000Z</time>
      </trkpt>
      <trkpt lat="46.38581" lon="6.10858">
        <ele>1000.76682</ele>
        <time>2024-09-15T12:45:21.000Z</time>
      </trkpt>
      <trkpt lat="46.38581" lon="6.1086">
        <ele>1000.879966</ele>
        <time>2024-09-15T12:45:22.000Z</time>
      </trkpt>
      <trkpt lat="46.38582" lon="6.10861">
        <ele>1000.987995</ele>
        <time>2024-09-15T12:45:23.000Z</time>
      </trkpt>
      <trkpt lat="46.38583" lon="6.10862">
        <ele>1001.105593</ele>
        <time>2024-09-15T12:45:24.000Z</time>
      </trkpt>
      <trkpt lat="46.38585" lon="6.10863">
        <ele>1001.249821</ele>
        <time>2024-09-15T12:45:25.000Z</time>
      </trkpt>
      <trkpt lat="46.38586" lon="6.10864">
        <ele>1001.421077</ele>
        <time>2024-09-15T12:45:26.000Z</time>
      </trkpt>
      <trkpt lat="46.38588" lon="6.10866">
        <ele>1001.619596</ele>
        <time>2024-09-15T12:45:27.000Z</time>
      </trkpt>
      <trkpt lat="46.3859" lon="6.10867">
        <ele>1001.830374</ele>
        <time>2024-09-15T12:45:28.000Z</time>
      </trkpt>
      <trkpt lat="46.38592" lon="6.10868">
        <ele>1001.993534</ele>
        <time>2024-09-15T12:45:29.000Z</time>
      </trkpt>
      <trkpt lat="46.38594" lon="6.1087">
        <ele>1002.18811</ele>
        <time>2024-09-15T12:45:30.000Z</time>
      </trkpt>
      <trkpt lat="46.38595" lon="6.10871">
        <ele>1002.353155</ele>
        <time>2024-09-15T12:45:31.000Z</time>
      </trkpt>
      <trkpt lat="46.38597" lon="6.10873">
        <ele>1002.503738</ele>
        <time>2024-09-15T12:45:32.000Z</time>
      </trkpt>
      <trkpt lat="46.38598" lon="6.10874">
        <ele>1002.666558</ele>
        <time>2024-09-15T12:45:33.000Z</time>
      </trkpt>
      <trkpt lat="46.386" lon="6.10876">
        <ele>1002.857226</ele>
        <time>2024-09-15T12:45:34.000Z</time>
      </trkpt>
      <trkpt lat="46.38602" lon="6.10877">
        <ele>1003.044936</ele>
        <time>2024-09-15T12:45:35.000Z</time>
      </trkpt>
      <trkpt lat="46.38603" lon="6.10879">
        <ele>1003.232982</ele>
        <time>2024-09-15T12:45:36.000Z</time>
      </trkpt>
      <trkpt lat="46.38605" lon="6.1088">
        <ele>1003.434138</ele>
        <time>2024-09-15T12:45:37.000Z</time>
      </trkpt>
      <trkpt lat="46.38607" lon="6.10882">
        <ele>1003.638089</ele>
        <time>2024-09-15T12:45:38.000Z</time>
      </trkpt>
      <trkpt lat="46.3861" lon="6.10883">
        <ele>1003.844906</ele>
        <time>2024-09-15T12:45:39.000Z</time>
      </trkpt>
      <trkpt lat="46.38612" lon="6.10885">
        <ele>1004.06148</ele>
        <time>2024-09-15T12:45:40.000Z</time>
      </trkpt>
      <trkpt lat="46.38613" lon="6.10886">
        <ele>1004.249189</ele>
        <time>2024-09-15T12:45:41.000Z</time>
      </trkpt>
      <trkpt lat="46.38615" lon="6.10887">
        <ele>1004.428632</ele>
        <time>2024-09-15T12:45:42.000Z</time>
      </trkpt>
      <trkpt lat="46.38617" lon="6.10889">
        <ele>1004.610773</ele>
        <time>2024-09-15T12:45:43.000Z</time>
      </trkpt>
      <trkpt lat="46.38619" lon="6.1089">
        <ele>1004.780039</ele>
        <time>2024-09-15T12:45:44.000Z</time>
      </trkpt>
      <trkpt lat="46.38621" lon="6.10892">
        <ele>1004.994909</ele>
        <time>2024-09-15T12:45:45.000Z</time>
      </trkpt>
      <trkpt lat="46.38623" lon="6.10893">
        <ele>1005.193429</ele>
        <time>2024-09-15T12:45:46.000Z</time>
      </trkpt>
      <trkpt lat="46.38625" lon="6.10894">
        <ele>1005.386469</ele>
        <time>2024-09-15T12:45:47.000Z</time>
      </trkpt>
      <trkpt lat="46.38626" lon="6.10896">
        <ele>1005.577705</ele>
        <time>2024-09-15T12:45:48.000Z</time>
      </trkpt>
      <trkpt lat="46.38628" lon="6.10897">
        <ele>1005.771448</ele>
        <time>2024-09-15T12:45:49.000Z</time>
      </trkpt>
      <trkpt lat="46.3863" lon="6.10898">
        <ele>1005.969968</ele>
        <time>2024-09-15T12:45:50.000Z</time>
      </trkpt>
      <trkpt lat="46.38632" lon="6.109">
        <ele>1006.14705</ele>
        <time>2024-09-15T12:45:51.000Z</time>
      </trkpt>
      <trkpt lat="46.38634" lon="6.10901">
        <ele>1006.335095</ele>
        <time>2024-09-15T12:45:52.000Z</time>
      </trkpt>
      <trkpt lat="46.38636" lon="6.10902">
        <ele>1006.512019</ele>
        <time>2024-09-15T12:45:53.000Z</time>
      </trkpt>
      <trkpt lat="46.38638" lon="6.10904">
        <ele>1006.691461</ele>
        <time>2024-09-15T12:45:54.000Z</time>
      </trkpt>
      <trkpt lat="46.38639" lon="6.10905">
        <ele>1006.870903</ele>
        <time>2024-09-15T12:45:55.000Z</time>
      </trkpt>
      <trkpt lat="46.38641" lon="6.10906">
        <ele>1007.042158</ele>
        <time>2024-09-15T12:45:56.000Z</time>
      </trkpt>
      <trkpt lat="46.38643" lon="6.10907">
        <ele>1007.211424</ele>
        <time>2024-09-15T12:45:57.000Z</time>
      </trkpt>
      <trkpt lat="46.38644" lon="6.10909">
        <ele>1007.409478</ele>
        <time>2024-09-15T12:45:58.000Z</time>
      </trkpt>
      <trkpt lat="46.38646" lon="6.10911">
        <ele>1007.597524</ele>
        <time>2024-09-15T12:45:59.000Z</time>
      </trkpt>
      <trkpt lat="46.38648" lon="6.10912">
        <ele>1007.785233</ele>
        <time>2024-09-15T12:46:00.000Z</time>
      </trkpt>
      <trkpt lat="46.3865" lon="6.10913">
        <ele>1007.932268</ele>
        <time>2024-09-15T12:46:01.000Z</time>
      </trkpt>
      <trkpt lat="46.38651" lon="6.10914">
        <ele>1008.079575</ele>
        <time>2024-09-15T12:46:02.000Z</time>
      </trkpt>
      <trkpt lat="46.38653" lon="6.10915">
        <ele>1008.234746</ele>
        <time>2024-09-15T12:46:03.000Z</time>
      </trkpt>
      <trkpt lat="46.38654" lon="6.10917">
        <ele>1008.403417</ele>
        <time>2024-09-15T12:46:04.000Z</time>
      </trkpt>
      <trkpt lat="46.38656" lon="6.10918">
        <ele>1008.572088</ele>
        <time>2024-09-15T12:46:05.000Z</time>
      </trkpt>
      <trkpt lat="46.38657" lon="6.1092">
        <ele>1008.733552</ele>
        <time>2024-09-15T12:46:06.000Z</time>
      </trkpt>
      <trkpt lat="46.38658" lon="6.10921">
        <ele>1008.895131</ele>
        <time>2024-09-15T12:46:07.000Z</time>
      </trkpt>
      <trkpt lat="46.3866" lon="6.10923">
        <ele>1009.041808</ele>
        <time>2024-09-15T12:46:08.000Z</time>
      </trkpt>
      <trkpt lat="46.38661" lon="6.10925">
        <ele>1009.222219</ele>
        <time>2024-09-15T12:46:09.000Z</time>
      </trkpt>
      <trkpt lat="46.38663" lon="6.10926">
        <ele>1009.401888</ele>
        <time>2024-09-15T12:46:10.000Z</time>
      </trkpt>
      <trkpt lat="46.38665" lon="6.10928">
        <ele>1009.588939</ele>
        <time>2024-09-15T12:46:11.000Z</time>
      </trkpt>
      <trkpt lat="46.38666" lon="6.1093">
        <ele>1009.757609</ele>
        <time>2024-09-15T12:46:12.000Z</time>
      </trkpt>
      <trkpt lat="46.38668" lon="6.10931">
        <ele>1009.933657</ele>
        <time>2024-09-15T12:46:13.000Z</time>
      </trkpt>
      <trkpt lat="46.3867" lon="6.10932">
        <ele>1010.121366</ele>
        <time>2024-09-15T12:46:14.000Z</time>
      </trkpt>
      <trkpt lat="46.38671" lon="6.10934">
        <ele>1010.303507</ele>
        <time>2024-09-15T12:46:15.000Z</time>
      </trkpt>
      <trkpt lat="46.38673" lon="6.10935">
        <ele>1010.463892</ele>
        <time>2024-09-15T12:46:16.000Z</time>
      </trkpt>
      <trkpt lat="46.38675" lon="6.10936">
        <ele>1010.630058</ele>
        <time>2024-09-15T12:46:17.000Z</time>
      </trkpt>
      <trkpt lat="46.38676" lon="6.10937">
        <ele>1010.804649</ele>
        <time>2024-09-15T12:46:18.000Z</time>
      </trkpt>
      <trkpt lat="46.38678" lon="6.10938">
        <ele>1010.970772</ele>
        <time>2024-09-15T12:46:19.000Z</time>
      </trkpt>
      <trkpt lat="46.3868" lon="6.10939">
        <ele>1011.144853</ele>
        <time>2024-09-15T12:46:20.000Z</time>
      </trkpt>
      <trkpt lat="46.38681" lon="6.10941">
        <ele>1011.331904</ele>
        <time>2024-09-15T12:46:21.000Z</time>
      </trkpt>
      <trkpt lat="46.38683" lon="6.10943">
        <ele>1011.516915</ele>
        <time>2024-09-15T12:46:22.000Z</time>
      </trkpt>
      <trkpt lat="46.38685" lon="6.10944">
        <ele>1011.693838</ele>
        <time>2024-09-15T12:46:23.000Z</time>
      </trkpt>
      <trkpt lat="46.38687" lon="6.10945">
        <ele>1011.860003</ele>
        <time>2024-09-15T12:46:24.000Z</time>
      </trkpt>
      <trkpt lat="46.38689" lon="6.10945">
        <ele>1012.03756</ele>
        <time>2024-09-15T12:46:25.000Z</time>
      </trkpt>
      <trkpt lat="46.3869" lon="6.10946">
        <ele>1012.193002</ele>
        <time>2024-09-15T12:46:26.000Z</time>
      </trkpt>
      <trkpt lat="46.38692" lon="6.10947">
        <ele>1012.378304</ele>
        <time>2024-09-15T12:46:27.000Z</time>
      </trkpt>
      <trkpt lat="46.38694" lon="6.10948">
        <ele>1012.54447</ele>
        <time>2024-09-15T12:46:28.000Z</time>
      </trkpt>
      <trkpt lat="46.38695" lon="6.10949">
        <ele>1012.702279</ele>
        <time>2024-09-15T12:46:29.000Z</time>
      </trkpt>
      <trkpt lat="46.38697" lon="6.10951">
        <ele>1012.856732</ele>
        <time>2024-09-15T12:46:30.000Z</time>
      </trkpt>
      <trkpt lat="46.38698" lon="6.10952">
        <ele>1013.030813</ele>
        <time>2024-09-15T12:46:31.000Z</time>
      </trkpt>
      <trkpt lat="46.387" lon="6.10953">
        <ele>1013.205404</ele>
        <time>2024-09-15T12:46:32.000Z</time>
      </trkpt>
      <trkpt lat="46.38702" lon="6.10954">
        <ele>1013.348127</ele>
        <time>2024-09-15T12:46:33.000Z</time>
      </trkpt>
      <trkpt lat="46.38703" lon="6.10955">
        <ele>1013.505937</ele>
        <time>2024-09-15T12:46:34.000Z</time>
      </trkpt>
      <trkpt lat="46.38705" lon="6.10956">
        <ele>1013.650164</ele>
        <time>2024-09-15T12:46:35.000Z</time>
      </trkpt>
      <trkpt lat="46.38706" lon="6.10957">
        <ele>1013.821418</ele>
        <time>2024-09-15T12:46:36.000Z</time>
      </trkpt>
      <trkpt lat="46.38708" lon="6.10959">
        <ele>1013.9985</ele>
        <time>2024-09-15T12:46:37.000Z</time>
      </trkpt>
      <trkpt lat="46.3871" lon="6.1096">
        <ele>1014.18879</ele>
        <time>2024-09-15T12:46:38.000Z</time>
      </trkpt>
      <trkpt lat="46.38712" lon="6.10961">
        <ele>1014.341041</ele>
        <time>2024-09-15T12:46:39.000Z</time>
      </trkpt>
      <trkpt lat="46.38713" lon="6.10962">
        <ele>1014.526344</ele>
        <time>2024-09-15T12:46:40.000Z</time>
      </trkpt>
      <trkpt lat="46.38715" lon="6.10963">
        <ele>1014.673378</ele>
        <time>2024-09-15T12:46:41.000Z</time>
      </trkpt>
      <trkpt lat="46.38717" lon="6.10964">
        <ele>1014.854418</ele>
        <time>2024-09-15T12:46:42.000Z</time>
      </trkpt>
      <trkpt lat="46.38719" lon="6.10965">
        <ele>1015.052757</ele>
        <time>2024-09-15T12:46:43.000Z</time>
      </trkpt>
      <trkpt lat="46.38721" lon="6.10966">
        <ele>1015.223277</ele>
        <time>2024-09-15T12:46:44.000Z</time>
      </trkpt>
      <trkpt lat="46.38722" lon="6.10967">
        <ele>1015.387195</ele>
        <time>2024-09-15T12:46:45.000Z</time>
      </trkpt>
      <trkpt lat="46.38724" lon="6.10967">
        <ele>1015.531955</ele>
        <time>2024-09-15T12:46:46.000Z</time>
      </trkpt>
      <trkpt lat="46.38726" lon="6.10968">
        <ele>1015.708078</ele>
        <time>2024-09-15T12:46:47.000Z</time>
      </trkpt>
      <trkpt lat="46.38727" lon="6.10969">
        <ele>1015.857763</ele>
        <time>2024-09-15T12:46:48.000Z</time>
      </trkpt>
      <trkpt lat="46.38729" lon="6.10969">
        <ele>1016.002524</ele>
        <time>2024-09-15T12:46:49.000Z</time>
      </trkpt>
      <trkpt lat="46.38731" lon="6.1097">
        <ele>1016.171318</ele>
        <time>2024-09-15T12:46:50.000Z</time>
      </trkpt>
      <trkpt lat="46.38732" lon="6.10971">
        <ele>1016.342572</ele>
        <time>2024-09-15T12:46:51.000Z</time>
      </trkpt>
      <trkpt lat="46.38734" lon="6.10972">
        <ele>1016.534188</ele>
        <time>2024-09-15T12:46:52.000Z</time>
      </trkpt>
      <trkpt lat="46.38736" lon="6.10974">
        <ele>1016.702193</ele>
        <time>2024-09-15T12:46:53.000Z</time>
      </trkpt>
      <trkpt lat="46.38738" lon="6.10975">
        <ele>1016.862991</ele>
        <time>2024-09-15T12:46:54.000Z</time>
      </trkpt>
      <trkpt lat="46.3874" lon="6.10976">
        <ele>1017.03691</ele>
        <time>2024-09-15T12:46:55.000Z</time>
      </trkpt>
      <trkpt lat="46.38741" lon="6.10977">
        <ele>1017.163534</ele>
        <time>2024-09-15T12:46:56.000Z</time>
      </trkpt>
      <trkpt lat="46.38742" lon="6.10979">
        <ele>1017.302873</ele>
        <time>2024-09-15T12:46:57.000Z</time>
      </trkpt>
      <trkpt lat="46.38744" lon="6.1098">
        <ele>1017.466816</ele>
        <time>2024-09-15T12:46:58.000Z</time>
      </trkpt>
      <trkpt lat="46.38746" lon="6.10981">
        <ele>1017.653055</ele>
        <time>2024-09-15T12:46:59.000Z</time>
      </trkpt>
      <trkpt lat="46.38748" lon="6.10982">
        <ele>1017.829088</ele>
        <time>2024-09-15T12:47:00.000Z</time>
      </trkpt>
      <trkpt lat="46.3875" lon="6.10983">
        <ele>1018.013139</ele>
        <time>2024-09-15T12:47:01.000Z</time>
      </trkpt>
      <trkpt lat="46.38751" lon="6.10984">
        <ele>1018.158763</ele>
        <time>2024-09-15T12:47:02.000Z</time>
      </trkpt>
      <trkpt lat="46.38753" lon="6.10986">
        <ele>1018.318996</ele>
        <time>2024-09-15T12:47:03.000Z</time>
      </trkpt>
      <trkpt lat="46.38754" lon="6.10987">
        <ele>1018.493387</ele>
        <time>2024-09-15T12:47:04.000Z</time>
      </trkpt>
      <trkpt lat="46.38756" lon="6.10989">
        <ele>1018.62927</ele>
        <time>2024-09-15T12:47:05.000Z</time>
      </trkpt>
      <trkpt lat="46.38757" lon="6.1099">
        <ele>1018.779185</ele>
        <time>2024-09-15T12:47:06.000Z</time>
      </trkpt>
      <trkpt lat="46.38759" lon="6.10991">
        <ele>1018.941873</ele>
        <time>2024-09-15T12:47:07.000Z</time>
      </trkpt>
      <trkpt lat="46.3876" lon="6.10992">
        <ele>1019.078885</ele>
        <time>2024-09-15T12:47:08.000Z</time>
      </trkpt>
      <trkpt lat="46.38762" lon="6.10993">
        <ele>1019.247561</ele>
        <time>2024-09-15T12:47:09.000Z</time>
      </trkpt>
      <trkpt lat="46.38764" lon="6.10994">
        <ele>1019.397476</ele>
        <time>2024-09-15T12:47:10.000Z</time>
      </trkpt>
      <trkpt lat="46.38766" lon="6.10995">
        <ele>1019.561303</ele>
        <time>2024-09-15T12:47:11.000Z</time>
      </trkpt>
      <trkpt lat="46.38768" lon="6.10996">
        <ele>1019.729375</ele>
        <time>2024-09-15T12:47:12.000Z</time>
      </trkpt>
      <trkpt lat="46.38769" lon="6.10997">
        <ele>1019.89961</ele>
        <time>2024-09-15T12:47:13.000Z</time>
      </trkpt>
      <trkpt lat="46.38771" lon="6.10998">
        <ele>1020.075643</ele>
        <time>2024-09-15T12:47:14.000Z</time>
      </trkpt>
      <trkpt lat="46.38774" lon="6.10999">
        <ele>1020.27402</ele>
        <time>2024-09-15T12:47:15.000Z</time>
      </trkpt>
      <trkpt lat="46.38775" lon="6.11">
        <ele>1020.444486</ele>
        <time>2024-09-15T12:47:16.000Z</time>
      </trkpt>
      <trkpt lat="46.38777" lon="6.11001">
        <ele>1020.592152</ele>
        <time>2024-09-15T12:47:17.000Z</time>
      </trkpt>
      <trkpt lat="46.38778" lon="6.11001">
        <ele>1020.70137</ele>
        <time>2024-09-15T12:47:18.000Z</time>
      </trkpt>
      <trkpt lat="46.38779" lon="6.11002">
        <ele>1020.82069</ele>
        <time>2024-09-15T12:47:19.000Z</time>
      </trkpt>
      <trkpt lat="46.38781" lon="6.11002">
        <ele>1020.968875</ele>
        <time>2024-09-15T12:47:20.000Z</time>
      </trkpt>
      <trkpt lat="46.38783" lon="6.11004">
        <ele>1021.137098</ele>
        <time>2024-09-15T12:47:21.000Z</time>
      </trkpt>
      <trkpt lat="46.38785" lon="6.11006">
        <ele>1021.325471</ele>
        <time>2024-09-15T12:47:22.000Z</time>
      </trkpt>
      <trkpt lat="46.38786" lon="6.11008">
        <ele>1021.5066</ele>
        <time>2024-09-15T12:47:23.000Z</time>
      </trkpt>
      <trkpt lat="46.38788" lon="6.11009">
        <ele>1021.674823</ele>
        <time>2024-09-15T12:47:24.000Z</time>
      </trkpt>
      <trkpt lat="46.3879" lon="6.11011">
        <ele>1021.866929</ele>
        <time>2024-09-15T12:47:25.000Z</time>
      </trkpt>
      <trkpt lat="46.38791" lon="6.11012">
        <ele>1022.027161</ele>
        <time>2024-09-15T12:47:26.000Z</time>
      </trkpt>
      <trkpt lat="46.38793" lon="6.11014">
        <ele>1022.175731</ele>
        <time>2024-09-15T12:47:27.000Z</time>
      </trkpt>
      <trkpt lat="46.38794" lon="6.11016">
        <ele>1022.325515</ele>
        <time>2024-09-15T12:47:28.000Z</time>
      </trkpt>
      <trkpt lat="46.38796" lon="6.11017">
        <ele>1022.488203</ele>
        <time>2024-09-15T12:47:29.000Z</time>
      </trkpt>
      <trkpt lat="46.38797" lon="6.11018">
        <ele>1022.648553</ele>
        <time>2024-09-15T12:47:30.000Z</time>
      </trkpt>
      <trkpt lat="46.38799" lon="6.11019">
        <ele>1022.806366</ele>
        <time>2024-09-15T12:47:31.000Z</time>
      </trkpt>
      <trkpt lat="46.38801" lon="6.1102">
        <ele>1022.974589</ele>
        <time>2024-09-15T12:47:32.000Z</time>
      </trkpt>
      <trkpt lat="46.38803" lon="6.11021">
        <ele>1023.133505</ele>
        <time>2024-09-15T12:47:33.000Z</time>
      </trkpt>
      <trkpt lat="46.38805" lon="6.11022">
        <ele>1023.313688</ele>
        <time>2024-09-15T12:47:34.000Z</time>
      </trkpt>
      <trkpt lat="46.38806" lon="6.11023">
        <ele>1023.477631</ele>
        <time>2024-09-15T12:47:35.000Z</time>
      </trkpt>
      <trkpt lat="46.38808" lon="6.11025">
        <ele>1023.652022</ele>
        <time>2024-09-15T12:47:36.000Z</time>
      </trkpt>
      <trkpt lat="46.3881" lon="6.11026">
        <ele>1023.822487</ele>
        <time>2024-09-15T12:47:37.000Z</time>
      </trkpt>
      <trkpt lat="46.38811" lon="6.11027">
        <ele>1023.974849</ele>
        <time>2024-09-15T12:47:38.000Z</time>
      </trkpt>
      <trkpt lat="46.38813" lon="6.11027">
        <ele>1024.156411</ele>
        <time>2024-09-15T12:47:39.000Z</time>
      </trkpt>
      <trkpt lat="46.38815" lon="6.11028">
        <ele>1024.331035</ele>
        <time>2024-09-15T12:47:40.000Z</time>
      </trkpt>
      <trkpt lat="46.38817" lon="6.11029">
        <ele>1024.49971</ele>
        <time>2024-09-15T12:47:41.000Z</time>
      </trkpt>
      <trkpt lat="46.38819" lon="6.1103">
        <ele>1024.647376</ele>
        <time>2024-09-15T12:47:42.000Z</time>
      </trkpt>
      <trkpt lat="46.3882" lon="6.11031">
        <ele>1024.786714</ele>
        <time>2024-09-15T12:47:43.000Z</time>
      </trkpt>
      <trkpt lat="46.38821" lon="6.11033">
        <ele>1024.933439</ele>
        <time>2024-09-15T12:47:44.000Z</time>
      </trkpt>
      <trkpt lat="46.38823" lon="6.11034">
        <ele>1025.083805</ele>
        <time>2024-09-15T12:47:45.000Z</time>
      </trkpt>
      <trkpt lat="46.38825" lon="6.11035">
        <ele>1025.244155</ele>
        <time>2024-09-15T12:47:46.000Z</time>
      </trkpt>
      <trkpt lat="46.38826" lon="6.11035">
        <ele>1025.37804</ele>
        <time>2024-09-15T12:47:47.000Z</time>
      </trkpt>
      <trkpt lat="46.38828" lon="6.11036">
        <ele>1025.523664</ele>
        <time>2024-09-15T12:47:48.000Z</time>
      </trkpt>
      <trkpt lat="46.3883" lon="6.11037">
        <ele>1025.689521</ele>
        <time>2024-09-15T12:47:49.000Z</time>
      </trkpt>
      <trkpt lat="46.38831" lon="6.11038">
        <ele>1025.84524</ele>
        <time>2024-09-15T12:47:50.000Z</time>
      </trkpt>
      <trkpt lat="46.38833" lon="6.11039">
        <ele>1025.977009</ele>
        <time>2024-09-15T12:47:51.000Z</time>
      </trkpt>
      <trkpt lat="46.38835" lon="6.1104">
        <ele>1026.155523</ele>
        <time>2024-09-15T12:47:52.000Z</time>
      </trkpt>
      <trkpt lat="46.38836" lon="6.11041">
        <ele>1026.313375</ele>
        <time>2024-09-15T12:47:53.000Z</time>
      </trkpt>
      <trkpt lat="46.38838" lon="6.11041">
        <ele>1026.493558</ele>
        <time>2024-09-15T12:47:54.000Z</time>
      </trkpt>
      <trkpt lat="46.3884" lon="6.11042">
        <ele>1026.665542</ele>
        <time>2024-09-15T12:47:55.000Z</time>
      </trkpt>
      <trkpt lat="46.38842" lon="6.11043">
        <ele>1026.835776</ele>
        <time>2024-09-15T12:47:56.000Z</time>
      </trkpt>
      <trkpt lat="46.38844" lon="6.11043">
        <ele>1027.008778</ele>
        <time>2024-09-15T12:47:57.000Z</time>
      </trkpt>
      <trkpt lat="46.38846" lon="6.11044">
        <ele>1027.150975</ele>
        <time>2024-09-15T12:47:58.000Z</time>
      </trkpt>
      <trkpt lat="46.38847" lon="6.11045">
        <ele>1027.276587</ele>
        <time>2024-09-15T12:47:59.000Z</time>
      </trkpt>
      <trkpt lat="46.38849" lon="6.11045">
        <ele>1027.414105</ele>
        <time>2024-09-15T12:48:00.000Z</time>
      </trkpt>
      <trkpt lat="46.3885" lon="6.11046">
        <ele>1027.554934</ele>
        <time>2024-09-15T12:48:01.000Z</time>
      </trkpt>
      <trkpt lat="46.38852" lon="6.11047">
        <ele>1027.708718</ele>
        <time>2024-09-15T12:48:02.000Z</time>
      </trkpt>
      <trkpt lat="46.38854" lon="6.11048">
        <ele>1027.861079</ele>
        <time>2024-09-15T12:48:03.000Z</time>
      </trkpt>
      <trkpt lat="46.38855" lon="6.11049">
        <ele>1028.016798</ele>
        <time>2024-09-15T12:48:04.000Z</time>
      </trkpt>
      <trkpt lat="46.38857" lon="6.1105">
        <ele>1028.135889</ele>
        <time>2024-09-15T12:48:05.000Z</time>
      </trkpt>
      <trkpt lat="46.38858" lon="6.1105">
        <ele>1028.276718</ele>
        <time>2024-09-15T12:48:06.000Z</time>
      </trkpt>
      <trkpt lat="46.3886" lon="6.11052">
        <ele>1028.423052</ele>
        <time>2024-09-15T12:48:07.000Z</time>
      </trkpt>
      <trkpt lat="46.38861" lon="6.11053">
        <ele>1028.560221</ele>
        <time>2024-09-15T12:48:08.000Z</time>
      </trkpt>
      <trkpt lat="46.38862" lon="6.11055">
        <ele>1028.720399</ele>
        <time>2024-09-15T12:48:09.000Z</time>
      </trkpt>
      <trkpt lat="46.38864" lon="6.11056">
        <ele>1028.862453</ele>
        <time>2024-09-15T12:48:10.000Z</time>
      </trkpt>
      <trkpt lat="46.38866" lon="6.11057">
        <ele>1029.046504</ele>
        <time>2024-09-15T12:48:11.000Z</time>
      </trkpt>
      <trkpt lat="46.38867" lon="6.11058">
        <ele>1029.183515</ele>
        <time>2024-09-15T12:48:12.000Z</time>
      </trkpt>
      <trkpt lat="46.38869" lon="6.11059">
        <ele>1029.33388</ele>
        <time>2024-09-15T12:48:13.000Z</time>
      </trkpt>
      <trkpt lat="46.3887" lon="6.1106">
        <ele>1029.476929</ele>
        <time>2024-09-15T12:48:14.000Z</time>
      </trkpt>
      <trkpt lat="46.38872" lon="6.11061">
        <ele>1029.616607</ele>
        <time>2024-09-15T12:48:15.000Z</time>
      </trkpt>
      <trkpt lat="46.38873" lon="6.11062">
        <ele>1029.776786</ele>
        <time>2024-09-15T12:48:16.000Z</time>
      </trkpt>
      <trkpt lat="46.38875" lon="6.11064">
        <ele>1029.955104</ele>
        <time>2024-09-15T12:48:17.000Z</time>
      </trkpt>
      <trkpt lat="46.38877" lon="6.11064">
        <ele>1030.141925</ele>
        <time>2024-09-15T12:48:18.000Z</time>
      </trkpt>
      <trkpt lat="46.3888" lon="6.11065">
        <ele>1030.34124</ele>
        <time>2024-09-15T12:48:19.000Z</time>
      </trkpt>
      <trkpt lat="46.38882" lon="6.11064">
        <ele>1030.578355</ele>
        <time>2024-09-15T12:48:20.000Z</time>
      </trkpt>
      <trkpt lat="46.38885" lon="6.11064">
        <ele>1030.793541</ele>
        <time>2024-09-15T12:48:21.000Z</time>
      </trkpt>
      <trkpt lat="46.38887" lon="6.11065">
        <ele>1030.973723</ele>
        <time>2024-09-15T12:48:22.000Z</time>
      </trkpt>
      <trkpt lat="46.38888" lon="6.11066">
        <ele>1031.148113</ele>
        <time>2024-09-15T12:48:23.000Z</time>
      </trkpt>
      <trkpt lat="46.3889" lon="6.11068">
        <ele>1031.316336</ele>
        <time>2024-09-15T12:48:24.000Z</time>
      </trkpt>
      <trkpt lat="46.38892" lon="6.11069">
        <ele>1031.500386</ele>
        <time>2024-09-15T12:48:25.000Z</time>
      </trkpt>
      <trkpt lat="46.38894" lon="6.1107">
        <ele>1031.703898</ele>
        <time>2024-09-15T12:48:26.000Z</time>
      </trkpt>
      <trkpt lat="46.38897" lon="6.1107">
        <ele>1031.8893</ele>
        <time>2024-09-15T12:48:27.000Z</time>
      </trkpt>
      <trkpt lat="46.38898" lon="6.11071">
        <ele>1032.051289</ele>
        <time>2024-09-15T12:48:28.000Z</time>
      </trkpt>
      <trkpt lat="46.389" lon="6.11072">
        <ele>1032.219855</ele>
        <time>2024-09-15T12:48:29.000Z</time>
      </trkpt>
      <trkpt lat="46.38902" lon="6.11073">
        <ele>1032.403571</ele>
        <time>2024-09-15T12:48:30.000Z</time>
      </trkpt>
      <trkpt lat="46.38904" lon="6.11074">
        <ele>1032.583269</ele>
        <time>2024-09-15T12:48:31.000Z</time>
      </trkpt>
      <trkpt lat="46.38905" lon="6.11076">
        <ele>1032.747235</ele>
        <time>2024-09-15T12:48:32.000Z</time>
      </trkpt>
      <trkpt lat="46.38907" lon="6.11077">
        <ele>1032.948688</ele>
        <time>2024-09-15T12:48:33.000Z</time>
      </trkpt>
      <trkpt lat="46.38909" lon="6.11078">
        <ele>1033.114259</ele>
        <time>2024-09-15T12:48:34.000Z</time>
      </trkpt>
      <trkpt lat="46.3891" lon="6.11079">
        <ele>1033.25941</ele>
        <time>2024-09-15T12:48:35.000Z</time>
      </trkpt>
      <trkpt lat="46.38913" lon="6.1108">
        <ele>1033.487257</ele>
        <time>2024-09-15T12:48:36.000Z</time>
      </trkpt>
      <trkpt lat="46.38915" lon="6.11081">
        <ele>1033.716774</ele>
        <time>2024-09-15T12:48:37.000Z</time>
      </trkpt>
      <trkpt lat="46.38917" lon="6.11082">
        <ele>1033.919933</ele>
        <time>2024-09-15T12:48:38.000Z</time>
      </trkpt>
      <trkpt lat="46.38919" lon="6.11084">
        <ele>1034.138289</ele>
        <time>2024-09-15T12:48:39.000Z</time>
      </trkpt>
      <trkpt lat="46.38922" lon="6.11085">
        <ele>1034.378519</ele>
        <time>2024-09-15T12:48:40.000Z</time>
      </trkpt>
      <trkpt lat="46.38924" lon="6.11087">
        <ele>1034.610701</ele>
        <time>2024-09-15T12:48:41.000Z</time>
      </trkpt>
      <trkpt lat="46.38926" lon="6.11089">
        <ele>1034.834925</ele>
        <time>2024-09-15T12:48:42.000Z</time>
      </trkpt>
      <trkpt lat="46.38928" lon="6.11091">
        <ele>1035.110512</ele>
        <time>2024-09-15T12:48:43.000Z</time>
      </trkpt>
      <trkpt lat="46.38931" lon="6.11094">
        <ele>1035.374724</ele>
        <time>2024-09-15T12:48:44.000Z</time>
      </trkpt>
      <trkpt lat="46.38933" lon="6.11096">
        <ele>1035.629155</ele>
        <time>2024-09-15T12:48:45.000Z</time>
      </trkpt>
      <trkpt lat="46.38935" lon="6.11098">
        <ele>1035.860089</ele>
        <time>2024-09-15T12:48:46.000Z</time>
      </trkpt>
      <trkpt lat="46.38938" lon="6.111">
        <ele>1036.150392</ele>
        <time>2024-09-15T12:48:47.000Z</time>
      </trkpt>
      <trkpt lat="46.3894" lon="6.11102">
        <ele>1036.420915</ele>
        <time>2024-09-15T12:48:48.000Z</time>
      </trkpt>
      <trkpt lat="46.38943" lon="6.11105">
        <ele>1036.685339</ele>
        <time>2024-09-15T12:48:49.000Z</time>
      </trkpt>
      <trkpt lat="46.38945" lon="6.11107">
        <ele>1036.938599</ele>
        <time>2024-09-15T12:48:50.000Z</time>
      </trkpt>
      <trkpt lat="46.38948" lon="6.11109">
        <ele>1037.218541</ele>
        <time>2024-09-15T12:48:51.000Z</time>
      </trkpt>
      <trkpt lat="46.3895" lon="6.11111">
        <ele>1037.453904</ele>
        <time>2024-09-15T12:48:52.000Z</time>
      </trkpt>
      <trkpt lat="46.38952" lon="6.11114">
        <ele>1037.699676</ele>
        <time>2024-09-15T12:48:53.000Z</time>
      </trkpt>
      <trkpt lat="46.38954" lon="6.11116">
        <ele>1037.952731</ele>
        <time>2024-09-15T12:48:54.000Z</time>
      </trkpt>
      <trkpt lat="46.38957" lon="6.11118">
        <ele>1038.24852</ele>
        <time>2024-09-15T12:48:55.000Z</time>
      </trkpt>
      <trkpt lat="46.3896" lon="6.1112">
        <ele>1038.549348</ele>
        <time>2024-09-15T12:48:56.000Z</time>
      </trkpt>
      <trkpt lat="46.38963" lon="6.11123">
        <ele>1038.858425</ele>
        <time>2024-09-15T12:48:57.000Z</time>
      </trkpt>
      <trkpt lat="46.38965" lon="6.11126">
        <ele>1039.141721</ele>
        <time>2024-09-15T12:48:58.000Z</time>
      </trkpt>
      <trkpt lat="46.38968" lon="6.11128">
        <ele>1039.388225</ele>
        <time>2024-09-15T12:48:59.000Z</time>
      </trkpt>
      <trkpt lat="46.38969" lon="6.11129">
        <ele>1039.589204</ele>
        <time>2024-09-15T12:49:00.000Z</time>
      </trkpt>
      <trkpt lat="46.38971" lon="6.11131">
        <ele>1039.779016</ele>
        <time>2024-09-15T12:49:01.000Z</time>
      </trkpt>
      <trkpt lat="46.38972" lon="6.11133">
        <ele>1039.959664</ele>
        <time>2024-09-15T12:49:02.000Z</time>
      </trkpt>
      <trkpt lat="46.38974" lon="6.11135">
        <ele>1040.137097</ele>
        <time>2024-09-15T12:49:03.000Z</time>
      </trkpt>
      <trkpt lat="46.38975" lon="6.11137">
        <ele>1040.311318</ele>
        <time>2024-09-15T12:49:04.000Z</time>
      </trkpt>
      <trkpt lat="46.38977" lon="6.11139">
        <ele>1040.494229</ele>
        <time>2024-09-15T12:49:05.000Z</time>
      </trkpt>
      <trkpt lat="46.38978" lon="6.1114">
        <ele>1040.680516</ele>
        <time>2024-09-15T12:49:06.000Z</time>
      </trkpt>
      <trkpt lat="46.3898" lon="6.11142">
        <ele>1040.852281</ele>
        <time>2024-09-15T12:49:07.000Z</time>
      </trkpt>
      <trkpt lat="46.38981" lon="6.11143">
        <ele>1041.015036</ele>
        <time>2024-09-15T12:49:08.000Z</time>
      </trkpt>
      <trkpt lat="46.38983" lon="6.11144">
        <ele>1041.195218</ele>
        <time>2024-09-15T12:49:09.000Z</time>
      </trkpt>
      <trkpt lat="46.38985" lon="6.11144">
        <ele>1041.364975</ele>
        <time>2024-09-15T12:49:10.000Z</time>
      </trkpt>
      <trkpt lat="46.38987" lon="6.11145">
        <ele>1041.545157</ele>
        <time>2024-09-15T12:49:11.000Z</time>
      </trkpt>
      <trkpt lat="46.38989" lon="6.11145">
        <ele>1041.739106</ele>
        <time>2024-09-15T12:49:12.000Z</time>
      </trkpt>
      <trkpt lat="46.38991" lon="6.11146">
        <ele>1041.952018</ele>
        <time>2024-09-15T12:49:13.000Z</time>
      </trkpt>
      <trkpt lat="46.38993" lon="6.11146">
        <ele>1042.136822</ele>
        <time>2024-09-15T12:49:14.000Z</time>
      </trkpt>
      <trkpt lat="46.38995" lon="6.11147">
        <ele>1042.315548</ele>
        <time>2024-09-15T12:49:15.000Z</time>
      </trkpt>
      <trkpt lat="46.38997" lon="6.11147">
        <ele>1042.497395</ele>
        <time>2024-09-15T12:49:16.000Z</time>
      </trkpt>
      <trkpt lat="46.38999" lon="6.11148">
        <ele>1042.676122</ele>
        <time>2024-09-15T12:49:17.000Z</time>
      </trkpt>
      <trkpt lat="46.39001" lon="6.11149">
        <ele>1042.84741</ele>
        <time>2024-09-15T12:49:18.000Z</time>
      </trkpt>
      <trkpt lat="46.39002" lon="6.11149">
        <ele>1042.99431</ele>
        <time>2024-09-15T12:49:19.000Z</time>
      </trkpt>
      <trkpt lat="46.39004" lon="6.1115">
        <ele>1043.146208</ele>
        <time>2024-09-15T12:49:20.000Z</time>
      </trkpt>
      <trkpt lat="46.39006" lon="6.11151">
        <ele>1043.297952</ele>
        <time>2024-09-15T12:49:21.000Z</time>
      </trkpt>
      <trkpt lat="46.39007" lon="6.11152">
        <ele>1043.463523</ele>
        <time>2024-09-15T12:49:22.000Z</time>
      </trkpt>
      <trkpt lat="46.39009" lon="6.11153">
        <ele>1043.618023</ele>
        <time>2024-09-15T12:49:23.000Z</time>
      </trkpt>
      <trkpt lat="46.39011" lon="6.11154">
        <ele>1043.796749</ele>
        <time>2024-09-15T12:49:24.000Z</time>
      </trkpt>
      <trkpt lat="46.39012" lon="6.11155">
        <ele>1043.967854</ele>
        <time>2024-09-15T12:49:25.000Z</time>
      </trkpt>
      <trkpt lat="46.39014" lon="6.11156">
        <ele>1044.131819</ele>
        <time>2024-09-15T12:49:26.000Z</time>
      </trkpt>
      <trkpt lat="46.39015" lon="6.11158">
        <ele>1044.291819</ele>
        <time>2024-09-15T12:49:27.000Z</time>
      </trkpt>
      <trkpt lat="46.39017" lon="6.11159">
        <ele>1044.466945</ele>
        <time>2024-09-15T12:49:28.000Z</time>
      </trkpt>
      <trkpt lat="46.39018" lon="6.1116">
        <ele>1044.605394</ele>
        <time>2024-09-15T12:49:29.000Z</time>
      </trkpt>
      <trkpt lat="46.3902" lon="6.1116">
        <ele>1044.754622</ele>
        <time>2024-09-15T12:49:30.000Z</time>
      </trkpt>
      <trkpt lat="46.39022" lon="6.1116">
        <ele>1044.931085</ele>
        <time>2024-09-15T12:49:31.000Z</time>
      </trkpt>
      <trkpt lat="46.39024" lon="6.11161">
        <ele>1045.109812</ele>
        <time>2024-09-15T12:49:32.000Z</time>
      </trkpt>
      <trkpt lat="46.39026" lon="6.11161">
        <ele>1045.284903</ele>
        <time>2024-09-15T12:49:33.000Z</time>
      </trkpt>
      <trkpt lat="46.39027" lon="6.11162">
        <ele>1045.453353</ele>
        <time>2024-09-15T12:49:34.000Z</time>
      </trkpt>
      <trkpt lat="46.39029" lon="6.11162">
        <ele>1045.64107</ele>
        <time>2024-09-15T12:49:35.000Z</time>
      </trkpt>
      <trkpt lat="46.39031" lon="6.11163">
        <ele>1045.798808</ele>
        <time>2024-09-15T12:49:36.000Z</time>
      </trkpt>
      <trkpt lat="46.39033" lon="6.11164">
        <ele>1045.971848</ele>
        <time>2024-09-15T12:49:37.000Z</time>
      </trkpt>
      <trkpt lat="46.39034" lon="6.11164">
        <ele>1046.130142</ele>
        <time>2024-09-15T12:49:38.000Z</time>
      </trkpt>
      <trkpt lat="46.39036" lon="6.11165">
        <ele>1046.296483</ele>
        <time>2024-09-15T12:49:39.000Z</time>
      </trkpt>
      <trkpt lat="46.39038" lon="6.11166">
        <ele>1046.471485</ele>
        <time>2024-09-15T12:49:40.000Z</time>
      </trkpt>
      <trkpt lat="46.3904" lon="6.11167">
        <ele>1046.657049</ele>
        <time>2024-09-15T12:49:41.000Z</time>
      </trkpt>
      <trkpt lat="46.39042" lon="6.11167">
        <ele>1046.832713</ele>
        <time>2024-09-15T12:49:42.000Z</time>
      </trkpt>
      <trkpt lat="46.39044" lon="6.11168">
        <ele>1046.995142</ele>
        <time>2024-09-15T12:49:43.000Z</time>
      </trkpt>
      <trkpt lat="46.39045" lon="6.11169">
        <ele>1047.155764</ele>
        <time>2024-09-15T12:49:44.000Z</time>
      </trkpt>
      <trkpt lat="46.39047" lon="6.1117">
        <ele>1047.340595</ele>
        <time>2024-09-15T12:49:45.000Z</time>
      </trkpt>
      <trkpt lat="46.39049" lon="6.11172">
        <ele>1047.517247</ele>
        <time>2024-09-15T12:49:46.000Z</time>
      </trkpt>
      <trkpt lat="46.3905" lon="6.11173">
        <ele>1047.689232</ele>
        <time>2024-09-15T12:49:47.000Z</time>
      </trkpt>
      <trkpt lat="46.39051" lon="6.11175">
        <ele>1047.862114</ele>
        <time>2024-09-15T12:49:48.000Z</time>
      </trkpt>
      <trkpt lat="46.39052" lon="6.11177">
        <ele>1048.025432</ele>
        <time>2024-09-15T12:49:49.000Z</time>
      </trkpt>
      <trkpt lat="46.39054" lon="6.11179">
        <ele>1048.208505</ele>
        <time>2024-09-15T12:49:50.000Z</time>
      </trkpt>
      <trkpt lat="46.39055" lon="6.11181">
        <ele>1048.39581</ele>
        <time>2024-09-15T12:49:51.000Z</time>
      </trkpt>
      <trkpt lat="46.39057" lon="6.11183">
        <ele>1048.58557</ele>
        <time>2024-09-15T12:49:52.000Z</time>
      </trkpt>
      <trkpt lat="46.39058" lon="6.11186">
        <ele>1048.762145</ele>
        <time>2024-09-15T12:49:53.000Z</time>
      </trkpt>
      <trkpt lat="46.39059" lon="6.11188">
        <ele>1048.929492</ele>
        <time>2024-09-15T12:49:54.000Z</time>
      </trkpt>
      <trkpt lat="46.3906" lon="6.1119">
        <ele>1049.112593</ele>
        <time>2024-09-15T12:49:55.000Z</time>
      </trkpt>
      <trkpt lat="46.39061" lon="6.11192">
        <ele>1049.290999</ele>
        <time>2024-09-15T12:49:56.000Z</time>
      </trkpt>
      <trkpt lat="46.39063" lon="6.11194">
        <ele>1049.466082</ele>
        <time>2024-09-15T12:49:57.000Z</time>
      </trkpt>
      <trkpt lat="46.39064" lon="6.11196">
        <ele>1049.658321</ele>
        <time>2024-09-15T12:49:58.000Z</time>
      </trkpt>
      <trkpt lat="46.39066" lon="6.11197">
        <ele>1049.827404</ele>
        <time>2024-09-15T12:49:59.000Z</time>
      </trkpt>
      <trkpt lat="46.39067" lon="6.11199">
        <ele>1050.01949</ele>
        <time>2024-09-15T12:50:00.000Z</time>
      </trkpt>
      <trkpt lat="46.39069" lon="6.11201">
        <ele>1050.201378</ele>
        <time>2024-09-15T12:50:01.000Z</time>
      </trkpt>
      <trkpt lat="46.3907" lon="6.11203">
        <ele>1050.390301</ele>
        <time>2024-09-15T12:50:02.000Z</time>
      </trkpt>
      <trkpt lat="46.39071" lon="6.11204">
        <ele>1050.547887</ele>
        <time>2024-09-15T12:50:03.000Z</time>
      </trkpt>
      <trkpt lat="46.39073" lon="6.11205">
        <ele>1050.724459</ele>
        <time>2024-09-15T12:50:04.000Z</time>
      </trkpt>
      <trkpt lat="46.39074" lon="6.11207">
        <ele>1050.882045</ele>
        <time>2024-09-15T12:50:05.000Z</time>
      </trkpt>
      <trkpt lat="46.39076" lon="6.11208">
        <ele>1051.054878</ele>
        <time>2024-09-15T12:50:06.000Z</time>
      </trkpt>
      <trkpt lat="46.39078" lon="6.1121">
        <ele>1051.239234</ele>
        <time>2024-09-15T12:50:07.000Z</time>
      </trkpt>
      <trkpt lat="46.39079" lon="6.11211">
        <ele>1051.412067</ele>
        <time>2024-09-15T12:50:08.000Z</time>
      </trkpt>
      <trkpt lat="46.39081" lon="6.11212">
        <ele>1051.577325</ele>
        <time>2024-09-15T12:50:09.000Z</time>
      </trkpt>
      <trkpt lat="46.39082" lon="6.11213">
        <ele>1051.725354</ele>
        <time>2024-09-15T12:50:10.000Z</time>
      </trkpt>
      <trkpt lat="46.39083" lon="6.11214">
        <ele>1051.865816</ele>
        <time>2024-09-15T12:50:11.000Z</time>
      </trkpt>
      <trkpt lat="46.39085" lon="6.11215">
        <ele>1051.999767</ele>
        <time>2024-09-15T12:50:12.000Z</time>
      </trkpt>
      <trkpt lat="46.39086" lon="6.11216">
        <ele>1052.160296</ele>
        <time>2024-09-15T12:50:13.000Z</time>
      </trkpt>
      <trkpt lat="46.39088" lon="6.11217">
        <ele>1052.34557</ele>
        <time>2024-09-15T12:50:14.000Z</time>
      </trkpt>
      <trkpt lat="46.3909" lon="6.11218">
        <ele>1052.527867</ele>
        <time>2024-09-15T12:50:15.000Z</time>
      </trkpt>
      <trkpt lat="46.39091" lon="6.1122">
        <ele>1052.705121</ele>
        <time>2024-09-15T12:50:16.000Z</time>
      </trkpt>
      <trkpt lat="46.39093" lon="6.11221">
        <ele>1052.874325</ele>
        <time>2024-09-15T12:50:17.000Z</time>
      </trkpt>
      <trkpt lat="46.39094" lon="6.11222">
        <ele>1053.025359</ele>
        <time>2024-09-15T12:50:18.000Z</time>
      </trkpt>
      <trkpt lat="46.39096" lon="6.11223">
        <ele>1053.197015</ele>
        <time>2024-09-15T12:50:19.000Z</time>
      </trkpt>
      <trkpt lat="46.39098" lon="6.11224">
        <ele>1053.364634</ele>
        <time>2024-09-15T12:50:20.000Z</time>
      </trkpt>
      <trkpt lat="46.39099" lon="6.11224">
        <ele>1053.492203</ele>
        <time>2024-09-15T12:50:21.000Z</time>
      </trkpt>
      <trkpt lat="46.39101" lon="6.11225">
        <ele>1053.694053</ele>
        <time>2024-09-15T12:50:22.000Z</time>
      </trkpt>
      <trkpt lat="46.39103" lon="6.11225">
        <ele>1053.885546</ele>
        <time>2024-09-15T12:50:23.000Z</time>
      </trkpt>
      <trkpt lat="46.39105" lon="6.11226">
        <ele>1054.059379</ele>
        <time>2024-09-15T12:50:24.000Z</time>
      </trkpt>
      <trkpt lat="46.39107" lon="6.11226">
        <ele>1054.23971</ele>
        <time>2024-09-15T12:50:25.000Z</time>
      </trkpt>
      <trkpt lat="46.39109" lon="6.11226">
        <ele>1054.410438</ele>
        <time>2024-09-15T12:50:26.000Z</time>
      </trkpt>
      <trkpt lat="46.39111" lon="6.11226">
        <ele>1054.629471</ele>
        <time>2024-09-15T12:50:27.000Z</time>
      </trkpt>
      <trkpt lat="46.39113" lon="6.11226">
        <ele>1054.791904</ele>
        <time>2024-09-15T12:50:28.000Z</time>
      </trkpt>
      <trkpt lat="46.39114" lon="6.11227">
        <ele>1054.964625</ele>
        <time>2024-09-15T12:50:29.000Z</time>
      </trkpt>
      <trkpt lat="46.39116" lon="6.11227">
        <ele>1055.126</ele>
        <time>2024-09-15T12:50:30.000Z</time>
      </trkpt>
      <trkpt lat="46.39118" lon="6.11227">
        <ele>1055.287243</ele>
        <time>2024-09-15T12:50:31.000Z</time>
      </trkpt>
      <trkpt lat="46.3912" lon="6.11227">
        <ele>1055.467455</ele>
        <time>2024-09-15T12:50:32.000Z</time>
      </trkpt>
      <trkpt lat="46.39121" lon="6.11227">
        <ele>1055.628831</ele>
        <time>2024-09-15T12:50:33.000Z</time>
      </trkpt>
      <trkpt lat="46.39123" lon="6.11227">
        <ele>1055.790073</ele>
        <time>2024-09-15T12:50:34.000Z</time>
      </trkpt>
      <trkpt lat="46.39125" lon="6.11227">
        <ele>1055.951316</ele>
        <time>2024-09-15T12:50:35.000Z</time>
      </trkpt>
      <trkpt lat="46.39127" lon="6.11227">
        <ele>1056.112692</ele>
        <time>2024-09-15T12:50:36.000Z</time>
      </trkpt>
      <trkpt lat="46.39128" lon="6.11226">
        <ele>1056.28392</ele>
        <time>2024-09-15T12:50:37.000Z</time>
      </trkpt>
      <trkpt lat="46.3913" lon="6.11226">
        <ele>1056.455772</ele>
        <time>2024-09-15T12:50:38.000Z</time>
      </trkpt>
      <trkpt lat="46.39132" lon="6.11226">
        <ele>1056.627623</ele>
        <time>2024-09-15T12:50:39.000Z</time>
      </trkpt>
      <trkpt lat="46.39134" lon="6.11225">
        <ele>1056.821339</ele>
        <time>2024-09-15T12:50:40.000Z</time>
      </trkpt>
      <trkpt lat="46.39136" lon="6.11225">
        <ele>1056.975337</ele>
        <time>2024-09-15T12:50:41.000Z</time>
      </trkpt>
      <trkpt lat="46.39138" lon="6.11224">
        <ele>1057.169052</ele>
        <time>2024-09-15T12:50:42.000Z</time>
      </trkpt>
      <trkpt lat="46.39139" lon="6.11223">
        <ele>1057.336672</ele>
        <time>2024-09-15T12:50:43.000Z</time>
      </trkpt>
      <trkpt lat="46.39141" lon="6.11222">
        <ele>1057.562004</ele>
        <time>2024-09-15T12:50:44.000Z</time>
      </trkpt>
      <trkpt lat="46.39143" lon="6.11221">
        <ele>1057.762665</ele>
        <time>2024-09-15T12:50:45.000Z</time>
      </trkpt>
      <trkpt lat="46.39145" lon="6.1122">
        <ele>1057.961937</ele>
        <time>2024-09-15T12:50:46.000Z</time>
      </trkpt>
      <trkpt lat="46.39147" lon="6.11218">
        <ele>1058.164087</ele>
        <time>2024-09-15T12:50:47.000Z</time>
      </trkpt>
      <trkpt lat="46.39149" lon="6.11218">
        <ele>1058.344682</ele>
        <time>2024-09-15T12:50:48.000Z</time>
      </trkpt>
      <trkpt lat="46.39151" lon="6.11217">
        <ele>1058.509209</ele>
        <time>2024-09-15T12:50:49.000Z</time>
      </trkpt>
      <trkpt lat="46.39152" lon="6.11217">
        <ele>1058.625997</ele>
        <time>2024-09-15T12:50:50.000Z</time>
      </trkpt>
      <trkpt lat="46.39153" lon="6.11216">
        <ele>1058.749992</ele>
        <time>2024-09-15T12:50:51.000Z</time>
      </trkpt>
      <trkpt lat="46.39155" lon="6.11216">
        <ele>1058.90399</ele>
        <time>2024-09-15T12:50:52.000Z</time>
      </trkpt>
      <trkpt lat="46.39157" lon="6.11216">
        <ele>1059.074717</ele>
        <time>2024-09-15T12:50:53.000Z</time>
      </trkpt>
      <trkpt lat="46.39158" lon="6.11216">
        <ele>1059.23715</ele>
        <time>2024-09-15T12:50:54.000Z</time>
      </trkpt>
      <trkpt lat="46.3916" lon="6.11217">
        <ele>1059.392393</ele>
        <time>2024-09-15T12:50:55.000Z</time>
      </trkpt>
      <trkpt lat="46.39162" lon="6.11217">
        <ele>1059.58489</ele>
        <time>2024-09-15T12:50:56.000Z</time>
      </trkpt>
      <trkpt lat="46.39164" lon="6.11218">
        <ele>1059.772548</ele>
        <time>2024-09-15T12:50:57.000Z</time>
      </trkpt>
      <trkpt lat="46.39166" lon="6.11219">
        <ele>1059.987678</ele>
        <time>2024-09-15T12:50:58.000Z</time>
      </trkpt>
      <trkpt lat="46.39168" lon="6.1122">
        <ele>1060.181393</ele>
        <time>2024-09-15T12:50:59.000Z</time>
      </trkpt>
      <trkpt lat="46.3917" lon="6.1122">
        <ele>1060.382287</ele>
        <time>2024-09-15T12:51:00.000Z</time>
      </trkpt>
      <trkpt lat="46.39172" lon="6.11221">
        <ele>1060.566725</ele>
        <time>2024-09-15T12:51:01.000Z</time>
      </trkpt>
      <trkpt lat="46.39174" lon="6.11221">
        <ele>1060.738381</ele>
        <time>2024-09-15T12:51:02.000Z</time>
      </trkpt>
      <trkpt lat="46.39176" lon="6.11223">
        <ele>1060.929118</ele>
        <time>2024-09-15T12:51:03.000Z</time>
      </trkpt>
      <trkpt lat="46.39177" lon="6.11224">
        <ele>1061.08571</ele>
        <time>2024-09-15T12:51:04.000Z</time>
      </trkpt>
      <trkpt lat="46.39179" lon="6.11224">
        <ele>1061.242462</ele>
        <time>2024-09-15T12:51:05.000Z</time>
      </trkpt>
      <trkpt lat="46.3918" lon="6.11225">
        <ele>1061.395484</ele>
        <time>2024-09-15T12:51:06.000Z</time>
      </trkpt>
      <trkpt lat="46.39182" lon="6.11225">
        <ele>1061.552236</ele>
        <time>2024-09-15T12:51:07.000Z</time>
      </trkpt>
      <trkpt lat="46.39184" lon="6.11226">
        <ele>1061.735068</ele>
        <time>2024-09-15T12:51:08.000Z</time>
      </trkpt>
      <trkpt lat="46.39186" lon="6.11227">
        <ele>1061.931852</ele>
        <time>2024-09-15T12:51:09.000Z</time>
      </trkpt>
      <trkpt lat="46.39188" lon="6.11228">
        <ele>1062.137795</ele>
        <time>2024-09-15T12:51:10.000Z</time>
      </trkpt>
      <trkpt lat="46.39189" lon="6.11229">
        <ele>1062.322149</ele>
        <time>2024-09-15T12:51:11.000Z</time>
      </trkpt>
      <trkpt lat="46.39191" lon="6.11231">
        <ele>1062.498777</ele>
        <time>2024-09-15T12:51:12.000Z</time>
      </trkpt>
      <trkpt lat="46.39192" lon="6.11232">
        <ele>1062.66798</ele>
        <time>2024-09-15T12:51:13.000Z</time>
      </trkpt>
      <trkpt lat="46.39194" lon="6.11234">
        <ele>1062.855892</ele>
        <time>2024-09-15T12:51:14.000Z</time>
      </trkpt>
      <trkpt lat="46.39196" lon="6.11235">
        <ele>1063.045478</ele>
        <time>2024-09-15T12:51:15.000Z</time>
      </trkpt>
      <trkpt lat="46.39198" lon="6.11236">
        <ele>1063.248366</ele>
        <time>2024-09-15T12:51:16.000Z</time>
      </trkpt>
      <trkpt lat="46.392" lon="6.11237">
        <ele>1063.424994</ele>
        <time>2024-09-15T12:51:17.000Z</time>
      </trkpt>
      <trkpt lat="46.39201" lon="6.11239">
        <ele>1063.60729</ele>
        <time>2024-09-15T12:51:18.000Z</time>
      </trkpt>
      <trkpt lat="46.39203" lon="6.1124">
        <ele>1063.799009</ele>
        <time>2024-09-15T12:51:19.000Z</time>
      </trkpt>
      <trkpt lat="46.39205" lon="6.11241">
        <ele>1063.966964</ele>
        <time>2024-09-15T12:51:20.000Z</time>
      </trkpt>
      <trkpt lat="46.39206" lon="6.11241">
        <ele>1064.116425</ele>
        <time>2024-09-15T12:51:21.000Z</time>
      </trkpt>
      <trkpt lat="46.39208" lon="6.11242">
        <ele>1064.270422</ele>
        <time>2024-09-15T12:51:22.000Z</time>
      </trkpt>
      <trkpt lat="46.3921" lon="6.11242">
        <ele>1064.433775</ele>
        <time>2024-09-15T12:51:23.000Z</time>
      </trkpt>
      <trkpt lat="46.39212" lon="6.11243">
        <ele>1064.626271</ele>
        <time>2024-09-15T12:51:24.000Z</time>
      </trkpt>
      <trkpt lat="46.39213" lon="6.11243">
        <ele>1064.810709</ele>
        <time>2024-09-15T12:51:25.000Z</time>
      </trkpt>
      <trkpt lat="46.39215" lon="6.11244">
        <ele>1064.990046</ele>
        <time>2024-09-15T12:51:26.000Z</time>
      </trkpt>
      <trkpt lat="46.39217" lon="6.11245">
        <ele>1065.152825</ele>
        <time>2024-09-15T12:51:27.000Z</time>
      </trkpt>
      <trkpt lat="46.39218" lon="6.11246">
        <ele>1065.313353</ele>
        <time>2024-09-15T12:51:28.000Z</time>
      </trkpt>
      <trkpt lat="46.3922" lon="6.11246">
        <ele>1065.465674</ele>
        <time>2024-09-15T12:51:29.000Z</time>
      </trkpt>
      <trkpt lat="46.39221" lon="6.11247">
        <ele>1065.608547</ele>
        <time>2024-09-15T12:51:30.000Z</time>
      </trkpt>
      <trkpt lat="46.39223" lon="6.11247">
        <ele>1065.768529</ele>
        <time>2024-09-15T12:51:31.000Z</time>
      </trkpt>
      <trkpt lat="46.39225" lon="6.11247">
        <ele>1065.93109</ele>
        <time>2024-09-15T12:51:32.000Z</time>
      </trkpt>
      <trkpt lat="46.39226" lon="6.11248">
        <ele>1066.09297</ele>
        <time>2024-09-15T12:51:33.000Z</time>
      </trkpt>
      <trkpt lat="46.39228" lon="6.11249">
        <ele>1066.254135</ele>
        <time>2024-09-15T12:51:34.000Z</time>
      </trkpt>
      <trkpt lat="46.3923" lon="6.11249">
        <ele>1066.413249</ele>
        <time>2024-09-15T12:51:35.000Z</time>
      </trkpt>
      <trkpt lat="46.39232" lon="6.11249">
        <ele>1066.589895</ele>
        <time>2024-09-15T12:51:36.000Z</time>
      </trkpt>
      <trkpt lat="46.39234" lon="6.11249">
        <ele>1066.757134</ele>
        <time>2024-09-15T12:51:37.000Z</time>
      </trkpt>
      <trkpt lat="46.39235" lon="6.11249">
        <ele>1066.939274</ele>
        <time>2024-09-15T12:51:38.000Z</time>
      </trkpt>
      <trkpt lat="46.39238" lon="6.11247">
        <ele>1067.156779</ele>
        <time>2024-09-15T12:51:39.000Z</time>
      </trkpt>
      <trkpt lat="46.39239" lon="6.11246">
        <ele>1067.346562</ele>
        <time>2024-09-15T12:51:40.000Z</time>
      </trkpt>
      <trkpt lat="46.39241" lon="6.11244">
        <ele>1067.544581</ele>
        <time>2024-09-15T12:51:41.000Z</time>
      </trkpt>
      <trkpt lat="46.39243" lon="6.11243">
        <ele>1067.703754</ele>
        <time>2024-09-15T12:51:42.000Z</time>
      </trkpt>
      <trkpt lat="46.39244" lon="6.11242">
        <ele>1067.858118</ele>
        <time>2024-09-15T12:51:43.000Z</time>
      </trkpt>
      <trkpt lat="46.39245" lon="6.1124">
        <ele>1068.023744</ele>
        <time>2024-09-15T12:51:44.000Z</time>
      </trkpt>
      <trkpt lat="46.39247" lon="6.11238">
        <ele>1068.213082</ele>
        <time>2024-09-15T12:51:45.000Z</time>
      </trkpt>
      <trkpt lat="46.39248" lon="6.11236">
        <ele>1068.377006</ele>
        <time>2024-09-15T12:51:46.000Z</time>
      </trkpt>
      <trkpt lat="46.39248" lon="6.11234">
        <ele>1068.508165</ele>
        <time>2024-09-15T12:51:47.000Z</time>
      </trkpt>
      <trkpt lat="46.39249" lon="6.11231">
        <ele>1068.687314</ele>
        <time>2024-09-15T12:51:48.000Z</time>
      </trkpt>
      <trkpt lat="46.39249" lon="6.11229">
        <ele>1068.858021</ele>
        <time>2024-09-15T12:51:49.000Z</time>
      </trkpt>
      <trkpt lat="46.39249" lon="6.11226">
        <ele>1069.012935</ele>
        <time>2024-09-15T12:51:50.000Z</time>
      </trkpt>
      <trkpt lat="46.3925" lon="6.11224">
        <ele>1069.146378</ele>
        <time>2024-09-15T12:51:51.000Z</time>
      </trkpt>
      <trkpt lat="46.3925" lon="6.11222">
        <ele>1069.300914</ele>
        <time>2024-09-15T12:51:52.000Z</time>
      </trkpt>
      <trkpt lat="46.39251" lon="6.11219">
        <ele>1069.476605</ele>
        <time>2024-09-15T12:51:53.000Z</time>
      </trkpt>
      <trkpt lat="46.39252" lon="6.11217">
        <ele>1069.653213</ele>
        <time>2024-09-15T12:51:54.000Z</time>
      </trkpt>
      <trkpt lat="46.39252" lon="6.11214">
        <ele>1069.82618</ele>
        <time>2024-09-15T12:51:55.000Z</time>
      </trkpt>
      <trkpt lat="46.39253" lon="6.11212">
        <ele>1069.985554</ele>
        <time>2024-09-15T12:51:56.000Z</time>
      </trkpt>
      <trkpt lat="46.39254" lon="6.1121">
        <ele>1070.170211</ele>
        <time>2024-09-15T12:51:57.000Z</time>
      </trkpt>
      <trkpt lat="46.39255" lon="6.11207">
        <ele>1070.334124</ele>
        <time>2024-09-15T12:51:58.000Z</time>
      </trkpt>
      <trkpt lat="46.39256" lon="6.11206">
        <ele>1070.456498</ele>
        <time>2024-09-15T12:51:59.000Z</time>
      </trkpt>
      <trkpt lat="46.39256" lon="6.11204">
        <ele>1070.573204</ele>
        <time>2024-09-15T12:52:00.000Z</time>
      </trkpt>
      <trkpt lat="46.39257" lon="6.11203">
        <ele>1070.694622</ele>
        <time>2024-09-15T12:52:01.000Z</time>
      </trkpt>
      <trkpt lat="46.39258" lon="6.11201">
        <ele>1070.834924</ele>
        <time>2024-09-15T12:52:02.000Z</time>
      </trkpt>
      <trkpt lat="46.39259" lon="6.112">
        <ele>1070.970916</ele>
        <time>2024-09-15T12:52:03.000Z</time>
      </trkpt>
      <trkpt lat="46.3926" lon="6.11198">
        <ele>1071.093557</ele>
        <time>2024-09-15T12:52:04.000Z</time>
      </trkpt>
      <trkpt lat="46.39261" lon="6.11197">
        <ele>1071.210181</ele>
        <time>2024-09-15T12:52:05.000Z</time>
      </trkpt>
      <trkpt lat="46.39263" lon="6.11196">
        <ele>1071.406348</ele>
        <time>2024-09-15T12:52:06.000Z</time>
      </trkpt>
      <trkpt lat="46.39264" lon="6.11195">
        <ele>1071.554843</ele>
        <time>2024-09-15T12:52:07.000Z</time>
      </trkpt>
      <trkpt lat="46.39266" lon="6.11194">
        <ele>1071.719366</ele>
        <time>2024-09-15T12:52:08.000Z</time>
      </trkpt>
      <trkpt lat="46.39268" lon="6.11192">
        <ele>1071.886734</ele>
        <time>2024-09-15T12:52:09.000Z</time>
      </trkpt>
      <trkpt lat="46.39269" lon="6.11192">
        <ele>1072.017947</ele>
        <time>2024-09-15T12:52:10.000Z</time>
      </trkpt>
      <trkpt lat="46.3927" lon="6.11191">
        <ele>1072.138125</ele>
        <time>2024-09-15T12:52:11.000Z</time>
      </trkpt>
      <trkpt lat="46.3927" lon="6.11191">
        <ele>1072.175992</ele>
        <time>2024-09-15T12:52:12.000Z</time>
      </trkpt>
      <trkpt lat="46.3927" lon="6.11191">
        <ele>1072.175992</ele>
        <time>2024-09-15T12:52:13.000Z</time>
      </trkpt>
      <trkpt lat="46.39278" lon="6.1119">
        <ele>1072.846052</ele>
        <time>2024-09-15T12:52:19.000Z</time>
      </trkpt>
      <trkpt lat="46.39279" lon="6.1119">
        <ele>1073.007217</ele>
        <time>2024-09-15T12:52:20.000Z</time>
      </trkpt>
      <trkpt lat="46.39281" lon="6.11191">
        <ele>1073.171411</ele>
        <time>2024-09-15T12:52:21.000Z</time>
      </trkpt>
      <trkpt lat="46.39283" lon="6.11193">
        <ele>1073.37457</ele>
        <time>2024-09-15T12:52:22.000Z</time>
      </trkpt>
      <trkpt lat="46.39284" lon="6.11195">
        <ele>1073.566724</ele>
        <time>2024-09-15T12:52:23.000Z</time>
      </trkpt>
      <trkpt lat="46.39286" lon="6.11197">
        <ele>1073.815162</ele>
        <time>2024-09-15T12:52:24.000Z</time>
      </trkpt>
      <trkpt lat="46.39288" lon="6.112">
        <ele>1074.045131</ele>
        <time>2024-09-15T12:52:25.000Z</time>
      </trkpt>
      <trkpt lat="46.3929" lon="6.11202">
        <ele>1074.241708</ele>
        <time>2024-09-15T12:52:26.000Z</time>
      </trkpt>
      <trkpt lat="46.39291" lon="6.11204">
        <ele>1074.408721</ele>
        <time>2024-09-15T12:52:27.000Z</time>
      </trkpt>
      <trkpt lat="46.39292" lon="6.11205">
        <ele>1074.571375</ele>
        <time>2024-09-15T12:52:28.000Z</time>
      </trkpt>
      <trkpt lat="46.39294" lon="6.11207">
        <ele>1074.7522</ele>
        <time>2024-09-15T12:52:29.000Z</time>
      </trkpt>
      <trkpt lat="46.39296" lon="6.11209">
        <ele>1074.983821</ele>
        <time>2024-09-15T12:52:30.000Z</time>
      </trkpt>
      <trkpt lat="46.39298" lon="6.1121">
        <ele>1075.211273</ele>
        <time>2024-09-15T12:52:31.000Z</time>
      </trkpt>
      <trkpt lat="46.39301" lon="6.11211">
        <ele>1075.44914</ele>
        <time>2024-09-15T12:52:32.000Z</time>
      </trkpt>
      <trkpt lat="46.39302" lon="6.11212">
        <ele>1075.62771</ele>
        <time>2024-09-15T12:52:33.000Z</time>
      </trkpt>
      <trkpt lat="46.39304" lon="6.11213">
        <ele>1075.83135</ele>
        <time>2024-09-15T12:52:34.000Z</time>
      </trkpt>
      <trkpt lat="46.39307" lon="6.11214">
        <ele>1076.038805</ele>
        <time>2024-09-15T12:52:35.000Z</time>
      </trkpt>
      <trkpt lat="46.39308" lon="6.11215">
        <ele>1076.164331</ele>
        <time>2024-09-15T12:52:36.000Z</time>
      </trkpt>
      <trkpt lat="46.39309" lon="6.11217">
        <ele>1076.352639</ele>
        <time>2024-09-15T12:52:37.000Z</time>
      </trkpt>
      <trkpt lat="46.39311" lon="6.11219">
        <ele>1076.555797</ele>
        <time>2024-09-15T12:52:38.000Z</time>
      </trkpt>
      <trkpt lat="46.39313" lon="6.1122">
        <ele>1076.771197</ele>
        <time>2024-09-15T12:52:39.000Z</time>
      </trkpt>
      <trkpt lat="46.39315" lon="6.11223">
        <ele>1076.996169</ele>
        <time>2024-09-15T12:52:40.000Z</time>
      </trkpt>
      <trkpt lat="46.39316" lon="6.11226">
        <ele>1077.212461</ele>
        <time>2024-09-15T12:52:41.000Z</time>
      </trkpt>
      <trkpt lat="46.39317" lon="6.11229">
        <ele>1077.457207</ele>
        <time>2024-09-15T12:52:42.000Z</time>
      </trkpt>
      <trkpt lat="46.39318" lon="6.11232">
        <ele>1077.64512</ele>
        <time>2024-09-15T12:52:43.000Z</time>
      </trkpt>
      <trkpt lat="46.39318" lon="6.11234">
        <ele>1077.805777</ele>
        <time>2024-09-15T12:52:44.000Z</time>
      </trkpt>
      <trkpt lat="46.39319" lon="6.11236">
        <ele>1077.945385</ele>
        <time>2024-09-15T12:52:45.000Z</time>
      </trkpt>
      <trkpt lat="46.39319" lon="6.11239">
        <ele>1078.112254</ele>
        <time>2024-09-15T12:52:46.000Z</time>
      </trkpt>
      <trkpt lat="46.39319" lon="6.11241">
        <ele>1078.249584</ele>
        <time>2024-09-15T12:52:47.000Z</time>
      </trkpt>
      <trkpt lat="46.39321" lon="6.11241">
        <ele>1078.352586</ele>
        <time>2024-09-15T12:52:48.000Z</time>
      </trkpt>
      <trkpt lat="46.39321" lon="6.11243">
        <ele>1078.473771</ele>
        <time>2024-09-15T12:52:49.000Z</time>
      </trkpt>
      <trkpt lat="46.39321" lon="6.11246">
        <ele>1078.674368</ele>
        <time>2024-09-15T12:52:50.000Z</time>
      </trkpt>
      <trkpt lat="46.39321" lon="6.11248">
        <ele>1078.832589</ele>
        <time>2024-09-15T12:52:51.000Z</time>
      </trkpt>
      <trkpt lat="46.3932" lon="6.11251">
        <ele>1078.993246</ele>
        <time>2024-09-15T12:52:52.000Z</time>
      </trkpt>
      <trkpt lat="46.3932" lon="6.11253">
        <ele>1079.14168</ele>
        <time>2024-09-15T12:52:53.000Z</time>
      </trkpt>
      <trkpt lat="46.39319" lon="6.11255">
        <ele>1079.320535</ele>
        <time>2024-09-15T12:52:54.000Z</time>
      </trkpt>
      <trkpt lat="46.39318" lon="6.11258">
        <ele>1079.505373</ele>
        <time>2024-09-15T12:52:55.000Z</time>
      </trkpt>
      <trkpt lat="46.39318" lon="6.1126">
        <ele>1079.66295</ele>
        <time>2024-09-15T12:52:56.000Z</time>
      </trkpt>
      <trkpt lat="46.39317" lon="6.11262">
        <ele>1079.787299</ele>
        <time>2024-09-15T12:52:57.000Z</time>
      </trkpt>
      <trkpt lat="46.39317" lon="6.11264">
        <ele>1079.931018</ele>
        <time>2024-09-15T12:52:58.000Z</time>
      </trkpt>
      <trkpt lat="46.39316" lon="6.11267">
        <ele>1080.100643</ele>
        <time>2024-09-15T12:52:59.000Z</time>
      </trkpt>
      <trkpt lat="46.39315" lon="6.11269">
        <ele>1080.2757</ele>
        <time>2024-09-15T12:53:00.000Z</time>
      </trkpt>
      <trkpt lat="46.39314" lon="6.11271">
        <ele>1080.439622</ele>
        <time>2024-09-15T12:53:01.000Z</time>
      </trkpt>
      <trkpt lat="46.39313" lon="6.11273">
        <ele>1080.626781</ele>
        <time>2024-09-15T12:53:02.000Z</time>
      </trkpt>
      <trkpt lat="46.39311" lon="6.11275">
        <ele>1080.8186</ele>
        <time>2024-09-15T12:53:03.000Z</time>
      </trkpt>
      <trkpt lat="46.3931" lon="6.11278">
        <ele>1081.020025</ele>
        <time>2024-09-15T12:53:04.000Z</time>
      </trkpt>
      <trkpt lat="46.39309" lon="6.11281">
        <ele>1081.23127</ele>
        <time>2024-09-15T12:53:05.000Z</time>
      </trkpt>
      <trkpt lat="46.39308" lon="6.11283">
        <ele>1081.433326</ele>
        <time>2024-09-15T12:53:06.000Z</time>
      </trkpt>
      <trkpt lat="46.39307" lon="6.11287">
        <ele>1081.648452</ele>
        <time>2024-09-15T12:53:07.000Z</time>
      </trkpt>
      <trkpt lat="46.39307" lon="6.1129">
        <ele>1081.844254</ele>
        <time>2024-09-15T12:53:08.000Z</time>
      </trkpt>
      <trkpt lat="46.39306" lon="6.11293">
        <ele>1082.062946</ele>
        <time>2024-09-15T12:53:09.000Z</time>
      </trkpt>
      <trkpt lat="46.39305" lon="6.11296">
        <ele>1082.271973</ele>
        <time>2024-09-15T12:53:10.000Z</time>
      </trkpt>
      <trkpt lat="46.39305" lon="6.11299">
        <ele>1082.467176</ele>
        <time>2024-09-15T12:53:11.000Z</time>
      </trkpt>
      <trkpt lat="46.39305" lon="6.11302">
        <ele>1082.662604</ele>
        <time>2024-09-15T12:53:12.000Z</time>
      </trkpt>
      <trkpt lat="46.39306" lon="6.11305">
        <ele>1082.842832</ele>
        <time>2024-09-15T12:53:13.000Z</time>
      </trkpt>
      <trkpt lat="46.39307" lon="6.11308">
        <ele>1083.042321</ele>
        <time>2024-09-15T12:53:14.000Z</time>
      </trkpt>
      <trkpt lat="46.39309" lon="6.1131">
        <ele>1083.245032</ele>
        <time>2024-09-15T12:53:15.000Z</time>
      </trkpt>
      <trkpt lat="46.39311" lon="6.11311">
        <ele>1083.42238</ele>
        <time>2024-09-15T12:53:16.000Z</time>
      </trkpt>
      <trkpt lat="46.39313" lon="6.11311">
        <ele>1083.615786</ele>
        <time>2024-09-15T12:53:17.000Z</time>
      </trkpt>
      <trkpt lat="46.39315" lon="6.11311">
        <ele>1083.800932</ele>
        <time>2024-09-15T12:53:18.000Z</time>
      </trkpt>
      <trkpt lat="46.39317" lon="6.1131">
        <ele>1083.977347</ele>
        <time>2024-09-15T12:53:19.000Z</time>
      </trkpt>
      <trkpt lat="46.39319" lon="6.11309">
        <ele>1084.143242</ele>
        <time>2024-09-15T12:53:20.000Z</time>
      </trkpt>
      <trkpt lat="46.3932" lon="6.11307">
        <ele>1084.292857</ele>
        <time>2024-09-15T12:53:21.000Z</time>
      </trkpt>
      <trkpt lat="46.39322" lon="6.11306">
        <ele>1084.454813</ele>
        <time>2024-09-15T12:53:22.000Z</time>
      </trkpt>
      <trkpt lat="46.39323" lon="6.11303">
        <ele>1084.631556</ele>
        <time>2024-09-15T12:53:23.000Z</time>
      </trkpt>
      <trkpt lat="46.39324" lon="6.11301">
        <ele>1084.796086</ele>
        <time>2024-09-15T12:53:24.000Z</time>
      </trkpt>
      <trkpt lat="46.39325" lon="6.11299">
        <ele>1084.951967</ele>
        <time>2024-09-15T12:53:25.000Z</time>
      </trkpt>
      <trkpt lat="46.39326" lon="6.11297">
        <ele>1085.11199</ele>
        <time>2024-09-15T12:53:26.000Z</time>
      </trkpt>
      <trkpt lat="46.39326" lon="6.11294">
        <ele>1085.272174</ele>
        <time>2024-09-15T12:53:27.000Z</time>
      </trkpt>
      <trkpt lat="46.39327" lon="6.11292">
        <ele>1085.423889</ele>
        <time>2024-09-15T12:53:28.000Z</time>
      </trkpt>
      <trkpt lat="46.39327" lon="6.11289">
        <ele>1085.575605</ele>
        <time>2024-09-15T12:53:29.000Z</time>
      </trkpt>
      <trkpt lat="46.39328" lon="6.11287">
        <ele>1085.705958</ele>
        <time>2024-09-15T12:53:30.000Z</time>
      </trkpt>
      <trkpt lat="46.39329" lon="6.11285">
        <ele>1085.870393</ele>
        <time>2024-09-15T12:53:31.000Z</time>
      </trkpt>
      <trkpt lat="46.3933" lon="6.11283">
        <ele>1086.025192</ele>
        <time>2024-09-15T12:53:32.000Z</time>
      </trkpt>
      <trkpt lat="46.39331" lon="6.11281">
        <ele>1086.153926</ele>
        <time>2024-09-15T12:53:33.000Z</time>
      </trkpt>
      <trkpt lat="46.39331" lon="6.11279">
        <ele>1086.294099</ele>
        <time>2024-09-15T12:53:34.000Z</time>
      </trkpt>
      <trkpt lat="46.39332" lon="6.11277">
        <ele>1086.458629</ele>
        <time>2024-09-15T12:53:35.000Z</time>
      </trkpt>
      <trkpt lat="46.39333" lon="6.11274">
        <ele>1086.633149</ele>
        <time>2024-09-15T12:53:36.000Z</time>
      </trkpt>
      <trkpt lat="46.39335" lon="6.11272">
        <ele>1086.812533</ele>
        <time>2024-09-15T12:53:37.000Z</time>
      </trkpt>
      <trkpt lat="46.39336" lon="6.1127">
        <ele>1086.976968</ele>
        <time>2024-09-15T12:53:38.000Z</time>
      </trkpt>
      <trkpt lat="46.39337" lon="6.11267">
        <ele>1087.166433</ele>
        <time>2024-09-15T12:53:39.000Z</time>
      </trkpt>
      <trkpt lat="46.39338" lon="6.11265">
        <ele>1087.326457</ele>
        <time>2024-09-15T12:53:40.000Z</time>
      </trkpt>
      <trkpt lat="46.39339" lon="6.11263">
        <ele>1087.471087</ele>
        <time>2024-09-15T12:53:41.000Z</time>
      </trkpt>
      <trkpt lat="46.3934" lon="6.11261">
        <ele>1087.625875</ele>
        <time>2024-09-15T12:53:42.000Z</time>
      </trkpt>
      <trkpt lat="46.39341" lon="6.11259">
        <ele>1087.790405</ele>
        <time>2024-09-15T12:53:43.000Z</time>
      </trkpt>
      <trkpt lat="46.39342" lon="6.11256">
        <ele>1087.961166</ele>
        <time>2024-09-15T12:53:44.000Z</time>
      </trkpt>
      <trkpt lat="46.39343" lon="6.11254">
        <ele>1088.130537</ele>
        <time>2024-09-15T12:53:45.000Z</time>
      </trkpt>
      <trkpt lat="46.39344" lon="6.11252">
        <ele>1088.305424</ele>
        <time>2024-09-15T12:53:46.000Z</time>
      </trkpt>
      <trkpt lat="46.39345" lon="6.11249">
        <ele>1088.474796</ele>
        <time>2024-09-15T12:53:47.000Z</time>
      </trkpt>
      <trkpt lat="46.39346" lon="6.11247">
        <ele>1088.644475</ele>
        <time>2024-09-15T12:53:48.000Z</time>
      </trkpt>
      <trkpt lat="46.39347" lon="6.11245">
        <ele>1088.818853</ele>
        <time>2024-09-15T12:53:49.000Z</time>
      </trkpt>
      <trkpt lat="46.39348" lon="6.11242">
        <ele>1088.969355</ele>
        <time>2024-09-15T12:53:50.000Z</time>
      </trkpt>
      <trkpt lat="46.39349" lon="6.1124">
        <ele>1089.11597</ele>
        <time>2024-09-15T12:53:51.000Z</time>
      </trkpt>
      <trkpt lat="46.3935" lon="6.11238">
        <ele>1089.273656</ele>
        <time>2024-09-15T12:53:52.000Z</time>
      </trkpt>
      <trkpt lat="46.3935" lon="6.11235">
        <ele>1089.419947</ele>
        <time>2024-09-15T12:53:53.000Z</time>
      </trkpt>
      <trkpt lat="46.3935" lon="6.11233">
        <ele>1089.591418</ele>
        <time>2024-09-15T12:53:54.000Z</time>
      </trkpt>
      <trkpt lat="46.3935" lon="6.1123">
        <ele>1089.718498</ele>
        <time>2024-09-15T12:53:55.000Z</time>
      </trkpt>
      <trkpt lat="46.3935" lon="6.11228">
        <ele>1089.844512</ele>
        <time>2024-09-15T12:53:56.000Z</time>
      </trkpt>
      <trkpt lat="46.39349" lon="6.11227">
        <ele>1089.979221</ele>
        <time>2024-09-15T12:53:57.000Z</time>
      </trkpt>
      <trkpt lat="46.39349" lon="6.11224">
        <ele>1090.114929</ele>
        <time>2024-09-15T12:53:58.000Z</time>
      </trkpt>
      <trkpt lat="46.39348" lon="6.11222">
        <ele>1090.258468</ele>
        <time>2024-09-15T12:53:59.000Z</time>
      </trkpt>
      <trkpt lat="46.39347" lon="6.1122">
        <ele>1090.420424</ele>
        <time>2024-09-15T12:54:00.000Z</time>
      </trkpt>
      <trkpt lat="46.39345" lon="6.11218">
        <ele>1090.601882</ele>
        <time>2024-09-15T12:54:01.000Z</time>
      </trkpt>
      <trkpt lat="46.39343" lon="6.11217">
        <ele>1090.804679</ele>
        <time>2024-09-15T12:54:02.000Z</time>
      </trkpt>
      <trkpt lat="46.39341" lon="6.11216">
        <ele>1091.005024</ele>
        <time>2024-09-15T12:54:03.000Z</time>
      </trkpt>
      <trkpt lat="46.39339" lon="6.11214">
        <ele>1091.207534</ele>
        <time>2024-09-15T12:54:04.000Z</time>
      </trkpt>
      <trkpt lat="46.39338" lon="6.11211">
        <ele>1091.387761</ele>
        <time>2024-09-15T12:54:05.000Z</time>
      </trkpt>
      <trkpt lat="46.39338" lon="6.11208">
        <ele>1091.584561</ele>
        <time>2024-09-15T12:54:06.000Z</time>
      </trkpt>
      <trkpt lat="46.39338" lon="6.11205">
        <ele>1091.76695</ele>
        <time>2024-09-15T12:54:07.000Z</time>
      </trkpt>
      <trkpt lat="46.39338" lon="6.11202">
        <ele>1091.938422</ele>
        <time>2024-09-15T12:54:08.000Z</time>
      </trkpt>
      <trkpt lat="46.39337" lon="6.112">
        <ele>1092.083599</ele>
        <time>2024-09-15T12:54:09.000Z</time>
      </trkpt>
      <trkpt lat="46.39336" lon="6.11198">
        <ele>1092.244015</ele>
        <time>2024-09-15T12:54:10.000Z</time>
      </trkpt>
      <trkpt lat="46.39335" lon="6.11195">
        <ele>1092.427418</ele>
        <time>2024-09-15T12:54:11.000Z</time>
      </trkpt>
      <trkpt lat="46.39334" lon="6.11192">
        <ele>1092.594194</ele>
        <time>2024-09-15T12:54:12.000Z</time>
      </trkpt>
      <trkpt lat="46.39333" lon="6.1119">
        <ele>1092.754377</ele>
        <time>2024-09-15T12:54:13.000Z</time>
      </trkpt>
      <trkpt lat="46.39333" lon="6.11187">
        <ele>1092.921153</ele>
        <time>2024-09-15T12:54:14.000Z</time>
      </trkpt>
      <trkpt lat="46.39332" lon="6.11185">
        <ele>1093.104371</ele>
        <time>2024-09-15T12:54:15.000Z</time>
      </trkpt>
      <trkpt lat="46.39331" lon="6.11182">
        <ele>1093.279398</ele>
        <time>2024-09-15T12:54:16.000Z</time>
      </trkpt>
      <trkpt lat="46.39331" lon="6.11179">
        <ele>1093.462839</ele>
        <time>2024-09-15T12:54:17.000Z</time>
      </trkpt>
      <trkpt lat="46.39331" lon="6.11176">
        <ele>1093.646056</ele>
        <time>2024-09-15T12:54:18.000Z</time>
      </trkpt>
      <trkpt lat="46.3933" lon="6.11173">
        <ele>1093.822098</ele>
        <time>2024-09-15T12:54:19.000Z</time>
      </trkpt>
      <trkpt lat="46.39329" lon="6.11171">
        <ele>1093.981541</ele>
        <time>2024-09-15T12:54:20.000Z</time>
      </trkpt>
      <trkpt lat="46.39328" lon="6.11169">
        <ele>1094.116079</ele>
        <time>2024-09-15T12:54:21.000Z</time>
      </trkpt>
      <trkpt lat="46.39327" lon="6.11167">
        <ele>1094.250518</ele>
        <time>2024-09-15T12:54:22.000Z</time>
      </trkpt>
      <trkpt lat="46.39327" lon="6.11165">
        <ele>1094.408205</ele>
        <time>2024-09-15T12:54:23.000Z</time>
      </trkpt>
      <trkpt lat="46.39325" lon="6.11163">
        <ele>1094.57264</ele>
        <time>2024-09-15T12:54:24.000Z</time>
      </trkpt>
      <trkpt lat="46.39324" lon="6.11161">
        <ele>1094.754098</ele>
        <time>2024-09-15T12:54:25.000Z</time>
      </trkpt>
      <trkpt lat="46.39322" lon="6.11159">
        <ele>1094.949991</ele>
        <time>2024-09-15T12:54:26.000Z</time>
      </trkpt>
      <trkpt lat="46.3932" lon="6.11157">
        <ele>1095.135239</ele>
        <time>2024-09-15T12:54:27.000Z</time>
      </trkpt>
      <trkpt lat="46.39318" lon="6.11156">
        <ele>1095.301134</ele>
        <time>2024-09-15T12:54:28.000Z</time>
      </trkpt>
      <trkpt lat="46.39317" lon="6.11155">
        <ele>1095.469766</ele>
        <time>2024-09-15T12:54:29.000Z</time>
      </trkpt>
      <trkpt lat="46.39315" lon="6.11153">
        <ele>1095.643808</ele>
        <time>2024-09-15T12:54:30.000Z</time>
      </trkpt>
      <trkpt lat="46.39314" lon="6.11151">
        <ele>1095.798607</ele>
        <time>2024-09-15T12:54:31.000Z</time>
      </trkpt>
      <trkpt lat="46.39313" lon="6.11149">
        <ele>1095.963042</ele>
        <time>2024-09-15T12:54:32.000Z</time>
      </trkpt>
      <trkpt lat="46.39311" lon="6.11147">
        <ele>1096.140728</ele>
        <time>2024-09-15T12:54:33.000Z</time>
      </trkpt>
      <trkpt lat="46.3931" lon="6.11145">
        <ele>1096.326081</ele>
        <time>2024-09-15T12:54:34.000Z</time>
      </trkpt>
      <trkpt lat="46.39308" lon="6.11144">
        <ele>1096.489469</ele>
        <time>2024-09-15T12:54:35.000Z</time>
      </trkpt>
      <trkpt lat="46.39307" lon="6.11142">
        <ele>1096.62461</ele>
        <time>2024-09-15T12:54:36.000Z</time>
      </trkpt>
      <trkpt lat="46.39306" lon="6.1114">
        <ele>1096.764478</ele>
        <time>2024-09-15T12:54:37.000Z</time>
      </trkpt>
      <trkpt lat="46.39305" lon="6.11139">
        <ele>1096.905538</ele>
        <time>2024-09-15T12:54:38.000Z</time>
      </trkpt>
      <trkpt lat="46.39304" lon="6.11137">
        <ele>1097.048233</ele>
        <time>2024-09-15T12:54:39.000Z</time>
      </trkpt>
      <trkpt lat="46.39302" lon="6.11137">
        <ele>1097.218847</ele>
        <time>2024-09-15T12:54:40.000Z</time>
      </trkpt>
      <trkpt lat="46.393" lon="6.11136">
        <ele>1097.371042</ele>
        <time>2024-09-15T12:54:41.000Z</time>
      </trkpt>
      <trkpt lat="46.39298" lon="6.11136">
        <ele>1097.52215</ele>
        <time>2024-09-15T12:54:42.000Z</time>
      </trkpt>
      <trkpt lat="46.39297" lon="6.11135">
        <ele>1097.665757</ele>
        <time>2024-09-15T12:54:43.000Z</time>
      </trkpt>
      <trkpt lat="46.39295" lon="6.11134">
        <ele>1097.80784</ele>
        <time>2024-09-15T12:54:44.000Z</time>
      </trkpt>
      <trkpt lat="46.39293" lon="6.11133">
        <ele>1097.994838</ele>
        <time>2024-09-15T12:54:45.000Z</time>
      </trkpt>
      <trkpt lat="46.39291" lon="6.11132">
        <ele>1098.207193</ele>
        <time>2024-09-15T12:54:46.000Z</time>
      </trkpt>
      <trkpt lat="46.39289" lon="6.11131">
        <ele>1098.351281</ele>
        <time>2024-09-15T12:54:47.000Z</time>
      </trkpt>
      <trkpt lat="46.39288" lon="6.1113">
        <ele>1098.50478</ele>
        <time>2024-09-15T12:54:48.000Z</time>
      </trkpt>
      <trkpt lat="46.39286" lon="6.1113">
        <ele>1098.636319</ele>
        <time>2024-09-15T12:54:49.000Z</time>
      </trkpt>
      <trkpt lat="46.39284" lon="6.1113">
        <ele>1098.791334</ele>
        <time>2024-09-15T12:54:50.000Z</time>
      </trkpt>
      <trkpt lat="46.39282" lon="6.11129">
        <ele>1098.926079</ele>
        <time>2024-09-15T12:54:51.000Z</time>
      </trkpt>
      <trkpt lat="46.39281" lon="6.11129">
        <ele>1099.078025</ele>
        <time>2024-09-15T12:54:52.000Z</time>
      </trkpt>
      <trkpt lat="46.39279" lon="6.11128">
        <ele>1099.235189</ele>
        <time>2024-09-15T12:54:53.000Z</time>
      </trkpt>
      <trkpt lat="46.39277" lon="6.11127">
        <ele>1099.384768</ele>
        <time>2024-09-15T12:54:54.000Z</time>
      </trkpt>
      <trkpt lat="46.39275" lon="6.11126">
        <ele>1099.547739</ele>
        <time>2024-09-15T12:54:55.000Z</time>
      </trkpt>
      <trkpt lat="46.39273" lon="6.11125">
        <ele>1099.70298</ele>
        <time>2024-09-15T12:54:56.000Z</time>
      </trkpt>
      <trkpt lat="46.39272" lon="6.11124">
        <ele>1099.853567</ele>
        <time>2024-09-15T12:54:57.000Z</time>
      </trkpt>
      <trkpt lat="46.3927" lon="6.11123">
        <ele>1099.997943</ele>
        <time>2024-09-15T12:54:58.000Z</time>
      </trkpt>
      <trkpt lat="46.39269" lon="6.11122">
        <ele>1100.143286</ele>
        <time>2024-09-15T12:54:59.000Z</time>
      </trkpt>
      <trkpt lat="46.39267" lon="6.1112">
        <ele>1100.295117</ele>
        <time>2024-09-15T12:55:00.000Z</time>
      </trkpt>
      <trkpt lat="46.39266" lon="6.11119">
        <ele>1100.44199</ele>
        <time>2024-09-15T12:55:01.000Z</time>
      </trkpt>
      <trkpt lat="46.39264" lon="6.11117">
        <ele>1100.597219</ele>
        <time>2024-09-15T12:55:02.000Z</time>
      </trkpt>
      <trkpt lat="46.39262" lon="6.11116">
        <ele>1100.758749</ele>
        <time>2024-09-15T12:55:03.000Z</time>
      </trkpt>
      <trkpt lat="46.39261" lon="6.11115">
        <ele>1100.903124</ele>
        <time>2024-09-15T12:55:04.000Z</time>
      </trkpt>
      <trkpt lat="46.39259" lon="6.11114">
        <ele>1101.049997</ele>
        <time>2024-09-15T12:55:05.000Z</time>
      </trkpt>
      <trkpt lat="46.39257" lon="6.11113">
        <ele>1101.187989</ele>
        <time>2024-09-15T12:55:06.000Z</time>
      </trkpt>
      <trkpt lat="46.39256" lon="6.11112">
        <ele>1101.345153</ele>
        <time>2024-09-15T12:55:07.000Z</time>
      </trkpt>
      <trkpt lat="46.39254" lon="6.11111">
        <ele>1101.514311</ele>
        <time>2024-09-15T12:55:08.000Z</time>
      </trkpt>
      <trkpt lat="46.39252" lon="6.1111">
        <ele>1101.688081</ele>
        <time>2024-09-15T12:55:09.000Z</time>
      </trkpt>
      <trkpt lat="46.3925" lon="6.11108">
        <ele>1101.85204</ele>
        <time>2024-09-15T12:55:10.000Z</time>
      </trkpt>
      <trkpt lat="46.39249" lon="6.11107">
        <ele>1101.970894</ele>
        <time>2024-09-15T12:55:11.000Z</time>
      </trkpt>
      <trkpt lat="46.39247" lon="6.11106">
        <ele>1102.100723</ele>
        <time>2024-09-15T12:55:12.000Z</time>
      </trkpt>
      <trkpt lat="46.39246" lon="6.11105">
        <ele>1102.245099</ele>
        <time>2024-09-15T12:55:13.000Z</time>
      </trkpt>
      <trkpt lat="46.39244" lon="6.11104">
        <ele>1102.401802</ele>
        <time>2024-09-15T12:55:14.000Z</time>
      </trkpt>
      <trkpt lat="46.39242" lon="6.11102">
        <ele>1102.55417</ele>
        <time>2024-09-15T12:55:15.000Z</time>
      </trkpt>
      <trkpt lat="46.39241" lon="6.11101">
        <ele>1102.7157</ele>
        <time>2024-09-15T12:55:16.000Z</time>
      </trkpt>
      <trkpt lat="46.39239" lon="6.111">
        <ele>1102.862573</ele>
        <time>2024-09-15T12:55:17.000Z</time>
      </trkpt>
      <trkpt lat="46.39238" lon="6.11099">
        <ele>1102.998122</ele>
        <time>2024-09-15T12:55:18.000Z</time>
      </trkpt>
      <trkpt lat="46.39236" lon="6.11097">
        <ele>1103.172527</ele>
        <time>2024-09-15T12:55:19.000Z</time>
      </trkpt>
      <trkpt lat="46.39234" lon="6.11097">
        <ele>1103.343266</ele>
        <time>2024-09-15T12:55:20.000Z</time>
      </trkpt>
      <trkpt lat="46.39232" lon="6.11096">
        <ele>1103.512424</ele>
        <time>2024-09-15T12:55:21.000Z</time>
      </trkpt>
      <trkpt lat="46.3923" lon="6.11095">
        <ele>1103.654481</ele>
        <time>2024-09-15T12:55:22.000Z</time>
      </trkpt>
      <trkpt lat="46.39229" lon="6.11093">
        <ele>1103.780062</ele>
        <time>2024-09-15T12:55:23.000Z</time>
      </trkpt>
      <trkpt lat="46.39227" lon="6.11092">
        <ele>1103.91242</ele>
        <time>2024-09-15T12:55:24.000Z</time>
      </trkpt>
      <trkpt lat="46.39226" lon="6.11091">
        <ele>1104.035143</ele>
        <time>2024-09-15T12:55:25.000Z</time>
      </trkpt>
      <trkpt lat="46.39225" lon="6.1109">
        <ele>1104.167744</ele>
        <time>2024-09-15T12:55:26.000Z</time>
      </trkpt>
      <trkpt lat="46.39223" lon="6.11089">
        <ele>1104.319527</ele>
        <time>2024-09-15T12:55:27.000Z</time>
      </trkpt>
      <trkpt lat="46.39222" lon="6.11087">
        <ele>1104.472089</ele>
        <time>2024-09-15T12:55:28.000Z</time>
      </trkpt>
      <trkpt lat="46.3922" lon="6.11085">
        <ele>1104.637207</ele>
        <time>2024-09-15T12:55:29.000Z</time>
      </trkpt>
      <trkpt lat="46.39218" lon="6.11085">
        <ele>1104.839325</ele>
        <time>2024-09-15T12:55:30.000Z</time>
      </trkpt>
      <trkpt lat="46.39215" lon="6.11084">
        <ele>1105.037892</ele>
        <time>2024-09-15T12:55:31.000Z</time>
      </trkpt>
      <trkpt lat="46.39213" lon="6.11084">
        <ele>1105.241802</ele>
        <time>2024-09-15T12:55:32.000Z</time>
      </trkpt>
      <trkpt lat="46.3921" lon="6.11084">
        <ele>1105.454085</ele>
        <time>2024-09-15T12:55:33.000Z</time>
      </trkpt>
      <trkpt lat="46.39208" lon="6.11083">
        <ele>1105.646932</ele>
        <time>2024-09-15T12:55:34.000Z</time>
      </trkpt>
      <trkpt lat="46.39206" lon="6.11081">
        <ele>1105.826078</ele>
        <time>2024-09-15T12:55:35.000Z</time>
      </trkpt>
      <trkpt lat="46.39204" lon="6.1108">
        <ele>1106.016948</ele>
        <time>2024-09-15T12:55:36.000Z</time>
      </trkpt>
      <trkpt lat="46.39202" lon="6.11078">
        <ele>1106.221803</ele>
        <time>2024-09-15T12:55:37.000Z</time>
      </trkpt>
      <trkpt lat="46.39199" lon="6.11077">
        <ele>1106.425402</ele>
        <time>2024-09-15T12:55:38.000Z</time>
      </trkpt>
      <trkpt lat="46.39197" lon="6.11074">
        <ele>1106.634597</ele>
        <time>2024-09-15T12:55:39.000Z</time>
      </trkpt>
      <trkpt lat="46.39196" lon="6.11073">
        <ele>1106.789827</ele>
        <time>2024-09-15T12:55:40.000Z</time>
      </trkpt>
      <trkpt lat="46.39194" lon="6.1107">
        <ele>1106.993672</ele>
        <time>2024-09-15T12:55:41.000Z</time>
      </trkpt>
      <trkpt lat="46.39194" lon="6.11067">
        <ele>1107.171025</ele>
        <time>2024-09-15T12:55:42.000Z</time>
      </trkpt>
      <trkpt lat="46.39194" lon="6.11063">
        <ele>1107.384873</ele>
        <time>2024-09-15T12:55:43.000Z</time>
      </trkpt>
      <trkpt lat="46.39193" lon="6.11059">
        <ele>1107.58037</ele>
        <time>2024-09-15T12:55:44.000Z</time>
      </trkpt>
      <trkpt lat="46.39193" lon="6.11056">
        <ele>1107.758467</ele>
        <time>2024-09-15T12:55:45.000Z</time>
      </trkpt>
      <trkpt lat="46.39192" lon="6.11054">
        <ele>1107.917053</ele>
        <time>2024-09-15T12:55:46.000Z</time>
      </trkpt>
      <trkpt lat="46.39191" lon="6.11051">
        <ele>1108.066952</ele>
        <time>2024-09-15T12:55:47.000Z</time>
      </trkpt>
      <trkpt lat="46.3919" lon="6.11049">
        <ele>1108.1896</ele>
        <time>2024-09-15T12:55:48.000Z</time>
      </trkpt>
      <trkpt lat="46.3919" lon="6.11047">
        <ele>1108.306703</ele>
        <time>2024-09-15T12:55:49.000Z</time>
      </trkpt>
      <trkpt lat="46.39189" lon="6.11045">
        <ele>1108.45026</ele>
        <time>2024-09-15T12:55:50.000Z</time>
      </trkpt>
      <trkpt lat="46.39189" lon="6.11043">
        <ele>1108.576382</ele>
        <time>2024-09-15T12:55:51.000Z</time>
      </trkpt>
      <trkpt lat="46.39188" lon="6.11041">
        <ele>1108.710673</ele>
        <time>2024-09-15T12:55:52.000Z</time>
      </trkpt>
      <trkpt lat="46.39187" lon="6.11038">
        <ele>1108.893</ele>
        <time>2024-09-15T12:55:53.000Z</time>
      </trkpt>
      <trkpt lat="46.39186" lon="6.11036">
        <ele>1109.031283</ele>
        <time>2024-09-15T12:55:54.000Z</time>
      </trkpt>
      <trkpt lat="46.39185" lon="6.11034">
        <ele>1109.17614</ele>
        <time>2024-09-15T12:55:55.000Z</time>
      </trkpt>
      <trkpt lat="46.39185" lon="6.11031">
        <ele>1109.346401</ele>
        <time>2024-09-15T12:55:56.000Z</time>
      </trkpt>
      <trkpt lat="46.39184" lon="6.11028">
        <ele>1109.517682</ele>
        <time>2024-09-15T12:55:57.000Z</time>
      </trkpt>
      <trkpt lat="46.39182" lon="6.11026">
        <ele>1109.702582</ele>
        <time>2024-09-15T12:55:58.000Z</time>
      </trkpt>
      <trkpt lat="46.3918" lon="6.11024">
        <ele>1109.898202</ele>
        <time>2024-09-15T12:55:59.000Z</time>
      </trkpt>
      <trkpt lat="46.39178" lon="6.11021">
        <ele>1110.091662</ele>
        <time>2024-09-15T12:56:00.000Z</time>
      </trkpt>
      <trkpt lat="46.39177" lon="6.11019">
        <ele>1110.273796</ele>
        <time>2024-09-15T12:56:01.000Z</time>
      </trkpt>
      <trkpt lat="46.39176" lon="6.11017">
        <ele>1110.417638</ele>
        <time>2024-09-15T12:56:02.000Z</time>
      </trkpt>
      <trkpt lat="46.39175" lon="6.11015">
        <ele>1110.561489</ele>
        <time>2024-09-15T12:56:03.000Z</time>
      </trkpt>
      <trkpt lat="46.39173" lon="6.11013">
        <ele>1110.700153</ele>
        <time>2024-09-15T12:56:04.000Z</time>
      </trkpt>
      <trkpt lat="46.39172" lon="6.11013">
        <ele>1110.845877</ele>
        <time>2024-09-15T12:56:05.000Z</time>
      </trkpt>
      <trkpt lat="46.3917" lon="6.11012">
        <ele>1111.013627</ele>
        <time>2024-09-15T12:56:06.000Z</time>
      </trkpt>
      <trkpt lat="46.39168" lon="6.11011">
        <ele>1111.165995</ele>
        <time>2024-09-15T12:56:07.000Z</time>
      </trkpt>
      <trkpt lat="46.39167" lon="6.11009">
        <ele>1111.288718</ele>
        <time>2024-09-15T12:56:08.000Z</time>
      </trkpt>
      <trkpt lat="46.39165" lon="6.11009">
        <ele>1111.419292</ele>
        <time>2024-09-15T12:56:09.000Z</time>
      </trkpt>
      <trkpt lat="46.39164" lon="6.1101">
        <ele>1111.534678</ele>
        <time>2024-09-15T12:56:10.000Z</time>
      </trkpt>
      <trkpt lat="46.39163" lon="6.11008">
        <ele>1111.653533</ele>
        <time>2024-09-15T12:56:11.000Z</time>
      </trkpt>
      <trkpt lat="46.39161" lon="6.11008">
        <ele>1111.794962</ele>
        <time>2024-09-15T12:56:12.000Z</time>
      </trkpt>
      <trkpt lat="46.39159" lon="6.11007">
        <ele>1111.969474</ele>
        <time>2024-09-15T12:56:13.000Z</time>
      </trkpt>
      <trkpt lat="46.39157" lon="6.11006">
        <ele>1112.119053</ele>
        <time>2024-09-15T12:56:14.000Z</time>
      </trkpt>
      <trkpt lat="46.39155" lon="6.11006">
        <ele>1112.283663</ele>
        <time>2024-09-15T12:56:15.000Z</time>
      </trkpt>
      <trkpt lat="46.39153" lon="6.11005">
        <ele>1112.441107</ele>
        <time>2024-09-15T12:56:16.000Z</time>
      </trkpt>
      <trkpt lat="46.39151" lon="6.11005">
        <ele>1112.594607</ele>
        <time>2024-09-15T12:56:17.000Z</time>
      </trkpt>
      <trkpt lat="46.39149" lon="6.11004">
        <ele>1112.755919</ele>
        <time>2024-09-15T12:56:18.000Z</time>
      </trkpt>
      <trkpt lat="46.39147" lon="6.11004">
        <ele>1112.914105</ele>
        <time>2024-09-15T12:56:19.000Z</time>
      </trkpt>
      <trkpt lat="46.39145" lon="6.11003">
        <ele>1113.068352</ele>
        <time>2024-09-15T12:56:20.000Z</time>
      </trkpt>
      <trkpt lat="46.39144" lon="6.11002">
        <ele>1113.21058</ele>
        <time>2024-09-15T12:56:21.000Z</time>
      </trkpt>
      <trkpt lat="46.39141" lon="6.11002">
        <ele>1113.40929</ele>
        <time>2024-09-15T12:56:22.000Z</time>
      </trkpt>
      <trkpt lat="46.39138" lon="6.11003">
        <ele>1113.655185</ele>
        <time>2024-09-15T12:56:23.000Z</time>
      </trkpt>
      <trkpt lat="46.39136" lon="6.11002">
        <ele>1113.806343</ele>
        <time>2024-09-15T12:56:24.000Z</time>
      </trkpt>
      <trkpt lat="46.39135" lon="6.11">
        <ele>1113.937397</ele>
        <time>2024-09-15T12:56:25.000Z</time>
      </trkpt>
      <trkpt lat="46.39134" lon="6.10998">
        <ele>1114.064331</ele>
        <time>2024-09-15T12:56:26.000Z</time>
      </trkpt>
      <trkpt lat="46.39132" lon="6.10997">
        <ele>1114.207108</ele>
        <time>2024-09-15T12:56:27.000Z</time>
      </trkpt>
      <trkpt lat="46.39131" lon="6.10995">
        <ele>1114.372742</ele>
        <time>2024-09-15T12:56:28.000Z</time>
      </trkpt>
      <trkpt lat="46.3913" lon="6.10992">
        <ele>1114.524588</ele>
        <time>2024-09-15T12:56:29.000Z</time>
      </trkpt>
      <trkpt lat="46.39129" lon="6.10991">
        <ele>1114.643631</ele>
        <time>2024-09-15T12:56:30.000Z</time>
      </trkpt>
      <trkpt lat="46.39128" lon="6.10988">
        <ele>1114.803175</ele>
        <time>2024-09-15T12:56:31.000Z</time>
      </trkpt>
      <trkpt lat="46.39127" lon="6.10985">
        <ele>1114.965079</ele>
        <time>2024-09-15T12:56:32.000Z</time>
      </trkpt>
      <trkpt lat="46.39126" lon="6.10983">
        <ele>1115.095249</ele>
        <time>2024-09-15T12:56:33.000Z</time>
      </trkpt>
      <trkpt lat="46.39125" lon="6.10982">
        <ele>1115.223674</ele>
        <time>2024-09-15T12:56:34.000Z</time>
      </trkpt>
      <trkpt lat="46.39123" lon="6.10981">
        <ele>1115.367511</ele>
        <time>2024-09-15T12:56:35.000Z</time>
      </trkpt>
      <trkpt lat="46.39121" lon="6.1098">
        <ele>1115.523547</ele>
        <time>2024-09-15T12:56:36.000Z</time>
      </trkpt>
      <trkpt lat="46.39119" lon="6.1098">
        <ele>1115.695627</ele>
        <time>2024-09-15T12:56:37.000Z</time>
      </trkpt>
      <trkpt lat="46.39117" lon="6.10978">
        <ele>1115.865305</ele>
        <time>2024-09-15T12:56:38.000Z</time>
      </trkpt>
      <trkpt lat="46.39115" lon="6.10976">
        <ele>1116.029429</ele>
        <time>2024-09-15T12:56:39.000Z</time>
      </trkpt>
      <trkpt lat="46.39113" lon="6.10976">
        <ele>1116.196731</ele>
        <time>2024-09-15T12:56:40.000Z</time>
      </trkpt>
      <trkpt lat="46.39111" lon="6.10975">
        <ele>1116.361357</ele>
        <time>2024-09-15T12:56:41.000Z</time>
      </trkpt>
      <trkpt lat="46.39109" lon="6.10973">
        <ele>1116.537872</ele>
        <time>2024-09-15T12:56:42.000Z</time>
      </trkpt>
      <trkpt lat="46.39107" lon="6.10972">
        <ele>1116.682328</ele>
        <time>2024-09-15T12:56:43.000Z</time>
      </trkpt>
      <trkpt lat="46.39106" lon="6.10971">
        <ele>1116.827796</ele>
        <time>2024-09-15T12:56:44.000Z</time>
      </trkpt>
      <trkpt lat="46.39104" lon="6.10968">
        <ele>1117.001889</ele>
        <time>2024-09-15T12:56:45.000Z</time>
      </trkpt>
      <trkpt lat="46.39102" lon="6.10967">
        <ele>1117.151127</ele>
        <time>2024-09-15T12:56:46.000Z</time>
      </trkpt>
      <trkpt lat="46.39101" lon="6.10965">
        <ele>1117.307823</ele>
        <time>2024-09-15T12:56:47.000Z</time>
      </trkpt>
      <trkpt lat="46.391" lon="6.10962">
        <ele>1117.479196</ele>
        <time>2024-09-15T12:56:48.000Z</time>
      </trkpt>
      <trkpt lat="46.39099" lon="6.1096">
        <ele>1117.605923</ele>
        <time>2024-09-15T12:56:49.000Z</time>
      </trkpt>
      <trkpt lat="46.39098" lon="6.10959">
        <ele>1117.73294</ele>
        <time>2024-09-15T12:56:50.000Z</time>
      </trkpt>
      <trkpt lat="46.39096" lon="6.10958">
        <ele>1117.891448</ele>
        <time>2024-09-15T12:56:51.000Z</time>
      </trkpt>
      <trkpt lat="46.39095" lon="6.10958">
        <ele>1117.961011</ele>
        <time>2024-09-15T12:56:52.000Z</time>
      </trkpt>
      <trkpt lat="46.39094" lon="6.10957">
        <ele>1118.041711</ele>
        <time>2024-09-15T12:56:53.000Z</time>
      </trkpt>
      <trkpt lat="46.39093" lon="6.10955">
        <ele>1118.162761</ele>
        <time>2024-09-15T12:56:54.000Z</time>
      </trkpt>
      <trkpt lat="46.39091" lon="6.10954">
        <ele>1118.298048</ele>
        <time>2024-09-15T12:56:55.000Z</time>
      </trkpt>
      <trkpt lat="46.39089" lon="6.10954">
        <ele>1118.454085</ele>
        <time>2024-09-15T12:56:56.000Z</time>
      </trkpt>
      <trkpt lat="46.39087" lon="6.10953">
        <ele>1118.627371</ele>
        <time>2024-09-15T12:56:57.000Z</time>
      </trkpt>
      <trkpt lat="46.39085" lon="6.10952">
        <ele>1118.7818</ele>
        <time>2024-09-15T12:56:58.000Z</time>
      </trkpt>
      <trkpt lat="46.39084" lon="6.1095">
        <ele>1118.946689</ele>
        <time>2024-09-15T12:56:59.000Z</time>
      </trkpt>
      <trkpt lat="46.39082" lon="6.10947">
        <ele>1119.126555</ele>
        <time>2024-09-15T12:57:00.000Z</time>
      </trkpt>
      <trkpt lat="46.3908" lon="6.10945">
        <ele>1119.324904</ele>
        <time>2024-09-15T12:57:01.000Z</time>
      </trkpt>
      <trkpt lat="46.39078" lon="6.10943">
        <ele>1119.522142</ele>
        <time>2024-09-15T12:57:02.000Z</time>
      </trkpt>
      <trkpt lat="46.39075" lon="6.10942">
        <ele>1119.727652</ele>
        <time>2024-09-15T12:57:03.000Z</time>
      </trkpt>
      <trkpt lat="46.39073" lon="6.10941">
        <ele>1119.882377</ele>
        <time>2024-09-15T12:57:04.000Z</time>
      </trkpt>
      <trkpt lat="46.39073" lon="6.10938">
        <ele>1120.039318</ele>
        <time>2024-09-15T12:57:05.000Z</time>
      </trkpt>
      <trkpt lat="46.39071" lon="6.10935">
        <ele>1120.23019</ele>
        <time>2024-09-15T12:57:06.000Z</time>
      </trkpt>
      <trkpt lat="46.3907" lon="6.10933">
        <ele>1120.389499</ele>
        <time>2024-09-15T12:57:07.000Z</time>
      </trkpt>
      <trkpt lat="46.39069" lon="6.10928">
        <ele>1120.642878</ele>
        <time>2024-09-15T12:57:08.000Z</time>
      </trkpt>
      <trkpt lat="46.39068" lon="6.10925">
        <ele>1120.823218</ele>
        <time>2024-09-15T12:57:09.000Z</time>
      </trkpt>
      <trkpt lat="46.39067" lon="6.10923">
        <ele>1120.966923</ele>
        <time>2024-09-15T12:57:10.000Z</time>
      </trkpt>
      <trkpt lat="46.39067" lon="6.10918">
        <ele>1121.199288</ele>
        <time>2024-09-15T12:57:11.000Z</time>
      </trkpt>
      <trkpt lat="46.39067" lon="6.10915">
        <ele>1121.359029</ele>
        <time>2024-09-15T12:57:12.000Z</time>
      </trkpt>
      <trkpt lat="46.39066" lon="6.10914">
        <ele>1121.467825</ele>
        <time>2024-09-15T12:57:13.000Z</time>
      </trkpt>
      <trkpt lat="46.39066" lon="6.1091">
        <ele>1121.657531</ele>
        <time>2024-09-15T12:57:14.000Z</time>
      </trkpt>
      <trkpt lat="46.39065" lon="6.10907">
        <ele>1121.827022</ele>
        <time>2024-09-15T12:57:15.000Z</time>
      </trkpt>
      <trkpt lat="46.39065" lon="6.10904">
        <ele>1122.017069</ele>
        <time>2024-09-15T12:57:16.000Z</time>
      </trkpt>
      <trkpt lat="46.39064" lon="6.109">
        <ele>1122.204047</ele>
        <time>2024-09-15T12:57:17.000Z</time>
      </trkpt>
      <trkpt lat="46.39062" lon="6.10898">
        <ele>1122.374677</ele>
        <time>2024-09-15T12:57:18.000Z</time>
      </trkpt>
      <trkpt lat="46.39061" lon="6.10897">
        <ele>1122.508192</ele>
        <time>2024-09-15T12:57:19.000Z</time>
      </trkpt>
      <trkpt lat="46.39059" lon="6.10896">
        <ele>1122.672818</ele>
        <time>2024-09-15T12:57:20.000Z</time>
      </trkpt>
      <trkpt lat="46.39056" lon="6.10895">
        <ele>1122.875731</ele>
        <time>2024-09-15T12:57:21.000Z</time>
      </trkpt>
      <trkpt lat="46.39053" lon="6.10893">
        <ele>1123.167181</ele>
        <time>2024-09-15T12:57:22.000Z</time>
      </trkpt>
      <trkpt lat="46.3905" lon="6.10891">
        <ele>1123.369423</ele>
        <time>2024-09-15T12:57:23.000Z</time>
      </trkpt>
      <trkpt lat="46.39048" lon="6.10889">
        <ele>1123.555045</ele>
        <time>2024-09-15T12:57:24.000Z</time>
      </trkpt>
      <trkpt lat="46.39046" lon="6.10887">
        <ele>1123.761486</ele>
        <time>2024-09-15T12:57:25.000Z</time>
      </trkpt>
      <trkpt lat="46.39044" lon="6.10885">
        <ele>1123.957127</ele>
        <time>2024-09-15T12:57:26.000Z</time>
      </trkpt>
      <trkpt lat="46.39041" lon="6.10883">
        <ele>1124.150124</ele>
        <time>2024-09-15T12:57:27.000Z</time>
      </trkpt>
      <trkpt lat="46.39039" lon="6.10882">
        <ele>1124.349796</ele>
        <time>2024-09-15T12:57:28.000Z</time>
      </trkpt>
      <trkpt lat="46.39037" lon="6.10881">
        <ele>1124.536548</ele>
        <time>2024-09-15T12:57:29.000Z</time>
      </trkpt>
      <trkpt lat="46.39034" lon="6.10879">
        <ele>1124.737744</ele>
        <time>2024-09-15T12:57:30.000Z</time>
      </trkpt>
      <trkpt lat="46.39032" lon="6.10878">
        <ele>1124.95865</ele>
        <time>2024-09-15T12:57:31.000Z</time>
      </trkpt>
      <trkpt lat="46.39029" lon="6.10876">
        <ele>1125.19966</ele>
        <time>2024-09-15T12:57:32.000Z</time>
      </trkpt>
      <trkpt lat="46.39026" lon="6.10874">
        <ele>1125.420402</ele>
        <time>2024-09-15T12:57:33.000Z</time>
      </trkpt>
      <trkpt lat="46.39024" lon="6.10872">
        <ele>1125.606175</ele>
        <time>2024-09-15T12:57:34.000Z</time>
      </trkpt>
      <trkpt lat="46.39022" lon="6.10869">
        <ele>1125.820799</ele>
        <time>2024-09-15T12:57:35.000Z</time>
      </trkpt>
      <trkpt lat="46.39021" lon="6.10866">
        <ele>1126.029074</ele>
        <time>2024-09-15T12:57:36.000Z</time>
      </trkpt>
      <trkpt lat="46.39019" lon="6.10862">
        <ele>1126.285666</ele>
        <time>2024-09-15T12:57:37.000Z</time>
      </trkpt>
      <trkpt lat="46.39016" lon="6.10858">
        <ele>1126.573078</ele>
        <time>2024-09-15T12:57:38.000Z</time>
      </trkpt>
      <trkpt lat="46.39014" lon="6.10854">
        <ele>1126.883494</ele>
        <time>2024-09-15T12:57:39.000Z</time>
      </trkpt>
      <trkpt lat="46.39011" lon="6.10849">
        <ele>1127.235855</ele>
        <time>2024-09-15T12:57:40.000Z</time>
      </trkpt>
      <trkpt lat="46.39009" lon="6.10845">
        <ele>1127.588215</ele>
        <time>2024-09-15T12:57:41.000Z</time>
      </trkpt>
      <trkpt lat="46.39006" lon="6.1084">
        <ele>1127.908541</ele>
        <time>2024-09-15T12:57:42.000Z</time>
      </trkpt>
      <trkpt lat="46.39005" lon="6.10837">
        <ele>1128.159794</ele>
        <time>2024-09-15T12:57:43.000Z</time>
      </trkpt>
      <trkpt lat="46.39003" lon="6.10835">
        <ele>1128.376019</ele>
        <time>2024-09-15T12:57:44.000Z</time>
      </trkpt>
      <trkpt lat="46.39001" lon="6.10833">
        <ele>1128.574166</ele>
        <time>2024-09-15T12:57:45.000Z</time>
      </trkpt>
      <trkpt lat="46.38999" lon="6.10831">
        <ele>1128.788876</ele>
        <time>2024-09-15T12:57:46.000Z</time>
      </trkpt>
      <trkpt lat="46.38997" lon="6.10828">
        <ele>1129.023885</ele>
        <time>2024-09-15T12:57:47.000Z</time>
      </trkpt>
      <trkpt lat="46.38994" lon="6.10826">
        <ele>1129.282819</ele>
        <time>2024-09-15T12:57:48.000Z</time>
      </trkpt>
      <trkpt lat="46.38992" lon="6.10825">
        <ele>1129.493705</ele>
        <time>2024-09-15T12:57:49.000Z</time>
      </trkpt>
      <trkpt lat="46.38989" lon="6.10823">
        <ele>1129.752639</ele>
        <time>2024-09-15T12:57:50.000Z</time>
      </trkpt>
      <trkpt lat="46.38988" lon="6.10821">
        <ele>1129.943922</ele>
        <time>2024-09-15T12:57:51.000Z</time>
      </trkpt>
      <trkpt lat="46.38986" lon="6.10818">
        <ele>1130.151415</ele>
        <time>2024-09-15T12:57:52.000Z</time>
      </trkpt>
      <trkpt lat="46.38985" lon="6.10816">
        <ele>1130.319177</ele>
        <time>2024-09-15T12:57:53.000Z</time>
      </trkpt>
      <trkpt lat="46.38984" lon="6.10814">
        <ele>1130.45434</ele>
        <time>2024-09-15T12:57:54.000Z</time>
      </trkpt>
      <trkpt lat="46.38983" lon="6.10813">
        <ele>1130.577444</ele>
        <time>2024-09-15T12:57:55.000Z</time>
      </trkpt>
      <trkpt lat="46.38982" lon="6.10812">
        <ele>1130.736543</ele>
        <time>2024-09-15T12:57:56.000Z</time>
      </trkpt>
      <trkpt lat="46.3898" lon="6.1081">
        <ele>1130.926222</ele>
        <time>2024-09-15T12:57:57.000Z</time>
      </trkpt>
      <trkpt lat="46.38978" lon="6.10807">
        <ele>1131.168589</ele>
        <time>2024-09-15T12:57:58.000Z</time>
      </trkpt>
      <trkpt lat="46.38976" lon="6.10805">
        <ele>1131.353674</ele>
        <time>2024-09-15T12:57:59.000Z</time>
      </trkpt>
      <trkpt lat="46.38975" lon="6.10803">
        <ele>1131.509607</ele>
        <time>2024-09-15T12:58:00.000Z</time>
      </trkpt>
      <trkpt lat="46.38973" lon="6.10802">
        <ele>1131.640175</ele>
        <time>2024-09-15T12:58:01.000Z</time>
      </trkpt>
      <trkpt lat="46.38972" lon="6.10801">
        <ele>1131.763279</ele>
        <time>2024-09-15T12:58:02.000Z</time>
      </trkpt>
      <trkpt lat="46.38972" lon="6.108">
        <ele>1131.833818</ele>
        <time>2024-09-15T12:58:03.000Z</time>
      </trkpt>
      <trkpt lat="46.38971" lon="6.108">
        <ele>1131.909387</ele>
        <time>2024-09-15T12:58:04.000Z</time>
      </trkpt>
      <trkpt lat="46.38969" lon="6.10798">
        <ele>1132.060392</ele>
        <time>2024-09-15T12:58:05.000Z</time>
      </trkpt>
      <trkpt lat="46.38968" lon="6.10796">
        <ele>1132.2503</ele>
        <time>2024-09-15T12:58:06.000Z</time>
      </trkpt>
      <trkpt lat="46.38966" lon="6.10794">
        <ele>1132.464649</ele>
        <time>2024-09-15T12:58:07.000Z</time>
      </trkpt>
      <trkpt lat="46.38964" lon="6.10792">
        <ele>1132.668847</ele>
        <time>2024-09-15T12:58:08.000Z</time>
      </trkpt>
      <trkpt lat="46.38962" lon="6.1079">
        <ele>1132.83745</ele>
        <time>2024-09-15T12:58:09.000Z</time>
      </trkpt>
      <trkpt lat="46.38961" lon="6.10788">
        <ele>1133.031229</ele>
        <time>2024-09-15T12:58:10.000Z</time>
      </trkpt>
      <trkpt lat="46.3896" lon="6.10786">
        <ele>1133.18391</ele>
        <time>2024-09-15T12:58:11.000Z</time>
      </trkpt>
      <trkpt lat="46.3896" lon="6.10784">
        <ele>1133.32583</ele>
        <time>2024-09-15T12:58:12.000Z</time>
      </trkpt>
      <trkpt lat="46.38959" lon="6.1078">
        <ele>1133.524035</ele>
        <time>2024-09-15T12:58:13.000Z</time>
      </trkpt>
      <trkpt lat="46.38959" lon="6.10777">
        <ele>1133.728225</ele>
        <time>2024-09-15T12:58:14.000Z</time>
      </trkpt>
      <trkpt lat="46.38958" lon="6.10773">
        <ele>1133.967453</ele>
        <time>2024-09-15T12:58:15.000Z</time>
      </trkpt>
      <trkpt lat="46.38956" lon="6.10771">
        <ele>1134.160123</ele>
        <time>2024-09-15T12:58:16.000Z</time>
      </trkpt>
      <trkpt lat="46.38955" lon="6.10769">
        <ele>1134.332905</ele>
        <time>2024-09-15T12:58:17.000Z</time>
      </trkpt>
      <trkpt lat="46.38953" lon="6.10767">
        <ele>1134.501508</ele>
        <time>2024-09-15T12:58:18.000Z</time>
      </trkpt>
      <trkpt lat="46.38951" lon="6.10766">
        <ele>1134.668229</ele>
        <time>2024-09-15T12:58:19.000Z</time>
      </trkpt>
      <trkpt lat="46.38949" lon="6.10766">
        <ele>1134.879487</ele>
        <time>2024-09-15T12:58:20.000Z</time>
      </trkpt>
      <trkpt lat="46.38947" lon="6.10764">
        <ele>1135.081354</ele>
        <time>2024-09-15T12:58:21.000Z</time>
      </trkpt>
      <trkpt lat="46.38945" lon="6.10763">
        <ele>1135.257028</ele>
        <time>2024-09-15T12:58:22.000Z</time>
      </trkpt>
      <trkpt lat="46.38943" lon="6.1076">
        <ele>1135.517</ele>
        <time>2024-09-15T12:58:23.000Z</time>
      </trkpt>
      <trkpt lat="46.38942" lon="6.10757">
        <ele>1135.699583</ele>
        <time>2024-09-15T12:58:24.000Z</time>
      </trkpt>
      <trkpt lat="46.38941" lon="6.10755">
        <ele>1135.881818</ele>
        <time>2024-09-15T12:58:25.000Z</time>
      </trkpt>
      <trkpt lat="46.38939" lon="6.10753">
        <ele>1136.015428</ele>
        <time>2024-09-15T12:58:26.000Z</time>
      </trkpt>
      <trkpt lat="46.38938" lon="6.10752">
        <ele>1136.128054</ele>
        <time>2024-09-15T12:58:27.000Z</time>
      </trkpt>
      <trkpt lat="46.38938" lon="6.10752">
        <ele>1136.201818</ele>
        <time>2024-09-15T12:58:28.000Z</time>
      </trkpt>
      <trkpt lat="46.38937" lon="6.1075">
        <ele>1136.289532</ele>
        <time>2024-09-15T12:58:29.000Z</time>
      </trkpt>
      <trkpt lat="46.38935" lon="6.10748">
        <ele>1136.508127</ele>
        <time>2024-09-15T12:58:30.000Z</time>
      </trkpt>
      <trkpt lat="46.38933" lon="6.10746">
        <ele>1136.719014</ele>
        <time>2024-09-15T12:58:31.000Z</time>
      </trkpt>
      <trkpt lat="46.38931" lon="6.10746">
        <ele>1136.869482</ele>
        <time>2024-09-15T12:58:32.000Z</time>
      </trkpt>
      <trkpt lat="46.3893" lon="6.10745">
        <ele>1137.021254</ele>
        <time>2024-09-15T12:58:33.000Z</time>
      </trkpt>
      <trkpt lat="46.38928" lon="6.10744">
        <ele>1137.186418</ele>
        <time>2024-09-15T12:58:34.000Z</time>
      </trkpt>
      <trkpt lat="46.38926" lon="6.10743">
        <ele>1137.358041</ele>
        <time>2024-09-15T12:58:35.000Z</time>
      </trkpt>
      <trkpt lat="46.38924" lon="6.10743">
        <ele>1137.55342</ele>
        <time>2024-09-15T12:58:36.000Z</time>
      </trkpt>
      <trkpt lat="46.38922" lon="6.10742">
        <ele>1137.745157</ele>
        <time>2024-09-15T12:58:37.000Z</time>
      </trkpt>
      <trkpt lat="46.3892" lon="6.10741">
        <ele>1137.936893</ele>
        <time>2024-09-15T12:58:38.000Z</time>
      </trkpt>
      <trkpt lat="46.38918" lon="6.1074">
        <ele>1138.069738</ele>
        <time>2024-09-15T12:58:39.000Z</time>
      </trkpt>
      <trkpt lat="46.38917" lon="6.10739">
        <ele>1138.212952</ele>
        <time>2024-09-15T12:58:40.000Z</time>
      </trkpt>
      <trkpt lat="46.38915" lon="6.10738">
        <ele>1138.372051</ele>
        <time>2024-09-15T12:58:41.000Z</time>
      </trkpt>
      <trkpt lat="46.38913" lon="6.10736">
        <ele>1138.55693</ele>
        <time>2024-09-15T12:58:42.000Z</time>
      </trkpt>
      <trkpt lat="46.38911" lon="6.10735">
        <ele>1138.770547</ele>
        <time>2024-09-15T12:58:43.000Z</time>
      </trkpt>
      <trkpt lat="46.38908" lon="6.10734">
        <ele>1139.002421</ele>
        <time>2024-09-15T12:58:44.000Z</time>
      </trkpt>
      <trkpt lat="46.38907" lon="6.10733">
        <ele>1139.161521</ele>
        <time>2024-09-15T12:58:45.000Z</time>
      </trkpt>
      <trkpt lat="46.38905" lon="6.10732">
        <ele>1139.328242</ele>
        <time>2024-09-15T12:58:46.000Z</time>
      </trkpt>
      <trkpt lat="46.38904" lon="6.1073">
        <ele>1139.469663</ele>
        <time>2024-09-15T12:58:47.000Z</time>
      </trkpt>
      <trkpt lat="46.38902" lon="6.10729">
        <ele>1139.625925</ele>
        <time>2024-09-15T12:58:48.000Z</time>
      </trkpt>
      <trkpt lat="46.389" lon="6.10729">
        <ele>1139.817137</ele>
        <time>2024-09-15T12:58:49.000Z</time>
      </trkpt>
      <trkpt lat="46.38899" lon="6.10728">
        <ele>1139.942209</ele>
        <time>2024-09-15T12:58:50.000Z</time>
      </trkpt>
      <trkpt lat="46.38897" lon="6.10728">
        <ele>1140.060552</ele>
        <time>2024-09-15T12:58:51.000Z</time>
      </trkpt>
      <trkpt lat="46.38896" lon="6.10727">
        <ele>1140.133958</ele>
        <time>2024-09-15T12:58:52.000Z</time>
      </trkpt>
      <trkpt lat="46.38895" lon="6.10727">
        <ele>1140.223943</ele>
        <time>2024-09-15T12:58:53.000Z</time>
      </trkpt>
      <trkpt lat="46.38894" lon="6.10727">
        <ele>1140.336869</ele>
        <time>2024-09-15T12:58:54.000Z</time>
      </trkpt>
      <trkpt lat="46.38892" lon="6.10727">
        <ele>1140.511283</ele>
        <time>2024-09-15T12:58:55.000Z</time>
      </trkpt>
      <trkpt lat="46.38891" lon="6.10726">
        <ele>1140.639744</ele>
        <time>2024-09-15T12:58:56.000Z</time>
      </trkpt>
      <trkpt lat="46.38889" lon="6.10725">
        <ele>1140.783102</ele>
        <time>2024-09-15T12:58:57.000Z</time>
      </trkpt>
      <trkpt lat="46.38888" lon="6.10725">
        <ele>1140.916613</ele>
        <time>2024-09-15T12:58:58.000Z</time>
      </trkpt>
      <trkpt lat="46.38886" lon="6.10724">
        <ele>1141.036907</ele>
        <time>2024-09-15T12:58:59.000Z</time>
      </trkpt>
      <trkpt lat="46.38884" lon="6.10724">
        <ele>1141.211321</ele>
        <time>2024-09-15T12:59:00.000Z</time>
      </trkpt>
      <trkpt lat="46.38882" lon="6.10723">
        <ele>1141.404488</ele>
        <time>2024-09-15T12:59:01.000Z</time>
      </trkpt>
      <trkpt lat="46.3888" lon="6.10723">
        <ele>1141.573166</ele>
        <time>2024-09-15T12:59:02.000Z</time>
      </trkpt>
      <trkpt lat="46.38878" lon="6.10722">
        <ele>1141.75033</ele>
        <time>2024-09-15T12:59:03.000Z</time>
      </trkpt>
      <trkpt lat="46.38876" lon="6.10721">
        <ele>1141.958619</ele>
        <time>2024-09-15T12:59:04.000Z</time>
      </trkpt>
      <trkpt lat="46.38874" lon="6.1072">
        <ele>1142.130243</ele>
        <time>2024-09-15T12:59:05.000Z</time>
      </trkpt>
      <trkpt lat="46.38872" lon="6.10719">
        <ele>1142.291924</ele>
        <time>2024-09-15T12:59:06.000Z</time>
      </trkpt>
      <trkpt lat="46.3887" lon="6.10719">
        <ele>1142.473005</ele>
        <time>2024-09-15T12:59:07.000Z</time>
      </trkpt>
      <trkpt lat="46.38868" lon="6.10718">
        <ele>1142.634996</ele>
        <time>2024-09-15T12:59:08.000Z</time>
      </trkpt>
      <trkpt lat="46.38867" lon="6.10716">
        <ele>1142.806655</ele>
        <time>2024-09-15T12:59:09.000Z</time>
      </trkpt>
      <trkpt lat="46.38865" lon="6.10715">
        <ele>1142.980818</ele>
        <time>2024-09-15T12:59:10.000Z</time>
      </trkpt>
      <trkpt lat="46.38862" lon="6.10714">
        <ele>1143.192344</ele>
        <time>2024-09-15T12:59:11.000Z</time>
      </trkpt>
      <trkpt lat="46.3886" lon="6.10713">
        <ele>1143.421893</ele>
        <time>2024-09-15T12:59:12.000Z</time>
      </trkpt>
      <trkpt lat="46.38857" lon="6.10713">
        <ele>1143.607589</ele>
        <time>2024-09-15T12:59:13.000Z</time>
      </trkpt>
      <trkpt lat="46.38855" lon="6.10713">
        <ele>1143.80961</ele>
        <time>2024-09-15T12:59:14.000Z</time>
      </trkpt>
      <trkpt lat="46.38853" lon="6.10712">
        <ele>1144.005054</ele>
        <time>2024-09-15T12:59:15.000Z</time>
      </trkpt>
      <trkpt lat="46.38851" lon="6.10711">
        <ele>1144.14605</ele>
        <time>2024-09-15T12:59:16.000Z</time>
      </trkpt>
      <trkpt lat="46.3885" lon="6.10708">
        <ele>1144.319555</ele>
        <time>2024-09-15T12:59:17.000Z</time>
      </trkpt>
      <trkpt lat="46.38847" lon="6.10707">
        <ele>1144.556919</ele>
        <time>2024-09-15T12:59:18.000Z</time>
      </trkpt>
      <trkpt lat="46.38846" lon="6.10704">
        <ele>1144.766398</ele>
        <time>2024-09-15T12:59:19.000Z</time>
      </trkpt>
      <trkpt lat="46.38845" lon="6.10702">
        <ele>1144.914316</ele>
        <time>2024-09-15T12:59:20.000Z</time>
      </trkpt>
      <trkpt lat="46.38843" lon="6.10701">
        <ele>1145.088478</ele>
        <time>2024-09-15T12:59:21.000Z</time>
      </trkpt>
      <trkpt lat="46.38841" lon="6.107">
        <ele>1145.262641</ele>
        <time>2024-09-15T12:59:22.000Z</time>
      </trkpt>
      <trkpt lat="46.38839" lon="6.10699">
        <ele>1145.42265</ele>
        <time>2024-09-15T12:59:23.000Z</time>
      </trkpt>
      <trkpt lat="46.38837" lon="6.10698">
        <ele>1145.590626</ele>
        <time>2024-09-15T12:59:24.000Z</time>
      </trkpt>
      <trkpt lat="46.38835" lon="6.10697">
        <ele>1145.764789</ele>
        <time>2024-09-15T12:59:25.000Z</time>
      </trkpt>
      <trkpt lat="46.38833" lon="6.10695">
        <ele>1145.94944</ele>
        <time>2024-09-15T12:59:26.000Z</time>
      </trkpt>
      <trkpt lat="46.38832" lon="6.10693">
        <ele>1146.098769</ele>
        <time>2024-09-15T12:59:27.000Z</time>
      </trkpt>
      <trkpt lat="46.38831" lon="6.10692">
        <ele>1146.238483</ele>
        <time>2024-09-15T12:59:28.000Z</time>
      </trkpt>
      <trkpt lat="46.38829" lon="6.1069">
        <ele>1146.405873</ele>
        <time>2024-09-15T12:59:29.000Z</time>
      </trkpt>
      <trkpt lat="46.38828" lon="6.10688">
        <ele>1146.592533</ele>
        <time>2024-09-15T12:59:30.000Z</time>
      </trkpt>
      <trkpt lat="46.38827" lon="6.10684">
        <ele>1146.801465</ele>
        <time>2024-09-15T12:59:31.000Z</time>
      </trkpt>
      <trkpt lat="46.38826" lon="6.10682">
        <ele>1146.959813</ele>
        <time>2024-09-15T12:59:32.000Z</time>
      </trkpt>
      <trkpt lat="46.38825" lon="6.10679">
        <ele>1147.157111</ele>
        <time>2024-09-15T12:59:33.000Z</time>
      </trkpt>
      <trkpt lat="46.38824" lon="6.10676">
        <ele>1147.332787</ele>
        <time>2024-09-15T12:59:34.000Z</time>
      </trkpt>
      <trkpt lat="46.38824" lon="6.10673">
        <ele>1147.525009</ele>
        <time>2024-09-15T12:59:35.000Z</time>
      </trkpt>
      <trkpt lat="46.38823" lon="6.1067">
        <ele>1147.700508</ele>
        <time>2024-09-15T12:59:36.000Z</time>
      </trkpt>
      <trkpt lat="46.38823" lon="6.10667">
        <ele>1147.862558</ele>
        <time>2024-09-15T12:59:37.000Z</time>
      </trkpt>
      <trkpt lat="46.38822" lon="6.10664">
        <ele>1148.030213</ele>
        <time>2024-09-15T12:59:38.000Z</time>
      </trkpt>
      <trkpt lat="46.38822" lon="6.10661">
        <ele>1148.217408</ele>
        <time>2024-09-15T12:59:39.000Z</time>
      </trkpt>
      <trkpt lat="46.38821" lon="6.10657">
        <ele>1148.451003</ele>
        <time>2024-09-15T12:59:40.000Z</time>
      </trkpt>
      <trkpt lat="46.38821" lon="6.10654">
        <ele>1148.628119</ele>
        <time>2024-09-15T12:59:41.000Z</time>
      </trkpt>
      <trkpt lat="46.3882" lon="6.10651">
        <ele>1148.7981</ele>
        <time>2024-09-15T12:59:42.000Z</time>
      </trkpt>
      <trkpt lat="46.3882" lon="6.10648">
        <ele>1148.996789</ele>
        <time>2024-09-15T12:59:43.000Z</time>
      </trkpt>
      <trkpt lat="46.3882" lon="6.10644">
        <ele>1149.230019</ele>
        <time>2024-09-15T12:59:44.000Z</time>
      </trkpt>
      <trkpt lat="46.3882" lon="6.10641">
        <ele>1149.427817</ele>
        <time>2024-09-15T12:59:45.000Z</time>
      </trkpt>
      <trkpt lat="46.3882" lon="6.10638">
        <ele>1149.601918</ele>
        <time>2024-09-15T12:59:46.000Z</time>
      </trkpt>
      <trkpt lat="46.38819" lon="6.10635">
        <ele>1149.747242</ele>
        <time>2024-09-15T12:59:47.000Z</time>
      </trkpt>
      <trkpt lat="46.38819" lon="6.10633">
        <ele>1149.879123</ele>
        <time>2024-09-15T12:59:48.000Z</time>
      </trkpt>
      <trkpt lat="46.38817" lon="6.1063">
        <ele>1150.065306</ele>
        <time>2024-09-15T12:59:49.000Z</time>
      </trkpt>
      <trkpt lat="46.38816" lon="6.10628">
        <ele>1150.272967</ele>
        <time>2024-09-15T12:59:50.000Z</time>
      </trkpt>
      <trkpt lat="46.38815" lon="6.10624">
        <ele>1150.50586</ele>
        <time>2024-09-15T12:59:51.000Z</time>
      </trkpt>
      <trkpt lat="46.38814" lon="6.1062">
        <ele>1150.741617</ele>
        <time>2024-09-15T12:59:52.000Z</time>
      </trkpt>
      <trkpt lat="46.38814" lon="6.10616">
        <ele>1150.950293</ele>
        <time>2024-09-15T12:59:53.000Z</time>
      </trkpt>
      <trkpt lat="46.38813" lon="6.10614">
        <ele>1151.12839</ele>
        <time>2024-09-15T12:59:54.000Z</time>
      </trkpt>
      <trkpt lat="46.38812" lon="6.10611">
        <ele>1151.279434</ele>
        <time>2024-09-15T12:59:55.000Z</time>
      </trkpt>
      <trkpt lat="46.38812" lon="6.10608">
        <ele>1151.463765</ele>
        <time>2024-09-15T12:59:56.000Z</time>
      </trkpt>
      <trkpt lat="46.38811" lon="6.10605">
        <ele>1151.650016</ele>
        <time>2024-09-15T12:59:57.000Z</time>
      </trkpt>
      <trkpt lat="46.38811" lon="6.10602">
        <ele>1151.845864</ele>
        <time>2024-09-15T12:59:58.000Z</time>
      </trkpt>
      <trkpt lat="46.3881" lon="6.10598">
        <ele>1152.054099</ele>
        <time>2024-09-15T12:59:59.000Z</time>
      </trkpt>
      <trkpt lat="46.38809" lon="6.10596">
        <ele>1152.180521</ele>
        <time>2024-09-15T13:00:00.000Z</time>
      </trkpt>
      <trkpt lat="46.38809" lon="6.10594">
        <ele>1152.340597</ele>
        <time>2024-09-15T13:00:01.000Z</time>
      </trkpt>
      <trkpt lat="46.38809" lon="6.10591">
        <ele>1152.502648</ele>
        <time>2024-09-15T13:00:02.000Z</time>
      </trkpt>
      <trkpt lat="46.38808" lon="6.10588">
        <ele>1152.664698</ele>
        <time>2024-09-15T13:00:03.000Z</time>
      </trkpt>
      <trkpt lat="46.38808" lon="6.10585">
        <ele>1152.854888</ele>
        <time>2024-09-15T13:00:04.000Z</time>
      </trkpt>
      <trkpt lat="46.38807" lon="6.10582">
        <ele>1153.030603</ele>
        <time>2024-09-15T13:00:05.000Z</time>
      </trkpt>
      <trkpt lat="46.38807" lon="6.10579">
        <ele>1153.203239</ele>
        <time>2024-09-15T13:00:06.000Z</time>
      </trkpt>
      <trkpt lat="46.38806" lon="6.10576">
        <ele>1153.400538</ele>
        <time>2024-09-15T13:00:07.000Z</time>
      </trkpt>
      <trkpt lat="46.38805" lon="6.10573">
        <ele>1153.57944</ele>
        <time>2024-09-15T13:00:08.000Z</time>
      </trkpt>
      <trkpt lat="46.38805" lon="6.1057">
        <ele>1153.772381</ele>
        <time>2024-09-15T13:00:09.000Z</time>
      </trkpt>
      <trkpt lat="46.38805" lon="6.10567">
        <ele>1153.958632</ele>
        <time>2024-09-15T13:00:10.000Z</time>
      </trkpt>
      <trkpt lat="46.38805" lon="6.10564">
        <ele>1154.11604</ele>
        <time>2024-09-15T13:00:11.000Z</time>
      </trkpt>
      <trkpt lat="46.38804" lon="6.10561">
        <ele>1154.286376</ele>
        <time>2024-09-15T13:00:12.000Z</time>
      </trkpt>
      <trkpt lat="46.38803" lon="6.10558">
        <ele>1154.444902</ele>
        <time>2024-09-15T13:00:13.000Z</time>
      </trkpt>
      <trkpt lat="46.38804" lon="6.10555">
        <ele>1154.636374</ele>
        <time>2024-09-15T13:00:14.000Z</time>
      </trkpt>
      <trkpt lat="46.38804" lon="6.10552">
        <ele>1154.833458</ele>
        <time>2024-09-15T13:00:15.000Z</time>
      </trkpt>
      <trkpt lat="46.38804" lon="6.10549">
        <ele>1155.001559</ele>
        <time>2024-09-15T13:00:16.000Z</time>
      </trkpt>
      <trkpt lat="46.38803" lon="6.10546">
        <ele>1155.152504</ele>
        <time>2024-09-15T13:00:17.000Z</time>
      </trkpt>
      <trkpt lat="46.38803" lon="6.10543">
        <ele>1155.320815</ele>
        <time>2024-09-15T13:00:18.000Z</time>
      </trkpt>
      <trkpt lat="46.38803" lon="6.1054">
        <ele>1155.494916</ele>
        <time>2024-09-15T13:00:19.000Z</time>
      </trkpt>
      <trkpt lat="46.38803" lon="6.10538">
        <ele>1155.657438</ele>
        <time>2024-09-15T13:00:20.000Z</time>
      </trkpt>
      <trkpt lat="46.38804" lon="6.10535">
        <ele>1155.826377</ele>
        <time>2024-09-15T13:00:21.000Z</time>
      </trkpt>
      <trkpt lat="46.38803" lon="6.10532">
        <ele>1156.007831</ele>
        <time>2024-09-15T13:00:22.000Z</time>
      </trkpt>
      <trkpt lat="46.38803" lon="6.10528">
        <ele>1156.199856</ele>
        <time>2024-09-15T13:00:23.000Z</time>
      </trkpt>
      <trkpt lat="46.38803" lon="6.10525">
        <ele>1156.362378</ele>
        <time>2024-09-15T13:00:24.000Z</time>
      </trkpt>
      <trkpt lat="46.38803" lon="6.10522">
        <ele>1156.538093</ele>
        <time>2024-09-15T13:00:25.000Z</time>
      </trkpt>
      <trkpt lat="46.38803" lon="6.10519">
        <ele>1156.717984</ele>
        <time>2024-09-15T13:00:26.000Z</time>
      </trkpt>
      <trkpt lat="46.38803" lon="6.10516">
        <ele>1156.909456</ele>
        <time>2024-09-15T13:00:27.000Z</time>
      </trkpt>
      <trkpt lat="46.38803" lon="6.10513">
        <ele>1157.089935</ele>
        <time>2024-09-15T13:00:28.000Z</time>
      </trkpt>
      <trkpt lat="46.38803" lon="6.10509">
        <ele>1157.317994</ele>
        <time>2024-09-15T13:00:29.000Z</time>
      </trkpt>
      <trkpt lat="46.38804" lon="6.10505">
        <ele>1157.538254</ele>
        <time>2024-09-15T13:00:30.000Z</time>
      </trkpt>
      <trkpt lat="46.38804" lon="6.10502">
        <ele>1157.747952</ele>
        <time>2024-09-15T13:00:31.000Z</time>
      </trkpt>
      <trkpt lat="46.38804" lon="6.10498">
        <ele>1157.928758</ele>
        <time>2024-09-15T13:00:32.000Z</time>
      </trkpt>
      <trkpt lat="46.38804" lon="6.10496">
        <ele>1158.087175</ele>
        <time>2024-09-15T13:00:33.000Z</time>
      </trkpt>
      <trkpt lat="46.38804" lon="6.10493">
        <ele>1158.251847</ele>
        <time>2024-09-15T13:00:34.000Z</time>
      </trkpt>
      <trkpt lat="46.38804" lon="6.1049">
        <ele>1158.404402</ele>
        <time>2024-09-15T13:00:35.000Z</time>
      </trkpt>
      <trkpt lat="46.38804" lon="6.10487">
        <ele>1158.562819</ele>
        <time>2024-09-15T13:00:36.000Z</time>
      </trkpt>
      <trkpt lat="46.38805" lon="6.10484">
        <ele>1158.718853</ele>
        <time>2024-09-15T13:00:37.000Z</time>
      </trkpt>
      <trkpt lat="46.38805" lon="6.10482">
        <ele>1158.865986</ele>
        <time>2024-09-15T13:00:38.000Z</time>
      </trkpt>
      <trkpt lat="46.38805" lon="6.10479">
        <ele>1159.00724</ele>
        <time>2024-09-15T13:00:39.000Z</time>
      </trkpt>
      <trkpt lat="46.38805" lon="6.10476">
        <ele>1159.174339</ele>
        <time>2024-09-15T13:00:40.000Z</time>
      </trkpt>
      <trkpt lat="46.38805" lon="6.10474">
        <ele>1159.323285</ele>
        <time>2024-09-15T13:00:41.000Z</time>
      </trkpt>
      <trkpt lat="46.38806" lon="6.10471">
        <ele>1159.499772</ele>
        <time>2024-09-15T13:00:42.000Z</time>
      </trkpt>
      <trkpt lat="46.38806" lon="6.10468">
        <ele>1159.666871</ele>
        <time>2024-09-15T13:00:43.000Z</time>
      </trkpt>
      <trkpt lat="46.38807" lon="6.10465">
        <ele>1159.816432</ele>
        <time>2024-09-15T13:00:44.000Z</time>
      </trkpt>
      <trkpt lat="46.38807" lon="6.10463">
        <ele>1159.976534</ele>
        <time>2024-09-15T13:00:45.000Z</time>
      </trkpt>
      <trkpt lat="46.38807" lon="6.1046">
        <ele>1160.147811</ele>
        <time>2024-09-15T13:00:46.000Z</time>
      </trkpt>
      <trkpt lat="46.38807" lon="6.10457">
        <ele>1160.31491</ele>
        <time>2024-09-15T13:00:47.000Z</time>
      </trkpt>
      <trkpt lat="46.38806" lon="6.10454">
        <ele>1160.473961</ele>
        <time>2024-09-15T13:00:48.000Z</time>
      </trkpt>
      <trkpt lat="46.38806" lon="6.10451">
        <ele>1160.64106</ele>
        <time>2024-09-15T13:00:49.000Z</time>
      </trkpt>
      <trkpt lat="46.38806" lon="6.10448">
        <ele>1160.801163</ele>
        <time>2024-09-15T13:00:50.000Z</time>
      </trkpt>
      <trkpt lat="46.38805" lon="6.10445">
        <ele>1160.993987</ele>
        <time>2024-09-15T13:00:51.000Z</time>
      </trkpt>
      <trkpt lat="46.38805" lon="6.10442">
        <ele>1161.181162</ele>
        <time>2024-09-15T13:00:52.000Z</time>
      </trkpt>
      <trkpt lat="46.38805" lon="6.10438">
        <ele>1161.362153</ele>
        <time>2024-09-15T13:00:53.000Z</time>
      </trkpt>
      <trkpt lat="46.38805" lon="6.10435">
        <ele>1161.53343</ele>
        <time>2024-09-15T13:00:54.000Z</time>
      </trkpt>
      <trkpt lat="46.38804" lon="6.10432">
        <ele>1161.711624</ele>
        <time>2024-09-15T13:00:55.000Z</time>
      </trkpt>
      <trkpt lat="46.38804" lon="6.10429">
        <ele>1161.891505</ele>
        <time>2024-09-15T13:00:56.000Z</time>
      </trkpt>
      <trkpt lat="46.38803" lon="6.10426">
        <ele>1162.078871</ele>
        <time>2024-09-15T13:00:57.000Z</time>
      </trkpt>
      <trkpt lat="46.38803" lon="6.10423">
        <ele>1162.250149</ele>
        <time>2024-09-15T13:00:58.000Z</time>
      </trkpt>
      <trkpt lat="46.38803" lon="6.1042">
        <ele>1162.420444</ele>
        <time>2024-09-15T13:00:59.000Z</time>
      </trkpt>
      <trkpt lat="46.38802" lon="6.10417">
        <ele>1162.590148</ele>
        <time>2024-09-15T13:01:00.000Z</time>
      </trkpt>
      <trkpt lat="46.38803" lon="6.10414">
        <ele>1162.773898</ele>
        <time>2024-09-15T13:01:01.000Z</time>
      </trkpt>
      <trkpt lat="46.38803" lon="6.10411">
        <ele>1162.938571</ele>
        <time>2024-09-15T13:01:02.000Z</time>
      </trkpt>
      <trkpt lat="46.38803" lon="6.10408">
        <ele>1163.080772</ele>
        <time>2024-09-15T13:01:03.000Z</time>
      </trkpt>
      <trkpt lat="46.38802" lon="6.10406">
        <ele>1163.225777</ele>
        <time>2024-09-15T13:01:04.000Z</time>
      </trkpt>
      <trkpt lat="46.38802" lon="6.10403">
        <ele>1163.391811</ele>
        <time>2024-09-15T13:01:05.000Z</time>
      </trkpt>
      <trkpt lat="46.38801" lon="6.10401">
        <ele>1163.564967</ele>
        <time>2024-09-15T13:01:06.000Z</time>
      </trkpt>
      <trkpt lat="46.388" lon="6.10398">
        <ele>1163.712196</ele>
        <time>2024-09-15T13:01:07.000Z</time>
      </trkpt>
      <trkpt lat="46.38798" lon="6.10396">
        <ele>1163.884635</ele>
        <time>2024-09-15T13:01:08.000Z</time>
      </trkpt>
      <trkpt lat="46.38796" lon="6.10394">
        <ele>1164.081175</ele>
        <time>2024-09-15T13:01:09.000Z</time>
      </trkpt>
      <trkpt lat="46.38795" lon="6.10392">
        <ele>1164.264066</ele>
        <time>2024-09-15T13:01:10.000Z</time>
      </trkpt>
      <trkpt lat="46.38793" lon="6.10391">
        <ele>1164.436164</ele>
        <time>2024-09-15T13:01:11.000Z</time>
      </trkpt>
      <trkpt lat="46.38791" lon="6.10389">
        <ele>1164.605332</ele>
        <time>2024-09-15T13:01:12.000Z</time>
      </trkpt>
      <trkpt lat="46.3879" lon="6.10388">
        <ele>1164.728041</ele>
        <time>2024-09-15T13:01:13.000Z</time>
      </trkpt>
      <trkpt lat="46.38788" lon="6.10387">
        <ele>1164.860695</ele>
        <time>2024-09-15T13:01:14.000Z</time>
      </trkpt>
      <trkpt lat="46.38787" lon="6.10385">
        <ele>1165.006827</ele>
        <time>2024-09-15T13:01:15.000Z</time>
      </trkpt>
      <trkpt lat="46.38786" lon="6.10384">
        <ele>1165.123124</ele>
        <time>2024-09-15T13:01:16.000Z</time>
      </trkpt>
      <trkpt lat="46.38785" lon="6.10383">
        <ele>1165.236998</ele>
        <time>2024-09-15T13:01:17.000Z</time>
      </trkpt>
      <trkpt lat="46.38784" lon="6.10381">
        <ele>1165.37844</ele>
        <time>2024-09-15T13:01:18.000Z</time>
      </trkpt>
      <trkpt lat="46.38782" lon="6.1038">
        <ele>1165.506283</ele>
        <time>2024-09-15T13:01:19.000Z</time>
      </trkpt>
      <trkpt lat="46.3878" lon="6.10379">
        <ele>1165.656563</ele>
        <time>2024-09-15T13:01:20.000Z</time>
      </trkpt>
      <trkpt lat="46.38779" lon="6.10377">
        <ele>1165.839453</ele>
        <time>2024-09-15T13:01:21.000Z</time>
      </trkpt>
      <trkpt lat="46.38776" lon="6.10375">
        <ele>1166.04527</ele>
        <time>2024-09-15T13:01:22.000Z</time>
      </trkpt>
      <trkpt lat="46.38774" lon="6.10373">
        <ele>1166.251087</ele>
        <time>2024-09-15T13:01:23.000Z</time>
      </trkpt>
      <trkpt lat="46.38772" lon="6.10372">
        <ele>1166.446231</ele>
        <time>2024-09-15T13:01:24.000Z</time>
      </trkpt>
      <trkpt lat="46.3877" lon="6.10372">
        <ele>1166.6035</ele>
        <time>2024-09-15T13:01:25.000Z</time>
      </trkpt>
      <trkpt lat="46.38768" lon="6.10371">
        <ele>1166.74559</ele>
        <time>2024-09-15T13:01:26.000Z</time>
      </trkpt>
      <trkpt lat="46.38766" lon="6.1037">
        <ele>1166.938134</ele>
        <time>2024-09-15T13:01:27.000Z</time>
      </trkpt>
      <trkpt lat="46.38764" lon="6.10368">
        <ele>1167.150366</ele>
        <time>2024-09-15T13:01:28.000Z</time>
      </trkpt>
      <trkpt lat="46.38763" lon="6.10366">
        <ele>1167.309583</ele>
        <time>2024-09-15T13:01:29.000Z</time>
      </trkpt>
      <trkpt lat="46.38761" lon="6.10364">
        <ele>1167.48892</ele>
        <time>2024-09-15T13:01:30.000Z</time>
      </trkpt>
      <trkpt lat="46.38759" lon="6.10363">
        <ele>1167.653648</ele>
        <time>2024-09-15T13:01:31.000Z</time>
      </trkpt>
      <trkpt lat="46.38757" lon="6.10362">
        <ele>1167.835573</ele>
        <time>2024-09-15T13:01:32.000Z</time>
      </trkpt>
      <trkpt lat="46.38755" lon="6.1036">
        <ele>1168.018464</ele>
        <time>2024-09-15T13:01:33.000Z</time>
      </trkpt>
      <trkpt lat="46.38753" lon="6.10358">
        <ele>1168.230696</ele>
        <time>2024-09-15T13:01:34.000Z</time>
      </trkpt>
      <trkpt lat="46.38751" lon="6.10356">
        <ele>1168.426404</ele>
        <time>2024-09-15T13:01:35.000Z</time>
      </trkpt>
      <trkpt lat="46.38749" lon="6.10353">
        <ele>1168.622945</ele>
        <time>2024-09-15T13:01:36.000Z</time>
      </trkpt>
      <trkpt lat="46.38748" lon="6.10352">
        <ele>1168.759132</ele>
        <time>2024-09-15T13:01:37.000Z</time>
      </trkpt>
      <trkpt lat="46.38746" lon="6.10351">
        <ele>1168.909374</ele>
        <time>2024-09-15T13:01:38.000Z</time>
      </trkpt>
      <trkpt lat="46.38743" lon="6.10349">
        <ele>1169.159748</ele>
        <time>2024-09-15T13:01:39.000Z</time>
      </trkpt>
      <trkpt lat="46.38741" lon="6.10348">
        <ele>1169.381379</ele>
        <time>2024-09-15T13:01:40.000Z</time>
      </trkpt>
      <trkpt lat="46.38739" lon="6.10346">
        <ele>1169.570449</ele>
        <time>2024-09-15T13:01:41.000Z</time>
      </trkpt>
      <trkpt lat="46.38737" lon="6.10344">
        <ele>1169.75637</ele>
        <time>2024-09-15T13:01:42.000Z</time>
      </trkpt>
      <trkpt lat="46.38736" lon="6.10343">
        <ele>1169.918862</ele>
        <time>2024-09-15T13:01:43.000Z</time>
      </trkpt>
      <trkpt lat="46.38734" lon="6.10341">
        <ele>1170.079015</ele>
        <time>2024-09-15T13:01:44.000Z</time>
      </trkpt>
      <trkpt lat="46.38732" lon="6.10339">
        <ele>1170.268086</ele>
        <time>2024-09-15T13:01:45.000Z</time>
      </trkpt>
      <trkpt lat="46.3873" lon="6.10337">
        <ele>1170.473735</ele>
        <time>2024-09-15T13:01:46.000Z</time>
      </trkpt>
      <trkpt lat="46.38728" lon="6.10335">
        <ele>1170.669604</ele>
        <time>2024-09-15T13:01:47.000Z</time>
      </trkpt>
      <trkpt lat="46.38726" lon="6.10333">
        <ele>1170.865473</ele>
        <time>2024-09-15T13:01:48.000Z</time>
      </trkpt>
      <trkpt lat="46.38724" lon="6.10331">
        <ele>1171.054544</ele>
        <time>2024-09-15T13:01:49.000Z</time>
      </trkpt>
      <trkpt lat="46.38722" lon="6.1033">
        <ele>1171.247374</ele>
        <time>2024-09-15T13:01:50.000Z</time>
      </trkpt>
      <trkpt lat="46.3872" lon="6.10328">
        <ele>1171.436444</ele>
        <time>2024-09-15T13:01:51.000Z</time>
      </trkpt>
      <trkpt lat="46.38718" lon="6.10325">
        <ele>1171.642093</ele>
        <time>2024-09-15T13:01:52.000Z</time>
      </trkpt>
      <trkpt lat="46.38717" lon="6.10323">
        <ele>1171.828462</ele>
        <time>2024-09-15T13:01:53.000Z</time>
      </trkpt>
      <trkpt lat="46.38716" lon="6.1032">
        <ele>1171.979072</ele>
        <time>2024-09-15T13:01:54.000Z</time>
      </trkpt>
      <trkpt lat="46.38715" lon="6.10318">
        <ele>1172.164519</ele>
        <time>2024-09-15T13:01:55.000Z</time>
      </trkpt>
      <trkpt lat="46.38715" lon="6.10315">
        <ele>1172.380815</ele>
        <time>2024-09-15T13:01:56.000Z</time>
      </trkpt>
      <trkpt lat="46.38716" lon="6.10312">
        <ele>1172.593402</ele>
        <time>2024-09-15T13:01:57.000Z</time>
      </trkpt>
      <trkpt lat="46.38717" lon="6.10309">
        <ele>1172.792733</ele>
        <time>2024-09-15T13:01:58.000Z</time>
      </trkpt>
      <trkpt lat="46.38719" lon="6.10307">
        <ele>1172.987576</ele>
        <time>2024-09-15T13:01:59.000Z</time>
      </trkpt>
      <trkpt lat="46.3872" lon="6.10306">
        <ele>1173.178518</ele>
        <time>2024-09-15T13:02:00.000Z</time>
      </trkpt>
      <trkpt lat="46.38722" lon="6.10305">
        <ele>1173.356645</ele>
        <time>2024-09-15T13:02:01.000Z</time>
      </trkpt>
      <trkpt lat="46.38724" lon="6.10304">
        <ele>1173.532213</ele>
        <time>2024-09-15T13:02:02.000Z</time>
      </trkpt>
      <trkpt lat="46.38726" lon="6.10304">
        <ele>1173.70191</ele>
        <time>2024-09-15T13:02:03.000Z</time>
      </trkpt>
      <trkpt lat="46.38728" lon="6.10304">
        <ele>1173.895737</ele>
        <time>2024-09-15T13:02:04.000Z</time>
      </trkpt>
      <trkpt lat="46.38729" lon="6.10305">
        <ele>1174.077335</ele>
        <time>2024-09-15T13:02:05.000Z</time>
      </trkpt>
      <trkpt lat="46.38731" lon="6.10306">
        <ele>1174.245713</ele>
        <time>2024-09-15T13:02:06.000Z</time>
      </trkpt>
      <trkpt lat="46.38733" lon="6.10307">
        <ele>1174.430395</ele>
        <time>2024-09-15T13:02:07.000Z</time>
      </trkpt>
      <trkpt lat="46.38735" lon="6.10308">
        <ele>1174.605963</ele>
        <time>2024-09-15T13:02:08.000Z</time>
      </trkpt>
      <trkpt lat="46.38736" lon="6.10309">
        <ele>1174.796905</ele>
        <time>2024-09-15T13:02:09.000Z</time>
      </trkpt>
      <trkpt lat="46.38738" lon="6.10311">
        <ele>1174.969694</ele>
        <time>2024-09-15T13:02:10.000Z</time>
      </trkpt>
      <trkpt lat="46.38739" lon="6.10311">
        <ele>1175.09822</ele>
        <time>2024-09-15T13:02:11.000Z</time>
      </trkpt>
      <trkpt lat="46.38741" lon="6.10312">
        <ele>1175.223417</ele>
        <time>2024-09-15T13:02:12.000Z</time>
      </trkpt>
      <trkpt lat="46.38742" lon="6.10313">
        <ele>1175.362058</ele>
        <time>2024-09-15T13:02:13.000Z</time>
      </trkpt>
      <trkpt lat="46.38743" lon="6.10313">
        <ele>1175.48105</ele>
        <time>2024-09-15T13:02:14.000Z</time>
      </trkpt>
      <trkpt lat="46.38744" lon="6.10315">
        <ele>1175.599305</ele>
        <time>2024-09-15T13:02:15.000Z</time>
      </trkpt>
      <trkpt lat="46.38746" lon="6.10316">
        <ele>1175.777433</ele>
        <time>2024-09-15T13:02:16.000Z</time>
      </trkpt>
      <trkpt lat="46.38748" lon="6.10317">
        <ele>1175.956807</ele>
        <time>2024-09-15T13:02:17.000Z</time>
      </trkpt>
      <trkpt lat="46.38749" lon="6.10317">
        <ele>1176.139998</ele>
        <time>2024-09-15T13:02:18.000Z</time>
      </trkpt>
      <trkpt lat="46.38751" lon="6.10317">
        <ele>1176.300281</ele>
        <time>2024-09-15T13:02:19.000Z</time>
      </trkpt>
      <trkpt lat="46.38753" lon="6.10318">
        <ele>1176.44293</ele>
        <time>2024-09-15T13:02:20.000Z</time>
      </trkpt>
      <trkpt lat="46.38754" lon="6.10318">
        <ele>1176.603609</ele>
        <time>2024-09-15T13:02:21.000Z</time>
      </trkpt>
      <trkpt lat="46.38756" lon="6.10318">
        <ele>1176.782602</ele>
        <time>2024-09-15T13:02:22.000Z</time>
      </trkpt>
      <trkpt lat="46.38758" lon="6.10318">
        <ele>1176.935558</ele>
        <time>2024-09-15T13:02:23.000Z</time>
      </trkpt>
      <trkpt lat="46.38759" lon="6.10319">
        <ele>1177.095002</ele>
        <time>2024-09-15T13:02:24.000Z</time>
      </trkpt>
      <trkpt lat="46.38762" lon="6.1032">
        <ele>1177.312206</ele>
        <time>2024-09-15T13:02:25.000Z</time>
      </trkpt>
      <trkpt lat="46.38764" lon="6.1032">
        <ele>1177.501068</ele>
        <time>2024-09-15T13:02:26.000Z</time>
      </trkpt>
      <trkpt lat="46.38765" lon="6.1032">
        <ele>1177.642527</ele>
        <time>2024-09-15T13:02:27.000Z</time>
      </trkpt>
      <trkpt lat="46.38766" lon="6.1032">
        <ele>1177.766538</ele>
        <time>2024-09-15T13:02:28.000Z</time>
      </trkpt>
      <trkpt lat="46.38768" lon="6.10321">
        <ele>1177.900965</ele>
        <time>2024-09-15T13:02:29.000Z</time>
      </trkpt>
      <trkpt lat="46.38769" lon="6.10321">
        <ele>1178.024976</ele>
        <time>2024-09-15T13:02:30.000Z</time>
      </trkpt>
      <trkpt lat="46.38771" lon="6.10322">
        <ele>1178.187224</ele>
        <time>2024-09-15T13:02:31.000Z</time>
      </trkpt>
      <trkpt lat="46.38773" lon="6.10322">
        <ele>1178.368094</ele>
        <time>2024-09-15T13:02:32.000Z</time>
      </trkpt>
      <trkpt lat="46.38775" lon="6.10323">
        <ele>1178.552777</ele>
        <time>2024-09-15T13:02:33.000Z</time>
      </trkpt>
      <trkpt lat="46.38776" lon="6.10323">
        <ele>1178.713456</ele>
        <time>2024-09-15T13:02:34.000Z</time>
      </trkpt>
      <trkpt lat="46.38778" lon="6.10323">
        <ele>1178.873608</ele>
        <time>2024-09-15T13:02:35.000Z</time>
      </trkpt>
      <trkpt lat="46.3878" lon="6.10323">
        <ele>1179.034286</ele>
        <time>2024-09-15T13:02:36.000Z</time>
      </trkpt>
      <trkpt lat="46.38782" lon="6.10323">
        <ele>1179.243165</ele>
        <time>2024-09-15T13:02:37.000Z</time>
      </trkpt>
      <trkpt lat="46.38784" lon="6.10323">
        <ele>1179.470751</ele>
        <time>2024-09-15T13:02:38.000Z</time>
      </trkpt>
      <trkpt lat="46.38787" lon="6.10323">
        <ele>1179.678108</ele>
        <time>2024-09-15T13:02:39.000Z</time>
      </trkpt>
      <trkpt lat="46.38788" lon="6.10323">
        <ele>1179.858979</ele>
        <time>2024-09-15T13:02:40.000Z</time>
      </trkpt>
      <trkpt lat="46.3879" lon="6.10322">
        <ele>1180.034547</ele>
        <time>2024-09-15T13:02:41.000Z</time>
      </trkpt>
      <trkpt lat="46.38792" lon="6.10322">
        <ele>1180.186533</ele>
        <time>2024-09-15T13:02:42.000Z</time>
      </trkpt>
      <trkpt lat="46.38793" lon="6.10322">
        <ele>1180.32844</ele>
        <time>2024-09-15T13:02:43.000Z</time>
      </trkpt>
      <trkpt lat="46.38794" lon="6.10322">
        <ele>1180.432271</ele>
        <time>2024-09-15T13:02:44.000Z</time>
      </trkpt>
      <trkpt lat="46.38796" lon="6.10322">
        <ele>1180.620798</ele>
        <time>2024-09-15T13:02:45.000Z</time>
      </trkpt>
      <trkpt lat="46.38799" lon="6.10321">
        <ele>1180.831688</ele>
        <time>2024-09-15T13:02:46.000Z</time>
      </trkpt>
      <trkpt lat="46.388" lon="6.10321">
        <ele>1181.001758</ele>
        <time>2024-09-15T13:02:47.000Z</time>
      </trkpt>
      <trkpt lat="46.38803" lon="6.10321">
        <ele>1181.209116</ele>
        <time>2024-09-15T13:02:48.000Z</time>
      </trkpt>
      <trkpt lat="46.38804" lon="6.10321">
        <ele>1181.341644</ele>
        <time>2024-09-15T13:02:49.000Z</time>
      </trkpt>
      <trkpt lat="46.38806" lon="6.10323">
        <ele>1181.543161</ele>
        <time>2024-09-15T13:02:50.000Z</time>
      </trkpt>
      <trkpt lat="46.38808" lon="6.10324">
        <ele>1181.760365</ele>
        <time>2024-09-15T13:02:51.000Z</time>
      </trkpt>
      <trkpt lat="46.38811" lon="6.10324">
        <ele>1181.979464</ele>
        <time>2024-09-15T13:02:52.000Z</time>
      </trkpt>
      <trkpt lat="46.38812" lon="6.10325">
        <ele>1182.158838</ele>
        <time>2024-09-15T13:02:53.000Z</time>
      </trkpt>
      <trkpt lat="46.38813" lon="6.10327">
        <ele>1182.330046</ele>
        <time>2024-09-15T13:02:54.000Z</time>
      </trkpt>
      <trkpt lat="46.38814" lon="6.10329">
        <ele>1182.506613</ele>
        <time>2024-09-15T13:02:55.000Z</time>
      </trkpt>
      <trkpt lat="46.38816" lon="6.10332">
        <ele>1182.688481</ele>
        <time>2024-09-15T13:02:56.000Z</time>
      </trkpt>
      <trkpt lat="46.38816" lon="6.10334">
        <ele>1182.883342</ele>
        <time>2024-09-15T13:02:57.000Z</time>
      </trkpt>
      <trkpt lat="46.38817" lon="6.10337">
        <ele>1183.072374</ele>
        <time>2024-09-15T13:02:58.000Z</time>
      </trkpt>
      <trkpt lat="46.38818" lon="6.1034">
        <ele>1183.257373</ele>
        <time>2024-09-15T13:02:59.000Z</time>
      </trkpt>
      <trkpt lat="46.38819" lon="6.10342">
        <ele>1183.454311</ele>
        <time>2024-09-15T13:03:00.000Z</time>
      </trkpt>
      <trkpt lat="46.38819" lon="6.10345">
        <ele>1183.652863</ele>
        <time>2024-09-15T13:03:01.000Z</time>
      </trkpt>
      <trkpt lat="46.3882" lon="6.10348">
        <ele>1183.858658</ele>
        <time>2024-09-15T13:03:02.000Z</time>
      </trkpt>
      <trkpt lat="46.38821" lon="6.10351">
        <ele>1184.042987</ele>
        <time>2024-09-15T13:03:03.000Z</time>
      </trkpt>
      <trkpt lat="46.38822" lon="6.10353">
        <ele>1184.209197</ele>
        <time>2024-09-15T13:03:04.000Z</time>
      </trkpt>
      <trkpt lat="46.38823" lon="6.10355">
        <ele>1184.369712</ele>
        <time>2024-09-15T13:03:05.000Z</time>
      </trkpt>
      <trkpt lat="46.38823" lon="6.10357">
        <ele>1184.527147</ele>
        <time>2024-09-15T13:03:06.000Z</time>
      </trkpt>
      <trkpt lat="46.38824" lon="6.1036">
        <ele>1184.702474</ele>
        <time>2024-09-15T13:03:07.000Z</time>
      </trkpt>
      <trkpt lat="46.38825" lon="6.10363">
        <ele>1184.900674</ele>
        <time>2024-09-15T13:03:08.000Z</time>
      </trkpt>
      <trkpt lat="46.38827" lon="6.10365">
        <ele>1185.14681</ele>
        <time>2024-09-15T13:03:09.000Z</time>
      </trkpt>
      <trkpt lat="46.38827" lon="6.10368">
        <ele>1185.334755</ele>
        <time>2024-09-15T13:03:10.000Z</time>
      </trkpt>
      <trkpt lat="46.38829" lon="6.1037">
        <ele>1185.538199</ele>
        <time>2024-09-15T13:03:11.000Z</time>
      </trkpt>
      <trkpt lat="46.3883" lon="6.10372">
        <ele>1185.707549</ele>
        <time>2024-09-15T13:03:12.000Z</time>
      </trkpt>
      <trkpt lat="46.38831" lon="6.10375">
        <ele>1185.889749</ele>
        <time>2024-09-15T13:03:13.000Z</time>
      </trkpt>
      <trkpt lat="46.38832" lon="6.10377">
        <ele>1186.058892</ele>
        <time>2024-09-15T13:03:14.000Z</time>
      </trkpt>
      <trkpt lat="46.38832" lon="6.1038">
        <ele>1186.249417</ele>
        <time>2024-09-15T13:03:15.000Z</time>
      </trkpt>
      <trkpt lat="46.38833" lon="6.10383">
        <ele>1186.458132</ele>
        <time>2024-09-15T13:03:16.000Z</time>
      </trkpt>
      <trkpt lat="46.38834" lon="6.10385">
        <ele>1186.66752</ele>
        <time>2024-09-15T13:03:17.000Z</time>
      </trkpt>
      <trkpt lat="46.38835" lon="6.10388">
        <ele>1186.84523</ele>
        <time>2024-09-15T13:03:18.000Z</time>
      </trkpt>
      <trkpt lat="46.38835" lon="6.10391">
        <ele>1187.014373</ele>
        <time>2024-09-15T13:03:19.000Z</time>
      </trkpt>
      <trkpt lat="46.38835" lon="6.10393">
        <ele>1187.158568</ele>
        <time>2024-09-15T13:03:20.000Z</time>
      </trkpt>
      <trkpt lat="46.38836" lon="6.10396">
        <ele>1187.392003</ele>
        <time>2024-09-15T13:03:21.000Z</time>
      </trkpt>
      <trkpt lat="46.38837" lon="6.10399">
        <ele>1187.577001</ele>
        <time>2024-09-15T13:03:22.000Z</time>
      </trkpt>
      <trkpt lat="46.38838" lon="6.10402">
        <ele>1187.780768</ele>
        <time>2024-09-15T13:03:23.000Z</time>
      </trkpt>
      <trkpt lat="46.38839" lon="6.10403">
        <ele>1187.929545</ele>
        <time>2024-09-15T13:03:24.000Z</time>
      </trkpt>
      <trkpt lat="46.3884" lon="6.10406">
        <ele>1188.120496</ele>
        <time>2024-09-15T13:03:25.000Z</time>
      </trkpt>
      <trkpt lat="46.38841" lon="6.10408">
        <ele>1188.287261</ele>
        <time>2024-09-15T13:03:26.000Z</time>
      </trkpt>
      <trkpt lat="46.38841" lon="6.10411">
        <ele>1188.474693</ele>
        <time>2024-09-15T13:03:27.000Z</time>
      </trkpt>
      <trkpt lat="46.38842" lon="6.10413">
        <ele>1188.644016</ele>
        <time>2024-09-15T13:03:28.000Z</time>
      </trkpt>
      <trkpt lat="46.38843" lon="6.10415">
        <ele>1188.782251</ele>
        <time>2024-09-15T13:03:29.000Z</time>
      </trkpt>
      <trkpt lat="46.38843" lon="6.10418">
        <ele>1188.958707</ele>
        <time>2024-09-15T13:03:30.000Z</time>
      </trkpt>
      <trkpt lat="46.38843" lon="6.1042">
        <ele>1189.085456</ele>
        <time>2024-09-15T13:03:31.000Z</time>
      </trkpt>
      <trkpt lat="46.38843" lon="6.10423">
        <ele>1189.222644</ele>
        <time>2024-09-15T13:03:32.000Z</time>
      </trkpt>
      <trkpt lat="46.38843" lon="6.10425">
        <ele>1189.354571</ele>
        <time>2024-09-15T13:03:33.000Z</time>
      </trkpt>
      <trkpt lat="46.38843" lon="6.10428">
        <ele>1189.481929</ele>
        <time>2024-09-15T13:03:34.000Z</time>
      </trkpt>
      <trkpt lat="46.38844" lon="6.1043">
        <ele>1189.608314</ele>
        <time>2024-09-15T13:03:35.000Z</time>
      </trkpt>
      <trkpt lat="46.38845" lon="6.10432">
        <ele>1189.731189</ele>
        <time>2024-09-15T13:03:36.000Z</time>
      </trkpt>
      <trkpt lat="46.38845" lon="6.10434">
        <ele>1189.853318</ele>
        <time>2024-09-15T13:03:37.000Z</time>
      </trkpt>
      <trkpt lat="46.38845" lon="6.10437">
        <ele>1189.985246</ele>
        <time>2024-09-15T13:03:38.000Z</time>
      </trkpt>
      <trkpt lat="46.38846" lon="6.10439">
        <ele>1190.11893</ele>
        <time>2024-09-15T13:03:39.000Z</time>
      </trkpt>
      <trkpt lat="46.38846" lon="6.10442">
        <ele>1190.264417</ele>
        <time>2024-09-15T13:03:40.000Z</time>
      </trkpt>
      <trkpt lat="46.38846" lon="6.10445">
        <ele>1190.416792</ele>
        <time>2024-09-15T13:03:41.000Z</time>
      </trkpt>
      <trkpt lat="46.38847" lon="6.10447">
        <ele>1190.553923</ele>
        <time>2024-09-15T13:03:42.000Z</time>
      </trkpt>
      <trkpt lat="46.38848" lon="6.1045">
        <ele>1190.68841</ele>
        <time>2024-09-15T13:03:43.000Z</time>
      </trkpt>
      <trkpt lat="46.38848" lon="6.10452">
        <ele>1190.824114</ele>
        <time>2024-09-15T13:03:44.000Z</time>
      </trkpt>
      <trkpt lat="46.38849" lon="6.10455">
        <ele>1190.971394</ele>
        <time>2024-09-15T13:03:45.000Z</time>
      </trkpt>
      <trkpt lat="46.3885" lon="6.10457">
        <ele>1191.108671</ele>
        <time>2024-09-15T13:03:46.000Z</time>
      </trkpt>
      <trkpt lat="46.3885" lon="6.10459">
        <ele>1191.243158</ele>
        <time>2024-09-15T13:03:47.000Z</time>
      </trkpt>
      <trkpt lat="46.38851" lon="6.10462">
        <ele>1191.383586</ele>
        <time>2024-09-15T13:03:48.000Z</time>
      </trkpt>
      <trkpt lat="46.38852" lon="6.10464">
        <ele>1191.500858</ele>
        <time>2024-09-15T13:03:49.000Z</time>
      </trkpt>
      <trkpt lat="46.38852" lon="6.10466">
        <ele>1191.620607</ele>
        <time>2024-09-15T13:03:50.000Z</time>
      </trkpt>
      <trkpt lat="46.38853" lon="6.10468">
        <ele>1191.735507</ele>
        <time>2024-09-15T13:03:51.000Z</time>
      </trkpt>
      <trkpt lat="46.38854" lon="6.1047">
        <ele>1191.867947</ele>
        <time>2024-09-15T13:03:52.000Z</time>
      </trkpt>
      <trkpt lat="46.38855" lon="6.10472">
        <ele>1191.99464</ele>
        <time>2024-09-15T13:03:53.000Z</time>
      </trkpt>
      <trkpt lat="46.38856" lon="6.10473">
        <ele>1192.121539</ele>
        <time>2024-09-15T13:03:54.000Z</time>
      </trkpt>
      <trkpt lat="46.38857" lon="6.10475">
        <ele>1192.238661</ele>
        <time>2024-09-15T13:03:55.000Z</time>
      </trkpt>
      <trkpt lat="46.38858" lon="6.10477">
        <ele>1192.369344</ele>
        <time>2024-09-15T13:03:56.000Z</time>
      </trkpt>
      <trkpt lat="46.38859" lon="6.10479">
        <ele>1192.51301</ele>
        <time>2024-09-15T13:03:57.000Z</time>
      </trkpt>
      <trkpt lat="46.3886" lon="6.10481">
        <ele>1192.651928</ele>
        <time>2024-09-15T13:03:58.000Z</time>
      </trkpt>
      <trkpt lat="46.38862" lon="6.10483">
        <ele>1192.800583</ele>
        <time>2024-09-15T13:03:59.000Z</time>
      </trkpt>
      <trkpt lat="46.38863" lon="6.10485">
        <ele>1192.965427</ele>
        <time>2024-09-15T13:04:00.000Z</time>
      </trkpt>
      <trkpt lat="46.38865" lon="6.10487">
        <ele>1193.107661</ele>
        <time>2024-09-15T13:04:01.000Z</time>
      </trkpt>
      <trkpt lat="46.38866" lon="6.10488">
        <ele>1193.250398</ele>
        <time>2024-09-15T13:04:02.000Z</time>
      </trkpt>
      <trkpt lat="46.38868" lon="6.1049">
        <ele>1193.393134</ele>
        <time>2024-09-15T13:04:03.000Z</time>
      </trkpt>
      <trkpt lat="46.3887" lon="6.10491">
        <ele>1193.538663</ele>
        <time>2024-09-15T13:04:04.000Z</time>
      </trkpt>
      <trkpt lat="46.38871" lon="6.10493">
        <ele>1193.694677</ele>
        <time>2024-09-15T13:04:05.000Z</time>
      </trkpt>
      <trkpt lat="46.38873" lon="6.10494">
        <ele>1193.84948</ele>
        <time>2024-09-15T13:04:06.000Z</time>
      </trkpt>
      <trkpt lat="46.38875" lon="6.10495">
        <ele>1193.996708</ele>
        <time>2024-09-15T13:04:07.000Z</time>
      </trkpt>
      <trkpt lat="46.38877" lon="6.10496">
        <ele>1194.146438</ele>
        <time>2024-09-15T13:04:08.000Z</time>
      </trkpt>
      <trkpt lat="46.38879" lon="6.10496">
        <ele>1194.31521</ele>
        <time>2024-09-15T13:04:09.000Z</time>
      </trkpt>
      <trkpt lat="46.38881" lon="6.10497">
        <ele>1194.492138</ele>
        <time>2024-09-15T13:04:10.000Z</time>
      </trkpt>
      <trkpt lat="46.38883" lon="6.10497">
        <ele>1194.638113</ele>
        <time>2024-09-15T13:04:11.000Z</time>
      </trkpt>
      <trkpt lat="46.38885" lon="6.10497">
        <ele>1194.777198</ele>
        <time>2024-09-15T13:04:12.000Z</time>
      </trkpt>
      <trkpt lat="46.38887" lon="6.10498">
        <ele>1194.917179</ele>
        <time>2024-09-15T13:04:13.000Z</time>
      </trkpt>
      <trkpt lat="46.38888" lon="6.10498">
        <ele>1195.047127</ele>
        <time>2024-09-15T13:04:14.000Z</time>
      </trkpt>
      <trkpt lat="46.3889" lon="6.10498">
        <ele>1195.19234</ele>
        <time>2024-09-15T13:04:15.000Z</time>
      </trkpt>
      <trkpt lat="46.38892" lon="6.10498">
        <ele>1195.35351</ele>
        <time>2024-09-15T13:04:16.000Z</time>
      </trkpt>
      <trkpt lat="46.38894" lon="6.10498">
        <ele>1195.506628</ele>
        <time>2024-09-15T13:04:17.000Z</time>
      </trkpt>
      <trkpt lat="46.38896" lon="6.10498">
        <ele>1195.659746</ele>
        <time>2024-09-15T13:04:18.000Z</time>
      </trkpt>
      <trkpt lat="46.38899" lon="6.10499">
        <ele>1195.820916</ele>
        <time>2024-09-15T13:04:19.000Z</time>
      </trkpt>
      <trkpt lat="46.389" lon="6.10499">
        <ele>1195.967555</ele>
        <time>2024-09-15T13:04:20.000Z</time>
      </trkpt>
      <trkpt lat="46.38902" lon="6.105">
        <ele>1196.123546</ele>
        <time>2024-09-15T13:04:21.000Z</time>
      </trkpt>
      <trkpt lat="46.38905" lon="6.105">
        <ele>1196.295576</ele>
        <time>2024-09-15T13:04:22.000Z</time>
      </trkpt>
      <trkpt lat="46.38907" lon="6.10501">
        <ele>1196.466554</ele>
        <time>2024-09-15T13:04:23.000Z</time>
      </trkpt>
      <trkpt lat="46.38909" lon="6.10502">
        <ele>1196.614042</ele>
        <time>2024-09-15T13:04:24.000Z</time>
      </trkpt>
      <trkpt lat="46.38911" lon="6.10502">
        <ele>1196.763772</ele>
        <time>2024-09-15T13:04:25.000Z</time>
      </trkpt>
      <trkpt lat="46.38913" lon="6.10503">
        <ele>1196.911261</ele>
        <time>2024-09-15T13:04:26.000Z</time>
      </trkpt>
      <trkpt lat="46.38915" lon="6.10503">
        <ele>1197.079374</ele>
        <time>2024-09-15T13:04:27.000Z</time>
      </trkpt>
      <trkpt lat="46.38917" lon="6.10504">
        <ele>1197.252609</ele>
        <time>2024-09-15T13:04:28.000Z</time>
      </trkpt>
      <trkpt lat="46.38919" lon="6.10505">
        <ele>1197.406993</ele>
        <time>2024-09-15T13:04:29.000Z</time>
      </trkpt>
      <trkpt lat="46.38921" lon="6.10506">
        <ele>1197.583089</ele>
        <time>2024-09-15T13:04:30.000Z</time>
      </trkpt>
      <trkpt lat="46.38923" lon="6.10506">
        <ele>1197.7691</ele>
        <time>2024-09-15T13:04:31.000Z</time>
      </trkpt>
      <trkpt lat="46.38926" lon="6.10507">
        <ele>1197.949754</ele>
        <time>2024-09-15T13:04:32.000Z</time>
      </trkpt>
      <trkpt lat="46.38928" lon="6.10507">
        <ele>1198.103955</ele>
        <time>2024-09-15T13:04:33.000Z</time>
      </trkpt>
      <trkpt lat="46.3893" lon="6.10507">
        <ele>1198.257073</ele>
        <time>2024-09-15T13:04:34.000Z</time>
      </trkpt>
      <trkpt lat="46.38932" lon="6.10508">
        <ele>1198.403049</ele>
        <time>2024-09-15T13:04:35.000Z</time>
      </trkpt>
      <trkpt lat="46.38933" lon="6.10508">
        <ele>1198.534589</ele>
        <time>2024-09-15T13:04:36.000Z</time>
      </trkpt>
      <trkpt lat="46.38935" lon="6.10508">
        <ele>1198.672974</ele>
        <time>2024-09-15T13:04:37.000Z</time>
      </trkpt>
      <trkpt lat="46.38937" lon="6.10509">
        <ele>1198.834144</ele>
        <time>2024-09-15T13:04:38.000Z</time>
      </trkpt>
      <trkpt lat="46.38939" lon="6.10509">
        <ele>1198.994623</ele>
        <time>2024-09-15T13:04:39.000Z</time>
      </trkpt>
      <trkpt lat="46.38942" lon="6.10509">
        <ele>1199.162654</ele>
        <time>2024-09-15T13:04:40.000Z</time>
      </trkpt>
      <trkpt lat="46.38944" lon="6.10509">
        <ele>1199.346036</ele>
        <time>2024-09-15T13:04:41.000Z</time>
      </trkpt>
      <trkpt lat="46.38946" lon="6.10508">
        <ele>1199.537052</ele>
        <time>2024-09-15T13:04:42.000Z</time>
      </trkpt>
      <trkpt lat="46.38949" lon="6.10509">
        <ele>1199.706399</ele>
        <time>2024-09-15T13:04:43.000Z</time>
      </trkpt>
      <trkpt lat="46.3895" lon="6.10509">
        <ele>1199.843879</ele>
        <time>2024-09-15T13:04:44.000Z</time>
      </trkpt>
      <trkpt lat="46.38953" lon="6.10508">
        <ele>1200.029068</ele>
        <time>2024-09-15T13:04:45.000Z</time>
      </trkpt>
      <trkpt lat="46.38956" lon="6.10508">
        <ele>1200.24396</ele>
        <time>2024-09-15T13:04:46.000Z</time>
      </trkpt>
      <trkpt lat="46.38958" lon="6.10508">
        <ele>1200.435557</ele>
        <time>2024-09-15T13:04:47.000Z</time>
      </trkpt>
      <trkpt lat="46.3896" lon="6.10508">
        <ele>1200.611226</ele>
        <time>2024-09-15T13:04:48.000Z</time>
      </trkpt>
      <trkpt lat="46.38963" lon="6.10507">
        <ele>1200.80246</ele>
        <time>2024-09-15T13:04:49.000Z</time>
      </trkpt>
      <trkpt lat="46.38965" lon="6.10507">
        <ele>1200.958451</ele>
        <time>2024-09-15T13:04:50.000Z</time>
      </trkpt>
      <trkpt lat="46.38967" lon="6.10506">
        <ele>1201.135379</ele>
        <time>2024-09-15T13:04:51.000Z</time>
      </trkpt>
      <trkpt lat="46.38969" lon="6.10506">
        <ele>1201.282867</ele>
        <time>2024-09-15T13:04:52.000Z</time>
      </trkpt>
      <trkpt lat="46.38971" lon="6.10506">
        <ele>1201.427985</ele>
        <time>2024-09-15T13:04:53.000Z</time>
      </trkpt>
      <trkpt lat="46.38974" lon="6.10507">
        <ele>1201.638467</ele>
        <time>2024-09-15T13:04:54.000Z</time>
      </trkpt>
      <trkpt lat="46.38977" lon="6.10507">
        <ele>1201.86301</ele>
        <time>2024-09-15T13:04:55.000Z</time>
      </trkpt>
      <trkpt lat="46.38979" lon="6.10507">
        <ele>1202.053954</ele>
        <time>2024-09-15T13:04:56.000Z</time>
      </trkpt>
      <trkpt lat="46.38981" lon="6.10507">
        <ele>1202.214693</ele>
        <time>2024-09-15T13:04:57.000Z</time>
      </trkpt>
      <trkpt lat="46.38983" lon="6.10507">
        <ele>1202.367811</ele>
        <time>2024-09-15T13:04:58.000Z</time>
      </trkpt>
      <trkpt lat="46.38985" lon="6.10507">
        <ele>1202.536171</ele>
        <time>2024-09-15T13:04:59.000Z</time>
      </trkpt>
      <trkpt lat="46.38987" lon="6.10507">
        <ele>1202.673752</ele>
        <time>2024-09-15T13:05:00.000Z</time>
      </trkpt>
      <trkpt lat="46.38989" lon="6.10506">
        <ele>1202.766862</ele>
        <time>2024-09-15T13:05:01.000Z</time>
      </trkpt>
      <trkpt lat="46.38991" lon="6.10506">
        <ele>1202.850042</ele>
        <time>2024-09-15T13:05:02.000Z</time>
      </trkpt>
      <trkpt lat="46.38993" lon="6.10506">
        <ele>1202.927966</ele>
        <time>2024-09-15T13:05:03.000Z</time>
      </trkpt>
      <trkpt lat="46.38995" lon="6.10506">
        <ele>1202.997871</ele>
        <time>2024-09-15T13:05:04.000Z</time>
      </trkpt>
      <trkpt lat="46.38997" lon="6.10506">
        <ele>1203.075794</ele>
        <time>2024-09-15T13:05:05.000Z</time>
      </trkpt>
      <trkpt lat="46.38999" lon="6.10506">
        <ele>1203.163017</ele>
        <time>2024-09-15T13:05:06.000Z</time>
      </trkpt>
      <trkpt lat="46.39" lon="6.10505">
        <ele>1203.234112</ele>
        <time>2024-09-15T13:05:07.000Z</time>
      </trkpt>
      <trkpt lat="46.39003" lon="6.10505">
        <ele>1203.324457</ele>
        <time>2024-09-15T13:05:08.000Z</time>
      </trkpt>
      <trkpt lat="46.39005" lon="6.10505">
        <ele>1203.411266</ele>
        <time>2024-09-15T13:05:09.000Z</time>
      </trkpt>
      <trkpt lat="46.39007" lon="6.10504">
        <ele>1203.494447</ele>
        <time>2024-09-15T13:05:10.000Z</time>
      </trkpt>
      <trkpt lat="46.39009" lon="6.10504">
        <ele>1203.580517</ele>
        <time>2024-09-15T13:05:11.000Z</time>
      </trkpt>
      <trkpt lat="46.39011" lon="6.10505">
        <ele>1203.671786</ele>
        <time>2024-09-15T13:05:12.000Z</time>
      </trkpt>
      <trkpt lat="46.39013" lon="6.10506">
        <ele>1203.7643</ele>
        <time>2024-09-15T13:05:13.000Z</time>
      </trkpt>
      <trkpt lat="46.39015" lon="6.10507">
        <ele>1203.859679</ele>
        <time>2024-09-15T13:05:14.000Z</time>
      </trkpt>
      <trkpt lat="46.39018" lon="6.10507">
        <ele>1203.953946</ele>
        <time>2024-09-15T13:05:15.000Z</time>
      </trkpt>
      <trkpt lat="46.3902" lon="6.10507">
        <ele>1204.040755</ele>
        <time>2024-09-15T13:05:16.000Z</time>
      </trkpt>
      <trkpt lat="46.39022" lon="6.10508">
        <ele>1204.125081</ele>
        <time>2024-09-15T13:05:17.000Z</time>
      </trkpt>
      <trkpt lat="46.39024" lon="6.10509">
        <ele>1204.210115</ele>
        <time>2024-09-15T13:05:18.000Z</time>
      </trkpt>
      <trkpt lat="46.39026" lon="6.1051">
        <ele>1204.295055</ele>
        <time>2024-09-15T13:05:19.000Z</time>
      </trkpt>
      <trkpt lat="46.39028" lon="6.10512">
        <ele>1204.395932</ele>
        <time>2024-09-15T13:05:20.000Z</time>
      </trkpt>
      <trkpt lat="46.39029" lon="6.10513">
        <ele>1204.480574</ele>
        <time>2024-09-15T13:05:21.000Z</time>
      </trkpt>
      <trkpt lat="46.39031" lon="6.10515">
        <ele>1204.558667</ele>
        <time>2024-09-15T13:05:22.000Z</time>
      </trkpt>
      <trkpt lat="46.39033" lon="6.10516">
        <ele>1204.647336</ele>
        <time>2024-09-15T13:05:23.000Z</time>
      </trkpt>
      <trkpt lat="46.39035" lon="6.10518">
        <ele>1204.742356</ele>
        <time>2024-09-15T13:05:24.000Z</time>
      </trkpt>
      <trkpt lat="46.39037" lon="6.1052">
        <ele>1204.831977</ele>
        <time>2024-09-15T13:05:25.000Z</time>
      </trkpt>
      <trkpt lat="46.39039" lon="6.10521">
        <ele>1204.920646</ele>
        <time>2024-09-15T13:05:26.000Z</time>
      </trkpt>
      <trkpt lat="46.39041" lon="6.10522">
        <ele>1205.004498</ele>
        <time>2024-09-15T13:05:27.000Z</time>
      </trkpt>
      <trkpt lat="46.39043" lon="6.10523">
        <ele>1205.099877</ele>
        <time>2024-09-15T13:05:28.000Z</time>
      </trkpt>
      <trkpt lat="46.39045" lon="6.10525">
        <ele>1205.204434</ele>
        <time>2024-09-15T13:05:29.000Z</time>
      </trkpt>
      <trkpt lat="46.39047" lon="6.10526">
        <ele>1205.307597</ele>
        <time>2024-09-15T13:05:30.000Z</time>
      </trkpt>
      <trkpt lat="46.3905" lon="6.10527">
        <ele>1205.40661</ele>
        <time>2024-09-15T13:05:31.000Z</time>
      </trkpt>
      <trkpt lat="46.39052" lon="6.10527">
        <ele>1205.493097</ele>
        <time>2024-09-15T13:05:32.000Z</time>
      </trkpt>
      <trkpt lat="46.39054" lon="6.10527">
        <ele>1205.583663</ele>
        <time>2024-09-15T13:05:33.000Z</time>
      </trkpt>
      <trkpt lat="46.39057" lon="6.10527">
        <ele>1205.686477</ele>
        <time>2024-09-15T13:05:34.000Z</time>
      </trkpt>
      <trkpt lat="46.39059" lon="6.10528">
        <ele>1205.78898</ele>
        <time>2024-09-15T13:05:35.000Z</time>
      </trkpt>
      <trkpt lat="46.39062" lon="6.10528">
        <ele>1205.894555</ele>
        <time>2024-09-15T13:05:36.000Z</time>
      </trkpt>
      <trkpt lat="46.39065" lon="6.1053">
        <ele>1206.028731</ele>
        <time>2024-09-15T13:05:37.000Z</time>
      </trkpt>
      <trkpt lat="46.39068" lon="6.10531">
        <ele>1206.160007</ele>
        <time>2024-09-15T13:05:38.000Z</time>
      </trkpt>
      <trkpt lat="46.39072" lon="6.10531">
        <ele>1206.312939</ele>
        <time>2024-09-15T13:05:39.000Z</time>
      </trkpt>
      <trkpt lat="46.39074" lon="6.10531">
        <ele>1206.423744</ele>
        <time>2024-09-15T13:05:40.000Z</time>
      </trkpt>
      <trkpt lat="46.39076" lon="6.10532">
        <ele>1206.50591</ele>
        <time>2024-09-15T13:05:41.000Z</time>
      </trkpt>
      <trkpt lat="46.39078" lon="6.10532">
        <ele>1206.596078</ele>
        <time>2024-09-15T13:05:42.000Z</time>
      </trkpt>
      <trkpt lat="46.39081" lon="6.10532">
        <ele>1206.706775</ele>
        <time>2024-09-15T13:05:43.000Z</time>
      </trkpt>
      <trkpt lat="46.39084" lon="6.10532">
        <ele>1206.82617</ele>
        <time>2024-09-15T13:05:44.000Z</time>
      </trkpt>
      <trkpt lat="46.39087" lon="6.10532">
        <ele>1206.940964</ele>
        <time>2024-09-15T13:05:45.000Z</time>
      </trkpt>
      <trkpt lat="46.3909" lon="6.10533">
        <ele>1207.052201</ele>
        <time>2024-09-15T13:05:46.000Z</time>
      </trkpt>
      <trkpt lat="46.39092" lon="6.10533">
        <ele>1207.167274</ele>
        <time>2024-09-15T13:05:47.000Z</time>
      </trkpt>
      <trkpt lat="46.39095" lon="6.10533">
        <ele>1207.290263</ele>
        <time>2024-09-15T13:05:48.000Z</time>
      </trkpt>
      <trkpt lat="46.39099" lon="6.10533">
        <ele>1207.421538</ele>
        <time>2024-09-15T13:05:49.000Z</time>
      </trkpt>
      <trkpt lat="46.39102" lon="6.10533">
        <ele>1207.55682</ele>
        <time>2024-09-15T13:05:50.000Z</time>
      </trkpt>
      <trkpt lat="46.39105" lon="6.10533">
        <ele>1207.6962</ele>
        <time>2024-09-15T13:05:51.000Z</time>
      </trkpt>
      <trkpt lat="46.39109" lon="6.10532">
        <ele>1207.831718</ele>
        <time>2024-09-15T13:05:52.000Z</time>
      </trkpt>
      <trkpt lat="46.39112" lon="6.10532">
        <ele>1207.967235</ele>
        <time>2024-09-15T13:05:53.000Z</time>
      </trkpt>
      <trkpt lat="46.39115" lon="6.10532">
        <ele>1208.095074</ele>
        <time>2024-09-15T13:05:54.000Z</time>
      </trkpt>
      <trkpt lat="46.39118" lon="6.10531">
        <ele>1208.21855</ele>
        <time>2024-09-15T13:05:55.000Z</time>
      </trkpt>
      <trkpt lat="46.39121" lon="6.10531">
        <ele>1208.32515</ele>
        <time>2024-09-15T13:05:56.000Z</time>
      </trkpt>
      <trkpt lat="46.39123" lon="6.10531">
        <ele>1208.435811</ele>
        <time>2024-09-15T13:05:57.000Z</time>
      </trkpt>
      <trkpt lat="46.39126" lon="6.10531">
        <ele>1208.551126</ele>
        <time>2024-09-15T13:05:58.000Z</time>
      </trkpt>
      <trkpt lat="46.39131" lon="6.10531">
        <ele>1208.772898</ele>
        <time>2024-09-15T13:06:00.000Z</time>
      </trkpt>
      <trkpt lat="46.39141" lon="6.10532">
        <ele>1209.16263</ele>
        <time>2024-09-15T13:06:03.000Z</time>
      </trkpt>
      <trkpt lat="46.39161" lon="6.1054">
        <ele>1210.007382</ele>
        <time>2024-09-15T13:06:10.000Z</time>
      </trkpt>
      <trkpt lat="46.39163" lon="6.10541">
        <ele>1210.115277</ele>
        <time>2024-09-15T13:06:11.000Z</time>
      </trkpt>
      <trkpt lat="46.39166" lon="6.10542">
        <ele>1210.226731</ele>
        <time>2024-09-15T13:06:12.000Z</time>
      </trkpt>
      <trkpt lat="46.3918" lon="6.10546">
        <ele>1210.760769</ele>
        <time>2024-09-15T13:06:17.000Z</time>
      </trkpt>
      <trkpt lat="46.39182" lon="6.10546">
        <ele>1210.847963</ele>
        <time>2024-09-15T13:06:18.000Z</time>
      </trkpt>
      <trkpt lat="46.39185" lon="6.10546">
        <ele>1210.9584</ele>
        <time>2024-09-15T13:06:19.000Z</time>
      </trkpt>
      <trkpt lat="46.39199" lon="6.10549">
        <ele>1211.482206</ele>
        <time>2024-09-15T13:06:24.000Z</time>
      </trkpt>
      <trkpt lat="46.39202" lon="6.10549">
        <ele>1211.594119</ele>
        <time>2024-09-15T13:06:25.000Z</time>
      </trkpt>
      <trkpt lat="46.39205" lon="6.10551">
        <ele>1211.700442</ele>
        <time>2024-09-15T13:06:26.000Z</time>
      </trkpt>
      <trkpt lat="46.39215" lon="6.10553">
        <ele>1212.098165</ele>
        <time>2024-09-15T13:06:30.000Z</time>
      </trkpt>
      <trkpt lat="46.39218" lon="6.10552">
        <ele>1212.205117</ele>
        <time>2024-09-15T13:06:31.000Z</time>
      </trkpt>
      <trkpt lat="46.3922" lon="6.10552">
        <ele>1212.297037</ele>
        <time>2024-09-15T13:06:32.000Z</time>
      </trkpt>
      <trkpt lat="46.39223" lon="6.10551">
        <ele>1212.399928</ele>
        <time>2024-09-15T13:06:33.000Z</time>
      </trkpt>
      <trkpt lat="46.39233" lon="6.10549">
        <ele>1212.791675</ele>
        <time>2024-09-15T13:06:37.000Z</time>
      </trkpt>
      <trkpt lat="46.39235" lon="6.10548">
        <ele>1212.869675</ele>
        <time>2024-09-15T13:06:38.000Z</time>
      </trkpt>
      <trkpt lat="46.39237" lon="6.10547">
        <ele>1212.958769</ele>
        <time>2024-09-15T13:06:39.000Z</time>
      </trkpt>
      <trkpt lat="46.39239" lon="6.10546">
        <ele>1213.040826</ele>
        <time>2024-09-15T13:06:40.000Z</time>
      </trkpt>
      <trkpt lat="46.39242" lon="6.10545">
        <ele>1213.137954</ele>
        <time>2024-09-15T13:06:41.000Z</time>
      </trkpt>
      <trkpt lat="46.39244" lon="6.10543">
        <ele>1213.244038</ele>
        <time>2024-09-15T13:06:42.000Z</time>
      </trkpt>
      <trkpt lat="46.39247" lon="6.10542">
        <ele>1213.345639</ele>
        <time>2024-09-15T13:06:43.000Z</time>
      </trkpt>
      <trkpt lat="46.39249" lon="6.1054">
        <ele>1213.449238</ele>
        <time>2024-09-15T13:06:44.000Z</time>
      </trkpt>
      <trkpt lat="46.39252" lon="6.1054">
        <ele>1213.535224</ele>
        <time>2024-09-15T13:06:45.000Z</time>
      </trkpt>
      <trkpt lat="46.39254" lon="6.10539">
        <ele>1213.636562</ele>
        <time>2024-09-15T13:06:46.000Z</time>
      </trkpt>
      <trkpt lat="46.39257" lon="6.10538">
        <ele>1213.729921</ele>
        <time>2024-09-15T13:06:47.000Z</time>
      </trkpt>
      <trkpt lat="46.39259" lon="6.10537">
        <ele>1213.812236</ele>
        <time>2024-09-15T13:06:48.000Z</time>
      </trkpt>
      <trkpt lat="46.39262" lon="6.10537">
        <ele>1213.956888</ele>
        <time>2024-09-15T13:06:49.000Z</time>
      </trkpt>
      <trkpt lat="46.39265" lon="6.10536">
        <ele>1214.036672</ele>
        <time>2024-09-15T13:06:50.000Z</time>
      </trkpt>
      <trkpt lat="46.39267" lon="6.10536">
        <ele>1214.120116</ele>
        <time>2024-09-15T13:06:51.000Z</time>
      </trkpt>
      <trkpt lat="46.39269" lon="6.10536">
        <ele>1214.195937</ele>
        <time>2024-09-15T13:06:52.000Z</time>
      </trkpt>
      <trkpt lat="46.39271" lon="6.10537">
        <ele>1214.283484</ele>
        <time>2024-09-15T13:06:53.000Z</time>
      </trkpt>
      <trkpt lat="46.39274" lon="6.10537">
        <ele>1214.405051</ele>
        <time>2024-09-15T13:06:54.000Z</time>
      </trkpt>
      <trkpt lat="46.39277" lon="6.10537">
        <ele>1214.504172</ele>
        <time>2024-09-15T13:06:55.000Z</time>
      </trkpt>
      <trkpt lat="46.39279" lon="6.10538">
        <ele>1214.602774</ele>
        <time>2024-09-15T13:06:56.000Z</time>
      </trkpt>
      <trkpt lat="46.39282" lon="6.10539">
        <ele>1214.705346</ele>
        <time>2024-09-15T13:06:57.000Z</time>
      </trkpt>
      <trkpt lat="46.39285" lon="6.10541">
        <ele>1214.815924</ele>
        <time>2024-09-15T13:06:58.000Z</time>
      </trkpt>
      <trkpt lat="46.39287" lon="6.10543">
        <ele>1214.916278</ele>
        <time>2024-09-15T13:06:59.000Z</time>
      </trkpt>
      <trkpt lat="46.39289" lon="6.10545">
        <ele>1215.003555</ele>
        <time>2024-09-15T13:07:00.000Z</time>
      </trkpt>
      <trkpt lat="46.3929" lon="6.10547">
        <ele>1215.086322</ele>
        <time>2024-09-15T13:07:01.000Z</time>
      </trkpt>
      <trkpt lat="46.39292" lon="6.10549">
        <ele>1215.181495</ele>
        <time>2024-09-15T13:07:02.000Z</time>
      </trkpt>
      <trkpt lat="46.39294" lon="6.10552">
        <ele>1215.287765</ele>
        <time>2024-09-15T13:07:03.000Z</time>
      </trkpt>
      <trkpt lat="46.39297" lon="6.10554">
        <ele>1215.399346</ele>
        <time>2024-09-15T13:07:04.000Z</time>
      </trkpt>
      <trkpt lat="46.393" lon="6.10556">
        <ele>1215.517678</ele>
        <time>2024-09-15T13:07:05.000Z</time>
      </trkpt>
      <trkpt lat="46.39303" lon="6.10558">
        <ele>1215.641758</ele>
        <time>2024-09-15T13:07:06.000Z</time>
      </trkpt>
      <trkpt lat="46.39305" lon="6.1056">
        <ele>1215.757223</ele>
        <time>2024-09-15T13:07:07.000Z</time>
      </trkpt>
      <trkpt lat="46.39308" lon="6.10561">
        <ele>1215.873098</ele>
        <time>2024-09-15T13:07:08.000Z</time>
      </trkpt>
      <trkpt lat="46.39312" lon="6.10562">
        <ele>1216.000397</ele>
        <time>2024-09-15T13:07:09.000Z</time>
      </trkpt>
      <trkpt lat="46.39314" lon="6.10563">
        <ele>1216.110834</ele>
        <time>2024-09-15T13:07:10.000Z</time>
      </trkpt>
      <trkpt lat="46.39318" lon="6.10562">
        <ele>1216.247937</ele>
        <time>2024-09-15T13:07:11.000Z</time>
      </trkpt>
      <trkpt lat="46.39322" lon="6.10562">
        <ele>1216.391998</ele>
        <time>2024-09-15T13:07:12.000Z</time>
      </trkpt>
      <trkpt lat="46.39326" lon="6.10562">
        <ele>1216.537216</ele>
        <time>2024-09-15T13:07:13.000Z</time>
      </trkpt>
      <trkpt lat="46.39329" lon="6.10561">
        <ele>1216.677874</ele>
        <time>2024-09-15T13:07:14.000Z</time>
      </trkpt>
      <trkpt lat="46.39333" lon="6.10561">
        <ele>1216.821935</ele>
        <time>2024-09-15T13:07:15.000Z</time>
      </trkpt>
      <trkpt lat="46.39337" lon="6.1056">
        <ele>1216.954861</ele>
        <time>2024-09-15T13:07:16.000Z</time>
      </trkpt>
      <trkpt lat="46.3934" lon="6.10559">
        <ele>1217.067009</ele>
        <time>2024-09-15T13:07:17.000Z</time>
      </trkpt>
      <trkpt lat="46.39344" lon="6.10558">
        <ele>1217.178399</ele>
        <time>2024-09-15T13:07:18.000Z</time>
      </trkpt>
      <trkpt lat="46.39348" lon="6.10557">
        <ele>1217.296343</ele>
        <time>2024-09-15T13:07:19.000Z</time>
      </trkpt>
      <trkpt lat="46.39351" lon="6.10557">
        <ele>1217.3944</ele>
        <time>2024-09-15T13:07:20.000Z</time>
      </trkpt>
      <trkpt lat="46.39354" lon="6.10556">
        <ele>1217.514177</ele>
        <time>2024-09-15T13:07:21.000Z</time>
      </trkpt>
      <trkpt lat="46.39358" lon="6.10556">
        <ele>1217.633954</ele>
        <time>2024-09-15T13:07:22.000Z</time>
      </trkpt>
      <trkpt lat="46.39362" lon="6.10556">
        <ele>1217.762848</ele>
        <time>2024-09-15T13:07:23.000Z</time>
      </trkpt>
      <trkpt lat="46.39365" lon="6.10556">
        <ele>1217.860521</ele>
        <time>2024-09-15T13:07:24.000Z</time>
      </trkpt>
      <trkpt lat="46.39368" lon="6.10555">
        <ele>1217.955231</ele>
        <time>2024-09-15T13:07:25.000Z</time>
      </trkpt>
      <trkpt lat="46.39372" lon="6.10555">
        <ele>1218.062667</ele>
        <time>2024-09-15T13:07:26.000Z</time>
      </trkpt>
      <trkpt lat="46.39375" lon="6.10555">
        <ele>1218.157004</ele>
        <time>2024-09-15T13:07:27.000Z</time>
      </trkpt>
      <trkpt lat="46.39378" lon="6.10555">
        <ele>1218.263913</ele>
        <time>2024-09-15T13:07:28.000Z</time>
      </trkpt>
      <trkpt lat="46.39382" lon="6.10555">
        <ele>1218.380555</ele>
        <time>2024-09-15T13:07:29.000Z</time>
      </trkpt>
      <trkpt lat="46.394" lon="6.10555">
        <ele>1218.937205</ele>
        <time>2024-09-15T13:07:34.000Z</time>
      </trkpt>
      <trkpt lat="46.39423" lon="6.10555">
        <ele>1219.663528</ele>
        <time>2024-09-15T13:07:40.000Z</time>
      </trkpt>
      <trkpt lat="46.3943" lon="6.10556">
        <ele>1219.890541</ele>
        <time>2024-09-15T13:07:42.000Z</time>
      </trkpt>
      <trkpt lat="46.39433" lon="6.10556">
        <ele>1219.988382</ele>
        <time>2024-09-15T13:07:43.000Z</time>
      </trkpt>
      <trkpt lat="46.39436" lon="6.10557">
        <ele>1220.094368</ele>
        <time>2024-09-15T13:07:44.000Z</time>
      </trkpt>
      <trkpt lat="46.3944" lon="6.10559">
        <ele>1220.204909</ele>
        <time>2024-09-15T13:07:45.000Z</time>
      </trkpt>
      <trkpt lat="46.39443" lon="6.10559">
        <ele>1220.302582</ele>
        <time>2024-09-15T13:07:46.000Z</time>
      </trkpt>
      <trkpt lat="46.39446" lon="6.10559">
        <ele>1220.396994</ele>
        <time>2024-09-15T13:07:47.000Z</time>
      </trkpt>
      <trkpt lat="46.39449" lon="6.10559">
        <ele>1220.497688</ele>
        <time>2024-09-15T13:07:48.000Z</time>
      </trkpt>
      <trkpt lat="46.39452" lon="6.10558">
        <ele>1220.602871</ele>
        <time>2024-09-15T13:07:49.000Z</time>
      </trkpt>
      <trkpt lat="46.39455" lon="6.10556">
        <ele>1220.704322</ele>
        <time>2024-09-15T13:07:50.000Z</time>
      </trkpt>
      <trkpt lat="46.39458" lon="6.10555">
        <ele>1220.80639</ele>
        <time>2024-09-15T13:07:51.000Z</time>
      </trkpt>
      <trkpt lat="46.39461" lon="6.10553">
        <ele>1220.905561</ele>
        <time>2024-09-15T13:07:52.000Z</time>
      </trkpt>
      <trkpt lat="46.39464" lon="6.10551">
        <ele>1220.998089</ele>
        <time>2024-09-15T13:07:53.000Z</time>
      </trkpt>
      <trkpt lat="46.39467" lon="6.10548">
        <ele>1221.102447</ele>
        <time>2024-09-15T13:07:54.000Z</time>
      </trkpt>
      <trkpt lat="46.39474" lon="6.10538">
        <ele>1221.437049</ele>
        <time>2024-09-15T13:07:58.000Z</time>
      </trkpt>
      <trkpt lat="46.39477" lon="6.10536">
        <ele>1221.521021</ele>
        <time>2024-09-15T13:07:59.000Z</time>
      </trkpt>
      <trkpt lat="46.39479" lon="6.10534">
        <ele>1221.606931</ele>
        <time>2024-09-15T13:08:00.000Z</time>
      </trkpt>
      <trkpt lat="46.39482" lon="6.10533">
        <ele>1221.692077</ele>
        <time>2024-09-15T13:08:01.000Z</time>
      </trkpt>
      <trkpt lat="46.39484" lon="6.10532">
        <ele>1221.772562</ele>
        <time>2024-09-15T13:08:02.000Z</time>
      </trkpt>
      <trkpt lat="46.39487" lon="6.10532">
        <ele>1221.842569</ele>
        <time>2024-09-15T13:08:03.000Z</time>
      </trkpt>
      <trkpt lat="46.39489" lon="6.10532">
        <ele>1221.90873</ele>
        <time>2024-09-15T13:08:04.000Z</time>
      </trkpt>
      <trkpt lat="46.39491" lon="6.10532">
        <ele>1221.97647</ele>
        <time>2024-09-15T13:08:05.000Z</time>
      </trkpt>
      <trkpt lat="46.39493" lon="6.10534">
        <ele>1222.053315</ele>
        <time>2024-09-15T13:08:06.000Z</time>
      </trkpt>
      <trkpt lat="46.39495" lon="6.10535">
        <ele>1222.134474</ele>
        <time>2024-09-15T13:08:07.000Z</time>
      </trkpt>
      <trkpt lat="46.39497" lon="6.10537">
        <ele>1222.201953</ele>
        <time>2024-09-15T13:08:08.000Z</time>
      </trkpt>
      <trkpt lat="46.39499" lon="6.10539">
        <ele>1222.278393</ele>
        <time>2024-09-15T13:08:09.000Z</time>
      </trkpt>
      <trkpt lat="46.39501" lon="6.10541">
        <ele>1222.349685</ele>
        <time>2024-09-15T13:08:10.000Z</time>
      </trkpt>
      <trkpt lat="46.39502" lon="6.10543">
        <ele>1222.416097</ele>
        <time>2024-09-15T13:08:11.000Z</time>
      </trkpt>
      <trkpt lat="46.39504" lon="6.10545">
        <ele>1222.482508</ele>
        <time>2024-09-15T13:08:12.000Z</time>
      </trkpt>
      <trkpt lat="46.39506" lon="6.10547">
        <ele>1222.545124</ele>
        <time>2024-09-15T13:08:13.000Z</time>
      </trkpt>
      <trkpt lat="46.39507" lon="6.10549">
        <ele>1222.666733</ele>
        <time>2024-09-15T13:08:14.000Z</time>
      </trkpt>
      <trkpt lat="46.39509" lon="6.10551">
        <ele>1222.803129</ele>
        <time>2024-09-15T13:08:15.000Z</time>
      </trkpt>
      <trkpt lat="46.39512" lon="6.10553">
        <ele>1222.940587</ele>
        <time>2024-09-15T13:08:16.000Z</time>
      </trkpt>
      <trkpt lat="46.39513" lon="6.10554">
        <ele>1223.062321</ele>
        <time>2024-09-15T13:08:17.000Z</time>
      </trkpt>
      <trkpt lat="46.39515" lon="6.10555">
        <ele>1223.184056</ele>
        <time>2024-09-15T13:08:18.000Z</time>
      </trkpt>
      <trkpt lat="46.39517" lon="6.10556">
        <ele>1223.304139</ele>
        <time>2024-09-15T13:08:19.000Z</time>
      </trkpt>
      <trkpt lat="46.39519" lon="6.10558">
        <ele>1223.431138</ele>
        <time>2024-09-15T13:08:20.000Z</time>
      </trkpt>
      <trkpt lat="46.39521" lon="6.10559">
        <ele>1223.544321</ele>
        <time>2024-09-15T13:08:21.000Z</time>
      </trkpt>
      <trkpt lat="46.39523" lon="6.10559">
        <ele>1223.669176</ele>
        <time>2024-09-15T13:08:22.000Z</time>
      </trkpt>
      <trkpt lat="46.39525" lon="6.10561">
        <ele>1223.813625</ele>
        <time>2024-09-15T13:08:23.000Z</time>
      </trkpt>
      <trkpt lat="46.39528" lon="6.10563">
        <ele>1223.963211</ele>
        <time>2024-09-15T13:08:24.000Z</time>
      </trkpt>
      <trkpt lat="46.3953" lon="6.10564">
        <ele>1224.104077</ele>
        <time>2024-09-15T13:08:25.000Z</time>
      </trkpt>
      <trkpt lat="46.39532" lon="6.10566">
        <ele>1224.250207</ele>
        <time>2024-09-15T13:08:26.000Z</time>
      </trkpt>
      <trkpt lat="46.39534" lon="6.10567">
        <ele>1224.380679</ele>
        <time>2024-09-15T13:08:27.000Z</time>
      </trkpt>
      <trkpt lat="46.39536" lon="6.10568">
        <ele>1224.486981</ele>
        <time>2024-09-15T13:08:28.000Z</time>
      </trkpt>
      <trkpt lat="46.39538" lon="6.10569">
        <ele>1224.612792</ele>
        <time>2024-09-15T13:08:29.000Z</time>
      </trkpt>
      <trkpt lat="46.3954" lon="6.1057">
        <ele>1224.748989</ele>
        <time>2024-09-15T13:08:30.000Z</time>
      </trkpt>
      <trkpt lat="46.39542" lon="6.10572">
        <ele>1224.879461</ele>
        <time>2024-09-15T13:08:31.000Z</time>
      </trkpt>
      <trkpt lat="46.39544" lon="6.10574">
        <ele>1225.032842</ele>
        <time>2024-09-15T13:08:32.000Z</time>
      </trkpt>
      <trkpt lat="46.39547" lon="6.10575">
        <ele>1225.181293</ele>
        <time>2024-09-15T13:08:33.000Z</time>
      </trkpt>
      <trkpt lat="46.39549" lon="6.10577">
        <ele>1225.33088</ele>
        <time>2024-09-15T13:08:34.000Z</time>
      </trkpt>
      <trkpt lat="46.39551" lon="6.10578">
        <ele>1225.478694</ele>
        <time>2024-09-15T13:08:35.000Z</time>
      </trkpt>
      <trkpt lat="46.39553" lon="6.10579">
        <ele>1225.602638</ele>
        <time>2024-09-15T13:08:36.000Z</time>
      </trkpt>
      <trkpt lat="46.39556" lon="6.10581">
        <ele>1225.73748</ele>
        <time>2024-09-15T13:08:37.000Z</time>
      </trkpt>
      <trkpt lat="46.39558" lon="6.10582">
        <ele>1225.883326</ele>
        <time>2024-09-15T13:08:38.000Z</time>
      </trkpt>
      <trkpt lat="46.39561" lon="6.10582">
        <ele>1226.030861</ele>
        <time>2024-09-15T13:08:39.000Z</time>
      </trkpt>
      <trkpt lat="46.39563" lon="6.10583">
        <ele>1226.18199</ele>
        <time>2024-09-15T13:08:40.000Z</time>
      </trkpt>
      <trkpt lat="46.39566" lon="6.10583">
        <ele>1226.332696</ele>
        <time>2024-09-15T13:08:41.000Z</time>
      </trkpt>
      <trkpt lat="46.39568" lon="6.10582">
        <ele>1226.472676</ele>
        <time>2024-09-15T13:08:42.000Z</time>
      </trkpt>
      <trkpt lat="46.39571" lon="6.10582">
        <ele>1226.611797</ele>
        <time>2024-09-15T13:08:43.000Z</time>
      </trkpt>
      <trkpt lat="46.39573" lon="6.10582">
        <ele>1226.728781</ele>
        <time>2024-09-15T13:08:44.000Z</time>
      </trkpt>
      <trkpt lat="46.39575" lon="6.10581">
        <ele>1226.851508</ele>
        <time>2024-09-15T13:08:45.000Z</time>
      </trkpt>
      <trkpt lat="46.39577" lon="6.10581">
        <ele>1227.004736</ele>
        <time>2024-09-15T13:08:46.000Z</time>
      </trkpt>
      <trkpt lat="46.3958" lon="6.1058">
        <ele>1227.158743</ele>
        <time>2024-09-15T13:08:47.000Z</time>
      </trkpt>
      <trkpt lat="46.39582" lon="6.10579">
        <ele>1227.309013</ele>
        <time>2024-09-15T13:08:48.000Z</time>
      </trkpt>
      <trkpt lat="46.39585" lon="6.10577">
        <ele>1227.465579</ele>
        <time>2024-09-15T13:08:49.000Z</time>
      </trkpt>
      <trkpt lat="46.39587" lon="6.10575">
        <ele>1227.606931</ele>
        <time>2024-09-15T13:08:50.000Z</time>
      </trkpt>
      <trkpt lat="46.39589" lon="6.10573">
        <ele>1227.742976</ele>
        <time>2024-09-15T13:08:51.000Z</time>
      </trkpt>
      <trkpt lat="46.3959" lon="6.10571">
        <ele>1227.86538</ele>
        <time>2024-09-15T13:08:52.000Z</time>
      </trkpt>
      <trkpt lat="46.39592" lon="6.10569">
        <ele>1227.989751</ele>
        <time>2024-09-15T13:08:53.000Z</time>
      </trkpt>
      <trkpt lat="46.39594" lon="6.10568">
        <ele>1228.117063</ele>
        <time>2024-09-15T13:08:54.000Z</time>
      </trkpt>
      <trkpt lat="46.39596" lon="6.10565">
        <ele>1228.254546</ele>
        <time>2024-09-15T13:08:55.000Z</time>
      </trkpt>
      <trkpt lat="46.39597" lon="6.10563">
        <ele>1228.374169</ele>
        <time>2024-09-15T13:08:56.000Z</time>
      </trkpt>
      <trkpt lat="46.39599" lon="6.10561">
        <ele>1228.510463</ele>
        <time>2024-09-15T13:08:57.000Z</time>
      </trkpt>
      <trkpt lat="46.396" lon="6.10558">
        <ele>1228.660529</ele>
        <time>2024-09-15T13:08:58.000Z</time>
      </trkpt>
      <trkpt lat="46.39603" lon="6.10556">
        <ele>1228.820185</ele>
        <time>2024-09-15T13:08:59.000Z</time>
      </trkpt>
      <trkpt lat="46.39605" lon="6.10554">
        <ele>1228.963601</ele>
        <time>2024-09-15T13:09:00.000Z</time>
      </trkpt>
      <trkpt lat="46.39606" lon="6.10551">
        <ele>1229.098326</ele>
        <time>2024-09-15T13:09:01.000Z</time>
      </trkpt>
      <trkpt lat="46.39608" lon="6.10549">
        <ele>1229.240582</ele>
        <time>2024-09-15T13:09:02.000Z</time>
      </trkpt>
      <trkpt lat="46.3961" lon="6.10546">
        <ele>1229.390648</ele>
        <time>2024-09-15T13:09:03.000Z</time>
      </trkpt>
      <trkpt lat="46.39612" lon="6.10543">
        <ele>1229.53234</ele>
        <time>2024-09-15T13:09:04.000Z</time>
      </trkpt>
      <trkpt lat="46.39613" lon="6.10541">
        <ele>1229.664157</ele>
        <time>2024-09-15T13:09:05.000Z</time>
      </trkpt>
      <trkpt lat="46.39615" lon="6.10538">
        <ele>1229.806413</ele>
        <time>2024-09-15T13:09:06.000Z</time>
      </trkpt>
      <trkpt lat="46.39617" lon="6.10535">
        <ele>1229.967502</ele>
        <time>2024-09-15T13:09:07.000Z</time>
      </trkpt>
      <trkpt lat="46.39618" lon="6.10532">
        <ele>1230.112254</ele>
        <time>2024-09-15T13:09:08.000Z</time>
      </trkpt>
      <trkpt lat="46.3962" lon="6.10529">
        <ele>1230.276144</ele>
        <time>2024-09-15T13:09:09.000Z</time>
      </trkpt>
      <trkpt lat="46.39622" lon="6.10527">
        <ele>1230.422242</ele>
        <time>2024-09-15T13:09:10.000Z</time>
      </trkpt>
      <trkpt lat="46.39623" lon="6.10524">
        <ele>1230.560447</ele>
        <time>2024-09-15T13:09:11.000Z</time>
      </trkpt>
      <trkpt lat="46.39624" lon="6.10521">
        <ele>1230.702032</ele>
        <time>2024-09-15T13:09:12.000Z</time>
      </trkpt>
      <trkpt lat="46.39626" lon="6.10518">
        <ele>1230.847342</ele>
        <time>2024-09-15T13:09:13.000Z</time>
      </trkpt>
      <trkpt lat="46.39628" lon="6.10515">
        <ele>1230.992652</ele>
        <time>2024-09-15T13:09:14.000Z</time>
      </trkpt>
      <trkpt lat="46.39629" lon="6.10512">
        <ele>1231.148563</ele>
        <time>2024-09-15T13:09:15.000Z</time>
      </trkpt>
      <trkpt lat="46.39631" lon="6.1051">
        <ele>1231.283711</ele>
        <time>2024-09-15T13:09:16.000Z</time>
      </trkpt>
      <trkpt lat="46.39632" lon="6.10507">
        <ele>1231.402215</ele>
        <time>2024-09-15T13:09:17.000Z</time>
      </trkpt>
      <trkpt lat="46.39633" lon="6.10504">
        <ele>1231.533804</ele>
        <time>2024-09-15T13:09:18.000Z</time>
      </trkpt>
      <trkpt lat="46.39635" lon="6.10502">
        <ele>1231.682878</ele>
        <time>2024-09-15T13:09:19.000Z</time>
      </trkpt>
      <trkpt lat="46.39636" lon="6.10499">
        <ele>1231.821427</ele>
        <time>2024-09-15T13:09:20.000Z</time>
      </trkpt>
      <trkpt lat="46.39638" lon="6.10496">
        <ele>1231.966287</ele>
        <time>2024-09-15T13:09:21.000Z</time>
      </trkpt>
      <trkpt lat="46.39639" lon="6.10493">
        <ele>1232.091603</ele>
        <time>2024-09-15T13:09:22.000Z</time>
      </trkpt>
      <trkpt lat="46.3964" lon="6.1049">
        <ele>1232.233062</ele>
        <time>2024-09-15T13:09:23.000Z</time>
      </trkpt>
      <trkpt lat="46.39641" lon="6.10487">
        <ele>1232.371163</ele>
        <time>2024-09-15T13:09:24.000Z</time>
      </trkpt>
      <trkpt lat="46.39642" lon="6.10484">
        <ele>1232.502281</ele>
        <time>2024-09-15T13:09:25.000Z</time>
      </trkpt>
      <trkpt lat="46.39642" lon="6.10481">
        <ele>1232.628841</ele>
        <time>2024-09-15T13:09:26.000Z</time>
      </trkpt>
      <trkpt lat="46.39644" lon="6.10478">
        <ele>1232.770426</ele>
        <time>2024-09-15T13:09:27.000Z</time>
      </trkpt>
      <trkpt lat="46.39645" lon="6.10475">
        <ele>1232.911885</ele>
        <time>2024-09-15T13:09:28.000Z</time>
      </trkpt>
      <trkpt lat="46.39646" lon="6.10472">
        <ele>1233.039369</ele>
        <time>2024-09-15T13:09:29.000Z</time>
      </trkpt>
      <trkpt lat="46.39647" lon="6.1047">
        <ele>1233.160376</ele>
        <time>2024-09-15T13:09:30.000Z</time>
      </trkpt>
      <trkpt lat="46.39648" lon="6.10467">
        <ele>1233.294189</ele>
        <time>2024-09-15T13:09:31.000Z</time>
      </trkpt>
      <trkpt lat="46.39649" lon="6.10463">
        <ele>1233.434197</ele>
        <time>2024-09-15T13:09:32.000Z</time>
      </trkpt>
      <trkpt lat="46.39651" lon="6.1046">
        <ele>1233.573736</ele>
        <time>2024-09-15T13:09:33.000Z</time>
      </trkpt>
      <trkpt lat="46.39652" lon="6.10457">
        <ele>1233.710323</ele>
        <time>2024-09-15T13:09:34.000Z</time>
      </trkpt>
      <trkpt lat="46.39653" lon="6.10455">
        <ele>1233.838018</ele>
        <time>2024-09-15T13:09:35.000Z</time>
      </trkpt>
      <trkpt lat="46.39654" lon="6.10451">
        <ele>1234.003395</ele>
        <time>2024-09-15T13:09:36.000Z</time>
      </trkpt>
      <trkpt lat="46.39656" lon="6.10449">
        <ele>1234.132056</ele>
        <time>2024-09-15T13:09:37.000Z</time>
      </trkpt>
      <trkpt lat="46.39658" lon="6.10446">
        <ele>1234.275266</ele>
        <time>2024-09-15T13:09:38.000Z</time>
      </trkpt>
      <trkpt lat="46.39659" lon="6.10444">
        <ele>1234.392015</ele>
        <time>2024-09-15T13:09:39.000Z</time>
      </trkpt>
      <trkpt lat="46.3966" lon="6.10441">
        <ele>1234.505507</ele>
        <time>2024-09-15T13:09:40.000Z</time>
      </trkpt>
      <trkpt lat="46.39661" lon="6.10439">
        <ele>1234.616645</ele>
        <time>2024-09-15T13:09:41.000Z</time>
      </trkpt>
      <trkpt lat="46.39663" lon="6.10437">
        <ele>1234.726149</ele>
        <time>2024-09-15T13:09:42.000Z</time>
      </trkpt>
      <trkpt lat="46.39664" lon="6.10435">
        <ele>1234.842519</ele>
        <time>2024-09-15T13:09:43.000Z</time>
      </trkpt>
      <trkpt lat="46.39666" lon="6.10433">
        <ele>1234.953709</ele>
        <time>2024-09-15T13:09:44.000Z</time>
      </trkpt>
      <trkpt lat="46.39667" lon="6.10431">
        <ele>1235.050999</ele>
        <time>2024-09-15T13:09:45.000Z</time>
      </trkpt>
      <trkpt lat="46.39668" lon="6.10429">
        <ele>1235.158019</ele>
        <time>2024-09-15T13:09:46.000Z</time>
      </trkpt>
      <trkpt lat="46.39669" lon="6.10427">
        <ele>1235.278838</ele>
        <time>2024-09-15T13:09:47.000Z</time>
      </trkpt>
      <trkpt lat="46.3967" lon="6.10425">
        <ele>1235.399656</ele>
        <time>2024-09-15T13:09:48.000Z</time>
      </trkpt>
      <trkpt lat="46.39672" lon="6.10423">
        <ele>1235.520291</ele>
        <time>2024-09-15T13:09:49.000Z</time>
      </trkpt>
      <trkpt lat="46.39674" lon="6.1042">
        <ele>1235.66365</ele>
        <time>2024-09-15T13:09:50.000Z</time>
      </trkpt>
      <trkpt lat="46.39676" lon="6.10418">
        <ele>1235.792312</ele>
        <time>2024-09-15T13:09:51.000Z</time>
      </trkpt>
      <trkpt lat="46.39677" lon="6.10416">
        <ele>1235.897719</ele>
        <time>2024-09-15T13:09:52.000Z</time>
      </trkpt>
      <trkpt lat="46.39679" lon="6.10414">
        <ele>1236.055796</ele>
        <time>2024-09-15T13:09:53.000Z</time>
      </trkpt>
      <trkpt lat="46.39682" lon="6.10412">
        <ele>1236.216984</ele>
        <time>2024-09-15T13:09:54.000Z</time>
      </trkpt>
      <trkpt lat="46.39684" lon="6.10411">
        <ele>1236.376781</ele>
        <time>2024-09-15T13:09:55.000Z</time>
      </trkpt>
      <trkpt lat="46.39687" lon="6.1041">
        <ele>1236.519382</ele>
        <time>2024-09-15T13:09:56.000Z</time>
      </trkpt>
      <trkpt lat="46.39689" lon="6.10409">
        <ele>1236.624855</ele>
        <time>2024-09-15T13:09:57.000Z</time>
      </trkpt>
      <trkpt lat="46.39691" lon="6.10408">
        <ele>1236.745667</ele>
        <time>2024-09-15T13:09:58.000Z</time>
      </trkpt>
      <trkpt lat="46.39693" lon="6.10407">
        <ele>1236.87429</ele>
        <time>2024-09-15T13:09:59.000Z</time>
      </trkpt>
      <trkpt lat="46.39695" lon="6.10407">
        <ele>1236.995819</ele>
        <time>2024-09-15T13:10:00.000Z</time>
      </trkpt>
      <trkpt lat="46.39697" lon="6.10406">
        <ele>1237.134281</ele>
        <time>2024-09-15T13:10:01.000Z</time>
      </trkpt>
      <trkpt lat="46.397" lon="6.10406">
        <ele>1237.278989</ele>
        <time>2024-09-15T13:10:02.000Z</time>
      </trkpt>
      <trkpt lat="46.39703" lon="6.10405">
        <ele>1237.442768</ele>
        <time>2024-09-15T13:10:03.000Z</time>
      </trkpt>
      <trkpt lat="46.39705" lon="6.10405">
        <ele>1237.60286</ele>
        <time>2024-09-15T13:10:04.000Z</time>
      </trkpt>
      <trkpt lat="46.39708" lon="6.10405">
        <ele>1237.768655</ele>
        <time>2024-09-15T13:10:05.000Z</time>
      </trkpt>
      <trkpt lat="46.39711" lon="6.10405">
        <ele>1237.922892</ele>
        <time>2024-09-15T13:10:06.000Z</time>
      </trkpt>
      <trkpt lat="46.39713" lon="6.10406">
        <ele>1238.054472</ele>
        <time>2024-09-15T13:10:07.000Z</time>
      </trkpt>
      <trkpt lat="46.39715" lon="6.10406">
        <ele>1238.168685</ele>
        <time>2024-09-15T13:10:08.000Z</time>
      </trkpt>
      <trkpt lat="46.39718" lon="6.10406">
        <ele>1238.29438</ele>
        <time>2024-09-15T13:10:09.000Z</time>
      </trkpt>
      <trkpt lat="46.3972" lon="6.10406">
        <ele>1238.431943</ele>
        <time>2024-09-15T13:10:10.000Z</time>
      </trkpt>
      <trkpt lat="46.39722" lon="6.10406">
        <ele>1238.574926</ele>
        <time>2024-09-15T13:10:11.000Z</time>
      </trkpt>
      <trkpt lat="46.39725" lon="6.10406">
        <ele>1238.717691</ele>
        <time>2024-09-15T13:10:12.000Z</time>
      </trkpt>
      <trkpt lat="46.39727" lon="6.10406">
        <ele>1238.843572</ele>
        <time>2024-09-15T13:10:13.000Z</time>
      </trkpt>
      <trkpt lat="46.39729" lon="6.10407">
        <ele>1238.952715</ele>
        <time>2024-09-15T13:10:14.000Z</time>
      </trkpt>
      <trkpt lat="46.39731" lon="6.10407">
        <ele>1239.059139</ele>
        <time>2024-09-15T13:10:15.000Z</time>
      </trkpt>
      <trkpt lat="46.39733" lon="6.10408">
        <ele>1239.175037</ele>
        <time>2024-09-15T13:10:16.000Z</time>
      </trkpt>
      <trkpt lat="46.39735" lon="6.10408">
        <ele>1239.319744</ele>
        <time>2024-09-15T13:10:17.000Z</time>
      </trkpt>
      <trkpt lat="46.39738" lon="6.10409">
        <ele>1239.463377</ele>
        <time>2024-09-15T13:10:18.000Z</time>
      </trkpt>
      <trkpt lat="46.39741" lon="6.10409">
        <ele>1239.617764</ele>
        <time>2024-09-15T13:10:19.000Z</time>
      </trkpt>
      <trkpt lat="46.39743" lon="6.10409">
        <ele>1239.760584</ele>
        <time>2024-09-15T13:10:20.000Z</time>
      </trkpt>
      <trkpt lat="46.39746" lon="6.1041">
        <ele>1239.916023</ele>
        <time>2024-09-15T13:10:21.000Z</time>
      </trkpt>
      <trkpt lat="46.39748" lon="6.10409">
        <ele>1240.0658</ele>
        <time>2024-09-15T13:10:22.000Z</time>
      </trkpt>
      <trkpt lat="46.3975" lon="6.10408">
        <ele>1240.188851</ele>
        <time>2024-09-15T13:10:23.000Z</time>
      </trkpt>
      <trkpt lat="46.39753" lon="6.10407">
        <ele>1240.323079</ele>
        <time>2024-09-15T13:10:24.000Z</time>
      </trkpt>
      <trkpt lat="46.39755" lon="6.10406">
        <ele>1240.464644</ele>
        <time>2024-09-15T13:10:25.000Z</time>
      </trkpt>
      <trkpt lat="46.39758" lon="6.10406">
        <ele>1240.620631</ele>
        <time>2024-09-15T13:10:26.000Z</time>
      </trkpt>
      <trkpt lat="46.3976" lon="6.10405">
        <ele>1240.764748</ele>
        <time>2024-09-15T13:10:27.000Z</time>
      </trkpt>
      <trkpt lat="46.39763" lon="6.10404">
        <ele>1240.900791</ele>
        <time>2024-09-15T13:10:28.000Z</time>
      </trkpt>
      <trkpt lat="46.39765" lon="6.10403">
        <ele>1241.02969</ele>
        <time>2024-09-15T13:10:29.000Z</time>
      </trkpt>
      <trkpt lat="46.39767" lon="6.10402">
        <ele>1241.186745</ele>
        <time>2024-09-15T13:10:30.000Z</time>
      </trkpt>
      <trkpt lat="46.39769" lon="6.104">
        <ele>1241.319135</ele>
        <time>2024-09-15T13:10:31.000Z</time>
      </trkpt>
      <trkpt lat="46.39771" lon="6.10398">
        <ele>1241.421783</ele>
        <time>2024-09-15T13:10:32.000Z</time>
      </trkpt>
      <trkpt lat="46.39772" lon="6.10396">
        <ele>1241.535523</ele>
        <time>2024-09-15T13:10:33.000Z</time>
      </trkpt>
      <trkpt lat="46.39774" lon="6.10395">
        <ele>1241.665965</ele>
        <time>2024-09-15T13:10:34.000Z</time>
      </trkpt>
      <trkpt lat="46.39776" lon="6.10393">
        <ele>1241.801435</ele>
        <time>2024-09-15T13:10:35.000Z</time>
      </trkpt>
      <trkpt lat="46.39779" lon="6.10391">
        <ele>1241.964488</ele>
        <time>2024-09-15T13:10:36.000Z</time>
      </trkpt>
      <trkpt lat="46.39781" lon="6.10389">
        <ele>1242.123885</ele>
        <time>2024-09-15T13:10:37.000Z</time>
      </trkpt>
      <trkpt lat="46.39784" lon="6.10387">
        <ele>1242.290372</ele>
        <time>2024-09-15T13:10:38.000Z</time>
      </trkpt>
      <trkpt lat="46.39786" lon="6.10385">
        <ele>1242.445255</ele>
        <time>2024-09-15T13:10:39.000Z</time>
      </trkpt>
      <trkpt lat="46.39788" lon="6.10382">
        <ele>1242.600138</ele>
        <time>2024-09-15T13:10:40.000Z</time>
      </trkpt>
      <trkpt lat="46.3979" lon="6.1038">
        <ele>1242.746653</ele>
        <time>2024-09-15T13:10:41.000Z</time>
      </trkpt>
      <trkpt lat="46.39792" lon="6.10378">
        <ele>1242.887665</ele>
        <time>2024-09-15T13:10:42.000Z</time>
      </trkpt>
      <trkpt lat="46.39794" lon="6.10376">
        <ele>1243.013138</ele>
        <time>2024-09-15T13:10:43.000Z</time>
      </trkpt>
      <trkpt lat="46.39796" lon="6.10374">
        <ele>1243.145527</ele>
        <time>2024-09-15T13:10:44.000Z</time>
      </trkpt>
      <trkpt lat="46.39798" lon="6.10373">
        <ele>1243.30293</ele>
        <time>2024-09-15T13:10:45.000Z</time>
      </trkpt>
      <trkpt lat="46.398" lon="6.1037">
        <ele>1243.468028</ele>
        <time>2024-09-15T13:10:46.000Z</time>
      </trkpt>
      <trkpt lat="46.39802" lon="6.10368">
        <ele>1243.598684</ele>
        <time>2024-09-15T13:10:47.000Z</time>
      </trkpt>
      <trkpt lat="46.39803" lon="6.10367">
        <ele>1243.690602</ele>
        <time>2024-09-15T13:10:48.000Z</time>
      </trkpt>
      <trkpt lat="46.39805" lon="6.10365">
        <ele>1243.836029</ele>
        <time>2024-09-15T13:10:49.000Z</time>
      </trkpt>
      <trkpt lat="46.39807" lon="6.10362">
        <ele>1244.002963</ele>
        <time>2024-09-15T13:10:50.000Z</time>
      </trkpt>
      <trkpt lat="46.39809" lon="6.1036">
        <ele>1244.155775</ele>
        <time>2024-09-15T13:10:51.000Z</time>
      </trkpt>
      <trkpt lat="46.39811" lon="6.10358">
        <ele>1244.313839</ele>
        <time>2024-09-15T13:10:52.000Z</time>
      </trkpt>
      <trkpt lat="46.39813" lon="6.10355">
        <ele>1244.469225</ele>
        <time>2024-09-15T13:10:53.000Z</time>
      </trkpt>
      <trkpt lat="46.39815" lon="6.10352">
        <ele>1244.632228</ele>
        <time>2024-09-15T13:10:54.000Z</time>
      </trkpt>
      <trkpt lat="46.39816" lon="6.1035">
        <ele>1244.73962</ele>
        <time>2024-09-15T13:10:55.000Z</time>
      </trkpt>
      <trkpt lat="46.39817" lon="6.10349">
        <ele>1244.844719</ele>
        <time>2024-09-15T13:10:56.000Z</time>
      </trkpt>
      <trkpt lat="46.39818" lon="6.10347">
        <ele>1244.956009</ele>
        <time>2024-09-15T13:10:57.000Z</time>
      </trkpt>
      <trkpt lat="46.3982" lon="6.10345">
        <ele>1245.07725</ele>
        <time>2024-09-15T13:10:58.000Z</time>
      </trkpt>
      <trkpt lat="46.39821" lon="6.10343">
        <ele>1245.204172</ele>
        <time>2024-09-15T13:10:59.000Z</time>
      </trkpt>
      <trkpt lat="46.39823" lon="6.1034">
        <ele>1245.343284</ele>
        <time>2024-09-15T13:11:00.000Z</time>
      </trkpt>
      <trkpt lat="46.39824" lon="6.10338">
        <ele>1245.453897</ele>
        <time>2024-09-15T13:11:01.000Z</time>
      </trkpt>
      <trkpt lat="46.39825" lon="6.10336">
        <ele>1245.547351</ele>
        <time>2024-09-15T13:11:02.000Z</time>
      </trkpt>
      <trkpt lat="46.39826" lon="6.10335">
        <ele>1245.633733</ele>
        <time>2024-09-15T13:11:03.000Z</time>
      </trkpt>
      <trkpt lat="46.39828" lon="6.10333">
        <ele>1245.759886</ele>
        <time>2024-09-15T13:11:04.000Z</time>
      </trkpt>
      <trkpt lat="46.3983" lon="6.10332">
        <ele>1245.924582</ele>
        <time>2024-09-15T13:11:05.000Z</time>
      </trkpt>
      <trkpt lat="46.39833" lon="6.1033">
        <ele>1246.111025</ele>
        <time>2024-09-15T13:11:06.000Z</time>
      </trkpt>
      <trkpt lat="46.39835" lon="6.10328">
        <ele>1246.290185</ele>
        <time>2024-09-15T13:11:07.000Z</time>
      </trkpt>
      <trkpt lat="46.39838" lon="6.10327">
        <ele>1246.467737</ele>
        <time>2024-09-15T13:11:08.000Z</time>
      </trkpt>
      <trkpt lat="46.39841" lon="6.10325">
        <ele>1246.635821</ele>
        <time>2024-09-15T13:11:09.000Z</time>
      </trkpt>
      <trkpt lat="46.39843" lon="6.10323">
        <ele>1246.809627</ele>
        <time>2024-09-15T13:11:10.000Z</time>
      </trkpt>
      <trkpt lat="46.39846" lon="6.10322">
        <ele>1246.96993</ele>
        <time>2024-09-15T13:11:11.000Z</time>
      </trkpt>
      <trkpt lat="46.39849" lon="6.10321">
        <ele>1247.158296</ele>
        <time>2024-09-15T13:11:12.000Z</time>
      </trkpt>
      <trkpt lat="46.39852" lon="6.10319">
        <ele>1247.347174</ele>
        <time>2024-09-15T13:11:13.000Z</time>
      </trkpt>
      <trkpt lat="46.39854" lon="6.10317">
        <ele>1247.523046</ele>
        <time>2024-09-15T13:11:14.000Z</time>
      </trkpt>
      <trkpt lat="46.39857" lon="6.10314">
        <ele>1247.715302</ele>
        <time>2024-09-15T13:11:15.000Z</time>
      </trkpt>
      <trkpt lat="46.39859" lon="6.10312">
        <ele>1247.905056</ele>
        <time>2024-09-15T13:11:16.000Z</time>
      </trkpt>
      <trkpt lat="46.39862" lon="6.1031">
        <ele>1248.06765</ele>
        <time>2024-09-15T13:11:17.000Z</time>
      </trkpt>
      <trkpt lat="46.39864" lon="6.10308">
        <ele>1248.219399</ele>
        <time>2024-09-15T13:11:18.000Z</time>
      </trkpt>
      <trkpt lat="46.39866" lon="6.10306">
        <ele>1248.399282</ele>
        <time>2024-09-15T13:11:19.000Z</time>
      </trkpt>
      <trkpt lat="46.39869" lon="6.10303">
        <ele>1248.593952</ele>
        <time>2024-09-15T13:11:20.000Z</time>
      </trkpt>
      <trkpt lat="46.3987" lon="6.103">
        <ele>1248.743396</ele>
        <time>2024-09-15T13:11:21.000Z</time>
      </trkpt>
      <trkpt lat="46.39873" lon="6.103">
        <ele>1248.907966</ele>
        <time>2024-09-15T13:11:22.000Z</time>
      </trkpt>
      <trkpt lat="46.39875" lon="6.10298">
        <ele>1249.021319</ele>
        <time>2024-09-15T13:11:23.000Z</time>
      </trkpt>
      <trkpt lat="46.39876" lon="6.10296">
        <ele>1249.173971</ele>
        <time>2024-09-15T13:11:24.000Z</time>
      </trkpt>
      <trkpt lat="46.39878" lon="6.10293">
        <ele>1249.344093</ele>
        <time>2024-09-15T13:11:25.000Z</time>
      </trkpt>
      <trkpt lat="46.39878" lon="6.10289">
        <ele>1249.476489</ele>
        <time>2024-09-15T13:11:26.000Z</time>
      </trkpt>
      <trkpt lat="46.3988" lon="6.10287">
        <ele>1249.62169</ele>
        <time>2024-09-15T13:11:27.000Z</time>
      </trkpt>
      <trkpt lat="46.39881" lon="6.10284">
        <ele>1249.770296</ele>
        <time>2024-09-15T13:11:28.000Z</time>
      </trkpt>
      <trkpt lat="46.39882" lon="6.10281">
        <ele>1249.91293</ele>
        <time>2024-09-15T13:11:29.000Z</time>
      </trkpt>
      <trkpt lat="46.39883" lon="6.10278">
        <ele>1250.059284</ele>
        <time>2024-09-15T13:11:30.000Z</time>
      </trkpt>
      <trkpt lat="46.39884" lon="6.10274">
        <ele>1250.204362</ele>
        <time>2024-09-15T13:11:31.000Z</time>
      </trkpt>
      <trkpt lat="46.39886" lon="6.10271">
        <ele>1250.35654</ele>
        <time>2024-09-15T13:11:32.000Z</time>
      </trkpt>
      <trkpt lat="46.39887" lon="6.10269">
        <ele>1250.487876</ele>
        <time>2024-09-15T13:11:33.000Z</time>
      </trkpt>
      <trkpt lat="46.39888" lon="6.10267">
        <ele>1250.606342</ele>
        <time>2024-09-15T13:11:34.000Z</time>
      </trkpt>
      <trkpt lat="46.3989" lon="6.10264">
        <ele>1250.745452</ele>
        <time>2024-09-15T13:11:35.000Z</time>
      </trkpt>
      <trkpt lat="46.39892" lon="6.10262">
        <ele>1250.906189</ele>
        <time>2024-09-15T13:11:36.000Z</time>
      </trkpt>
      <trkpt lat="46.39893" lon="6.10259">
        <ele>1251.057913</ele>
        <time>2024-09-15T13:11:37.000Z</time>
      </trkpt>
      <trkpt lat="46.39895" lon="6.10256">
        <ele>1251.213472</ele>
        <time>2024-09-15T13:11:38.000Z</time>
      </trkpt>
      <trkpt lat="46.39896" lon="6.10253">
        <ele>1251.355171</ele>
        <time>2024-09-15T13:11:39.000Z</time>
      </trkpt>
      <trkpt lat="46.39897" lon="6.10251">
        <ele>1251.486612</ele>
        <time>2024-09-15T13:11:40.000Z</time>
      </trkpt>
      <trkpt lat="46.39899" lon="6.10248">
        <ele>1251.625553</ele>
        <time>2024-09-15T13:11:41.000Z</time>
      </trkpt>
      <trkpt lat="46.399" lon="6.10245">
        <ele>1251.77687</ele>
        <time>2024-09-15T13:11:42.000Z</time>
      </trkpt>
      <trkpt lat="46.39901" lon="6.10242">
        <ele>1251.915107</ele>
        <time>2024-09-15T13:11:43.000Z</time>
      </trkpt>
      <trkpt lat="46.39902" lon="6.10239">
        <ele>1252.071014</ele>
        <time>2024-09-15T13:11:44.000Z</time>
      </trkpt>
      <trkpt lat="46.39904" lon="6.10236">
        <ele>1252.230556</ele>
        <time>2024-09-15T13:11:45.000Z</time>
      </trkpt>
      <trkpt lat="46.39905" lon="6.10233">
        <ele>1252.375633</ele>
        <time>2024-09-15T13:11:46.000Z</time>
      </trkpt>
      <trkpt lat="46.39906" lon="6.1023">
        <ele>1252.514574</ele>
        <time>2024-09-15T13:11:47.000Z</time>
      </trkpt>
      <trkpt lat="46.39906" lon="6.10226">
        <ele>1252.663529</ele>
        <time>2024-09-15T13:11:48.000Z</time>
      </trkpt>
      <trkpt lat="46.39907" lon="6.10224">
        <ele>1252.781918</ele>
        <time>2024-09-15T13:11:49.000Z</time>
      </trkpt>
      <trkpt lat="46.39908" lon="6.10222">
        <ele>1252.89253</ele>
        <time>2024-09-15T13:11:50.000Z</time>
      </trkpt>
      <trkpt lat="46.3991" lon="6.10219">
        <ele>1253.048436</ele>
        <time>2024-09-15T13:11:51.000Z</time>
      </trkpt>
      <trkpt lat="46.39912" lon="6.10216">
        <ele>1253.215369</ele>
        <time>2024-09-15T13:11:52.000Z</time>
      </trkpt>
      <trkpt lat="46.39913" lon="6.10212">
        <ele>1253.381296</ele>
        <time>2024-09-15T13:11:53.000Z</time>
      </trkpt>
      <trkpt lat="46.39915" lon="6.10209">
        <ele>1253.55064</ele>
        <time>2024-09-15T13:11:54.000Z</time>
      </trkpt>
      <trkpt lat="46.39916" lon="6.10206">
        <ele>1253.696189</ele>
        <time>2024-09-15T13:11:55.000Z</time>
      </trkpt>
      <trkpt lat="46.39918" lon="6.10204">
        <ele>1253.865417</ele>
        <time>2024-09-15T13:11:56.000Z</time>
      </trkpt>
      <trkpt lat="46.39921" lon="6.102">
        <ele>1254.050854</ele>
        <time>2024-09-15T13:11:57.000Z</time>
      </trkpt>
      <trkpt lat="46.39922" lon="6.10198">
        <ele>1254.199696</ele>
        <time>2024-09-15T13:11:58.000Z</time>
      </trkpt>
      <trkpt lat="46.39924" lon="6.10195">
        <ele>1254.273791</ele>
        <time>2024-09-15T13:11:59.000Z</time>
      </trkpt>
      <trkpt lat="46.39925" lon="6.10192">
        <ele>1254.348835</ele>
        <time>2024-09-15T13:12:00.000Z</time>
      </trkpt>
      <trkpt lat="46.39926" lon="6.10189">
        <ele>1254.408975</ele>
        <time>2024-09-15T13:12:01.000Z</time>
      </trkpt>
      <trkpt lat="46.39928" lon="6.10187">
        <ele>1254.472823</ele>
        <time>2024-09-15T13:12:02.000Z</time>
      </trkpt>
      <trkpt lat="46.39931" lon="6.10184">
        <ele>1254.565486</ele>
        <time>2024-09-15T13:12:03.000Z</time>
      </trkpt>
      <trkpt lat="46.39932" lon="6.10183">
        <ele>1254.624611</ele>
        <time>2024-09-15T13:12:04.000Z</time>
      </trkpt>
      <trkpt lat="46.39934" lon="6.1018">
        <ele>1254.695372</ele>
        <time>2024-09-15T13:12:05.000Z</time>
      </trkpt>
      <trkpt lat="46.39936" lon="6.10178">
        <ele>1254.75922</ele>
        <time>2024-09-15T13:12:06.000Z</time>
      </trkpt>
      <trkpt lat="46.39938" lon="6.10176">
        <ele>1254.823632</ele>
        <time>2024-09-15T13:12:07.000Z</time>
      </trkpt>
      <trkpt lat="46.39939" lon="6.10174">
        <ele>1254.882757</ele>
        <time>2024-09-15T13:12:08.000Z</time>
      </trkpt>
      <trkpt lat="46.39941" lon="6.10172">
        <ele>1254.95059</ele>
        <time>2024-09-15T13:12:09.000Z</time>
      </trkpt>
      <trkpt lat="46.39943" lon="6.10169">
        <ele>1255.020104</ele>
        <time>2024-09-15T13:12:10.000Z</time>
      </trkpt>
      <trkpt lat="46.39944" lon="6.10168">
        <ele>1255.078</ele>
        <time>2024-09-15T13:12:11.000Z</time>
      </trkpt>
      <trkpt lat="46.39946" lon="6.10166">
        <ele>1255.140512</ele>
        <time>2024-09-15T13:12:12.000Z</time>
      </trkpt>
      <trkpt lat="46.39948" lon="6.10164">
        <ele>1255.194941</ele>
        <time>2024-09-15T13:12:13.000Z</time>
      </trkpt>
      <trkpt lat="46.39949" lon="6.10162">
        <ele>1255.255302</ele>
        <time>2024-09-15T13:12:14.000Z</time>
      </trkpt>
      <trkpt lat="46.39952" lon="6.1016">
        <ele>1255.334441</ele>
        <time>2024-09-15T13:12:15.000Z</time>
      </trkpt>
      <trkpt lat="46.39954" lon="6.10159">
        <ele>1255.403202</ele>
        <time>2024-09-15T13:12:16.000Z</time>
      </trkpt>
      <trkpt lat="46.39956" lon="6.10157">
        <ele>1255.482145</ele>
        <time>2024-09-15T13:12:17.000Z</time>
      </trkpt>
      <trkpt lat="46.39958" lon="6.10156">
        <ele>1255.543995</ele>
        <time>2024-09-15T13:12:18.000Z</time>
      </trkpt>
      <trkpt lat="46.3996" lon="6.10154">
        <ele>1255.600937</ele>
        <time>2024-09-15T13:12:19.000Z</time>
      </trkpt>
      <trkpt lat="46.39961" lon="6.10151">
        <ele>1255.66335</ele>
        <time>2024-09-15T13:12:20.000Z</time>
      </trkpt>
      <trkpt lat="46.39963" lon="6.10149">
        <ele>1255.723521</ele>
        <time>2024-09-15T13:12:21.000Z</time>
      </trkpt>
      <trkpt lat="46.39964" lon="6.10147">
        <ele>1255.780642</ele>
        <time>2024-09-15T13:12:22.000Z</time>
      </trkpt>
      <trkpt lat="46.39965" lon="6.10145">
        <ele>1255.832031</ele>
        <time>2024-09-15T13:12:23.000Z</time>
      </trkpt>
      <trkpt lat="46.39966" lon="6.10143">
        <ele>1255.872608</ele>
        <time>2024-09-15T13:12:24.000Z</time>
      </trkpt>
      <trkpt lat="46.39966" lon="6.10142">
        <ele>1255.904668</ele>
        <time>2024-09-15T13:12:25.000Z</time>
      </trkpt>
      <trkpt lat="46.39967" lon="6.1014">
        <ele>1255.94767</ele>
        <time>2024-09-15T13:12:26.000Z</time>
      </trkpt>
      <trkpt lat="46.39968" lon="6.10137">
        <ele>1256.004533</ele>
        <time>2024-09-15T13:12:27.000Z</time>
      </trkpt>
      <trkpt lat="46.39969" lon="6.10134">
        <ele>1256.075028</ele>
        <time>2024-09-15T13:12:28.000Z</time>
      </trkpt>
      <trkpt lat="46.39968" lon="6.10124">
        <ele>1256.270351</ele>
        <time>2024-09-15T13:12:31.000Z</time>
      </trkpt>
      <trkpt lat="46.39968" lon="6.10122">
        <ele>1256.327377</ele>
        <time>2024-09-15T13:12:32.000Z</time>
      </trkpt>
      <trkpt lat="46.39967" lon="6.10119">
        <ele>1256.384403</ele>
        <time>2024-09-15T13:12:33.000Z</time>
      </trkpt>
      <trkpt lat="46.39967" lon="6.10116">
        <ele>1256.441651</ele>
        <time>2024-09-15T13:12:34.000Z</time>
      </trkpt>
      <trkpt lat="46.39967" lon="6.10109">
        <ele>1256.577723</ele>
        <time>2024-09-15T13:12:36.000Z</time>
      </trkpt>
      <trkpt lat="46.39968" lon="6.101">
        <ele>1256.755536</ele>
        <time>2024-09-15T13:12:39.000Z</time>
      </trkpt>
      <trkpt lat="46.39969" lon="6.10087">
        <ele>1257.020799</ele>
        <time>2024-09-15T13:12:43.000Z</time>
      </trkpt>
      <trkpt lat="46.3997" lon="6.10083">
        <ele>1257.094446</ele>
        <time>2024-09-15T13:12:44.000Z</time>
      </trkpt>
      <trkpt lat="46.39971" lon="6.1008">
        <ele>1257.161126</ele>
        <time>2024-09-15T13:12:45.000Z</time>
      </trkpt>
      <trkpt lat="46.39972" lon="6.10077">
        <ele>1257.223569</ele>
        <time>2024-09-15T13:12:46.000Z</time>
      </trkpt>
      <trkpt lat="46.39976" lon="6.10066">
        <ele>1257.484589</ele>
        <time>2024-09-15T13:12:49.000Z</time>
      </trkpt>
      <trkpt lat="46.39979" lon="6.10054">
        <ele>1257.734396</ele>
        <time>2024-09-15T13:12:52.000Z</time>
      </trkpt>
      <trkpt lat="46.39983" lon="6.1004">
        <ele>1258.025179</ele>
        <time>2024-09-15T13:12:55.000Z</time>
      </trkpt>
      <trkpt lat="46.4" lon="6.10009">
        <ele>1258.815644</ele>
        <time>2024-09-15T13:13:03.000Z</time>
      </trkpt>
      <trkpt lat="46.40003" lon="6.10006">
        <ele>1258.904959</ele>
        <time>2024-09-15T13:13:04.000Z</time>
      </trkpt>
      <trkpt lat="46.40014" lon="6.09997">
        <ele>1259.268214</ele>
        <time>2024-09-15T13:13:08.000Z</time>
      </trkpt>
      <trkpt lat="46.40024" lon="6.09991">
        <ele>1259.380494</ele>
        <time>2024-09-15T13:13:11.000Z</time>
      </trkpt>
      <trkpt lat="46.4004" lon="6.09984">
        <ele>1259.452671</ele>
        <time>2024-09-15T13:13:15.000Z</time>
      </trkpt>
      <trkpt lat="46.40044" lon="6.09983">
        <ele>1259.469794</ele>
        <time>2024-09-15T13:13:16.000Z</time>
      </trkpt>
      <trkpt lat="46.40051" lon="6.09984">
        <ele>1259.500295</ele>
        <time>2024-09-15T13:13:18.000Z</time>
      </trkpt>
      <trkpt lat="46.40054" lon="6.09984">
        <ele>1259.514235</ele>
        <time>2024-09-15T13:13:19.000Z</time>
      </trkpt>
      <trkpt lat="46.40058" lon="6.09984">
        <ele>1259.529887</ele>
        <time>2024-09-15T13:13:20.000Z</time>
      </trkpt>
      <trkpt lat="46.40061" lon="6.09984">
        <ele>1259.545537</ele>
        <time>2024-09-15T13:13:21.000Z</time>
      </trkpt>
      <trkpt lat="46.40064" lon="6.09984">
        <ele>1259.5582</ele>
        <time>2024-09-15T13:13:22.000Z</time>
      </trkpt>
      <trkpt lat="46.40072" lon="6.09985">
        <ele>1259.592589</ele>
        <time>2024-09-15T13:13:24.000Z</time>
      </trkpt>
      <trkpt lat="46.40083" lon="6.09989">
        <ele>1259.641355</ele>
        <time>2024-09-15T13:13:27.000Z</time>
      </trkpt>
      <trkpt lat="46.40086" lon="6.09991">
        <ele>1259.658321</ele>
        <time>2024-09-15T13:13:28.000Z</time>
      </trkpt>
      <trkpt lat="46.40089" lon="6.09994">
        <ele>1259.673818</ele>
        <time>2024-09-15T13:13:29.000Z</time>
      </trkpt>
      <trkpt lat="46.40092" lon="6.09998">
        <ele>1259.689316</ele>
        <time>2024-09-15T13:13:30.000Z</time>
      </trkpt>
      <trkpt lat="46.40095" lon="6.10001">
        <ele>1259.705465</ele>
        <time>2024-09-15T13:13:31.000Z</time>
      </trkpt>
      <trkpt lat="46.40097" lon="6.10004">
        <ele>1259.719321</ele>
        <time>2024-09-15T13:13:32.000Z</time>
      </trkpt>
      <trkpt lat="46.40099" lon="6.10008">
        <ele>1259.733906</ele>
        <time>2024-09-15T13:13:33.000Z</time>
      </trkpt>
      <trkpt lat="46.40107" lon="6.10021">
        <ele>1259.787039</ele>
        <time>2024-09-15T13:13:36.000Z</time>
      </trkpt>
      <trkpt lat="46.40112" lon="6.10027">
        <ele>1259.811766</ele>
        <time>2024-09-15T13:13:37.000Z</time>
      </trkpt>
      <trkpt lat="46.4012" lon="6.10033">
        <ele>1259.850782</ele>
        <time>2024-09-15T13:13:39.000Z</time>
      </trkpt>
      <trkpt lat="46.40125" lon="6.10033">
        <ele>1259.872253</ele>
        <time>2024-09-15T13:13:40.000Z</time>
      </trkpt>
      <trkpt lat="46.40129" lon="6.10033">
        <ele>1259.892252</ele>
        <time>2024-09-15T13:13:41.000Z</time>
      </trkpt>
      <trkpt lat="46.40134" lon="6.10033">
        <ele>1259.911529</ele>
        <time>2024-09-15T13:13:42.000Z</time>
      </trkpt>
      <trkpt lat="46.40138" lon="6.10032">
        <ele>1259.930889</ele>
        <time>2024-09-15T13:13:43.000Z</time>
      </trkpt>
      <trkpt lat="46.40142" lon="6.1003">
        <ele>1259.950471</ele>
        <time>2024-09-15T13:13:44.000Z</time>
      </trkpt>
      <trkpt lat="46.40147" lon="6.10028">
        <ele>1259.969688</ele>
        <time>2024-09-15T13:13:45.000Z</time>
      </trkpt>
      <trkpt lat="46.40151" lon="6.10025">
        <ele>1259.990457</ele>
        <time>2024-09-15T13:13:46.000Z</time>
      </trkpt>
      <trkpt lat="46.40169" lon="6.10009">
        <ele>1260.081653</ele>
        <time>2024-09-15T13:13:51.000Z</time>
      </trkpt>
      <trkpt lat="46.40172" lon="6.10006">
        <ele>1260.098371</ele>
        <time>2024-09-15T13:13:52.000Z</time>
      </trkpt>
      <trkpt lat="46.40175" lon="6.10002">
        <ele>1260.115635</ele>
        <time>2024-09-15T13:13:53.000Z</time>
      </trkpt>
      <trkpt lat="46.40178" lon="6.09999">
        <ele>1260.150953</ele>
        <time>2024-09-15T13:13:54.000Z</time>
      </trkpt>
      <trkpt lat="46.40181" lon="6.09995">
        <ele>1260.207179</ele>
        <time>2024-09-15T13:13:55.000Z</time>
      </trkpt>
      <trkpt lat="46.40183" lon="6.09991">
        <ele>1260.263404</ele>
        <time>2024-09-15T13:13:56.000Z</time>
      </trkpt>
      <trkpt lat="46.40193" lon="6.09978">
        <ele>1260.473524</ele>
        <time>2024-09-15T13:13:59.000Z</time>
      </trkpt>
      <trkpt lat="46.40195" lon="6.09973">
        <ele>1260.537861</ele>
        <time>2024-09-15T13:14:00.000Z</time>
      </trkpt>
      <trkpt lat="46.40199" lon="6.09963">
        <ele>1260.664025</ele>
        <time>2024-09-15T13:14:02.000Z</time>
      </trkpt>
      <trkpt lat="46.40205" lon="6.09946">
        <ele>1260.865307</ele>
        <time>2024-09-15T13:14:05.000Z</time>
      </trkpt>
      <trkpt lat="46.40205" lon="6.09941">
        <ele>1260.921836</ele>
        <time>2024-09-15T13:14:06.000Z</time>
      </trkpt>
      <trkpt lat="46.40205" lon="6.09936">
        <ele>1260.981721</ele>
        <time>2024-09-15T13:14:07.000Z</time>
      </trkpt>
      <trkpt lat="46.40206" lon="6.0993">
        <ele>1261.049526</ele>
        <time>2024-09-15T13:14:08.000Z</time>
      </trkpt>
      <trkpt lat="46.40207" lon="6.09924">
        <ele>1261.118638</ele>
        <time>2024-09-15T13:14:09.000Z</time>
      </trkpt>
      <trkpt lat="46.40207" lon="6.09918">
        <ele>1261.181671</ele>
        <time>2024-09-15T13:14:10.000Z</time>
      </trkpt>
      <trkpt lat="46.40207" lon="6.09912">
        <ele>1261.246967</ele>
        <time>2024-09-15T13:14:11.000Z</time>
      </trkpt>
      <trkpt lat="46.40205" lon="6.099">
        <ele>1261.378143</ele>
        <time>2024-09-15T13:14:13.000Z</time>
      </trkpt>
      <trkpt lat="46.40204" lon="6.09894">
        <ele>1261.444482</ele>
        <time>2024-09-15T13:14:14.000Z</time>
      </trkpt>
      <trkpt lat="46.40201" lon="6.09876">
        <ele>1261.643374</ele>
        <time>2024-09-15T13:14:17.000Z</time>
      </trkpt>
      <trkpt lat="46.40201" lon="6.0987">
        <ele>1261.712841</ele>
        <time>2024-09-15T13:14:18.000Z</time>
      </trkpt>
      <trkpt lat="46.40199" lon="6.09864">
        <ele>1261.781293</ele>
        <time>2024-09-15T13:14:19.000Z</time>
      </trkpt>
      <trkpt lat="46.40194" lon="6.09855">
        <ele>1261.907907</ele>
        <time>2024-09-15T13:14:21.000Z</time>
      </trkpt>
      <trkpt lat="46.4019" lon="6.09853">
        <ele>1261.97121</ele>
        <time>2024-09-15T13:14:22.000Z</time>
      </trkpt>
      <trkpt lat="46.40186" lon="6.09851">
        <ele>1262.037509</ele>
        <time>2024-09-15T13:14:23.000Z</time>
      </trkpt>
      <trkpt lat="46.40182" lon="6.09851">
        <ele>1262.102043</ele>
        <time>2024-09-15T13:14:24.000Z</time>
      </trkpt>
      <trkpt lat="46.40178" lon="6.09852">
        <ele>1262.160775</ele>
        <time>2024-09-15T13:14:25.000Z</time>
      </trkpt>
      <trkpt lat="46.40175" lon="6.09853">
        <ele>1262.214325</ele>
        <time>2024-09-15T13:14:26.000Z</time>
      </trkpt>
      <trkpt lat="46.40172" lon="6.09855">
        <ele>1262.270589</ele>
        <time>2024-09-15T13:14:27.000Z</time>
      </trkpt>
      <trkpt lat="46.40168" lon="6.09857">
        <ele>1262.326084</ele>
        <time>2024-09-15T13:14:28.000Z</time>
      </trkpt>
      <trkpt lat="46.40165" lon="6.09858">
        <ele>1262.374922</ele>
        <time>2024-09-15T13:14:29.000Z</time>
      </trkpt>
      <trkpt lat="46.40163" lon="6.0986">
        <ele>1262.416372</ele>
        <time>2024-09-15T13:14:30.000Z</time>
      </trkpt>
      <trkpt lat="46.40161" lon="6.0986">
        <ele>1262.446979</ele>
        <time>2024-09-15T13:14:31.000Z</time>
      </trkpt>
      <trkpt lat="46.40159" lon="6.09861">
        <ele>1262.485003</ele>
        <time>2024-09-15T13:14:32.000Z</time>
      </trkpt>
      <trkpt lat="46.40156" lon="6.09861">
        <ele>1262.530765</ele>
        <time>2024-09-15T13:14:33.000Z</time>
      </trkpt>
      <trkpt lat="46.40148" lon="6.09861">
        <ele>1262.645688</ele>
        <time>2024-09-15T13:14:36.000Z</time>
      </trkpt>
      <trkpt lat="46.40146" lon="6.0986">
        <ele>1262.680923</ele>
        <time>2024-09-15T13:14:37.000Z</time>
      </trkpt>
      <trkpt lat="46.40144" lon="6.09859">
        <ele>1262.720228</ele>
        <time>2024-09-15T13:14:38.000Z</time>
      </trkpt>
      <trkpt lat="46.40141" lon="6.09858">
        <ele>1262.761851</ele>
        <time>2024-09-15T13:14:39.000Z</time>
      </trkpt>
      <trkpt lat="46.40139" lon="6.09858">
        <ele>1262.803005</ele>
        <time>2024-09-15T13:14:40.000Z</time>
      </trkpt>
      <trkpt lat="46.40136" lon="6.09857">
        <ele>1262.845848</ele>
        <time>2024-09-15T13:14:41.000Z</time>
      </trkpt>
      <trkpt lat="46.40131" lon="6.09855">
        <ele>1262.923925</ele>
        <time>2024-09-15T13:14:43.000Z</time>
      </trkpt>
      <trkpt lat="46.40129" lon="6.09855">
        <ele>1262.963554</ele>
        <time>2024-09-15T13:14:44.000Z</time>
      </trkpt>
      <trkpt lat="46.40125" lon="6.09854">
        <ele>1263.231068</ele>
        <time>2024-09-15T13:14:46.000Z</time>
      </trkpt>
      <trkpt lat="46.40122" lon="6.09853">
        <ele>1263.387127</ele>
        <time>2024-09-15T13:14:47.000Z</time>
      </trkpt>
      <trkpt lat="46.4012" lon="6.09851">
        <ele>1263.521102</ele>
        <time>2024-09-15T13:14:48.000Z</time>
      </trkpt>
      <trkpt lat="46.40118" lon="6.0985">
        <ele>1263.664416</ele>
        <time>2024-09-15T13:14:49.000Z</time>
      </trkpt>
      <trkpt lat="46.40116" lon="6.09848">
        <ele>1263.807523</ele>
        <time>2024-09-15T13:14:50.000Z</time>
      </trkpt>
      <trkpt lat="46.40114" lon="6.09846">
        <ele>1263.953585</ele>
        <time>2024-09-15T13:14:51.000Z</time>
      </trkpt>
      <trkpt lat="46.40113" lon="6.09844">
        <ele>1264.088306</ele>
        <time>2024-09-15T13:14:52.000Z</time>
      </trkpt>
      <trkpt lat="46.40111" lon="6.09841">
        <ele>1264.223055</ele>
        <time>2024-09-15T13:14:53.000Z</time>
      </trkpt>
      <trkpt lat="46.40109" lon="6.09839">
        <ele>1264.377043</ele>
        <time>2024-09-15T13:14:54.000Z</time>
      </trkpt>
      <trkpt lat="46.40107" lon="6.09837">
        <ele>1264.524205</ele>
        <time>2024-09-15T13:14:55.000Z</time>
      </trkpt>
      <trkpt lat="46.40105" lon="6.09835">
        <ele>1264.661004</ele>
        <time>2024-09-15T13:14:56.000Z</time>
      </trkpt>
      <trkpt lat="46.40103" lon="6.09833">
        <ele>1264.801263</ele>
        <time>2024-09-15T13:14:57.000Z</time>
      </trkpt>
      <trkpt lat="46.40102" lon="6.09832">
        <ele>1264.931769</ele>
        <time>2024-09-15T13:14:58.000Z</time>
      </trkpt>
      <trkpt lat="46.401" lon="6.0983">
        <ele>1265.069565</ele>
        <time>2024-09-15T13:14:59.000Z</time>
      </trkpt>
      <trkpt lat="46.40097" lon="6.09828">
        <ele>1265.216221</ele>
        <time>2024-09-15T13:15:00.000Z</time>
      </trkpt>
      <trkpt lat="46.40095" lon="6.09828">
        <ele>1265.371615</ele>
        <time>2024-09-15T13:15:01.000Z</time>
      </trkpt>
      <trkpt lat="46.40093" lon="6.09827">
        <ele>1265.486477</ele>
        <time>2024-09-15T13:15:02.000Z</time>
      </trkpt>
      <trkpt lat="46.40091" lon="6.09826">
        <ele>1265.609894</ele>
        <time>2024-09-15T13:15:03.000Z</time>
      </trkpt>
      <trkpt lat="46.40089" lon="6.09825">
        <ele>1265.749639</ele>
        <time>2024-09-15T13:15:04.000Z</time>
      </trkpt>
      <trkpt lat="46.40087" lon="6.09825">
        <ele>1265.876598</ele>
        <time>2024-09-15T13:15:05.000Z</time>
      </trkpt>
      <trkpt lat="46.40085" lon="6.09825">
        <ele>1265.967944</ele>
        <time>2024-09-15T13:15:06.000Z</time>
      </trkpt>
      <trkpt lat="46.40084" lon="6.09824">
        <ele>1266.040812</ele>
        <time>2024-09-15T13:15:07.000Z</time>
      </trkpt>
      <trkpt lat="46.40082" lon="6.09824">
        <ele>1266.149718</ele>
        <time>2024-09-15T13:15:08.000Z</time>
      </trkpt>
      <trkpt lat="46.4008" lon="6.09824">
        <ele>1266.26621</ele>
        <time>2024-09-15T13:15:09.000Z</time>
      </trkpt>
      <trkpt lat="46.40079" lon="6.09823">
        <ele>1266.376882</ele>
        <time>2024-09-15T13:15:10.000Z</time>
      </trkpt>
      <trkpt lat="46.40077" lon="6.09822">
        <ele>1266.487443</ele>
        <time>2024-09-15T13:15:11.000Z</time>
      </trkpt>
      <trkpt lat="46.40075" lon="6.09822">
        <ele>1266.605705</ele>
        <time>2024-09-15T13:15:12.000Z</time>
      </trkpt>
      <trkpt lat="46.40073" lon="6.09821">
        <ele>1266.744518</ele>
        <time>2024-09-15T13:15:13.000Z</time>
      </trkpt>
      <trkpt lat="46.4007" lon="6.09821">
        <ele>1266.907453</ele>
        <time>2024-09-15T13:15:14.000Z</time>
      </trkpt>
      <trkpt lat="46.40068" lon="6.09821">
        <ele>1267.041791</ele>
        <time>2024-09-15T13:15:15.000Z</time>
      </trkpt>
      <trkpt lat="46.40066" lon="6.09821">
        <ele>1267.169089</ele>
        <time>2024-09-15T13:15:16.000Z</time>
      </trkpt>
      <trkpt lat="46.40064" lon="6.0982">
        <ele>1267.279651</ele>
        <time>2024-09-15T13:15:17.000Z</time>
      </trkpt>
      <trkpt lat="46.40062" lon="6.09819">
        <ele>1267.401588</ele>
        <time>2024-09-15T13:15:18.000Z</time>
      </trkpt>
      <trkpt lat="46.4006" lon="6.09818">
        <ele>1267.533807</ele>
        <time>2024-09-15T13:15:19.000Z</time>
      </trkpt>
      <trkpt lat="46.40058" lon="6.09816">
        <ele>1267.682725</ele>
        <time>2024-09-15T13:15:20.000Z</time>
      </trkpt>
      <trkpt lat="46.40056" lon="6.09813">
        <ele>1267.840832</ele>
        <time>2024-09-15T13:15:21.000Z</time>
      </trkpt>
      <trkpt lat="46.40056" lon="6.09809">
        <ele>1268.004462</ele>
        <time>2024-09-15T13:15:22.000Z</time>
      </trkpt>
      <trkpt lat="46.40054" lon="6.09807">
        <ele>1268.144887</ele>
        <time>2024-09-15T13:15:23.000Z</time>
      </trkpt>
      <trkpt lat="46.40054" lon="6.09804">
        <ele>1268.261191</ele>
        <time>2024-09-15T13:15:24.000Z</time>
      </trkpt>
      <trkpt lat="46.40054" lon="6.09801">
        <ele>1268.383187</ele>
        <time>2024-09-15T13:15:25.000Z</time>
      </trkpt>
      <trkpt lat="46.40053" lon="6.09798">
        <ele>1268.504213</ele>
        <time>2024-09-15T13:15:26.000Z</time>
      </trkpt>
      <trkpt lat="46.40052" lon="6.09796">
        <ele>1268.620867</ele>
        <time>2024-09-15T13:15:27.000Z</time>
      </trkpt>
      <trkpt lat="46.40051" lon="6.09793">
        <ele>1268.762218</ele>
        <time>2024-09-15T13:15:28.000Z</time>
      </trkpt>
      <trkpt lat="46.40049" lon="6.0979">
        <ele>1268.89945</ele>
        <time>2024-09-15T13:15:29.000Z</time>
      </trkpt>
      <trkpt lat="46.40048" lon="6.09788">
        <ele>1269.0233</ele>
        <time>2024-09-15T13:15:30.000Z</time>
      </trkpt>
      <trkpt lat="46.40047" lon="6.09785">
        <ele>1269.160448</ele>
        <time>2024-09-15T13:15:31.000Z</time>
      </trkpt>
      <trkpt lat="46.40046" lon="6.09782">
        <ele>1269.297441</ele>
        <time>2024-09-15T13:15:32.000Z</time>
      </trkpt>
      <trkpt lat="46.40045" lon="6.09779">
        <ele>1269.441213</ele>
        <time>2024-09-15T13:15:33.000Z</time>
      </trkpt>
      <trkpt lat="46.40045" lon="6.09776">
        <ele>1269.58682</ele>
        <time>2024-09-15T13:15:34.000Z</time>
      </trkpt>
      <trkpt lat="46.40045" lon="6.09772">
        <ele>1269.732926</ele>
        <time>2024-09-15T13:15:35.000Z</time>
      </trkpt>
      <trkpt lat="46.40045" lon="6.09769">
        <ele>1269.851884</ele>
        <time>2024-09-15T13:15:36.000Z</time>
      </trkpt>
      <trkpt lat="46.40043" lon="6.09767">
        <ele>1269.975211</ele>
        <time>2024-09-15T13:15:37.000Z</time>
      </trkpt>
      <trkpt lat="46.40043" lon="6.09764">
        <ele>1270.093224</ele>
        <time>2024-09-15T13:15:38.000Z</time>
      </trkpt>
      <trkpt lat="46.40043" lon="6.09761">
        <ele>1270.214471</ele>
        <time>2024-09-15T13:15:39.000Z</time>
      </trkpt>
      <trkpt lat="46.40043" lon="6.09757">
        <ele>1270.389616</ele>
        <time>2024-09-15T13:15:40.000Z</time>
      </trkpt>
      <trkpt lat="46.40042" lon="6.09753">
        <ele>1270.563982</ele>
        <time>2024-09-15T13:15:41.000Z</time>
      </trkpt>
      <trkpt lat="46.40042" lon="6.0975">
        <ele>1270.706581</ele>
        <time>2024-09-15T13:15:42.000Z</time>
      </trkpt>
      <trkpt lat="46.40042" lon="6.09747">
        <ele>1270.831533</ele>
        <time>2024-09-15T13:15:43.000Z</time>
      </trkpt>
      <trkpt lat="46.40041" lon="6.09743">
        <ele>1270.974133</ele>
        <time>2024-09-15T13:15:44.000Z</time>
      </trkpt>
      <trkpt lat="46.40042" lon="6.0974">
        <ele>1271.112092</ele>
        <time>2024-09-15T13:15:45.000Z</time>
      </trkpt>
      <trkpt lat="46.40042" lon="6.09736">
        <ele>1271.257698</ele>
        <time>2024-09-15T13:15:46.000Z</time>
      </trkpt>
      <trkpt lat="46.40041" lon="6.09734">
        <ele>1271.364115</ele>
        <time>2024-09-15T13:15:47.000Z</time>
      </trkpt>
      <trkpt lat="46.40041" lon="6.09732">
        <ele>1271.469683</ele>
        <time>2024-09-15T13:15:48.000Z</time>
      </trkpt>
      <trkpt lat="46.4004" lon="6.09729">
        <ele>1271.599942</ele>
        <time>2024-09-15T13:15:49.000Z</time>
      </trkpt>
      <trkpt lat="46.40038" lon="6.09728">
        <ele>1271.72336</ele>
        <time>2024-09-15T13:15:50.000Z</time>
      </trkpt>
      <trkpt lat="46.40035" lon="6.09728">
        <ele>1271.898751</ele>
        <time>2024-09-15T13:15:51.000Z</time>
      </trkpt>
      <trkpt lat="46.40031" lon="6.09727">
        <ele>1272.098522</ele>
        <time>2024-09-15T13:15:52.000Z</time>
      </trkpt>
      <trkpt lat="46.40029" lon="6.09727">
        <ele>1272.258863</ele>
        <time>2024-09-15T13:15:53.000Z</time>
      </trkpt>
      <trkpt lat="46.40026" lon="6.09726">
        <ele>1272.406546</ele>
        <time>2024-09-15T13:15:54.000Z</time>
      </trkpt>
      <trkpt lat="46.40024" lon="6.09725">
        <ele>1272.556092</ele>
        <time>2024-09-15T13:15:55.000Z</time>
      </trkpt>
      <trkpt lat="46.40022" lon="6.09724">
        <ele>1272.690067</ele>
        <time>2024-09-15T13:15:56.000Z</time>
      </trkpt>
      <trkpt lat="46.40021" lon="6.09721">
        <ele>1272.797234</ele>
        <time>2024-09-15T13:15:57.000Z</time>
      </trkpt>
      <trkpt lat="46.4002" lon="6.09719">
        <ele>1272.920162</ele>
        <time>2024-09-15T13:15:58.000Z</time>
      </trkpt>
      <trkpt lat="46.40018" lon="6.09718">
        <ele>1273.052382</ele>
        <time>2024-09-15T13:15:59.000Z</time>
      </trkpt>
      <trkpt lat="46.40016" lon="6.09717">
        <ele>1273.168666</ele>
        <time>2024-09-15T13:16:00.000Z</time>
      </trkpt>
      <trkpt lat="46.40014" lon="6.09717">
        <ele>1273.283963</ele>
        <time>2024-09-15T13:16:01.000Z</time>
      </trkpt>
      <trkpt lat="46.40012" lon="6.09717">
        <ele>1273.424941</ele>
        <time>2024-09-15T13:16:02.000Z</time>
      </trkpt>
      <trkpt lat="46.4001" lon="6.09716">
        <ele>1273.522628</ele>
        <time>2024-09-15T13:16:03.000Z</time>
      </trkpt>
      <trkpt lat="46.40009" lon="6.09715">
        <ele>1273.625975</ele>
        <time>2024-09-15T13:16:04.000Z</time>
      </trkpt>
      <trkpt lat="46.40008" lon="6.09713">
        <ele>1273.725409</ele>
        <time>2024-09-15T13:16:05.000Z</time>
      </trkpt>
      <trkpt lat="46.40006" lon="6.09712">
        <ele>1273.858329</ele>
        <time>2024-09-15T13:16:06.000Z</time>
      </trkpt>
      <trkpt lat="46.40004" lon="6.09711">
        <ele>1273.988447</ele>
        <time>2024-09-15T13:16:07.000Z</time>
      </trkpt>
      <trkpt lat="46.40002" lon="6.09711">
        <ele>1274.103033</ele>
        <time>2024-09-15T13:16:08.000Z</time>
      </trkpt>
      <trkpt lat="46.4" lon="6.09711">
        <ele>1274.254879</ele>
        <time>2024-09-15T13:16:09.000Z</time>
      </trkpt>
      <trkpt lat="46.39998" lon="6.09711">
        <ele>1274.368715</ele>
        <time>2024-09-15T13:16:10.000Z</time>
      </trkpt>
      <trkpt lat="46.39997" lon="6.09711">
        <ele>1274.450931</ele>
        <time>2024-09-15T13:16:11.000Z</time>
      </trkpt>
      <trkpt lat="46.39995" lon="6.09711">
        <ele>1274.559237</ele>
        <time>2024-09-15T13:16:12.000Z</time>
      </trkpt>
      <trkpt lat="46.39993" lon="6.09711">
        <ele>1274.675144</ele>
        <time>2024-09-15T13:16:13.000Z</time>
      </trkpt>
      <trkpt lat="46.39991" lon="6.09711">
        <ele>1274.788981</ele>
        <time>2024-09-15T13:16:14.000Z</time>
      </trkpt>
      <trkpt lat="46.3999" lon="6.09711">
        <ele>1274.884245</ele>
        <time>2024-09-15T13:16:15.000Z</time>
      </trkpt>
      <trkpt lat="46.39989" lon="6.09711">
        <ele>1274.952688</ele>
        <time>2024-09-15T13:16:16.000Z</time>
      </trkpt>
      <trkpt lat="46.39987" lon="6.0971">
        <ele>1275.08614</ele>
        <time>2024-09-15T13:16:17.000Z</time>
      </trkpt>
      <trkpt lat="46.39985" lon="6.0971">
        <ele>1275.214492</ele>
        <time>2024-09-15T13:16:18.000Z</time>
      </trkpt>
      <trkpt lat="46.39983" lon="6.09709">
        <ele>1275.34461</ele>
        <time>2024-09-15T13:16:19.000Z</time>
      </trkpt>
      <trkpt lat="46.39981" lon="6.09708">
        <ele>1275.467587</ele>
        <time>2024-09-15T13:16:20.000Z</time>
      </trkpt>
      <trkpt lat="46.39979" lon="6.09708">
        <ele>1275.600469</ele>
        <time>2024-09-15T13:16:21.000Z</time>
      </trkpt>
      <trkpt lat="46.39976" lon="6.09708">
        <ele>1275.790247</ele>
        <time>2024-09-15T13:16:22.000Z</time>
      </trkpt>
      <trkpt lat="46.39974" lon="6.09708">
        <ele>1275.897282</ele>
        <time>2024-09-15T13:16:23.000Z</time>
      </trkpt>
      <trkpt lat="46.39973" lon="6.09706">
        <ele>1276.022726</ele>
        <time>2024-09-15T13:16:24.000Z</time>
      </trkpt>
      <trkpt lat="46.3997" lon="6.09706">
        <ele>1276.206338</ele>
        <time>2024-09-15T13:16:25.000Z</time>
      </trkpt>
      <trkpt lat="46.39967" lon="6.09704">
        <ele>1276.404357</ele>
        <time>2024-09-15T13:16:26.000Z</time>
      </trkpt>
      <trkpt lat="46.39965" lon="6.09702">
        <ele>1276.572599</ele>
        <time>2024-09-15T13:16:27.000Z</time>
      </trkpt>
      <trkpt lat="46.39963" lon="6.09699">
        <ele>1276.716217</ele>
        <time>2024-09-15T13:16:28.000Z</time>
      </trkpt>
      <trkpt lat="46.39962" lon="6.09697">
        <ele>1276.838552</ele>
        <time>2024-09-15T13:16:29.000Z</time>
      </trkpt>
      <trkpt lat="46.39961" lon="6.09694">
        <ele>1276.973284</ele>
        <time>2024-09-15T13:16:30.000Z</time>
      </trkpt>
      <trkpt lat="46.3996" lon="6.09691">
        <ele>1277.104075</ele>
        <time>2024-09-15T13:16:31.000Z</time>
      </trkpt>
      <trkpt lat="46.3996" lon="6.09688">
        <ele>1277.242772</ele>
        <time>2024-09-15T13:16:32.000Z</time>
      </trkpt>
      <trkpt lat="46.39959" lon="6.09686">
        <ele>1277.38147</ele>
        <time>2024-09-15T13:16:33.000Z</time>
      </trkpt>
      <trkpt lat="46.39958" lon="6.09683">
        <ele>1277.509365</ele>
        <time>2024-09-15T13:16:34.000Z</time>
      </trkpt>
      <trkpt lat="46.39958" lon="6.09679">
        <ele>1277.649501</ele>
        <time>2024-09-15T13:16:35.000Z</time>
      </trkpt>
      <trkpt lat="46.39958" lon="6.09676">
        <ele>1277.807652</ele>
        <time>2024-09-15T13:16:36.000Z</time>
      </trkpt>
      <trkpt lat="46.39958" lon="6.09673">
        <ele>1277.952133</ele>
        <time>2024-09-15T13:16:37.000Z</time>
      </trkpt>
      <trkpt lat="46.39959" lon="6.09669">
        <ele>1278.093971</ele>
        <time>2024-09-15T13:16:38.000Z</time>
      </trkpt>
      <trkpt lat="46.3996" lon="6.09666">
        <ele>1278.244695</ele>
        <time>2024-09-15T13:16:39.000Z</time>
      </trkpt>
      <trkpt lat="46.39961" lon="6.09663">
        <ele>1278.390019</ele>
        <time>2024-09-15T13:16:40.000Z</time>
      </trkpt>
      <trkpt lat="46.39962" lon="6.0966">
        <ele>1278.54207</ele>
        <time>2024-09-15T13:16:41.000Z</time>
      </trkpt>
      <trkpt lat="46.39962" lon="6.09657">
        <ele>1278.699363</ele>
        <time>2024-09-15T13:16:42.000Z</time>
      </trkpt>
      <trkpt lat="46.39962" lon="6.09653">
        <ele>1278.843427</ele>
        <time>2024-09-15T13:16:43.000Z</time>
      </trkpt>
      <trkpt lat="46.39963" lon="6.0965">
        <ele>1278.985266</ele>
        <time>2024-09-15T13:16:44.000Z</time>
      </trkpt>
      <trkpt lat="46.39963" lon="6.09647">
        <ele>1279.132624</ele>
        <time>2024-09-15T13:16:45.000Z</time>
      </trkpt>
      <trkpt lat="46.39963" lon="6.09643">
        <ele>1279.28976</ele>
        <time>2024-09-15T13:16:46.000Z</time>
      </trkpt>
      <trkpt lat="46.39964" lon="6.0964">
        <ele>1279.447278</ele>
        <time>2024-09-15T13:16:47.000Z</time>
      </trkpt>
      <trkpt lat="46.39963" lon="6.09636">
        <ele>1279.602008</ele>
        <time>2024-09-15T13:16:48.000Z</time>
      </trkpt>
      <trkpt lat="46.39962" lon="6.09633">
        <ele>1279.748703</ele>
        <time>2024-09-15T13:16:49.000Z</time>
      </trkpt>
      <trkpt lat="46.39961" lon="6.0963">
        <ele>1279.884927</ele>
        <time>2024-09-15T13:16:50.000Z</time>
      </trkpt>
      <trkpt lat="46.39961" lon="6.09627">
        <ele>1280.029558</ele>
        <time>2024-09-15T13:16:51.000Z</time>
      </trkpt>
      <trkpt lat="46.3996" lon="6.09624">
        <ele>1280.16984</ele>
        <time>2024-09-15T13:16:52.000Z</time>
      </trkpt>
      <trkpt lat="46.39959" lon="6.09621">
        <ele>1280.312106</ele>
        <time>2024-09-15T13:16:53.000Z</time>
      </trkpt>
      <trkpt lat="46.39958" lon="6.09618">
        <ele>1280.462945</ele>
        <time>2024-09-15T13:16:54.000Z</time>
      </trkpt>
      <trkpt lat="46.39957" lon="6.09615">
        <ele>1280.599716</ele>
        <time>2024-09-15T13:16:55.000Z</time>
      </trkpt>
      <trkpt lat="46.39956" lon="6.09612">
        <ele>1280.744065</ele>
        <time>2024-09-15T13:16:56.000Z</time>
      </trkpt>
      <trkpt lat="46.39955" lon="6.09609">
        <ele>1280.885475</ele>
        <time>2024-09-15T13:16:57.000Z</time>
      </trkpt>
      <trkpt lat="46.39953" lon="6.09607">
        <ele>1281.029094</ele>
        <time>2024-09-15T13:16:58.000Z</time>
      </trkpt>
      <trkpt lat="46.39952" lon="6.09604">
        <ele>1281.166617</ele>
        <time>2024-09-15T13:16:59.000Z</time>
      </trkpt>
      <trkpt lat="46.39951" lon="6.09601">
        <ele>1281.299463</ele>
        <time>2024-09-15T13:17:00.000Z</time>
      </trkpt>
      <trkpt lat="46.3995" lon="6.09599">
        <ele>1281.433128</ele>
        <time>2024-09-15T13:17:01.000Z</time>
      </trkpt>
      <trkpt lat="46.39949" lon="6.09596">
        <ele>1281.605867</ele>
        <time>2024-09-15T13:17:02.000Z</time>
      </trkpt>
      <trkpt lat="46.39947" lon="6.09593">
        <ele>1281.76748</ele>
        <time>2024-09-15T13:17:03.000Z</time>
      </trkpt>
      <trkpt lat="46.39945" lon="6.0959">
        <ele>1281.926839</ele>
        <time>2024-09-15T13:17:04.000Z</time>
      </trkpt>
      <trkpt lat="46.39942" lon="6.09589">
        <ele>1282.118807</ele>
        <time>2024-09-15T13:17:05.000Z</time>
      </trkpt>
      <trkpt lat="46.3994" lon="6.09588">
        <ele>1282.261557</ele>
        <time>2024-09-15T13:17:06.000Z</time>
      </trkpt>
      <trkpt lat="46.39938" lon="6.09586">
        <ele>1282.402752</ele>
        <time>2024-09-15T13:17:07.000Z</time>
      </trkpt>
      <trkpt lat="46.39936" lon="6.09583">
        <ele>1282.574075</ele>
        <time>2024-09-15T13:17:08.000Z</time>
      </trkpt>
      <trkpt lat="46.39935" lon="6.0958">
        <ele>1282.746462</ele>
        <time>2024-09-15T13:17:09.000Z</time>
      </trkpt>
      <trkpt lat="46.39933" lon="6.09578">
        <ele>1282.905224</ele>
        <time>2024-09-15T13:17:10.000Z</time>
      </trkpt>
      <trkpt lat="46.3993" lon="6.09575">
        <ele>1283.09484</ele>
        <time>2024-09-15T13:17:11.000Z</time>
      </trkpt>
      <trkpt lat="46.39928" lon="6.09573">
        <ele>1283.274331</ele>
        <time>2024-09-15T13:17:12.000Z</time>
      </trkpt>
      <trkpt lat="46.39926" lon="6.09571">
        <ele>1283.423199</ele>
        <time>2024-09-15T13:17:13.000Z</time>
      </trkpt>
      <trkpt lat="46.39924" lon="6.09569">
        <ele>1283.586464</ele>
        <time>2024-09-15T13:17:14.000Z</time>
      </trkpt>
      <trkpt lat="46.39921" lon="6.09568">
        <ele>1283.741051</ele>
        <time>2024-09-15T13:17:15.000Z</time>
      </trkpt>
      <trkpt lat="46.39919" lon="6.09567">
        <ele>1283.886861</ele>
        <time>2024-09-15T13:17:16.000Z</time>
      </trkpt>
      <trkpt lat="46.39917" lon="6.09566">
        <ele>1284.017925</ele>
        <time>2024-09-15T13:17:17.000Z</time>
      </trkpt>
      <trkpt lat="46.39915" lon="6.09565">
        <ele>1284.169782</ele>
        <time>2024-09-15T13:17:18.000Z</time>
      </trkpt>
      <trkpt lat="46.39912" lon="6.09564">
        <ele>1284.337874</ele>
        <time>2024-09-15T13:17:19.000Z</time>
      </trkpt>
      <trkpt lat="46.3991" lon="6.09563">
        <ele>1284.515241</ele>
        <time>2024-09-15T13:17:20.000Z</time>
      </trkpt>
      <trkpt lat="46.39908" lon="6.09563">
        <ele>1284.649829</ele>
        <time>2024-09-15T13:17:21.000Z</time>
      </trkpt>
      <trkpt lat="46.39906" lon="6.09562">
        <ele>1284.777512</ele>
        <time>2024-09-15T13:17:22.000Z</time>
      </trkpt>
      <trkpt lat="46.39903" lon="6.09562">
        <ele>1284.924013</ele>
        <time>2024-09-15T13:17:23.000Z</time>
      </trkpt>
      <trkpt lat="46.39901" lon="6.09561">
        <ele>1285.10025</ele>
        <time>2024-09-15T13:17:24.000Z</time>
      </trkpt>
      <trkpt lat="46.39898" lon="6.09559">
        <ele>1285.268493</ele>
        <time>2024-09-15T13:17:25.000Z</time>
      </trkpt>
      <trkpt lat="46.39897" lon="6.09556">
        <ele>1285.440429</ele>
        <time>2024-09-15T13:17:26.000Z</time>
      </trkpt>
      <trkpt lat="46.39895" lon="6.09553">
        <ele>1285.623417</ele>
        <time>2024-09-15T13:17:27.000Z</time>
      </trkpt>
      <trkpt lat="46.39894" lon="6.0955">
        <ele>1285.779685</ele>
        <time>2024-09-15T13:17:28.000Z</time>
      </trkpt>
      <trkpt lat="46.39892" lon="6.09547">
        <ele>1285.94357</ele>
        <time>2024-09-15T13:17:29.000Z</time>
      </trkpt>
      <trkpt lat="46.39891" lon="6.09545">
        <ele>1286.109723</ele>
        <time>2024-09-15T13:17:30.000Z</time>
      </trkpt>
      <trkpt lat="46.39889" lon="6.09543">
        <ele>1286.259644</ele>
        <time>2024-09-15T13:17:31.000Z</time>
      </trkpt>
      <trkpt lat="46.39888" lon="6.0954">
        <ele>1286.412264</ele>
        <time>2024-09-15T13:17:32.000Z</time>
      </trkpt>
      <trkpt lat="46.39886" lon="6.09537">
        <ele>1286.584205</ele>
        <time>2024-09-15T13:17:33.000Z</time>
      </trkpt>
      <trkpt lat="46.39885" lon="6.09534">
        <ele>1286.74809</ele>
        <time>2024-09-15T13:17:34.000Z</time>
      </trkpt>
      <trkpt lat="46.39883" lon="6.09531">
        <ele>1286.901504</ele>
        <time>2024-09-15T13:17:35.000Z</time>
      </trkpt>
      <trkpt lat="46.39882" lon="6.09529">
        <ele>1287.046343</ele>
        <time>2024-09-15T13:17:36.000Z</time>
      </trkpt>
      <trkpt lat="46.39881" lon="6.09526">
        <ele>1287.206902</ele>
        <time>2024-09-15T13:17:37.000Z</time>
      </trkpt>
      <trkpt lat="46.39879" lon="6.09523">
        <ele>1287.364803</ele>
        <time>2024-09-15T13:17:38.000Z</time>
      </trkpt>
      <trkpt lat="46.39878" lon="6.09521">
        <ele>1287.516048</ele>
        <time>2024-09-15T13:17:39.000Z</time>
      </trkpt>
      <trkpt lat="46.39876" lon="6.09519">
        <ele>1287.670588</ele>
        <time>2024-09-15T13:17:40.000Z</time>
      </trkpt>
      <trkpt lat="46.39874" lon="6.09516">
        <ele>1287.828623</ele>
        <time>2024-09-15T13:17:41.000Z</time>
      </trkpt>
      <trkpt lat="46.39872" lon="6.09515">
        <ele>1287.986645</ele>
        <time>2024-09-15T13:17:42.000Z</time>
      </trkpt>
      <trkpt lat="46.3987" lon="6.09513">
        <ele>1288.154099</ele>
        <time>2024-09-15T13:17:43.000Z</time>
      </trkpt>
      <trkpt lat="46.39868" lon="6.09512">
        <ele>1288.326088</ele>
        <time>2024-09-15T13:17:44.000Z</time>
      </trkpt>
      <trkpt lat="46.39865" lon="6.09511">
        <ele>1288.499011</ele>
        <time>2024-09-15T13:17:45.000Z</time>
      </trkpt>
      <trkpt lat="46.39863" lon="6.0951">
        <ele>1288.670877</ele>
        <time>2024-09-15T13:17:46.000Z</time>
      </trkpt>
      <trkpt lat="46.39861" lon="6.09509">
        <ele>1288.816106</ele>
        <time>2024-09-15T13:17:47.000Z</time>
      </trkpt>
      <trkpt lat="46.39859" lon="6.09508">
        <ele>1288.973898</ele>
        <time>2024-09-15T13:17:48.000Z</time>
      </trkpt>
      <trkpt lat="46.39856" lon="6.09507">
        <ele>1289.127352</ele>
        <time>2024-09-15T13:17:49.000Z</time>
      </trkpt>
      <trkpt lat="46.39854" lon="6.09506">
        <ele>1289.269372</ele>
        <time>2024-09-15T13:17:50.000Z</time>
      </trkpt>
      <trkpt lat="46.39853" lon="6.09505">
        <ele>1289.406712</ele>
        <time>2024-09-15T13:17:51.000Z</time>
      </trkpt>
      <trkpt lat="46.3985" lon="6.09504">
        <ele>1289.563593</ele>
        <time>2024-09-15T13:17:52.000Z</time>
      </trkpt>
      <trkpt lat="46.39848" lon="6.09504">
        <ele>1289.738686</ele>
        <time>2024-09-15T13:17:53.000Z</time>
      </trkpt>
      <trkpt lat="46.39846" lon="6.09503">
        <ele>1289.882282</ele>
        <time>2024-09-15T13:17:54.000Z</time>
      </trkpt>
      <trkpt lat="46.39844" lon="6.09502">
        <ele>1289.995898</ele>
        <time>2024-09-15T13:17:55.000Z</time>
      </trkpt>
      <trkpt lat="46.39843" lon="6.095">
        <ele>1290.087947</ele>
        <time>2024-09-15T13:17:56.000Z</time>
      </trkpt>
      <trkpt lat="46.39842" lon="6.095">
        <ele>1290.19889</ele>
        <time>2024-09-15T13:17:57.000Z</time>
      </trkpt>
      <trkpt lat="46.3984" lon="6.095">
        <ele>1290.326524</ele>
        <time>2024-09-15T13:17:58.000Z</time>
      </trkpt>
      <trkpt lat="46.39838" lon="6.095">
        <ele>1290.454157</ele>
        <time>2024-09-15T13:17:59.000Z</time>
      </trkpt>
      <trkpt lat="46.39836" lon="6.095">
        <ele>1290.588739</ele>
        <time>2024-09-15T13:18:00.000Z</time>
      </trkpt>
      <trkpt lat="46.39833" lon="6.09499">
        <ele>1290.765476</ele>
        <time>2024-09-15T13:18:01.000Z</time>
      </trkpt>
      <trkpt lat="46.39831" lon="6.09499">
        <ele>1290.919878</ele>
        <time>2024-09-15T13:18:02.000Z</time>
      </trkpt>
      <trkpt lat="46.39828" lon="6.095">
        <ele>1291.102605</ele>
        <time>2024-09-15T13:18:03.000Z</time>
      </trkpt>
      <trkpt lat="46.39825" lon="6.095">
        <ele>1291.283918</ele>
        <time>2024-09-15T13:18:04.000Z</time>
      </trkpt>
      <trkpt lat="46.39823" lon="6.095">
        <ele>1291.418261</ele>
        <time>2024-09-15T13:18:05.000Z</time>
      </trkpt>
      <trkpt lat="46.39822" lon="6.09499">
        <ele>1291.539451</ele>
        <time>2024-09-15T13:18:06.000Z</time>
      </trkpt>
      <trkpt lat="46.3982" lon="6.09499">
        <ele>1291.648446</ele>
        <time>2024-09-15T13:18:07.000Z</time>
      </trkpt>
      <trkpt lat="46.39818" lon="6.09499">
        <ele>1291.757441</ele>
        <time>2024-09-15T13:18:08.000Z</time>
      </trkpt>
      <trkpt lat="46.39816" lon="6.09498">
        <ele>1291.891783</ele>
        <time>2024-09-15T13:18:09.000Z</time>
      </trkpt>
      <trkpt lat="46.39814" lon="6.09498">
        <ele>1292.033441</ele>
        <time>2024-09-15T13:18:10.000Z</time>
      </trkpt>
      <trkpt lat="46.39812" lon="6.09498">
        <ele>1292.162328</ele>
        <time>2024-09-15T13:18:11.000Z</time>
      </trkpt>
      <trkpt lat="46.39811" lon="6.09498">
        <ele>1292.290213</ele>
        <time>2024-09-15T13:18:12.000Z</time>
      </trkpt>
      <trkpt lat="46.39808" lon="6.09498">
        <ele>1292.4796</ele>
        <time>2024-09-15T13:18:13.000Z</time>
      </trkpt>
      <trkpt lat="46.39805" lon="6.09499">
        <ele>1292.661091</ele>
        <time>2024-09-15T13:18:14.000Z</time>
      </trkpt>
      <trkpt lat="46.39803" lon="6.09498">
        <ele>1292.806851</ele>
        <time>2024-09-15T13:18:15.000Z</time>
      </trkpt>
      <trkpt lat="46.398" lon="6.09496">
        <ele>1293.012037</ele>
        <time>2024-09-15T13:18:16.000Z</time>
      </trkpt>
      <trkpt lat="46.39797" lon="6.09496">
        <ele>1293.208089</ele>
        <time>2024-09-15T13:18:17.000Z</time>
      </trkpt>
      <trkpt lat="46.39795" lon="6.09495">
        <ele>1293.379956</ele>
        <time>2024-09-15T13:18:18.000Z</time>
      </trkpt>
      <trkpt lat="46.39792" lon="6.09494">
        <ele>1293.55038</ele>
        <time>2024-09-15T13:18:19.000Z</time>
      </trkpt>
      <trkpt lat="46.3979" lon="6.09493">
        <ele>1293.702642</ele>
        <time>2024-09-15T13:18:20.000Z</time>
      </trkpt>
      <trkpt lat="46.39787" lon="6.09492">
        <ele>1293.88107</ele>
        <time>2024-09-15T13:18:21.000Z</time>
      </trkpt>
      <trkpt lat="46.39785" lon="6.09492">
        <ele>1294.063268</ele>
        <time>2024-09-15T13:18:22.000Z</time>
      </trkpt>
      <trkpt lat="46.39781" lon="6.09493">
        <ele>1294.295286</ele>
        <time>2024-09-15T13:18:23.000Z</time>
      </trkpt>
      <trkpt lat="46.39778" lon="6.09493">
        <ele>1294.503856</ele>
        <time>2024-09-15T13:18:24.000Z</time>
      </trkpt>
      <trkpt lat="46.39775" lon="6.09493">
        <ele>1294.725583</ele>
        <time>2024-09-15T13:18:25.000Z</time>
      </trkpt>
      <trkpt lat="46.39772" lon="6.09492">
        <ele>1294.948322</ele>
        <time>2024-09-15T13:18:26.000Z</time>
      </trkpt>
      <trkpt lat="46.39769" lon="6.09492">
        <ele>1295.145682</ele>
        <time>2024-09-15T13:18:27.000Z</time>
      </trkpt>
      <trkpt lat="46.39767" lon="6.09491">
        <ele>1295.300457</ele>
        <time>2024-09-15T13:18:28.000Z</time>
      </trkpt>
      <trkpt lat="46.39764" lon="6.09488">
        <ele>1295.51208</ele>
        <time>2024-09-15T13:18:29.000Z</time>
      </trkpt>
      <trkpt lat="46.39761" lon="6.09487">
        <ele>1295.699459</ele>
        <time>2024-09-15T13:18:30.000Z</time>
      </trkpt>
      <trkpt lat="46.39759" lon="6.09484">
        <ele>1295.878959</ele>
        <time>2024-09-15T13:18:31.000Z</time>
      </trkpt>
      <trkpt lat="46.39756" lon="6.09483">
        <ele>1296.069945</ele>
        <time>2024-09-15T13:18:32.000Z</time>
      </trkpt>
      <trkpt lat="46.39754" lon="6.09482">
        <ele>1296.232714</ele>
        <time>2024-09-15T13:18:33.000Z</time>
      </trkpt>
      <trkpt lat="46.39752" lon="6.09481">
        <ele>1296.396807</ele>
        <time>2024-09-15T13:18:34.000Z</time>
      </trkpt>
      <trkpt lat="46.3975" lon="6.09479">
        <ele>1296.577129</ele>
        <time>2024-09-15T13:18:35.000Z</time>
      </trkpt>
      <trkpt lat="46.39749" lon="6.09472">
        <ele>1296.887374</ele>
        <time>2024-09-15T13:18:36.000Z</time>
      </trkpt>
      <trkpt lat="46.39748" lon="6.09468">
        <ele>1297.100945</ele>
        <time>2024-09-15T13:18:37.000Z</time>
      </trkpt>
      <trkpt lat="46.39746" lon="6.09464">
        <ele>1297.251711</ele>
        <time>2024-09-15T13:18:38.000Z</time>
      </trkpt>
      <trkpt lat="46.39745" lon="6.09462">
        <ele>1297.23302</ele>
        <time>2024-09-15T13:18:39.000Z</time>
      </trkpt>
      <trkpt lat="46.39742" lon="6.09461">
        <ele>1297.211849</ele>
        <time>2024-09-15T13:18:40.000Z</time>
      </trkpt>
      <trkpt lat="46.39739" lon="6.09459">
        <ele>1297.185646</ele>
        <time>2024-09-15T13:18:41.000Z</time>
      </trkpt>
      <trkpt lat="46.39737" lon="6.09456">
        <ele>1297.162181</ele>
        <time>2024-09-15T13:18:42.000Z</time>
      </trkpt>
      <trkpt lat="46.39735" lon="6.09454">
        <ele>1297.139069</ele>
        <time>2024-09-15T13:18:43.000Z</time>
      </trkpt>
      <trkpt lat="46.39733" lon="6.09453">
        <ele>1297.121112</ele>
        <time>2024-09-15T13:18:44.000Z</time>
      </trkpt>
      <trkpt lat="46.39731" lon="6.09452">
        <ele>1297.101169</ele>
        <time>2024-09-15T13:18:45.000Z</time>
      </trkpt>
      <trkpt lat="46.39729" lon="6.09449">
        <ele>1297.081843</ele>
        <time>2024-09-15T13:18:46.000Z</time>
      </trkpt>
      <trkpt lat="46.39728" lon="6.09445">
        <ele>1297.056493</ele>
        <time>2024-09-15T13:18:47.000Z</time>
      </trkpt>
      <trkpt lat="46.39726" lon="6.09443">
        <ele>1297.038583</ele>
        <time>2024-09-15T13:18:48.000Z</time>
      </trkpt>
      <trkpt lat="46.39724" lon="6.09441">
        <ele>1297.01984</ele>
        <time>2024-09-15T13:18:49.000Z</time>
      </trkpt>
      <trkpt lat="46.39723" lon="6.09439">
        <ele>1297.000321</ele>
        <time>2024-09-15T13:18:50.000Z</time>
      </trkpt>
      <trkpt lat="46.39721" lon="6.09436">
        <ele>1296.977841</ele>
        <time>2024-09-15T13:18:51.000Z</time>
      </trkpt>
      <trkpt lat="46.3972" lon="6.09434">
        <ele>1296.963757</ele>
        <time>2024-09-15T13:18:52.000Z</time>
      </trkpt>
      <trkpt lat="46.39718" lon="6.09432">
        <ele>1296.943229</ele>
        <time>2024-09-15T13:18:53.000Z</time>
      </trkpt>
      <trkpt lat="46.39716" lon="6.0943">
        <ele>1296.925558</ele>
        <time>2024-09-15T13:18:54.000Z</time>
      </trkpt>
      <trkpt lat="46.39715" lon="6.09427">
        <ele>1296.906396</ele>
        <time>2024-09-15T13:18:55.000Z</time>
      </trkpt>
      <trkpt lat="46.39716" lon="6.09421">
        <ele>1296.870149</ele>
        <time>2024-09-15T13:18:56.000Z</time>
      </trkpt>
      <trkpt lat="46.39716" lon="6.09417">
        <ele>1296.847321</ele>
        <time>2024-09-15T13:18:57.000Z</time>
      </trkpt>
      <trkpt lat="46.39716" lon="6.09414">
        <ele>1296.827002</ele>
        <time>2024-09-15T13:18:58.000Z</time>
      </trkpt>
      <trkpt lat="46.39715" lon="6.09411">
        <ele>1296.808591</ele>
        <time>2024-09-15T13:18:59.000Z</time>
      </trkpt>
      <trkpt lat="46.39714" lon="6.09408">
        <ele>1296.786848</ele>
        <time>2024-09-15T13:19:00.000Z</time>
      </trkpt>
      <trkpt lat="46.39713" lon="6.09404">
        <ele>1296.767684</ele>
        <time>2024-09-15T13:19:01.000Z</time>
      </trkpt>
      <trkpt lat="46.39712" lon="6.09402">
        <ele>1296.751201</ele>
        <time>2024-09-15T13:19:02.000Z</time>
      </trkpt>
      <trkpt lat="46.39712" lon="6.09399">
        <ele>1296.733234</ele>
        <time>2024-09-15T13:19:03.000Z</time>
      </trkpt>
      <trkpt lat="46.39712" lon="6.09395">
        <ele>1296.711796</ele>
        <time>2024-09-15T13:19:04.000Z</time>
      </trkpt>
      <trkpt lat="46.39712" lon="6.09391">
        <ele>1296.687822</ele>
        <time>2024-09-15T13:19:05.000Z</time>
      </trkpt>
      <trkpt lat="46.39712" lon="6.09387">
        <ele>1296.663717</ele>
        <time>2024-09-15T13:19:06.000Z</time>
      </trkpt>
      <trkpt lat="46.39712" lon="6.09384">
        <ele>1296.64569</ele>
        <time>2024-09-15T13:19:07.000Z</time>
      </trkpt>
      <trkpt lat="46.39712" lon="6.09381">
        <ele>1296.629458</ele>
        <time>2024-09-15T13:19:08.000Z</time>
      </trkpt>
      <trkpt lat="46.39712" lon="6.09378">
        <ele>1296.611669</ele>
        <time>2024-09-15T13:19:09.000Z</time>
      </trkpt>
      <trkpt lat="46.39711" lon="6.09375">
        <ele>1296.594434</ele>
        <time>2024-09-15T13:19:10.000Z</time>
      </trkpt>
      <trkpt lat="46.3971" lon="6.09373">
        <ele>1296.575662</ele>
        <time>2024-09-15T13:19:11.000Z</time>
      </trkpt>
      <trkpt lat="46.39709" lon="6.09369">
        <ele>1296.556499</ele>
        <time>2024-09-15T13:19:12.000Z</time>
      </trkpt>
      <trkpt lat="46.39709" lon="6.09366">
        <ele>1296.537375</ele>
        <time>2024-09-15T13:19:13.000Z</time>
      </trkpt>
      <trkpt lat="46.39708" lon="6.09364">
        <ele>1296.520892</ele>
        <time>2024-09-15T13:19:14.000Z</time>
      </trkpt>
      <trkpt lat="46.39708" lon="6.09361">
        <ele>1296.504018</ele>
        <time>2024-09-15T13:19:15.000Z</time>
      </trkpt>
      <trkpt lat="46.39706" lon="6.09358">
        <ele>1296.484476</ele>
        <time>2024-09-15T13:19:16.000Z</time>
      </trkpt>
      <trkpt lat="46.39706" lon="6.09355">
        <ele>1296.468316</ele>
        <time>2024-09-15T13:19:17.000Z</time>
      </trkpt>
      <trkpt lat="46.39705" lon="6.09353">
        <ele>1296.452689</ele>
        <time>2024-09-15T13:19:18.000Z</time>
      </trkpt>
      <trkpt lat="46.39705" lon="6.0935">
        <ele>1296.435383</ele>
        <time>2024-09-15T13:19:19.000Z</time>
      </trkpt>
      <trkpt lat="46.39705" lon="6.09347">
        <ele>1296.41915</ele>
        <time>2024-09-15T13:19:20.000Z</time>
      </trkpt>
      <trkpt lat="46.39705" lon="6.09344">
        <ele>1296.403316</ele>
        <time>2024-09-15T13:19:21.000Z</time>
      </trkpt>
      <trkpt lat="46.39705" lon="6.09342">
        <ele>1296.389764</ele>
        <time>2024-09-15T13:19:22.000Z</time>
      </trkpt>
      <trkpt lat="46.39705" lon="6.09339">
        <ele>1296.374618</ele>
        <time>2024-09-15T13:19:23.000Z</time>
      </trkpt>
      <trkpt lat="46.39706" lon="6.09336">
        <ele>1296.353357</ele>
        <time>2024-09-15T13:19:24.000Z</time>
      </trkpt>
      <trkpt lat="46.39707" lon="6.09332">
        <ele>1296.333598</ele>
        <time>2024-09-15T13:19:25.000Z</time>
      </trkpt>
      <trkpt lat="46.39706" lon="6.09329">
        <ele>1296.316209</ele>
        <time>2024-09-15T13:19:26.000Z</time>
      </trkpt>
      <trkpt lat="46.39707" lon="6.09326">
        <ele>1296.29882</ele>
        <time>2024-09-15T13:19:27.000Z</time>
      </trkpt>
      <trkpt lat="46.39707" lon="6.09323">
        <ele>1296.280218</ele>
        <time>2024-09-15T13:19:28.000Z</time>
      </trkpt>
      <trkpt lat="46.39707" lon="6.0932">
        <ele>1296.262349</ele>
        <time>2024-09-15T13:19:29.000Z</time>
      </trkpt>
      <trkpt lat="46.39708" lon="6.09317">
        <ele>1296.244013</ele>
        <time>2024-09-15T13:19:30.000Z</time>
      </trkpt>
      <trkpt lat="46.39709" lon="6.09315">
        <ele>1296.229233</ele>
        <time>2024-09-15T13:19:31.000Z</time>
      </trkpt>
      <trkpt lat="46.39709" lon="6.09312">
        <ele>1296.213511</ele>
        <time>2024-09-15T13:19:32.000Z</time>
      </trkpt>
      <trkpt lat="46.39709" lon="6.0931">
        <ele>1296.201095</ele>
        <time>2024-09-15T13:19:33.000Z</time>
      </trkpt>
      <trkpt lat="46.39709" lon="6.09308">
        <ele>1296.19168</ele>
        <time>2024-09-15T13:19:34.000Z</time>
      </trkpt>
      <trkpt lat="46.39709" lon="6.09307">
        <ele>1296.182956</ele>
        <time>2024-09-15T13:19:35.000Z</time>
      </trkpt>
      <trkpt lat="46.39709" lon="6.09305">
        <ele>1296.173692</ele>
        <time>2024-09-15T13:19:36.000Z</time>
      </trkpt>
      <trkpt lat="46.3971" lon="6.09304">
        <ele>1296.165981</ele>
        <time>2024-09-15T13:19:37.000Z</time>
      </trkpt>
      <trkpt lat="46.3971" lon="6.09303">
        <ele>1296.156939</ele>
        <time>2024-09-15T13:19:38.000Z</time>
      </trkpt>
      <trkpt lat="46.39711" lon="6.09301">
        <ele>1296.146042</ele>
        <time>2024-09-15T13:19:39.000Z</time>
      </trkpt>
      <trkpt lat="46.39712" lon="6.09301">
        <ele>1296.139105</ele>
        <time>2024-09-15T13:19:40.000Z</time>
      </trkpt>
      <trkpt lat="46.39708" lon="6.09297">
        <ele>1296.102997</ele>
        <time>2024-09-15T13:29:34.000Z</time>
      </trkpt>
      <trkpt lat="46.39708" lon="6.09296">
        <ele>1296.09413</ele>
        <time>2024-09-15T13:29:35.000Z</time>
      </trkpt>
      <trkpt lat="46.39706" lon="6.09295">
        <ele>1296.084264</ele>
        <time>2024-09-15T13:29:36.000Z</time>
      </trkpt>
      <trkpt lat="46.39705" lon="6.09297">
        <ele>1296.067612</ele>
        <time>2024-09-15T13:29:38.000Z</time>
      </trkpt>
      <trkpt lat="46.39704" lon="6.09298">
        <ele>1296.057348</ele>
        <time>2024-09-15T13:29:39.000Z</time>
      </trkpt>
      <trkpt lat="46.39703" lon="6.093">
        <ele>1296.048291</ele>
        <time>2024-09-15T13:29:40.000Z</time>
      </trkpt>
      <trkpt lat="46.39703" lon="6.09303">
        <ele>1296.031313</ele>
        <time>2024-09-15T13:29:42.000Z</time>
      </trkpt>
      <trkpt lat="46.39703" lon="6.09303">
        <ele>1296.02885</ele>
        <time>2024-09-15T13:29:44.000Z</time>
      </trkpt>
      <trkpt lat="46.39696" lon="6.09329">
        <ele>1295.868563</ele>
        <time>2024-09-15T13:30:11.000Z</time>
      </trkpt>
      <trkpt lat="46.39695" lon="6.0933">
        <ele>1295.853473</ele>
        <time>2024-09-15T13:30:12.000Z</time>
      </trkpt>
      <trkpt lat="46.39694" lon="6.09332">
        <ele>1295.839549</ele>
        <time>2024-09-15T13:30:13.000Z</time>
      </trkpt>
      <trkpt lat="46.39691" lon="6.09337">
        <ele>1295.801614</ele>
        <time>2024-09-15T13:30:15.000Z</time>
      </trkpt>
      <trkpt lat="46.39689" lon="6.0934">
        <ele>1295.781867</ele>
        <time>2024-09-15T13:30:16.000Z</time>
      </trkpt>
      <trkpt lat="46.39687" lon="6.09341">
        <ele>1295.76094</ele>
        <time>2024-09-15T13:30:17.000Z</time>
      </trkpt>
      <trkpt lat="46.39686" lon="6.09342">
        <ele>1295.748586</ele>
        <time>2024-09-15T13:30:18.000Z</time>
      </trkpt>
      <trkpt lat="46.39684" lon="6.09343">
        <ele>1295.362197</ele>
        <time>2024-09-15T13:30:19.000Z</time>
      </trkpt>
      <trkpt lat="46.39682" lon="6.09344">
        <ele>1294.938441</ele>
        <time>2024-09-15T13:30:20.000Z</time>
      </trkpt>
      <trkpt lat="46.3968" lon="6.09344">
        <ele>1294.453532</ele>
        <time>2024-09-15T13:30:21.000Z</time>
      </trkpt>
      <trkpt lat="46.39677" lon="6.09343">
        <ele>1293.968623</ele>
        <time>2024-09-15T13:30:22.000Z</time>
      </trkpt>
      <trkpt lat="46.39675" lon="6.09343">
        <ele>1293.505558</ele>
        <time>2024-09-15T13:30:23.000Z</time>
      </trkpt>
      <trkpt lat="46.39674" lon="6.09343">
        <ele>1293.105945</ele>
        <time>2024-09-15T13:30:24.000Z</time>
      </trkpt>
      <trkpt lat="46.39672" lon="6.09345">
        <ele>1292.676919</ele>
        <time>2024-09-15T13:30:25.000Z</time>
      </trkpt>
      <trkpt lat="46.39669" lon="6.09346">
        <ele>1292.030968</ele>
        <time>2024-09-15T13:30:26.000Z</time>
      </trkpt>
      <trkpt lat="46.39667" lon="6.09348">
        <ele>1291.57538</ele>
        <time>2024-09-15T13:30:27.000Z</time>
      </trkpt>
      <trkpt lat="46.39664" lon="6.0935">
        <ele>1290.87704</ele>
        <time>2024-09-15T13:30:28.000Z</time>
      </trkpt>
      <trkpt lat="46.39661" lon="6.09352">
        <ele>1290.01051</ele>
        <time>2024-09-15T13:30:29.000Z</time>
      </trkpt>
      <trkpt lat="46.39658" lon="6.09352">
        <ele>1289.389391</ele>
        <time>2024-09-15T13:30:30.000Z</time>
      </trkpt>
      <trkpt lat="46.39655" lon="6.09355">
        <ele>1288.579237</ele>
        <time>2024-09-15T13:30:32.000Z</time>
      </trkpt>
      <trkpt lat="46.39653" lon="6.09356">
        <ele>1288.085111</ele>
        <time>2024-09-15T13:30:33.000Z</time>
      </trkpt>
      <trkpt lat="46.39649" lon="6.09358">
        <ele>1287.317214</ele>
        <time>2024-09-15T13:30:34.000Z</time>
      </trkpt>
      <trkpt lat="46.39649" lon="6.09358">
        <ele>1287.152104</ele>
        <time>2024-09-15T13:30:35.000Z</time>
      </trkpt>
      <trkpt lat="46.39646" lon="6.09359">
        <ele>1286.561816</ele>
        <time>2024-09-15T13:30:37.000Z</time>
      </trkpt>
      <trkpt lat="46.39644" lon="6.09361">
        <ele>1285.966634</ele>
        <time>2024-09-15T13:30:38.000Z</time>
      </trkpt>
      <trkpt lat="46.39642" lon="6.09364">
        <ele>1285.345947</ele>
        <time>2024-09-15T13:30:39.000Z</time>
      </trkpt>
      <trkpt lat="46.3964" lon="6.09367">
        <ele>1284.772827</ele>
        <time>2024-09-15T13:30:40.000Z</time>
      </trkpt>
      <trkpt lat="46.3964" lon="6.0937">
        <ele>1284.333382</ele>
        <time>2024-09-15T13:30:41.000Z</time>
      </trkpt>
      <trkpt lat="46.39641" lon="6.09372">
        <ele>1283.996475</ele>
        <time>2024-09-15T13:30:42.000Z</time>
      </trkpt>
      <trkpt lat="46.39641" lon="6.09374">
        <ele>1283.720545</ele>
        <time>2024-09-15T13:30:43.000Z</time>
      </trkpt>
      <trkpt lat="46.39641" lon="6.09376">
        <ele>1283.356658</ele>
        <time>2024-09-15T13:30:44.000Z</time>
      </trkpt>
      <trkpt lat="46.39641" lon="6.09379">
        <ele>1282.932329</ele>
        <time>2024-09-15T13:30:45.000Z</time>
      </trkpt>
      <trkpt lat="46.39642" lon="6.09381">
        <ele>1282.533231</ele>
        <time>2024-09-15T13:30:46.000Z</time>
      </trkpt>
      <trkpt lat="46.39645" lon="6.09383">
        <ele>1281.94028</ele>
        <time>2024-09-15T13:30:47.000Z</time>
      </trkpt>
      <trkpt lat="46.39648" lon="6.09386">
        <ele>1281.192064</ele>
        <time>2024-09-15T13:30:48.000Z</time>
      </trkpt>
      <trkpt lat="46.39653" lon="6.09391">
        <ele>1279.814831</ele>
        <time>2024-09-15T13:30:50.000Z</time>
      </trkpt>
      <trkpt lat="46.39654" lon="6.09393">
        <ele>1279.390464</ele>
        <time>2024-09-15T13:30:51.000Z</time>
      </trkpt>
      <trkpt lat="46.39653" lon="6.09396">
        <ele>1278.935905</ele>
        <time>2024-09-15T13:30:52.000Z</time>
      </trkpt>
      <trkpt lat="46.39653" lon="6.094">
        <ele>1278.356378</ele>
        <time>2024-09-15T13:30:53.000Z</time>
      </trkpt>
      <trkpt lat="46.39652" lon="6.09404">
        <ele>1277.702281</ele>
        <time>2024-09-15T13:30:54.000Z</time>
      </trkpt>
      <trkpt lat="46.3965" lon="6.09416">
        <ele>1275.849413</ele>
        <time>2024-09-15T13:30:56.000Z</time>
      </trkpt>
      <trkpt lat="46.39648" lon="6.09423">
        <ele>1274.716664</ele>
        <time>2024-09-15T13:30:57.000Z</time>
      </trkpt>
      <trkpt lat="46.39645" lon="6.09429">
        <ele>1273.711834</ele>
        <time>2024-09-15T13:30:58.000Z</time>
      </trkpt>
      <trkpt lat="46.39642" lon="6.09437">
        <ele>1272.307013</ele>
        <time>2024-09-15T13:31:00.000Z</time>
      </trkpt>
      <trkpt lat="46.39641" lon="6.09444">
        <ele>1271.233</ele>
        <time>2024-09-15T13:31:01.000Z</time>
      </trkpt>
      <trkpt lat="46.3964" lon="6.09452">
        <ele>1269.949544</ele>
        <time>2024-09-15T13:31:02.000Z</time>
      </trkpt>
      <trkpt lat="46.39639" lon="6.09461">
        <ele>1268.628292</ele>
        <time>2024-09-15T13:31:03.000Z</time>
      </trkpt>
      <trkpt lat="46.39639" lon="6.0947">
        <ele>1267.173905</ele>
        <time>2024-09-15T13:31:04.000Z</time>
      </trkpt>
      <trkpt lat="46.39638" lon="6.09482">
        <ele>1265.413646</ele>
        <time>2024-09-15T13:31:05.000Z</time>
      </trkpt>
      <trkpt lat="46.39638" lon="6.09496">
        <ele>1263.338383</ele>
        <time>2024-09-15T13:31:06.000Z</time>
      </trkpt>
      <trkpt lat="46.39639" lon="6.09504">
        <ele>1262.015128</ele>
        <time>2024-09-15T13:31:07.000Z</time>
      </trkpt>
      <trkpt lat="46.39641" lon="6.09511">
        <ele>1260.798507</ele>
        <time>2024-09-15T13:31:08.000Z</time>
      </trkpt>
      <trkpt lat="46.39644" lon="6.09517">
        <ele>1259.714597</ele>
        <time>2024-09-15T13:31:09.000Z</time>
      </trkpt>
      <trkpt lat="46.39645" lon="6.0952">
        <ele>1259.182901</ele>
        <time>2024-09-15T13:31:10.000Z</time>
      </trkpt>
      <trkpt lat="46.39643" lon="6.09524">
        <ele>1258.420301</ele>
        <time>2024-09-15T13:31:11.000Z</time>
      </trkpt>
      <trkpt lat="46.39642" lon="6.09526">
        <ele>1258.080899</ele>
        <time>2024-09-15T13:31:12.000Z</time>
      </trkpt>
      <trkpt lat="46.39641" lon="6.09529">
        <ele>1257.590713</ele>
        <time>2024-09-15T13:31:13.000Z</time>
      </trkpt>
      <trkpt lat="46.39641" lon="6.0953">
        <ele>1257.375273</ele>
        <time>2024-09-15T13:31:14.000Z</time>
      </trkpt>
      <trkpt lat="46.3964" lon="6.09532">
        <ele>1257.022276</ele>
        <time>2024-09-15T13:31:15.000Z</time>
      </trkpt>
      <trkpt lat="46.39639" lon="6.09535">
        <ele>1256.591398</ele>
        <time>2024-09-15T13:31:16.000Z</time>
      </trkpt>
      <trkpt lat="46.39638" lon="6.09538">
        <ele>1256.226267</ele>
        <time>2024-09-15T13:31:17.000Z</time>
      </trkpt>
      <trkpt lat="46.39636" lon="6.09541">
        <ele>1256.062759</ele>
        <time>2024-09-15T13:31:18.000Z</time>
      </trkpt>
      <trkpt lat="46.39632" lon="6.09549">
        <ele>1255.741567</ele>
        <time>2024-09-15T13:31:20.000Z</time>
      </trkpt>
      <trkpt lat="46.3963" lon="6.09554">
        <ele>1255.530311</ele>
        <time>2024-09-15T13:31:22.000Z</time>
      </trkpt>
      <trkpt lat="46.39629" lon="6.09558">
        <ele>1255.387613</ele>
        <time>2024-09-15T13:31:23.000Z</time>
      </trkpt>
      <trkpt lat="46.39628" lon="6.09562">
        <ele>1255.249647</ele>
        <time>2024-09-15T13:31:24.000Z</time>
      </trkpt>
      <trkpt lat="46.39629" lon="6.09566">
        <ele>1255.119466</ele>
        <time>2024-09-15T13:31:25.000Z</time>
      </trkpt>
      <trkpt lat="46.39629" lon="6.09577">
        <ele>1254.725568</ele>
        <time>2024-09-15T13:31:28.000Z</time>
      </trkpt>
      <trkpt lat="46.39628" lon="6.09585">
        <ele>1254.455209</ele>
        <time>2024-09-15T13:31:30.000Z</time>
      </trkpt>
      <trkpt lat="46.39625" lon="6.09588">
        <ele>1254.273882</ele>
        <time>2024-09-15T13:31:31.000Z</time>
      </trkpt>
      <trkpt lat="46.39623" lon="6.09592">
        <ele>1254.106185</ele>
        <time>2024-09-15T13:31:32.000Z</time>
      </trkpt>
      <trkpt lat="46.3962" lon="6.09597">
        <ele>1253.879953</ele>
        <time>2024-09-15T13:31:33.000Z</time>
      </trkpt>
      <trkpt lat="46.3962" lon="6.09603">
        <ele>1253.667853</ele>
        <time>2024-09-15T13:31:34.000Z</time>
      </trkpt>
      <trkpt lat="46.3962" lon="6.0961">
        <ele>1253.422249</ele>
        <time>2024-09-15T13:31:35.000Z</time>
      </trkpt>
      <trkpt lat="46.39618" lon="6.09623">
        <ele>1252.975829</ele>
        <time>2024-09-15T13:31:37.000Z</time>
      </trkpt>
      <trkpt lat="46.39616" lon="6.09627">
        <ele>1252.822046</ele>
        <time>2024-09-15T13:31:38.000Z</time>
      </trkpt>
      <trkpt lat="46.39615" lon="6.09631">
        <ele>1252.663096</ele>
        <time>2024-09-15T13:31:39.000Z</time>
      </trkpt>
      <trkpt lat="46.39613" lon="6.09635">
        <ele>1252.496175</ele>
        <time>2024-09-15T13:31:40.000Z</time>
      </trkpt>
      <trkpt lat="46.3961" lon="6.09637">
        <ele>1252.329715</ele>
        <time>2024-09-15T13:31:41.000Z</time>
      </trkpt>
      <trkpt lat="46.39609" lon="6.0964">
        <ele>1252.242913</ele>
        <time>2024-09-15T13:31:42.000Z</time>
      </trkpt>
      <trkpt lat="46.39608" lon="6.09643">
        <ele>1252.10891</ele>
        <time>2024-09-15T13:31:43.000Z</time>
      </trkpt>
      <trkpt lat="46.39607" lon="6.09649">
        <ele>1251.909723</ele>
        <time>2024-09-15T13:31:44.000Z</time>
      </trkpt>
      <trkpt lat="46.39606" lon="6.09654">
        <ele>1251.708882</ele>
        <time>2024-09-15T13:31:45.000Z</time>
      </trkpt>
      <trkpt lat="46.39605" lon="6.0966">
        <ele>1251.503616</ele>
        <time>2024-09-15T13:31:46.000Z</time>
      </trkpt>
      <trkpt lat="46.39605" lon="6.09664">
        <ele>1251.357224</ele>
        <time>2024-09-15T13:31:47.000Z</time>
      </trkpt>
      <trkpt lat="46.39604" lon="6.09668">
        <ele>1251.20854</ele>
        <time>2024-09-15T13:31:48.000Z</time>
      </trkpt>
      <trkpt lat="46.39602" lon="6.09676">
        <ele>1250.937477</ele>
        <time>2024-09-15T13:31:50.000Z</time>
      </trkpt>
      <trkpt lat="46.39602" lon="6.0968">
        <ele>1250.797117</ele>
        <time>2024-09-15T13:31:51.000Z</time>
      </trkpt>
      <trkpt lat="46.39602" lon="6.09685">
        <ele>1250.621026</ele>
        <time>2024-09-15T13:31:52.000Z</time>
      </trkpt>
      <trkpt lat="46.396" lon="6.09691">
        <ele>1250.40025</ele>
        <time>2024-09-15T13:31:53.000Z</time>
      </trkpt>
      <trkpt lat="46.39599" lon="6.09695">
        <ele>1250.238655</ele>
        <time>2024-09-15T13:31:54.000Z</time>
      </trkpt>
      <trkpt lat="46.39597" lon="6.09699">
        <ele>1250.067349</ele>
        <time>2024-09-15T13:31:55.000Z</time>
      </trkpt>
      <trkpt lat="46.39595" lon="6.09703">
        <ele>1249.899545</ele>
        <time>2024-09-15T13:31:56.000Z</time>
      </trkpt>
      <trkpt lat="46.39594" lon="6.09705">
        <ele>1249.835607</ele>
        <time>2024-09-15T13:31:57.000Z</time>
      </trkpt>
      <trkpt lat="46.39595" lon="6.09707">
        <ele>1249.752341</ele>
        <time>2024-09-15T13:31:58.000Z</time>
      </trkpt>
      <trkpt lat="46.39594" lon="6.0971">
        <ele>1249.637843</ele>
        <time>2024-09-15T13:31:59.000Z</time>
      </trkpt>
      <trkpt lat="46.39593" lon="6.09714">
        <ele>1249.50504</ele>
        <time>2024-09-15T13:32:00.000Z</time>
      </trkpt>
      <trkpt lat="46.39592" lon="6.09717">
        <ele>1249.368577</ele>
        <time>2024-09-15T13:32:01.000Z</time>
      </trkpt>
      <trkpt lat="46.3959" lon="6.09721">
        <ele>1249.226459</ele>
        <time>2024-09-15T13:32:02.000Z</time>
      </trkpt>
      <trkpt lat="46.39588" lon="6.09723">
        <ele>1249.102756</ele>
        <time>2024-09-15T13:32:03.000Z</time>
      </trkpt>
      <trkpt lat="46.39587" lon="6.09726">
        <ele>1248.993885</ele>
        <time>2024-09-15T13:32:04.000Z</time>
      </trkpt>
      <trkpt lat="46.39585" lon="6.09729">
        <ele>1248.83959</ele>
        <time>2024-09-15T13:32:05.000Z</time>
      </trkpt>
      <trkpt lat="46.39584" lon="6.09733">
        <ele>1248.696214</ele>
        <time>2024-09-15T13:32:06.000Z</time>
      </trkpt>
      <trkpt lat="46.39583" lon="6.0974">
        <ele>1248.465127</ele>
        <time>2024-09-15T13:32:08.000Z</time>
      </trkpt>
      <trkpt lat="46.39583" lon="6.09743">
        <ele>1248.337374</ele>
        <time>2024-09-15T13:32:09.000Z</time>
      </trkpt>
      <trkpt lat="46.39583" lon="6.09752">
        <ele>1248.050751</ele>
        <time>2024-09-15T13:32:11.000Z</time>
      </trkpt>
      <trkpt lat="46.39582" lon="6.09757">
        <ele>1247.874592</ele>
        <time>2024-09-15T13:32:12.000Z</time>
      </trkpt>
      <trkpt lat="46.39581" lon="6.09762">
        <ele>1247.672168</ele>
        <time>2024-09-15T13:32:13.000Z</time>
      </trkpt>
      <trkpt lat="46.39579" lon="6.09767">
        <ele>1247.477425</ele>
        <time>2024-09-15T13:32:14.000Z</time>
      </trkpt>
      <trkpt lat="46.39578" lon="6.09772">
        <ele>1247.306921</ele>
        <time>2024-09-15T13:32:15.000Z</time>
      </trkpt>
      <trkpt lat="46.39577" lon="6.09777">
        <ele>1247.133992</ele>
        <time>2024-09-15T13:32:16.000Z</time>
      </trkpt>
      <trkpt lat="46.39576" lon="6.09783">
        <ele>1246.931398</ele>
        <time>2024-09-15T13:32:17.000Z</time>
      </trkpt>
      <trkpt lat="46.39574" lon="6.09786">
        <ele>1246.794559</ele>
        <time>2024-09-15T13:32:18.000Z</time>
      </trkpt>
      <trkpt lat="46.39573" lon="6.09789">
        <ele>1246.672223</ele>
        <time>2024-09-15T13:32:19.000Z</time>
      </trkpt>
      <trkpt lat="46.39572" lon="6.0979">
        <ele>1246.617488</ele>
        <time>2024-09-15T13:32:20.000Z</time>
      </trkpt>
      <trkpt lat="46.39572" lon="6.0979">
        <ele>1246.604205</ele>
        <time>2024-09-15T13:32:21.000Z</time>
      </trkpt>
      <trkpt lat="46.39572" lon="6.0979">
        <ele>1246.604205</ele>
        <time>2024-09-15T13:32:22.000Z</time>
      </trkpt>
      <trkpt lat="46.39572" lon="6.09791">
        <ele>1246.587601</ele>
        <time>2024-09-15T13:32:23.000Z</time>
      </trkpt>
      <trkpt lat="46.39572" lon="6.09793">
        <ele>1246.521012</ele>
        <time>2024-09-15T13:32:24.000Z</time>
      </trkpt>
      <trkpt lat="46.39571" lon="6.09798">
        <ele>1246.365549</ele>
        <time>2024-09-15T13:32:27.000Z</time>
      </trkpt>
      <trkpt lat="46.39571" lon="6.09798">
        <ele>1246.345925</ele>
        <time>2024-09-15T13:32:28.000Z</time>
      </trkpt>
      <trkpt lat="46.39568" lon="6.09805">
        <ele>1246.061611</ele>
        <time>2024-09-15T13:32:35.000Z</time>
      </trkpt>
      <trkpt lat="46.39566" lon="6.0981">
        <ele>1245.855137</ele>
        <time>2024-09-15T13:32:37.000Z</time>
      </trkpt>
      <trkpt lat="46.39564" lon="6.09813">
        <ele>1245.761994</ele>
        <time>2024-09-15T13:32:38.000Z</time>
      </trkpt>
      <trkpt lat="46.39563" lon="6.09815">
        <ele>1245.658079</ele>
        <time>2024-09-15T13:32:39.000Z</time>
      </trkpt>
      <trkpt lat="46.3956" lon="6.09817">
        <ele>1245.521364</ele>
        <time>2024-09-15T13:32:40.000Z</time>
      </trkpt>
      <trkpt lat="46.39558" lon="6.0982">
        <ele>1245.377113</ele>
        <time>2024-09-15T13:32:41.000Z</time>
      </trkpt>
      <trkpt lat="46.39556" lon="6.09822">
        <ele>1245.236736</ele>
        <time>2024-09-15T13:32:42.000Z</time>
      </trkpt>
      <trkpt lat="46.39553" lon="6.09824">
        <ele>1245.078406</ele>
        <time>2024-09-15T13:32:43.000Z</time>
      </trkpt>
      <trkpt lat="46.39545" lon="6.09833">
        <ele>1244.610604</ele>
        <time>2024-09-15T13:32:46.000Z</time>
      </trkpt>
      <trkpt lat="46.39539" lon="6.09838">
        <ele>1244.275085</ele>
        <time>2024-09-15T13:32:48.000Z</time>
      </trkpt>
      <trkpt lat="46.39534" lon="6.09843">
        <ele>1244.000251</ele>
        <time>2024-09-15T13:32:50.000Z</time>
      </trkpt>
      <trkpt lat="46.39525" lon="6.09851">
        <ele>1243.468232</ele>
        <time>2024-09-15T13:32:53.000Z</time>
      </trkpt>
      <trkpt lat="46.39519" lon="6.09854">
        <ele>1243.155576</ele>
        <time>2024-09-15T13:32:55.000Z</time>
      </trkpt>
      <trkpt lat="46.39514" lon="6.09855">
        <ele>1242.948791</ele>
        <time>2024-09-15T13:32:56.000Z</time>
      </trkpt>
      <trkpt lat="46.3951" lon="6.09859">
        <ele>1242.714535</ele>
        <time>2024-09-15T13:32:57.000Z</time>
      </trkpt>
      <trkpt lat="46.39503" lon="6.09862">
        <ele>1242.375906</ele>
        <time>2024-09-15T13:32:58.000Z</time>
      </trkpt>
      <trkpt lat="46.39498" lon="6.09864">
        <ele>1242.102966</ele>
        <time>2024-09-15T13:32:59.000Z</time>
      </trkpt>
      <trkpt lat="46.39487" lon="6.09868">
        <ele>1241.538506</ele>
        <time>2024-09-15T13:33:01.000Z</time>
      </trkpt>
      <trkpt lat="46.39483" lon="6.09868">
        <ele>1241.383855</ele>
        <time>2024-09-15T13:33:02.000Z</time>
      </trkpt>
      <trkpt lat="46.3948" lon="6.09869">
        <ele>1241.218005</ele>
        <time>2024-09-15T13:33:03.000Z</time>
      </trkpt>
      <trkpt lat="46.39477" lon="6.0987">
        <ele>1241.082967</ele>
        <time>2024-09-15T13:33:04.000Z</time>
      </trkpt>
      <trkpt lat="46.39476" lon="6.09871">
        <ele>1240.999075</ele>
        <time>2024-09-15T13:33:05.000Z</time>
      </trkpt>
      <trkpt lat="46.39473" lon="6.09871">
        <ele>1240.887093</ele>
        <time>2024-09-15T13:33:06.000Z</time>
      </trkpt>
      <trkpt lat="46.39472" lon="6.09872">
        <ele>1240.819357</ele>
        <time>2024-09-15T13:33:07.000Z</time>
      </trkpt>
      <trkpt lat="46.3947" lon="6.09871">
        <ele>1240.742402</ele>
        <time>2024-09-15T13:33:08.000Z</time>
      </trkpt>
      <trkpt lat="46.3947" lon="6.09871">
        <ele>1240.72758</ele>
        <time>2024-09-15T13:33:09.000Z</time>
      </trkpt>
      <trkpt lat="46.3947" lon="6.09871">
        <ele>1240.72758</ele>
        <time>2024-09-15T13:33:10.000Z</time>
      </trkpt>
      <trkpt lat="46.39451" lon="6.09873">
        <ele>1239.782354</ele>
        <time>2024-09-15T13:33:37.000Z</time>
      </trkpt>
      <trkpt lat="46.39449" lon="6.09873">
        <ele>1239.723722</ele>
        <time>2024-09-15T13:33:38.000Z</time>
      </trkpt>
      <trkpt lat="46.39448" lon="6.09873">
        <ele>1239.658963</ele>
        <time>2024-09-15T13:33:39.000Z</time>
      </trkpt>
      <trkpt lat="46.39447" lon="6.09874">
        <ele>1239.590257</ele>
        <time>2024-09-15T13:33:40.000Z</time>
      </trkpt>
      <trkpt lat="46.39443" lon="6.09875">
        <ele>1239.428577</ele>
        <time>2024-09-15T13:33:43.000Z</time>
      </trkpt>
      <trkpt lat="46.39442" lon="6.09875">
        <ele>1239.365894</ele>
        <time>2024-09-15T13:33:44.000Z</time>
      </trkpt>
      <trkpt lat="46.39442" lon="6.09875">
        <ele>1239.349996</ele>
        <time>2024-09-15T13:33:45.000Z</time>
      </trkpt>
      <trkpt lat="46.39442" lon="6.09875">
        <ele>1239.349996</ele>
        <time>2024-09-15T13:33:47.000Z</time>
      </trkpt>
      <trkpt lat="46.3944" lon="6.09876">
        <ele>1239.251488</ele>
        <time>2024-09-15T13:33:51.000Z</time>
      </trkpt>
      <trkpt lat="46.39438" lon="6.09876">
        <ele>1239.173807</ele>
        <time>2024-09-15T13:33:53.000Z</time>
      </trkpt>
      <trkpt lat="46.39436" lon="6.09877">
        <ele>1239.074742</ele>
        <time>2024-09-15T13:33:54.000Z</time>
      </trkpt>
      <trkpt lat="46.39433" lon="6.09878">
        <ele>1238.927572</ele>
        <time>2024-09-15T13:33:55.000Z</time>
      </trkpt>
      <trkpt lat="46.3943" lon="6.09879">
        <ele>1238.742685</ele>
        <time>2024-09-15T13:33:56.000Z</time>
      </trkpt>
      <trkpt lat="46.39421" lon="6.09882">
        <ele>1238.464943</ele>
        <time>2024-09-15T13:33:59.000Z</time>
      </trkpt>
      <trkpt lat="46.39418" lon="6.09882">
        <ele>1238.386493</ele>
        <time>2024-09-15T13:34:00.000Z</time>
      </trkpt>
      <trkpt lat="46.39415" lon="6.09882">
        <ele>1238.310572</ele>
        <time>2024-09-15T13:34:01.000Z</time>
      </trkpt>
      <trkpt lat="46.39411" lon="6.09881">
        <ele>1238.214037</ele>
        <time>2024-09-15T13:34:03.000Z</time>
      </trkpt>
      <trkpt lat="46.39409" lon="6.09881">
        <ele>1238.150786</ele>
        <time>2024-09-15T13:34:04.000Z</time>
      </trkpt>
      <trkpt lat="46.39407" lon="6.09881">
        <ele>1238.105113</ele>
        <time>2024-09-15T13:34:05.000Z</time>
      </trkpt>
      <trkpt lat="46.39405" lon="6.09882">
        <ele>1238.046687</ele>
        <time>2024-09-15T13:34:06.000Z</time>
      </trkpt>
      <trkpt lat="46.39402" lon="6.09882">
        <ele>1237.980331</ele>
        <time>2024-09-15T13:34:07.000Z</time>
      </trkpt>
      <trkpt lat="46.39394" lon="6.09885">
        <ele>1237.778609</ele>
        <time>2024-09-15T13:34:10.000Z</time>
      </trkpt>
      <trkpt lat="46.39392" lon="6.09885">
        <ele>1237.712805</ele>
        <time>2024-09-15T13:34:11.000Z</time>
      </trkpt>
      <trkpt lat="46.39389" lon="6.09886">
        <ele>1237.630336</ele>
        <time>2024-09-15T13:34:12.000Z</time>
      </trkpt>
      <trkpt lat="46.39382" lon="6.09889">
        <ele>1237.457888</ele>
        <time>2024-09-15T13:34:14.000Z</time>
      </trkpt>
      <trkpt lat="46.3938" lon="6.09892">
        <ele>1237.383016</ele>
        <time>2024-09-15T13:34:15.000Z</time>
      </trkpt>
      <trkpt lat="46.39377" lon="6.09895">
        <ele>1237.289345</ele>
        <time>2024-09-15T13:34:16.000Z</time>
      </trkpt>
      <trkpt lat="46.39374" lon="6.09897">
        <ele>1237.211506</ele>
        <time>2024-09-15T13:34:17.000Z</time>
      </trkpt>
      <trkpt lat="46.39371" lon="6.099">
        <ele>1237.123422</ele>
        <time>2024-09-15T13:34:18.000Z</time>
      </trkpt>
      <trkpt lat="46.39369" lon="6.09902">
        <ele>1237.052009</ele>
        <time>2024-09-15T13:34:19.000Z</time>
      </trkpt>
      <trkpt lat="46.39365" lon="6.09907">
        <ele>1236.916812</ele>
        <time>2024-09-15T13:34:21.000Z</time>
      </trkpt>
      <trkpt lat="46.39362" lon="6.09913">
        <ele>1236.792429</ele>
        <time>2024-09-15T13:34:23.000Z</time>
      </trkpt>
      <trkpt lat="46.3936" lon="6.09916">
        <ele>1236.712979</ele>
        <time>2024-09-15T13:34:24.000Z</time>
      </trkpt>
      <trkpt lat="46.39354" lon="6.09923">
        <ele>1236.531491</ele>
        <time>2024-09-15T13:34:26.000Z</time>
      </trkpt>
      <trkpt lat="46.39351" lon="6.09925">
        <ele>1236.447952</ele>
        <time>2024-09-15T13:34:27.000Z</time>
      </trkpt>
      <trkpt lat="46.39349" lon="6.09927">
        <ele>1236.364322</ele>
        <time>2024-09-15T13:34:28.000Z</time>
      </trkpt>
      <trkpt lat="46.39345" lon="6.09929">
        <ele>1236.264074</ele>
        <time>2024-09-15T13:34:29.000Z</time>
      </trkpt>
      <trkpt lat="46.39339" lon="6.09932">
        <ele>1236.11048</ele>
        <time>2024-09-15T13:34:31.000Z</time>
      </trkpt>
      <trkpt lat="46.39337" lon="6.09934">
        <ele>1236.03824</ele>
        <time>2024-09-15T13:34:32.000Z</time>
      </trkpt>
      <trkpt lat="46.39334" lon="6.09937">
        <ele>1235.967522</ele>
        <time>2024-09-15T13:34:33.000Z</time>
      </trkpt>
      <trkpt lat="46.39327" lon="6.09946">
        <ele>1235.723154</ele>
        <time>2024-09-15T13:34:36.000Z</time>
      </trkpt>
      <trkpt lat="46.39325" lon="6.09948">
        <ele>1235.647357</ele>
        <time>2024-09-15T13:34:37.000Z</time>
      </trkpt>
      <trkpt lat="46.39318" lon="6.09954">
        <ele>1235.45051</ele>
        <time>2024-09-15T13:34:40.000Z</time>
      </trkpt>
      <trkpt lat="46.39317" lon="6.09955">
        <ele>1235.405709</ele>
        <time>2024-09-15T13:34:41.000Z</time>
      </trkpt>
      <trkpt lat="46.39315" lon="6.09956">
        <ele>1235.358077</ele>
        <time>2024-09-15T13:34:42.000Z</time>
      </trkpt>
      <trkpt lat="46.39312" lon="6.09957">
        <ele>1235.288355</ele>
        <time>2024-09-15T13:34:43.000Z</time>
      </trkpt>
      <trkpt lat="46.39311" lon="6.09957">
        <ele>1235.273175</ele>
        <time>2024-09-15T13:34:44.000Z</time>
      </trkpt>
      <trkpt lat="46.3931" lon="6.09957">
        <ele>1235.244483</ele>
        <time>2024-09-15T13:34:45.000Z</time>
      </trkpt>
      <trkpt lat="46.39309" lon="6.09958">
        <ele>1235.208382</ele>
        <time>2024-09-15T13:34:46.000Z</time>
      </trkpt>
      <trkpt lat="46.39308" lon="6.09959">
        <ele>1235.172463</ele>
        <time>2024-09-15T13:34:47.000Z</time>
      </trkpt>
      <trkpt lat="46.39307" lon="6.0996">
        <ele>1235.137293</ele>
        <time>2024-09-15T13:34:48.000Z</time>
      </trkpt>
      <trkpt lat="46.39306" lon="6.09962">
        <ele>1235.10569</ele>
        <time>2024-09-15T13:34:49.000Z</time>
      </trkpt>
      <trkpt lat="46.39306" lon="6.09963">
        <ele>1235.089783</ele>
        <time>2024-09-15T13:34:50.000Z</time>
      </trkpt>
      <trkpt lat="46.39305" lon="6.09963">
        <ele>1235.075335</ele>
        <time>2024-09-15T13:34:51.000Z</time>
      </trkpt>
      <trkpt lat="46.39304" lon="6.09965">
        <ele>1235.018848</ele>
        <time>2024-09-15T13:34:52.000Z</time>
      </trkpt>
      <trkpt lat="46.39301" lon="6.09966">
        <ele>1234.956392</ele>
        <time>2024-09-15T13:34:53.000Z</time>
      </trkpt>
      <trkpt lat="46.393" lon="6.09967">
        <ele>1234.924251</ele>
        <time>2024-09-15T13:34:54.000Z</time>
      </trkpt>
      <trkpt lat="46.393" lon="6.09969">
        <ele>1234.901263</ele>
        <time>2024-09-15T13:34:55.000Z</time>
      </trkpt>
      <trkpt lat="46.39299" lon="6.0997">
        <ele>1234.866245</ele>
        <time>2024-09-15T13:34:56.000Z</time>
      </trkpt>
      <trkpt lat="46.39298" lon="6.09971">
        <ele>1234.835511</ele>
        <time>2024-09-15T13:34:57.000Z</time>
      </trkpt>
      <trkpt lat="46.39297" lon="6.09972">
        <ele>1234.803369</ele>
        <time>2024-09-15T13:34:58.000Z</time>
      </trkpt>
      <trkpt lat="46.39296" lon="6.09973">
        <ele>1234.765164</ele>
        <time>2024-09-15T13:34:59.000Z</time>
      </trkpt>
      <trkpt lat="46.3929" lon="6.09979">
        <ele>1234.602273</ele>
        <time>2024-09-15T13:35:02.000Z</time>
      </trkpt>
      <trkpt lat="46.3929" lon="6.09979">
        <ele>1234.591568</ele>
        <time>2024-09-15T13:35:03.000Z</time>
      </trkpt>
      <trkpt lat="46.3929" lon="6.09979">
        <ele>1234.591568</ele>
        <time>2024-09-15T13:35:04.000Z</time>
      </trkpt>
      <trkpt lat="46.3929" lon="6.09979">
        <ele>1234.587258</ele>
        <time>2024-09-15T13:35:05.000Z</time>
      </trkpt>
      <trkpt lat="46.39282" lon="6.09988">
        <ele>1234.336327</ele>
        <time>2024-09-15T13:35:22.000Z</time>
      </trkpt>
      <trkpt lat="46.39281" lon="6.0999">
        <ele>1234.284582</ele>
        <time>2024-09-15T13:35:24.000Z</time>
      </trkpt>
      <trkpt lat="46.39278" lon="6.09993">
        <ele>1234.185231</ele>
        <time>2024-09-15T13:35:25.000Z</time>
      </trkpt>
      <trkpt lat="46.39276" lon="6.09996">
        <ele>1234.116689</ele>
        <time>2024-09-15T13:35:26.000Z</time>
      </trkpt>
      <trkpt lat="46.39274" lon="6.09997">
        <ele>1234.074627</ele>
        <time>2024-09-15T13:35:27.000Z</time>
      </trkpt>
      <trkpt lat="46.39273" lon="6.09998">
        <ele>1234.057093</ele>
        <time>2024-09-15T13:35:28.000Z</time>
      </trkpt>
      <trkpt lat="46.39271" lon="6.1">
        <ele>1234.046544</ele>
        <time>2024-09-15T13:35:29.000Z</time>
      </trkpt>
      <trkpt lat="46.39264" lon="6.10007">
        <ele>1234.003464</ele>
        <time>2024-09-15T13:35:33.000Z</time>
      </trkpt>
      <trkpt lat="46.39258" lon="6.10013">
        <ele>1233.968601</ele>
        <time>2024-09-15T13:35:36.000Z</time>
      </trkpt>
      <trkpt lat="46.39256" lon="6.10016">
        <ele>1233.952559</ele>
        <time>2024-09-15T13:35:38.000Z</time>
      </trkpt>
      <trkpt lat="46.39254" lon="6.10018">
        <ele>1233.939533</ele>
        <time>2024-09-15T13:35:40.000Z</time>
      </trkpt>
      <trkpt lat="46.39252" lon="6.1002">
        <ele>1233.928825</ele>
        <time>2024-09-15T13:35:41.000Z</time>
      </trkpt>
      <trkpt lat="46.3925" lon="6.10021">
        <ele>1233.919787</ele>
        <time>2024-09-15T13:35:42.000Z</time>
      </trkpt>
      <trkpt lat="46.39249" lon="6.10023">
        <ele>1233.912416</ele>
        <time>2024-09-15T13:35:43.000Z</time>
      </trkpt>
      <trkpt lat="46.39246" lon="6.10027">
        <ele>1233.891052</ele>
        <time>2024-09-15T13:35:45.000Z</time>
      </trkpt>
      <trkpt lat="46.39245" lon="6.10029">
        <ele>1233.881234</ele>
        <time>2024-09-15T13:35:46.000Z</time>
      </trkpt>
      <trkpt lat="46.39242" lon="6.1003">
        <ele>1233.869648</ele>
        <time>2024-09-15T13:35:47.000Z</time>
      </trkpt>
      <trkpt lat="46.39239" lon="6.10033">
        <ele>1233.851816</ele>
        <time>2024-09-15T13:35:48.000Z</time>
      </trkpt>
      <trkpt lat="46.39233" lon="6.10037">
        <ele>1233.819133</ele>
        <time>2024-09-15T13:35:50.000Z</time>
      </trkpt>
      <trkpt lat="46.39223" lon="6.10044">
        <ele>1233.764465</ele>
        <time>2024-09-15T13:35:52.000Z</time>
      </trkpt>
      <trkpt lat="46.39207" lon="6.10053">
        <ele>1233.679478</ele>
        <time>2024-09-15T13:35:54.000Z</time>
      </trkpt>
      <trkpt lat="46.39195" lon="6.10062">
        <ele>1233.610695</ele>
        <time>2024-09-15T13:35:56.000Z</time>
      </trkpt>
      <trkpt lat="46.39191" lon="6.10066">
        <ele>1233.587026</ele>
        <time>2024-09-15T13:35:57.000Z</time>
      </trkpt>
      <trkpt lat="46.39187" lon="6.10069">
        <ele>1233.56516</ele>
        <time>2024-09-15T13:35:58.000Z</time>
      </trkpt>
      <trkpt lat="46.39184" lon="6.10071">
        <ele>1233.549454</ele>
        <time>2024-09-15T13:35:59.000Z</time>
      </trkpt>
      <trkpt lat="46.39182" lon="6.10072">
        <ele>1233.538148</ele>
        <time>2024-09-15T13:36:00.000Z</time>
      </trkpt>
      <trkpt lat="46.39181" lon="6.10073">
        <ele>1233.531534</ele>
        <time>2024-09-15T13:36:01.000Z</time>
      </trkpt>
      <trkpt lat="46.3918" lon="6.10074">
        <ele>1233.524404</ele>
        <time>2024-09-15T13:36:02.000Z</time>
      </trkpt>
      <trkpt lat="46.39179" lon="6.10075">
        <ele>1233.518002</ele>
        <time>2024-09-15T13:36:03.000Z</time>
      </trkpt>
      <trkpt lat="46.39178" lon="6.10076">
        <ele>1233.51299</ele>
        <time>2024-09-15T13:36:04.000Z</time>
      </trkpt>
      <trkpt lat="46.39173" lon="6.10078">
        <ele>1233.488428</ele>
        <time>2024-09-15T13:36:07.000Z</time>
      </trkpt>
      <trkpt lat="46.39171" lon="6.1008">
        <ele>1233.474923</ele>
        <time>2024-09-15T13:36:08.000Z</time>
      </trkpt>
      <trkpt lat="46.39166" lon="6.10081">
        <ele>1233.452295</ele>
        <time>2024-09-15T13:36:10.000Z</time>
      </trkpt>
      <trkpt lat="46.39165" lon="6.10082">
        <ele>1233.448682</ele>
        <time>2024-09-15T13:36:11.000Z</time>
      </trkpt>
      <trkpt lat="46.39165" lon="6.10082">
        <ele>1233.446004</ele>
        <time>2024-09-15T13:36:12.000Z</time>
      </trkpt>
      <trkpt lat="46.39164" lon="6.10083">
        <ele>1233.438123</ele>
        <time>2024-09-15T13:36:14.000Z</time>
      </trkpt>
      <trkpt lat="46.39164" lon="6.10083">
        <ele>1233.438123</ele>
        <time>2024-09-15T13:36:17.000Z</time>
      </trkpt>
      <trkpt lat="46.39147" lon="6.10098">
        <ele>1233.34305</ele>
        <time>2024-09-15T13:36:50.000Z</time>
      </trkpt>
      <trkpt lat="46.39145" lon="6.10099">
        <ele>1233.332227</ele>
        <time>2024-09-15T13:36:51.000Z</time>
      </trkpt>
      <trkpt lat="46.39143" lon="6.10102">
        <ele>1233.315952</ele>
        <time>2024-09-15T13:36:52.000Z</time>
      </trkpt>
      <trkpt lat="46.39139" lon="6.10105">
        <ele>1233.295568</ele>
        <time>2024-09-15T13:36:53.000Z</time>
      </trkpt>
      <trkpt lat="46.39133" lon="6.10113">
        <ele>1233.254758</ele>
        <time>2024-09-15T13:36:56.000Z</time>
      </trkpt>
      <trkpt lat="46.39131" lon="6.10117">
        <ele>1233.239579</ele>
        <time>2024-09-15T13:36:57.000Z</time>
      </trkpt>
      <trkpt lat="46.39126" lon="6.10122">
        <ele>1233.210926</ele>
        <time>2024-09-15T13:36:58.000Z</time>
      </trkpt>
      <trkpt lat="46.39122" lon="6.10127">
        <ele>1233.182575</ele>
        <time>2024-09-15T13:36:59.000Z</time>
      </trkpt>
      <trkpt lat="46.39114" lon="6.10139">
        <ele>1232.55878</ele>
        <time>2024-09-15T13:37:01.000Z</time>
      </trkpt>
      <trkpt lat="46.3911" lon="6.10145">
        <ele>1232.175066</ele>
        <time>2024-09-15T13:37:02.000Z</time>
      </trkpt>
      <trkpt lat="46.39108" lon="6.10152">
        <ele>1231.82259</ele>
        <time>2024-09-15T13:37:03.000Z</time>
      </trkpt>
      <trkpt lat="46.39105" lon="6.10158">
        <ele>1231.49344</ele>
        <time>2024-09-15T13:37:04.000Z</time>
      </trkpt>
      <trkpt lat="46.39103" lon="6.10164">
        <ele>1231.17659</ele>
        <time>2024-09-15T13:37:05.000Z</time>
      </trkpt>
      <trkpt lat="46.39101" lon="6.1017">
        <ele>1230.865699</ele>
        <time>2024-09-15T13:37:06.000Z</time>
      </trkpt>
      <trkpt lat="46.39099" lon="6.10178">
        <ele>1230.507422</ele>
        <time>2024-09-15T13:37:07.000Z</time>
      </trkpt>
      <trkpt lat="46.39098" lon="6.10184">
        <ele>1230.200054</ele>
        <time>2024-09-15T13:37:08.000Z</time>
      </trkpt>
      <trkpt lat="46.39097" lon="6.10192">
        <ele>1229.83516</ele>
        <time>2024-09-15T13:37:09.000Z</time>
      </trkpt>
      <trkpt lat="46.39096" lon="6.10201">
        <ele>1229.422257</ele>
        <time>2024-09-15T13:37:10.000Z</time>
      </trkpt>
      <trkpt lat="46.39091" lon="6.10221">
        <ele>1228.440776</ele>
        <time>2024-09-15T13:37:12.000Z</time>
      </trkpt>
      <trkpt lat="46.39089" lon="6.1023">
        <ele>1228.01633</ele>
        <time>2024-09-15T13:37:13.000Z</time>
      </trkpt>
      <trkpt lat="46.39086" lon="6.10249">
        <ele>1227.084396</ele>
        <time>2024-09-15T13:37:15.000Z</time>
      </trkpt>
      <trkpt lat="46.39084" lon="6.10259">
        <ele>1226.623122</ele>
        <time>2024-09-15T13:37:16.000Z</time>
      </trkpt>
      <trkpt lat="46.39081" lon="6.10267">
        <ele>1226.209533</ele>
        <time>2024-09-15T13:37:17.000Z</time>
      </trkpt>
      <trkpt lat="46.39079" lon="6.10275">
        <ele>1225.816027</ele>
        <time>2024-09-15T13:37:18.000Z</time>
      </trkpt>
      <trkpt lat="46.39075" lon="6.10283">
        <ele>1225.342382</ele>
        <time>2024-09-15T13:37:19.000Z</time>
      </trkpt>
      <trkpt lat="46.39072" lon="6.10291">
        <ele>1224.951239</ele>
        <time>2024-09-15T13:37:20.000Z</time>
      </trkpt>
      <trkpt lat="46.39072" lon="6.10295">
        <ele>1224.771722</ele>
        <time>2024-09-15T13:37:21.000Z</time>
      </trkpt>
      <trkpt lat="46.39074" lon="6.10299">
        <ele>1224.532995</ele>
        <time>2024-09-15T13:37:22.000Z</time>
      </trkpt>
      <trkpt lat="46.39076" lon="6.10303">
        <ele>1224.282844</ele>
        <time>2024-09-15T13:37:23.000Z</time>
      </trkpt>
      <trkpt lat="46.39085" lon="6.1031">
        <ele>1223.637726</ele>
        <time>2024-09-15T13:37:25.000Z</time>
      </trkpt>
      <trkpt lat="46.39088" lon="6.10314">
        <ele>1223.357697</ele>
        <time>2024-09-15T13:37:26.000Z</time>
      </trkpt>
      <trkpt lat="46.39093" lon="6.10325">
        <ele>1222.747586</ele>
        <time>2024-09-15T13:37:28.000Z</time>
      </trkpt>
      <trkpt lat="46.39097" lon="6.10336">
        <ele>1222.146508</ele>
        <time>2024-09-15T13:37:30.000Z</time>
      </trkpt>
      <trkpt lat="46.39099" lon="6.10342">
        <ele>1221.850956</ele>
        <time>2024-09-15T13:37:31.000Z</time>
      </trkpt>
      <trkpt lat="46.39105" lon="6.10357">
        <ele>1220.995647</ele>
        <time>2024-09-15T13:37:34.000Z</time>
      </trkpt>
      <trkpt lat="46.3911" lon="6.10367">
        <ele>1219.903276</ele>
        <time>2024-09-15T13:37:36.000Z</time>
      </trkpt>
      <trkpt lat="46.39115" lon="6.1038">
        <ele>1218.74872</ele>
        <time>2024-09-15T13:37:38.000Z</time>
      </trkpt>
      <trkpt lat="46.39117" lon="6.10395">
        <ele>1217.420063</ele>
        <time>2024-09-15T13:37:40.000Z</time>
      </trkpt>
      <trkpt lat="46.3912" lon="6.10401">
        <ele>1216.791597</ele>
        <time>2024-09-15T13:37:41.000Z</time>
      </trkpt>
      <trkpt lat="46.39122" lon="6.10407">
        <ele>1216.249965</ele>
        <time>2024-09-15T13:37:42.000Z</time>
      </trkpt>
      <trkpt lat="46.39122" lon="6.10414">
        <ele>1215.669505</ele>
        <time>2024-09-15T13:37:43.000Z</time>
      </trkpt>
      <trkpt lat="46.39122" lon="6.10422">
        <ele>1215.031994</ele>
        <time>2024-09-15T13:37:44.000Z</time>
      </trkpt>
      <trkpt lat="46.39121" lon="6.1043">
        <ele>1214.310695</ele>
        <time>2024-09-15T13:37:45.000Z</time>
      </trkpt>
      <trkpt lat="46.3912" lon="6.1044">
        <ele>1213.538389</ele>
        <time>2024-09-15T13:37:46.000Z</time>
      </trkpt>
      <trkpt lat="46.39119" lon="6.10448">
        <ele>1212.796859</ele>
        <time>2024-09-15T13:37:47.000Z</time>
      </trkpt>
      <trkpt lat="46.39119" lon="6.10456">
        <ele>1212.129565</ele>
        <time>2024-09-15T13:37:48.000Z</time>
      </trkpt>
      <trkpt lat="46.39119" lon="6.10464">
        <ele>1211.53252</ele>
        <time>2024-09-15T13:37:49.000Z</time>
      </trkpt>
      <trkpt lat="46.39119" lon="6.10472">
        <ele>1210.819418</ele>
        <time>2024-09-15T13:37:50.000Z</time>
      </trkpt>
      <trkpt lat="46.39122" lon="6.10481">
        <ele>1210.033057</ele>
        <time>2024-09-15T13:37:51.000Z</time>
      </trkpt>
      <trkpt lat="46.39123" lon="6.105">
        <ele>1208.413203</ele>
        <time>2024-09-15T13:37:53.000Z</time>
      </trkpt>
      <trkpt lat="46.39124" lon="6.10508">
        <ele>1207.730584</ele>
        <time>2024-09-15T13:37:54.000Z</time>
      </trkpt>
      <trkpt lat="46.39122" lon="6.10517">
        <ele>1207.024802</ele>
        <time>2024-09-15T13:37:55.000Z</time>
      </trkpt>
      <trkpt lat="46.39123" lon="6.10524">
        <ele>1206.430065</ele>
        <time>2024-09-15T13:37:56.000Z</time>
      </trkpt>
      <trkpt lat="46.39121" lon="6.10531">
        <ele>1205.783294</ele>
        <time>2024-09-15T13:37:57.000Z</time>
      </trkpt>
      <trkpt lat="46.39121" lon="6.10537">
        <ele>1205.285611</ele>
        <time>2024-09-15T13:37:58.000Z</time>
      </trkpt>
      <trkpt lat="46.39122" lon="6.10542">
        <ele>1204.910719</ele>
        <time>2024-09-15T13:37:59.000Z</time>
      </trkpt>
      <trkpt lat="46.39121" lon="6.10545">
        <ele>1204.597086</ele>
        <time>2024-09-15T13:38:00.000Z</time>
      </trkpt>
      <trkpt lat="46.39119" lon="6.1055">
        <ele>1204.186095</ele>
        <time>2024-09-15T13:38:01.000Z</time>
      </trkpt>
      <trkpt lat="46.39118" lon="6.10555">
        <ele>1203.711043</ele>
        <time>2024-09-15T13:38:02.000Z</time>
      </trkpt>
      <trkpt lat="46.39117" lon="6.10561">
        <ele>1203.204294</ele>
        <time>2024-09-15T13:38:03.000Z</time>
      </trkpt>
      <trkpt lat="46.39117" lon="6.10565">
        <ele>1202.830947</ele>
        <time>2024-09-15T13:38:04.000Z</time>
      </trkpt>
      <trkpt lat="46.39116" lon="6.10569">
        <ele>1202.499601</ele>
        <time>2024-09-15T13:38:05.000Z</time>
      </trkpt>
      <trkpt lat="46.39116" lon="6.10572">
        <ele>1202.227524</ele>
        <time>2024-09-15T13:38:06.000Z</time>
      </trkpt>
      <trkpt lat="46.39114" lon="6.10575">
        <ele>1201.956641</ele>
        <time>2024-09-15T13:38:07.000Z</time>
      </trkpt>
      <trkpt lat="46.39113" lon="6.10577">
        <ele>1201.688073</ele>
        <time>2024-09-15T13:38:08.000Z</time>
      </trkpt>
      <trkpt lat="46.39112" lon="6.1058">
        <ele>1201.467175</ele>
        <time>2024-09-15T13:38:09.000Z</time>
      </trkpt>
      <trkpt lat="46.39112" lon="6.10583">
        <ele>1201.224043</ele>
        <time>2024-09-15T13:38:10.000Z</time>
      </trkpt>
      <trkpt lat="46.39111" lon="6.10586">
        <ele>1200.952761</ele>
        <time>2024-09-15T13:38:11.000Z</time>
      </trkpt>
      <trkpt lat="46.3911" lon="6.10588">
        <ele>1200.766799</ele>
        <time>2024-09-15T13:38:12.000Z</time>
      </trkpt>
      <trkpt lat="46.3911" lon="6.10589">
        <ele>1200.60262</ele>
        <time>2024-09-15T13:38:13.000Z</time>
      </trkpt>
      <trkpt lat="46.39109" lon="6.1059">
        <ele>1200.446525</ele>
        <time>2024-09-15T13:38:14.000Z</time>
      </trkpt>
      <trkpt lat="46.39108" lon="6.10592">
        <ele>1200.316201</ele>
        <time>2024-09-15T13:38:15.000Z</time>
      </trkpt>
      <trkpt lat="46.39107" lon="6.10594">
        <ele>1200.063273</ele>
        <time>2024-09-15T13:38:16.000Z</time>
      </trkpt>
      <trkpt lat="46.39106" lon="6.10597">
        <ele>1199.847426</ele>
        <time>2024-09-15T13:38:17.000Z</time>
      </trkpt>
      <trkpt lat="46.39107" lon="6.10599">
        <ele>1199.622246</ele>
        <time>2024-09-15T13:38:18.000Z</time>
      </trkpt>
      <trkpt lat="46.39106" lon="6.10604">
        <ele>1198.956321</ele>
        <time>2024-09-15T13:38:20.000Z</time>
      </trkpt>
      <trkpt lat="46.39106" lon="6.10607">
        <ele>1198.514453</ele>
        <time>2024-09-15T13:38:21.000Z</time>
      </trkpt>
      <trkpt lat="46.39105" lon="6.10609">
        <ele>1198.064281</ele>
        <time>2024-09-15T13:38:22.000Z</time>
      </trkpt>
      <trkpt lat="46.39104" lon="6.10611">
        <ele>1197.666778</ele>
        <time>2024-09-15T13:38:23.000Z</time>
      </trkpt>
      <trkpt lat="46.39103" lon="6.10612">
        <ele>1197.547502</ele>
        <time>2024-09-15T13:38:24.000Z</time>
      </trkpt>
      <trkpt lat="46.39103" lon="6.10612">
        <ele>1197.547502</ele>
        <time>2024-09-15T13:38:25.000Z</time>
      </trkpt>
      <trkpt lat="46.39103" lon="6.10612">
        <ele>1197.547502</ele>
        <time>2024-09-15T13:38:26.000Z</time>
      </trkpt>
      <trkpt lat="46.391" lon="6.10618">
        <ele>1196.37835</ele>
        <time>2024-09-15T13:38:38.000Z</time>
      </trkpt>
      <trkpt lat="46.391" lon="6.1062">
        <ele>1196.068908</ele>
        <time>2024-09-15T13:38:39.000Z</time>
      </trkpt>
      <trkpt lat="46.39098" lon="6.10622">
        <ele>1195.519761</ele>
        <time>2024-09-15T13:38:40.000Z</time>
      </trkpt>
      <trkpt lat="46.39095" lon="6.10628">
        <ele>1194.412286</ele>
        <time>2024-09-15T13:38:42.000Z</time>
      </trkpt>
      <trkpt lat="46.39093" lon="6.10631">
        <ele>1193.773477</ele>
        <time>2024-09-15T13:38:43.000Z</time>
      </trkpt>
      <trkpt lat="46.3909" lon="6.10634">
        <ele>1192.950425</ele>
        <time>2024-09-15T13:38:44.000Z</time>
      </trkpt>
      <trkpt lat="46.39088" lon="6.10635">
        <ele>1192.38707</ele>
        <time>2024-09-15T13:38:45.000Z</time>
      </trkpt>
      <trkpt lat="46.39086" lon="6.10636">
        <ele>1191.928724</ele>
        <time>2024-09-15T13:38:46.000Z</time>
      </trkpt>
      <trkpt lat="46.39084" lon="6.10636">
        <ele>1191.56437</ele>
        <time>2024-09-15T13:38:47.000Z</time>
      </trkpt>
      <trkpt lat="46.39083" lon="6.10636">
        <ele>1191.264238</ele>
        <time>2024-09-15T13:38:48.000Z</time>
      </trkpt>
      <trkpt lat="46.39082" lon="6.10636">
        <ele>1190.968997</ele>
        <time>2024-09-15T13:38:49.000Z</time>
      </trkpt>
      <trkpt lat="46.39081" lon="6.10636">
        <ele>1190.788325</ele>
        <time>2024-09-15T13:38:50.000Z</time>
      </trkpt>
      <trkpt lat="46.3908" lon="6.10636">
        <ele>1190.627196</ele>
        <time>2024-09-15T13:38:51.000Z</time>
      </trkpt>
      <trkpt lat="46.39079" lon="6.10636">
        <ele>1190.262842</ele>
        <time>2024-09-15T13:38:52.000Z</time>
      </trkpt>
      <trkpt lat="46.39077" lon="6.10637">
        <ele>1189.848935</ele>
        <time>2024-09-15T13:38:53.000Z</time>
      </trkpt>
      <trkpt lat="46.39076" lon="6.10636">
        <ele>1189.657821</ele>
        <time>2024-09-15T13:38:54.000Z</time>
      </trkpt>
      <trkpt lat="46.39075" lon="6.10635">
        <ele>1189.301165</ele>
        <time>2024-09-15T13:38:55.000Z</time>
      </trkpt>
      <trkpt lat="46.39072" lon="6.10634">
        <ele>1188.69591</ele>
        <time>2024-09-15T13:38:56.000Z</time>
      </trkpt>
      <trkpt lat="46.39067" lon="6.10632">
        <ele>1187.365359</ele>
        <time>2024-09-15T13:38:58.000Z</time>
      </trkpt>
      <trkpt lat="46.39061" lon="6.10631">
        <ele>1186.048003</ele>
        <time>2024-09-15T13:39:00.000Z</time>
      </trkpt>
      <trkpt lat="46.39059" lon="6.10631">
        <ele>1185.551154</ele>
        <time>2024-09-15T13:39:01.000Z</time>
      </trkpt>
      <trkpt lat="46.39057" lon="6.10631">
        <ele>1185.16691</ele>
        <time>2024-09-15T13:39:02.000Z</time>
      </trkpt>
      <trkpt lat="46.39052" lon="6.1063">
        <ele>1184.066877</ele>
        <time>2024-09-15T13:39:04.000Z</time>
      </trkpt>
      <trkpt lat="46.39047" lon="6.10631">
        <ele>1182.85983</ele>
        <time>2024-09-15T13:39:06.000Z</time>
      </trkpt>
      <trkpt lat="46.39042" lon="6.10633">
        <ele>1181.822992</ele>
        <time>2024-09-15T13:39:07.000Z</time>
      </trkpt>
      <trkpt lat="46.39036" lon="6.10638">
        <ele>1180.161206</ele>
        <time>2024-09-15T13:39:08.000Z</time>
      </trkpt>
      <trkpt lat="46.39032" lon="6.10642">
        <ele>1179.191676</ele>
        <time>2024-09-15T13:39:09.000Z</time>
      </trkpt>
      <trkpt lat="46.39029" lon="6.10646">
        <ele>1178.121915</ele>
        <time>2024-09-15T13:39:10.000Z</time>
      </trkpt>
      <trkpt lat="46.39024" lon="6.10649">
        <ele>1177.008225</ele>
        <time>2024-09-15T13:39:11.000Z</time>
      </trkpt>
      <trkpt lat="46.3902" lon="6.10652">
        <ele>1175.916665</ele>
        <time>2024-09-15T13:39:12.000Z</time>
      </trkpt>
      <trkpt lat="46.39014" lon="6.10655">
        <ele>1174.483303</ele>
        <time>2024-09-15T13:39:13.000Z</time>
      </trkpt>
      <trkpt lat="46.39009" lon="6.10659">
        <ele>1173.244525</ele>
        <time>2024-09-15T13:39:14.000Z</time>
      </trkpt>
      <trkpt lat="46.39003" lon="6.10664">
        <ele>1171.60731</ele>
        <time>2024-09-15T13:39:16.000Z</time>
      </trkpt>
      <trkpt lat="46.38998" lon="6.10667">
        <ele>1170.417839</ele>
        <time>2024-09-15T13:39:17.000Z</time>
      </trkpt>
      <trkpt lat="46.38995" lon="6.10668">
        <ele>1169.60187</ele>
        <time>2024-09-15T13:39:18.000Z</time>
      </trkpt>
      <trkpt lat="46.38991" lon="6.1067">
        <ele>1168.7164</ele>
        <time>2024-09-15T13:39:19.000Z</time>
      </trkpt>
      <trkpt lat="46.38988" lon="6.10672">
        <ele>1168.003966</ele>
        <time>2024-09-15T13:39:20.000Z</time>
      </trkpt>
      <trkpt lat="46.38984" lon="6.10674">
        <ele>1167.154344</ele>
        <time>2024-09-15T13:39:21.000Z</time>
      </trkpt>
      <trkpt lat="46.38981" lon="6.10676">
        <ele>1166.310308</ele>
        <time>2024-09-15T13:39:22.000Z</time>
      </trkpt>
      <trkpt lat="46.38978" lon="6.10678">
        <ele>1165.537549</ele>
        <time>2024-09-15T13:39:23.000Z</time>
      </trkpt>
      <trkpt lat="46.38975" lon="6.10679">
        <ele>1164.872759</ele>
        <time>2024-09-15T13:39:24.000Z</time>
      </trkpt>
      <trkpt lat="46.38973" lon="6.10681">
        <ele>1164.261718</ele>
        <time>2024-09-15T13:39:25.000Z</time>
      </trkpt>
      <trkpt lat="46.38971" lon="6.10683">
        <ele>1163.68225</ele>
        <time>2024-09-15T13:39:26.000Z</time>
      </trkpt>
      <trkpt lat="46.38968" lon="6.10688">
        <ele>1162.745442</ele>
        <time>2024-09-15T13:39:27.000Z</time>
      </trkpt>
      <trkpt lat="46.38965" lon="6.10691">
        <ele>1161.830697</ele>
        <time>2024-09-15T13:39:28.000Z</time>
      </trkpt>
      <trkpt lat="46.38961" lon="6.10694">
        <ele>1160.988951</ele>
        <time>2024-09-15T13:39:29.000Z</time>
      </trkpt>
      <trkpt lat="46.38959" lon="6.10698">
        <ele>1160.112054</ele>
        <time>2024-09-15T13:39:30.000Z</time>
      </trkpt>
      <trkpt lat="46.38956" lon="6.10703">
        <ele>1159.211971</ele>
        <time>2024-09-15T13:39:31.000Z</time>
      </trkpt>
      <trkpt lat="46.38951" lon="6.10711">
        <ele>1157.437328</ele>
        <time>2024-09-15T13:39:33.000Z</time>
      </trkpt>
      <trkpt lat="46.38945" lon="6.10714">
        <ele>1156.070983</ele>
        <time>2024-09-15T13:39:34.000Z</time>
      </trkpt>
      <trkpt lat="46.38941" lon="6.10718">
        <ele>1154.904849</ele>
        <time>2024-09-15T13:39:35.000Z</time>
      </trkpt>
      <trkpt lat="46.38937" lon="6.10719">
        <ele>1153.959031</ele>
        <time>2024-09-15T13:39:36.000Z</time>
      </trkpt>
      <trkpt lat="46.38933" lon="6.10721">
        <ele>1153.035404</ele>
        <time>2024-09-15T13:39:37.000Z</time>
      </trkpt>
      <trkpt lat="46.38929" lon="6.10723">
        <ele>1152.159982</ele>
        <time>2024-09-15T13:39:38.000Z</time>
      </trkpt>
      <trkpt lat="46.38926" lon="6.10724">
        <ele>1151.452157</ele>
        <time>2024-09-15T13:39:39.000Z</time>
      </trkpt>
      <trkpt lat="46.38924" lon="6.10726">
        <ele>1150.920804</ele>
        <time>2024-09-15T13:39:40.000Z</time>
      </trkpt>
      <trkpt lat="46.38923" lon="6.10727">
        <ele>1150.486138</ele>
        <time>2024-09-15T13:39:41.000Z</time>
      </trkpt>
      <trkpt lat="46.38921" lon="6.10728">
        <ele>1150.030692</ele>
        <time>2024-09-15T13:39:42.000Z</time>
      </trkpt>
      <trkpt lat="46.3892" lon="6.10728">
        <ele>1149.911455</ele>
        <time>2024-09-15T13:39:43.000Z</time>
      </trkpt>
      <trkpt lat="46.3892" lon="6.10728">
        <ele>1149.911455</ele>
        <time>2024-09-15T13:39:44.000Z</time>
      </trkpt>
      <trkpt lat="46.3892" lon="6.10728">
        <ele>1149.911455</ele>
        <time>2024-09-15T13:39:45.000Z</time>
      </trkpt>
      <trkpt lat="46.3892" lon="6.10728">
        <ele>1149.911455</ele>
        <time>2024-09-15T13:39:46.000Z</time>
      </trkpt>
      <trkpt lat="46.38917" lon="6.10732">
        <ele>1148.850435</ele>
        <time>2024-09-15T13:40:00.000Z</time>
      </trkpt>
      <trkpt lat="46.38913" lon="6.10734">
        <ele>1148.02195</ele>
        <time>2024-09-15T13:40:01.000Z</time>
      </trkpt>
      <trkpt lat="46.38906" lon="6.10738">
        <ele>1146.210691</ele>
        <time>2024-09-15T13:40:03.000Z</time>
      </trkpt>
      <trkpt lat="46.38901" lon="6.10741">
        <ele>1144.933185</ele>
        <time>2024-09-15T13:40:04.000Z</time>
      </trkpt>
      <trkpt lat="46.38895" lon="6.10745">
        <ele>1143.539328</ele>
        <time>2024-09-15T13:40:05.000Z</time>
      </trkpt>
      <trkpt lat="46.3889" lon="6.10748">
        <ele>1142.318095</ele>
        <time>2024-09-15T13:40:06.000Z</time>
      </trkpt>
      <trkpt lat="46.38881" lon="6.10752">
        <ele>1140.038565</ele>
        <time>2024-09-15T13:40:08.000Z</time>
      </trkpt>
      <trkpt lat="46.38877" lon="6.10752">
        <ele>1139.072916</ele>
        <time>2024-09-15T13:40:09.000Z</time>
      </trkpt>
      <trkpt lat="46.38873" lon="6.10751">
        <ele>1138.252842</ele>
        <time>2024-09-15T13:40:10.000Z</time>
      </trkpt>
      <trkpt lat="46.38871" lon="6.1075">
        <ele>1137.744708</ele>
        <time>2024-09-15T13:40:11.000Z</time>
      </trkpt>
      <trkpt lat="46.38869" lon="6.10749">
        <ele>1137.190936</ele>
        <time>2024-09-15T13:40:12.000Z</time>
      </trkpt>
      <trkpt lat="46.38866" lon="6.1075">
        <ele>1136.512307</ele>
        <time>2024-09-15T13:40:13.000Z</time>
      </trkpt>
      <trkpt lat="46.38862" lon="6.10751">
        <ele>1135.707869</ele>
        <time>2024-09-15T13:40:14.000Z</time>
      </trkpt>
      <trkpt lat="46.38857" lon="6.10753">
        <ele>1134.53764</ele>
        <time>2024-09-15T13:40:15.000Z</time>
      </trkpt>
      <trkpt lat="46.38854" lon="6.10754">
        <ele>1133.697838</ele>
        <time>2024-09-15T13:40:16.000Z</time>
      </trkpt>
      <trkpt lat="46.38851" lon="6.10754">
        <ele>1132.956078</ele>
        <time>2024-09-15T13:40:17.000Z</time>
      </trkpt>
      <trkpt lat="46.38847" lon="6.10754">
        <ele>1132.128491</ele>
        <time>2024-09-15T13:40:18.000Z</time>
      </trkpt>
      <trkpt lat="46.38832" lon="6.10755">
        <ele>1128.604246</ele>
        <time>2024-09-15T13:40:21.000Z</time>
      </trkpt>
      <trkpt lat="46.38822" lon="6.10758">
        <ele>1126.279197</ele>
        <time>2024-09-15T13:40:23.000Z</time>
      </trkpt>
      <trkpt lat="46.38817" lon="6.10761">
        <ele>1125.056431</ele>
        <time>2024-09-15T13:40:24.000Z</time>
      </trkpt>
      <trkpt lat="46.38809" lon="6.10764">
        <ele>1123.144353</ele>
        <time>2024-09-15T13:40:25.000Z</time>
      </trkpt>
      <trkpt lat="46.38801" lon="6.10768">
        <ele>1121.179293</ele>
        <time>2024-09-15T13:40:26.000Z</time>
      </trkpt>
      <trkpt lat="46.38795" lon="6.1077">
        <ele>1119.805619</ele>
        <time>2024-09-15T13:40:27.000Z</time>
      </trkpt>
      <trkpt lat="46.38792" lon="6.10771">
        <ele>1118.998524</ele>
        <time>2024-09-15T13:40:28.000Z</time>
      </trkpt>
      <trkpt lat="46.38788" lon="6.10771">
        <ele>1118.283062</ele>
        <time>2024-09-15T13:40:29.000Z</time>
      </trkpt>
      <trkpt lat="46.38785" lon="6.10772">
        <ele>1117.450485</ele>
        <time>2024-09-15T13:40:30.000Z</time>
      </trkpt>
      <trkpt lat="46.3878" lon="6.10774">
        <ele>1116.339435</ele>
        <time>2024-09-15T13:40:31.000Z</time>
      </trkpt>
      <trkpt lat="46.38776" lon="6.10776">
        <ele>1115.52992</ele>
        <time>2024-09-15T13:40:32.000Z</time>
      </trkpt>
      <trkpt lat="46.38773" lon="6.10777">
        <ele>1114.810165</ele>
        <time>2024-09-15T13:40:33.000Z</time>
      </trkpt>
      <trkpt lat="46.3877" lon="6.10777">
        <ele>1114.236057</ele>
        <time>2024-09-15T13:40:34.000Z</time>
      </trkpt>
      <trkpt lat="46.38768" lon="6.10775">
        <ele>1113.665775</ele>
        <time>2024-09-15T13:40:35.000Z</time>
      </trkpt>
      <trkpt lat="46.38765" lon="6.10771">
        <ele>1112.776859</ele>
        <time>2024-09-15T13:40:36.000Z</time>
      </trkpt>
      <trkpt lat="46.38758" lon="6.10768">
        <ele>1111.191479</ele>
        <time>2024-09-15T13:40:37.000Z</time>
      </trkpt>
      <trkpt lat="46.38751" lon="6.10761">
        <ele>1109.340679</ele>
        <time>2024-09-15T13:40:38.000Z</time>
      </trkpt>
      <trkpt lat="46.38745" lon="6.10757">
        <ele>1108.063494</ele>
        <time>2024-09-15T13:40:39.000Z</time>
      </trkpt>
      <trkpt lat="46.38739" lon="6.10755">
        <ele>1106.715603</ele>
        <time>2024-09-15T13:40:40.000Z</time>
      </trkpt>
      <trkpt lat="46.38733" lon="6.10751">
        <ele>1105.360105</ele>
        <time>2024-09-15T13:40:41.000Z</time>
      </trkpt>
      <trkpt lat="46.38729" lon="6.10745">
        <ele>1104.121374</ele>
        <time>2024-09-15T13:40:42.000Z</time>
      </trkpt>
      <trkpt lat="46.38725" lon="6.10741">
        <ele>1103.021348</ele>
        <time>2024-09-15T13:40:43.000Z</time>
      </trkpt>
      <trkpt lat="46.38719" lon="6.10737">
        <ele>1101.700279</ele>
        <time>2024-09-15T13:40:44.000Z</time>
      </trkpt>
      <trkpt lat="46.38712" lon="6.10733">
        <ele>1100.10572</ele>
        <time>2024-09-15T13:40:45.000Z</time>
      </trkpt>
      <trkpt lat="46.38707" lon="6.10728">
        <ele>1098.843795</ele>
        <time>2024-09-15T13:40:46.000Z</time>
      </trkpt>
      <trkpt lat="46.38699" lon="6.10722">
        <ele>1096.95933</ele>
        <time>2024-09-15T13:40:48.000Z</time>
      </trkpt>
      <trkpt lat="46.38698" lon="6.10722">
        <ele>1096.676751</ele>
        <time>2024-09-15T13:40:49.000Z</time>
      </trkpt>
      <trkpt lat="46.38697" lon="6.10723">
        <ele>1096.51299</ele>
        <time>2024-09-15T13:40:50.000Z</time>
      </trkpt>
      <trkpt lat="46.38697" lon="6.10724">
        <ele>1096.307305</ele>
        <time>2024-09-15T13:40:51.000Z</time>
      </trkpt>
      <trkpt lat="46.38695" lon="6.10726">
        <ele>1095.75154</ele>
        <time>2024-09-15T13:40:52.000Z</time>
      </trkpt>
      <trkpt lat="46.38693" lon="6.10725">
        <ele>1095.389767</ele>
        <time>2024-09-15T13:40:53.000Z</time>
      </trkpt>
      <trkpt lat="46.38689" lon="6.10724">
        <ele>1094.463757</ele>
        <time>2024-09-15T13:40:54.000Z</time>
      </trkpt>
      <trkpt lat="46.38681" lon="6.10723">
        <ele>1092.761001</ele>
        <time>2024-09-15T13:40:56.000Z</time>
      </trkpt>
      <trkpt lat="46.38677" lon="6.10721">
        <ele>1091.892451</ele>
        <time>2024-09-15T13:40:57.000Z</time>
      </trkpt>
      <trkpt lat="46.38673" lon="6.10718">
        <ele>1091.030508</ele>
        <time>2024-09-15T13:40:58.000Z</time>
      </trkpt>
      <trkpt lat="46.3867" lon="6.10714">
        <ele>1090.108628</ele>
        <time>2024-09-15T13:40:59.000Z</time>
      </trkpt>
      <trkpt lat="46.38666" lon="6.10711">
        <ele>1089.170299</ele>
        <time>2024-09-15T13:41:00.000Z</time>
      </trkpt>
      <trkpt lat="46.38653" lon="6.10701">
        <ele>1086.043208</ele>
        <time>2024-09-15T13:41:03.000Z</time>
      </trkpt>
      <trkpt lat="46.38648" lon="6.107">
        <ele>1085.028454</ele>
        <time>2024-09-15T13:41:04.000Z</time>
      </trkpt>
      <trkpt lat="46.38642" lon="6.10695">
        <ele>1083.477618</ele>
        <time>2024-09-15T13:41:06.000Z</time>
      </trkpt>
      <trkpt lat="46.38638" lon="6.10692">
        <ele>1082.556551</ele>
        <time>2024-09-15T13:41:07.000Z</time>
      </trkpt>
      <trkpt lat="46.38634" lon="6.10689">
        <ele>1081.636505</ele>
        <time>2024-09-15T13:41:08.000Z</time>
      </trkpt>
      <trkpt lat="46.3863" lon="6.10686">
        <ele>1080.556039</ele>
        <time>2024-09-15T13:41:09.000Z</time>
      </trkpt>
      <trkpt lat="46.38626" lon="6.10683">
        <ele>1079.590634</ele>
        <time>2024-09-15T13:41:10.000Z</time>
      </trkpt>
      <trkpt lat="46.38621" lon="6.10681">
        <ele>1078.426376</ele>
        <time>2024-09-15T13:41:11.000Z</time>
      </trkpt>
      <trkpt lat="46.38617" lon="6.10677">
        <ele>1077.13259</ele>
        <time>2024-09-15T13:41:12.000Z</time>
      </trkpt>
      <trkpt lat="46.38613" lon="6.10674">
        <ele>1075.886863</ele>
        <time>2024-09-15T13:41:13.000Z</time>
      </trkpt>
      <trkpt lat="46.38609" lon="6.10671">
        <ele>1074.526506</ele>
        <time>2024-09-15T13:41:14.000Z</time>
      </trkpt>
      <trkpt lat="46.38604" lon="6.1067">
        <ele>1073.305713</ele>
        <time>2024-09-15T13:41:15.000Z</time>
      </trkpt>
      <trkpt lat="46.38601" lon="6.10669">
        <ele>1072.258129</ele>
        <time>2024-09-15T13:41:16.000Z</time>
      </trkpt>
      <trkpt lat="46.38597" lon="6.10665">
        <ele>1071.059858</ele>
        <time>2024-09-15T13:41:17.000Z</time>
      </trkpt>
      <trkpt lat="46.38593" lon="6.10659">
        <ele>1069.392882</ele>
        <time>2024-09-15T13:41:18.000Z</time>
      </trkpt>
      <trkpt lat="46.38588" lon="6.10654">
        <ele>1067.759011</ele>
        <time>2024-09-15T13:41:19.000Z</time>
      </trkpt>
      <trkpt lat="46.38581" lon="6.10651">
        <ele>1065.944934</ele>
        <time>2024-09-15T13:41:20.000Z</time>
      </trkpt>
      <trkpt lat="46.38576" lon="6.10645">
        <ele>1064.120992</ele>
        <time>2024-09-15T13:41:21.000Z</time>
      </trkpt>
      <trkpt lat="46.38572" lon="6.10637">
        <ele>1062.225807</ele>
        <time>2024-09-15T13:41:22.000Z</time>
      </trkpt>
      <trkpt lat="46.38566" lon="6.1063">
        <ele>1060.172318</ele>
        <time>2024-09-15T13:41:23.000Z</time>
      </trkpt>
      <trkpt lat="46.38561" lon="6.10624">
        <ele>1058.537093</ele>
        <time>2024-09-15T13:41:24.000Z</time>
      </trkpt>
      <trkpt lat="46.38552" lon="6.10621">
        <ele>1055.806897</ele>
        <time>2024-09-15T13:41:26.000Z</time>
      </trkpt>
      <trkpt lat="46.38547" lon="6.10621">
        <ele>1054.57284</ele>
        <time>2024-09-15T13:41:27.000Z</time>
      </trkpt>
      <trkpt lat="46.38543" lon="6.10622">
        <ele>1053.425158</ele>
        <time>2024-09-15T13:41:28.000Z</time>
      </trkpt>
      <trkpt lat="46.38539" lon="6.10623">
        <ele>1052.425689</ele>
        <time>2024-09-15T13:41:29.000Z</time>
      </trkpt>
      <trkpt lat="46.38536" lon="6.10625">
        <ele>1051.419203</ele>
        <time>2024-09-15T13:41:30.000Z</time>
      </trkpt>
      <trkpt lat="46.38534" lon="6.10627">
        <ele>1050.735323</ele>
        <time>2024-09-15T13:41:31.000Z</time>
      </trkpt>
      <trkpt lat="46.38534" lon="6.10631">
        <ele>1049.989215</ele>
        <time>2024-09-15T13:41:32.000Z</time>
      </trkpt>
      <trkpt lat="46.38534" lon="6.10635">
        <ele>1049.307171</ele>
        <time>2024-09-15T13:41:33.000Z</time>
      </trkpt>
      <trkpt lat="46.38535" lon="6.10638">
        <ele>1048.634891</ele>
        <time>2024-09-15T13:41:34.000Z</time>
      </trkpt>
      <trkpt lat="46.38535" lon="6.10641">
        <ele>1048.086714</ele>
        <time>2024-09-15T13:41:35.000Z</time>
      </trkpt>
      <trkpt lat="46.38535" lon="6.10644">
        <ele>1047.538537</ele>
        <time>2024-09-15T13:41:36.000Z</time>
      </trkpt>
      <trkpt lat="46.38534" lon="6.10647">
        <ele>1046.921404</ele>
        <time>2024-09-15T13:41:37.000Z</time>
      </trkpt>
      <trkpt lat="46.38534" lon="6.10651">
        <ele>1046.29832</ele>
        <time>2024-09-15T13:41:38.000Z</time>
      </trkpt>
      <trkpt lat="46.38534" lon="6.10654">
        <ele>1045.714607</ele>
        <time>2024-09-15T13:41:39.000Z</time>
      </trkpt>
      <trkpt lat="46.38534" lon="6.1066">
        <ele>1044.565969</ele>
        <time>2024-09-15T13:41:41.000Z</time>
      </trkpt>
      <trkpt lat="46.38533" lon="6.10662">
        <ele>1044.107204</ele>
        <time>2024-09-15T13:41:42.000Z</time>
      </trkpt>
      <trkpt lat="46.38533" lon="6.10665">
        <ele>1043.609334</ele>
        <time>2024-09-15T13:41:43.000Z</time>
      </trkpt>
      <trkpt lat="46.38532" lon="6.10667">
        <ele>1043.062183</ele>
        <time>2024-09-15T13:41:44.000Z</time>
      </trkpt>
      <trkpt lat="46.38531" lon="6.1067">
        <ele>1042.542762</ele>
        <time>2024-09-15T13:41:45.000Z</time>
      </trkpt>
      <trkpt lat="46.38532" lon="6.10673">
        <ele>1041.919039</ele>
        <time>2024-09-15T13:41:46.000Z</time>
      </trkpt>
      <trkpt lat="46.38533" lon="6.10677">
        <ele>1041.083331</ele>
        <time>2024-09-15T13:41:47.000Z</time>
      </trkpt>
      <trkpt lat="46.38535" lon="6.10684">
        <ele>1039.727441</ele>
        <time>2024-09-15T13:41:48.000Z</time>
      </trkpt>
      <trkpt lat="46.38536" lon="6.10691">
        <ele>1038.322014</ele>
        <time>2024-09-15T13:41:49.000Z</time>
      </trkpt>
      <trkpt lat="46.38539" lon="6.10703">
        <ele>1036.081337</ele>
        <time>2024-09-15T13:41:51.000Z</time>
      </trkpt>
      <trkpt lat="46.3854" lon="6.10709">
        <ele>1034.89967</ele>
        <time>2024-09-15T13:41:52.000Z</time>
      </trkpt>
      <trkpt lat="46.38539" lon="6.10715">
        <ele>1033.726377</ele>
        <time>2024-09-15T13:41:53.000Z</time>
      </trkpt>
      <trkpt lat="46.38539" lon="6.10719">
        <ele>1032.96177</ele>
        <time>2024-09-15T13:41:54.000Z</time>
      </trkpt>
      <trkpt lat="46.38539" lon="6.10722">
        <ele>1032.321687</ele>
        <time>2024-09-15T13:41:55.000Z</time>
      </trkpt>
      <trkpt lat="46.38539" lon="6.10726">
        <ele>1031.661121</ele>
        <time>2024-09-15T13:41:56.000Z</time>
      </trkpt>
      <trkpt lat="46.38539" lon="6.10731">
        <ele>1030.720677</ele>
        <time>2024-09-15T13:41:57.000Z</time>
      </trkpt>
      <trkpt lat="46.3854" lon="6.10736">
        <ele>1029.622269</ele>
        <time>2024-09-15T13:41:58.000Z</time>
      </trkpt>
      <trkpt lat="46.3854" lon="6.10742">
        <ele>1028.346591</ele>
        <time>2024-09-15T13:41:59.000Z</time>
      </trkpt>
      <trkpt lat="46.38542" lon="6.10749">
        <ele>1026.946608</ele>
        <time>2024-09-15T13:42:00.000Z</time>
      </trkpt>
      <trkpt lat="46.38541" lon="6.10755">
        <ele>1025.680399</ele>
        <time>2024-09-15T13:42:01.000Z</time>
      </trkpt>
      <trkpt lat="46.3854" lon="6.10761">
        <ele>1024.444328</ele>
        <time>2024-09-15T13:42:02.000Z</time>
      </trkpt>
      <trkpt lat="46.3854" lon="6.10767">
        <ele>1023.311367</ele>
        <time>2024-09-15T13:42:03.000Z</time>
      </trkpt>
      <trkpt lat="46.38541" lon="6.10771">
        <ele>1022.345802</ele>
        <time>2024-09-15T13:42:04.000Z</time>
      </trkpt>
      <trkpt lat="46.38541" lon="6.10775">
        <ele>1021.534693</ele>
        <time>2024-09-15T13:42:05.000Z</time>
      </trkpt>
      <trkpt lat="46.38542" lon="6.10776">
        <ele>1021.320983</ele>
        <time>2024-09-15T13:42:06.000Z</time>
      </trkpt>
      <trkpt lat="46.38542" lon="6.10776">
        <ele>1021.320983</ele>
        <time>2024-09-15T13:42:07.000Z</time>
      </trkpt>
      <trkpt lat="46.38544" lon="6.10786">
        <ele>1019.265643</ele>
        <time>2024-09-15T13:42:09.000Z</time>
      </trkpt>
      <trkpt lat="46.38546" lon="6.10791">
        <ele>1018.111122</ele>
        <time>2024-09-15T13:42:10.000Z</time>
      </trkpt>
      <trkpt lat="46.38548" lon="6.10797">
        <ele>1016.726858</ele>
        <time>2024-09-15T13:42:11.000Z</time>
      </trkpt>
      <trkpt lat="46.38549" lon="6.10803">
        <ele>1015.455139</ele>
        <time>2024-09-15T13:42:12.000Z</time>
      </trkpt>
      <trkpt lat="46.38551" lon="6.10807">
        <ele>1014.370775</ele>
        <time>2024-09-15T13:42:13.000Z</time>
      </trkpt>
      <trkpt lat="46.38553" lon="6.10811">
        <ele>1013.471663</ele>
        <time>2024-09-15T13:42:14.000Z</time>
      </trkpt>
      <trkpt lat="46.38554" lon="6.10815">
        <ele>1012.638199</ele>
        <time>2024-09-15T13:42:15.000Z</time>
      </trkpt>
      <trkpt lat="46.38555" lon="6.10818">
        <ele>1011.98651</ele>
        <time>2024-09-15T13:42:16.000Z</time>
      </trkpt>
      <trkpt lat="46.38556" lon="6.1082">
        <ele>1011.429139</ele>
        <time>2024-09-15T13:42:17.000Z</time>
      </trkpt>
      <trkpt lat="46.38556" lon="6.10822">
        <ele>1011.042929</ele>
        <time>2024-09-15T13:42:18.000Z</time>
      </trkpt>
      <trkpt lat="46.38557" lon="6.10824">
        <ele>1010.589349</ele>
        <time>2024-09-15T13:42:19.000Z</time>
      </trkpt>
      <trkpt lat="46.38558" lon="6.10826">
        <ele>1010.148258</ele>
        <time>2024-09-15T13:42:20.000Z</time>
      </trkpt>
      <trkpt lat="46.38557" lon="6.10829">
        <ele>1009.575179</ele>
        <time>2024-09-15T13:42:21.000Z</time>
      </trkpt>
      <trkpt lat="46.38557" lon="6.10831">
        <ele>1009.0021</ele>
        <time>2024-09-15T13:42:22.000Z</time>
      </trkpt>
      <trkpt lat="46.38556" lon="6.10835">
        <ele>1008.284489</ele>
        <time>2024-09-15T13:42:23.000Z</time>
      </trkpt>
      <trkpt lat="46.38557" lon="6.10839">
        <ele>1007.473382</ele>
        <time>2024-09-15T13:42:24.000Z</time>
      </trkpt>
      <trkpt lat="46.38558" lon="6.1084">
        <ele>1006.915146</ele>
        <time>2024-09-15T13:42:25.000Z</time>
      </trkpt>
      <trkpt lat="46.3856" lon="6.10842">
        <ele>1006.41649</ele>
        <time>2024-09-15T13:42:26.000Z</time>
      </trkpt>
      <trkpt lat="46.3856" lon="6.10844">
        <ele>1005.926496</ele>
        <time>2024-09-15T13:42:27.000Z</time>
      </trkpt>
      <trkpt lat="46.3856" lon="6.1085">
        <ele>1004.672571</ele>
        <time>2024-09-15T13:42:29.000Z</time>
      </trkpt>
      <trkpt lat="46.3856" lon="6.10855">
        <ele>1003.740394</ele>
        <time>2024-09-15T13:42:30.000Z</time>
      </trkpt>
      <trkpt lat="46.38562" lon="6.10858">
        <ele>1002.951396</ele>
        <time>2024-09-15T13:42:31.000Z</time>
      </trkpt>
      <trkpt lat="46.38565" lon="6.10863">
        <ele>1001.530535</ele>
        <time>2024-09-15T13:42:33.000Z</time>
      </trkpt>
      <trkpt lat="46.38566" lon="6.10866">
        <ele>1000.868901</ele>
        <time>2024-09-15T13:42:34.000Z</time>
      </trkpt>
      <trkpt lat="46.38566" lon="6.10868">
        <ele>1000.371583</ele>
        <time>2024-09-15T13:42:35.000Z</time>
      </trkpt>
      <trkpt lat="46.38567" lon="6.10871">
        <ele>999.855298</ele>
        <time>2024-09-15T13:42:36.000Z</time>
      </trkpt>
      <trkpt lat="46.38568" lon="6.10873">
        <ele>999.309618</ele>
        <time>2024-09-15T13:42:37.000Z</time>
      </trkpt>
      <trkpt lat="46.38568" lon="6.10874">
        <ele>999.137523</ele>
        <time>2024-09-15T13:42:38.000Z</time>
      </trkpt>
      <trkpt lat="46.38568" lon="6.10875">
        <ele>998.953684</ele>
        <time>2024-09-15T13:42:39.000Z</time>
      </trkpt>
      <trkpt lat="46.38569" lon="6.10877">
        <ele>998.403829</ele>
        <time>2024-09-15T13:42:40.000Z</time>
      </trkpt>
      <trkpt lat="46.38571" lon="6.10881">
        <ele>997.613353</ele>
        <time>2024-09-15T13:42:41.000Z</time>
      </trkpt>
      <trkpt lat="46.38573" lon="6.10889">
        <ele>995.788129</ele>
        <time>2024-09-15T13:42:43.000Z</time>
      </trkpt>
      <trkpt lat="46.38576" lon="6.10894">
        <ele>994.605463</ele>
        <time>2024-09-15T13:42:44.000Z</time>
      </trkpt>
      <trkpt lat="46.38578" lon="6.10897">
        <ele>993.508169</ele>
        <time>2024-09-15T13:42:45.000Z</time>
      </trkpt>
      <trkpt lat="46.38582" lon="6.10904">
        <ele>991.666313</ele>
        <time>2024-09-15T13:42:47.000Z</time>
      </trkpt>
      <trkpt lat="46.38583" lon="6.10907">
        <ele>990.958888</ele>
        <time>2024-09-15T13:42:48.000Z</time>
      </trkpt>
      <trkpt lat="46.38584" lon="6.10911">
        <ele>990.14514</ele>
        <time>2024-09-15T13:42:49.000Z</time>
      </trkpt>
      <trkpt lat="46.38584" lon="6.10916">
        <ele>989.170387</ele>
        <time>2024-09-15T13:42:50.000Z</time>
      </trkpt>
      <trkpt lat="46.38584" lon="6.1092">
        <ele>988.3129</ele>
        <time>2024-09-15T13:42:51.000Z</time>
      </trkpt>
      <trkpt lat="46.38586" lon="6.10928">
        <ele>986.791773</ele>
        <time>2024-09-15T13:42:52.000Z</time>
      </trkpt>
      <trkpt lat="46.38588" lon="6.1094">
        <ele>984.226008</ele>
        <time>2024-09-15T13:42:54.000Z</time>
      </trkpt>
      <trkpt lat="46.38589" lon="6.10946">
        <ele>983.016901</ele>
        <time>2024-09-15T13:42:55.000Z</time>
      </trkpt>
      <trkpt lat="46.38591" lon="6.10956">
        <ele>980.914297</ele>
        <time>2024-09-15T13:42:57.000Z</time>
      </trkpt>
      <trkpt lat="46.38589" lon="6.10962">
        <ele>979.602451</ele>
        <time>2024-09-15T13:42:58.000Z</time>
      </trkpt>
      <trkpt lat="46.38588" lon="6.1097">
        <ele>977.788791</ele>
        <time>2024-09-15T13:42:59.000Z</time>
      </trkpt>
      <trkpt lat="46.38587" lon="6.10978">
        <ele>976.21461</ele>
        <time>2024-09-15T13:43:00.000Z</time>
      </trkpt>
      <trkpt lat="46.38586" lon="6.10985">
        <ele>974.848933</ele>
        <time>2024-09-15T13:43:01.000Z</time>
      </trkpt>
      <trkpt lat="46.38583" lon="6.10992">
        <ele>973.212302</ele>
        <time>2024-09-15T13:43:02.000Z</time>
      </trkpt>
      <trkpt lat="46.38581" lon="6.10998">
        <ele>971.865033</ele>
        <time>2024-09-15T13:43:03.000Z</time>
      </trkpt>
      <trkpt lat="46.38579" lon="6.11003">
        <ele>970.709574</ele>
        <time>2024-09-15T13:43:04.000Z</time>
      </trkpt>
      <trkpt lat="46.38576" lon="6.11006">
        <ele>969.799887</ele>
        <time>2024-09-15T13:43:05.000Z</time>
      </trkpt>
      <trkpt lat="46.38573" lon="6.1101">
        <ele>968.574801</ele>
        <time>2024-09-15T13:43:06.000Z</time>
      </trkpt>
      <trkpt lat="46.3857" lon="6.11014">
        <ele>967.396434</ele>
        <time>2024-09-15T13:43:07.000Z</time>
      </trkpt>
      <trkpt lat="46.38568" lon="6.11018">
        <ele>966.356765</ele>
        <time>2024-09-15T13:43:08.000Z</time>
      </trkpt>
      <trkpt lat="46.38563" lon="6.11023">
        <ele>964.774084</ele>
        <time>2024-09-15T13:43:09.000Z</time>
      </trkpt>
      <trkpt lat="46.38561" lon="6.11029">
        <ele>963.405679</ele>
        <time>2024-09-15T13:43:10.000Z</time>
      </trkpt>
      <trkpt lat="46.38561" lon="6.11034">
        <ele>962.339291</ele>
        <time>2024-09-15T13:43:11.000Z</time>
      </trkpt>
      <trkpt lat="46.38562" lon="6.11041">
        <ele>961.032323</ele>
        <time>2024-09-15T13:43:12.000Z</time>
      </trkpt>
      <trkpt lat="46.38564" lon="6.11051">
        <ele>958.926147</ele>
        <time>2024-09-15T13:43:14.000Z</time>
      </trkpt>
      <trkpt lat="46.38564" lon="6.11054">
        <ele>958.175975</ele>
        <time>2024-09-15T13:43:15.000Z</time>
      </trkpt>
      <trkpt lat="46.38563" lon="6.11057">
        <ele>957.527103</ele>
        <time>2024-09-15T13:43:16.000Z</time>
      </trkpt>
      <trkpt lat="46.3856" lon="6.11061">
        <ele>956.397006</ele>
        <time>2024-09-15T13:43:17.000Z</time>
      </trkpt>
      <trkpt lat="46.38559" lon="6.11065">
        <ele>955.705488</ele>
        <time>2024-09-15T13:43:18.000Z</time>
      </trkpt>
      <trkpt lat="46.38559" lon="6.11068">
        <ele>954.912242</ele>
        <time>2024-09-15T13:43:19.000Z</time>
      </trkpt>
      <trkpt lat="46.3856" lon="6.11073">
        <ele>953.904513</ele>
        <time>2024-09-15T13:43:20.000Z</time>
      </trkpt>
      <trkpt lat="46.38562" lon="6.11079">
        <ele>952.664039</ele>
        <time>2024-09-15T13:43:21.000Z</time>
      </trkpt>
      <trkpt lat="46.38563" lon="6.11085">
        <ele>951.342556</ele>
        <time>2024-09-15T13:43:22.000Z</time>
      </trkpt>
      <trkpt lat="46.38564" lon="6.11092">
        <ele>950.023495</ele>
        <time>2024-09-15T13:43:23.000Z</time>
      </trkpt>
      <trkpt lat="46.38564" lon="6.11099">
        <ele>948.606235</ele>
        <time>2024-09-15T13:43:24.000Z</time>
      </trkpt>
      <trkpt lat="46.38561" lon="6.11108">
        <ele>946.651877</ele>
        <time>2024-09-15T13:43:25.000Z</time>
      </trkpt>
      <trkpt lat="46.38561" lon="6.11115">
        <ele>945.292469</ele>
        <time>2024-09-15T13:43:26.000Z</time>
      </trkpt>
      <trkpt lat="46.38561" lon="6.1112">
        <ele>944.172202</ele>
        <time>2024-09-15T13:43:27.000Z</time>
      </trkpt>
      <trkpt lat="46.38561" lon="6.11128">
        <ele>942.565319</ele>
        <time>2024-09-15T13:43:28.000Z</time>
      </trkpt>
      <trkpt lat="46.3856" lon="6.11135">
        <ele>941.167451</ele>
        <time>2024-09-15T13:43:29.000Z</time>
      </trkpt>
      <trkpt lat="46.3856" lon="6.11141">
        <ele>940.085898</ele>
        <time>2024-09-15T13:43:30.000Z</time>
      </trkpt>
      <trkpt lat="46.38562" lon="6.11146">
        <ele>938.83824</ele>
        <time>2024-09-15T13:43:31.000Z</time>
      </trkpt>
      <trkpt lat="46.38565" lon="6.11153">
        <ele>937.373321</ele>
        <time>2024-09-15T13:43:32.000Z</time>
      </trkpt>
      <trkpt lat="46.38568" lon="6.11159">
        <ele>935.782863</ele>
        <time>2024-09-15T13:43:33.000Z</time>
      </trkpt>
      <trkpt lat="46.38571" lon="6.11165">
        <ele>934.336237</ele>
        <time>2024-09-15T13:43:34.000Z</time>
      </trkpt>
      <trkpt lat="46.38574" lon="6.1117">
        <ele>933.104372</ele>
        <time>2024-09-15T13:43:35.000Z</time>
      </trkpt>
      <trkpt lat="46.38575" lon="6.11176">
        <ele>931.874683</ele>
        <time>2024-09-15T13:43:36.000Z</time>
      </trkpt>
      <trkpt lat="46.38576" lon="6.1118">
        <ele>930.962783</ele>
        <time>2024-09-15T13:43:37.000Z</time>
      </trkpt>
      <trkpt lat="46.38578" lon="6.11185">
        <ele>929.799931</ele>
        <time>2024-09-15T13:43:38.000Z</time>
      </trkpt>
      <trkpt lat="46.38579" lon="6.11191">
        <ele>928.648918</ele>
        <time>2024-09-15T13:43:39.000Z</time>
      </trkpt>
      <trkpt lat="46.38578" lon="6.11198">
        <ele>927.305539</ele>
        <time>2024-09-15T13:43:40.000Z</time>
      </trkpt>
      <trkpt lat="46.38578" lon="6.11203">
        <ele>926.281969</ele>
        <time>2024-09-15T13:43:41.000Z</time>
      </trkpt>
      <trkpt lat="46.38574" lon="6.11207">
        <ele>925.017573</ele>
        <time>2024-09-15T13:43:42.000Z</time>
      </trkpt>
      <trkpt lat="46.38568" lon="6.11212">
        <ele>923.372812</ele>
        <time>2024-09-15T13:43:43.000Z</time>
      </trkpt>
      <trkpt lat="46.38562" lon="6.11215">
        <ele>921.674197</ele>
        <time>2024-09-15T13:43:44.000Z</time>
      </trkpt>
      <trkpt lat="46.38556" lon="6.1122">
        <ele>919.846109</ele>
        <time>2024-09-15T13:43:45.000Z</time>
      </trkpt>
      <trkpt lat="46.38548" lon="6.11225">
        <ele>917.593928</ele>
        <time>2024-09-15T13:43:46.000Z</time>
      </trkpt>
      <trkpt lat="46.3854" lon="6.11231">
        <ele>915.342034</ele>
        <time>2024-09-15T13:43:47.000Z</time>
      </trkpt>
      <trkpt lat="46.38533" lon="6.11235">
        <ele>913.421836</ele>
        <time>2024-09-15T13:43:48.000Z</time>
      </trkpt>
      <trkpt lat="46.38529" lon="6.11238">
        <ele>912.248677</ele>
        <time>2024-09-15T13:43:49.000Z</time>
      </trkpt>
      <trkpt lat="46.38525" lon="6.1124">
        <ele>911.329865</ele>
        <time>2024-09-15T13:43:50.000Z</time>
      </trkpt>
      <trkpt lat="46.38524" lon="6.1124">
        <ele>910.840503</ele>
        <time>2024-09-15T13:43:51.000Z</time>
      </trkpt>
      <trkpt lat="46.38521" lon="6.1124">
        <ele>910.222966</ele>
        <time>2024-09-15T13:43:52.000Z</time>
      </trkpt>
      <trkpt lat="46.3852" lon="6.11241">
        <ele>909.829556</ele>
        <time>2024-09-15T13:43:53.000Z</time>
      </trkpt>
      <trkpt lat="46.38517" lon="6.11242">
        <ele>909.005319</ele>
        <time>2024-09-15T13:43:54.000Z</time>
      </trkpt>
      <trkpt lat="46.38513" lon="6.11245">
        <ele>908.017851</ele>
        <time>2024-09-15T13:43:55.000Z</time>
      </trkpt>
      <trkpt lat="46.38504" lon="6.11253">
        <ele>905.248842</ele>
        <time>2024-09-15T13:43:57.000Z</time>
      </trkpt>
      <trkpt lat="46.38501" lon="6.11256">
        <ele>904.354271</ele>
        <time>2024-09-15T13:43:58.000Z</time>
      </trkpt>
      <trkpt lat="46.38498" lon="6.11255">
        <ele>903.453611</ele>
        <time>2024-09-15T13:43:59.000Z</time>
      </trkpt>
      <trkpt lat="46.38495" lon="6.11255">
        <ele>902.655502</ele>
        <time>2024-09-15T13:44:00.000Z</time>
      </trkpt>
      <trkpt lat="46.38492" lon="6.11255">
        <ele>901.879777</ele>
        <time>2024-09-15T13:44:01.000Z</time>
      </trkpt>
      <trkpt lat="46.38488" lon="6.11255">
        <ele>900.980513</ele>
        <time>2024-09-15T13:44:02.000Z</time>
      </trkpt>
      <trkpt lat="46.38484" lon="6.11255">
        <ele>899.841374</ele>
        <time>2024-09-15T13:44:03.000Z</time>
      </trkpt>
      <trkpt lat="46.38478" lon="6.11256">
        <ele>898.496097</ele>
        <time>2024-09-15T13:44:04.000Z</time>
      </trkpt>
      <trkpt lat="46.38474" lon="6.11258">
        <ele>897.33604</ele>
        <time>2024-09-15T13:44:05.000Z</time>
      </trkpt>
      <trkpt lat="46.3847" lon="6.11261">
        <ele>896.162431</ele>
        <time>2024-09-15T13:44:06.000Z</time>
      </trkpt>
      <trkpt lat="46.38466" lon="6.11266">
        <ele>894.851728</ele>
        <time>2024-09-15T13:44:07.000Z</time>
      </trkpt>
      <trkpt lat="46.38462" lon="6.1127">
        <ele>893.649972</ele>
        <time>2024-09-15T13:44:08.000Z</time>
      </trkpt>
      <trkpt lat="46.3846" lon="6.11274">
        <ele>892.663097</ele>
        <time>2024-09-15T13:44:09.000Z</time>
      </trkpt>
      <trkpt lat="46.38458" lon="6.11279">
        <ele>891.73836</ele>
        <time>2024-09-15T13:44:10.000Z</time>
      </trkpt>
      <trkpt lat="46.38456" lon="6.11284">
        <ele>890.711256</ele>
        <time>2024-09-15T13:44:11.000Z</time>
      </trkpt>
      <trkpt lat="46.38454" lon="6.1129">
        <ele>889.6004</ele>
        <time>2024-09-15T13:44:12.000Z</time>
      </trkpt>
      <trkpt lat="46.38452" lon="6.11294">
        <ele>888.593911</ele>
        <time>2024-09-15T13:44:13.000Z</time>
      </trkpt>
      <trkpt lat="46.38449" lon="6.11297">
        <ele>887.626486</ele>
        <time>2024-09-15T13:44:14.000Z</time>
      </trkpt>
      <trkpt lat="46.38444" lon="6.11301">
        <ele>886.176265</ele>
        <time>2024-09-15T13:44:15.000Z</time>
      </trkpt>
      <trkpt lat="46.3844" lon="6.11304">
        <ele>885.089165</ele>
        <time>2024-09-15T13:44:16.000Z</time>
      </trkpt>
      <trkpt lat="46.38436" lon="6.11305">
        <ele>884.000984</ele>
        <time>2024-09-15T13:44:17.000Z</time>
      </trkpt>
      <trkpt lat="46.38431" lon="6.11305">
        <ele>882.686574</ele>
        <time>2024-09-15T13:44:18.000Z</time>
      </trkpt>
      <trkpt lat="46.38425" lon="6.11306">
        <ele>881.237158</ele>
        <time>2024-09-15T13:44:19.000Z</time>
      </trkpt>
      <trkpt lat="46.38419" lon="6.11308">
        <ele>879.52002</ele>
        <time>2024-09-15T13:44:20.000Z</time>
      </trkpt>
      <trkpt lat="46.38413" lon="6.11309">
        <ele>877.793359</ele>
        <time>2024-09-15T13:44:21.000Z</time>
      </trkpt>
      <trkpt lat="46.38405" lon="6.11312">
        <ele>875.718293</ele>
        <time>2024-09-15T13:44:22.000Z</time>
      </trkpt>
      <trkpt lat="46.38396" lon="6.11313">
        <ele>873.158308</ele>
        <time>2024-09-15T13:44:23.000Z</time>
      </trkpt>
      <trkpt lat="46.38388" lon="6.11313">
        <ele>871.019596</ele>
        <time>2024-09-15T13:44:24.000Z</time>
      </trkpt>
      <trkpt lat="46.38379" lon="6.11313">
        <ele>868.551948</ele>
        <time>2024-09-15T13:44:25.000Z</time>
      </trkpt>
      <trkpt lat="46.38371" lon="6.11312">
        <ele>866.383837</ele>
        <time>2024-09-15T13:44:26.000Z</time>
      </trkpt>
      <trkpt lat="46.38364" lon="6.11311">
        <ele>864.416572</ele>
        <time>2024-09-15T13:44:27.000Z</time>
      </trkpt>
      <trkpt lat="46.38357" lon="6.11311">
        <ele>862.302314</ele>
        <time>2024-09-15T13:44:28.000Z</time>
      </trkpt>
      <trkpt lat="46.3835" lon="6.11313">
        <ele>860.464362</ele>
        <time>2024-09-15T13:44:29.000Z</time>
      </trkpt>
      <trkpt lat="46.38343" lon="6.11315">
        <ele>858.508156</ele>
        <time>2024-09-15T13:44:30.000Z</time>
      </trkpt>
      <trkpt lat="46.38336" lon="6.11316">
        <ele>856.68869</ele>
        <time>2024-09-15T13:44:31.000Z</time>
      </trkpt>
      <trkpt lat="46.3833" lon="6.11317">
        <ele>854.954722</ele>
        <time>2024-09-15T13:44:32.000Z</time>
      </trkpt>
      <trkpt lat="46.38325" lon="6.11318">
        <ele>853.550134</ele>
        <time>2024-09-15T13:44:33.000Z</time>
      </trkpt>
      <trkpt lat="46.3832" lon="6.1132">
        <ele>852.228805</ele>
        <time>2024-09-15T13:44:34.000Z</time>
      </trkpt>
      <trkpt lat="46.38317" lon="6.11323">
        <ele>851.090274</ele>
        <time>2024-09-15T13:44:35.000Z</time>
      </trkpt>
      <trkpt lat="46.38313" lon="6.11328">
        <ele>849.840624</ele>
        <time>2024-09-15T13:44:36.000Z</time>
      </trkpt>
      <trkpt lat="46.38311" lon="6.11334">
        <ele>848.469787</ele>
        <time>2024-09-15T13:44:37.000Z</time>
      </trkpt>
      <trkpt lat="46.38309" lon="6.11338">
        <ele>847.501491</ele>
        <time>2024-09-15T13:44:38.000Z</time>
      </trkpt>
      <trkpt lat="46.38309" lon="6.11344">
        <ele>846.459773</ele>
        <time>2024-09-15T13:44:39.000Z</time>
      </trkpt>
      <trkpt lat="46.38308" lon="6.11351">
        <ele>844.997123</ele>
        <time>2024-09-15T13:44:40.000Z</time>
      </trkpt>
      <trkpt lat="46.38306" lon="6.11361">
        <ele>843.078966</ele>
        <time>2024-09-15T13:44:41.000Z</time>
      </trkpt>
      <trkpt lat="46.38304" lon="6.11373">
        <ele>840.839976</ele>
        <time>2024-09-15T13:44:42.000Z</time>
      </trkpt>
      <trkpt lat="46.38303" lon="6.11383">
        <ele>838.770927</ele>
        <time>2024-09-15T13:44:43.000Z</time>
      </trkpt>
      <trkpt lat="46.38301" lon="6.11393">
        <ele>836.837933</ele>
        <time>2024-09-15T13:44:44.000Z</time>
      </trkpt>
      <trkpt lat="46.38298" lon="6.11402">
        <ele>835.075707</ele>
        <time>2024-09-15T13:44:45.000Z</time>
      </trkpt>
      <trkpt lat="46.38296" lon="6.1141">
        <ele>833.425684</ele>
        <time>2024-09-15T13:44:46.000Z</time>
      </trkpt>
      <trkpt lat="46.38294" lon="6.11417">
        <ele>831.904825</ele>
        <time>2024-09-15T13:44:47.000Z</time>
      </trkpt>
      <trkpt lat="46.38292" lon="6.11426">
        <ele>830.274762</ele>
        <time>2024-09-15T13:44:48.000Z</time>
      </trkpt>
      <trkpt lat="46.38289" lon="6.11434">
        <ele>828.709016</ele>
        <time>2024-09-15T13:44:49.000Z</time>
      </trkpt>
      <trkpt lat="46.38285" lon="6.11441">
        <ele>826.990373</ele>
        <time>2024-09-15T13:44:50.000Z</time>
      </trkpt>
      <trkpt lat="46.38279" lon="6.1145">
        <ele>824.809409</ele>
        <time>2024-09-15T13:44:51.000Z</time>
      </trkpt>
      <trkpt lat="46.38275" lon="6.11459">
        <ele>823.091124</ele>
        <time>2024-09-15T13:44:52.000Z</time>
      </trkpt>
      <trkpt lat="46.38273" lon="6.11466">
        <ele>821.694975</ele>
        <time>2024-09-15T13:44:53.000Z</time>
      </trkpt>
      <trkpt lat="46.38272" lon="6.11472">
        <ele>820.541952</ele>
        <time>2024-09-15T13:44:54.000Z</time>
      </trkpt>
      <trkpt lat="46.38268" lon="6.11478">
        <ele>819.213172</ele>
        <time>2024-09-15T13:44:55.000Z</time>
      </trkpt>
      <trkpt lat="46.38265" lon="6.11482">
        <ele>818.157315</ele>
        <time>2024-09-15T13:44:56.000Z</time>
      </trkpt>
      <trkpt lat="46.38263" lon="6.11486">
        <ele>817.133665</ele>
        <time>2024-09-15T13:44:57.000Z</time>
      </trkpt>
      <trkpt lat="46.38258" lon="6.11492">
        <ele>815.56155</ele>
        <time>2024-09-15T13:44:58.000Z</time>
      </trkpt>
      <trkpt lat="46.38253" lon="6.11498">
        <ele>814.004706</ele>
        <time>2024-09-15T13:44:59.000Z</time>
      </trkpt>
      <trkpt lat="46.38249" lon="6.11504">
        <ele>812.520551</ele>
        <time>2024-09-15T13:45:00.000Z</time>
      </trkpt>
      <trkpt lat="46.38245" lon="6.11508">
        <ele>811.220771</ele>
        <time>2024-09-15T13:45:01.000Z</time>
      </trkpt>
      <trkpt lat="46.38243" lon="6.11512">
        <ele>810.364675</ele>
        <time>2024-09-15T13:45:02.000Z</time>
      </trkpt>
      <trkpt lat="46.38241" lon="6.11516">
        <ele>809.625074</ele>
        <time>2024-09-15T13:45:03.000Z</time>
      </trkpt>
      <trkpt lat="46.3824" lon="6.11519">
        <ele>808.859739</ele>
        <time>2024-09-15T13:45:04.000Z</time>
      </trkpt>
      <trkpt lat="46.38236" lon="6.11524">
        <ele>807.573378</ele>
        <time>2024-09-15T13:45:05.000Z</time>
      </trkpt>
      <trkpt lat="46.38232" lon="6.11529">
        <ele>806.250641</ele>
        <time>2024-09-15T13:45:06.000Z</time>
      </trkpt>
      <trkpt lat="46.38226" lon="6.11535">
        <ele>804.449735</ele>
        <time>2024-09-15T13:45:07.000Z</time>
      </trkpt>
      <trkpt lat="46.38222" lon="6.1154">
        <ele>803.088518</ele>
        <time>2024-09-15T13:45:08.000Z</time>
      </trkpt>
      <trkpt lat="46.38219" lon="6.11545">
        <ele>801.894925</ele>
        <time>2024-09-15T13:45:09.000Z</time>
      </trkpt>
      <trkpt lat="46.38215" lon="6.1155">
        <ele>800.707238</ele>
        <time>2024-09-15T13:45:10.000Z</time>
      </trkpt>
      <trkpt lat="46.38213" lon="6.11554">
        <ele>799.713822</ele>
        <time>2024-09-15T13:45:11.000Z</time>
      </trkpt>
      <trkpt lat="46.38209" lon="6.11556">
        <ele>798.781842</ele>
        <time>2024-09-15T13:45:12.000Z</time>
      </trkpt>
      <trkpt lat="46.38205" lon="6.11559">
        <ele>797.604958</ele>
        <time>2024-09-15T13:45:13.000Z</time>
      </trkpt>
      <trkpt lat="46.38199" lon="6.11561">
        <ele>796.116295</ele>
        <time>2024-09-15T13:45:14.000Z</time>
      </trkpt>
      <trkpt lat="46.38195" lon="6.11563">
        <ele>794.909766</ele>
        <time>2024-09-15T13:45:15.000Z</time>
      </trkpt>
      <trkpt lat="46.3819" lon="6.11565">
        <ele>793.505875</ele>
        <time>2024-09-15T13:45:16.000Z</time>
      </trkpt>
      <trkpt lat="46.38185" lon="6.11565">
        <ele>792.413286</ele>
        <time>2024-09-15T13:45:17.000Z</time>
      </trkpt>
      <trkpt lat="46.38181" lon="6.11563">
        <ele>791.386202</ele>
        <time>2024-09-15T13:45:18.000Z</time>
      </trkpt>
      <trkpt lat="46.38178" lon="6.11559">
        <ele>790.223212</ele>
        <time>2024-09-15T13:45:19.000Z</time>
      </trkpt>
      <trkpt lat="46.38172" lon="6.11555">
        <ele>788.644814</ele>
        <time>2024-09-15T13:45:20.000Z</time>
      </trkpt>
      <trkpt lat="46.38167" lon="6.11551">
        <ele>787.118776</ele>
        <time>2024-09-15T13:45:21.000Z</time>
      </trkpt>
      <trkpt lat="46.38162" lon="6.11549">
        <ele>785.863995</ele>
        <time>2024-09-15T13:45:22.000Z</time>
      </trkpt>
      <trkpt lat="46.38158" lon="6.11548">
        <ele>784.667001</ele>
        <time>2024-09-15T13:45:23.000Z</time>
      </trkpt>
      <trkpt lat="46.38154" lon="6.11546">
        <ele>783.132765</ele>
        <time>2024-09-15T13:45:24.000Z</time>
      </trkpt>
      <trkpt lat="46.38149" lon="6.11544">
        <ele>781.509331</ele>
        <time>2024-09-15T13:45:25.000Z</time>
      </trkpt>
      <trkpt lat="46.38143" lon="6.1154">
        <ele>779.123964</ele>
        <time>2024-09-15T13:45:26.000Z</time>
      </trkpt>
      <trkpt lat="46.38137" lon="6.11537">
        <ele>777.130757</ele>
        <time>2024-09-15T13:45:27.000Z</time>
      </trkpt>
      <trkpt lat="46.38131" lon="6.11533">
        <ele>774.967057</ele>
        <time>2024-09-15T13:45:28.000Z</time>
      </trkpt>
      <trkpt lat="46.38126" lon="6.1153">
        <ele>772.87402</ele>
        <time>2024-09-15T13:45:29.000Z</time>
      </trkpt>
      <trkpt lat="46.3812" lon="6.11526">
        <ele>770.721711</ele>
        <time>2024-09-15T13:45:30.000Z</time>
      </trkpt>
      <trkpt lat="46.38114" lon="6.11524">
        <ele>768.723391</ele>
        <time>2024-09-15T13:45:31.000Z</time>
      </trkpt>
      <trkpt lat="46.38108" lon="6.11522">
        <ele>766.623208</ele>
        <time>2024-09-15T13:45:32.000Z</time>
      </trkpt>
      <trkpt lat="46.38103" lon="6.1152">
        <ele>764.757826</ele>
        <time>2024-09-15T13:45:33.000Z</time>
      </trkpt>
      <trkpt lat="46.38099" lon="6.11518">
        <ele>763.300818</ele>
        <time>2024-09-15T13:45:34.000Z</time>
      </trkpt>
      <trkpt lat="46.38095" lon="6.11518">
        <ele>761.819606</ele>
        <time>2024-09-15T13:45:35.000Z</time>
      </trkpt>
      <trkpt lat="46.38091" lon="6.11516">
        <ele>760.590779</ele>
        <time>2024-09-15T13:45:36.000Z</time>
      </trkpt>
      <trkpt lat="46.38088" lon="6.11515">
        <ele>759.582167</ele>
        <time>2024-09-15T13:45:37.000Z</time>
      </trkpt>
      <trkpt lat="46.38087" lon="6.11514">
        <ele>759.001056</ele>
        <time>2024-09-15T13:45:38.000Z</time>
      </trkpt>
      <trkpt lat="46.38087" lon="6.11513">
        <ele>758.902723</ele>
        <time>2024-09-15T13:45:39.000Z</time>
      </trkpt>
      <trkpt lat="46.38087" lon="6.11513">
        <ele>758.902723</ele>
        <time>2024-09-15T13:45:40.000Z</time>
      </trkpt>
      <trkpt lat="46.38084" lon="6.11509">
        <ele>757.544509</ele>
        <time>2024-09-15T13:46:02.000Z</time>
      </trkpt>
      <trkpt lat="46.38083" lon="6.11508">
        <ele>757.02341</ele>
        <time>2024-09-15T13:46:03.000Z</time>
      </trkpt>
      <trkpt lat="46.38073" lon="6.11504">
        <ele>753.392066</ele>
        <time>2024-09-15T13:46:07.000Z</time>
      </trkpt>
      <trkpt lat="46.38071" lon="6.11504">
        <ele>752.769883</ele>
        <time>2024-09-15T13:46:08.000Z</time>
      </trkpt>
      <trkpt lat="46.3807" lon="6.11505">
        <ele>752.310349</ele>
        <time>2024-09-15T13:46:09.000Z</time>
      </trkpt>
      <trkpt lat="46.38068" lon="6.11505">
        <ele>751.691992</ele>
        <time>2024-09-15T13:46:10.000Z</time>
      </trkpt>
      <trkpt lat="46.38066" lon="6.11506">
        <ele>751.199356</ele>
        <time>2024-09-15T13:46:11.000Z</time>
      </trkpt>
      <trkpt lat="46.38065" lon="6.11505">
        <ele>750.829579</ele>
        <time>2024-09-15T13:46:12.000Z</time>
      </trkpt>
      <trkpt lat="46.38064" lon="6.11504">
        <ele>750.344668</ele>
        <time>2024-09-15T13:46:13.000Z</time>
      </trkpt>
      <trkpt lat="46.38063" lon="6.11503">
        <ele>749.687968</ele>
        <time>2024-09-15T13:46:14.000Z</time>
      </trkpt>
      <trkpt lat="46.38061" lon="6.11502">
        <ele>749.023578</ele>
        <time>2024-09-15T13:46:15.000Z</time>
      </trkpt>
      <trkpt lat="46.38059" lon="6.11502">
        <ele>748.338623</ele>
        <time>2024-09-15T13:46:16.000Z</time>
      </trkpt>
      <trkpt lat="46.38057" lon="6.11503">
        <ele>747.629753</ele>
        <time>2024-09-15T13:46:17.000Z</time>
      </trkpt>
      <trkpt lat="46.38055" lon="6.11504">
        <ele>746.95995</ele>
        <time>2024-09-15T13:46:18.000Z</time>
      </trkpt>
      <trkpt lat="46.38053" lon="6.11504">
        <ele>746.367283</ele>
        <time>2024-09-15T13:46:19.000Z</time>
      </trkpt>
      <trkpt lat="46.38051" lon="6.11504">
        <ele>745.730537</ele>
        <time>2024-09-15T13:46:20.000Z</time>
      </trkpt>
      <trkpt lat="46.38048" lon="6.11502">
        <ele>744.389395</ele>
        <time>2024-09-15T13:46:22.000Z</time>
      </trkpt>
      <trkpt lat="46.38046" lon="6.115">
        <ele>743.683759</ele>
        <time>2024-09-15T13:46:23.000Z</time>
      </trkpt>
      <trkpt lat="46.38044" lon="6.11498">
        <ele>743.003162</ele>
        <time>2024-09-15T13:46:24.000Z</time>
      </trkpt>
      <trkpt lat="46.38043" lon="6.11496">
        <ele>742.27409</ele>
        <time>2024-09-15T13:46:25.000Z</time>
      </trkpt>
      <trkpt lat="46.38041" lon="6.11493">
        <ele>741.381356</ele>
        <time>2024-09-15T13:46:26.000Z</time>
      </trkpt>
      <trkpt lat="46.3804" lon="6.11491">
        <ele>740.622391</ele>
        <time>2024-09-15T13:46:27.000Z</time>
      </trkpt>
      <trkpt lat="46.38038" lon="6.11489">
        <ele>739.926058</ele>
        <time>2024-09-15T13:46:28.000Z</time>
      </trkpt>
      <trkpt lat="46.38036" lon="6.11484">
        <ele>738.412726</ele>
        <time>2024-09-15T13:46:30.000Z</time>
      </trkpt>
      <trkpt lat="46.38032" lon="6.11481">
        <ele>737.147667</ele>
        <time>2024-09-15T13:46:31.000Z</time>
      </trkpt>
      <trkpt lat="46.38028" lon="6.11476">
        <ele>735.296088</ele>
        <time>2024-09-15T13:46:33.000Z</time>
      </trkpt>
      <trkpt lat="46.38025" lon="6.11473">
        <ele>734.072409</ele>
        <time>2024-09-15T13:46:35.000Z</time>
      </trkpt>
      <trkpt lat="46.38022" lon="6.11471">
        <ele>732.843581</ele>
        <time>2024-09-15T13:46:36.000Z</time>
      </trkpt>
      <trkpt lat="46.38019" lon="6.11468">
        <ele>731.688329</ele>
        <time>2024-09-15T13:46:37.000Z</time>
      </trkpt>
      <trkpt lat="46.38018" lon="6.11464">
        <ele>730.717132</ele>
        <time>2024-09-15T13:46:38.000Z</time>
      </trkpt>
      <trkpt lat="46.38017" lon="6.11461">
        <ele>729.767281</ele>
        <time>2024-09-15T13:46:39.000Z</time>
      </trkpt>
      <trkpt lat="46.38016" lon="6.11458">
        <ele>729.088122</ele>
        <time>2024-09-15T13:46:40.000Z</time>
      </trkpt>
      <trkpt lat="46.38016" lon="6.11456">
        <ele>728.559538</ele>
        <time>2024-09-15T13:46:41.000Z</time>
      </trkpt>
      <trkpt lat="46.38015" lon="6.11454">
        <ele>728.074492</ele>
        <time>2024-09-15T13:46:42.000Z</time>
      </trkpt>
      <trkpt lat="46.38014" lon="6.11453">
        <ele>727.56561</ele>
        <time>2024-09-15T13:46:43.000Z</time>
      </trkpt>
      <trkpt lat="46.38013" lon="6.11451">
        <ele>727.14781</ele>
        <time>2024-09-15T13:46:44.000Z</time>
      </trkpt>
      <trkpt lat="46.38013" lon="6.11451">
        <ele>726.993934</ele>
        <time>2024-09-15T13:46:45.000Z</time>
      </trkpt>
      <trkpt lat="46.38012" lon="6.11451">
        <ele>726.854667</ele>
        <time>2024-09-15T13:46:46.000Z</time>
      </trkpt>
      <trkpt lat="46.38012" lon="6.1145">
        <ele>726.602321</ele>
        <time>2024-09-15T13:46:47.000Z</time>
      </trkpt>
      <trkpt lat="46.38011" lon="6.11449">
        <ele>726.241395</ele>
        <time>2024-09-15T13:46:48.000Z</time>
      </trkpt>
      <trkpt lat="46.3801" lon="6.11449">
        <ele>725.933896</ele>
        <time>2024-09-15T13:46:49.000Z</time>
      </trkpt>
      <trkpt lat="46.3801" lon="6.11449">
        <ele>725.676817</ele>
        <time>2024-09-15T13:46:50.000Z</time>
      </trkpt>
      <trkpt lat="46.38008" lon="6.1145">
        <ele>725.217283</ele>
        <time>2024-09-15T13:46:51.000Z</time>
      </trkpt>
      <trkpt lat="46.38008" lon="6.1145">
        <ele>725.044832</ele>
        <time>2024-09-15T13:46:52.000Z</time>
      </trkpt>
      <trkpt lat="46.38007" lon="6.11449">
        <ele>724.698838</ele>
        <time>2024-09-15T13:46:53.000Z</time>
      </trkpt>
      <trkpt lat="46.38006" lon="6.11448">
        <ele>724.255287</ele>
        <time>2024-09-15T13:46:54.000Z</time>
      </trkpt>
      <trkpt lat="46.38005" lon="6.11447">
        <ele>723.784913</ele>
        <time>2024-09-15T13:46:55.000Z</time>
      </trkpt>
      <trkpt lat="46.38003" lon="6.11445">
        <ele>723.261746</ele>
        <time>2024-09-15T13:46:56.000Z</time>
      </trkpt>
      <trkpt lat="46.38002" lon="6.11443">
        <ele>722.77085</ele>
        <time>2024-09-15T13:46:57.000Z</time>
      </trkpt>
      <trkpt lat="46.38" lon="6.11442">
        <ele>722.318319</ele>
        <time>2024-09-15T13:46:58.000Z</time>
      </trkpt>
      <trkpt lat="46.37998" lon="6.11442">
        <ele>721.706849</ele>
        <time>2024-09-15T13:46:59.000Z</time>
      </trkpt>
      <trkpt lat="46.37994" lon="6.11439">
        <ele>720.795251</ele>
        <time>2024-09-15T13:47:00.000Z</time>
      </trkpt>
      <trkpt lat="46.37985" lon="6.11436">
        <ele>718.501169</ele>
        <time>2024-09-15T13:47:03.000Z</time>
      </trkpt>
      <trkpt lat="46.37984" lon="6.11434">
        <ele>717.998463</ele>
        <time>2024-09-15T13:47:04.000Z</time>
      </trkpt>
      <trkpt lat="46.37982" lon="6.11432">
        <ele>717.347053</ele>
        <time>2024-09-15T13:47:05.000Z</time>
      </trkpt>
      <trkpt lat="46.3798" lon="6.1143">
        <ele>716.736449</ele>
        <time>2024-09-15T13:47:06.000Z</time>
      </trkpt>
      <trkpt lat="46.37977" lon="6.11429">
        <ele>716.139052</ele>
        <time>2024-09-15T13:47:07.000Z</time>
      </trkpt>
      <trkpt lat="46.37975" lon="6.11427">
        <ele>715.413845</ele>
        <time>2024-09-15T13:47:08.000Z</time>
      </trkpt>
      <trkpt lat="46.37972" lon="6.11426">
        <ele>714.717132</ele>
        <time>2024-09-15T13:47:09.000Z</time>
      </trkpt>
      <trkpt lat="46.37969" lon="6.11423">
        <ele>713.995745</ele>
        <time>2024-09-15T13:47:10.000Z</time>
      </trkpt>
      <trkpt lat="46.37968" lon="6.11422">
        <ele>713.491883</ele>
        <time>2024-09-15T13:47:11.000Z</time>
      </trkpt>
      <trkpt lat="46.37966" lon="6.11422">
        <ele>712.993892</ele>
        <time>2024-09-15T13:47:12.000Z</time>
      </trkpt>
      <trkpt lat="46.37963" lon="6.11421">
        <ele>712.224531</ele>
        <time>2024-09-15T13:47:13.000Z</time>
      </trkpt>
      <trkpt lat="46.37958" lon="6.1142">
        <ele>711.00826</ele>
        <time>2024-09-15T13:47:15.000Z</time>
      </trkpt>
      <trkpt lat="46.37955" lon="6.11419">
        <ele>710.420637</ele>
        <time>2024-09-15T13:47:16.000Z</time>
      </trkpt>
      <trkpt lat="46.37954" lon="6.11419">
        <ele>709.95098</ele>
        <time>2024-09-15T13:47:17.000Z</time>
      </trkpt>
      <trkpt lat="46.37952" lon="6.11417">
        <ele>709.500502</ele>
        <time>2024-09-15T13:47:18.000Z</time>
      </trkpt>
      <trkpt lat="46.37951" lon="6.11414">
        <ele>708.953968</ele>
        <time>2024-09-15T13:47:19.000Z</time>
      </trkpt>
      <trkpt lat="46.3795" lon="6.11411">
        <ele>708.382723</ele>
        <time>2024-09-15T13:47:20.000Z</time>
      </trkpt>
      <trkpt lat="46.37949" lon="6.11406">
        <ele>707.442885</ele>
        <time>2024-09-15T13:47:21.000Z</time>
      </trkpt>
      <trkpt lat="46.37951" lon="6.11401">
        <ele>706.546204</ele>
        <time>2024-09-15T13:47:22.000Z</time>
      </trkpt>
      <trkpt lat="46.37953" lon="6.11399">
        <ele>705.944436</ele>
        <time>2024-09-15T13:47:23.000Z</time>
      </trkpt>
      <trkpt lat="46.37955" lon="6.11398">
        <ele>705.47804</ele>
        <time>2024-09-15T13:47:24.000Z</time>
      </trkpt>
      <trkpt lat="46.37955" lon="6.11396">
        <ele>705.103678</ele>
        <time>2024-09-15T13:47:25.000Z</time>
      </trkpt>
      <trkpt lat="46.37955" lon="6.11393">
        <ele>704.607741</ele>
        <time>2024-09-15T13:47:26.000Z</time>
      </trkpt>
      <trkpt lat="46.37954" lon="6.11389">
        <ele>703.954887</ele>
        <time>2024-09-15T13:47:27.000Z</time>
      </trkpt>
      <trkpt lat="46.37954" lon="6.11385">
        <ele>703.23977</ele>
        <time>2024-09-15T13:47:28.000Z</time>
      </trkpt>
      <trkpt lat="46.37953" lon="6.1138">
        <ele>702.376918</ele>
        <time>2024-09-15T13:47:29.000Z</time>
      </trkpt>
      <trkpt lat="46.37953" lon="6.11377">
        <ele>701.950308</ele>
        <time>2024-09-15T13:47:30.000Z</time>
      </trkpt>
      <trkpt lat="46.37953" lon="6.11379">
        <ele>701.711757</ele>
        <time>2024-09-15T13:47:32.000Z</time>
      </trkpt>
      <trkpt lat="46.3795" lon="6.11379">
        <ele>700.945412</ele>
        <time>2024-09-15T13:47:33.000Z</time>
      </trkpt>
      <trkpt lat="46.37948" lon="6.1138">
        <ele>700.375271</ele>
        <time>2024-09-15T13:47:34.000Z</time>
      </trkpt>
      <trkpt lat="46.37944" lon="6.11383">
        <ele>699.29398</ele>
        <time>2024-09-15T13:47:36.000Z</time>
      </trkpt>
      <trkpt lat="46.37942" lon="6.11382">
        <ele>698.960716</ele>
        <time>2024-09-15T13:47:37.000Z</time>
      </trkpt>
      <trkpt lat="46.37941" lon="6.11381">
        <ele>698.599646</ele>
        <time>2024-09-15T13:47:38.000Z</time>
      </trkpt>
      <trkpt lat="46.3794" lon="6.1138">
        <ele>698.290006</ele>
        <time>2024-09-15T13:47:39.000Z</time>
      </trkpt>
      <trkpt lat="46.37939" lon="6.11379">
        <ele>697.892064</ele>
        <time>2024-09-15T13:47:40.000Z</time>
      </trkpt>
      <trkpt lat="46.37934" lon="6.1138">
        <ele>696.593285</ele>
        <time>2024-09-15T13:47:42.000Z</time>
      </trkpt>
      <trkpt lat="46.3793" lon="6.11381">
        <ele>695.802328</ele>
        <time>2024-09-15T13:47:43.000Z</time>
      </trkpt>
      <trkpt lat="46.37928" lon="6.11382">
        <ele>695.07712</ele>
        <time>2024-09-15T13:47:44.000Z</time>
      </trkpt>
      <trkpt lat="46.37922" lon="6.11385">
        <ele>693.702838</ele>
        <time>2024-09-15T13:47:46.000Z</time>
      </trkpt>
      <trkpt lat="46.37919" lon="6.11385">
        <ele>692.908958</ele>
        <time>2024-09-15T13:47:47.000Z</time>
      </trkpt>
      <trkpt lat="46.37915" lon="6.11385">
        <ele>691.772287</ele>
        <time>2024-09-15T13:47:48.000Z</time>
      </trkpt>
      <trkpt lat="46.3791" lon="6.11384">
        <ele>690.583931</ele>
        <time>2024-09-15T13:47:49.000Z</time>
      </trkpt>
      <trkpt lat="46.37905" lon="6.11385">
        <ele>689.399847</ele>
        <time>2024-09-15T13:47:50.000Z</time>
      </trkpt>
      <trkpt lat="46.379" lon="6.11385">
        <ele>688.160814</ele>
        <time>2024-09-15T13:47:51.000Z</time>
      </trkpt>
      <trkpt lat="46.37894" lon="6.11385">
        <ele>686.779105</ele>
        <time>2024-09-15T13:47:52.000Z</time>
      </trkpt>
      <trkpt lat="46.37891" lon="6.11385">
        <ele>685.890482</ele>
        <time>2024-09-15T13:47:53.000Z</time>
      </trkpt>
      <trkpt lat="46.37888" lon="6.11383">
        <ele>685.066772</ele>
        <time>2024-09-15T13:47:54.000Z</time>
      </trkpt>
      <trkpt lat="46.37884" lon="6.1138">
        <ele>683.937633</ele>
        <time>2024-09-15T13:47:55.000Z</time>
      </trkpt>
      <trkpt lat="46.37881" lon="6.11374">
        <ele>682.687109</ele>
        <time>2024-09-15T13:47:56.000Z</time>
      </trkpt>
      <trkpt lat="46.37877" lon="6.11368">
        <ele>681.333988</ele>
        <time>2024-09-15T13:47:57.000Z</time>
      </trkpt>
      <trkpt lat="46.37876" lon="6.11363">
        <ele>680.452769</ele>
        <time>2024-09-15T13:47:58.000Z</time>
      </trkpt>
      <trkpt lat="46.37875" lon="6.1136">
        <ele>679.77656</ele>
        <time>2024-09-15T13:47:59.000Z</time>
      </trkpt>
      <trkpt lat="46.37874" lon="6.11356">
        <ele>679.143989</ele>
        <time>2024-09-15T13:48:00.000Z</time>
      </trkpt>
      <trkpt lat="46.37871" lon="6.11353">
        <ele>678.756835</ele>
        <time>2024-09-15T13:48:01.000Z</time>
      </trkpt>
      <trkpt lat="46.3787" lon="6.11349">
        <ele>678.381147</ele>
        <time>2024-09-15T13:48:02.000Z</time>
      </trkpt>
      <trkpt lat="46.37868" lon="6.11345">
        <ele>677.940246</ele>
        <time>2024-09-15T13:48:03.000Z</time>
      </trkpt>
      <trkpt lat="46.37866" lon="6.11341">
        <ele>677.514265</ele>
        <time>2024-09-15T13:48:04.000Z</time>
      </trkpt>
      <trkpt lat="46.37864" lon="6.11337">
        <ele>677.10287</ele>
        <time>2024-09-15T13:48:05.000Z</time>
      </trkpt>
      <trkpt lat="46.37863" lon="6.11334">
        <ele>676.750677</ele>
        <time>2024-09-15T13:48:06.000Z</time>
      </trkpt>
      <trkpt lat="46.37862" lon="6.11329">
        <ele>676.377171</ele>
        <time>2024-09-15T13:48:07.000Z</time>
      </trkpt>
      <trkpt lat="46.37862" lon="6.11326">
        <ele>676.038057</ele>
        <time>2024-09-15T13:48:08.000Z</time>
      </trkpt>
      <trkpt lat="46.3786" lon="6.11323">
        <ele>675.711094</ele>
        <time>2024-09-15T13:48:09.000Z</time>
      </trkpt>
      <trkpt lat="46.37858" lon="6.11321">
        <ele>675.386932</ele>
        <time>2024-09-15T13:48:10.000Z</time>
      </trkpt>
      <trkpt lat="46.37855" lon="6.11321">
        <ele>675.00413</ele>
        <time>2024-09-15T13:48:11.000Z</time>
      </trkpt>
      <trkpt lat="46.37852" lon="6.11321">
        <ele>674.619326</ele>
        <time>2024-09-15T13:48:12.000Z</time>
      </trkpt>
      <trkpt lat="46.37849" lon="6.11322">
        <ele>674.263114</ele>
        <time>2024-09-15T13:48:13.000Z</time>
      </trkpt>
      <trkpt lat="46.37847" lon="6.11322">
        <ele>673.991145</ele>
        <time>2024-09-15T13:48:14.000Z</time>
      </trkpt>
      <trkpt lat="46.37846" lon="6.11322">
        <ele>673.825729</ele>
        <time>2024-09-15T13:48:15.000Z</time>
      </trkpt>
      <trkpt lat="46.37844" lon="6.11323">
        <ele>673.681627</ele>
        <time>2024-09-15T13:48:16.000Z</time>
      </trkpt>
      <trkpt lat="46.37843" lon="6.11324">
        <ele>673.51667</ele>
        <time>2024-09-15T13:48:17.000Z</time>
      </trkpt>
      <trkpt lat="46.37842" lon="6.11326">
        <ele>673.290137</ele>
        <time>2024-09-15T13:48:18.000Z</time>
      </trkpt>
      <trkpt lat="46.3784" lon="6.11326">
        <ele>673.050912</ele>
        <time>2024-09-15T13:48:19.000Z</time>
      </trkpt>
      <trkpt lat="46.37832" lon="6.11328">
        <ele>672.049935</ele>
        <time>2024-09-15T13:48:21.000Z</time>
      </trkpt>
      <trkpt lat="46.37823" lon="6.1133">
        <ele>670.785568</ele>
        <time>2024-09-15T13:48:23.000Z</time>
      </trkpt>
      <trkpt lat="46.37817" lon="6.11333">
        <ele>670.001272</ele>
        <time>2024-09-15T13:48:24.000Z</time>
      </trkpt>
      <trkpt lat="46.37811" lon="6.11336">
        <ele>669.194803</ele>
        <time>2024-09-15T13:48:25.000Z</time>
      </trkpt>
      <trkpt lat="46.37806" lon="6.11339">
        <ele>668.552802</ele>
        <time>2024-09-15T13:48:26.000Z</time>
      </trkpt>
      <trkpt lat="46.37802" lon="6.11344">
        <ele>667.899339</ele>
        <time>2024-09-15T13:48:27.000Z</time>
      </trkpt>
      <trkpt lat="46.37798" lon="6.1135">
        <ele>667.128677</ele>
        <time>2024-09-15T13:48:28.000Z</time>
      </trkpt>
      <trkpt lat="46.37795" lon="6.11357">
        <ele>666.385465</ele>
        <time>2024-09-15T13:48:29.000Z</time>
      </trkpt>
      <trkpt lat="46.37792" lon="6.11365">
        <ele>665.628769</ele>
        <time>2024-09-15T13:48:30.000Z</time>
      </trkpt>
      <trkpt lat="46.37789" lon="6.11374">
        <ele>664.71386</ele>
        <time>2024-09-15T13:48:31.000Z</time>
      </trkpt>
      <trkpt lat="46.37785" lon="6.11385">
        <ele>663.631581</ele>
        <time>2024-09-15T13:48:32.000Z</time>
      </trkpt>
      <trkpt lat="46.37782" lon="6.11397">
        <ele>662.467164</ele>
        <time>2024-09-15T13:48:33.000Z</time>
      </trkpt>
      <trkpt lat="46.37778" lon="6.11412">
        <ele>661.153642</ele>
        <time>2024-09-15T13:48:34.000Z</time>
      </trkpt>
      <trkpt lat="46.37772" lon="6.11426">
        <ele>659.658213</ele>
        <time>2024-09-15T13:48:35.000Z</time>
      </trkpt>
      <trkpt lat="46.37769" lon="6.11438">
        <ele>658.52578</ele>
        <time>2024-09-15T13:48:36.000Z</time>
      </trkpt>
      <trkpt lat="46.37765" lon="6.1146">
        <ele>656.524742</ele>
        <time>2024-09-15T13:48:38.000Z</time>
      </trkpt>
      <trkpt lat="46.37764" lon="6.11472">
        <ele>655.262005</ele>
        <time>2024-09-15T13:48:39.000Z</time>
      </trkpt>
      <trkpt lat="46.37764" lon="6.11484">
        <ele>653.923887</ele>
        <time>2024-09-15T13:48:40.000Z</time>
      </trkpt>
      <trkpt lat="46.37764" lon="6.11498">
        <ele>652.499096</ele>
        <time>2024-09-15T13:48:41.000Z</time>
      </trkpt>
      <trkpt lat="46.37764" lon="6.11511">
        <ele>651.031483</ele>
        <time>2024-09-15T13:48:42.000Z</time>
      </trkpt>
      <trkpt lat="46.37763" lon="6.11524">
        <ele>649.658888</ele>
        <time>2024-09-15T13:48:43.000Z</time>
      </trkpt>
      <trkpt lat="46.37761" lon="6.11534">
        <ele>648.497912</ele>
        <time>2024-09-15T13:48:44.000Z</time>
      </trkpt>
      <trkpt lat="46.37757" lon="6.11542">
        <ele>647.467514</ele>
        <time>2024-09-15T13:48:45.000Z</time>
      </trkpt>
      <trkpt lat="46.37753" lon="6.11548">
        <ele>646.55934</ele>
        <time>2024-09-15T13:48:46.000Z</time>
      </trkpt>
      <trkpt lat="46.37748" lon="6.11555">
        <ele>645.561995</ele>
        <time>2024-09-15T13:48:47.000Z</time>
      </trkpt>
      <trkpt lat="46.37744" lon="6.11562">
        <ele>644.497506</ele>
        <time>2024-09-15T13:48:48.000Z</time>
      </trkpt>
      <trkpt lat="46.3774" lon="6.1157">
        <ele>643.43931</ele>
        <time>2024-09-15T13:48:49.000Z</time>
      </trkpt>
      <trkpt lat="46.37735" lon="6.11578">
        <ele>642.318285</ele>
        <time>2024-09-15T13:48:50.000Z</time>
      </trkpt>
      <trkpt lat="46.3773" lon="6.11584">
        <ele>641.240748</ele>
        <time>2024-09-15T13:48:51.000Z</time>
      </trkpt>
      <trkpt lat="46.37717" lon="6.11591">
        <ele>639.108039</ele>
        <time>2024-09-15T13:48:53.000Z</time>
      </trkpt>
      <trkpt lat="46.37712" lon="6.11592">
        <ele>638.25782</ele>
        <time>2024-09-15T13:48:54.000Z</time>
      </trkpt>
      <trkpt lat="46.37708" lon="6.11592">
        <ele>637.725016</ele>
        <time>2024-09-15T13:48:55.000Z</time>
      </trkpt>
      <trkpt lat="46.37707" lon="6.11592">
        <ele>637.521387</ele>
        <time>2024-09-15T13:48:56.000Z</time>
      </trkpt>
      <trkpt lat="46.37707" lon="6.11592">
        <ele>637.521387</ele>
        <time>2024-09-15T13:48:57.000Z</time>
      </trkpt>
      <trkpt lat="46.37707" lon="6.11592">
        <ele>637.521387</ele>
        <time>2024-09-15T13:48:58.000Z</time>
      </trkpt>
      <trkpt lat="46.37702" lon="6.1159">
        <ele>636.707129</ele>
        <time>2024-09-15T13:49:08.000Z</time>
      </trkpt>
      <trkpt lat="46.37698" lon="6.11589">
        <ele>636.137447</ele>
        <time>2024-09-15T13:49:12.000Z</time>
      </trkpt>
      <trkpt lat="46.37698" lon="6.11589">
        <ele>636.104354</ele>
        <time>2024-09-15T13:49:13.000Z</time>
      </trkpt>
      <trkpt lat="46.37698" lon="6.11589">
        <ele>636.104354</ele>
        <time>2024-09-15T13:49:14.000Z</time>
      </trkpt>
      <trkpt lat="46.37698" lon="6.11588">
        <ele>635.987865</ele>
        <time>2024-09-15T13:49:20.000Z</time>
      </trkpt>
      <trkpt lat="46.37693" lon="6.1159">
        <ele>635.257676</ele>
        <time>2024-09-15T13:51:49.000Z</time>
      </trkpt>
      <trkpt lat="46.37691" lon="6.11591">
        <ele>634.827474</ele>
        <time>2024-09-15T13:51:50.000Z</time>
      </trkpt>
      <trkpt lat="46.37676" lon="6.11601">
        <ele>632.319784</ele>
        <time>2024-09-15T13:51:53.000Z</time>
      </trkpt>
      <trkpt lat="46.37671" lon="6.11605">
        <ele>631.44564</ele>
        <time>2024-09-15T13:51:54.000Z</time>
      </trkpt>
      <trkpt lat="46.37667" lon="6.11611">
        <ele>630.514722</ele>
        <time>2024-09-15T13:51:55.000Z</time>
      </trkpt>
      <trkpt lat="46.37652" lon="6.1163">
        <ele>627.832213</ele>
        <time>2024-09-15T13:51:58.000Z</time>
      </trkpt>
      <trkpt lat="46.37636" lon="6.11651">
        <ele>626.272823</ele>
        <time>2024-09-15T13:52:01.000Z</time>
      </trkpt>
      <trkpt lat="46.37623" lon="6.11665">
        <ele>625.111485</ele>
        <time>2024-09-15T13:52:03.000Z</time>
      </trkpt>
      <trkpt lat="46.37609" lon="6.11679">
        <ele>623.909564</ele>
        <time>2024-09-15T13:52:05.000Z</time>
      </trkpt>
      <trkpt lat="46.37602" lon="6.11685">
        <ele>623.280181</ele>
        <time>2024-09-15T13:52:06.000Z</time>
      </trkpt>
      <trkpt lat="46.37586" lon="6.11697">
        <ele>622.002545</ele>
        <time>2024-09-15T13:52:08.000Z</time>
      </trkpt>
      <trkpt lat="46.37577" lon="6.11702">
        <ele>621.319942</ele>
        <time>2024-09-15T13:52:09.000Z</time>
      </trkpt>
      <trkpt lat="46.37568" lon="6.11706">
        <ele>620.63939</ele>
        <time>2024-09-15T13:52:10.000Z</time>
      </trkpt>
      <trkpt lat="46.37549" lon="6.11713">
        <ele>619.232175</ele>
        <time>2024-09-15T13:52:12.000Z</time>
      </trkpt>
      <trkpt lat="46.37539" lon="6.11711">
        <ele>618.521872</ele>
        <time>2024-09-15T13:52:13.000Z</time>
      </trkpt>
      <trkpt lat="46.3753" lon="6.11709">
        <ele>617.847703</ele>
        <time>2024-09-15T13:52:14.000Z</time>
      </trkpt>
      <trkpt lat="46.37521" lon="6.11705">
        <ele>617.177236</ele>
        <time>2024-09-15T13:52:15.000Z</time>
      </trkpt>
      <trkpt lat="46.37512" lon="6.11702">
        <ele>616.505074</ele>
        <time>2024-09-15T13:52:16.000Z</time>
      </trkpt>
      <trkpt lat="46.37503" lon="6.11699">
        <ele>615.815827</ele>
        <time>2024-09-15T13:52:17.000Z</time>
      </trkpt>
      <trkpt lat="46.37493" lon="6.11699">
        <ele>615.138945</ele>
        <time>2024-09-15T13:52:18.000Z</time>
      </trkpt>
      <trkpt lat="46.37474" lon="6.11699">
        <ele>613.953766</ele>
        <time>2024-09-15T13:52:20.000Z</time>
      </trkpt>
      <trkpt lat="46.37466" lon="6.11698">
        <ele>613.438277</ele>
        <time>2024-09-15T13:52:21.000Z</time>
      </trkpt>
      <trkpt lat="46.37449" lon="6.11691">
        <ele>612.281863</ele>
        <time>2024-09-15T13:52:23.000Z</time>
      </trkpt>
      <trkpt lat="46.3744" lon="6.11685">
        <ele>611.699902</ele>
        <time>2024-09-15T13:52:24.000Z</time>
      </trkpt>
      <trkpt lat="46.37432" lon="6.11679">
        <ele>611.079166</ele>
        <time>2024-09-15T13:52:25.000Z</time>
      </trkpt>
      <trkpt lat="46.37423" lon="6.11672">
        <ele>610.467381</ele>
        <time>2024-09-15T13:52:26.000Z</time>
      </trkpt>
      <trkpt lat="46.37415" lon="6.11666">
        <ele>609.868186</ele>
        <time>2024-09-15T13:52:27.000Z</time>
      </trkpt>
      <trkpt lat="46.37406" lon="6.11662">
        <ele>609.273748</ele>
        <time>2024-09-15T13:52:28.000Z</time>
      </trkpt>
      <trkpt lat="46.37397" lon="6.11659">
        <ele>608.666552</ele>
        <time>2024-09-15T13:52:29.000Z</time>
      </trkpt>
      <trkpt lat="46.37377" lon="6.11658">
        <ele>607.410472</ele>
        <time>2024-09-15T13:52:31.000Z</time>
      </trkpt>
      <trkpt lat="46.37355" lon="6.11659">
        <ele>606.040462</ele>
        <time>2024-09-15T13:52:33.000Z</time>
      </trkpt>
      <trkpt lat="46.37345" lon="6.11662">
        <ele>605.361487</ele>
        <time>2024-09-15T13:52:34.000Z</time>
      </trkpt>
      <trkpt lat="46.37334" lon="6.11667">
        <ele>604.660378</ele>
        <time>2024-09-15T13:52:35.000Z</time>
      </trkpt>
      <trkpt lat="46.37323" lon="6.11673">
        <ele>603.92525</ele>
        <time>2024-09-15T13:52:36.000Z</time>
      </trkpt>
      <trkpt lat="46.37313" lon="6.11681">
        <ele>603.116409</ele>
        <time>2024-09-15T13:52:37.000Z</time>
      </trkpt>
      <trkpt lat="46.37304" lon="6.11689">
        <ele>602.301159</ele>
        <time>2024-09-15T13:52:38.000Z</time>
      </trkpt>
      <trkpt lat="46.37284" lon="6.11706">
        <ele>600.620084</ele>
        <time>2024-09-15T13:52:40.000Z</time>
      </trkpt>
      <trkpt lat="46.37274" lon="6.11714">
        <ele>599.780883</ele>
        <time>2024-09-15T13:52:41.000Z</time>
      </trkpt>
      <trkpt lat="46.37264" lon="6.11722">
        <ele>598.962672</ele>
        <time>2024-09-15T13:52:42.000Z</time>
      </trkpt>
      <trkpt lat="46.37254" lon="6.11728">
        <ele>598.179892</ele>
        <time>2024-09-15T13:52:43.000Z</time>
      </trkpt>
      <trkpt lat="46.37232" lon="6.11734">
        <ele>596.529079</ele>
        <time>2024-09-15T13:52:45.000Z</time>
      </trkpt>
      <trkpt lat="46.37222" lon="6.11734">
        <ele>595.786205</ele>
        <time>2024-09-15T13:52:46.000Z</time>
      </trkpt>
      <trkpt lat="46.37212" lon="6.11734">
        <ele>595.108941</ele>
        <time>2024-09-15T13:52:47.000Z</time>
      </trkpt>
      <trkpt lat="46.37203" lon="6.11734">
        <ele>594.424395</ele>
        <time>2024-09-15T13:52:48.000Z</time>
      </trkpt>
      <trkpt lat="46.37193" lon="6.11736">
        <ele>593.727312</ele>
        <time>2024-09-15T13:52:49.000Z</time>
      </trkpt>
      <trkpt lat="46.37184" lon="6.1174">
        <ele>593.022268</ele>
        <time>2024-09-15T13:52:50.000Z</time>
      </trkpt>
      <trkpt lat="46.37174" lon="6.11745">
        <ele>592.270829</ele>
        <time>2024-09-15T13:52:51.000Z</time>
      </trkpt>
      <trkpt lat="46.37155" lon="6.11756">
        <ele>590.784965</ele>
        <time>2024-09-15T13:52:53.000Z</time>
      </trkpt>
      <trkpt lat="46.3714" lon="6.11762">
        <ele>590.466751</ele>
        <time>2024-09-15T13:52:55.000Z</time>
      </trkpt>
      <trkpt lat="46.37133" lon="6.11761">
        <ele>590.329151</ele>
        <time>2024-09-15T13:52:56.000Z</time>
      </trkpt>
      <trkpt lat="46.37126" lon="6.11758">
        <ele>590.193629</ele>
        <time>2024-09-15T13:52:57.000Z</time>
      </trkpt>
      <trkpt lat="46.37114" lon="6.11748">
        <ele>589.931324</ele>
        <time>2024-09-15T13:52:59.000Z</time>
      </trkpt>
      <trkpt lat="46.37103" lon="6.11737">
        <ele>589.685998</ele>
        <time>2024-09-15T13:53:01.000Z</time>
      </trkpt>
      <trkpt lat="46.37092" lon="6.11728">
        <ele>589.454671</ele>
        <time>2024-09-15T13:53:03.000Z</time>
      </trkpt>
    </trkseg>
  </trk>
</gpx>